<?xml version='1.0' encoding='UTF-8'?><gpx version="1.1" creator="JPX - https://github.com/jenetics/jpx" xmlns="http://www.topografix.com/GPX/1/1"><trk><trkseg><trkpt lat="44.7123764071436" lon="9.380303453429917"><ele>322.0</ele><time>2026-04-11T09:16:07.999Z</time></trkpt><trkpt lat="44.71236595720265" lon="9.38039327873999"><ele>322.0</ele><time>2026-04-11T09:16:09.999Z</time></trkpt><trkpt lat="44.71237078933409" lon="9.38050907736241"><ele>322.0</ele><time>2026-04-11T09:16:13.999Z</time></trkpt><trkpt lat="44.712337607141926" lon="9.380355736916242"><ele>322.0</ele><time>2026-04-11T09:16:16.999Z</time></trkpt><trkpt lat="44.71242713477285" lon="9.380282596612345"><ele>322.0</ele><time>2026-04-11T09:17:19.443Z</time></trkpt><trkpt lat="44.712449264606406" lon="9.380161204747015"><ele>322.0</ele><time>2026-04-11T09:18:55.613Z</time></trkpt><trkpt lat="44.71237449289343" lon="9.380096973436514"><ele>322.0</ele><time>2026-04-11T09:20:08Z</time></trkpt><trkpt lat="44.712392903575264" lon="9.380010613693102"><ele>322.0</ele><time>2026-04-11T09:26:55.999Z</time></trkpt><trkpt lat="44.712466756876964" lon="9.379997370749997"><ele>322.0</ele><time>2026-04-11T09:26:57.999Z</time></trkpt><trkpt lat="44.71254215093994" lon="9.380009841492983"><ele>322.0</ele><time>2026-04-11T09:26:58.999Z</time></trkpt><trkpt lat="44.712630257290016" lon="9.380040766700418"><ele>322.0</ele><time>2026-04-11T09:26:59.999Z</time></trkpt><trkpt lat="44.71270392334261" lon="9.38006531316766"><ele>322.0</ele><time>2026-04-11T09:27:00.999Z</time></trkpt><trkpt lat="44.7127658780868" lon="9.380170245113321"><ele>322.0</ele><time>2026-04-11T09:27:02.999Z</time></trkpt><trkpt lat="44.71268296143102" lon="9.38026817128798"><ele>322.0</ele><time>2026-04-11T09:27:04.999Z</time></trkpt><trkpt lat="44.71259904325948" lon="9.380266054569544"><ele>322.0</ele><time>2026-04-11T09:27:05.999Z</time></trkpt><trkpt lat="44.712479191291855" lon="9.380283435889414"><ele>322.0</ele><time>2026-04-11T09:27:06.999Z</time></trkpt><trkpt lat="44.71236108271828" lon="9.38034925421207"><ele>322.0</ele><time>2026-04-11T09:27:07.999Z</time></trkpt><trkpt lat="44.71228603501828" lon="9.380417446455157"><ele>322.0</ele><time>2026-04-11T09:27:08.999Z</time></trkpt><trkpt lat="44.7122450510768" lon="9.380497638693925"><ele>322.0</ele><time>2026-04-11T09:27:09.999Z</time></trkpt><trkpt lat="44.712221421333815" lon="9.3805937288279"><ele>322.0</ele><time>2026-04-11T09:27:10.999Z</time></trkpt><trkpt lat="44.7122082906566" lon="9.380708904936135"><ele>322.0</ele><time>2026-04-11T09:27:11.999Z</time></trkpt><trkpt lat="44.71220026669433" lon="9.380822060435829"><ele>322.0</ele><time>2026-04-11T09:27:12.999Z</time></trkpt><trkpt lat="44.71218936502329" lon="9.380935219528906"><ele>322.66666666666663</ele><time>2026-04-11T09:27:13.999Z</time></trkpt><trkpt lat="44.71217747471567" lon="9.381044456160824"><ele>323.3333333333333</ele><time>2026-04-11T09:27:14.999Z</time></trkpt><trkpt lat="44.71216097315551" lon="9.38115423076402"><ele>324.0</ele><time>2026-04-11T09:27:15.999Z</time></trkpt><trkpt lat="44.71214967264795" lon="9.381266541825871"><ele>324.6666666666667</ele><time>2026-04-11T09:27:16.999Z</time></trkpt><trkpt lat="44.71213524244713" lon="9.381375355993052"><ele>325.33333333333337</ele><time>2026-04-11T09:27:17.999Z</time></trkpt><trkpt lat="44.712124493873645" lon="9.381484327967241"><ele>326.0</ele><time>2026-04-11T09:27:18.999Z</time></trkpt><trkpt lat="44.71210922582744" lon="9.381605312988288"><ele>327.4</ele><time>2026-04-11T09:27:19.999Z</time></trkpt><trkpt lat="44.712094978718476" lon="9.381743068220585"><ele>328.8</ele><time>2026-04-11T09:27:20.999Z</time></trkpt><trkpt lat="44.712079469461784" lon="9.381887859037258"><ele>330.2</ele><time>2026-04-11T09:27:21.999Z</time></trkpt><trkpt lat="44.71205965690589" lon="9.382037860054181"><ele>331.59999999999997</ele><time>2026-04-11T09:27:22.999Z</time></trkpt><trkpt lat="44.7120451690429" lon="9.382193920935022"><ele>333.0</ele><time>2026-04-11T09:27:23.999Z</time></trkpt><trkpt lat="44.712033560534046" lon="9.38233601851377"><ele>333.79999999999995</ele><time>2026-04-11T09:27:24.999Z</time></trkpt><trkpt lat="44.712037322624674" lon="9.382478943721415"><ele>334.6</ele><time>2026-04-11T09:27:25.999Z</time></trkpt><trkpt lat="44.71206996292515" lon="9.382619749348267"><ele>335.4</ele><time>2026-04-11T09:27:26.999Z</time></trkpt><trkpt lat="44.71214239508718" lon="9.382738176852392"><ele>336.20000000000005</ele><time>2026-04-11T09:27:27.999Z</time></trkpt><trkpt lat="44.712240383165366" lon="9.382835116743731"><ele>337.0</ele><time>2026-04-11T09:27:28.999Z</time></trkpt><trkpt lat="44.712326606141026" lon="9.382953596538544"><ele>338.40000000000003</ele><time>2026-04-11T09:27:29.999Z</time></trkpt><trkpt lat="44.71238900253176" lon="9.383050372448794"><ele>339.8</ele><time>2026-04-11T09:27:30.999Z</time></trkpt><trkpt lat="44.71242834770624" lon="9.383127205107556"><ele>341.2</ele><time>2026-04-11T09:27:31.999Z</time></trkpt><trkpt lat="44.712395692500046" lon="9.38326092750132"><ele>342.6</ele><time>2026-04-11T09:27:32.999Z</time></trkpt><trkpt lat="44.71240026954688" lon="9.383439425739127"><ele>344.0</ele><time>2026-04-11T09:27:33.999Z</time></trkpt><trkpt lat="44.71237773962559" lon="9.383622133294073"><ele>344.0</ele><time>2026-04-11T09:27:34.999Z</time></trkpt><trkpt lat="44.71236185714765" lon="9.383811085199738"><ele>344.0</ele><time>2026-04-11T09:27:35.999Z</time></trkpt><trkpt lat="44.712345942494544" lon="9.383974519414396"><ele>344.0</ele><time>2026-04-11T09:27:36.999Z</time></trkpt><trkpt lat="44.7123191266247" lon="9.384124767725115"><ele>344.0</ele><time>2026-04-11T09:27:37.999Z</time></trkpt><trkpt lat="44.71225595185137" lon="9.384241996087264"><ele>344.75</ele><time>2026-04-11T09:27:38.999Z</time></trkpt><trkpt lat="44.71216045463931" lon="9.384325207466123"><ele>345.5</ele><time>2026-04-11T09:27:39.998Z</time></trkpt><trkpt lat="44.71204985870294" lon="9.384411290556628"><ele>346.25</ele><time>2026-04-11T09:27:40.998Z</time></trkpt><trkpt lat="44.71192873463989" lon="9.384494550729055"><ele>347.0</ele><time>2026-04-11T09:27:41.998Z</time></trkpt><trkpt lat="44.711804948160555" lon="9.38459998913594"><ele>348.25</ele><time>2026-04-11T09:27:42.998Z</time></trkpt><trkpt lat="44.71168326263364" lon="9.384699969816165"><ele>349.5</ele><time>2026-04-11T09:27:43.998Z</time></trkpt><trkpt lat="44.711561923326975" lon="9.384798130193532"><ele>350.75</ele><time>2026-04-11T09:27:44.998Z</time></trkpt><trkpt lat="44.71143009436158" lon="9.384890092425254"><ele>352.0</ele><time>2026-04-11T09:27:45.998Z</time></trkpt><trkpt lat="44.711290646978846" lon="9.384968098460295"><ele>352.0</ele><time>2026-04-11T09:27:46.998Z</time></trkpt><trkpt lat="44.71115046920724" lon="9.385041251216979"><ele>352.0</ele><time>2026-04-11T09:27:47.998Z</time></trkpt><trkpt lat="44.71101086152837" lon="9.385114390662281"><ele>352.0</ele><time>2026-04-11T09:27:48.998Z</time></trkpt><trkpt lat="44.710871649415786" lon="9.38518846092941"><ele>352.0</ele><time>2026-04-11T09:27:49.998Z</time></trkpt><trkpt lat="44.71072613783" lon="9.385262983062455"><ele>353.0</ele><time>2026-04-11T09:27:50.998Z</time></trkpt><trkpt lat="44.71058713324909" lon="9.385330243876554"><ele>354.0</ele><time>2026-04-11T09:27:51.998Z</time></trkpt><trkpt lat="44.71045436275765" lon="9.38539238047198"><ele>355.0</ele><time>2026-04-11T09:27:52.998Z</time></trkpt><trkpt lat="44.71033233203284" lon="9.385428210657308"><ele>356.0</ele><time>2026-04-11T09:27:53.998Z</time></trkpt><trkpt lat="44.7102159386247" lon="9.385428948012954"><ele>356.25</ele><time>2026-04-11T09:27:54.998Z</time></trkpt><trkpt lat="44.71007776360016" lon="9.385409771004124"><ele>356.5</ele><time>2026-04-11T09:27:55.998Z</time></trkpt><trkpt lat="44.709949509843206" lon="9.385401091616167"><ele>356.75</ele><time>2026-04-11T09:27:56.998Z</time></trkpt><trkpt lat="44.70985141731196" lon="9.3854427914869"><ele>357.0</ele><time>2026-04-11T09:27:57.998Z</time></trkpt><trkpt lat="44.70975984650937" lon="9.38552931992508"><ele>358.5</ele><time>2026-04-11T09:27:58.998Z</time></trkpt><trkpt lat="44.70967016255964" lon="9.385659855635502"><ele>360.0</ele><time>2026-04-11T09:27:59.998Z</time></trkpt><trkpt lat="44.70958492459602" lon="9.38580512557375"><ele>361.5</ele><time>2026-04-11T09:28:00.998Z</time></trkpt><trkpt lat="44.70949276318116" lon="9.385957359828643"><ele>363.0</ele><time>2026-04-11T09:28:01.998Z</time></trkpt><trkpt lat="44.70939572152021" lon="9.386100998139574"><ele>364.1666666666667</ele><time>2026-04-11T09:28:02.998Z</time></trkpt><trkpt lat="44.70929943109687" lon="9.386203485486412"><ele>365.3333333333333</ele><time>2026-04-11T09:28:03.998Z</time></trkpt><trkpt lat="44.709215397494376" lon="9.386251501121063"><ele>366.5</ele><time>2026-04-11T09:28:04.998Z</time></trkpt><trkpt lat="44.7091492225286" lon="9.386215813455719"><ele>367.66666666666663</ele><time>2026-04-11T09:28:05.998Z</time></trkpt><trkpt lat="44.70910303496297" lon="9.386134831425963"><ele>368.8333333333333</ele><time>2026-04-11T09:28:06.998Z</time></trkpt><trkpt lat="44.70909964989287" lon="9.386016168508727"><ele>370.0</ele><time>2026-04-11T09:28:07.998Z</time></trkpt><trkpt lat="44.70915151959454" lon="9.385913264694938"><ele>370.0</ele><time>2026-04-11T09:28:08.998Z</time></trkpt><trkpt lat="44.7092096001884" lon="9.385785249561122"><ele>370.0</ele><time>2026-04-11T09:28:09.998Z</time></trkpt><trkpt lat="44.709267468049276" lon="9.385642270602931"><ele>370.0</ele><time>2026-04-11T09:28:10.998Z</time></trkpt><trkpt lat="44.70925830682027" lon="9.385477477374476"><ele>370.0</ele><time>2026-04-11T09:28:11.998Z</time></trkpt><trkpt lat="44.70918453699588" lon="9.3854804692345"><ele>370.0</ele><time>2026-04-11T09:28:12.998Z</time></trkpt><trkpt lat="44.70909288671339" lon="9.385479809971162"><ele>370.0</ele><time>2026-04-11T09:28:13.998Z</time></trkpt><trkpt lat="44.709016454226884" lon="9.385534660811905"><ele>370.0</ele><time>2026-04-11T09:28:14.998Z</time></trkpt><trkpt lat="44.70894560098346" lon="9.385638418023717"><ele>370.0</ele><time>2026-04-11T09:28:15.998Z</time></trkpt><trkpt lat="44.70885207034442" lon="9.385752226365163"><ele>370.0</ele><time>2026-04-11T09:28:16.998Z</time></trkpt><trkpt lat="44.708757668633105" lon="9.38578877096743"><ele>370.0</ele><time>2026-04-11T09:28:17.998Z</time></trkpt><trkpt lat="44.70869497392791" lon="9.385751680200164"><ele>370.0</ele><time>2026-04-11T09:28:18.998Z</time></trkpt><trkpt lat="44.70863805707844" lon="9.38563070234367"><ele>370.0</ele><time>2026-04-11T09:28:19.998Z</time></trkpt><trkpt lat="44.70858291311404" lon="9.385473418089871"><ele>370.0</ele><time>2026-04-11T09:28:20.998Z</time></trkpt><trkpt lat="44.70850476796276" lon="9.385309579428483"><ele>370.0</ele><time>2026-04-11T09:28:21.998Z</time></trkpt><trkpt lat="44.70839506982694" lon="9.385244861175437"><ele>370.8333333333333</ele><time>2026-04-11T09:28:22.998Z</time></trkpt><trkpt lat="44.70832785800468" lon="9.385244121261522"><ele>371.66666666666663</ele><time>2026-04-11T09:28:24Z</time></trkpt><trkpt lat="44.70827203282984" lon="9.385297786122848"><ele>372.5</ele><time>2026-04-11T09:28:25Z</time></trkpt><trkpt lat="44.70825923971283" lon="9.385402586166556"><ele>373.3333333333333</ele><time>2026-04-11T09:28:26Z</time></trkpt><trkpt lat="44.708270995418395" lon="9.385522302999641"><ele>374.1666666666667</ele><time>2026-04-11T09:28:27Z</time></trkpt><trkpt lat="44.70836613618112" lon="9.385646023049516"><ele>375.0</ele><time>2026-04-11T09:28:28Z</time></trkpt><trkpt lat="44.708407236593004" lon="9.385819369463823"><ele>373.75</ele><time>2026-04-11T09:28:29Z</time></trkpt><trkpt lat="44.70845365915153" lon="9.38600690394233"><ele>372.5</ele><time>2026-04-11T09:28:30Z</time></trkpt><trkpt lat="44.708524055047526" lon="9.386140774080697"><ele>371.25</ele><time>2026-04-11T09:28:31Z</time></trkpt><trkpt lat="44.708631232691296" lon="9.386234931286868"><ele>370.0</ele><time>2026-04-11T09:28:32Z</time></trkpt><trkpt lat="44.7086872052514" lon="9.386362664177671"><ele>373.5</ele><time>2026-04-11T09:28:33Z</time></trkpt><trkpt lat="44.70868114196038" lon="9.386507392552577"><ele>377.0</ele><time>2026-04-11T09:28:34Z</time></trkpt><trkpt lat="44.70860689254182" lon="9.386486419138484"><ele>380.5</ele><time>2026-04-11T09:28:35Z</time></trkpt><trkpt lat="44.70847470675144" lon="9.386348090259569"><ele>384.0</ele><time>2026-04-11T09:28:37Z</time></trkpt><trkpt lat="44.70837379581528" lon="9.386214958051944"><ele>385.0</ele><time>2026-04-11T09:28:38Z</time></trkpt><trkpt lat="44.70827980195955" lon="9.3860866195763"><ele>386.0</ele><time>2026-04-11T09:28:39Z</time></trkpt><trkpt lat="44.70815613730735" lon="9.38591325589065"><ele>387.0</ele><time>2026-04-11T09:28:40Z</time></trkpt><trkpt lat="44.70801353818672" lon="9.385717451636198"><ele>387.0</ele><time>2026-04-11T09:28:41Z</time></trkpt><trkpt lat="44.7078774442632" lon="9.385531303603761"><ele>387.0</ele><time>2026-04-11T09:28:42Z</time></trkpt><trkpt lat="44.707729639769646" lon="9.385360515569362"><ele>387.0</ele><time>2026-04-11T09:28:43Z</time></trkpt><trkpt lat="44.707595514702284" lon="9.385205393050743"><ele>389.5</ele><time>2026-04-11T09:28:43.999Z</time></trkpt><trkpt lat="44.70749361107506" lon="9.385057189817225"><ele>392.0</ele><time>2026-04-11T09:28:44.999Z</time></trkpt><trkpt lat="44.70742876653328" lon="9.38490826268562"><ele>394.5</ele><time>2026-04-11T09:28:45.999Z</time></trkpt><trkpt lat="44.707371479944534" lon="9.38479620382794"><ele>397.0</ele><time>2026-04-11T09:28:46.999Z</time></trkpt><trkpt lat="44.70728337112888" lon="9.384750459989068"><ele>397.0</ele><time>2026-04-11T09:28:47.999Z</time></trkpt><trkpt lat="44.70719124297753" lon="9.384757429083795"><ele>397.0</ele><time>2026-04-11T09:28:48.999Z</time></trkpt><trkpt lat="44.707093000981914" lon="9.384855250358596"><ele>397.0</ele><time>2026-04-11T09:28:49.999Z</time></trkpt><trkpt lat="44.706965715059084" lon="9.384940009205673"><ele>397.0</ele><time>2026-04-11T09:28:50.999Z</time></trkpt><trkpt lat="44.70682802215515" lon="9.385035883979667"><ele>397.25</ele><time>2026-04-11T09:28:51.999Z</time></trkpt><trkpt lat="44.70672850260539" lon="9.385135324692325"><ele>397.5</ele><time>2026-04-11T09:28:52.999Z</time></trkpt><trkpt lat="44.706653386337315" lon="9.38525139409286"><ele>397.75</ele><time>2026-04-11T09:28:53.999Z</time></trkpt><trkpt lat="44.70660050728228" lon="9.38538488358024"><ele>398.0</ele><time>2026-04-11T09:28:54.999Z</time></trkpt><trkpt lat="44.706578589995424" lon="9.385578012294696"><ele>401.59999999999997</ele><time>2026-04-11T09:28:55.999Z</time></trkpt><trkpt lat="44.70656467397805" lon="9.385759947866866"><ele>405.2</ele><time>2026-04-11T09:28:56.999Z</time></trkpt><trkpt lat="44.70653253435773" lon="9.38589205807085"><ele>408.8</ele><time>2026-04-11T09:28:57.999Z</time></trkpt><trkpt lat="44.70643679848422" lon="9.385956393660098"><ele>412.4</ele><time>2026-04-11T09:28:58.999Z</time></trkpt><trkpt lat="44.70632897865975" lon="9.385974165662676"><ele>416.0</ele><time>2026-04-11T09:28:59.999Z</time></trkpt><trkpt lat="44.70620670647565" lon="9.385949326380754"><ele>416.0</ele><time>2026-04-11T09:29:00.999Z</time></trkpt><trkpt lat="44.70607879175584" lon="9.385874631804704"><ele>416.0</ele><time>2026-04-11T09:29:01.999Z</time></trkpt><trkpt lat="44.7059397253584" lon="9.385772878614848"><ele>416.0</ele><time>2026-04-11T09:29:02.999Z</time></trkpt><trkpt lat="44.705810940057155" lon="9.385672956651907"><ele>416.0</ele><time>2026-04-11T09:29:03.999Z</time></trkpt><trkpt lat="44.70569155322896" lon="9.385574136014593"><ele>415.5</ele><time>2026-04-11T09:29:04.999Z</time></trkpt><trkpt lat="44.70559501777313" lon="9.385557129733368"><ele>415.0</ele><time>2026-04-11T09:29:05.999Z</time></trkpt><trkpt lat="44.705487968256385" lon="9.385560697852844"><ele>414.5</ele><time>2026-04-11T09:29:06.999Z</time></trkpt><trkpt lat="44.70534010184268" lon="9.385571508752884"><ele>414.0</ele><time>2026-04-11T09:29:07.999Z</time></trkpt><trkpt lat="44.70523801915008" lon="9.385602819390465"><ele>414.0</ele><time>2026-04-11T09:29:08.999Z</time></trkpt><trkpt lat="44.705156864922515" lon="9.385659184390827"><ele>414.0</ele><time>2026-04-11T09:29:09.999Z</time></trkpt><trkpt lat="44.70509434061804" lon="9.385732953510756"><ele>414.0</ele><time>2026-04-11T09:29:10.999Z</time></trkpt><trkpt lat="44.70500830774234" lon="9.38598403190643"><ele>414.0</ele><time>2026-04-11T09:29:11.999Z</time></trkpt><trkpt lat="44.70498725002975" lon="9.386148332018607"><ele>414.0</ele><time>2026-04-11T09:29:12.999Z</time></trkpt><trkpt lat="44.70499275331332" lon="9.386286710170346"><ele>414.0</ele><time>2026-04-11T09:29:13.999Z</time></trkpt><trkpt lat="44.70501733326517" lon="9.386395851468535"><ele>414.0</ele><time>2026-04-11T09:29:14.999Z</time></trkpt><trkpt lat="44.70504687329591" lon="9.386497743396417"><ele>414.0</ele><time>2026-04-11T09:29:16.999Z</time></trkpt><trkpt lat="44.70508962981678" lon="9.386630093617896"><ele>414.0</ele><time>2026-04-11T09:29:18.999Z</time></trkpt><trkpt lat="44.705068568357035" lon="9.386741468224228"><ele>414.0</ele><time>2026-04-11T09:29:20.999Z</time></trkpt><trkpt lat="44.704891044978964" lon="9.386845063930302"><ele>415.8333333333333</ele><time>2026-04-11T09:29:21.999Z</time></trkpt><trkpt lat="44.70481627185406" lon="9.38686103537451"><ele>417.66666666666663</ele><time>2026-04-11T09:29:23.999Z</time></trkpt><trkpt lat="44.70473375758593" lon="9.3868199818965"><ele>419.5</ele><time>2026-04-11T09:29:25.999Z</time></trkpt><trkpt lat="44.704671086879806" lon="9.386747434606043"><ele>421.3333333333333</ele><time>2026-04-11T09:29:27.999Z</time></trkpt><trkpt lat="44.70458256823116" lon="9.386777305339757"><ele>423.16666666666663</ele><time>2026-04-11T09:29:30.999Z</time></trkpt><trkpt lat="44.70451303913911" lon="9.38688550597336"><ele>425.0</ele><time>2026-04-11T09:29:32.999Z</time></trkpt><trkpt lat="44.70449272493095" lon="9.387054325415784"><ele>425.66666666666663</ele><time>2026-04-11T09:29:34.999Z</time></trkpt><trkpt lat="44.70447635016078" lon="9.387195096299076"><ele>426.3333333333333</ele><time>2026-04-11T09:29:36.999Z</time></trkpt><trkpt lat="44.704411824084524" lon="9.387223570940854"><ele>427.0</ele><time>2026-04-11T09:29:38.999Z</time></trkpt><trkpt lat="44.70434106678626" lon="9.387212242242247"><ele>427.66666666666663</ele><time>2026-04-11T09:29:39.999Z</time></trkpt><trkpt lat="44.70424904137139" lon="9.387168244332697"><ele>428.3333333333333</ele><time>2026-04-11T09:29:40.999Z</time></trkpt><trkpt lat="44.7041495616184" lon="9.387130564772534"><ele>429.0</ele><time>2026-04-11T09:29:41.999Z</time></trkpt><trkpt lat="44.70404528366872" lon="9.387101714470283"><ele>429.0</ele><time>2026-04-11T09:29:42.999Z</time></trkpt><trkpt lat="44.7039613328678" lon="9.387082675661626"><ele>429.0</ele><time>2026-04-11T09:29:43.999Z</time></trkpt><trkpt lat="44.703848157748304" lon="9.387154554752431"><ele>429.0</ele><time>2026-04-11T09:29:45.999Z</time></trkpt><trkpt lat="44.70381648104381" lon="9.387271876280286"><ele>429.0</ele><time>2026-04-11T09:29:46.998Z</time></trkpt><trkpt lat="44.70378795467314" lon="9.387423167570914"><ele>429.0</ele><time>2026-04-11T09:29:47.998Z</time></trkpt><trkpt lat="44.703745308202386" lon="9.387597660484579"><ele>429.75</ele><time>2026-04-11T09:29:48.998Z</time></trkpt><trkpt lat="44.70369194675309" lon="9.387767423712598"><ele>430.5</ele><time>2026-04-11T09:29:49.998Z</time></trkpt><trkpt lat="44.70363584861805" lon="9.387950474123492"><ele>431.25</ele><time>2026-04-11T09:29:50.998Z</time></trkpt><trkpt lat="44.70357456181925" lon="9.388135994798258"><ele>432.0</ele><time>2026-04-11T09:29:51.998Z</time></trkpt><trkpt lat="44.703510567999174" lon="9.388320635769714"><ele>433.75</ele><time>2026-04-11T09:29:52.998Z</time></trkpt><trkpt lat="44.70345007203529" lon="9.38848630049796"><ele>435.5</ele><time>2026-04-11T09:29:53.998Z</time></trkpt><trkpt lat="44.70338829439963" lon="9.388634834804282"><ele>437.25</ele><time>2026-04-11T09:29:54.998Z</time></trkpt><trkpt lat="44.70332504426027" lon="9.388774260156916"><ele>439.0</ele><time>2026-04-11T09:29:55.998Z</time></trkpt><trkpt lat="44.70325540563954" lon="9.38889977401489"><ele>440.79999999999995</ele><time>2026-04-11T09:29:56.998Z</time></trkpt><trkpt lat="44.70318061983457" lon="9.389013060265087"><ele>442.59999999999997</ele><time>2026-04-11T09:29:57.998Z</time></trkpt><trkpt lat="44.70311665820279" lon="9.389105389340976"><ele>444.4</ele><time>2026-04-11T09:29:58.998Z</time></trkpt><trkpt lat="44.70308844583387" lon="9.38919541165256"><ele>446.2</ele><time>2026-04-11T09:29:59.998Z</time></trkpt><trkpt lat="44.70314388775549" lon="9.389372869740617"><ele>448.0</ele><time>2026-04-11T09:30:01.998Z</time></trkpt><trkpt lat="44.70326595180643" lon="9.389392040510247"><ele>448.0</ele><time>2026-04-11T09:30:02.998Z</time></trkpt><trkpt lat="44.70338207135777" lon="9.389411854553265"><ele>448.0</ele><time>2026-04-11T09:30:03.998Z</time></trkpt><trkpt lat="44.70349658599565" lon="9.389448942683265"><ele>448.0</ele><time>2026-04-11T09:30:04.998Z</time></trkpt><trkpt lat="44.70359956333944" lon="9.389524531792066"><ele>448.0</ele><time>2026-04-11T09:30:05.998Z</time></trkpt><trkpt lat="44.70371480576407" lon="9.38961851710078"><ele>454.75</ele><time>2026-04-11T09:30:06.998Z</time></trkpt><trkpt lat="44.70382986860456" lon="9.389711030162278"><ele>461.5</ele><time>2026-04-11T09:30:07.998Z</time></trkpt><trkpt lat="44.70392342348857" lon="9.389768493240748"><ele>468.25</ele><time>2026-04-11T09:30:08.998Z</time></trkpt><trkpt lat="44.70404308194289" lon="9.389759474852156"><ele>475.0</ele><time>2026-04-11T09:30:09.998Z</time></trkpt><trkpt lat="44.70417319191995" lon="9.389725873141922"><ele>475.0</ele><time>2026-04-11T09:30:10.998Z</time></trkpt><trkpt lat="44.704312797488946" lon="9.38969350812058"><ele>475.0</ele><time>2026-04-11T09:30:11.998Z</time></trkpt><trkpt lat="44.704463722538215" lon="9.38966639986815"><ele>475.0</ele><time>2026-04-11T09:30:12.998Z</time></trkpt><trkpt lat="44.70458479596585" lon="9.389689287670683"><ele>475.0</ele><time>2026-04-11T09:30:13.998Z</time></trkpt><trkpt lat="44.704691172384955" lon="9.389770606894027"><ele>473.6666666666667</ele><time>2026-04-11T09:30:14.998Z</time></trkpt><trkpt lat="44.704822054213984" lon="9.389857834524655"><ele>472.33333333333337</ele><time>2026-04-11T09:30:15.998Z</time></trkpt><trkpt lat="44.704962390088774" lon="9.389950023707721"><ele>471.0</ele><time>2026-04-11T09:30:16.998Z</time></trkpt><trkpt lat="44.70510125692402" lon="9.390038429971954"><ele>471.0</ele><time>2026-04-11T09:30:17.998Z</time></trkpt><trkpt lat="44.705224429029464" lon="9.390113966562527"><ele>471.0</ele><time>2026-04-11T09:30:18.998Z</time></trkpt><trkpt lat="44.70533153251368" lon="9.390152289388372"><ele>471.0</ele><time>2026-04-11T09:30:19.998Z</time></trkpt><trkpt lat="44.705444324526276" lon="9.390122607923663"><ele>471.0</ele><time>2026-04-11T09:30:20.998Z</time></trkpt><trkpt lat="44.7055529354252" lon="9.390077347851715"><ele>472.5</ele><time>2026-04-11T09:30:21.998Z</time></trkpt><trkpt lat="44.705634267482424" lon="9.38993696569575"><ele>474.0</ele><time>2026-04-11T09:30:22.998Z</time></trkpt><trkpt lat="44.70574588818413" lon="9.38980197570736"><ele>475.5</ele><time>2026-04-11T09:30:23.998Z</time></trkpt><trkpt lat="44.705863514236576" lon="9.38962711085321"><ele>477.0</ele><time>2026-04-11T09:30:24.998Z</time></trkpt><trkpt lat="44.705968591832466" lon="9.389443966104807"><ele>475.0</ele><time>2026-04-11T09:30:25.998Z</time></trkpt><trkpt lat="44.706082079390626" lon="9.389331365033387"><ele>473.00000000000006</ele><time>2026-04-11T09:30:26.998Z</time></trkpt><trkpt lat="44.70619010579251" lon="9.389293099527222"><ele>471.00000000000006</ele><time>2026-04-11T09:30:27.998Z</time></trkpt><trkpt lat="44.706270323071266" lon="9.389316382352677"><ele>469.0</ele><time>2026-04-11T09:30:28.998Z</time></trkpt><trkpt lat="44.70636362407532" lon="9.38940167342659"><ele>467.0</ele><time>2026-04-11T09:30:30Z</time></trkpt><trkpt lat="44.70645316174756" lon="9.389539636057556"><ele>471.0</ele><time>2026-04-11T09:30:31Z</time></trkpt><trkpt lat="44.706582395517266" lon="9.389686082769627"><ele>475.0</ele><time>2026-04-11T09:30:32Z</time></trkpt><trkpt lat="44.706716820471456" lon="9.389837304631705"><ele>479.0</ele><time>2026-04-11T09:30:33Z</time></trkpt><trkpt lat="44.70683103804377" lon="9.390010084112841"><ele>477.66666666666663</ele><time>2026-04-11T09:30:34Z</time></trkpt><trkpt lat="44.706964271447845" lon="9.390231755565951"><ele>476.33333333333337</ele><time>2026-04-11T09:30:35Z</time></trkpt><trkpt lat="44.70705427204718" lon="9.390468307920186"><ele>475.0</ele><time>2026-04-11T09:30:36Z</time></trkpt><trkpt lat="44.70713088886819" lon="9.390597053813721"><ele>474.4</ele><time>2026-04-11T09:30:37Z</time></trkpt><trkpt lat="44.70714364990713" lon="9.390719413838964"><ele>473.8</ele><time>2026-04-11T09:30:38Z</time></trkpt><trkpt lat="44.70713713031023" lon="9.390823986252741"><ele>473.20000000000005</ele><time>2026-04-11T09:30:39Z</time></trkpt><trkpt lat="44.70706011485972" lon="9.39095265187643"><ele>472.6</ele><time>2026-04-11T09:30:40Z</time></trkpt><trkpt lat="44.70696196081878" lon="9.391132015747552"><ele>472.0</ele><time>2026-04-11T09:30:41Z</time></trkpt><trkpt lat="44.70682742937939" lon="9.391293631322386"><ele>476.0</ele><time>2026-04-11T09:30:42Z</time></trkpt><trkpt lat="44.706714481806046" lon="9.391444734580855"><ele>480.0</ele><time>2026-04-11T09:30:43Z</time></trkpt><trkpt lat="44.7065580107125" lon="9.391565967714312"><ele>484.0</ele><time>2026-04-11T09:30:44Z</time></trkpt><trkpt lat="44.706388756266456" lon="9.391672525970424"><ele>484.0</ele><time>2026-04-11T09:30:45Z</time></trkpt><trkpt lat="44.706208543036404" lon="9.391796308452886"><ele>484.0</ele><time>2026-04-11T09:30:46Z</time></trkpt><trkpt lat="44.70606170469526" lon="9.391948378534826"><ele>484.0</ele><time>2026-04-11T09:30:47Z</time></trkpt><trkpt lat="44.70590769232466" lon="9.392067656516973"><ele>489.33333333333337</ele><time>2026-04-11T09:30:47.999Z</time></trkpt><trkpt lat="44.705772510825156" lon="9.392199495297106"><ele>494.66666666666663</ele><time>2026-04-11T09:30:48.999Z</time></trkpt><trkpt lat="44.70567499108933" lon="9.392371230717439"><ele>500.0</ele><time>2026-04-11T09:30:49.999Z</time></trkpt><trkpt lat="44.70561996379583" lon="9.392582209364303"><ele>500.0</ele><time>2026-04-11T09:30:50.999Z</time></trkpt><trkpt lat="44.705552749690014" lon="9.392806856795621"><ele>500.0</ele><time>2026-04-11T09:30:51.999Z</time></trkpt><trkpt lat="44.705456595581744" lon="9.393007561873693"><ele>500.0</ele><time>2026-04-11T09:30:52.999Z</time></trkpt><trkpt lat="44.7053413808735" lon="9.393208668019273"><ele>508.66666666666663</ele><time>2026-04-11T09:30:53.999Z</time></trkpt><trkpt lat="44.705223902636256" lon="9.393410913961398"><ele>517.3333333333334</ele><time>2026-04-11T09:30:54.999Z</time></trkpt><trkpt lat="44.70511558962422" lon="9.393616316887035"><ele>526.0</ele><time>2026-04-11T09:30:55.999Z</time></trkpt><trkpt lat="44.705012074441235" lon="9.393814092639383"><ele>520.3333333333334</ele><time>2026-04-11T09:30:56.999Z</time></trkpt><trkpt lat="44.70490883727297" lon="9.393999668815173"><ele>514.6666666666666</ele><time>2026-04-11T09:30:57.999Z</time></trkpt><trkpt lat="44.70479651953575" lon="9.39414895437904"><ele>509.0</ele><time>2026-04-11T09:30:58.999Z</time></trkpt><trkpt lat="44.70466603934202" lon="9.39421996902409"><ele>509.0</ele><time>2026-04-11T09:30:59.999Z</time></trkpt><trkpt lat="44.70451290185107" lon="9.39424450684911"><ele>509.0</ele><time>2026-04-11T09:31:00.999Z</time></trkpt><trkpt lat="44.704322392513944" lon="9.394263374405892"><ele>509.0</ele><time>2026-04-11T09:31:01.999Z</time></trkpt><trkpt lat="44.7041488991943" lon="9.39433953163434"><ele>517.0</ele><time>2026-04-11T09:31:02.999Z</time></trkpt><trkpt lat="44.70396571607057" lon="9.394447307511074"><ele>525.0</ele><time>2026-04-11T09:31:03.999Z</time></trkpt><trkpt lat="44.70376765309542" lon="9.394547799199865"><ele>533.0</ele><time>2026-04-11T09:31:04.999Z</time></trkpt><trkpt lat="44.703574048286484" lon="9.394617593238227"><ele>532.6666666666666</ele><time>2026-04-11T09:31:05.999Z</time></trkpt><trkpt lat="44.70340106213294" lon="9.394660997115299"><ele>532.3333333333334</ele><time>2026-04-11T09:31:06.999Z</time></trkpt><trkpt lat="44.70325785270705" lon="9.394706334154801"><ele>532.0</ele><time>2026-04-11T09:31:07.999Z</time></trkpt><trkpt lat="44.70313351220289" lon="9.394811470143674"><ele>532.0</ele><time>2026-04-11T09:31:08.999Z</time></trkpt><trkpt lat="44.70301430718159" lon="9.394976091804645"><ele>532.0</ele><time>2026-04-11T09:31:09.999Z</time></trkpt><trkpt lat="44.70288678081135" lon="9.395133605913507"><ele>532.0</ele><time>2026-04-11T09:31:10.999Z</time></trkpt><trkpt lat="44.70272430832479" lon="9.395247689718618"><ele>540.0</ele><time>2026-04-11T09:31:11.999Z</time></trkpt><trkpt lat="44.70253567301437" lon="9.395308930474169"><ele>548.0</ele><time>2026-04-11T09:31:12.999Z</time></trkpt><trkpt lat="44.7023400107079" lon="9.395365701874278"><ele>556.0</ele><time>2026-04-11T09:31:13.999Z</time></trkpt><trkpt lat="44.702141246669065" lon="9.39542876062725"><ele>556.0</ele><time>2026-04-11T09:31:14.999Z</time></trkpt><trkpt lat="44.701976555628924" lon="9.39550152023144"><ele>556.0</ele><time>2026-04-11T09:31:15.999Z</time></trkpt><trkpt lat="44.70183805775121" lon="9.395595348986111"><ele>556.0</ele><time>2026-04-11T09:31:16.999Z</time></trkpt><trkpt lat="44.701710321836515" lon="9.395709704328281"><ele>555.0</ele><time>2026-04-11T09:31:17.999Z</time></trkpt><trkpt lat="44.70160348824778" lon="9.395874447180361"><ele>554.0</ele><time>2026-04-11T09:31:18.999Z</time></trkpt><trkpt lat="44.70150584431534" lon="9.396069819973004"><ele>553.0</ele><time>2026-04-11T09:31:19.999Z</time></trkpt><trkpt lat="44.701399744073754" lon="9.3962512390279"><ele>554.75</ele><time>2026-04-11T09:31:20.999Z</time></trkpt><trkpt lat="44.7012848613819" lon="9.396395093508666"><ele>556.5</ele><time>2026-04-11T09:31:21.999Z</time></trkpt><trkpt lat="44.70116635783801" lon="9.396482770487124"><ele>558.25</ele><time>2026-04-11T09:31:22.999Z</time></trkpt><trkpt lat="44.70105857393182" lon="9.39654205423445"><ele>560.0</ele><time>2026-04-11T09:31:23.999Z</time></trkpt><trkpt lat="44.700966431923646" lon="9.396599192750763"><ele>560.0</ele><time>2026-04-11T09:31:24.999Z</time></trkpt><trkpt lat="44.700891198019654" lon="9.396657152343685"><ele>560.0</ele><time>2026-04-11T09:31:25.999Z</time></trkpt><trkpt lat="44.70082849638487" lon="9.396701322081446"><ele>560.0</ele><time>2026-04-11T09:31:26.999Z</time></trkpt><trkpt lat="44.700739872543465" lon="9.396748952069903"><ele>560.0</ele><time>2026-04-11T09:31:28.999Z</time></trkpt><trkpt lat="44.700754048357446" lon="9.396258312579139"><ele>558.25</ele><time>2026-04-11T09:31:35.999Z</time></trkpt><trkpt lat="44.70089681468161" lon="9.396219757709902"><ele>556.5</ele><time>2026-04-11T09:31:36.999Z</time></trkpt><trkpt lat="44.700978678115526" lon="9.39613330098709"><ele>554.75</ele><time>2026-04-11T09:31:37.999Z</time></trkpt><trkpt lat="44.70104851329482" lon="9.39602940991893"><ele>553.0</ele><time>2026-04-11T09:31:38.999Z</time></trkpt><trkpt lat="44.70112220891073" lon="9.395903676274619"><ele>553.0</ele><time>2026-04-11T09:31:39.999Z</time></trkpt><trkpt lat="44.70121891271517" lon="9.39574178609938"><ele>553.0</ele><time>2026-04-11T09:31:40.999Z</time></trkpt><trkpt lat="44.7013260307193" lon="9.395562681493978"><ele>553.0</ele><time>2026-04-11T09:31:41.999Z</time></trkpt><trkpt lat="44.701420551701794" lon="9.395409104644841"><ele>560.6666666666667</ele><time>2026-04-11T09:31:42.999Z</time></trkpt><trkpt lat="44.70150381716815" lon="9.395273880070656"><ele>568.3333333333334</ele><time>2026-04-11T09:31:43.999Z</time></trkpt><trkpt lat="44.701639761486625" lon="9.395076713343228"><ele>576.0</ele><time>2026-04-11T09:31:44.999Z</time></trkpt><trkpt lat="44.701824938350654" lon="9.394934685415496"><ele>576.0</ele><time>2026-04-11T09:31:45.999Z</time></trkpt><trkpt lat="44.70189121301787" lon="9.394889236126197"><ele>576.0</ele><time>2026-04-11T09:31:46.999Z</time></trkpt><trkpt lat="44.70195383840367" lon="9.394844264794635"><ele>576.0</ele><time>2026-04-11T09:31:47.998Z</time></trkpt><trkpt lat="44.70179134141726" lon="9.395809538568633"><ele>558.5</ele><time>2026-04-11T09:31:49.998Z</time></trkpt><trkpt lat="44.70210171665304" lon="9.395604667978937"><ele>541.0</ele><time>2026-04-11T09:31:51.998Z</time></trkpt><trkpt lat="44.70193073356448" lon="9.395751658409015"><ele>541.0</ele><time>2026-04-11T09:31:53.998Z</time></trkpt><trkpt lat="44.70188086778572" lon="9.39584511650955"><ele>541.0</ele><time>2026-04-11T09:31:54.998Z</time></trkpt><trkpt lat="44.70184510740468" lon="9.395942773838328"><ele>541.0</ele><time>2026-04-11T09:31:55.998Z</time></trkpt><trkpt lat="44.70185255363621" lon="9.396046785084138"><ele>541.0</ele><time>2026-04-11T09:31:56.998Z</time></trkpt><trkpt lat="44.70192410505904" lon="9.3961178298504"><ele>541.0</ele><time>2026-04-11T09:31:57.998Z</time></trkpt><trkpt lat="44.701996710543966" lon="9.396165684563227"><ele>541.0</ele><time>2026-04-11T09:31:58.998Z</time></trkpt><trkpt lat="44.702105643254974" lon="9.396204193693606"><ele>541.0</ele><time>2026-04-11T09:31:59.998Z</time></trkpt><trkpt lat="44.70221061843244" lon="9.3962813470576"><ele>541.0</ele><time>2026-04-11T09:32:00.998Z</time></trkpt><trkpt lat="44.70231919081479" lon="9.396357273110505"><ele>541.0</ele><time>2026-04-11T09:32:01.998Z</time></trkpt><trkpt lat="44.702388999428884" lon="9.396436357576869"><ele>541.0</ele><time>2026-04-11T09:32:02.998Z</time></trkpt><trkpt lat="44.70241016696298" lon="9.396522817083536"><ele>541.0</ele><time>2026-04-11T09:32:03.998Z</time></trkpt><trkpt lat="44.70241792021253" lon="9.396647229049428"><ele>542.25</ele><time>2026-04-11T09:32:04.998Z</time></trkpt><trkpt lat="44.702438568776316" lon="9.396798701518936"><ele>543.5</ele><time>2026-04-11T09:32:05.998Z</time></trkpt><trkpt lat="44.70242059585343" lon="9.39695865161281"><ele>544.75</ele><time>2026-04-11T09:32:06.998Z</time></trkpt><trkpt lat="44.70238794972755" lon="9.397142891360149"><ele>546.0</ele><time>2026-04-11T09:32:07.998Z</time></trkpt><trkpt lat="44.70238735367246" lon="9.397278066040549"><ele>549.25</ele><time>2026-04-11T09:32:08.998Z</time></trkpt><trkpt lat="44.70246170124552" lon="9.397385550549314"><ele>552.5</ele><time>2026-04-11T09:32:09.998Z</time></trkpt><trkpt lat="44.702551063353795" lon="9.39750136027764"><ele>555.75</ele><time>2026-04-11T09:32:10.998Z</time></trkpt><trkpt lat="44.702628412497376" lon="9.397622270307041"><ele>559.0</ele><time>2026-04-11T09:32:11.998Z</time></trkpt><trkpt lat="44.70263435840796" lon="9.397780736612209"><ele>559.0</ele><time>2026-04-11T09:32:12.998Z</time></trkpt><trkpt lat="44.702634951987704" lon="9.39794059348073"><ele>559.0</ele><time>2026-04-11T09:32:13.998Z</time></trkpt><trkpt lat="44.70263598776484" lon="9.398100981693943"><ele>559.0</ele><time>2026-04-11T09:32:14.998Z</time></trkpt><trkpt lat="44.7026036886614" lon="9.39824584790835"><ele>559.0</ele><time>2026-04-11T09:32:15.998Z</time></trkpt><trkpt lat="44.70253775915536" lon="9.398366898177304"><ele>559.0</ele><time>2026-04-11T09:32:16.998Z</time></trkpt><trkpt lat="44.70243812965641" lon="9.398461989931773"><ele>562.25</ele><time>2026-04-11T09:32:17.998Z</time></trkpt><trkpt lat="44.702389422626936" lon="9.398604500743632"><ele>565.5</ele><time>2026-04-11T09:32:18.998Z</time></trkpt><trkpt lat="44.70238175181345" lon="9.398789032834896"><ele>568.75</ele><time>2026-04-11T09:32:19.998Z</time></trkpt><trkpt lat="44.702367452857" lon="9.39897439126857"><ele>572.0</ele><time>2026-04-11T09:32:20.998Z</time></trkpt><trkpt lat="44.702338499611336" lon="9.399117952698516"><ele>573.75</ele><time>2026-04-11T09:32:21.998Z</time></trkpt><trkpt lat="44.70221405696312" lon="9.39918182429706"><ele>575.5</ele><time>2026-04-11T09:32:23.998Z</time></trkpt><trkpt lat="44.70208944316084" lon="9.399174857621144"><ele>577.25</ele><time>2026-04-11T09:32:24.998Z</time></trkpt><trkpt lat="44.70194653262941" lon="9.399207433056697"><ele>579.0</ele><time>2026-04-11T09:32:25.998Z</time></trkpt><trkpt lat="44.70180271773143" lon="9.399287745021773"><ele>580.0</ele><time>2026-04-11T09:32:26.998Z</time></trkpt><trkpt lat="44.70166865353598" lon="9.399381084737698"><ele>581.0</ele><time>2026-04-11T09:32:27.998Z</time></trkpt><trkpt lat="44.70154890859361" lon="9.399445685221618"><ele>582.0</ele><time>2026-04-11T09:32:28.998Z</time></trkpt><trkpt lat="44.701438008228024" lon="9.399418577954382"><ele>583.0</ele><time>2026-04-11T09:32:29.998Z</time></trkpt><trkpt lat="44.70134765197787" lon="9.399476735225766"><ele>583.0</ele><time>2026-04-11T09:32:30.998Z</time></trkpt><trkpt lat="44.70128057956728" lon="9.399575431092144"><ele>583.0</ele><time>2026-04-11T09:32:31.998Z</time></trkpt><trkpt lat="44.701226108098396" lon="9.399720123688285"><ele>583.0</ele><time>2026-04-11T09:32:32.998Z</time></trkpt><trkpt lat="44.701157947347156" lon="9.399886162815648"><ele>583.0</ele><time>2026-04-11T09:32:33.998Z</time></trkpt><trkpt lat="44.70109497072282" lon="9.400083162071759"><ele>591.0</ele><time>2026-04-11T09:32:34.998Z</time></trkpt><trkpt lat="44.70102972149212" lon="9.40029334329725"><ele>599.0</ele><time>2026-04-11T09:32:35.999Z</time></trkpt><trkpt lat="44.70097924922711" lon="9.400506448885732"><ele>607.0</ele><time>2026-04-11T09:32:36.999Z</time></trkpt><trkpt lat="44.700904072670895" lon="9.400687826756549"><ele>607.0</ele><time>2026-04-11T09:32:37.999Z</time></trkpt><trkpt lat="44.70084472959379" lon="9.400871697470908"><ele>607.0</ele><time>2026-04-11T09:32:38.999Z</time></trkpt><trkpt lat="44.700791913610736" lon="9.401035601431834"><ele>607.0</ele><time>2026-04-11T09:32:39.999Z</time></trkpt><trkpt lat="44.70075939535314" lon="9.40118852406781"><ele>607.0</ele><time>2026-04-11T09:32:40.999Z</time></trkpt><trkpt lat="44.70071589004337" lon="9.401318717575908"><ele>607.0</ele><time>2026-04-11T09:32:41.999Z</time></trkpt><trkpt lat="44.70071325381419" lon="9.40147550287818"><ele>607.0</ele><time>2026-04-11T09:32:42.999Z</time></trkpt><trkpt lat="44.700760072875916" lon="9.401635934241497"><ele>607.0</ele><time>2026-04-11T09:32:43.999Z</time></trkpt><trkpt lat="44.70082877972014" lon="9.40180201574212"><ele>607.0</ele><time>2026-04-11T09:32:44.999Z</time></trkpt><trkpt lat="44.70089647382363" lon="9.401998042792204"><ele>608.6666666666667</ele><time>2026-04-11T09:32:45.999Z</time></trkpt><trkpt lat="44.70099133104524" lon="9.402183509911035"><ele>610.3333333333334</ele><time>2026-04-11T09:32:46.999Z</time></trkpt><trkpt lat="44.701062798303305" lon="9.402383780622769"><ele>612.0</ele><time>2026-04-11T09:32:47.999Z</time></trkpt><trkpt lat="44.70112846431265" lon="9.402547407210914"><ele>612.0</ele><time>2026-04-11T09:32:48.999Z</time></trkpt><trkpt lat="44.70119232347911" lon="9.402688589806258"><ele>612.0</ele><time>2026-04-11T09:32:49.999Z</time></trkpt><trkpt lat="44.701266064249076" lon="9.402792124938582"><ele>612.0</ele><time>2026-04-11T09:32:50.999Z</time></trkpt><trkpt lat="44.70136856424189" lon="9.40286994181616"><ele>612.0</ele><time>2026-04-11T09:32:51.999Z</time></trkpt><trkpt lat="44.70148778501364" lon="9.40292071197624"><ele>612.0</ele><time>2026-04-11T09:32:52.999Z</time></trkpt><trkpt lat="44.70161740953636" lon="9.402928675177883"><ele>612.0</ele><time>2026-04-11T09:32:53.999Z</time></trkpt><trkpt lat="44.70172291985312" lon="9.402948699411276"><ele>612.0</ele><time>2026-04-11T09:32:54.999Z</time></trkpt><trkpt lat="44.701788038788614" lon="9.403018016647549"><ele>612.0</ele><time>2026-04-11T09:32:55.999Z</time></trkpt><trkpt lat="44.70184601845066" lon="9.403059888536639"><ele>612.0</ele><time>2026-04-11T09:32:56.999Z</time></trkpt><trkpt lat="44.70193363644881" lon="9.403109538647575"><ele>613.8000000000001</ele><time>2026-04-11T09:32:57.999Z</time></trkpt><trkpt lat="44.70200867019353" lon="9.403220398812417"><ele>615.6</ele><time>2026-04-11T09:32:58.999Z</time></trkpt><trkpt lat="44.70207218431834" lon="9.403305781631941"><ele>617.4000000000001</ele><time>2026-04-11T09:32:59.999Z</time></trkpt><trkpt lat="44.70213093780754" lon="9.40346167858853"><ele>619.2</ele><time>2026-04-11T09:33:01.999Z</time></trkpt><trkpt lat="44.70214797804558" lon="9.403584937229908"><ele>621.0</ele><time>2026-04-11T09:33:02.999Z</time></trkpt><trkpt lat="44.702163377046844" lon="9.403714817390224"><ele>621.0</ele><time>2026-04-11T09:33:03.999Z</time></trkpt><trkpt lat="44.702071854357605" lon="9.403823567356355"><ele>621.0</ele><time>2026-04-11T09:33:04.999Z</time></trkpt><trkpt lat="44.701995281009644" lon="9.403870937299091"><ele>621.0</ele><time>2026-04-11T09:33:05.999Z</time></trkpt><trkpt lat="44.70190621459955" lon="9.403906180410054"><ele>621.0</ele><time>2026-04-11T09:33:06.999Z</time></trkpt><trkpt lat="44.701824319162704" lon="9.403866302798862"><ele>621.0</ele><time>2026-04-11T09:33:07.999Z</time></trkpt><trkpt lat="44.701780675593454" lon="9.403775115953536"><ele>622.0</ele><time>2026-04-11T09:33:08.999Z</time></trkpt><trkpt lat="44.701696845628234" lon="9.403689987143101"><ele>623.0</ele><time>2026-04-11T09:33:09.999Z</time></trkpt><trkpt lat="44.70162785453528" lon="9.40363263373371"><ele>624.0</ele><time>2026-04-11T09:33:10.999Z</time></trkpt><trkpt lat="44.70155944389876" lon="9.403647011693232"><ele>625.0</ele><time>2026-04-11T09:33:11.999Z</time></trkpt><trkpt lat="44.70146602734652" lon="9.4037488657491"><ele>626.0</ele><time>2026-04-11T09:33:12.999Z</time></trkpt><trkpt lat="44.701391963706094" lon="9.403869049192028"><ele>628.5</ele><time>2026-04-11T09:33:13.999Z</time></trkpt><trkpt lat="44.70134074672959" lon="9.404019329999398"><ele>631.0</ele><time>2026-04-11T09:33:14.999Z</time></trkpt><trkpt lat="44.70133123959001" lon="9.4041979635417"><ele>633.5</ele><time>2026-04-11T09:33:15.999Z</time></trkpt><trkpt lat="44.70131606845324" lon="9.404405244608192"><ele>636.0</ele><time>2026-04-11T09:33:16.999Z</time></trkpt><trkpt lat="44.70128531337772" lon="9.404613768748794"><ele>637.25</ele><time>2026-04-11T09:33:17.999Z</time></trkpt><trkpt lat="44.70125531952717" lon="9.404791713699732"><ele>638.5</ele><time>2026-04-11T09:33:18.999Z</time></trkpt><trkpt lat="44.70121992920904" lon="9.404938753884561"><ele>639.75</ele><time>2026-04-11T09:33:19.999Z</time></trkpt><trkpt lat="44.7011576496376" lon="9.40510357856266"><ele>641.0</ele><time>2026-04-11T09:33:20.999Z</time></trkpt><trkpt lat="44.701084438564465" lon="9.405262473688275"><ele>643.5999999999999</ele><time>2026-04-11T09:33:21.999Z</time></trkpt><trkpt lat="44.701022029837084" lon="9.40542179582839"><ele>646.2</ele><time>2026-04-11T09:33:22.999Z</time></trkpt><trkpt lat="44.70098663181924" lon="9.405565784824587"><ele>648.8</ele><time>2026-04-11T09:33:23.999Z</time></trkpt><trkpt lat="44.70098212810864" lon="9.405689179298959"><ele>651.4000000000001</ele><time>2026-04-11T09:33:24.999Z</time></trkpt><trkpt lat="44.70098347601" lon="9.405804667793635"><ele>654.0</ele><time>2026-04-11T09:33:25.999Z</time></trkpt><trkpt lat="44.70100855076914" lon="9.405885979744808"><ele>654.25</ele><time>2026-04-11T09:33:26.999Z</time></trkpt><trkpt lat="44.70089587968587" lon="9.405899694566987"><ele>654.5</ele><time>2026-04-11T09:33:29.999Z</time></trkpt><trkpt lat="44.700795814291226" lon="9.40574671108409"><ele>654.75</ele><time>2026-04-11T09:33:31.999Z</time></trkpt><trkpt lat="44.700721448815905" lon="9.405649362412728"><ele>655.0</ele><time>2026-04-11T09:33:32.999Z</time></trkpt><trkpt lat="44.70063607551851" lon="9.405552313896663"><ele>655.0</ele><time>2026-04-11T09:33:33.999Z</time></trkpt><trkpt lat="44.70056119440851" lon="9.40549393495001"><ele>655.0</ele><time>2026-04-11T09:33:34.999Z</time></trkpt><trkpt lat="44.70048680469192" lon="9.405538145499495"><ele>655.0</ele><time>2026-04-11T09:33:36.999Z</time></trkpt><trkpt lat="44.700398972826484" lon="9.405563992611082"><ele>655.0</ele><time>2026-04-11T09:33:38.999Z</time></trkpt><trkpt lat="44.70032334683731" lon="9.405564055017434"><ele>655.0</ele><time>2026-04-11T09:33:39.999Z</time></trkpt><trkpt lat="44.70023983608731" lon="9.405510410708299"><ele>655.0</ele><time>2026-04-11T09:33:40.999Z</time></trkpt><trkpt lat="44.70015865211173" lon="9.40546525455163"><ele>656.4</ele><time>2026-04-11T09:33:41.999Z</time></trkpt><trkpt lat="44.70007324013984" lon="9.405548485477462"><ele>657.8</ele><time>2026-04-11T09:33:43.999Z</time></trkpt><trkpt lat="44.7000395456488" lon="9.405647862446493"><ele>659.2</ele><time>2026-04-11T09:33:44.999Z</time></trkpt><trkpt lat="44.69998204161299" lon="9.405779661091112"><ele>660.6</ele><time>2026-04-11T09:33:45.999Z</time></trkpt><trkpt lat="44.69992322965878" lon="9.40590961292301"><ele>662.0</ele><time>2026-04-11T09:33:46.999Z</time></trkpt><trkpt lat="44.6998637068691" lon="9.405995341244042"><ele>662.0</ele><time>2026-04-11T09:33:47.999Z</time></trkpt><trkpt lat="44.699847650872314" lon="9.406106453662474"><ele>662.0</ele><time>2026-04-11T09:33:48.999Z</time></trkpt><trkpt lat="44.699841409847224" lon="9.406247903676627"><ele>662.0</ele><time>2026-04-11T09:33:49.999Z</time></trkpt><trkpt lat="44.69981728577723" lon="9.406403792039074"><ele>662.0</ele><time>2026-04-11T09:33:50.999Z</time></trkpt><trkpt lat="44.69977646551268" lon="9.406504332245126"><ele>662.0</ele><time>2026-04-11T09:33:51.999Z</time></trkpt><trkpt lat="44.699726134549756" lon="9.406605940296547"><ele>663.0</ele><time>2026-04-11T09:33:52.999Z</time></trkpt><trkpt lat="44.69969333443263" lon="9.406818416006592"><ele>664.0</ele><time>2026-04-11T09:33:54.998Z</time></trkpt><trkpt lat="44.699662721837434" lon="9.406953036726348"><ele>665.0</ele><time>2026-04-11T09:33:55.998Z</time></trkpt><trkpt lat="44.69962233258858" lon="9.40709598685749"><ele>666.0</ele><time>2026-04-11T09:33:56.998Z</time></trkpt><trkpt lat="44.699580978548674" lon="9.407270179496008"><ele>667.3333333333334</ele><time>2026-04-11T09:33:58.998Z</time></trkpt><trkpt lat="44.69951321413779" lon="9.407333749554462"><ele>668.6666666666666</ele><time>2026-04-11T09:33:59.998Z</time></trkpt><trkpt lat="44.699430123821244" lon="9.40744273809407"><ele>670.0</ele><time>2026-04-11T09:34:00.998Z</time></trkpt><trkpt lat="44.69940822258338" lon="9.40753986222646"><ele>671.3333333333333</ele><time>2026-04-11T09:34:01.998Z</time></trkpt><trkpt lat="44.69940571155033" lon="9.407668907743814"><ele>672.6666666666666</ele><time>2026-04-11T09:34:02.998Z</time></trkpt><trkpt lat="44.69938929804196" lon="9.40777870842398"><ele>674.0</ele><time>2026-04-11T09:34:03.998Z</time></trkpt><trkpt lat="44.69927166485955" lon="9.407872897635553"><ele>674.0</ele><time>2026-04-11T09:34:05.998Z</time></trkpt><trkpt lat="44.69922674024347" lon="9.40797376144265"><ele>674.0</ele><time>2026-04-11T09:34:06.998Z</time></trkpt><trkpt lat="44.69923889180744" lon="9.408148853904544"><ele>674.0</ele><time>2026-04-11T09:34:08.998Z</time></trkpt><trkpt lat="44.69924632964322" lon="9.408289932481335"><ele>674.0</ele><time>2026-04-11T09:34:09.998Z</time></trkpt><trkpt lat="44.69921759020101" lon="9.408396401990538"><ele>674.0</ele><time>2026-04-11T09:34:10.998Z</time></trkpt><trkpt lat="44.69916188667934" lon="9.408503594769513"><ele>676.8000000000001</ele><time>2026-04-11T09:34:11.998Z</time></trkpt><trkpt lat="44.699099483030224" lon="9.408614090596409"><ele>679.6</ele><time>2026-04-11T09:34:12.998Z</time></trkpt><trkpt lat="44.69902947553288" lon="9.40870651144293"><ele>682.4</ele><time>2026-04-11T09:34:13.998Z</time></trkpt><trkpt lat="44.69898287986041" lon="9.408784784243613"><ele>685.2</ele><time>2026-04-11T09:34:14.998Z</time></trkpt><trkpt lat="44.69893790992794" lon="9.408892100734239"><ele>688.0</ele><time>2026-04-11T09:34:15.998Z</time></trkpt><trkpt lat="44.69891236671564" lon="9.40905109033803"><ele>690.5999999999999</ele><time>2026-04-11T09:34:16.998Z</time></trkpt><trkpt lat="44.69885421235046" lon="9.409162369212801"><ele>693.1999999999999</ele><time>2026-04-11T09:34:17.998Z</time></trkpt><trkpt lat="44.69882613350367" lon="9.409253962639491"><ele>695.8</ele><time>2026-04-11T09:34:18.998Z</time></trkpt><trkpt lat="44.69883196199233" lon="9.409379341967128"><ele>698.4</ele><time>2026-04-11T09:34:19.998Z</time></trkpt><trkpt lat="44.69882975720406" lon="9.409527984939269"><ele>701.0</ele><time>2026-04-11T09:34:20.998Z</time></trkpt><trkpt lat="44.698757484451356" lon="9.409661730525603"><ele>704.8</ele><time>2026-04-11T09:34:22.998Z</time></trkpt><trkpt lat="44.69868317567054" lon="9.409722332195402"><ele>708.5999999999999</ele><time>2026-04-11T09:34:23.998Z</time></trkpt><trkpt lat="44.69865242792433" lon="9.409844560468374"><ele>712.4</ele><time>2026-04-11T09:34:25.998Z</time></trkpt><trkpt lat="44.69871260657689" lon="9.409983762251665"><ele>716.2</ele><time>2026-04-11T09:34:27.998Z</time></trkpt><trkpt lat="44.69881590128864" lon="9.41009888143676"><ele>720.0</ele><time>2026-04-11T09:34:29.998Z</time></trkpt><trkpt lat="44.69881957213985" lon="9.410208133907682"><ele>720.0</ele><time>2026-04-11T09:34:31.998Z</time></trkpt><trkpt lat="44.69879863357752" lon="9.410298983770605"><ele>720.0</ele><time>2026-04-11T09:34:32.998Z</time></trkpt><trkpt lat="44.698784278033955" lon="9.410390649825334"><ele>720.0</ele><time>2026-04-11T09:34:33.998Z</time></trkpt><trkpt lat="44.69876889662652" lon="9.41048469750482"><ele>720.0</ele><time>2026-04-11T09:34:34.998Z</time></trkpt><trkpt lat="44.698739521394046" lon="9.410638369468652"><ele>720.0</ele><time>2026-04-11T09:34:36.998Z</time></trkpt><trkpt lat="44.69872255304777" lon="9.410748817982663"><ele>720.0</ele><time>2026-04-11T09:34:37.998Z</time></trkpt><trkpt lat="44.69870195696038" lon="9.410864830063687"><ele>722.1666666666666</ele><time>2026-04-11T09:34:38.998Z</time></trkpt><trkpt lat="44.698688200019845" lon="9.410984596243036"><ele>724.3333333333334</ele><time>2026-04-11T09:34:39.998Z</time></trkpt><trkpt lat="44.69867209089426" lon="9.411091181410866"><ele>726.5</ele><time>2026-04-11T09:34:40.998Z</time></trkpt><trkpt lat="44.69864827741701" lon="9.411214361119255"><ele>728.6666666666667</ele><time>2026-04-11T09:34:41.999Z</time></trkpt><trkpt lat="44.69861423244533" lon="9.411336146122032"><ele>730.8333333333334</ele><time>2026-04-11T09:34:42.999Z</time></trkpt><trkpt lat="44.698553681981565" lon="9.411436630892709"><ele>733.0</ele><time>2026-04-11T09:34:43.999Z</time></trkpt><trkpt lat="44.69849962613601" lon="9.411528556608593"><ele>733.0</ele><time>2026-04-11T09:34:44.999Z</time></trkpt><trkpt lat="44.698452912897544" lon="9.411592981712143"><ele>733.0</ele><time>2026-04-11T09:34:45.999Z</time></trkpt><trkpt lat="44.69842633508717" lon="9.41173824268116"><ele>733.0</ele><time>2026-04-11T09:34:47.999Z</time></trkpt><trkpt lat="44.698400668593756" lon="9.411852217249422"><ele>733.0</ele><time>2026-04-11T09:34:48.999Z</time></trkpt><trkpt lat="44.69838637215197" lon="9.411939797163347"><ele>733.0</ele><time>2026-04-11T09:34:49.999Z</time></trkpt><trkpt lat="44.69828274400874" lon="9.412052262013978"><ele>733.0</ele><time>2026-04-11T09:34:51.999Z</time></trkpt><trkpt lat="44.69818337216939" lon="9.412099195812909"><ele>733.0</ele><time>2026-04-11T09:34:53.999Z</time></trkpt><trkpt lat="44.69809511763874" lon="9.412065188480813"><ele>733.0</ele><time>2026-04-11T09:34:55.999Z</time></trkpt><trkpt lat="44.69803733063392" lon="9.412133838958727"><ele>733.0</ele><time>2026-04-11T09:34:58.999Z</time></trkpt><trkpt lat="44.69798546244921" lon="9.412191098144888"><ele>733.0</ele><time>2026-04-11T09:35:02.999Z</time></trkpt><trkpt lat="44.69792273038443" lon="9.412215791719577"><ele>733.0</ele><time>2026-04-11T09:36:57Z</time></trkpt><trkpt lat="44.697840679819194" lon="9.412208700470451"><ele>733.0</ele><time>2026-04-11T09:37:02Z</time></trkpt><trkpt lat="44.69779016075447" lon="9.412107415441978"><ele>733.0</ele><time>2026-04-11T09:37:03.999Z</time></trkpt><trkpt lat="44.697701878370474" lon="9.412096052368693"><ele>733.0</ele><time>2026-04-11T09:37:04.999Z</time></trkpt><trkpt lat="44.6976183731626" lon="9.412090783993424"><ele>733.0</ele><time>2026-04-11T09:37:05.999Z</time></trkpt><trkpt lat="44.6976900220864" lon="9.412150107845052"><ele>733.0</ele><time>2026-04-11T09:37:06.999Z</time></trkpt><trkpt lat="44.69762188312169" lon="9.412190285918864"><ele>733.0</ele><time>2026-04-11T09:37:07.999Z</time></trkpt><trkpt lat="44.697550898447915" lon="9.41223158484497"><ele>733.4</ele><time>2026-04-11T09:37:08.999Z</time></trkpt><trkpt lat="44.69748127104569" lon="9.412193656750016"><ele>733.8</ele><time>2026-04-11T09:37:10.999Z</time></trkpt><trkpt lat="44.69739053160186" lon="9.412088145346033"><ele>734.2</ele><time>2026-04-11T09:37:12.999Z</time></trkpt><trkpt lat="44.6973157594221" lon="9.412030209473874"><ele>734.6</ele><time>2026-04-11T09:37:14.998Z</time></trkpt><trkpt lat="44.69717475863655" lon="9.412007268549155"><ele>735.0</ele><time>2026-04-11T09:37:16.999Z</time></trkpt><trkpt lat="44.69707622983479" lon="9.41198221660716"><ele>735.0</ele><time>2026-04-11T09:37:17.998Z</time></trkpt><trkpt lat="44.696987759687175" lon="9.411966523463551"><ele>735.0</ele><time>2026-04-11T09:37:18.998Z</time></trkpt><trkpt lat="44.696923024930406" lon="9.411926742942102"><ele>735.0</ele><time>2026-04-11T09:37:22.998Z</time></trkpt><trkpt lat="44.69683496550337" lon="9.411985226100393"><ele>735.0</ele><time>2026-04-11T09:37:25.998Z</time></trkpt><trkpt lat="44.69677795995119" lon="9.41213172297414"><ele>735.0</ele><time>2026-04-11T09:37:27.998Z</time></trkpt><trkpt lat="44.69674085633842" lon="9.412211685989167"><ele>735.0</ele><time>2026-04-11T09:37:28.998Z</time></trkpt><trkpt lat="44.69667911631112" lon="9.412345990577654"><ele>736.0</ele><time>2026-04-11T09:37:30.998Z</time></trkpt><trkpt lat="44.69661031031016" lon="9.412401783647157"><ele>737.0</ele><time>2026-04-11T09:37:32.998Z</time></trkpt><trkpt lat="44.69658324225615" lon="9.412276554444507"><ele>738.0</ele><time>2026-04-11T09:37:34.998Z</time></trkpt><trkpt lat="44.696580864643835" lon="9.412185489944822"><ele>739.0</ele><time>2026-04-11T09:37:35.998Z</time></trkpt><trkpt lat="44.69656920826557" lon="9.412061897913642"><ele>740.0</ele><time>2026-04-11T09:37:36.998Z</time></trkpt><trkpt lat="44.69656705838317" lon="9.41195521769591"><ele>741.0</ele><time>2026-04-11T09:37:37.998Z</time></trkpt><trkpt lat="44.69658000443792" lon="9.411855803568086"><ele>741.0</ele><time>2026-04-11T09:37:38.998Z</time></trkpt><trkpt lat="44.69655279253057" lon="9.411760511004696"><ele>741.0</ele><time>2026-04-11T09:37:39.998Z</time></trkpt><trkpt lat="44.696510003807354" lon="9.411669362250922"><ele>741.0</ele><time>2026-04-11T09:37:40.998Z</time></trkpt><trkpt lat="44.696467197159585" lon="9.411558312503077"><ele>741.0</ele><time>2026-04-11T09:37:41.998Z</time></trkpt><trkpt lat="44.696479181483305" lon="9.41142075910035"><ele>741.0</ele><time>2026-04-11T09:37:43.997Z</time></trkpt><trkpt lat="44.696484888533945" lon="9.411299989587379"><ele>741.0</ele><time>2026-04-11T09:37:44.997Z</time></trkpt><trkpt lat="44.696474918281694" lon="9.411163713079816"><ele>740.0</ele><time>2026-04-11T09:37:45.997Z</time></trkpt><trkpt lat="44.696441927507735" lon="9.411051173342814"><ele>739.0</ele><time>2026-04-11T09:37:46.997Z</time></trkpt><trkpt lat="44.696398254642" lon="9.410931194552203"><ele>738.0</ele><time>2026-04-11T09:37:47.997Z</time></trkpt><trkpt lat="44.69636208848489" lon="9.410796964149583"><ele>737.0</ele><time>2026-04-11T09:37:48.997Z</time></trkpt><trkpt lat="44.696336517038674" lon="9.410642105835782"><ele>736.0</ele><time>2026-04-11T09:37:49.997Z</time></trkpt><trkpt lat="44.69632735952773" lon="9.410498976131406"><ele>734.5714285714286</ele><time>2026-04-11T09:37:50.997Z</time></trkpt><trkpt lat="44.696296900434945" lon="9.410398634478877"><ele>733.1428571428571</ele><time>2026-04-11T09:37:51.997Z</time></trkpt><trkpt lat="44.6962513404239" lon="9.410333640502156"><ele>731.7142857142857</ele><time>2026-04-11T09:37:52.997Z</time></trkpt><trkpt lat="44.69618697775055" lon="9.410292090715894"><ele>730.2857142857142</ele><time>2026-04-11T09:37:53.997Z</time></trkpt><trkpt lat="44.69611688685136" lon="9.410258472080619"><ele>728.8571428571429</ele><time>2026-04-11T09:37:54.997Z</time></trkpt><trkpt lat="44.69603954548619" lon="9.410243512881216"><ele>727.4285714285713</ele><time>2026-04-11T09:37:55.997Z</time></trkpt><trkpt lat="44.69596069130882" lon="9.410209285529294"><ele>726.0</ele><time>2026-04-11T09:37:56.997Z</time></trkpt><trkpt lat="44.69591522948508" lon="9.410130483530265"><ele>730.1999999999999</ele><time>2026-04-11T09:37:57.997Z</time></trkpt><trkpt lat="44.69586813931874" lon="9.410032206373803"><ele>734.4</ele><time>2026-04-11T09:37:58.997Z</time></trkpt><trkpt lat="44.695839909421984" lon="9.409935959776234"><ele>738.6</ele><time>2026-04-11T09:37:59.997Z</time></trkpt><trkpt lat="44.69581551842918" lon="9.409772070621697"><ele>742.8</ele><time>2026-04-11T09:38:01.997Z</time></trkpt><trkpt lat="44.69578345538781" lon="9.409651196833783"><ele>747.0</ele><time>2026-04-11T09:38:02.997Z</time></trkpt><trkpt lat="44.69574660230094" lon="9.409548149195958"><ele>747.0</ele><time>2026-04-11T09:38:03.997Z</time></trkpt><trkpt lat="44.69569365314608" lon="9.409486988659314"><ele>747.0</ele><time>2026-04-11T09:38:04.997Z</time></trkpt><trkpt lat="44.69565351812332" lon="9.40941249657976"><ele>747.0</ele><time>2026-04-11T09:38:05.997Z</time></trkpt><trkpt lat="44.695569713193066" lon="9.40941053340984"><ele>747.0</ele><time>2026-04-11T09:38:06.997Z</time></trkpt><trkpt lat="44.69550246979101" lon="9.409383998059425"><ele>747.0</ele><time>2026-04-11T09:38:07.997Z</time></trkpt><trkpt lat="44.69543942055695" lon="9.409367023778552"><ele>747.0</ele><time>2026-04-11T09:38:08.997Z</time></trkpt><trkpt lat="44.695310071670036" lon="9.409424366124513"><ele>750.6</ele><time>2026-04-11T09:38:11.997Z</time></trkpt><trkpt lat="44.695251943198755" lon="9.409503729101374"><ele>754.2</ele><time>2026-04-11T09:38:12.997Z</time></trkpt><trkpt lat="44.695160198971614" lon="9.409581483430685"><ele>757.8</ele><time>2026-04-11T09:38:13.997Z</time></trkpt><trkpt lat="44.69506514465862" lon="9.409684219543502"><ele>761.4</ele><time>2026-04-11T09:38:14.997Z</time></trkpt><trkpt lat="44.69501341460463" lon="9.409784887186325"><ele>765.0</ele><time>2026-04-11T09:38:15.997Z</time></trkpt><trkpt lat="44.694958815351946" lon="9.409893602215998"><ele>766.6</ele><time>2026-04-11T09:38:16.997Z</time></trkpt><trkpt lat="44.69490107490139" lon="9.410028573483993"><ele>768.2</ele><time>2026-04-11T09:38:17.997Z</time></trkpt><trkpt lat="44.694818305133175" lon="9.410159100147162"><ele>769.8</ele><time>2026-04-11T09:38:18.997Z</time></trkpt><trkpt lat="44.69475098109148" lon="9.41026991670005"><ele>771.4</ele><time>2026-04-11T09:38:19.997Z</time></trkpt><trkpt lat="44.6946978202237" lon="9.41034217576419"><ele>773.0</ele><time>2026-04-11T09:38:20.997Z</time></trkpt><trkpt lat="44.694643413787354" lon="9.410418757139189"><ele>776.0</ele><time>2026-04-11T09:38:21.997Z</time></trkpt><trkpt lat="44.6945736930237" lon="9.410512179482561"><ele>779.0</ele><time>2026-04-11T09:38:22.997Z</time></trkpt><trkpt lat="44.69452347402976" lon="9.41062573185848"><ele>782.0</ele><time>2026-04-11T09:38:23.997Z</time></trkpt><trkpt lat="44.69449719417603" lon="9.410754478079348"><ele>785.0</ele><time>2026-04-11T09:38:24.997Z</time></trkpt><trkpt lat="44.69447692546807" lon="9.410884742502596"><ele>788.0</ele><time>2026-04-11T09:38:25.997Z</time></trkpt><trkpt lat="44.69446202458984" lon="9.411035852554738"><ele>788.0</ele><time>2026-04-11T09:38:26.997Z</time></trkpt><trkpt lat="44.694462963189416" lon="9.411212075878684"><ele>788.0</ele><time>2026-04-11T09:38:27.997Z</time></trkpt><trkpt lat="44.69446399937057" lon="9.4113768250364"><ele>788.0</ele><time>2026-04-11T09:38:28.997Z</time></trkpt><trkpt lat="44.69440487192606" lon="9.411594464111701"><ele>788.0</ele><time>2026-04-11T09:38:29.997Z</time></trkpt><trkpt lat="44.69430576489724" lon="9.4117036103989"><ele>788.4</ele><time>2026-04-11T09:38:31.997Z</time></trkpt><trkpt lat="44.6941947027956" lon="9.411762700457116"><ele>788.8</ele><time>2026-04-11T09:38:32.997Z</time></trkpt><trkpt lat="44.694103052958596" lon="9.411837070450362"><ele>789.2</ele><time>2026-04-11T09:38:33.997Z</time></trkpt><trkpt lat="44.69404125826" lon="9.411915941158622"><ele>789.6</ele><time>2026-04-11T09:38:34.997Z</time></trkpt><trkpt lat="44.69401442940705" lon="9.412004423016505"><ele>790.0</ele><time>2026-04-11T09:38:35.997Z</time></trkpt><trkpt lat="44.69397856459795" lon="9.412140948428918"><ele>791.6666666666666</ele><time>2026-04-11T09:38:36.997Z</time></trkpt><trkpt lat="44.693950373506226" lon="9.412229322494957"><ele>793.3333333333333</ele><time>2026-04-11T09:38:37.996Z</time></trkpt><trkpt lat="44.693859034588" lon="9.412306086858115"><ele>795.0</ele><time>2026-04-11T09:38:39.996Z</time></trkpt><trkpt lat="44.69380479214324" lon="9.4123754085598"><ele>796.6666666666667</ele><time>2026-04-11T09:38:40.996Z</time></trkpt><trkpt lat="44.69373807307569" lon="9.412453299986954"><ele>798.3333333333334</ele><time>2026-04-11T09:38:41.996Z</time></trkpt><trkpt lat="44.693665888974074" lon="9.412529764938295"><ele>800.0</ele><time>2026-04-11T09:38:42.996Z</time></trkpt><trkpt lat="44.69358043009321" lon="9.412606490520362"><ele>800.0000000000001</ele><time>2026-04-11T09:38:43.996Z</time></trkpt><trkpt lat="44.69351757414695" lon="9.412685148004034"><ele>800.0</ele><time>2026-04-11T09:38:44.996Z</time></trkpt><trkpt lat="44.69344225494246" lon="9.412749486072782"><ele>800.0</ele><time>2026-04-11T09:38:46.996Z</time></trkpt><trkpt lat="44.693352979833485" lon="9.412712728120932"><ele>800.0</ele><time>2026-04-11T09:38:48.996Z</time></trkpt><trkpt lat="44.693324564862074" lon="9.412629006530544"><ele>800.0000000000001</ele><time>2026-04-11T09:38:49.996Z</time></trkpt><trkpt lat="44.69329127845779" lon="9.412503530176211"><ele>800.0</ele><time>2026-04-11T09:38:50.996Z</time></trkpt><trkpt lat="44.693258461574224" lon="9.412353155145947"><ele>800.0</ele><time>2026-04-11T09:38:51.996Z</time></trkpt><trkpt lat="44.69327226507269" lon="9.41219570847833"><ele>800.0</ele><time>2026-04-11T09:38:52.996Z</time></trkpt><trkpt lat="44.69326825080124" lon="9.412070899290716"><ele>800.0</ele><time>2026-04-11T09:38:53.998Z</time></trkpt><trkpt lat="44.6931427036837" lon="9.41198346798427"><ele>800.0</ele><time>2026-04-11T09:38:55.998Z</time></trkpt><trkpt lat="44.693056731070364" lon="9.411972927794226"><ele>800.0</ele><time>2026-04-11T09:38:56.998Z</time></trkpt><trkpt lat="44.69294131268031" lon="9.411951872330055"><ele>798.0</ele><time>2026-04-11T09:38:57.998Z</time></trkpt><trkpt lat="44.69282752307317" lon="9.411943922898832"><ele>796.0</ele><time>2026-04-11T09:38:58.998Z</time></trkpt><trkpt lat="44.69274799217554" lon="9.411870809447361"><ele>794.0</ele><time>2026-04-11T09:38:59.998Z</time></trkpt><trkpt lat="44.692654008805704" lon="9.411831128580312"><ele>792.0</ele><time>2026-04-11T09:39:00.998Z</time></trkpt><trkpt lat="44.6925662332002" lon="9.411822171501449"><ele>790.0</ele><time>2026-04-11T09:39:01.998Z</time></trkpt><trkpt lat="44.69246304478555" lon="9.411801872953207"><ele>793.4999999999999</ele><time>2026-04-11T09:39:02.999Z</time></trkpt><trkpt lat="44.69240023794645" lon="9.411767091262861"><ele>797.0</ele><time>2026-04-11T09:39:03.999Z</time></trkpt><trkpt lat="44.69235317818674" lon="9.411633697922726"><ele>800.5</ele><time>2026-04-11T09:39:05.999Z</time></trkpt><trkpt lat="44.692330104363066" lon="9.41153207248789"><ele>804.0</ele><time>2026-04-11T09:39:06.999Z</time></trkpt><trkpt lat="44.69234039404867" lon="9.41141920038031"><ele>807.4999999999999</ele><time>2026-04-11T09:39:07.999Z</time></trkpt><trkpt lat="44.69237164959017" lon="9.411269941517363"><ele>811.0</ele><time>2026-04-11T09:39:08.999Z</time></trkpt><trkpt lat="44.69239995266871" lon="9.41108019949699"><ele>811.75</ele><time>2026-04-11T09:39:09.999Z</time></trkpt><trkpt lat="44.69242949596974" lon="9.410882441246345"><ele>812.5</ele><time>2026-04-11T09:39:10.999Z</time></trkpt><trkpt lat="44.692472204717156" lon="9.410687916406369"><ele>813.25</ele><time>2026-04-11T09:39:11.999Z</time></trkpt><trkpt lat="44.69253072971893" lon="9.410523354797498"><ele>814.0</ele><time>2026-04-11T09:39:12.999Z</time></trkpt><trkpt lat="44.6925576891556" lon="9.410410675738717"><ele>815.9999999999999</ele><time>2026-04-11T09:39:13.999Z</time></trkpt><trkpt lat="44.69252930112882" lon="9.41033120067225"><ele>818.0</ele><time>2026-04-11T09:39:14.999Z</time></trkpt><trkpt lat="44.69248027534179" lon="9.4102678879448"><ele>820.0</ele><time>2026-04-11T09:39:15.999Z</time></trkpt><trkpt lat="44.69240890692954" lon="9.410240714078352"><ele>822.0</ele><time>2026-04-11T09:39:16.999Z</time></trkpt><trkpt lat="44.69233444824436" lon="9.410275965105656"><ele>823.9999999999999</ele><time>2026-04-11T09:39:17.999Z</time></trkpt><trkpt lat="44.69223819258552" lon="9.41034806888593"><ele>826.0</ele><time>2026-04-11T09:39:18.999Z</time></trkpt><trkpt lat="44.69217510496655" lon="9.41038677865434"><ele>823.0</ele><time>2026-04-11T09:39:20.999Z</time></trkpt><trkpt lat="44.69206370596156" lon="9.410493489096483"><ele>820.0</ele><time>2026-04-11T09:39:23.999Z</time></trkpt><trkpt lat="44.69203477077338" lon="9.410623230241082"><ele>817.0</ele><time>2026-04-11T09:39:24.999Z</time></trkpt><trkpt lat="44.69201795528246" lon="9.41078342640328"><ele>814.0</ele><time>2026-04-11T09:39:25.999Z</time></trkpt><trkpt lat="44.69200932216122" lon="9.410947336849219"><ele>814.0</ele><time>2026-04-11T09:39:26.999Z</time></trkpt><trkpt lat="44.692027051575906" lon="9.411152083978479"><ele>814.0</ele><time>2026-04-11T09:39:27.999Z</time></trkpt><trkpt lat="44.69202441659159" lon="9.411311249142996"><ele>814.0</ele><time>2026-04-11T09:39:28.999Z</time></trkpt><trkpt lat="44.69200439489532" lon="9.411425876669675"><ele>814.0</ele><time>2026-04-11T09:39:29.999Z</time></trkpt><trkpt lat="44.691950482835026" lon="9.411515922767903"><ele>814.0</ele><time>2026-04-11T09:39:30.999Z</time></trkpt><trkpt lat="44.691843090250664" lon="9.411598807335679"><ele>820.2</ele><time>2026-04-11T09:39:31.999Z</time></trkpt><trkpt lat="44.691741814660745" lon="9.411685339719142"><ele>826.4000000000001</ele><time>2026-04-11T09:39:32.999Z</time></trkpt><trkpt lat="44.69169853329978" lon="9.411802584490774"><ele>832.6</ele><time>2026-04-11T09:39:33.999Z</time></trkpt><trkpt lat="44.69167415301756" lon="9.411926896953496"><ele>838.8</ele><time>2026-04-11T09:39:34.999Z</time></trkpt><trkpt lat="44.691726009457106" lon="9.412072981172205"><ele>845.0</ele><time>2026-04-11T09:39:35.999Z</time></trkpt><trkpt lat="44.69176204361967" lon="9.412244995335374"><ele>845.75</ele><time>2026-04-11T09:39:36.999Z</time></trkpt><trkpt lat="44.69182566838629" lon="9.412425962296348"><ele>846.5</ele><time>2026-04-11T09:39:37.999Z</time></trkpt><trkpt lat="44.69190422127002" lon="9.412599402157126"><ele>847.25</ele><time>2026-04-11T09:39:38.999Z</time></trkpt><trkpt lat="44.69196620357425" lon="9.412738346250809"><ele>848.0</ele><time>2026-04-11T09:39:39.999Z</time></trkpt><trkpt lat="44.69199571658376" lon="9.412860057556163"><ele>848.5</ele><time>2026-04-11T09:39:40.999Z</time></trkpt><trkpt lat="44.69200827094161" lon="9.413006416385588"><ele>849.0</ele><time>2026-04-11T09:39:41.999Z</time></trkpt><trkpt lat="44.691973196207144" lon="9.413162128087983"><ele>849.5</ele><time>2026-04-11T09:39:42.999Z</time></trkpt><trkpt lat="44.69192220585649" lon="9.413330459917638"><ele>850.0</ele><time>2026-04-11T09:39:43.999Z</time></trkpt><trkpt lat="44.69185731251814" lon="9.413507846081835"><ele>850.0</ele><time>2026-04-11T09:39:44.999Z</time></trkpt><trkpt lat="44.69179587446718" lon="9.41367849664809"><ele>850.0</ele><time>2026-04-11T09:39:45.999Z</time></trkpt><trkpt lat="44.69170899835111" lon="9.41380434222955"><ele>850.0</ele><time>2026-04-11T09:39:46.999Z</time></trkpt><trkpt lat="44.69160800121264" lon="9.413843748402654"><ele>850.0</ele><time>2026-04-11T09:39:47.999Z</time></trkpt><trkpt lat="44.69151213826405" lon="9.41386910095699"><ele>850.0</ele><time>2026-04-11T09:39:48.999Z</time></trkpt><trkpt lat="44.69138785261366" lon="9.413846701423823"><ele>850.0</ele><time>2026-04-11T09:39:49.999Z</time></trkpt><trkpt lat="44.69123899710602" lon="9.41381019138026"><ele>850.0</ele><time>2026-04-11T09:39:50.999Z</time></trkpt><trkpt lat="44.6910815734865" lon="9.413786540474971"><ele>850.0</ele><time>2026-04-11T09:39:51.999Z</time></trkpt><trkpt lat="44.69091994011911" lon="9.41376516285046"><ele>851.3333333333333</ele><time>2026-04-11T09:39:52.999Z</time></trkpt><trkpt lat="44.69075293127638" lon="9.413756869759222"><ele>852.6666666666667</ele><time>2026-04-11T09:39:53.999Z</time></trkpt><trkpt lat="44.690583920557806" lon="9.413778397045446"><ele>854.0</ele><time>2026-04-11T09:39:54.999Z</time></trkpt><trkpt lat="44.69042310907153" lon="9.413829100334787"><ele>854.0</ele><time>2026-04-11T09:39:55.999Z</time></trkpt><trkpt lat="44.69026386848229" lon="9.413898173816179"><ele>854.0</ele><time>2026-04-11T09:39:56.999Z</time></trkpt><trkpt lat="44.69011393013204" lon="9.413981447006565"><ele>854.0</ele><time>2026-04-11T09:39:57.999Z</time></trkpt><trkpt lat="44.689960352880675" lon="9.414069078865964"><ele>854.75</ele><time>2026-04-11T09:39:58.999Z</time></trkpt><trkpt lat="44.689811725251175" lon="9.414152142113092"><ele>855.5</ele><time>2026-04-11T09:39:59.999Z</time></trkpt><trkpt lat="44.68967757099441" lon="9.414224618805386"><ele>856.25</ele><time>2026-04-11T09:40:00.999Z</time></trkpt><trkpt lat="44.68956663202931" lon="9.414297716746365"><ele>857.0</ele><time>2026-04-11T09:40:01.999Z</time></trkpt><trkpt lat="44.68948706905197" lon="9.414385481926331"><ele>857.0</ele><time>2026-04-11T09:40:02.999Z</time></trkpt><trkpt lat="44.68944831044099" lon="9.414500575397073"><ele>857.0</ele><time>2026-04-11T09:40:03.999Z</time></trkpt><trkpt lat="44.68942027136289" lon="9.414623813844761"><ele>857.0</ele><time>2026-04-11T09:40:04.999Z</time></trkpt><trkpt lat="44.68944349548453" lon="9.414768808284306"><ele>857.0</ele><time>2026-04-11T09:40:05.999Z</time></trkpt><trkpt lat="44.6895055122824" lon="9.41486224767278"><ele>857.0</ele><time>2026-04-11T09:40:06.999Z</time></trkpt><trkpt lat="44.68958973839373" lon="9.414940350882798"><ele>858.5</ele><time>2026-04-11T09:40:07.999Z</time></trkpt><trkpt lat="44.68970877907538" lon="9.414963000414305"><ele>860.0</ele><time>2026-04-11T09:40:08.999Z</time></trkpt><trkpt lat="44.6898428791578" lon="9.414926421725735"><ele>861.5</ele><time>2026-04-11T09:40:09.999Z</time></trkpt><trkpt lat="44.68997830403172" lon="9.414893861593335"><ele>863.0</ele><time>2026-04-11T09:40:10.999Z</time></trkpt><trkpt lat="44.690131946856546" lon="9.414887271168942"><ele>862.0</ele><time>2026-04-11T09:40:11.999Z</time></trkpt><trkpt lat="44.690299052352614" lon="9.414855960790144"><ele>861.0</ele><time>2026-04-11T09:40:12.999Z</time></trkpt><trkpt lat="44.690462034010075" lon="9.414821402653489"><ele>860.0</ele><time>2026-04-11T09:40:13.999Z</time></trkpt><trkpt lat="44.6906171976695" lon="9.414787630693969"><ele>860.0</ele><time>2026-04-11T09:40:14.999Z</time></trkpt><trkpt lat="44.69075016302438" lon="9.414767512452116"><ele>860.0</ele><time>2026-04-11T09:40:15.999Z</time></trkpt><trkpt lat="44.69087200368917" lon="9.414764414929653"><ele>860.0</ele><time>2026-04-11T09:40:16.999Z</time></trkpt><trkpt lat="44.6909750431216" lon="9.414760338927168"><ele>860.0</ele><time>2026-04-11T09:40:17.999Z</time></trkpt><trkpt lat="44.691050819005554" lon="9.41484219867976"><ele>860.0</ele><time>2026-04-11T09:40:18.999Z</time></trkpt><trkpt lat="44.69105901278356" lon="9.415001591338328"><ele>860.0</ele><time>2026-04-11T09:40:19.998Z</time></trkpt><trkpt lat="44.69111567801945" lon="9.41516618023436"><ele>860.0</ele><time>2026-04-11T09:40:20.998Z</time></trkpt><trkpt lat="44.69118166112917" lon="9.415362759534364"><ele>860.0</ele><time>2026-04-11T09:40:21.998Z</time></trkpt><trkpt lat="44.691257436922335" lon="9.415578321986574"><ele>860.0</ele><time>2026-04-11T09:40:22.998Z</time></trkpt><trkpt lat="44.69134694483523" lon="9.415798861528987"><ele>860.0</ele><time>2026-04-11T09:40:23.998Z</time></trkpt><trkpt lat="44.691425086679594" lon="9.416045376083959"><ele>860.0</ele><time>2026-04-11T09:40:24.998Z</time></trkpt><trkpt lat="44.691479125372425" lon="9.416308773774668"><ele>864.0</ele><time>2026-04-11T09:40:25.998Z</time></trkpt><trkpt lat="44.69156122043655" lon="9.416560387147346"><ele>868.0</ele><time>2026-04-11T09:40:26.998Z</time></trkpt><trkpt lat="44.691650839568034" lon="9.41678243485796"><ele>872.0</ele><time>2026-04-11T09:40:27.998Z</time></trkpt><trkpt lat="44.691747760429024" lon="9.416983406109624"><ele>871.25</ele><time>2026-04-11T09:40:28.998Z</time></trkpt><trkpt lat="44.69181038695376" lon="9.417167468355137"><ele>870.5</ele><time>2026-04-11T09:40:29.998Z</time></trkpt><trkpt lat="44.691867448799876" lon="9.417338273652833"><ele>869.75</ele><time>2026-04-11T09:40:30.998Z</time></trkpt><trkpt lat="44.691920811786694" lon="9.41743649685184"><ele>869.0</ele><time>2026-04-11T09:40:31.998Z</time></trkpt><trkpt lat="44.69196266134641" lon="9.417590239045044"><ele>869.0</ele><time>2026-04-11T09:40:33.998Z</time></trkpt><trkpt lat="44.69199679223241" lon="9.417704982605002"><ele>869.0000000000001</ele><time>2026-04-11T09:40:34.998Z</time></trkpt><trkpt lat="44.692021228618266" lon="9.417833019853473"><ele>869.0000000000001</ele><time>2026-04-11T09:40:35.998Z</time></trkpt><trkpt lat="44.69203290167537" lon="9.41797887405209"><ele>869.0</ele><time>2026-04-11T09:40:36.998Z</time></trkpt><trkpt lat="44.692018818739136" lon="9.418150529321299"><ele>869.0</ele><time>2026-04-11T09:40:37.998Z</time></trkpt><trkpt lat="44.69196712219498" lon="9.418233984338652"><ele>871.6666666666667</ele><time>2026-04-11T09:40:38.998Z</time></trkpt><trkpt lat="44.691964275254946" lon="9.418382229042251"><ele>874.3333333333333</ele><time>2026-04-11T09:40:39.998Z</time></trkpt><trkpt lat="44.69200417715819" lon="9.418557042271999"><ele>877.0</ele><time>2026-04-11T09:40:40.998Z</time></trkpt><trkpt lat="44.692540935664404" lon="9.418692327272655"><ele>877.0</ele><time>2026-04-11T09:40:41.998Z</time></trkpt><trkpt lat="44.69261668983842" lon="9.418790276077003"><ele>877.0</ele><time>2026-04-11T09:40:42.998Z</time></trkpt><trkpt lat="44.69264793335011" lon="9.418867626375317"><ele>877.0</ele><time>2026-04-11T09:40:43.998Z</time></trkpt><trkpt lat="44.69259266862061" lon="9.419058514201375"><ele>877.0</ele><time>2026-04-11T09:40:45.998Z</time></trkpt><trkpt lat="44.692560973410025" lon="9.419220744782393"><ele>877.0</ele><time>2026-04-11T09:40:46.998Z</time></trkpt><trkpt lat="44.692549608602555" lon="9.419359170532202"><ele>880.25</ele><time>2026-04-11T09:40:47.998Z</time></trkpt><trkpt lat="44.69258332446979" lon="9.419514559861598"><ele>883.5</ele><time>2026-04-11T09:40:48.998Z</time></trkpt><trkpt lat="44.69261900099831" lon="9.419719028399124"><ele>886.75</ele><time>2026-04-11T09:40:49.998Z</time></trkpt><trkpt lat="44.69261620782628" lon="9.41992151667742"><ele>890.0</ele><time>2026-04-11T09:40:50.998Z</time></trkpt><trkpt lat="44.69259639141448" lon="9.420101561107584"><ele>889.8333333333334</ele><time>2026-04-11T09:40:51.998Z</time></trkpt><trkpt lat="44.69258778403965" lon="9.42023500554161"><ele>889.6666666666667</ele><time>2026-04-11T09:40:52.998Z</time></trkpt><trkpt lat="44.69261662335433" lon="9.42031501802077"><ele>889.5</ele><time>2026-04-11T09:40:53.998Z</time></trkpt><trkpt lat="44.69268819969869" lon="9.420442393954577"><ele>889.3333333333333</ele><time>2026-04-11T09:40:55.998Z</time></trkpt><trkpt lat="44.69274412365214" lon="9.420485653240203"><ele>889.1666666666666</ele><time>2026-04-11T09:40:57.998Z</time></trkpt><trkpt lat="44.69282320629344" lon="9.420468080986554"><ele>889.0</ele><time>2026-04-11T09:41:00Z</time></trkpt><trkpt lat="44.6929375017887" lon="9.420317586689329"><ele>889.0</ele><time>2026-04-11T09:41:02Z</time></trkpt><trkpt lat="44.693000366376744" lon="9.420289447742979"><ele>889.0000000000001</ele><time>2026-04-11T09:41:03Z</time></trkpt><trkpt lat="44.693125613944986" lon="9.420398586764913"><ele>889.0000000000001</ele><time>2026-04-11T09:41:05Z</time></trkpt><trkpt lat="44.693171600070116" lon="9.420494003054115"><ele>889.0</ele><time>2026-04-11T09:41:06Z</time></trkpt><trkpt lat="44.69318787602845" lon="9.420596126881803"><ele>889.0</ele><time>2026-04-11T09:41:07Z</time></trkpt><trkpt lat="44.693186555218055" lon="9.4207157553635"><ele>890.6</ele><time>2026-04-11T09:41:08Z</time></trkpt><trkpt lat="44.69317963586782" lon="9.420852827927598"><ele>892.2</ele><time>2026-04-11T09:41:09Z</time></trkpt><trkpt lat="44.693150331183084" lon="9.421012877003985"><ele>893.8000000000001</ele><time>2026-04-11T09:41:10Z</time></trkpt><trkpt lat="44.693131546197655" lon="9.421160025833498"><ele>895.4000000000001</ele><time>2026-04-11T09:41:11Z</time></trkpt><trkpt lat="44.69315694802905" lon="9.42125372703613"><ele>897.0</ele><time>2026-04-11T09:41:12Z</time></trkpt><trkpt lat="44.69321076826063" lon="9.421300329068027"><ele>897.0</ele><time>2026-04-11T09:41:13Z</time></trkpt><trkpt lat="44.69328273204645" lon="9.421340779191299"><ele>897.0</ele><time>2026-04-11T09:41:14Z</time></trkpt><trkpt lat="44.693358470807574" lon="9.421332616582706"><ele>897.0</ele><time>2026-04-11T09:41:15Z</time></trkpt><trkpt lat="44.69343173316591" lon="9.421264244667597"><ele>897.0</ele><time>2026-04-11T09:41:16Z</time></trkpt><trkpt lat="44.69351747934552" lon="9.421178027708226"><ele>897.0</ele><time>2026-04-11T09:41:17Z</time></trkpt><trkpt lat="44.693619754708266" lon="9.421152889528793"><ele>898.75</ele><time>2026-04-11T09:41:18Z</time></trkpt><trkpt lat="44.69372907213601" lon="9.421178736628844"><ele>900.5</ele><time>2026-04-11T09:41:18.999Z</time></trkpt><trkpt lat="44.693874014573" lon="9.421207909051454"><ele>902.25</ele><time>2026-04-11T09:41:19.999Z</time></trkpt><trkpt lat="44.69398622689379" lon="9.421221217446343"><ele>904.0</ele><time>2026-04-11T09:41:20.999Z</time></trkpt><trkpt lat="44.69405812789964" lon="9.421278759358412"><ele>903.9999999999999</ele><time>2026-04-11T09:41:21.999Z</time></trkpt><trkpt lat="44.694176560389536" lon="9.421248179163046"><ele>904.0</ele><time>2026-04-11T09:41:23.999Z</time></trkpt><trkpt lat="44.69425732280755" lon="9.42118450254116"><ele>904.0</ele><time>2026-04-11T09:41:25.999Z</time></trkpt><trkpt lat="44.69429820980294" lon="9.421255527888897"><ele>904.0</ele><time>2026-04-11T09:41:26.999Z</time></trkpt><trkpt lat="44.69430537811283" lon="9.421343756698612"><ele>903.9999999999999</ele><time>2026-04-11T09:41:27.999Z</time></trkpt><trkpt lat="44.69429180794338" lon="9.421467546901216"><ele>904.0</ele><time>2026-04-11T09:41:28.999Z</time></trkpt><trkpt lat="44.69427331380983" lon="9.421647692644706"><ele>907.0</ele><time>2026-04-11T09:41:29.999Z</time></trkpt><trkpt lat="44.69424486205932" lon="9.421826193531787"><ele>910.0000000000001</ele><time>2026-04-11T09:41:30.999Z</time></trkpt><trkpt lat="44.69423285683512" lon="9.421962970097951"><ele>913.0000000000001</ele><time>2026-04-11T09:41:31.999Z</time></trkpt><trkpt lat="44.69420081139208" lon="9.422093370084902"><ele>916.0</ele><time>2026-04-11T09:41:32.999Z</time></trkpt><trkpt lat="44.69416860549472" lon="9.422248504866875"><ele>919.0</ele><time>2026-04-11T09:41:33.999Z</time></trkpt><trkpt lat="44.69414492435879" lon="9.422401127110415"><ele>920.5</ele><time>2026-04-11T09:41:34.999Z</time></trkpt><trkpt lat="44.69410005681409" lon="9.422526359459086"><ele>922.0</ele><time>2026-04-11T09:41:35.999Z</time></trkpt><trkpt lat="44.69402645137991" lon="9.422705454365085"><ele>923.5</ele><time>2026-04-11T09:41:36.999Z</time></trkpt><trkpt lat="44.69397657765825" lon="9.422890861019356"><ele>925.0</ele><time>2026-04-11T09:41:37.999Z</time></trkpt><trkpt lat="44.69393863977635" lon="9.423044840281477"><ele>927.2</ele><time>2026-04-11T09:41:38.999Z</time></trkpt><trkpt lat="44.69388598681416" lon="9.42318860845848"><ele>929.4</ele><time>2026-04-11T09:41:39.999Z</time></trkpt><trkpt lat="44.693820260400564" lon="9.42329483333206"><ele>931.5999999999999</ele><time>2026-04-11T09:41:40.999Z</time></trkpt><trkpt lat="44.6937534763149" lon="9.423403006703047"><ele>933.8</ele><time>2026-04-11T09:41:41.999Z</time></trkpt><trkpt lat="44.6937135818566" lon="9.423484754298656"><ele>936.0</ele><time>2026-04-11T09:41:42.999Z</time></trkpt><trkpt lat="44.6936614952184" lon="9.423552459868647"><ele>934.5</ele><time>2026-04-11T09:41:43.999Z</time></trkpt><trkpt lat="44.693577016292565" lon="9.423607331754889"><ele>933.0</ele><time>2026-04-11T09:41:44.999Z</time></trkpt><trkpt lat="44.693453857735" lon="9.42362823616274"><ele>931.5</ele><time>2026-04-11T09:41:45.999Z</time></trkpt><trkpt lat="44.69332788039634" lon="9.423648714523917"><ele>930.0</ele><time>2026-04-11T09:41:46.999Z</time></trkpt><trkpt lat="44.693228772338045" lon="9.423703460573208"><ele>930.0</ele><time>2026-04-11T09:41:47.999Z</time></trkpt><trkpt lat="44.69313907562802" lon="9.423780473422214"><ele>930.0</ele><time>2026-04-11T09:41:48.999Z</time></trkpt><trkpt lat="44.69308541728362" lon="9.423874443521886"><ele>930.0</ele><time>2026-04-11T09:41:49.999Z</time></trkpt><trkpt lat="44.693065153622875" lon="9.42397456153684"><ele>930.0</ele><time>2026-04-11T09:41:50.999Z</time></trkpt><trkpt lat="44.69305861638774" lon="9.424106223992663"><ele>930.0</ele><time>2026-04-11T09:41:51.999Z</time></trkpt><trkpt lat="44.693050674248326" lon="9.424266458967654"><ele>932.8</ele><time>2026-04-11T09:41:52.999Z</time></trkpt><trkpt lat="44.69305989454865" lon="9.424440415723037"><ele>935.6</ele><time>2026-04-11T09:41:53.999Z</time></trkpt><trkpt lat="44.69307170816125" lon="9.424592370792418"><ele>938.4000000000001</ele><time>2026-04-11T09:41:54.999Z</time></trkpt><trkpt lat="44.69316499122115" lon="9.424655901951603"><ele>941.2</ele><time>2026-04-11T09:41:56.999Z</time></trkpt><trkpt lat="44.69323777866049" lon="9.424617637741342"><ele>944.0</ele><time>2026-04-11T09:41:57.999Z</time></trkpt><trkpt lat="44.69333090341338" lon="9.424538873875568"><ele>944.0</ele><time>2026-04-11T09:41:58.999Z</time></trkpt><trkpt lat="44.69342866911034" lon="9.424413779267558"><ele>944.0</ele><time>2026-04-11T09:41:59.999Z</time></trkpt><trkpt lat="44.69352417525649" lon="9.424244144498367"><ele>944.0</ele><time>2026-04-11T09:42:00.999Z</time></trkpt><trkpt lat="44.69358852851226" lon="9.424124957841354"><ele>944.0</ele><time>2026-04-11T09:42:01.999Z</time></trkpt><trkpt lat="44.69366311220184" lon="9.424087003014632"><ele>946.4000000000001</ele><time>2026-04-11T09:42:03.999Z</time></trkpt><trkpt lat="44.693734296056306" lon="9.424107451450867"><ele>948.8000000000001</ele><time>2026-04-11T09:42:04.999Z</time></trkpt><trkpt lat="44.693794266286154" lon="9.424158539088186"><ele>951.1999999999999</ele><time>2026-04-11T09:42:05.999Z</time></trkpt><trkpt lat="44.69385783917976" lon="9.4242178059671"><ele>953.5999999999999</ele><time>2026-04-11T09:42:06.999Z</time></trkpt><trkpt lat="44.69392365686345" lon="9.424201870963017"><ele>956.0</ele><time>2026-04-11T09:42:07.999Z</time></trkpt><trkpt lat="44.69407992105915" lon="9.424107214630284"><ele>956.0</ele><time>2026-04-11T09:42:08.999Z</time></trkpt><trkpt lat="44.69423902893348" lon="9.424001551032305"><ele>956.0</ele><time>2026-04-11T09:42:09.999Z</time></trkpt><trkpt lat="44.69433439219342" lon="9.423932419829777"><ele>956.0</ele><time>2026-04-11T09:42:10.999Z</time></trkpt><trkpt lat="44.69443172168341" lon="9.423937511514236"><ele>956.0</ele><time>2026-04-11T09:42:11.999Z</time></trkpt><trkpt lat="44.69456426161812" lon="9.423926825051794"><ele>957.0000000000001</ele><time>2026-04-11T09:42:12.999Z</time></trkpt><trkpt lat="44.69467760875219" lon="9.423945853626167"><ele>958.0</ele><time>2026-04-11T09:42:13.999Z</time></trkpt><trkpt lat="44.69473552577171" lon="9.42400306256619"><ele>959.0</ele><time>2026-04-11T09:42:14.999Z</time></trkpt><trkpt lat="44.69476725646322" lon="9.424084183379055"><ele>960.0</ele><time>2026-04-11T09:42:15.999Z</time></trkpt><trkpt lat="44.694790069839385" lon="9.42418693201255"><ele>961.0000000000001</ele><time>2026-04-11T09:42:16.999Z</time></trkpt><trkpt lat="44.69481461220873" lon="9.42434020747684"><ele>962.0</ele><time>2026-04-11T09:42:17.999Z</time></trkpt><trkpt lat="44.69483737772804" lon="9.424487679685603"><ele>962.0</ele><time>2026-04-11T09:42:18.998Z</time></trkpt><trkpt lat="44.69480667362403" lon="9.424615166291707"><ele>962.0</ele><time>2026-04-11T09:42:20.998Z</time></trkpt><trkpt lat="44.69473621236306" lon="9.424671763364694"><ele>962.0</ele><time>2026-04-11T09:42:21.998Z</time></trkpt><trkpt lat="44.69463630199333" lon="9.424738830170488"><ele>962.0</ele><time>2026-04-11T09:42:22.998Z</time></trkpt><trkpt lat="44.694546898545724" lon="9.424844587807335"><ele>962.0</ele><time>2026-04-11T09:42:23.998Z</time></trkpt><trkpt lat="44.69449004301376" lon="9.424961260223514"><ele>963.0</ele><time>2026-04-11T09:42:24.998Z</time></trkpt><trkpt lat="44.69444547116311" lon="9.425104670441929"><ele>964.0</ele><time>2026-04-11T09:42:25.998Z</time></trkpt><trkpt lat="44.69439914828364" lon="9.425279867583239"><ele>965.0</ele><time>2026-04-11T09:42:26.998Z</time></trkpt><trkpt lat="44.694352419022316" lon="9.425462279231363"><ele>966.0</ele><time>2026-04-11T09:42:27.998Z</time></trkpt><trkpt lat="44.694354867133534" lon="9.425642326564477"><ele>967.5</ele><time>2026-04-11T09:42:28.998Z</time></trkpt><trkpt lat="44.69437827711917" lon="9.425756105592708"><ele>969.0</ele><time>2026-04-11T09:42:29.998Z</time></trkpt><trkpt lat="44.69441595474846" lon="9.425918082903635"><ele>970.5</ele><time>2026-04-11T09:42:30.998Z</time></trkpt><trkpt lat="44.69443049961526" lon="9.426057604644441"><ele>972.0</ele><time>2026-04-11T09:42:31.998Z</time></trkpt><trkpt lat="44.69440999828334" lon="9.426147310072226"><ele>973.5</ele><time>2026-04-11T09:42:32.998Z</time></trkpt><trkpt lat="44.69435449758694" lon="9.426209193451577"><ele>975.0</ele><time>2026-04-11T09:42:33.998Z</time></trkpt><trkpt lat="44.69425184234079" lon="9.426249051374112"><ele>975.0</ele><time>2026-04-11T09:42:34.998Z</time></trkpt><trkpt lat="44.694156496503176" lon="9.42629881327694"><ele>975.0</ele><time>2026-04-11T09:42:35.998Z</time></trkpt><trkpt lat="44.69410608996581" lon="9.426352041877424"><ele>975.0</ele><time>2026-04-11T09:42:36.998Z</time></trkpt><trkpt lat="44.69409466197539" lon="9.426441216814624"><ele>975.0</ele><time>2026-04-11T09:42:37.998Z</time></trkpt><trkpt lat="44.69405380600662" lon="9.426596037111166"><ele>975.0</ele><time>2026-04-11T09:42:38.998Z</time></trkpt><trkpt lat="44.69398995017164" lon="9.426689200549431"><ele>975.0</ele><time>2026-04-11T09:42:39.998Z</time></trkpt><trkpt lat="44.693907650728704" lon="9.426692904197662"><ele>976.0</ele><time>2026-04-11T09:42:40.998Z</time></trkpt><trkpt lat="44.69380079074582" lon="9.426669940078218"><ele>977.0</ele><time>2026-04-11T09:42:41.998Z</time></trkpt><trkpt lat="44.6937188130395" lon="9.426643500451794"><ele>978.0</ele><time>2026-04-11T09:42:42.998Z</time></trkpt><trkpt lat="44.69367310391609" lon="9.426768466633284"><ele>979.0</ele><time>2026-04-11T09:42:43.998Z</time></trkpt><trkpt lat="44.69360011262459" lon="9.426841234597049"><ele>980.0</ele><time>2026-04-11T09:42:44.998Z</time></trkpt><trkpt lat="44.693561345210796" lon="9.426993944816067"><ele>982.4</ele><time>2026-04-11T09:42:45.998Z</time></trkpt><trkpt lat="44.69351634486501" lon="9.427176893204388"><ele>984.8</ele><time>2026-04-11T09:42:46.998Z</time></trkpt><trkpt lat="44.69351344727922" lon="9.427303960145569"><ele>987.2</ele><time>2026-04-11T09:42:47.998Z</time></trkpt><trkpt lat="44.69351456505315" lon="9.42740242470564"><ele>989.6</ele><time>2026-04-11T09:42:48.998Z</time></trkpt><trkpt lat="44.69348635194026" lon="9.427525978949172"><ele>992.0</ele><time>2026-04-11T09:42:49.998Z</time></trkpt><trkpt lat="44.693429714007074" lon="9.427609351850156"><ele>992.0</ele><time>2026-04-11T09:42:50.998Z</time></trkpt><trkpt lat="44.69335483683228" lon="9.42775734209011"><ele>992.0</ele><time>2026-04-11T09:42:51.998Z</time></trkpt><trkpt lat="44.693292498760144" lon="9.42786887809182"><ele>992.0</ele><time>2026-04-11T09:42:52.998Z</time></trkpt><trkpt lat="44.69328314001346" lon="9.427985102370183"><ele>992.0</ele><time>2026-04-11T09:42:54.998Z</time></trkpt><trkpt lat="44.69327551761898" lon="9.428101361653608"><ele>992.0</ele><time>2026-04-11T09:42:55.998Z</time></trkpt><trkpt lat="44.69325577360536" lon="9.428200774523633"><ele>994.6</ele><time>2026-04-11T09:42:56.998Z</time></trkpt><trkpt lat="44.69322467625747" lon="9.42830751673549"><ele>997.2</ele><time>2026-04-11T09:42:57.998Z</time></trkpt><trkpt lat="44.69315918554904" lon="9.428431015939703"><ele>999.8</ele><time>2026-04-11T09:42:58.998Z</time></trkpt><trkpt lat="44.69308105641178" lon="9.42852140180464"><ele>1002.4</ele><time>2026-04-11T09:42:59.998Z</time></trkpt><trkpt lat="44.693020126767856" lon="9.428619420460222"><ele>1005.0</ele><time>2026-04-11T09:43:01.998Z</time></trkpt><trkpt lat="44.69295545955818" lon="9.42870015986555"><ele>1005.0</ele><time>2026-04-11T09:43:03.998Z</time></trkpt><trkpt lat="44.69286983144096" lon="9.428708240963658"><ele>1005.0</ele><time>2026-04-11T09:43:04.998Z</time></trkpt><trkpt lat="44.69277724324197" lon="9.428752804127207"><ele>1005.0</ele><time>2026-04-11T09:43:06Z</time></trkpt><trkpt lat="44.6926939730608" lon="9.428813555663346"><ele>1005.0</ele><time>2026-04-11T09:43:07Z</time></trkpt><trkpt lat="44.692637895207504" lon="9.428923647549674"><ele>1005.0</ele><time>2026-04-11T09:43:08Z</time></trkpt><trkpt lat="44.692606880215216" lon="9.429041401422722"><ele>1005.6</ele><time>2026-04-11T09:43:09Z</time></trkpt><trkpt lat="44.69259842802457" lon="9.429143754982533"><ele>1006.2</ele><time>2026-04-11T09:43:10Z</time></trkpt><trkpt lat="44.69263107371524" lon="9.42922210122268"><ele>1006.8</ele><time>2026-04-11T09:43:11Z</time></trkpt><trkpt lat="44.69280434418463" lon="9.429311771929642"><ele>1007.4</ele><time>2026-04-11T09:43:13Z</time></trkpt><trkpt lat="44.69292196316861" lon="9.429276771456532"><ele>1008.0</ele><time>2026-04-11T09:43:14Z</time></trkpt><trkpt lat="44.693055462113065" lon="9.429234140988543"><ele>1012.6666666666667</ele><time>2026-04-11T09:43:15Z</time></trkpt><trkpt lat="44.693199768138825" lon="9.429181146569839"><ele>1017.3333333333334</ele><time>2026-04-11T09:43:16Z</time></trkpt><trkpt lat="44.69334534781117" lon="9.429116365447195"><ele>1022.0</ele><time>2026-04-11T09:43:17Z</time></trkpt><trkpt lat="44.693489612976975" lon="9.429047527415028"><ele>1024.5</ele><time>2026-04-11T09:43:18Z</time></trkpt><trkpt lat="44.693634781683215" lon="9.428967118029421"><ele>1027.0</ele><time>2026-04-11T09:43:19Z</time></trkpt><trkpt lat="44.693750456560316" lon="9.428907400497893"><ele>1029.5</ele><time>2026-04-11T09:43:20Z</time></trkpt><trkpt lat="44.69386405078539" lon="9.42885956631698"><ele>1032.0</ele><time>2026-04-11T09:43:21Z</time></trkpt><trkpt lat="44.693978707770306" lon="9.428818566844878"><ele>1032.5</ele><time>2026-04-11T09:43:22Z</time></trkpt><trkpt lat="44.694104433643666" lon="9.428774677611528"><ele>1033.0</ele><time>2026-04-11T09:43:22.999Z</time></trkpt><trkpt lat="44.69423273633355" lon="9.428726116950598"><ele>1033.5</ele><time>2026-04-11T09:43:23.999Z</time></trkpt><trkpt lat="44.6943662037325" lon="9.428707795439204"><ele>1034.0</ele><time>2026-04-11T09:43:24.999Z</time></trkpt><trkpt lat="44.69449942270011" lon="9.42872277938493"><ele>1034.0</ele><time>2026-04-11T09:43:25.999Z</time></trkpt><trkpt lat="44.69462814073438" lon="9.428700113040964"><ele>1034.0</ele><time>2026-04-11T09:43:26.999Z</time></trkpt><trkpt lat="44.694741434403305" lon="9.428631575488849"><ele>1034.0</ele><time>2026-04-11T09:43:27.999Z</time></trkpt><trkpt lat="44.69483926764433" lon="9.428534434839358"><ele>1034.0</ele><time>2026-04-11T09:43:28.999Z</time></trkpt><trkpt lat="44.694935867229596" lon="9.428441981526522"><ele>1034.0</ele><time>2026-04-11T09:43:29.999Z</time></trkpt><trkpt lat="44.69502625306148" lon="9.428348165058678"><ele>1034.0</ele><time>2026-04-11T09:43:30.999Z</time></trkpt><trkpt lat="44.695100442498195" lon="9.428259707390906"><ele>1034.0</ele><time>2026-04-11T09:43:31.999Z</time></trkpt><trkpt lat="44.695159610080474" lon="9.428185857156862"><ele>1034.0</ele><time>2026-04-11T09:43:32.999Z</time></trkpt><trkpt lat="44.69522012515709" lon="9.428111987148094"><ele>1034.0</ele><time>2026-04-11T09:43:33.999Z</time></trkpt><trkpt lat="44.69528081015781" lon="9.428040564954701"><ele>1034.0</ele><time>2026-04-11T09:43:34.999Z</time></trkpt><trkpt lat="44.695336024846576" lon="9.427981427850881"><ele>1033.0</ele><time>2026-04-11T09:43:35.999Z</time></trkpt><trkpt lat="44.695396735211034" lon="9.427918562641091"><ele>1032.0</ele><time>2026-04-11T09:43:37.999Z</time></trkpt><trkpt lat="44.69549553565531" lon="9.427824658545259"><ele>1031.0</ele><time>2026-04-11T09:43:40.999Z</time></trkpt><trkpt lat="44.695576331810045" lon="9.427759226655574"><ele>1030.0</ele><time>2026-04-11T09:43:41.999Z</time></trkpt><trkpt lat="44.69563845758311" lon="9.427725220736948"><ele>1029.0</ele><time>2026-04-11T09:43:42.999Z</time></trkpt><trkpt lat="44.69570443427731" lon="9.427750245353433"><ele>1028.0</ele><time>2026-04-11T09:43:43.999Z</time></trkpt><trkpt lat="44.69579684616347" lon="9.427794374706544"><ele>1028.0</ele><time>2026-04-11T09:43:44.999Z</time></trkpt><trkpt lat="44.695880918957926" lon="9.427869525703562"><ele>1028.0</ele><time>2026-04-11T09:43:45.999Z</time></trkpt><trkpt lat="44.6959609369698" lon="9.427958979158856"><ele>1028.0</ele><time>2026-04-11T09:43:46.999Z</time></trkpt><trkpt lat="44.69600503920061" lon="9.428033409107332"><ele>1028.0</ele><time>2026-04-11T09:43:47.999Z</time></trkpt><trkpt lat="44.69589416084727" lon="9.42802620857152"><ele>1028.0</ele><time>2026-04-11T09:43:52.999Z</time></trkpt><trkpt lat="44.69576564189309" lon="9.428022662178856"><ele>1028.0</ele><time>2026-04-11T09:43:54.999Z</time></trkpt><trkpt lat="44.695658929191794" lon="9.42807670891709"><ele>1028.0</ele><time>2026-04-11T09:43:56.999Z</time></trkpt><trkpt lat="44.69573732397615" lon="9.428036993388265"><ele>1028.0</ele><time>2026-04-11T09:44:27.998Z</time></trkpt><trkpt lat="44.69580480366744" lon="9.428042017898155"><ele>1028.0</ele><time>2026-04-11T09:44:29.998Z</time></trkpt><trkpt lat="44.69590890920051" lon="9.428036668283532"><ele>1028.0</ele><time>2026-04-11T09:44:31.998Z</time></trkpt><trkpt lat="44.695947062017204" lon="9.427950837916315"><ele>1028.0</ele><time>2026-04-11T09:44:33.998Z</time></trkpt><trkpt lat="44.69594257508233" lon="9.427840135155533"><ele>1028.0</ele><time>2026-04-11T09:44:35.998Z</time></trkpt><trkpt lat="44.69587038738501" lon="9.427809150936875"><ele>1028.0</ele><time>2026-04-11T09:44:36.998Z</time></trkpt><trkpt lat="44.69578306541717" lon="9.427760857135512"><ele>1028.0</ele><time>2026-04-11T09:44:37.998Z</time></trkpt><trkpt lat="44.69570359257532" lon="9.427695850275121"><ele>1028.0</ele><time>2026-04-11T09:44:38.998Z</time></trkpt><trkpt lat="44.69561089686904" lon="9.427665083272387"><ele>1028.0</ele><time>2026-04-11T09:44:39.998Z</time></trkpt><trkpt lat="44.69552395943464" lon="9.427695880864485"><ele>1028.0</ele><time>2026-04-11T09:44:40.998Z</time></trkpt><trkpt lat="44.69544583692481" lon="9.427768983533683"><ele>1028.0</ele><time>2026-04-11T09:44:41.998Z</time></trkpt><trkpt lat="44.69538249564006" lon="9.427851110061978"><ele>1028.0</ele><time>2026-04-11T09:44:42.998Z</time></trkpt><trkpt lat="44.69536072211599" lon="9.428032816666414"><ele>1028.0</ele><time>2026-04-11T09:44:44.998Z</time></trkpt><trkpt lat="44.695348842457946" lon="9.42814943590513"><ele>1028.0</ele><time>2026-04-11T09:44:45.998Z</time></trkpt><trkpt lat="44.69531536343896" lon="9.4282508516864"><ele>1028.0</ele><time>2026-04-11T09:44:46.998Z</time></trkpt><trkpt lat="44.695233310574984" lon="9.428367576811153"><ele>1029.2</ele><time>2026-04-11T09:44:48.998Z</time></trkpt><trkpt lat="44.695187686246314" lon="9.428576122192478"><ele>1030.4</ele><time>2026-04-11T09:44:50.998Z</time></trkpt><trkpt lat="44.69514710951703" lon="9.42868443838446"><ele>1031.6000000000001</ele><time>2026-04-11T09:44:51.998Z</time></trkpt><trkpt lat="44.695120405300266" lon="9.428775212526917"><ele>1032.8</ele><time>2026-04-11T09:44:52.998Z</time></trkpt><trkpt lat="44.695091660839005" lon="9.428864690555615"><ele>1034.0</ele><time>2026-04-11T09:44:53.998Z</time></trkpt><trkpt lat="44.69505841621973" lon="9.428967450362036"><ele>1036.1666666666667</ele><time>2026-04-11T09:44:54.998Z</time></trkpt><trkpt lat="44.69504402743232" lon="9.429054596010396"><ele>1038.3333333333335</ele><time>2026-04-11T09:44:55.998Z</time></trkpt><trkpt lat="44.69511130709325" lon="9.429098709451694"><ele>1040.5</ele><time>2026-04-11T09:44:58.998Z</time></trkpt><trkpt lat="44.69519182488013" lon="9.429031773640418"><ele>1042.6666666666667</ele><time>2026-04-11T09:45:00.998Z</time></trkpt><trkpt lat="44.695297825826216" lon="9.429017002248942"><ele>1044.8333333333333</ele><time>2026-04-11T09:45:02.998Z</time></trkpt><trkpt lat="44.695361230294466" lon="9.429122803739126"><ele>1047.0</ele><time>2026-04-11T09:45:04.998Z</time></trkpt><trkpt lat="44.6953673373774" lon="9.429229160978586"><ele>1050.0</ele><time>2026-04-11T09:45:06.998Z</time></trkpt><trkpt lat="44.69534402028016" lon="9.429314448543497"><ele>1053.0</ele><time>2026-04-11T09:45:07.998Z</time></trkpt><trkpt lat="44.695362854036674" lon="9.429402719482702"><ele>1056.0</ele><time>2026-04-11T09:45:09.998Z</time></trkpt><trkpt lat="44.69539115869674" lon="9.429550493095448"><ele>1059.0</ele><time>2026-04-11T09:45:12Z</time></trkpt><trkpt lat="44.69542489326001" lon="9.429640723799164"><ele>1062.0</ele><time>2026-04-11T09:45:13Z</time></trkpt><trkpt lat="44.695447947446446" lon="9.429745603361432"><ele>1065.0</ele><time>2026-04-11T09:45:14Z</time></trkpt><trkpt lat="44.69543546960539" lon="9.429898690494246"><ele>1067.6666666666667</ele><time>2026-04-11T09:45:16Z</time></trkpt><trkpt lat="44.69544818588943" lon="9.430015409865925"><ele>1070.3333333333333</ele><time>2026-04-11T09:45:17Z</time></trkpt><trkpt lat="44.69546165428655" lon="9.430176631935304"><ele>1073.0</ele><time>2026-04-11T09:45:19Z</time></trkpt><trkpt lat="44.69547416536207" lon="9.430265458468993"><ele>1075.6666666666665</ele><time>2026-04-11T09:45:20Z</time></trkpt><trkpt lat="44.69548179064974" lon="9.430360484826638"><ele>1078.3333333333333</ele><time>2026-04-11T09:45:21Z</time></trkpt><trkpt lat="44.6955094979519" lon="9.43051666483173"><ele>1081.0</ele><time>2026-04-11T09:45:23Z</time></trkpt><trkpt lat="44.695543095809384" lon="9.430595578118087"><ele>1081.4285714285713</ele><time>2026-04-11T09:45:24Z</time></trkpt><trkpt lat="44.69558831240526" lon="9.430664495104816"><ele>1081.857142857143</ele><time>2026-04-11T09:45:25Z</time></trkpt><trkpt lat="44.695634083478545" lon="9.43072811849343"><ele>1082.2857142857142</ele><time>2026-04-11T09:45:26Z</time></trkpt><trkpt lat="44.69567545847206" lon="9.430799790383293"><ele>1082.7142857142858</ele><time>2026-04-11T09:45:27Z</time></trkpt><trkpt lat="44.69571575947859" lon="9.430882166834948"><ele>1083.142857142857</ele><time>2026-04-11T09:45:27.999Z</time></trkpt><trkpt lat="44.695773158195045" lon="9.430963073614214"><ele>1083.5714285714284</ele><time>2026-04-11T09:45:29.999Z</time></trkpt><trkpt lat="44.695796148087815" lon="9.431098371418326"><ele>1084.0</ele><time>2026-04-11T09:45:31.999Z</time></trkpt><trkpt lat="44.69580744074651" lon="9.431197488674673"><ele>1086.1666666666665</ele><time>2026-04-11T09:45:32.999Z</time></trkpt><trkpt lat="44.695812168668255" lon="9.431318687297136"><ele>1088.3333333333333</ele><time>2026-04-11T09:45:33.999Z</time></trkpt><trkpt lat="44.695816915987294" lon="9.431429014010332"><ele>1090.5</ele><time>2026-04-11T09:45:34.999Z</time></trkpt><trkpt lat="44.69582631110229" lon="9.431533994914481"><ele>1092.6666666666667</ele><time>2026-04-11T09:45:35.999Z</time></trkpt><trkpt lat="44.695822907011156" lon="9.431654254356769"><ele>1094.8333333333335</ele><time>2026-04-11T09:45:36.999Z</time></trkpt><trkpt lat="44.69580772812583" lon="9.431777301942908"><ele>1097.0</ele><time>2026-04-11T09:45:37.999Z</time></trkpt><trkpt lat="44.695772464008115" lon="9.431879451974932"><ele>1097.0</ele><time>2026-04-11T09:45:38.999Z</time></trkpt><trkpt lat="44.6957355702301" lon="9.431969766208544"><ele>1097.0</ele><time>2026-04-11T09:45:39.999Z</time></trkpt><trkpt lat="44.695703434064626" lon="9.43207419053248"><ele>1097.0</ele><time>2026-04-11T09:45:40.999Z</time></trkpt><trkpt lat="44.695658333625495" lon="9.432183781461344"><ele>1097.0</ele><time>2026-04-11T09:45:41.999Z</time></trkpt><trkpt lat="44.69559714382973" lon="9.432278638375603"><ele>1097.0</ele><time>2026-04-11T09:45:42.999Z</time></trkpt><trkpt lat="44.69554759161595" lon="9.432354511490491"><ele>1097.0</ele><time>2026-04-11T09:45:43.999Z</time></trkpt><trkpt lat="44.69550664348335" lon="9.432431074292255"><ele>1098.0</ele><time>2026-04-11T09:45:44.999Z</time></trkpt><trkpt lat="44.69544766813165" lon="9.432533910195936"><ele>1099.0</ele><time>2026-04-11T09:45:45.999Z</time></trkpt><trkpt lat="44.695384848493084" lon="9.432557995563872"><ele>1100.0</ele><time>2026-04-11T09:45:46.999Z</time></trkpt><trkpt lat="44.69528976746469" lon="9.43255769965102"><ele>1101.0</ele><time>2026-04-11T09:45:47.999Z</time></trkpt><trkpt lat="44.69521083382629" lon="9.432573237993493"><ele>1102.0</ele><time>2026-04-11T09:45:48.999Z</time></trkpt><trkpt lat="44.69514393221996" lon="9.43260284486676"><ele>1103.0</ele><time>2026-04-11T09:45:49.999Z</time></trkpt><trkpt lat="44.69509933124059" lon="9.4326664824539"><ele>1103.0</ele><time>2026-04-11T09:45:50.999Z</time></trkpt><trkpt lat="44.69504090168494" lon="9.432745915621782"><ele>1103.0</ele><time>2026-04-11T09:45:51.999Z</time></trkpt><trkpt lat="44.694967410991346" lon="9.432933977955027"><ele>1103.0</ele><time>2026-04-11T09:45:53.999Z</time></trkpt><trkpt lat="44.69492036535332" lon="9.433061329053483"><ele>1103.0</ele><time>2026-04-11T09:45:54.999Z</time></trkpt><trkpt lat="44.69486000374776" lon="9.433155476233074"><ele>1103.0</ele><time>2026-04-11T09:45:55.999Z</time></trkpt><trkpt lat="44.69479799720007" lon="9.433281452054267"><ele>1107.4</ele><time>2026-04-11T09:45:56.999Z</time></trkpt><trkpt lat="44.694748863317784" lon="9.433420826103864"><ele>1111.8</ele><time>2026-04-11T09:45:57.999Z</time></trkpt><trkpt lat="44.69472674675632" lon="9.433521181367716"><ele>1116.2</ele><time>2026-04-11T09:45:58.999Z</time></trkpt><trkpt lat="44.694692786619775" lon="9.433606820711438"><ele>1120.6</ele><time>2026-04-11T09:45:59.999Z</time></trkpt><trkpt lat="44.694619441470145" lon="9.4337188154599"><ele>1125.0</ele><time>2026-04-11T09:46:00.999Z</time></trkpt><trkpt lat="44.6945750403888" lon="9.433842043177242"><ele>1125.6666666666667</ele><time>2026-04-11T09:46:01.999Z</time></trkpt><trkpt lat="44.69458369020944" lon="9.43394715607464"><ele>1126.3333333333333</ele><time>2026-04-11T09:46:02.999Z</time></trkpt><trkpt lat="44.69458591798944" lon="9.434063071653956"><ele>1127.0</ele><time>2026-04-11T09:46:03.999Z</time></trkpt><trkpt lat="44.694604039909116" lon="9.434194366806873"><ele>1127.6666666666665</ele><time>2026-04-11T09:46:04.999Z</time></trkpt><trkpt lat="44.69463148663394" lon="9.434307084253373"><ele>1128.3333333333333</ele><time>2026-04-11T09:46:05.999Z</time></trkpt><trkpt lat="44.694678555488075" lon="9.43442168850049"><ele>1129.0</ele><time>2026-04-11T09:46:06.999Z</time></trkpt><trkpt lat="44.694718823463994" lon="9.434537238705984"><ele>1129.0</ele><time>2026-04-11T09:46:07.999Z</time></trkpt><trkpt lat="44.69470818949854" lon="9.434627183768514"><ele>1129.0</ele><time>2026-04-11T09:46:08.999Z</time></trkpt><trkpt lat="44.69460583055871" lon="9.434693985552524"><ele>1129.0</ele><time>2026-04-11T09:46:10.999Z</time></trkpt><trkpt lat="44.69454136395099" lon="9.434674295103278"><ele>1129.0</ele><time>2026-04-11T09:46:11.999Z</time></trkpt><trkpt lat="44.69446994507165" lon="9.43462400176307"><ele>1129.0</ele><time>2026-04-11T09:46:12.999Z</time></trkpt><trkpt lat="44.69439599804262" lon="9.434567306220242"><ele>1129.0</ele><time>2026-04-11T09:46:13.999Z</time></trkpt><trkpt lat="44.6943299181233" lon="9.434585774841"><ele>1128.0</ele><time>2026-04-11T09:46:14.999Z</time></trkpt><trkpt lat="44.69425415459709" lon="9.434659182143289"><ele>1127.0</ele><time>2026-04-11T09:46:15.999Z</time></trkpt><trkpt lat="44.69417951737462" lon="9.434757901332835"><ele>1126.0</ele><time>2026-04-11T09:46:16.999Z</time></trkpt><trkpt lat="44.69410702218992" lon="9.434818771579426"><ele>1125.0</ele><time>2026-04-11T09:46:17.999Z</time></trkpt><trkpt lat="44.69399521036967" lon="9.434971442195273"><ele>1124.0</ele><time>2026-04-11T09:46:19.999Z</time></trkpt><trkpt lat="44.6938985044769" lon="9.43502530673833"><ele>1124.0</ele><time>2026-04-11T09:46:20.999Z</time></trkpt><trkpt lat="44.69383188935527" lon="9.43507763440192"><ele>1124.0</ele><time>2026-04-11T09:46:21.999Z</time></trkpt><trkpt lat="44.69373469522475" lon="9.435134401407772"><ele>1124.0</ele><time>2026-04-11T09:46:23.999Z</time></trkpt><trkpt lat="44.69365186348255" lon="9.435191506238091"><ele>1124.0</ele><time>2026-04-11T09:46:24.999Z</time></trkpt><trkpt lat="44.69363560310227" lon="9.435304314797444"><ele>1124.0</ele><time>2026-04-11T09:46:25.999Z</time></trkpt><trkpt lat="44.69361357579401" lon="9.4354258732705"><ele>1124.0</ele><time>2026-04-11T09:46:26.999Z</time></trkpt><trkpt lat="44.69360587322748" lon="9.435553093075963"><ele>1124.0</ele><time>2026-04-11T09:46:27.999Z</time></trkpt><trkpt lat="44.69359777594414" lon="9.435681281032906"><ele>1124.0</ele><time>2026-04-11T09:46:28.999Z</time></trkpt><trkpt lat="44.69361428532389" lon="9.435804511260775"><ele>1124.0</ele><time>2026-04-11T09:46:29.999Z</time></trkpt><trkpt lat="44.693611089238516" lon="9.435948919330817"><ele>1124.0</ele><time>2026-04-11T09:46:30.999Z</time></trkpt><trkpt lat="44.69355238005585" lon="9.436067888489754"><ele>1124.0</ele><time>2026-04-11T09:46:31.999Z</time></trkpt><trkpt lat="44.693480624139276" lon="9.436201042797132"><ele>1126.0</ele><time>2026-04-11T09:46:32.998Z</time></trkpt><trkpt lat="44.69343069366581" lon="9.436336529904867"><ele>1128.0</ele><time>2026-04-11T09:46:33.998Z</time></trkpt><trkpt lat="44.693427009948714" lon="9.436440847866693"><ele>1130.0</ele><time>2026-04-11T09:46:34.998Z</time></trkpt><trkpt lat="44.69344817210302" lon="9.436532569008339"><ele>1132.0</ele><time>2026-04-11T09:46:35.998Z</time></trkpt><trkpt lat="44.693491871229725" lon="9.436661504555284"><ele>1134.0</ele><time>2026-04-11T09:46:36.998Z</time></trkpt><trkpt lat="44.69352954488019" lon="9.436836385302191"><ele>1134.0</ele><time>2026-04-11T09:46:37.998Z</time></trkpt><trkpt lat="44.69353266741377" lon="9.437037773076476"><ele>1134.0</ele><time>2026-04-11T09:46:38.998Z</time></trkpt><trkpt lat="44.69354005688714" lon="9.437269875467974"><ele>1134.0</ele><time>2026-04-11T09:46:39.998Z</time></trkpt><trkpt lat="44.6935745542021" lon="9.437464163733114"><ele>1135.5</ele><time>2026-04-11T09:46:40.998Z</time></trkpt><trkpt lat="44.693604350398374" lon="9.437574647444944"><ele>1137.0</ele><time>2026-04-11T09:46:41.998Z</time></trkpt><trkpt lat="44.69357833075016" lon="9.437748430687245"><ele>1138.5</ele><time>2026-04-11T09:46:43.998Z</time></trkpt><trkpt lat="44.69358163134255" lon="9.437847825866863"><ele>1140.0</ele><time>2026-04-11T09:46:44.998Z</time></trkpt><trkpt lat="44.693568329522044" lon="9.437934545327296"><ele>1141.5</ele><time>2026-04-11T09:46:46.998Z</time></trkpt><trkpt lat="44.69351506398586" lon="9.437992389250486"><ele>1143.0</ele><time>2026-04-11T09:46:47.998Z</time></trkpt><trkpt lat="44.69344746716412" lon="9.438070062062971"><ele>1144.6</ele><time>2026-04-11T09:46:48.998Z</time></trkpt><trkpt lat="44.69339278629609" lon="9.438173191838873"><ele>1146.1999999999998</ele><time>2026-04-11T09:46:49.998Z</time></trkpt><trkpt lat="44.69334923808291" lon="9.438309021632474"><ele>1147.8</ele><time>2026-04-11T09:46:50.998Z</time></trkpt><trkpt lat="44.69330986560112" lon="9.438446892383533"><ele>1149.3999999999999</ele><time>2026-04-11T09:46:51.998Z</time></trkpt><trkpt lat="44.693253067765035" lon="9.43857280583425"><ele>1151.0</ele><time>2026-04-11T09:46:52.998Z</time></trkpt><trkpt lat="44.693166673558785" lon="9.438713657781838"><ele>1152.6</ele><time>2026-04-11T09:46:53.998Z</time></trkpt><trkpt lat="44.69315677596007" lon="9.438857111980555"><ele>1154.1999999999998</ele><time>2026-04-11T09:46:54.998Z</time></trkpt><trkpt lat="44.69314353235722" lon="9.438994624371608"><ele>1155.8000000000002</ele><time>2026-04-11T09:46:55.998Z</time></trkpt><trkpt lat="44.69311197446363" lon="9.439142330030494"><ele>1157.4</ele><time>2026-04-11T09:46:56.998Z</time></trkpt><trkpt lat="44.69308085689352" lon="9.43926297665882"><ele>1159.0</ele><time>2026-04-11T09:46:57.998Z</time></trkpt><trkpt lat="44.69305155781402" lon="9.43937670542986"><ele>1159.0</ele><time>2026-04-11T09:46:58.998Z</time></trkpt><trkpt lat="44.69300287797996" lon="9.439487893564616"><ele>1159.0</ele><time>2026-04-11T09:46:59.998Z</time></trkpt><trkpt lat="44.69296660955943" lon="9.439581665781564"><ele>1159.0</ele><time>2026-04-11T09:47:00.998Z</time></trkpt><trkpt lat="44.69292277425104" lon="9.439686004334593"><ele>1159.0</ele><time>2026-04-11T09:47:01.998Z</time></trkpt><trkpt lat="44.692882293119546" lon="9.439788701964813"><ele>1159.0</ele><time>2026-04-11T09:47:02.998Z</time></trkpt><trkpt lat="44.69288051150487" lon="9.439913737383527"><ele>1159.0</ele><time>2026-04-11T09:47:03.998Z</time></trkpt><trkpt lat="44.69286839404818" lon="9.440041945868279"><ele>1158.8</ele><time>2026-04-11T09:47:04.998Z</time></trkpt><trkpt lat="44.692759127263656" lon="9.44010329332765"><ele>1158.6000000000001</ele><time>2026-04-11T09:47:06.998Z</time></trkpt><trkpt lat="44.69266252021278" lon="9.440121559914175"><ele>1158.4</ele><time>2026-04-11T09:47:07.998Z</time></trkpt><trkpt lat="44.69256161236069" lon="9.440137123883538"><ele>1158.2</ele><time>2026-04-11T09:47:08.998Z</time></trkpt><trkpt lat="44.6924476111966" lon="9.440170236505695"><ele>1158.0</ele><time>2026-04-11T09:47:09.998Z</time></trkpt><trkpt lat="44.692361275611646" lon="9.440244169446805"><ele>1158.0</ele><time>2026-04-11T09:47:10.998Z</time></trkpt><trkpt lat="44.692269775263036" lon="9.44035242706341"><ele>1158.0</ele><time>2026-04-11T09:47:11.998Z</time></trkpt><trkpt lat="44.69215184841017" lon="9.440470508627495"><ele>1158.0</ele><time>2026-04-11T09:47:12.998Z</time></trkpt><trkpt lat="44.69210531703572" lon="9.440584077756697"><ele>1158.0</ele><time>2026-04-11T09:47:14.998Z</time></trkpt><trkpt lat="44.69209268868103" lon="9.440768226005037"><ele>1161.0</ele><time>2026-04-11T09:47:16.998Z</time></trkpt><trkpt lat="44.692016803237436" lon="9.440773692382242"><ele>1164.0</ele><time>2026-04-11T09:47:20Z</time></trkpt><trkpt lat="44.69195265253203" lon="9.440752680792526"><ele>1167.0</ele><time>2026-04-11T09:47:20.999Z</time></trkpt><trkpt lat="44.69187067420351" lon="9.440692900447733"><ele>1170.0</ele><time>2026-04-11T09:47:21.999Z</time></trkpt><trkpt lat="44.69177274329963" lon="9.44066276906481"><ele>1173.0</ele><time>2026-04-11T09:47:22.999Z</time></trkpt><trkpt lat="44.6916365356434" lon="9.440666937226831"><ele>1174.2</ele><time>2026-04-11T09:47:24.999Z</time></trkpt><trkpt lat="44.69153511399542" lon="9.440747652174455"><ele>1175.4</ele><time>2026-04-11T09:47:26.999Z</time></trkpt><trkpt lat="44.691466261648515" lon="9.440902461325946"><ele>1176.6000000000001</ele><time>2026-04-11T09:47:28.999Z</time></trkpt><trkpt lat="44.691399821374176" lon="9.440999759453154"><ele>1177.8</ele><time>2026-04-11T09:47:29.999Z</time></trkpt><trkpt lat="44.69132834582998" lon="9.441104497203293"><ele>1179.0</ele><time>2026-04-11T09:47:30.999Z</time></trkpt><trkpt lat="44.69127054697202" lon="9.441212722650324"><ele>1180.5</ele><time>2026-04-11T09:47:31.999Z</time></trkpt><trkpt lat="44.691214683198105" lon="9.441350473750086"><ele>1182.0</ele><time>2026-04-11T09:47:32.999Z</time></trkpt><trkpt lat="44.69119695297071" lon="9.441454732792847"><ele>1183.5</ele><time>2026-04-11T09:47:33.999Z</time></trkpt><trkpt lat="44.69121850453931" lon="9.44154421213151"><ele>1185.0</ele><time>2026-04-11T09:47:34.999Z</time></trkpt><trkpt lat="44.69119743462924" lon="9.441653992496944"><ele>1186.5</ele><time>2026-04-11T09:47:35.999Z</time></trkpt><trkpt lat="44.69114777436327" lon="9.441725323821352"><ele>1188.0</ele><time>2026-04-11T09:47:36.999Z</time></trkpt><trkpt lat="44.69107135591093" lon="9.44178124134656"><ele>1192.0</ele><time>2026-04-11T09:47:37.999Z</time></trkpt><trkpt lat="44.69100306477545" lon="9.441861077461647"><ele>1196.0</ele><time>2026-04-11T09:47:38.999Z</time></trkpt><trkpt lat="44.69096633289457" lon="9.441959474302502"><ele>1200.0</ele><time>2026-04-11T09:47:39.999Z</time></trkpt><trkpt lat="44.69093440030165" lon="9.442092322713071"><ele>1204.0</ele><time>2026-04-11T09:47:40.999Z</time></trkpt><trkpt lat="44.69089815474571" lon="9.442210960107284"><ele>1208.0</ele><time>2026-04-11T09:47:41.999Z</time></trkpt><trkpt lat="44.690832645804434" lon="9.442303114780552"><ele>1209.1666666666667</ele><time>2026-04-11T09:47:42.999Z</time></trkpt><trkpt lat="44.69077052611219" lon="9.442346200953763"><ele>1210.3333333333335</ele><time>2026-04-11T09:47:43.999Z</time></trkpt><trkpt lat="44.69073274161118" lon="9.442418925320823"><ele>1211.5</ele><time>2026-04-11T09:47:44.999Z</time></trkpt><trkpt lat="44.69070913632071" lon="9.442524778559532"><ele>1212.6666666666667</ele><time>2026-04-11T09:47:45.999Z</time></trkpt><trkpt lat="44.690695901149866" lon="9.442646985858165"><ele>1213.8333333333333</ele><time>2026-04-11T09:47:46.999Z</time></trkpt><trkpt lat="44.69067460747512" lon="9.442785304430725"><ele>1215.0</ele><time>2026-04-11T09:47:47.999Z</time></trkpt><trkpt lat="44.69064334252336" lon="9.442935502775315"><ele>1215.6666666666667</ele><time>2026-04-11T09:47:48.999Z</time></trkpt><trkpt lat="44.690602567396006" lon="9.443077771595778"><ele>1216.3333333333333</ele><time>2026-04-11T09:47:49.999Z</time></trkpt><trkpt lat="44.69056688197189" lon="9.443183632305276"><ele>1217.0</ele><time>2026-04-11T09:47:50.999Z</time></trkpt><trkpt lat="44.69055796039214" lon="9.443278460845866"><ele>1217.6666666666665</ele><time>2026-04-11T09:47:51.999Z</time></trkpt><trkpt lat="44.690562901942776" lon="9.443429003494623"><ele>1218.3333333333333</ele><time>2026-04-11T09:47:53.999Z</time></trkpt><trkpt lat="44.69060464135479" lon="9.443519941772799"><ele>1219.0</ele><time>2026-04-11T09:47:55.999Z</time></trkpt><trkpt lat="44.69071261527049" lon="9.443639280011116"><ele>1219.0</ele><time>2026-04-11T09:47:57.999Z</time></trkpt><trkpt lat="44.690779524878536" lon="9.443727405950469"><ele>1219.0</ele><time>2026-04-11T09:47:58.999Z</time></trkpt><trkpt lat="44.69078619159935" lon="9.443871985595166"><ele>1219.0</ele><time>2026-04-11T09:48:00.999Z</time></trkpt><trkpt lat="44.69075737445408" lon="9.44398235242217"><ele>1219.0</ele><time>2026-04-11T09:48:01.999Z</time></trkpt><trkpt lat="44.690735446016014" lon="9.444102246848601"><ele>1219.0</ele><time>2026-04-11T09:48:02.999Z</time></trkpt><trkpt lat="44.69067466239041" lon="9.444214645912453"><ele>1221.0</ele><time>2026-04-11T09:48:03.999Z</time></trkpt><trkpt lat="44.690608349805586" lon="9.444251208253943"><ele>1223.0</ele><time>2026-04-11T09:48:04.999Z</time></trkpt><trkpt lat="44.69051310808329" lon="9.44429150245309"><ele>1225.0</ele><time>2026-04-11T09:48:05.999Z</time></trkpt><trkpt lat="44.690409050431754" lon="9.444342319331025"><ele>1227.0</ele><time>2026-04-11T09:48:06.999Z</time></trkpt><trkpt lat="44.6903191060037" lon="9.444411016658487"><ele>1229.0</ele><time>2026-04-11T09:48:07.999Z</time></trkpt><trkpt lat="44.69026732248596" lon="9.444481906164837"><ele>1229.0</ele><time>2026-04-11T09:48:08.999Z</time></trkpt><trkpt lat="44.690230164276144" lon="9.444563782541556"><ele>1229.0</ele><time>2026-04-11T09:48:09.999Z</time></trkpt><trkpt lat="44.69018856501112" lon="9.444667901227723"><ele>1229.0</ele><time>2026-04-11T09:48:10.999Z</time></trkpt><trkpt lat="44.69017894131908" lon="9.44475991306695"><ele>1229.0</ele><time>2026-04-11T09:48:11.999Z</time></trkpt><trkpt lat="44.690201891743214" lon="9.444857849068914"><ele>1229.0</ele><time>2026-04-11T09:48:14.999Z</time></trkpt><trkpt lat="44.690289819864354" lon="9.4448804641455"><ele>1229.0</ele><time>2026-04-11T09:48:19.999Z</time></trkpt><trkpt lat="44.69036896817444" lon="9.44488551598696"><ele>1230.8</ele><time>2026-04-11T09:48:20.999Z</time></trkpt><trkpt lat="44.69046654806501" lon="9.44490101559582"><ele>1232.6000000000001</ele><time>2026-04-11T09:48:21.999Z</time></trkpt><trkpt lat="44.690561236878445" lon="9.444921734629984"><ele>1234.4</ele><time>2026-04-11T09:48:22.999Z</time></trkpt><trkpt lat="44.690644459041025" lon="9.444956487952453"><ele>1236.2</ele><time>2026-04-11T09:48:23.999Z</time></trkpt><trkpt lat="44.69074150056527" lon="9.445016592396996"><ele>1238.0</ele><time>2026-04-11T09:48:24.999Z</time></trkpt><trkpt lat="44.69079764997222" lon="9.445079668415723"><ele>1238.0</ele><time>2026-04-11T09:48:25.999Z</time></trkpt><trkpt lat="44.6908704568187" lon="9.445165732440106"><ele>1238.0</ele><time>2026-04-11T09:48:26.999Z</time></trkpt><trkpt lat="44.69091964873323" lon="9.445244616540721"><ele>1238.0</ele><time>2026-04-11T09:48:27.999Z</time></trkpt><trkpt lat="44.69094426725906" lon="9.445339459089933"><ele>1238.0</ele><time>2026-04-11T09:48:28.999Z</time></trkpt><trkpt lat="44.69096977434778" lon="9.445455162789932"><ele>1238.0</ele><time>2026-04-11T09:48:29.999Z</time></trkpt><trkpt lat="44.69104066760264" lon="9.44553195548301"><ele>1238.0</ele><time>2026-04-11T09:48:30.999Z</time></trkpt><trkpt lat="44.69114700813866" lon="9.445614423372824"><ele>1241.6</ele><time>2026-04-11T09:48:31.999Z</time></trkpt><trkpt lat="44.69124846884021" lon="9.445681327633364"><ele>1245.1999999999998</ele><time>2026-04-11T09:48:32.999Z</time></trkpt><trkpt lat="44.691316310985655" lon="9.445760654876908"><ele>1248.8</ele><time>2026-04-11T09:48:33.999Z</time></trkpt><trkpt lat="44.691378060219165" lon="9.445826593889734"><ele>1252.3999999999999</ele><time>2026-04-11T09:48:34.999Z</time></trkpt><trkpt lat="44.6915059536867" lon="9.445882621408972"><ele>1256.0</ele><time>2026-04-11T09:48:36.999Z</time></trkpt><trkpt lat="44.69158919278705" lon="9.445915005104833"><ele>1256.0</ele><time>2026-04-11T09:48:37.999Z</time></trkpt><trkpt lat="44.69166458652558" lon="9.445989321645058"><ele>1256.0</ele><time>2026-04-11T09:48:38.999Z</time></trkpt><trkpt lat="44.69172579778156" lon="9.44607660634093"><ele>1256.0</ele><time>2026-04-11T09:48:39.999Z</time></trkpt><trkpt lat="44.691792335742626" lon="9.446142757851534"><ele>1256.0</ele><time>2026-04-11T09:48:40.999Z</time></trkpt><trkpt lat="44.69185830929511" lon="9.446203914279808"><ele>1256.0</ele><time>2026-04-11T09:48:41.998Z</time></trkpt><trkpt lat="44.691923158590654" lon="9.446246551742437"><ele>1256.0</ele><time>2026-04-11T09:48:42.998Z</time></trkpt><trkpt lat="44.691965810694846" lon="9.446321461504757"><ele>1258.2</ele><time>2026-04-11T09:48:44.998Z</time></trkpt><trkpt lat="44.692004399466846" lon="9.446455849992365"><ele>1260.3999999999999</ele><time>2026-04-11T09:48:59.998Z</time></trkpt><trkpt lat="44.69202347585533" lon="9.446562962598945"><ele>1262.6</ele><time>2026-04-11T09:49:00.998Z</time></trkpt><trkpt lat="44.692040121989166" lon="9.446679615555443"><ele>1264.8</ele><time>2026-04-11T09:49:01.998Z</time></trkpt><trkpt lat="44.692074295528016" lon="9.446837718783286"><ele>1267.0</ele><time>2026-04-11T09:49:02.998Z</time></trkpt><trkpt lat="44.69210385225977" lon="9.44692916927171"><ele>1267.0</ele><time>2026-04-11T09:49:03.998Z</time></trkpt><trkpt lat="44.692229519498724" lon="9.447039655252624"><ele>1267.0</ele><time>2026-04-11T09:49:05.998Z</time></trkpt><trkpt lat="44.69232115626154" lon="9.447141281472584"><ele>1267.0</ele><time>2026-04-11T09:49:06.998Z</time></trkpt><trkpt lat="44.69240839620386" lon="9.447255831606162"><ele>1267.0</ele><time>2026-04-11T09:49:07.998Z</time></trkpt><trkpt lat="44.692480346883755" lon="9.447340033463965"><ele>1269.4</ele><time>2026-04-11T09:49:08.998Z</time></trkpt><trkpt lat="44.692571450028346" lon="9.447392913880615"><ele>1271.8000000000002</ele><time>2026-04-11T09:49:09.998Z</time></trkpt><trkpt lat="44.69266722427284" lon="9.447471342180473"><ele>1274.2</ele><time>2026-04-11T09:49:10.998Z</time></trkpt><trkpt lat="44.692734957672" lon="9.447563852944688"><ele>1276.6000000000001</ele><time>2026-04-11T09:49:11.998Z</time></trkpt><trkpt lat="44.69280116469876" lon="9.447638812428794"><ele>1279.0</ele><time>2026-04-11T09:49:12.998Z</time></trkpt><trkpt lat="44.69286255100375" lon="9.447692872419369"><ele>1279.4</ele><time>2026-04-11T09:49:13.998Z</time></trkpt><trkpt lat="44.69294385109364" lon="9.44771990831415"><ele>1279.8000000000002</ele><time>2026-04-11T09:49:14.998Z</time></trkpt><trkpt lat="44.69306710382971" lon="9.447753675228228"><ele>1280.1999999999998</ele><time>2026-04-11T09:49:15.998Z</time></trkpt><trkpt lat="44.693163044681874" lon="9.447778132517142"><ele>1280.6</ele><time>2026-04-11T09:49:16.998Z</time></trkpt><trkpt lat="44.69324268129327" lon="9.447768959188847"><ele>1281.0</ele><time>2026-04-11T09:49:17.998Z</time></trkpt><trkpt lat="44.69334918848422" lon="9.447746370086598"><ele>1281.0</ele><time>2026-04-11T09:49:18.998Z</time></trkpt><trkpt lat="44.69348870943226" lon="9.4477283824348"><ele>1281.0</ele><time>2026-04-11T09:49:19.998Z</time></trkpt><trkpt lat="44.693613550830676" lon="9.447726231381122"><ele>1281.0</ele><time>2026-04-11T09:49:20.998Z</time></trkpt><trkpt lat="44.69370626744516" lon="9.447709919376843"><ele>1281.0</ele><time>2026-04-11T09:49:21.998Z</time></trkpt><trkpt lat="44.69380267724502" lon="9.447691872349358"><ele>1282.8</ele><time>2026-04-11T09:49:22.998Z</time></trkpt><trkpt lat="44.693895825538284" lon="9.447684413506513"><ele>1284.6</ele><time>2026-04-11T09:49:24Z</time></trkpt><trkpt lat="44.6939807009729" lon="9.447681444756444"><ele>1286.4</ele><time>2026-04-11T09:49:25Z</time></trkpt><trkpt lat="44.69410922095318" lon="9.44765223563082"><ele>1288.2</ele><time>2026-04-11T09:49:27Z</time></trkpt><trkpt lat="44.69420111832979" lon="9.447618717160195"><ele>1290.0</ele><time>2026-04-11T09:49:28Z</time></trkpt><trkpt lat="44.69433046894802" lon="9.447553829860452"><ele>1290.0</ele><time>2026-04-11T09:49:30Z</time></trkpt><trkpt lat="44.69438711221534" lon="9.447510580357216"><ele>1290.0</ele><time>2026-04-11T09:49:31Z</time></trkpt><trkpt lat="44.69443620509347" lon="9.44744264644803"><ele>1290.0</ele><time>2026-04-11T09:49:32Z</time></trkpt><trkpt lat="44.694455552577374" lon="9.447345581547065"><ele>1290.0</ele><time>2026-04-11T09:49:33Z</time></trkpt><trkpt lat="44.69446399469421" lon="9.447234908437347"><ele>1290.0</ele><time>2026-04-11T09:49:34Z</time></trkpt><trkpt lat="44.69450211378834" lon="9.44714634868074"><ele>1290.0</ele><time>2026-04-11T09:49:35Z</time></trkpt><trkpt lat="44.69455125394073" lon="9.447070388243327"><ele>1290.0</ele><time>2026-04-11T09:49:36Z</time></trkpt><trkpt lat="44.69463604467967" lon="9.446985048153051"><ele>1291.75</ele><time>2026-04-11T09:49:37Z</time></trkpt><trkpt lat="44.69475518564612" lon="9.446862385609855"><ele>1293.5</ele><time>2026-04-11T09:49:38Z</time></trkpt><trkpt lat="44.6948659198415" lon="9.446751454288124"><ele>1295.25</ele><time>2026-04-11T09:49:39Z</time></trkpt><trkpt lat="44.69493928716724" lon="9.446676942605862"><ele>1297.0</ele><time>2026-04-11T09:49:40Z</time></trkpt><trkpt lat="44.695044443671335" lon="9.446686286167216"><ele>1297.0</ele><time>2026-04-11T09:49:41.999Z</time></trkpt><trkpt lat="44.69512262482167" lon="9.446757918826785"><ele>1297.0</ele><time>2026-04-11T09:49:42.999Z</time></trkpt><trkpt lat="44.69519922425552" lon="9.446828020416195"><ele>1297.0</ele><time>2026-04-11T09:49:43.999Z</time></trkpt><trkpt lat="44.69528583173362" lon="9.446902996256407"><ele>1297.0</ele><time>2026-04-11T09:49:44.999Z</time></trkpt><trkpt lat="44.695401802204614" lon="9.446967418509933"><ele>1297.0</ele><time>2026-04-11T09:49:45.999Z</time></trkpt><trkpt lat="44.69552246344793" lon="9.447063466654926"><ele>1297.3999999999999</ele><time>2026-04-11T09:49:46.999Z</time></trkpt><trkpt lat="44.69561566788487" lon="9.447135638100365"><ele>1297.8</ele><time>2026-04-11T09:49:47.999Z</time></trkpt><trkpt lat="44.69568820350749" lon="9.44715740088318"><ele>1298.2</ele><time>2026-04-11T09:49:48.999Z</time></trkpt><trkpt lat="44.69576196385937" lon="9.447134225573242"><ele>1298.6</ele><time>2026-04-11T09:49:49.999Z</time></trkpt><trkpt lat="44.695868111433604" lon="9.447014894220294"><ele>1299.0</ele><time>2026-04-11T09:49:51.999Z</time></trkpt><trkpt lat="44.69594586971238" lon="9.446909413307043"><ele>1299.0</ele><time>2026-04-11T09:49:52.999Z</time></trkpt><trkpt lat="44.695998648822545" lon="9.446828962161671"><ele>1299.0</ele><time>2026-04-11T09:49:53.999Z</time></trkpt><trkpt lat="44.696113545209165" lon="9.446717951732394"><ele>1299.0</ele><time>2026-04-11T09:49:55.999Z</time></trkpt><trkpt lat="44.69621516038904" lon="9.446620966176578"><ele>1299.0</ele><time>2026-04-11T09:49:56.999Z</time></trkpt><trkpt lat="44.696322290715614" lon="9.446542107770746"><ele>1301.75</ele><time>2026-04-11T09:49:57.999Z</time></trkpt><trkpt lat="44.69643574757579" lon="9.44648548815275"><ele>1304.5</ele><time>2026-04-11T09:49:58.999Z</time></trkpt><trkpt lat="44.696560776179915" lon="9.446445053076202"><ele>1307.25</ele><time>2026-04-11T09:49:59.999Z</time></trkpt><trkpt lat="44.69668870538332" lon="9.446379779359788"><ele>1310.0</ele><time>2026-04-11T09:50:00.999Z</time></trkpt><trkpt lat="44.69679234922085" lon="9.446315710833728"><ele>1309.0</ele><time>2026-04-11T09:50:01.999Z</time></trkpt><trkpt lat="44.69688422875218" lon="9.446243144545747"><ele>1308.0</ele><time>2026-04-11T09:50:02.999Z</time></trkpt><trkpt lat="44.6969539770955" lon="9.4462169538788"><ele>1307.0</ele><time>2026-04-11T09:50:03.999Z</time></trkpt><trkpt lat="44.69703835214213" lon="9.446224663916915"><ele>1306.0</ele><time>2026-04-11T09:50:04.999Z</time></trkpt><trkpt lat="44.69712001998498" lon="9.446251351082669"><ele>1305.0</ele><time>2026-04-11T09:50:05.999Z</time></trkpt><trkpt lat="44.697216584263955" lon="9.446294559766333"><ele>1304.0</ele><time>2026-04-11T09:50:06.999Z</time></trkpt><trkpt lat="44.697304409599234" lon="9.446330703931466"><ele>1304.0</ele><time>2026-04-11T09:50:07.999Z</time></trkpt><trkpt lat="44.69737392227087" lon="9.44638944663034"><ele>1304.0</ele><time>2026-04-11T09:50:08.999Z</time></trkpt><trkpt lat="44.69741984914838" lon="9.446466617437846"><ele>1304.0</ele><time>2026-04-11T09:50:09.999Z</time></trkpt><trkpt lat="44.69746231162433" lon="9.446573052478223"><ele>1304.0</ele><time>2026-04-11T09:50:10.999Z</time></trkpt><trkpt lat="44.697510916171765" lon="9.44673598985134"><ele>1304.0</ele><time>2026-04-11T09:50:11.999Z</time></trkpt><trkpt lat="44.69757136295545" lon="9.446910463550623"><ele>1304.0</ele><time>2026-04-11T09:50:12.999Z</time></trkpt><trkpt lat="44.69764624769008" lon="9.447033316058054"><ele>1304.0</ele><time>2026-04-11T09:50:13.999Z</time></trkpt><trkpt lat="44.697705957780585" lon="9.447118771728173"><ele>1304.0</ele><time>2026-04-11T09:50:14.999Z</time></trkpt><trkpt lat="44.697723008460336" lon="9.44722809001934"><ele>1304.0</ele><time>2026-04-11T09:50:15.999Z</time></trkpt><trkpt lat="44.69773662678525" lon="9.447385428042871"><ele>1304.0</ele><time>2026-04-11T09:50:16.999Z</time></trkpt><trkpt lat="44.697751700781936" lon="9.447572197019985"><ele>1300.6666666666667</ele><time>2026-04-11T09:50:17.999Z</time></trkpt><trkpt lat="44.69778240089385" lon="9.447787844010538"><ele>1297.3333333333333</ele><time>2026-04-11T09:50:18.999Z</time></trkpt><trkpt lat="44.69781807019404" lon="9.448017254149523"><ele>1294.0</ele><time>2026-04-11T09:50:19.999Z</time></trkpt><trkpt lat="44.69784348438923" lon="9.448203858115312"><ele>1294.0</ele><time>2026-04-11T09:50:20.999Z</time></trkpt><trkpt lat="44.69786339437929" lon="9.448327714113148"><ele>1294.0</ele><time>2026-04-11T09:50:21.999Z</time></trkpt><trkpt lat="44.69789193561967" lon="9.44842909584151"><ele>1294.0</ele><time>2026-04-11T09:50:22.999Z</time></trkpt><trkpt lat="44.6979226118569" lon="9.448530298182758"><ele>1294.0</ele><time>2026-04-11T09:50:23.999Z</time></trkpt><trkpt lat="44.697936400278515" lon="9.448627186979603"><ele>1294.0</ele><time>2026-04-11T09:50:24.999Z</time></trkpt><trkpt lat="44.697958302174456" lon="9.448715437019874"><ele>1294.0</ele><time>2026-04-11T09:50:25.999Z</time></trkpt><trkpt lat="44.69798683639878" lon="9.448795067930288"><ele>1294.0</ele><time>2026-04-11T09:50:26.999Z</time></trkpt><trkpt lat="44.69806390775043" lon="9.448929567302274"><ele>1295.0</ele><time>2026-04-11T09:50:28.999Z</time></trkpt><trkpt lat="44.698159624985514" lon="9.448994193844609"><ele>1296.0</ele><time>2026-04-11T09:50:30.999Z</time></trkpt><trkpt lat="44.698224041156145" lon="9.448996716309239"><ele>1297.0</ele><time>2026-04-11T09:50:31.999Z</time></trkpt><trkpt lat="44.698288652386836" lon="9.448980306148862"><ele>1298.0</ele><time>2026-04-11T09:50:32.999Z</time></trkpt><trkpt lat="44.69835751457698" lon="9.448949873636108"><ele>1299.0</ele><time>2026-04-11T09:50:33.999Z</time></trkpt><trkpt lat="44.69842546174429" lon="9.448915929451898"><ele>1300.0</ele><time>2026-04-11T09:50:34.999Z</time></trkpt><trkpt lat="44.698484963795394" lon="9.448883921441057"><ele>1301.0</ele><time>2026-04-11T09:50:35.999Z</time></trkpt><trkpt lat="44.69858225096142" lon="9.448842356985377"><ele>1300.0</ele><time>2026-04-11T09:50:37.999Z</time></trkpt><trkpt lat="44.698665475283455" lon="9.44881498372065"><ele>1299.0</ele><time>2026-04-11T09:51:29.999Z</time></trkpt><trkpt lat="44.69876996359615" lon="9.448783469100102"><ele>1298.0</ele><time>2026-04-11T09:51:52.999Z</time></trkpt><trkpt lat="44.69885252199875" lon="9.448718386224751"><ele>1297.0</ele><time>2026-04-11T09:51:53.999Z</time></trkpt><trkpt lat="44.69894021208923" lon="9.448646237602807"><ele>1296.0</ele><time>2026-04-11T09:51:54.999Z</time></trkpt><trkpt lat="44.69901773268492" lon="9.448557489002056"><ele>1295.6666666666667</ele><time>2026-04-11T09:51:55.999Z</time></trkpt><trkpt lat="44.699051183808244" lon="9.44846473892774"><ele>1295.3333333333333</ele><time>2026-04-11T09:51:56.999Z</time></trkpt><trkpt lat="44.699114130045075" lon="9.448376422360868"><ele>1295.0</ele><time>2026-04-11T09:51:57.999Z</time></trkpt><trkpt lat="44.699184035517476" lon="9.44830958148845"><ele>1294.6666666666665</ele><time>2026-04-11T09:51:58.999Z</time></trkpt><trkpt lat="44.699241638766466" lon="9.448168200390315"><ele>1294.3333333333333</ele><time>2026-04-11T09:52:02.999Z</time></trkpt><trkpt lat="44.69926777299157" lon="9.448052549365753"><ele>1294.0</ele><time>2026-04-11T09:52:03.999Z</time></trkpt><trkpt lat="44.69928311089955" lon="9.447963609031854"><ele>1292.6666666666665</ele><time>2026-04-11T09:52:04.999Z</time></trkpt><trkpt lat="44.699301973388" lon="9.447809579258736"><ele>1291.3333333333333</ele><time>2026-04-11T09:52:06.999Z</time></trkpt><trkpt lat="44.699310660726425" lon="9.447653536778304"><ele>1290.0</ele><time>2026-04-11T09:52:08.999Z</time></trkpt><trkpt lat="44.69931979960084" lon="9.447560653197494"><ele>1288.6666666666667</ele><time>2026-04-11T09:52:09.999Z</time></trkpt><trkpt lat="44.69931622029598" lon="9.447454314625736"><ele>1287.3333333333335</ele><time>2026-04-11T09:52:10.999Z</time></trkpt><trkpt lat="44.69930607462132" lon="9.447360618440744"><ele>1286.0</ele><time>2026-04-11T09:52:11.999Z</time></trkpt><trkpt lat="44.69933381322672" lon="9.447236301904551"><ele>1286.0</ele><time>2026-04-11T09:52:13.999Z</time></trkpt><trkpt lat="44.699416756061574" lon="9.447193858954403"><ele>1286.0</ele><time>2026-04-11T09:52:16.999Z</time></trkpt><trkpt lat="44.69950926789137" lon="9.447215930720752"><ele>1286.0</ele><time>2026-04-11T09:52:18.999Z</time></trkpt><trkpt lat="44.69957052958004" lon="9.447243763836557"><ele>1286.0</ele><time>2026-04-11T09:52:19.999Z</time></trkpt><trkpt lat="44.699647697238014" lon="9.44728610473618"><ele>1286.0</ele><time>2026-04-11T09:52:21.999Z</time></trkpt><trkpt lat="44.699742170798075" lon="9.447269406708267"><ele>1286.0</ele><time>2026-04-11T09:52:24.999Z</time></trkpt><trkpt lat="44.699814874496724" lon="9.447197678613035"><ele>1281.8</ele><time>2026-04-11T09:52:26.999Z</time></trkpt><trkpt lat="44.699872810540825" lon="9.447098046637016"><ele>1277.6</ele><time>2026-04-11T09:52:28.999Z</time></trkpt><trkpt lat="44.69995927182497" lon="9.446992779399517"><ele>1273.4</ele><time>2026-04-11T09:52:30.999Z</time></trkpt><trkpt lat="44.70002894099339" lon="9.446876627844615"><ele>1269.2</ele><time>2026-04-11T09:52:32.999Z</time></trkpt><trkpt lat="44.70006428846451" lon="9.446734389201502"><ele>1265.0</ele><time>2026-04-11T09:52:34.999Z</time></trkpt><trkpt lat="44.70010342633834" lon="9.446595909963918"><ele>1265.0</ele><time>2026-04-11T09:52:36.999Z</time></trkpt><trkpt lat="44.70018329207468" lon="9.446486109497386"><ele>1265.0</ele><time>2026-04-11T09:52:38.999Z</time></trkpt><trkpt lat="44.70023334460052" lon="9.446408374659372"><ele>1265.0</ele><time>2026-04-11T09:52:39.999Z</time></trkpt><trkpt lat="44.70028899506509" lon="9.44634552403495"><ele>1265.0</ele><time>2026-04-11T09:52:40.999Z</time></trkpt><trkpt lat="44.70036040480075" lon="9.446300955474698"><ele>1265.0</ele><time>2026-04-11T09:52:41.999Z</time></trkpt><trkpt lat="44.70043476240253" lon="9.446267537690344"><ele>1265.0</ele><time>2026-04-11T09:52:42.999Z</time></trkpt><trkpt lat="44.70049946709183" lon="9.446241227341586"><ele>1261.3333333333335</ele><time>2026-04-11T09:52:43.999Z</time></trkpt><trkpt lat="44.700562191897404" lon="9.446212233684898"><ele>1257.6666666666667</ele><time>2026-04-11T09:52:44.999Z</time></trkpt><trkpt lat="44.70062979633163" lon="9.446188550447697"><ele>1254.0</ele><time>2026-04-11T09:52:45.999Z</time></trkpt><trkpt lat="44.700720119625956" lon="9.446125748454032"><ele>1250.3333333333333</ele><time>2026-04-11T09:52:47.998Z</time></trkpt><trkpt lat="44.70078663211827" lon="9.446063121037781"><ele>1246.6666666666665</ele><time>2026-04-11T09:52:49.998Z</time></trkpt><trkpt lat="44.70085618077522" lon="9.445976032487277"><ele>1243.0</ele><time>2026-04-11T09:52:51.998Z</time></trkpt><trkpt lat="44.700899461409385" lon="9.445874195282151"><ele>1243.0</ele><time>2026-04-11T09:52:53.998Z</time></trkpt><trkpt lat="44.70091736848356" lon="9.445786871203053"><ele>1243.0</ele><time>2026-04-11T09:52:55.998Z</time></trkpt><trkpt lat="44.700963431611264" lon="9.445714696587332"><ele>1243.0</ele><time>2026-04-11T09:52:57.998Z</time></trkpt><trkpt lat="44.7010125555701" lon="9.445628859863644"><ele>1243.0</ele><time>2026-04-11T09:53:00.998Z</time></trkpt><trkpt lat="44.70109128766763" lon="9.445575583193778"><ele>1243.0</ele><time>2026-04-11T09:53:03.998Z</time></trkpt><trkpt lat="44.70117258784391" lon="9.445531082935862"><ele>1243.0</ele><time>2026-04-11T09:53:05.998Z</time></trkpt><trkpt lat="44.70122841795861" lon="9.445474464074096"><ele>1238.2</ele><time>2026-04-11T09:53:07.998Z</time></trkpt><trkpt lat="44.701274130726524" lon="9.445339365522427"><ele>1233.4</ele><time>2026-04-11T09:53:10.998Z</time></trkpt><trkpt lat="44.701342331934725" lon="9.445335515902604"><ele>1228.6000000000001</ele><time>2026-04-11T09:53:12.998Z</time></trkpt><trkpt lat="44.701393845626306" lon="9.445435754699028"><ele>1223.8</ele><time>2026-04-11T09:53:14.998Z</time></trkpt><trkpt lat="44.70149180025854" lon="9.445487337328386"><ele>1219.0</ele><time>2026-04-11T09:53:16.998Z</time></trkpt><trkpt lat="44.701538931517696" lon="9.445593850028338"><ele>1219.0</ele><time>2026-04-11T09:53:18.998Z</time></trkpt><trkpt lat="44.70158398575872" lon="9.445697506659103"><ele>1219.0</ele><time>2026-04-11T09:53:20.998Z</time></trkpt><trkpt lat="44.701674561960935" lon="9.445764649645799"><ele>1219.0</ele><time>2026-04-11T09:53:22.998Z</time></trkpt><trkpt lat="44.70176422704253" lon="9.44585237237249"><ele>1219.0</ele><time>2026-04-11T09:53:24.998Z</time></trkpt><trkpt lat="44.70185748866019" lon="9.445907134002715"><ele>1219.0</ele><time>2026-04-11T09:53:26.998Z</time></trkpt><trkpt lat="44.70193253301503" lon="9.445834534045156"><ele>1213.6000000000001</ele><time>2026-04-11T09:54:40.999Z</time></trkpt><trkpt lat="44.7020314252712" lon="9.445782540631846"><ele>1208.2</ele><time>2026-04-11T09:54:42.999Z</time></trkpt><trkpt lat="44.702121769253615" lon="9.445730513359589"><ele>1202.8000000000002</ele><time>2026-04-11T09:54:44.999Z</time></trkpt><trkpt lat="44.70219241277539" lon="9.445684429863023"><ele>1197.4</ele><time>2026-04-11T09:54:45.999Z</time></trkpt><trkpt lat="44.70228040935104" lon="9.445631657658364"><ele>1192.0</ele><time>2026-04-11T09:54:46.999Z</time></trkpt><trkpt lat="44.70235938050404" lon="9.44556357503893"><ele>1193.2</ele><time>2026-04-11T09:54:47.999Z</time></trkpt><trkpt lat="44.70240630187665" lon="9.44545040187412"><ele>1194.4</ele><time>2026-04-11T09:54:49.998Z</time></trkpt><trkpt lat="44.70245644372153" lon="9.445360903326591"><ele>1195.6</ele><time>2026-04-11T09:54:51.998Z</time></trkpt><trkpt lat="44.70253624632175" lon="9.445238401143706"><ele>1196.8</ele><time>2026-04-11T09:54:53.998Z</time></trkpt><trkpt lat="44.702591979565916" lon="9.445145382840392"><ele>1198.0</ele><time>2026-04-11T09:54:54.998Z</time></trkpt><trkpt lat="44.70268889851416" lon="9.445087667373947"><ele>1196.0</ele><time>2026-04-11T09:54:56.998Z</time></trkpt><trkpt lat="44.70275445772282" lon="9.445057033623982"><ele>1194.0</ele><time>2026-04-11T09:54:57.998Z</time></trkpt><trkpt lat="44.70282162207343" lon="9.445048717613636"><ele>1192.0</ele><time>2026-04-11T09:54:58.998Z</time></trkpt><trkpt lat="44.702919763309424" lon="9.445001290147959"><ele>1190.0</ele><time>2026-04-11T09:55:00.998Z</time></trkpt><trkpt lat="44.70299762731804" lon="9.44493317760815"><ele>1188.0</ele><time>2026-04-11T09:55:02.998Z</time></trkpt><trkpt lat="44.7030966411988" lon="9.44487650990367"><ele>1186.0</ele><time>2026-04-11T09:55:04.998Z</time></trkpt><trkpt lat="44.70318567297955" lon="9.444854573812634"><ele>1186.0</ele><time>2026-04-11T09:55:06.998Z</time></trkpt><trkpt lat="44.703265979595855" lon="9.444813536595843"><ele>1186.0</ele><time>2026-04-11T09:55:08.998Z</time></trkpt><trkpt lat="44.703335712951244" lon="9.444725834255678"><ele>1186.0</ele><time>2026-04-11T09:55:11.998Z</time></trkpt><trkpt lat="44.70338464300105" lon="9.444619471979088"><ele>1186.0</ele><time>2026-04-11T09:55:13.998Z</time></trkpt><trkpt lat="44.703365835040145" lon="9.44449240850422"><ele>1186.0</ele><time>2026-04-11T09:55:15.998Z</time></trkpt><trkpt lat="44.703336668877036" lon="9.444399788219144"><ele>1186.0</ele><time>2026-04-11T09:55:17.998Z</time></trkpt><trkpt lat="44.703292934974236" lon="9.44430890241044"><ele>1185.0</ele><time>2026-04-11T09:55:24.998Z</time></trkpt><trkpt lat="44.703244711041876" lon="9.444212172070328"><ele>1184.0</ele><time>2026-04-11T09:55:25.998Z</time></trkpt><trkpt lat="44.70315646562449" lon="9.444123528055503"><ele>1183.0</ele><time>2026-04-11T09:55:27.998Z</time></trkpt><trkpt lat="44.70311692540002" lon="9.444046112615224"><ele>1182.0</ele><time>2026-04-11T09:55:29.998Z</time></trkpt><trkpt lat="44.70316873308388" lon="9.444137383671087"><ele>1181.0</ele><time>2026-04-11T09:55:45.999Z</time></trkpt><trkpt lat="44.703240923405545" lon="9.444208184431142"><ele>1180.0</ele><time>2026-04-11T09:55:46.999Z</time></trkpt><trkpt lat="44.70331235635436" lon="9.444292062771256"><ele>1180.0</ele><time>2026-04-11T09:55:47.999Z</time></trkpt><trkpt lat="44.70334697585149" lon="9.444371463796237"><ele>1180.0</ele><time>2026-04-11T09:55:48.999Z</time></trkpt><trkpt lat="44.70341168749652" lon="9.444468231372515"><ele>1180.0</ele><time>2026-04-11T09:55:50.999Z</time></trkpt><trkpt lat="44.70345164204434" lon="9.444602574122836"><ele>1180.0</ele><time>2026-04-11T09:55:52.999Z</time></trkpt><trkpt lat="44.70345122979199" lon="9.444712174015491"><ele>1180.0</ele><time>2026-04-11T09:55:53.999Z</time></trkpt><trkpt lat="44.703453938334384" lon="9.444816125962621"><ele>1180.0</ele><time>2026-04-11T09:55:54.999Z</time></trkpt><trkpt lat="44.70349100508547" lon="9.44489346141126"><ele>1181.2</ele><time>2026-04-11T09:55:55.999Z</time></trkpt><trkpt lat="44.703568590913" lon="9.444940764936838"><ele>1182.4</ele><time>2026-04-11T09:55:56.999Z</time></trkpt><trkpt lat="44.70363506547726" lon="9.444962296257762"><ele>1183.6</ele><time>2026-04-11T09:55:57.999Z</time></trkpt><trkpt lat="44.70373809117028" lon="9.444988453227314"><ele>1184.8</ele><time>2026-04-11T09:55:59.999Z</time></trkpt><trkpt lat="44.703821976165706" lon="9.445075262953466"><ele>1186.0</ele><time>2026-04-11T09:56:01.999Z</time></trkpt><trkpt lat="44.70392440383833" lon="9.445098158797915"><ele>1180.3333333333333</ele><time>2026-04-11T09:56:03.999Z</time></trkpt><trkpt lat="44.7040029929951" lon="9.445070767996974"><ele>1174.6666666666665</ele><time>2026-04-11T09:56:05.999Z</time></trkpt><trkpt lat="44.704073986574286" lon="9.445100775497925"><ele>1169.0</ele><time>2026-04-11T09:56:28.999Z</time></trkpt><trkpt lat="44.704156976952056" lon="9.445095347544498"><ele>1163.3333333333333</ele><time>2026-04-11T09:56:30.999Z</time></trkpt><trkpt lat="44.7042317583664" lon="9.445086918840131"><ele>1157.6666666666667</ele><time>2026-04-11T09:56:32.999Z</time></trkpt><trkpt lat="44.70431007167142" lon="9.445172977274956"><ele>1152.0</ele><time>2026-04-11T09:56:35.999Z</time></trkpt><trkpt lat="44.70440872070081" lon="9.445097576736815"><ele>1148.1666666666667</ele><time>2026-04-11T09:56:37.999Z</time></trkpt><trkpt lat="44.70449759020171" lon="9.445112308106768"><ele>1144.3333333333333</ele><time>2026-04-11T09:56:39.999Z</time></trkpt><trkpt lat="44.704562639612" lon="9.445065239881917"><ele>1140.5</ele><time>2026-04-11T09:56:42.999Z</time></trkpt><trkpt lat="44.70467359042287" lon="9.445012809718504"><ele>1136.6666666666665</ele><time>2026-04-11T09:56:44.999Z</time></trkpt><trkpt lat="44.704751349099695" lon="9.445006744817997"><ele>1132.8333333333333</ele><time>2026-04-11T09:56:45.998Z</time></trkpt><trkpt lat="44.70481671121879" lon="9.444975646752695"><ele>1129.0</ele><time>2026-04-11T09:56:46.998Z</time></trkpt><trkpt lat="44.70488406721529" lon="9.444948562617043"><ele>1129.0</ele><time>2026-04-11T09:56:47.998Z</time></trkpt><trkpt lat="44.70500423620751" lon="9.44497396912392"><ele>1129.0</ele><time>2026-04-11T09:56:49.998Z</time></trkpt><trkpt lat="44.70507428846225" lon="9.44496769041027"><ele>1129.0</ele><time>2026-04-11T09:56:50.998Z</time></trkpt><trkpt lat="44.70514225971083" lon="9.444950135496608"><ele>1129.0</ele><time>2026-04-11T09:56:51.998Z</time></trkpt><trkpt lat="44.70520897346473" lon="9.44493764600427"><ele>1129.0</ele><time>2026-04-11T09:56:52.998Z</time></trkpt><trkpt lat="44.70527687416276" lon="9.44490813988326"><ele>1129.0</ele><time>2026-04-11T09:56:53.998Z</time></trkpt><trkpt lat="44.70534487112868" lon="9.444864427067854"><ele>1126.6666666666665</ele><time>2026-04-11T09:56:54.998Z</time></trkpt><trkpt lat="44.70541813628936" lon="9.444842519242686"><ele>1124.3333333333333</ele><time>2026-04-11T09:56:55.998Z</time></trkpt><trkpt lat="44.705488956366224" lon="9.444830081226355"><ele>1122.0</ele><time>2026-04-11T09:56:56.998Z</time></trkpt><trkpt lat="44.70555662218397" lon="9.444788694324123"><ele>1119.6666666666667</ele><time>2026-04-11T09:56:57.998Z</time></trkpt><trkpt lat="44.705618808644054" lon="9.444714986763117"><ele>1117.3333333333335</ele><time>2026-04-11T09:56:58.998Z</time></trkpt><trkpt lat="44.70567082037571" lon="9.444632643632868"><ele>1115.0</ele><time>2026-04-11T09:56:59.998Z</time></trkpt><trkpt lat="44.705718434943826" lon="9.444556367565355"><ele>1115.0</ele><time>2026-04-11T09:57:00.998Z</time></trkpt><trkpt lat="44.705762123666204" lon="9.444483054302061"><ele>1115.0</ele><time>2026-04-11T09:57:01.998Z</time></trkpt><trkpt lat="44.70585113381745" lon="9.444360252555494"><ele>1115.0</ele><time>2026-04-11T09:57:03.998Z</time></trkpt><trkpt lat="44.70587747852382" lon="9.444264592061863"><ele>1115.0</ele><time>2026-04-11T09:57:04.998Z</time></trkpt><trkpt lat="44.7058958472659" lon="9.444171030228638"><ele>1115.0</ele><time>2026-04-11T09:57:05.998Z</time></trkpt><trkpt lat="44.70593528862749" lon="9.444084500148834"><ele>1115.0</ele><time>2026-04-11T09:57:06.998Z</time></trkpt><trkpt lat="44.70598683350902" lon="9.443999440503518"><ele>1115.0</ele><time>2026-04-11T09:57:07.998Z</time></trkpt><trkpt lat="44.70602485219726" lon="9.44391141106562"><ele>1115.0</ele><time>2026-04-11T09:57:08.998Z</time></trkpt><trkpt lat="44.70604746916038" lon="9.443814365109011"><ele>1115.0</ele><time>2026-04-11T09:57:09.998Z</time></trkpt><trkpt lat="44.70608363890474" lon="9.443719815266473"><ele>1115.0</ele><time>2026-04-11T09:57:10.998Z</time></trkpt><trkpt lat="44.7061391384412" lon="9.443630477962932"><ele>1115.0</ele><time>2026-04-11T09:57:11.998Z</time></trkpt><trkpt lat="44.70619585488124" lon="9.443550772790255"><ele>1115.0</ele><time>2026-04-11T09:57:12.998Z</time></trkpt><trkpt lat="44.70625818372334" lon="9.44347277455693"><ele>1112.0</ele><time>2026-04-11T09:57:13.998Z</time></trkpt><trkpt lat="44.70631649397349" lon="9.443406236211818"><ele>1109.0</ele><time>2026-04-11T09:57:14.998Z</time></trkpt><trkpt lat="44.70637145180289" lon="9.443335735582277"><ele>1106.0</ele><time>2026-04-11T09:57:15.998Z</time></trkpt><trkpt lat="44.70643651038801" lon="9.443271134118211"><ele>1103.0</ele><time>2026-04-11T09:57:16.998Z</time></trkpt><trkpt lat="44.706496471535374" lon="9.443217336901427"><ele>1100.0</ele><time>2026-04-11T09:57:17.998Z</time></trkpt><trkpt lat="44.70657807026735" lon="9.443083768090807"><ele>1097.0</ele><time>2026-04-11T09:57:19.998Z</time></trkpt><trkpt lat="44.706638293600754" lon="9.443000755796882"><ele>1093.6666666666667</ele><time>2026-04-11T09:57:20.998Z</time></trkpt><trkpt lat="44.70670738157278" lon="9.44291470287124"><ele>1090.3333333333335</ele><time>2026-04-11T09:57:21.998Z</time></trkpt><trkpt lat="44.70677186316272" lon="9.442840605612247"><ele>1087.0</ele><time>2026-04-11T09:57:22.998Z</time></trkpt><trkpt lat="44.706836662860006" lon="9.442794125158272"><ele>1083.6666666666667</ele><time>2026-04-11T09:57:23.998Z</time></trkpt><trkpt lat="44.706949970589875" lon="9.442735282633164"><ele>1080.3333333333333</ele><time>2026-04-11T09:57:25.998Z</time></trkpt><trkpt lat="44.70700938337069" lon="9.4426981663967"><ele>1077.0</ele><time>2026-04-11T09:57:26.998Z</time></trkpt><trkpt lat="44.707091465530226" lon="9.442691411940094"><ele>1075.2</ele><time>2026-04-11T09:57:27.998Z</time></trkpt><trkpt lat="44.70718457945057" lon="9.442644057391176"><ele>1073.4</ele><time>2026-04-11T09:57:28.998Z</time></trkpt><trkpt lat="44.707247886471684" lon="9.442547614181022"><ele>1071.6</ele><time>2026-04-11T09:57:29.998Z</time></trkpt><trkpt lat="44.707334430229835" lon="9.442445351965619"><ele>1069.8</ele><time>2026-04-11T09:57:30.998Z</time></trkpt><trkpt lat="44.70745948121244" lon="9.442348121359796"><ele>1068.0</ele><time>2026-04-11T09:57:31.998Z</time></trkpt><trkpt lat="44.70758943842544" lon="9.442240118846442"><ele>1068.0</ele><time>2026-04-11T09:57:32.998Z</time></trkpt><trkpt lat="44.70772086516332" lon="9.442146650230912"><ele>1068.0</ele><time>2026-04-11T09:57:33.998Z</time></trkpt><trkpt lat="44.70784113995994" lon="9.442086698130192"><ele>1068.0</ele><time>2026-04-11T09:57:34.998Z</time></trkpt><trkpt lat="44.70794678973684" lon="9.44204161853918"><ele>1068.0</ele><time>2026-04-11T09:57:35.998Z</time></trkpt><trkpt lat="44.7080382312538" lon="9.442005071713494"><ele>1067.8</ele><time>2026-04-11T09:57:36.998Z</time></trkpt><trkpt lat="44.70812271625556" lon="9.441963677923578"><ele>1067.6</ele><time>2026-04-11T09:57:37.998Z</time></trkpt><trkpt lat="44.708191950199456" lon="9.441917881381304"><ele>1067.4</ele><time>2026-04-11T09:57:38.998Z</time></trkpt><trkpt lat="44.708228812441526" lon="9.441812216252035"><ele>1067.2</ele><time>2026-04-11T09:57:39.998Z</time></trkpt><trkpt lat="44.708270632470644" lon="9.441683445142667"><ele>1067.0</ele><time>2026-04-11T09:57:40.998Z</time></trkpt><trkpt lat="44.708337242075174" lon="9.441571017599548"><ele>1067.0</ele><time>2026-04-11T09:57:41.998Z</time></trkpt><trkpt lat="44.70843193159726" lon="9.44146533468596"><ele>1067.0</ele><time>2026-04-11T09:57:42.998Z</time></trkpt><trkpt lat="44.70851309430288" lon="9.441354199731835"><ele>1067.0</ele><time>2026-04-11T09:57:43.998Z</time></trkpt><trkpt lat="44.70859754756125" lon="9.441241471515852"><ele>1067.0</ele><time>2026-04-11T09:57:44.998Z</time></trkpt><trkpt lat="44.708700224975" lon="9.441119633333455"><ele>1064.25</ele><time>2026-04-11T09:57:45.998Z</time></trkpt><trkpt lat="44.70875883037375" lon="9.441010431752922"><ele>1061.5</ele><time>2026-04-11T09:57:46.999Z</time></trkpt><trkpt lat="44.708823859995576" lon="9.440863459268606"><ele>1058.75</ele><time>2026-04-11T09:57:47.999Z</time></trkpt><trkpt lat="44.70888769712655" lon="9.44072354242761"><ele>1056.0</ele><time>2026-04-11T09:57:48.999Z</time></trkpt><trkpt lat="44.70895564511967" lon="9.440569412846408"><ele>1056.25</ele><time>2026-04-11T09:57:49.999Z</time></trkpt><trkpt lat="44.70900486435303" lon="9.440413279649029"><ele>1056.5</ele><time>2026-04-11T09:57:50.999Z</time></trkpt><trkpt lat="44.70903404562921" lon="9.440224951386574"><ele>1056.75</ele><time>2026-04-11T09:57:51.999Z</time></trkpt><trkpt lat="44.70906511618466" lon="9.440050425791933"><ele>1057.0</ele><time>2026-04-11T09:57:52.999Z</time></trkpt><trkpt lat="44.70911509718493" lon="9.439902349174922"><ele>1057.0</ele><time>2026-04-11T09:57:53.999Z</time></trkpt><trkpt lat="44.709173550554866" lon="9.439766110303111"><ele>1057.0</ele><time>2026-04-11T09:57:54.999Z</time></trkpt><trkpt lat="44.70922796331021" lon="9.439641809802252"><ele>1057.0</ele><time>2026-04-11T09:57:55.999Z</time></trkpt><trkpt lat="44.709256562451294" lon="9.439545853972954"><ele>1057.0</ele><time>2026-04-11T09:57:56.999Z</time></trkpt><trkpt lat="44.7092793864382" lon="9.439338760740197"><ele>1057.0</ele><time>2026-04-11T09:57:58.999Z</time></trkpt><trkpt lat="44.70931631293349" lon="9.439217017348389"><ele>1056.6</ele><time>2026-04-11T09:57:59.999Z</time></trkpt><trkpt lat="44.709358918754326" lon="9.439106060941905"><ele>1056.2</ele><time>2026-04-11T09:58:00.999Z</time></trkpt><trkpt lat="44.70937299457834" lon="9.438999245125121"><ele>1055.8</ele><time>2026-04-11T09:58:01.999Z</time></trkpt><trkpt lat="44.709389991565295" lon="9.438903156978451"><ele>1055.4</ele><time>2026-04-11T09:58:02.999Z</time></trkpt><trkpt lat="44.70949212565456" lon="9.438783706664035"><ele>1055.0</ele><time>2026-04-11T09:58:04.999Z</time></trkpt><trkpt lat="44.709581197429856" lon="9.438756598599314"><ele>1053.2</ele><time>2026-04-11T09:58:05.999Z</time></trkpt><trkpt lat="44.70967568079682" lon="9.438699341980133"><ele>1051.4</ele><time>2026-04-11T09:58:06.999Z</time></trkpt><trkpt lat="44.709749140914745" lon="9.438588990898294"><ele>1049.6</ele><time>2026-04-11T09:58:07.999Z</time></trkpt><trkpt lat="44.70976774685293" lon="9.438472504900428"><ele>1047.8</ele><time>2026-04-11T09:58:08.999Z</time></trkpt><trkpt lat="44.70979160878472" lon="9.43835559042463"><ele>1046.0</ele><time>2026-04-11T09:58:09.999Z</time></trkpt><trkpt lat="44.709811459250425" lon="9.438204652713269"><ele>1046.0</ele><time>2026-04-11T09:58:10.999Z</time></trkpt><trkpt lat="44.70981791073661" lon="9.438069990558994"><ele>1046.0</ele><time>2026-04-11T09:58:11.999Z</time></trkpt><trkpt lat="44.70984672698525" lon="9.437975953449822"><ele>1046.0</ele><time>2026-04-11T09:58:12.999Z</time></trkpt><trkpt lat="44.70991199368088" lon="9.437855209546663"><ele>1046.0</ele><time>2026-04-11T09:58:13.999Z</time></trkpt><trkpt lat="44.709977915829334" lon="9.43770644739515"><ele>1046.0</ele><time>2026-04-11T09:58:14.999Z</time></trkpt><trkpt lat="44.71003921312878" lon="9.437580010353201"><ele>1044.6</ele><time>2026-04-11T09:58:15.999Z</time></trkpt><trkpt lat="44.710103171250225" lon="9.437459463717216"><ele>1043.1999999999998</ele><time>2026-04-11T09:58:16.999Z</time></trkpt><trkpt lat="44.71017803065322" lon="9.437364505757088"><ele>1041.8000000000002</ele><time>2026-04-11T09:58:17.999Z</time></trkpt><trkpt lat="44.71024074080041" lon="9.43727189265948"><ele>1040.4</ele><time>2026-04-11T09:58:18.999Z</time></trkpt><trkpt lat="44.71027223073685" lon="9.437191692611766"><ele>1039.0</ele><time>2026-04-11T09:58:19.999Z</time></trkpt><trkpt lat="44.71032726829453" lon="9.437071917148712"><ele>1039.0</ele><time>2026-04-11T09:58:20.999Z</time></trkpt><trkpt lat="44.7103762729763" lon="9.436938823630053"><ele>1039.0</ele><time>2026-04-11T09:58:21.999Z</time></trkpt><trkpt lat="44.710427610507736" lon="9.436810003050375"><ele>1039.0</ele><time>2026-04-11T09:58:22.999Z</time></trkpt><trkpt lat="44.71047651661954" lon="9.436675365891949"><ele>1039.0</ele><time>2026-04-11T09:58:23.999Z</time></trkpt><trkpt lat="44.71053906272877" lon="9.436517657507064"><ele>1039.0</ele><time>2026-04-11T09:58:24.999Z</time></trkpt><trkpt lat="44.71061024368288" lon="9.436409917983346"><ele>1043.0</ele><time>2026-04-11T09:58:25.999Z</time></trkpt><trkpt lat="44.7106751638244" lon="9.436290916077134"><ele>1047.0</ele><time>2026-04-11T09:58:26.999Z</time></trkpt><trkpt lat="44.710735166894544" lon="9.436169163028493"><ele>1051.0</ele><time>2026-04-11T09:58:27.999Z</time></trkpt><trkpt lat="44.710791656264085" lon="9.43605359361283"><ele>1055.0</ele><time>2026-04-11T09:58:28.999Z</time></trkpt><trkpt lat="44.71086143073987" lon="9.435946556648277"><ele>1059.0</ele><time>2026-04-11T09:58:29.999Z</time></trkpt><trkpt lat="44.71092220844699" lon="9.43582926064539"><ele>1059.0</ele><time>2026-04-11T09:58:30.999Z</time></trkpt><trkpt lat="44.710985525506224" lon="9.435716741082599"><ele>1059.0</ele><time>2026-04-11T09:58:31.999Z</time></trkpt><trkpt lat="44.71104784817704" lon="9.43560734569308"><ele>1059.0</ele><time>2026-04-11T09:58:32.999Z</time></trkpt><trkpt lat="44.71110298069785" lon="9.435507000151917"><ele>1059.0</ele><time>2026-04-11T09:58:33.999Z</time></trkpt><trkpt lat="44.71115339304363" lon="9.435405090339167"><ele>1059.0</ele><time>2026-04-11T09:58:34.999Z</time></trkpt><trkpt lat="44.71119495565744" lon="9.435298815896887"><ele>1054.6666666666667</ele><time>2026-04-11T09:58:35.999Z</time></trkpt><trkpt lat="44.7112075528179" lon="9.435189945706755"><ele>1050.3333333333333</ele><time>2026-04-11T09:58:36.999Z</time></trkpt><trkpt lat="44.71119387705054" lon="9.435051877118035"><ele>1046.0</ele><time>2026-04-11T09:58:37.999Z</time></trkpt><trkpt lat="44.71117792653249" lon="9.434920034316528"><ele>1041.6666666666665</ele><time>2026-04-11T09:58:38.999Z</time></trkpt><trkpt lat="44.71118892693446" lon="9.434781009770584"><ele>1037.3333333333333</ele><time>2026-04-11T09:58:39.999Z</time></trkpt><trkpt lat="44.71121116482133" lon="9.434684950985778"><ele>1033.0</ele><time>2026-04-11T09:58:40.999Z</time></trkpt><trkpt lat="44.711248350027134" lon="9.434609690199753"><ele>1033.0</ele><time>2026-04-11T09:58:41.999Z</time></trkpt><trkpt lat="44.71128691587071" lon="9.434485244823318"><ele>1033.0</ele><time>2026-04-11T09:58:43.999Z</time></trkpt><trkpt lat="44.711325143303085" lon="9.434406236486316"><ele>1033.0</ele><time>2026-04-11T09:58:44.999Z</time></trkpt><trkpt lat="44.711368994163905" lon="9.434281674707055"><ele>1033.0</ele><time>2026-04-11T09:58:46.999Z</time></trkpt><trkpt lat="44.71138772893132" lon="9.434193143351655"><ele>1033.0</ele><time>2026-04-11T09:58:47.999Z</time></trkpt><trkpt lat="44.711428262447" lon="9.43402948106251"><ele>1033.0</ele><time>2026-04-11T09:58:49.999Z</time></trkpt><trkpt lat="44.7114769469603" lon="9.433871735583478"><ele>1033.0</ele><time>2026-04-11T09:58:51.999Z</time></trkpt><trkpt lat="44.71154099737437" lon="9.433736520500789"><ele>1033.0</ele><time>2026-04-11T09:58:53.999Z</time></trkpt><trkpt lat="44.71159886222356" lon="9.433607268795832"><ele>1033.0</ele><time>2026-04-11T09:58:55.999Z</time></trkpt><trkpt lat="44.71163362447416" lon="9.433524154042814"><ele>1033.0</ele><time>2026-04-11T09:58:56.999Z</time></trkpt><trkpt lat="44.7116735712057" lon="9.43342621754627"><ele>1033.1666666666665</ele><time>2026-04-11T09:58:57.999Z</time></trkpt><trkpt lat="44.71172597457116" lon="9.433338272762885"><ele>1033.3333333333333</ele><time>2026-04-11T09:58:58.999Z</time></trkpt><trkpt lat="44.71177265165188" lon="9.43324625569158"><ele>1033.5</ele><time>2026-04-11T09:58:59.999Z</time></trkpt><trkpt lat="44.711790466172474" lon="9.4331525258297"><ele>1033.6666666666667</ele><time>2026-04-11T09:59:00.999Z</time></trkpt><trkpt lat="44.711789001572505" lon="9.433029671249919"><ele>1033.8333333333335</ele><time>2026-04-11T09:59:01.999Z</time></trkpt><trkpt lat="44.711806327836996" lon="9.432928350236173"><ele>1034.0</ele><time>2026-04-11T09:59:02.998Z</time></trkpt><trkpt lat="44.71185716686436" lon="9.43281674679423"><ele>1033.5</ele><time>2026-04-11T09:59:03.998Z</time></trkpt><trkpt lat="44.7119061273909" lon="9.432705107699164"><ele>1033.0</ele><time>2026-04-11T09:59:04.998Z</time></trkpt><trkpt lat="44.71194608541094" lon="9.432626882755233"><ele>1032.5</ele><time>2026-04-11T09:59:05.998Z</time></trkpt><trkpt lat="44.711981831465565" lon="9.432552592077725"><ele>1032.0</ele><time>2026-04-11T09:59:06.998Z</time></trkpt><trkpt lat="44.71201990303207" lon="9.432460226741478"><ele>1031.5</ele><time>2026-04-11T09:59:07.998Z</time></trkpt><trkpt lat="44.71206521097211" lon="9.432360011152298"><ele>1031.0</ele><time>2026-04-11T09:59:08.998Z</time></trkpt><trkpt lat="44.712105888554746" lon="9.432262489423328"><ele>1027.1666666666667</ele><time>2026-04-11T09:59:09.998Z</time></trkpt><trkpt lat="44.71215403296821" lon="9.432142187601801"><ele>1023.3333333333334</ele><time>2026-04-11T09:59:10.998Z</time></trkpt><trkpt lat="44.7121972470065" lon="9.432047639861148"><ele>1019.5</ele><time>2026-04-11T09:59:11.998Z</time></trkpt><trkpt lat="44.71228103016948" lon="9.431915057686076"><ele>1015.6666666666667</ele><time>2026-04-11T09:59:13.998Z</time></trkpt><trkpt lat="44.712324418104195" lon="9.431838383192762"><ele>1011.8333333333334</ele><time>2026-04-11T09:59:14.998Z</time></trkpt><trkpt lat="44.71235641193655" lon="9.431760363504885"><ele>1008.0</ele><time>2026-04-11T09:59:15.998Z</time></trkpt><trkpt lat="44.71239943025176" lon="9.431572528353044"><ele>1008.0</ele><time>2026-04-11T09:59:17.998Z</time></trkpt><trkpt lat="44.712444516322726" lon="9.431468836028541"><ele>1008.0</ele><time>2026-04-11T09:59:18.998Z</time></trkpt><trkpt lat="44.71248371432525" lon="9.43137493224632"><ele>1008.0</ele><time>2026-04-11T09:59:19.998Z</time></trkpt><trkpt lat="44.7125338261663" lon="9.431270025153344"><ele>1008.0</ele><time>2026-04-11T09:59:20.998Z</time></trkpt><trkpt lat="44.712570423154176" lon="9.431188884588313"><ele>1008.0</ele><time>2026-04-11T09:59:21.998Z</time></trkpt><trkpt lat="44.71279286825234" lon="9.431089652216993"><ele>1000.5</ele><time>2026-04-11T09:59:23.998Z</time></trkpt><trkpt lat="44.71281128839509" lon="9.430993610405869"><ele>993.0</ele><time>2026-04-11T09:59:24.998Z</time></trkpt><trkpt lat="44.71282840406552" lon="9.430866544024928"><ele>985.5</ele><time>2026-04-11T09:59:25.998Z</time></trkpt><trkpt lat="44.71283642913583" lon="9.430755846843276"><ele>978.0</ele><time>2026-04-11T09:59:26.998Z</time></trkpt><trkpt lat="44.71282928256137" lon="9.430641630145342"><ele>970.5</ele><time>2026-04-11T09:59:27.998Z</time></trkpt><trkpt lat="44.7128407382527" lon="9.430549985358835"><ele>963.0</ele><time>2026-04-11T09:59:28.998Z</time></trkpt><trkpt lat="44.71285579945369" lon="9.430453127378911"><ele>963.0</ele><time>2026-04-11T09:59:29.998Z</time></trkpt><trkpt lat="44.71288156486356" lon="9.43031581624495"><ele>963.0</ele><time>2026-04-11T09:59:31.998Z</time></trkpt><trkpt lat="44.71292742239068" lon="9.430158785567851"><ele>963.0</ele><time>2026-04-11T09:59:33.998Z</time></trkpt><trkpt lat="44.71295436637726" lon="9.430076322159119"><ele>963.0</ele><time>2026-04-11T09:59:34.998Z</time></trkpt><trkpt lat="44.71299099482879" lon="9.429949507297396"><ele>963.0</ele><time>2026-04-11T09:59:35.998Z</time></trkpt><trkpt lat="44.713031361446525" lon="9.429823547092022"><ele>963.0</ele><time>2026-04-11T09:59:36.998Z</time></trkpt><trkpt lat="44.713086668342676" lon="9.429704044088156"><ele>963.0</ele><time>2026-04-11T09:59:37.998Z</time></trkpt><trkpt lat="44.71310869268379" lon="9.429576066223401"><ele>963.0</ele><time>2026-04-11T09:59:38.998Z</time></trkpt><trkpt lat="44.71305710174254" lon="9.429448045053345"><ele>963.0</ele><time>2026-04-11T09:59:39.998Z</time></trkpt><trkpt lat="44.71301699539692" lon="9.429334601352476"><ele>963.0</ele><time>2026-04-11T09:59:40.998Z</time></trkpt><trkpt lat="44.7129672174668" lon="9.429212942461529"><ele>964.4</ele><time>2026-04-11T09:59:41.998Z</time></trkpt><trkpt lat="44.71293542225655" lon="9.4290866722416"><ele>965.8</ele><time>2026-04-11T09:59:42.998Z</time></trkpt><trkpt lat="44.712933158680045" lon="9.428962734200693"><ele>967.2</ele><time>2026-04-11T09:59:43.998Z</time></trkpt><trkpt lat="44.712974451993695" lon="9.428833481341654"><ele>968.6</ele><time>2026-04-11T09:59:44.998Z</time></trkpt><trkpt lat="44.713028190287915" lon="9.428698455803898"><ele>970.0</ele><time>2026-04-11T09:59:45.998Z</time></trkpt><trkpt lat="44.71308734560723" lon="9.428551944391408"><ele>970.5</ele><time>2026-04-11T09:59:46.998Z</time></trkpt><trkpt lat="44.71315224470189" lon="9.428392824413944"><ele>971.0</ele><time>2026-04-11T09:59:47.998Z</time></trkpt><trkpt lat="44.71321385491077" lon="9.428222401325746"><ele>971.5</ele><time>2026-04-11T09:59:48.998Z</time></trkpt><trkpt lat="44.7132736828152" lon="9.428026834016961"><ele>972.0</ele><time>2026-04-11T09:59:49.998Z</time></trkpt><trkpt lat="44.71332042616368" lon="9.427818020796533"><ele>972.0</ele><time>2026-04-11T09:59:50.998Z</time></trkpt><trkpt lat="44.7133551517054" lon="9.427592416329727"><ele>972.0</ele><time>2026-04-11T09:59:51.998Z</time></trkpt><trkpt lat="44.7133885776401" lon="9.427357335505528"><ele>972.0</ele><time>2026-04-11T09:59:52.999Z</time></trkpt><trkpt lat="44.71342622938574" lon="9.4271232776535"><ele>973.0</ele><time>2026-04-11T09:59:53.999Z</time></trkpt><trkpt lat="44.71346958226211" lon="9.426910967720442"><ele>974.0</ele><time>2026-04-11T09:59:54.999Z</time></trkpt><trkpt lat="44.713504135984195" lon="9.426708761689548"><ele>975.0</ele><time>2026-04-11T09:59:55.999Z</time></trkpt><trkpt lat="44.71354105455636" lon="9.426543867469686"><ele>976.0</ele><time>2026-04-11T09:59:56.999Z</time></trkpt><trkpt lat="44.71359576420454" lon="9.426409454629448"><ele>972.5</ele><time>2026-04-11T09:59:57.999Z</time></trkpt><trkpt lat="44.71370241709257" lon="9.426317216138694"><ele>969.0</ele><time>2026-04-11T09:59:58.999Z</time></trkpt><trkpt lat="44.71377745406689" lon="9.426167724632718"><ele>965.5</ele><time>2026-04-11T09:59:59.999Z</time></trkpt><trkpt lat="44.71387748558072" lon="9.426024579540751"><ele>962.0</ele><time>2026-04-11T10:00:00.999Z</time></trkpt><trkpt lat="44.71396796405917" lon="9.425845339765978"><ele>962.0</ele><time>2026-04-11T10:00:01.999Z</time></trkpt><trkpt lat="44.714038201911166" lon="9.425648694042803"><ele>962.0</ele><time>2026-04-11T10:00:02.999Z</time></trkpt><trkpt lat="44.714109186577566" lon="9.42547214969601"><ele>962.0</ele><time>2026-04-11T10:00:03.999Z</time></trkpt><trkpt lat="44.71417361159847" lon="9.42527130252369"><ele>962.0</ele><time>2026-04-11T10:00:04.999Z</time></trkpt><trkpt lat="44.71424952278776" lon="9.425097094081808"><ele>962.0</ele><time>2026-04-11T10:00:05.999Z</time></trkpt><trkpt lat="44.71431497112674" lon="9.424912290601272"><ele>962.0</ele><time>2026-04-11T10:00:06.999Z</time></trkpt><trkpt lat="44.71438700814007" lon="9.42470856180605"><ele>957.0</ele><time>2026-04-11T10:00:07.999Z</time></trkpt><trkpt lat="44.7144326061398" lon="9.4245052898933"><ele>952.0</ele><time>2026-04-11T10:00:08.999Z</time></trkpt><trkpt lat="44.714493230512076" lon="9.424320780104509"><ele>947.0</ele><time>2026-04-11T10:00:09.999Z</time></trkpt><trkpt lat="44.71454225454186" lon="9.424108440168277"><ele>947.0</ele><time>2026-04-11T10:00:10.999Z</time></trkpt><trkpt lat="44.71460613620545" lon="9.42391066922613"><ele>947.0</ele><time>2026-04-11T10:00:11.999Z</time></trkpt><trkpt lat="44.71463864352965" lon="9.423722961352164"><ele>947.0</ele><time>2026-04-11T10:00:12.999Z</time></trkpt><trkpt lat="44.7147113812159" lon="9.423553979479605"><ele>947.0</ele><time>2026-04-11T10:00:13.999Z</time></trkpt><trkpt lat="44.71478379308412" lon="9.42340790837245"><ele>948.5</ele><time>2026-04-11T10:00:14.999Z</time></trkpt><trkpt lat="44.71488145646643" lon="9.42330001572717"><ele>950.0</ele><time>2026-04-11T10:00:15.999Z</time></trkpt><trkpt lat="44.714975557249076" lon="9.423168188511577"><ele>951.5</ele><time>2026-04-11T10:00:16.999Z</time></trkpt><trkpt lat="44.71507045060567" lon="9.423004436742106"><ele>953.0</ele><time>2026-04-11T10:00:17.999Z</time></trkpt><trkpt lat="44.71518150110624" lon="9.422877080556523"><ele>952.0</ele><time>2026-04-11T10:00:18.999Z</time></trkpt><trkpt lat="44.71529722826776" lon="9.422777300674305"><ele>951.0</ele><time>2026-04-11T10:00:19.999Z</time></trkpt><trkpt lat="44.71540921086037" lon="9.422640220910013"><ele>950.0</ele><time>2026-04-11T10:00:20.999Z</time></trkpt><trkpt lat="44.71551970708382" lon="9.422492251111464"><ele>949.0</ele><time>2026-04-11T10:00:21.999Z</time></trkpt><trkpt lat="44.71560607565032" lon="9.422348230244577"><ele>949.0</ele><time>2026-04-11T10:00:22.999Z</time></trkpt><trkpt lat="44.71570108177327" lon="9.422200232839598"><ele>949.0</ele><time>2026-04-11T10:00:23.999Z</time></trkpt><trkpt lat="44.71579264899562" lon="9.42203733501074"><ele>949.0</ele><time>2026-04-11T10:00:24.999Z</time></trkpt><trkpt lat="44.71590431369553" lon="9.4218934673627"><ele>949.0</ele><time>2026-04-11T10:00:25.999Z</time></trkpt><trkpt lat="44.71600114198059" lon="9.421733587477092"><ele>949.25</ele><time>2026-04-11T10:00:26.999Z</time></trkpt><trkpt lat="44.71607412181602" lon="9.421564033780658"><ele>949.5</ele><time>2026-04-11T10:00:27.999Z</time></trkpt><trkpt lat="44.716150568880906" lon="9.421419677344733"><ele>949.75</ele><time>2026-04-11T10:00:28.999Z</time></trkpt><trkpt lat="44.71622213027089" lon="9.4212717223894"><ele>950.0</ele><time>2026-04-11T10:00:29.999Z</time></trkpt><trkpt lat="44.71632074477706" lon="9.421148336795127"><ele>950.0</ele><time>2026-04-11T10:00:30.999Z</time></trkpt><trkpt lat="44.716424515101735" lon="9.421040270754343"><ele>950.0</ele><time>2026-04-11T10:00:31.999Z</time></trkpt><trkpt lat="44.71654323434718" lon="9.420951053409384"><ele>950.0</ele><time>2026-04-11T10:00:32.999Z</time></trkpt><trkpt lat="44.71666853398569" lon="9.42084227917947"><ele>950.0</ele><time>2026-04-11T10:00:33.999Z</time></trkpt><trkpt lat="44.716754411191474" lon="9.420720574201344"><ele>950.0</ele><time>2026-04-11T10:00:34.999Z</time></trkpt><trkpt lat="44.71682645370692" lon="9.42060840417748"><ele>950.0</ele><time>2026-04-11T10:00:35.999Z</time></trkpt><trkpt lat="44.716898027288984" lon="9.420531464909356"><ele>950.0</ele><time>2026-04-11T10:00:36.999Z</time></trkpt><trkpt lat="44.716874997598026" lon="9.420249248784746"><ele>950.0</ele><time>2026-04-11T10:00:37.999Z</time></trkpt><trkpt lat="44.71692086989125" lon="9.420057770248224"><ele>952.6666666666667</ele><time>2026-04-11T10:00:38.999Z</time></trkpt><trkpt lat="44.716974988803564" lon="9.419832304502236"><ele>955.3333333333333</ele><time>2026-04-11T10:00:39.999Z</time></trkpt><trkpt lat="44.71701340112513" lon="9.419595615662958"><ele>958.0</ele><time>2026-04-11T10:00:40.999Z</time></trkpt><trkpt lat="44.71703600915016" lon="9.41943825485247"><ele>958.2</ele><time>2026-04-11T10:00:41.999Z</time></trkpt><trkpt lat="44.71705721741773" lon="9.419295674871014"><ele>958.4</ele><time>2026-04-11T10:00:42.999Z</time></trkpt><trkpt lat="44.71708428703429" lon="9.419148726151606"><ele>958.6000000000001</ele><time>2026-04-11T10:00:43.999Z</time></trkpt><trkpt lat="44.71712034191965" lon="9.419019336070594"><ele>958.8000000000001</ele><time>2026-04-11T10:00:44.999Z</time></trkpt><trkpt lat="44.71717809111416" lon="9.418890282699536"><ele>959.0</ele><time>2026-04-11T10:00:45.999Z</time></trkpt><trkpt lat="44.71725035881733" lon="9.418752156666626"><ele>957.75</ele><time>2026-04-11T10:00:46.999Z</time></trkpt><trkpt lat="44.71733236298477" lon="9.418612757702578"><ele>956.5</ele><time>2026-04-11T10:00:47.999Z</time></trkpt><trkpt lat="44.71741537195606" lon="9.41850538197115"><ele>955.25</ele><time>2026-04-11T10:00:48.999Z</time></trkpt><trkpt lat="44.71752043797638" lon="9.418393530227942"><ele>954.0</ele><time>2026-04-11T10:00:49.999Z</time></trkpt><trkpt lat="44.71763893524152" lon="9.418292230188309"><ele>952.75</ele><time>2026-04-11T10:00:50.999Z</time></trkpt><trkpt lat="44.717767898432726" lon="9.41820297837483"><ele>951.5</ele><time>2026-04-11T10:00:51.999Z</time></trkpt><trkpt lat="44.71789827200955" lon="9.4181307949597"><ele>950.25</ele><time>2026-04-11T10:00:52.999Z</time></trkpt><trkpt lat="44.71802330089968" lon="9.418044820171538"><ele>949.0</ele><time>2026-04-11T10:00:53.999Z</time></trkpt><trkpt lat="44.718138548151934" lon="9.417936212465447"><ele>949.0</ele><time>2026-04-11T10:00:54.999Z</time></trkpt><trkpt lat="44.718258565925225" lon="9.417850046729747"><ele>949.0</ele><time>2026-04-11T10:00:55.999Z</time></trkpt><trkpt lat="44.71837624003969" lon="9.417731198961672"><ele>949.0</ele><time>2026-04-11T10:00:56.999Z</time></trkpt><trkpt lat="44.71848608807908" lon="9.417570596449043"><ele>949.0</ele><time>2026-04-11T10:00:57.999Z</time></trkpt><trkpt lat="44.7185957616778" lon="9.417400593270166"><ele>950.3333333333333</ele><time>2026-04-11T10:00:58.999Z</time></trkpt><trkpt lat="44.718728207523114" lon="9.417259098322335"><ele>951.6666666666667</ele><time>2026-04-11T10:00:59.999Z</time></trkpt><trkpt lat="44.718845808806535" lon="9.417094679917474"><ele>953.0</ele><time>2026-04-11T10:01:00.999Z</time></trkpt><trkpt lat="44.718957776408" lon="9.416921848963744"><ele>953.0</ele><time>2026-04-11T10:01:01.999Z</time></trkpt><trkpt lat="44.719063759815405" lon="9.41673851137599"><ele>953.0</ele><time>2026-04-11T10:01:02.999Z</time></trkpt><trkpt lat="44.71919495024629" lon="9.416613388463041"><ele>953.0</ele><time>2026-04-11T10:01:03.999Z</time></trkpt><trkpt lat="44.71933079903491" lon="9.4164660794123"><ele>955.0</ele><time>2026-04-11T10:01:04.999Z</time></trkpt><trkpt lat="44.71945467641092" lon="9.416315440858083"><ele>957.0</ele><time>2026-04-11T10:01:05.999Z</time></trkpt><trkpt lat="44.71957393063004" lon="9.41617342741224"><ele>959.0</ele><time>2026-04-11T10:01:06.999Z</time></trkpt><trkpt lat="44.71969863055276" lon="9.416039432676497"><ele>959.0</ele><time>2026-04-11T10:01:07.999Z</time></trkpt><trkpt lat="44.71981390194967" lon="9.415945549365375"><ele>959.0</ele><time>2026-04-11T10:01:08.999Z</time></trkpt><trkpt lat="44.71991572760266" lon="9.4158332859569"><ele>959.0</ele><time>2026-04-11T10:01:09.999Z</time></trkpt><trkpt lat="44.71999743918534" lon="9.415708772172415"><ele>959.0</ele><time>2026-04-11T10:01:10.999Z</time></trkpt><trkpt lat="44.72007949194673" lon="9.415584800599849"><ele>962.0</ele><time>2026-04-11T10:01:11.999Z</time></trkpt><trkpt lat="44.7201494280062" lon="9.415431831552066"><ele>965.0</ele><time>2026-04-11T10:01:12.999Z</time></trkpt><trkpt lat="44.7202575219358" lon="9.415277838516458"><ele>968.0</ele><time>2026-04-11T10:01:13.999Z</time></trkpt><trkpt lat="44.72033064877382" lon="9.415086050532338"><ele>971.0</ele><time>2026-04-11T10:01:14.999Z</time></trkpt><trkpt lat="44.72037743170362" lon="9.414877043417988"><ele>964.0</ele><time>2026-04-11T10:01:15.999Z</time></trkpt><trkpt lat="44.720436905879026" lon="9.414707176001116"><ele>957.0</ele><time>2026-04-11T10:01:16.999Z</time></trkpt><trkpt lat="44.72049054909323" lon="9.414551448529522"><ele>950.0</ele><time>2026-04-11T10:01:17.999Z</time></trkpt><trkpt lat="44.72053424178951" lon="9.414406867825743"><ele>943.0</ele><time>2026-04-11T10:01:18.999Z</time></trkpt><trkpt lat="44.720559724317134" lon="9.41425107461176"><ele>943.0</ele><time>2026-04-11T10:01:19.999Z</time></trkpt><trkpt lat="44.72054951383131" lon="9.414103745782892"><ele>943.0</ele><time>2026-04-11T10:01:20.998Z</time></trkpt><trkpt lat="44.72050092632262" lon="9.413958722098622"><ele>943.0</ele><time>2026-04-11T10:01:21.998Z</time></trkpt><trkpt lat="44.72042517164997" lon="9.413813060290222"><ele>943.0</ele><time>2026-04-11T10:01:22.998Z</time></trkpt><trkpt lat="44.72034459947579" lon="9.413641371004301"><ele>941.5</ele><time>2026-04-11T10:01:23.998Z</time></trkpt><trkpt lat="44.72027272946724" lon="9.413456429631884"><ele>940.0</ele><time>2026-04-11T10:01:24.998Z</time></trkpt><trkpt lat="44.720217553543854" lon="9.413282892324924"><ele>938.5</ele><time>2026-04-11T10:01:25.998Z</time></trkpt><trkpt lat="44.72016829912538" lon="9.413131741130666"><ele>937.0</ele><time>2026-04-11T10:01:26.998Z</time></trkpt><trkpt lat="44.72017507622624" lon="9.41298787870207"><ele>935.0</ele><time>2026-04-11T10:01:27.998Z</time></trkpt><trkpt lat="44.720202967905976" lon="9.41285835573991"><ele>933.0</ele><time>2026-04-11T10:01:28.998Z</time></trkpt><trkpt lat="44.72024192146529" lon="9.412717672089553"><ele>931.0</ele><time>2026-04-11T10:01:29.998Z</time></trkpt><trkpt lat="44.72027413884361" lon="9.412573690691309"><ele>929.0</ele><time>2026-04-11T10:01:30.998Z</time></trkpt><trkpt lat="44.72028152048701" lon="9.412415866211097"><ele>927.0</ele><time>2026-04-11T10:01:31.998Z</time></trkpt><trkpt lat="44.72029503008613" lon="9.412258884936959"><ele>927.8</ele><time>2026-04-11T10:01:32.998Z</time></trkpt><trkpt lat="44.72034632983992" lon="9.412136080820789"><ele>928.6</ele><time>2026-04-11T10:01:33.998Z</time></trkpt><trkpt lat="44.72039043530629" lon="9.412022996534223"><ele>929.3999999999999</ele><time>2026-04-11T10:01:34.998Z</time></trkpt><trkpt lat="44.720460850716094" lon="9.41195149500328"><ele>930.1999999999999</ele><time>2026-04-11T10:01:35.998Z</time></trkpt><trkpt lat="44.72051148308554" lon="9.411859295255889"><ele>931.0</ele><time>2026-04-11T10:01:36.998Z</time></trkpt><trkpt lat="44.720541714803815" lon="9.411724791494713"><ele>930.9999999999999</ele><time>2026-04-11T10:01:37.998Z</time></trkpt><trkpt lat="44.72056156839574" lon="9.411603607646088"><ele>931.0</ele><time>2026-04-11T10:01:38.998Z</time></trkpt><trkpt lat="44.72056123288585" lon="9.41147981303944"><ele>931.0</ele><time>2026-04-11T10:01:39.998Z</time></trkpt><trkpt lat="44.7205932035263" lon="9.411393402856156"><ele>931.0</ele><time>2026-04-11T10:01:40.998Z</time></trkpt><trkpt lat="44.720654560903284" lon="9.411364485678716"><ele>930.9999999999999</ele><time>2026-04-11T10:01:41.998Z</time></trkpt><trkpt lat="44.72071368912529" lon="9.4114544922534"><ele>931.0</ele><time>2026-04-11T10:01:43.998Z</time></trkpt><trkpt lat="44.720711100308556" lon="9.411556208075258"><ele>931.0</ele><time>2026-04-11T10:01:44.998Z</time></trkpt><trkpt lat="44.720695653246295" lon="9.411690327152971"><ele>930.9999999999999</ele><time>2026-04-11T10:01:45.998Z</time></trkpt><trkpt lat="44.72067995465347" lon="9.41185616647262"><ele>930.9999999999999</ele><time>2026-04-11T10:01:46.998Z</time></trkpt><trkpt lat="44.720661399242545" lon="9.412027182627277"><ele>931.0</ele><time>2026-04-11T10:01:47.998Z</time></trkpt><trkpt lat="44.720642264002514" lon="9.412170983871734"><ele>931.0</ele><time>2026-04-11T10:01:48.998Z</time></trkpt><trkpt lat="44.72063499070353" lon="9.41232580950515"><ele>930.1999999999999</ele><time>2026-04-11T10:01:49.998Z</time></trkpt><trkpt lat="44.72063259996466" lon="9.412499183494784"><ele>929.3999999999999</ele><time>2026-04-11T10:01:50.998Z</time></trkpt><trkpt lat="44.72068048346181" lon="9.412640056863664"><ele>928.6</ele><time>2026-04-11T10:01:51.998Z</time></trkpt><trkpt lat="44.72074234732491" lon="9.412764840654548"><ele>927.8</ele><time>2026-04-11T10:01:52.998Z</time></trkpt><trkpt lat="44.72077868263376" lon="9.412881480296667"><ele>927.0</ele><time>2026-04-11T10:01:53.998Z</time></trkpt><trkpt lat="44.720870035236615" lon="9.412937316746111"><ele>927.0</ele><time>2026-04-11T10:01:55.998Z</time></trkpt><trkpt lat="44.72096273269297" lon="9.41295766009979"><ele>927.0</ele><time>2026-04-11T10:01:56.998Z</time></trkpt><trkpt lat="44.721067682182934" lon="9.412940523555323"><ele>927.0</ele><time>2026-04-11T10:01:57.998Z</time></trkpt><trkpt lat="44.72116917028755" lon="9.412888816621258"><ele>927.0</ele><time>2026-04-11T10:01:58.999Z</time></trkpt><trkpt lat="44.72122932838649" lon="9.41285816828164"><ele>927.0</ele><time>2026-04-11T10:01:59.999Z</time></trkpt><trkpt lat="44.721293589917046" lon="9.412836680320076"><ele>927.0</ele><time>2026-04-11T10:02:00.999Z</time></trkpt><trkpt lat="44.721376687954866" lon="9.41282112323979"><ele>924.0</ele><time>2026-04-11T10:02:01.999Z</time></trkpt><trkpt lat="44.7214684236214" lon="9.412808502112439"><ele>921.0</ele><time>2026-04-11T10:02:02.999Z</time></trkpt><trkpt lat="44.72158317977731" lon="9.412791843030043"><ele>918.0</ele><time>2026-04-11T10:02:03.999Z</time></trkpt><trkpt lat="44.72170088966386" lon="9.41277317845356"><ele>915.0</ele><time>2026-04-11T10:02:04.999Z</time></trkpt><trkpt lat="44.72182323952348" lon="9.412750514528"><ele>912.0</ele><time>2026-04-11T10:02:05.999Z</time></trkpt><trkpt lat="44.72192974507733" lon="9.41272762510855"><ele>907.8</ele><time>2026-04-11T10:02:06.999Z</time></trkpt><trkpt lat="44.72203472305672" lon="9.412707755645343"><ele>903.6</ele><time>2026-04-11T10:02:07.999Z</time></trkpt><trkpt lat="44.722134705649275" lon="9.412694889870188"><ele>899.3999999999999</ele><time>2026-04-11T10:02:08.999Z</time></trkpt><trkpt lat="44.72220381914315" lon="9.412708381219957"><ele>895.1999999999999</ele><time>2026-04-11T10:02:09.999Z</time></trkpt><trkpt lat="44.72229162497027" lon="9.412810997975543"><ele>891.0</ele><time>2026-04-11T10:02:11.999Z</time></trkpt><trkpt lat="44.7223585211789" lon="9.4129278702141"><ele>894.5</ele><time>2026-04-11T10:02:12.999Z</time></trkpt><trkpt lat="44.72244342042087" lon="9.413054758981183"><ele>898.0</ele><time>2026-04-11T10:02:13.999Z</time></trkpt><trkpt lat="44.72250060565939" lon="9.413196665942927"><ele>901.5</ele><time>2026-04-11T10:02:14.999Z</time></trkpt><trkpt lat="44.722577276504154" lon="9.413323869669872"><ele>905.0</ele><time>2026-04-11T10:02:15.999Z</time></trkpt><trkpt lat="44.7226611939733" lon="9.413428276256376"><ele>899.0</ele><time>2026-04-11T10:02:16.999Z</time></trkpt><trkpt lat="44.7227646859872" lon="9.413517190150191"><ele>893.0</ele><time>2026-04-11T10:02:17.999Z</time></trkpt><trkpt lat="44.72287078406107" lon="9.413582004781544"><ele>887.0</ele><time>2026-04-11T10:02:18.999Z</time></trkpt><trkpt lat="44.72299200531506" lon="9.413590221240145"><ele>881.0</ele><time>2026-04-11T10:02:19.999Z</time></trkpt><trkpt lat="44.72310127843607" lon="9.413590911772333"><ele>881.0</ele><time>2026-04-11T10:02:20.999Z</time></trkpt><trkpt lat="44.72320047104411" lon="9.413596834496749"><ele>880.9999999999999</ele><time>2026-04-11T10:02:21.999Z</time></trkpt><trkpt lat="44.72328869836696" lon="9.413538265187176"><ele>880.9999999999999</ele><time>2026-04-11T10:02:22.999Z</time></trkpt><trkpt lat="44.72336614085298" lon="9.413462439592218"><ele>881.0</ele><time>2026-04-11T10:02:23.999Z</time></trkpt><trkpt lat="44.72346368582612" lon="9.413379224611452"><ele>881.0</ele><time>2026-04-11T10:02:24.999Z</time></trkpt><trkpt lat="44.723570162667095" lon="9.413281976615737"><ele>879.75</ele><time>2026-04-11T10:02:25.999Z</time></trkpt><trkpt lat="44.723684905267056" lon="9.41318040125696"><ele>878.5</ele><time>2026-04-11T10:02:26.999Z</time></trkpt><trkpt lat="44.7237963338653" lon="9.413081417185454"><ele>877.25</ele><time>2026-04-11T10:02:27.999Z</time></trkpt><trkpt lat="44.72389103499278" lon="9.412995193966932"><ele>876.0</ele><time>2026-04-11T10:02:28.999Z</time></trkpt><trkpt lat="44.72398570823736" lon="9.412914324276988"><ele>875.0</ele><time>2026-04-11T10:02:29.999Z</time></trkpt><trkpt lat="44.724097370461706" lon="9.412831908141111"><ele>874.0</ele><time>2026-04-11T10:02:30.999Z</time></trkpt><trkpt lat="44.7242255106395" lon="9.41274494639199"><ele>873.0</ele><time>2026-04-11T10:02:31.999Z</time></trkpt><trkpt lat="44.7243524734184" lon="9.412670008495002"><ele>872.0</ele><time>2026-04-11T10:02:32.999Z</time></trkpt><trkpt lat="44.72448241549724" lon="9.412601877517071"><ele>872.0</ele><time>2026-04-11T10:02:33.999Z</time></trkpt><trkpt lat="44.72462022558063" lon="9.412532644888739"><ele>872.0</ele><time>2026-04-11T10:02:34.999Z</time></trkpt><trkpt lat="44.72474606774594" lon="9.412473738635862"><ele>872.0</ele><time>2026-04-11T10:02:35.999Z</time></trkpt><trkpt lat="44.72487251736627" lon="9.412396388690068"><ele>872.0</ele><time>2026-04-11T10:02:36.999Z</time></trkpt><trkpt lat="44.72499277748869" lon="9.412311685658919"><ele>872.0</ele><time>2026-04-11T10:02:37.999Z</time></trkpt><trkpt lat="44.725106692288875" lon="9.412230274062061"><ele>872.0</ele><time>2026-04-11T10:02:38.999Z</time></trkpt><trkpt lat="44.725215040062054" lon="9.412151239020368"><ele>872.0</ele><time>2026-04-11T10:02:39.999Z</time></trkpt><trkpt lat="44.72530742262705" lon="9.412085506213241"><ele>872.0</ele><time>2026-04-11T10:02:40.999Z</time></trkpt><trkpt lat="44.72539985738115" lon="9.412040888830715"><ele>869.4000000000001</ele><time>2026-04-11T10:02:41.999Z</time></trkpt><trkpt lat="44.72550509028462" lon="9.412002774760664"><ele>866.8000000000001</ele><time>2026-04-11T10:02:42.999Z</time></trkpt><trkpt lat="44.725614655784405" lon="9.41197058100022"><ele>864.2</ele><time>2026-04-11T10:02:43.999Z</time></trkpt><trkpt lat="44.725721966555284" lon="9.411969498485693"><ele>861.6</ele><time>2026-04-11T10:02:44.999Z</time></trkpt><trkpt lat="44.72582832528718" lon="9.411977373376244"><ele>859.0</ele><time>2026-04-11T10:02:45.999Z</time></trkpt><trkpt lat="44.72591925133524" lon="9.411988229484143"><ele>858.9999999999999</ele><time>2026-04-11T10:02:46.999Z</time></trkpt><trkpt lat="44.72600183755858" lon="9.41198207076073"><ele>859.0</ele><time>2026-04-11T10:02:47.999Z</time></trkpt><trkpt lat="44.726063289461564" lon="9.411928583845262"><ele>859.0</ele><time>2026-04-11T10:02:48.999Z</time></trkpt><trkpt lat="44.72608568708124" lon="9.411841153773178"><ele>859.0</ele><time>2026-04-11T10:02:49.999Z</time></trkpt><trkpt lat="44.72608473704485" lon="9.411749699036918"><ele>858.9999999999999</ele><time>2026-04-11T10:02:50.999Z</time></trkpt><trkpt lat="44.726034639980206" lon="9.411672654518801"><ele>859.0</ele><time>2026-04-11T10:02:51.999Z</time></trkpt><trkpt lat="44.72603085538656" lon="9.411497665459343"><ele>859.0</ele><time>2026-04-11T10:02:53.999Z</time></trkpt><trkpt lat="44.72603938328711" lon="9.41137832165501"><ele>859.0000000000001</ele><time>2026-04-11T10:02:54.999Z</time></trkpt><trkpt lat="44.726067049162474" lon="9.411262962885935"><ele>859.0000000000001</ele><time>2026-04-11T10:02:55.999Z</time></trkpt><trkpt lat="44.72611467058909" lon="9.411135067029734"><ele>859.0</ele><time>2026-04-11T10:02:56.999Z</time></trkpt><trkpt lat="44.72617855594207" lon="9.411062256765964"><ele>859.0</ele><time>2026-04-11T10:02:57.999Z</time></trkpt><trkpt lat="44.726246816569926" lon="9.410959190971367"><ele>858.4000000000001</ele><time>2026-04-11T10:02:58.999Z</time></trkpt><trkpt lat="44.726337861821335" lon="9.41083300124279"><ele>857.8000000000001</ele><time>2026-04-11T10:02:59.999Z</time></trkpt><trkpt lat="44.72642741543072" lon="9.41073389604094"><ele>857.1999999999999</ele><time>2026-04-11T10:03:00.999Z</time></trkpt><trkpt lat="44.72651114620102" lon="9.4106676258288"><ele>856.5999999999999</ele><time>2026-04-11T10:03:01.999Z</time></trkpt><trkpt lat="44.726596116312095" lon="9.410630667171727"><ele>856.0</ele><time>2026-04-11T10:03:02.999Z</time></trkpt><trkpt lat="44.72669886487507" lon="9.410628708089899"><ele>856.0</ele><time>2026-04-11T10:03:03.999Z</time></trkpt><trkpt lat="44.72677097498618" lon="9.410646085802096"><ele>855.9999999999999</ele><time>2026-04-11T10:03:04.999Z</time></trkpt><trkpt lat="44.726904109383646" lon="9.4107520322274"><ele>855.9999999999999</ele><time>2026-04-11T10:03:06.999Z</time></trkpt><trkpt lat="44.72700637586197" lon="9.41082429169227"><ele>856.0</ele><time>2026-04-11T10:03:07.999Z</time></trkpt><trkpt lat="44.727099902772075" lon="9.410879804607859"><ele>856.0</ele><time>2026-04-11T10:03:08.999Z</time></trkpt><trkpt lat="44.72719079719239" lon="9.410856241949787"><ele>852.1999999999999</ele><time>2026-04-11T10:03:09.999Z</time></trkpt><trkpt lat="44.72726668602554" lon="9.410863791254167"><ele>848.3999999999999</ele><time>2026-04-11T10:03:10.999Z</time></trkpt><trkpt lat="44.727356086227125" lon="9.41078088264313"><ele>844.6</ele><time>2026-04-11T10:03:11.999Z</time></trkpt><trkpt lat="44.72743984807004" lon="9.410667784639879"><ele>840.8</ele><time>2026-04-11T10:03:12.999Z</time></trkpt><trkpt lat="44.72755612241243" lon="9.410594310457371"><ele>837.0</ele><time>2026-04-11T10:03:13.999Z</time></trkpt><trkpt lat="44.72765942205379" lon="9.410477182428489"><ele>832.2</ele><time>2026-04-11T10:03:14.999Z</time></trkpt><trkpt lat="44.727733784842414" lon="9.410339936455026"><ele>827.4000000000001</ele><time>2026-04-11T10:03:15.999Z</time></trkpt><trkpt lat="44.727797513958876" lon="9.410213835578377"><ele>822.5999999999999</ele><time>2026-04-11T10:03:16.999Z</time></trkpt><trkpt lat="44.7278413938567" lon="9.410087489890671"><ele>817.8</ele><time>2026-04-11T10:03:17.999Z</time></trkpt><trkpt lat="44.72786768040177" lon="9.409943127200798"><ele>813.0</ele><time>2026-04-11T10:03:18.999Z</time></trkpt><trkpt lat="44.727899598136375" lon="9.409824191296622"><ele>813.0</ele><time>2026-04-11T10:03:19.999Z</time></trkpt><trkpt lat="44.72793975194206" lon="9.409694190713937"><ele>813.0</ele><time>2026-04-11T10:03:21.999Z</time></trkpt><trkpt lat="44.727934585041424" lon="9.409822697816411"><ele>813.0</ele><time>2026-04-11T10:03:25.999Z</time></trkpt><trkpt lat="44.72791609991396" lon="9.409916236465692"><ele>813.0</ele><time>2026-04-11T10:03:26.999Z</time></trkpt><trkpt lat="44.72793135386614" lon="9.410047178873198"><ele>813.0</ele><time>2026-04-11T10:03:28.999Z</time></trkpt><trkpt lat="44.72793106671138" lon="9.410159377784026"><ele>813.0</ele><time>2026-04-11T10:03:30.999Z</time></trkpt><trkpt lat="44.72795655730926" lon="9.410252292252647"><ele>813.0</ele><time>2026-04-11T10:03:36.998Z</time></trkpt><trkpt lat="44.72796000189519" lon="9.410371100513359"><ele>813.0</ele><time>2026-04-11T10:03:39.998Z</time></trkpt><trkpt lat="44.72793182528584" lon="9.410500798712379"><ele>813.0</ele><time>2026-04-11T10:03:41.998Z</time></trkpt><trkpt lat="44.727868480822345" lon="9.410661669470196"><ele>813.0</ele><time>2026-04-11T10:03:43.998Z</time></trkpt><trkpt lat="44.72783169952472" lon="9.410751828393929"><ele>813.0</ele><time>2026-04-11T10:03:44.998Z</time></trkpt><trkpt lat="44.72783923571267" lon="9.410854802195383"><ele>812.4</ele><time>2026-04-11T10:03:46.998Z</time></trkpt><trkpt lat="44.727930027822644" lon="9.410940748735259"><ele>811.8</ele><time>2026-04-11T10:03:48.998Z</time></trkpt><trkpt lat="44.72797334183737" lon="9.41104037956975"><ele>811.2</ele><time>2026-04-11T10:03:50.998Z</time></trkpt><trkpt lat="44.72802970345152" lon="9.411199379125032"><ele>810.6</ele><time>2026-04-11T10:03:52.998Z</time></trkpt><trkpt lat="44.728022228076384" lon="9.411347565172884"><ele>810.0</ele><time>2026-04-11T10:03:54.998Z</time></trkpt><trkpt lat="44.727974815066354" lon="9.411431049879882"><ele>810.0</ele><time>2026-04-11T10:03:55.998Z</time></trkpt><trkpt lat="44.72789931931731" lon="9.411480240162737"><ele>810.0</ele><time>2026-04-11T10:03:56.998Z</time></trkpt><trkpt lat="44.72784846133033" lon="9.411588736313837"><ele>810.0</ele><time>2026-04-11T10:03:58.998Z</time></trkpt><trkpt lat="44.72793673701646" lon="9.411710392396124"><ele>810.0</ele><time>2026-04-11T10:04:00.998Z</time></trkpt><trkpt lat="44.728037497618644" lon="9.411743806977109"><ele>810.0</ele><time>2026-04-11T10:04:01.998Z</time></trkpt><trkpt lat="44.728109249143074" lon="9.41184406069628"><ele>810.0</ele><time>2026-04-11T10:04:03.999Z</time></trkpt><trkpt lat="44.72817483232797" lon="9.41188458127434"><ele>810.0</ele><time>2026-04-11T10:04:04.999Z</time></trkpt><trkpt lat="44.72826561834462" lon="9.411951990163741"><ele>810.0</ele><time>2026-04-11T10:04:05.999Z</time></trkpt><trkpt lat="44.72832620122655" lon="9.412025094112035"><ele>810.0</ele><time>2026-04-11T10:04:06.999Z</time></trkpt><trkpt lat="44.728342279996404" lon="9.412119054293925"><ele>810.0</ele><time>2026-04-11T10:04:07.999Z</time></trkpt><trkpt lat="44.72835904407983" lon="9.412275698793396"><ele>810.0</ele><time>2026-04-11T10:04:08.999Z</time></trkpt><trkpt lat="44.728389348029566" lon="9.412423897050575"><ele>812.75</ele><time>2026-04-11T10:04:09.999Z</time></trkpt><trkpt lat="44.728408161209494" lon="9.412523249681474"><ele>815.5</ele><time>2026-04-11T10:04:10.999Z</time></trkpt><trkpt lat="44.728465608593666" lon="9.41269033581349"><ele>818.25</ele><time>2026-04-11T10:04:12.999Z</time></trkpt><trkpt lat="44.72855054165201" lon="9.412871436578797"><ele>821.0</ele><time>2026-04-11T10:04:13.999Z</time></trkpt><trkpt lat="44.72857310645363" lon="9.413034310563786"><ele>818.1666666666667</ele><time>2026-04-11T10:04:14.999Z</time></trkpt><trkpt lat="44.72859738704065" lon="9.41312583917976"><ele>815.3333333333334</ele><time>2026-04-11T10:04:15.999Z</time></trkpt><trkpt lat="44.728609711235876" lon="9.413213421608685"><ele>812.5</ele><time>2026-04-11T10:04:16.999Z</time></trkpt><trkpt lat="44.72872565713371" lon="9.413221262489154"><ele>809.6666666666667</ele><time>2026-04-11T10:04:18.999Z</time></trkpt><trkpt lat="44.7287980438547" lon="9.413152355664213"><ele>806.8333333333334</ele><time>2026-04-11T10:04:19.999Z</time></trkpt><trkpt lat="44.72885524633819" lon="9.413051163572622"><ele>804.0</ele><time>2026-04-11T10:04:20.999Z</time></trkpt><trkpt lat="44.72894118680778" lon="9.41296511892185"><ele>804.0</ele><time>2026-04-11T10:04:21.999Z</time></trkpt><trkpt lat="44.72903948501226" lon="9.412909362263129"><ele>804.0</ele><time>2026-04-11T10:04:22.999Z</time></trkpt><trkpt lat="44.72913376043749" lon="9.412863156862835"><ele>804.0</ele><time>2026-04-11T10:04:23.999Z</time></trkpt><trkpt lat="44.72919290269115" lon="9.412812560809945"><ele>804.0</ele><time>2026-04-11T10:04:24.999Z</time></trkpt><trkpt lat="44.729273496966755" lon="9.412716509188373"><ele>804.0</ele><time>2026-04-11T10:04:26.999Z</time></trkpt><trkpt lat="44.729341627074334" lon="9.41266414411861"><ele>800.0</ele><time>2026-04-11T10:04:27.999Z</time></trkpt><trkpt lat="44.729430809913374" lon="9.412595303635063"><ele>796.0</ele><time>2026-04-11T10:04:28.999Z</time></trkpt><trkpt lat="44.72949757761633" lon="9.41251368237389"><ele>792.0</ele><time>2026-04-11T10:04:29.999Z</time></trkpt><trkpt lat="44.7295584266996" lon="9.412445223314393"><ele>788.0</ele><time>2026-04-11T10:04:30.999Z</time></trkpt><trkpt lat="44.72963103435943" lon="9.412378257046013"><ele>784.0</ele><time>2026-04-11T10:04:31.999Z</time></trkpt><trkpt lat="44.72973045986671" lon="9.412278395411782"><ele>784.0</ele><time>2026-04-11T10:04:32.999Z</time></trkpt><trkpt lat="44.72983571001269" lon="9.412171822584844"><ele>784.0</ele><time>2026-04-11T10:04:33.999Z</time></trkpt><trkpt lat="44.729922235924086" lon="9.412076674577225"><ele>784.0</ele><time>2026-04-11T10:04:34.999Z</time></trkpt><trkpt lat="44.729991223248106" lon="9.412005416026025"><ele>784.0</ele><time>2026-04-11T10:04:35.999Z</time></trkpt><trkpt lat="44.73007052042047" lon="9.41192862819971"><ele>784.0</ele><time>2026-04-11T10:04:36.999Z</time></trkpt><trkpt lat="44.73015416361498" lon="9.411823215539421"><ele>786.0</ele><time>2026-04-11T10:04:37.999Z</time></trkpt><trkpt lat="44.73025443401139" lon="9.411701066395114"><ele>788.0</ele><time>2026-04-11T10:04:38.999Z</time></trkpt><trkpt lat="44.730335154715526" lon="9.411594163009399"><ele>790.0</ele><time>2026-04-11T10:04:39.999Z</time></trkpt><trkpt lat="44.73039051017787" lon="9.411502014760485"><ele>792.0</ele><time>2026-04-11T10:04:40.999Z</time></trkpt><trkpt lat="44.73044991836855" lon="9.411418862753708"><ele>794.0</ele><time>2026-04-11T10:04:41.999Z</time></trkpt><trkpt lat="44.73049202767225" lon="9.411347226746116"><ele>795.1666666666667</ele><time>2026-04-11T10:04:42.999Z</time></trkpt><trkpt lat="44.73053205268876" lon="9.411183451071265"><ele>796.3333333333334</ele><time>2026-04-11T10:04:44.999Z</time></trkpt><trkpt lat="44.73056585833114" lon="9.411099587792595"><ele>797.5</ele><time>2026-04-11T10:04:45.999Z</time></trkpt><trkpt lat="44.73063213000922" lon="9.411043056373742"><ele>798.6666666666667</ele><time>2026-04-11T10:04:46.999Z</time></trkpt><trkpt lat="44.73071008490601" lon="9.410989920745193"><ele>799.8333333333334</ele><time>2026-04-11T10:04:47.999Z</time></trkpt><trkpt lat="44.73078135608989" lon="9.410919586613497"><ele>801.0</ele><time>2026-04-11T10:04:48.999Z</time></trkpt><trkpt lat="44.73084618426623" lon="9.410878215915515"><ele>801.0</ele><time>2026-04-11T10:04:49.999Z</time></trkpt><trkpt lat="44.73091180896504" lon="9.4108333772474"><ele>801.0</ele><time>2026-04-11T10:04:50.999Z</time></trkpt><trkpt lat="44.730987889812894" lon="9.410722098068748"><ele>801.0</ele><time>2026-04-11T10:04:52.999Z</time></trkpt><trkpt lat="44.731058821740355" lon="9.410615255286903"><ele>801.0</ele><time>2026-04-11T10:04:53.999Z</time></trkpt><trkpt lat="44.73111571972037" lon="9.410511664571242"><ele>801.0</ele><time>2026-04-11T10:04:54.999Z</time></trkpt><trkpt lat="44.73119036501395" lon="9.41043294313636"><ele>800.4</ele><time>2026-04-11T10:04:55.999Z</time></trkpt><trkpt lat="44.731276221990136" lon="9.410365806017785"><ele>799.8</ele><time>2026-04-11T10:04:56.999Z</time></trkpt><trkpt lat="44.73136707468368" lon="9.410298911083864"><ele>799.1999999999999</ele><time>2026-04-11T10:04:57.999Z</time></trkpt><trkpt lat="44.73142269506324" lon="9.410241698975444"><ele>798.5999999999999</ele><time>2026-04-11T10:04:58.999Z</time></trkpt><trkpt lat="44.73150690477809" lon="9.410122147645282"><ele>798.0</ele><time>2026-04-11T10:05:00.999Z</time></trkpt><trkpt lat="44.73159122351019" lon="9.41006286826664"><ele>798.0</ele><time>2026-04-11T10:05:01.999Z</time></trkpt><trkpt lat="44.73166588410784" lon="9.410046289144326"><ele>798.0</ele><time>2026-04-11T10:05:02.999Z</time></trkpt><trkpt lat="44.73173512075854" lon="9.410035406473986"><ele>798.0</ele><time>2026-04-11T10:05:03.999Z</time></trkpt><trkpt lat="44.73182134261841" lon="9.410063796655203"><ele>798.0</ele><time>2026-04-11T10:05:05.999Z</time></trkpt><trkpt lat="44.731912536718" lon="9.410059312877525"><ele>798.0</ele><time>2026-04-11T10:05:06.999Z</time></trkpt><trkpt lat="44.73197828543979" lon="9.410016352183192"><ele>798.0</ele><time>2026-04-11T10:05:07.999Z</time></trkpt><trkpt lat="44.73204055417707" lon="9.409937583188754"><ele>797.1666666666666</ele><time>2026-04-11T10:05:08.999Z</time></trkpt><trkpt lat="44.732109334872426" lon="9.409865482157132"><ele>796.3333333333333</ele><time>2026-04-11T10:05:09.999Z</time></trkpt><trkpt lat="44.732183554139944" lon="9.40981125533835"><ele>795.5</ele><time>2026-04-11T10:05:10.999Z</time></trkpt><trkpt lat="44.73222153252694" lon="9.409738252394545"><ele>794.6666666666666</ele><time>2026-04-11T10:05:11.999Z</time></trkpt><trkpt lat="44.73227372990912" lon="9.409637634642554"><ele>793.8333333333333</ele><time>2026-04-11T10:05:12.999Z</time></trkpt><trkpt lat="44.73235574994673" lon="9.409543125021843"><ele>793.0</ele><time>2026-04-11T10:05:13.999Z</time></trkpt><trkpt lat="44.732415619334866" lon="9.409459033351713"><ele>791.4999999999999</ele><time>2026-04-11T10:05:14.999Z</time></trkpt><trkpt lat="44.73243330079859" lon="9.409321604910822"><ele>790.0</ele><time>2026-04-11T10:05:16.999Z</time></trkpt><trkpt lat="44.73246480776553" lon="9.409218588815891"><ele>788.5</ele><time>2026-04-11T10:05:19.999Z</time></trkpt><trkpt lat="44.73245124388096" lon="9.409108782949271"><ele>787.0</ele><time>2026-04-11T10:05:21.999Z</time></trkpt><trkpt lat="44.73240510238959" lon="9.409007423979016"><ele>785.4999999999999</ele><time>2026-04-11T10:05:24.999Z</time></trkpt><trkpt lat="44.73240882107246" lon="9.40891548787672"><ele>784.0</ele><time>2026-04-11T10:05:26.999Z</time></trkpt><trkpt lat="44.73232436180906" lon="9.408865289089162"><ele>784.0</ele><time>2026-04-11T10:05:29.999Z</time></trkpt><trkpt lat="44.73222364907334" lon="9.408827809407216"><ele>784.0</ele><time>2026-04-11T10:05:32.999Z</time></trkpt><trkpt lat="44.732193899744495" lon="9.408697209381737"><ele>784.0</ele><time>2026-04-11T10:05:34.999Z</time></trkpt><trkpt lat="44.73217619044305" lon="9.408555469477047"><ele>784.0</ele><time>2026-04-11T10:05:36.999Z</time></trkpt><trkpt lat="44.73224625363546" lon="9.40846277890523"><ele>784.0</ele><time>2026-04-11T10:05:38.999Z</time></trkpt><trkpt lat="44.73234237272311" lon="9.408494029325407"><ele>781.2</ele><time>2026-04-11T10:05:40.999Z</time></trkpt><trkpt lat="44.73242113768325" lon="9.408487255016698"><ele>778.4000000000001</ele><time>2026-04-11T10:05:42.999Z</time></trkpt><trkpt lat="44.73248125468796" lon="9.408387354034318"><ele>775.6</ele><time>2026-04-11T10:05:44.999Z</time></trkpt><trkpt lat="44.73256337809199" lon="9.408283771125674"><ele>772.8</ele><time>2026-04-11T10:05:46.999Z</time></trkpt><trkpt lat="44.7326388731802" lon="9.408216214130919"><ele>770.0</ele><time>2026-04-11T10:05:48.999Z</time></trkpt><trkpt lat="44.73272197958235" lon="9.408093325156228"><ele>766.6666666666667</ele><time>2026-04-11T10:05:50.999Z</time></trkpt><trkpt lat="44.73281836383898" lon="9.408082869130709"><ele>763.3333333333334</ele><time>2026-04-11T10:05:52.999Z</time></trkpt><trkpt lat="44.732880103552255" lon="9.40813125002397"><ele>760.0</ele><time>2026-04-11T10:05:53.999Z</time></trkpt><trkpt lat="44.732906384967585" lon="9.40826727738644"><ele>756.6666666666667</ele><time>2026-04-11T10:05:55.999Z</time></trkpt><trkpt lat="44.73293197158856" lon="9.408356392807136"><ele>753.3333333333334</ele><time>2026-04-11T10:05:56.999Z</time></trkpt><trkpt lat="44.73297155538984" lon="9.408480618320894"><ele>750.0</ele><time>2026-04-11T10:05:57.999Z</time></trkpt><trkpt lat="44.733054576278995" lon="9.408617200376051"><ele>750.0</ele><time>2026-04-11T10:06:00Z</time></trkpt><trkpt lat="44.733107755563864" lon="9.408700801039343"><ele>750.0</ele><time>2026-04-11T10:06:01Z</time></trkpt><trkpt lat="44.73313925723501" lon="9.408785102961575"><ele>750.0</ele><time>2026-04-11T10:06:02Z</time></trkpt><trkpt lat="44.73313117042686" lon="9.408885034170046"><ele>750.0</ele><time>2026-04-11T10:06:03Z</time></trkpt><trkpt lat="44.73315264310017" lon="9.408972854799682"><ele>750.0</ele><time>2026-04-11T10:06:03.999Z</time></trkpt><trkpt lat="44.73319970958693" lon="9.409040208801029"><ele>750.0</ele><time>2026-04-11T10:06:04.999Z</time></trkpt><trkpt lat="44.73325421475536" lon="9.409127353029858"><ele>750.0</ele><time>2026-04-11T10:06:05.999Z</time></trkpt><trkpt lat="44.7333379685597" lon="9.409187235189973"><ele>752.0</ele><time>2026-04-11T10:06:06.999Z</time></trkpt><trkpt lat="44.733391651422764" lon="9.409253759938814"><ele>754.0</ele><time>2026-04-11T10:06:07.999Z</time></trkpt><trkpt lat="44.73343883069347" lon="9.409403873376093"><ele>756.0</ele><time>2026-04-11T10:06:10.001Z</time></trkpt><trkpt lat="44.73344879634065" lon="9.409499020114975"><ele>758.0</ele><time>2026-04-11T10:06:11.001Z</time></trkpt><trkpt lat="44.7334835242847" lon="9.40965300300566"><ele>760.0</ele><time>2026-04-11T10:06:13.001Z</time></trkpt><trkpt lat="44.7335412818818" lon="9.409786551078918"><ele>756.0</ele><time>2026-04-11T10:06:15.001Z</time></trkpt><trkpt lat="44.7336219221756" lon="9.409930087675674"><ele>752.0</ele><time>2026-04-11T10:06:17.001Z</time></trkpt><trkpt lat="44.7336958479032" lon="9.410048774191752"><ele>748.0</ele><time>2026-04-11T10:06:18.001Z</time></trkpt><trkpt lat="44.733768618075075" lon="9.410134726650373"><ele>744.0</ele><time>2026-04-11T10:06:20.001Z</time></trkpt><trkpt lat="44.733840330460794" lon="9.410170776272267"><ele>740.0</ele><time>2026-04-11T10:06:22.001Z</time></trkpt><trkpt lat="44.733918424382246" lon="9.410219643504862"><ele>740.0</ele><time>2026-04-11T10:06:24.001Z</time></trkpt><trkpt lat="44.7340249435119" lon="9.410198863367574"><ele>740.0</ele><time>2026-04-11T10:06:26.001Z</time></trkpt><trkpt lat="44.73411166725226" lon="9.410189391977296"><ele>740.0</ele><time>2026-04-11T10:06:28.001Z</time></trkpt><trkpt lat="44.7342083929696" lon="9.410122202875277"><ele>740.0</ele><time>2026-04-11T10:06:30.001Z</time></trkpt><trkpt lat="44.73422597107851" lon="9.409986386129807"><ele>740.0</ele><time>2026-04-11T10:06:32.001Z</time></trkpt><trkpt lat="44.734196731438516" lon="9.409901041371205"><ele>740.0</ele><time>2026-04-11T10:06:34.001Z</time></trkpt><trkpt lat="44.73418246251677" lon="9.409765480273355"><ele>740.0</ele><time>2026-04-11T10:06:37.001Z</time></trkpt><trkpt lat="44.73417529129021" lon="9.409669018574515"><ele>740.0</ele><time>2026-04-11T10:06:39.001Z</time></trkpt><trkpt lat="44.73419209380848" lon="9.409558756775775"><ele>740.0</ele><time>2026-04-11T10:06:43Z</time></trkpt><trkpt lat="44.734216019121924" lon="9.409445621549532"><ele>740.0</ele><time>2026-04-11T10:07:06Z</time></trkpt><trkpt lat="44.73425255387681" lon="9.409344517523888"><ele>740.0</ele><time>2026-04-11T10:07:14Z</time></trkpt><trkpt lat="44.73422412429021" lon="9.409214852593658"><ele>738.4</ele><time>2026-04-11T10:07:18Z</time></trkpt><trkpt lat="44.734299567298606" lon="9.409154801833296"><ele>736.8</ele><time>2026-04-11T10:07:20Z</time></trkpt><trkpt lat="44.73421437664329" lon="9.409076598525875"><ele>735.2</ele><time>2026-04-11T10:07:22Z</time></trkpt><trkpt lat="44.73414564002201" lon="9.408976312154435"><ele>733.6</ele><time>2026-04-11T10:07:23Z</time></trkpt><trkpt lat="44.73421525313059" lon="9.408887740528534"><ele>732.0</ele><time>2026-04-11T10:07:25Z</time></trkpt><trkpt lat="44.7342766746336" lon="9.408726181674723"><ele>729.8</ele><time>2026-04-11T10:07:26Z</time></trkpt><trkpt lat="44.734196528927846" lon="9.408711660418149"><ele>727.6</ele><time>2026-04-11T10:07:28Z</time></trkpt><trkpt lat="44.73420111512309" lon="9.408507157778454"><ele>725.4</ele><time>2026-04-11T10:07:31Z</time></trkpt><trkpt lat="44.73426243529887" lon="9.40842215890691"><ele>723.1999999999999</ele><time>2026-04-11T10:07:35Z</time></trkpt><trkpt lat="44.73429683747015" lon="9.40832662058703"><ele>721.0</ele><time>2026-04-11T10:07:37Z</time></trkpt><trkpt lat="44.734342768579225" lon="9.408209167357926"><ele>721.0</ele><time>2026-04-11T10:07:40Z</time></trkpt><trkpt lat="44.73429674308032" lon="9.40813656264316"><ele>721.0</ele><time>2026-04-11T10:07:47Z</time></trkpt><trkpt lat="44.7343054316932" lon="9.408047335836951"><ele>721.0</ele><time>2026-04-11T10:07:51Z</time></trkpt><trkpt lat="44.734369898017405" lon="9.408043169309657"><ele>721.0</ele><time>2026-04-11T10:07:56Z</time></trkpt><trkpt lat="44.734452631300925" lon="9.408021802337268"><ele>721.0</ele><time>2026-04-11T10:07:58Z</time></trkpt><trkpt lat="44.73448972785644" lon="9.407943599061575"><ele>721.0</ele><time>2026-04-11T10:08:04Z</time></trkpt><trkpt lat="44.734544111688386" lon="9.40786656646239"><ele>721.0</ele><time>2026-04-11T10:08:06Z</time></trkpt><trkpt lat="44.73461209995086" lon="9.407851936002645"><ele>717.5</ele><time>2026-04-11T10:08:08Z</time></trkpt><trkpt lat="44.734696621452706" lon="9.407786845717208"><ele>714.0</ele><time>2026-04-11T10:08:09.999Z</time></trkpt><trkpt lat="44.73476154115646" lon="9.407729942994598"><ele>710.5</ele><time>2026-04-11T10:08:10.999Z</time></trkpt><trkpt lat="44.73481636452146" lon="9.407806096560815"><ele>707.0</ele><time>2026-04-11T10:08:13.999Z</time></trkpt><trkpt lat="44.73487969032635" lon="9.407846547535707"><ele>703.5</ele><time>2026-04-11T10:08:16.001Z</time></trkpt><trkpt lat="44.734953611436985" lon="9.407939045948163"><ele>700.0</ele><time>2026-04-11T10:08:18.001Z</time></trkpt><trkpt lat="44.73499680227608" lon="9.40807456789243"><ele>700.0</ele><time>2026-04-11T10:08:20.001Z</time></trkpt><trkpt lat="44.73507554694125" lon="9.408197130336053"><ele>700.0</ele><time>2026-04-11T10:08:22.001Z</time></trkpt><trkpt lat="44.73514646454823" lon="9.408318010028939"><ele>700.0</ele><time>2026-04-11T10:08:24.001Z</time></trkpt><trkpt lat="44.73521150687732" lon="9.408423741664196"><ele>700.0</ele><time>2026-04-11T10:08:25.001Z</time></trkpt><trkpt lat="44.73523962838112" lon="9.408555423398854"><ele>700.0</ele><time>2026-04-11T10:08:27.001Z</time></trkpt><trkpt lat="44.73528553620851" lon="9.408692907505158"><ele>691.6</ele><time>2026-04-11T10:08:29.001Z</time></trkpt><trkpt lat="44.73530454661709" lon="9.408821080909798"><ele>683.2</ele><time>2026-04-11T10:08:31.001Z</time></trkpt><trkpt lat="44.73538821375403" lon="9.40889111227648"><ele>674.8</ele><time>2026-04-11T10:08:33.001Z</time></trkpt><trkpt lat="44.73543186053108" lon="9.408987284581912"><ele>666.4</ele><time>2026-04-11T10:08:35.001Z</time></trkpt><trkpt lat="44.735482702705646" lon="9.409111577623186"><ele>658.0</ele><time>2026-04-11T10:08:37.001Z</time></trkpt><trkpt lat="44.735526285666104" lon="9.409291233337015"><ele>658.0</ele><time>2026-04-11T10:08:39.001Z</time></trkpt><trkpt lat="44.7355440486672" lon="9.409394631653784"><ele>658.0</ele><time>2026-04-11T10:08:41.001Z</time></trkpt><trkpt lat="44.73556618070471" lon="9.40955551750947"><ele>658.0</ele><time>2026-04-11T10:08:43.001Z</time></trkpt><trkpt lat="44.73558492958235" lon="9.40972763532199"><ele>658.0</ele><time>2026-04-11T10:08:45.001Z</time></trkpt><trkpt lat="44.73558581513558" lon="9.409839158231133"><ele>658.0</ele><time>2026-04-11T10:08:46.001Z</time></trkpt><trkpt lat="44.73558725363267" lon="9.40994047347574"><ele>658.8333333333334</ele><time>2026-04-11T10:08:47.001Z</time></trkpt><trkpt lat="44.73558467592993" lon="9.410042856149996"><ele>659.6666666666667</ele><time>2026-04-11T10:08:48.001Z</time></trkpt><trkpt lat="44.735581022907354" lon="9.410223390351348"><ele>660.5</ele><time>2026-04-11T10:08:50.001Z</time></trkpt><trkpt lat="44.73563098336388" lon="9.410335709810372"><ele>661.3333333333334</ele><time>2026-04-11T10:08:52.001Z</time></trkpt><trkpt lat="44.735647451584235" lon="9.410429596806877"><ele>662.1666666666666</ele><time>2026-04-11T10:08:53.001Z</time></trkpt><trkpt lat="44.735651483173335" lon="9.410531111528524"><ele>663.0</ele><time>2026-04-11T10:08:54.001Z</time></trkpt><trkpt lat="44.735651360104555" lon="9.410640019413101"><ele>663.0</ele><time>2026-04-11T10:08:55.001Z</time></trkpt><trkpt lat="44.735641657862026" lon="9.410828765418463"><ele>663.0</ele><time>2026-04-11T10:08:57Z</time></trkpt><trkpt lat="44.735650444918384" lon="9.410929225081027"><ele>663.0</ele><time>2026-04-11T10:08:58Z</time></trkpt><trkpt lat="44.73569348768958" lon="9.411058975255651"><ele>663.0</ele><time>2026-04-11T10:09:00Z</time></trkpt><trkpt lat="44.73572344789099" lon="9.411142259885802"><ele>663.0</ele><time>2026-04-11T10:09:02Z</time></trkpt><trkpt lat="44.735709041078835" lon="9.411296228997294"><ele>661.8</ele><time>2026-04-11T10:09:04Z</time></trkpt><trkpt lat="44.73571769885201" lon="9.411418602135383"><ele>660.5999999999999</ele><time>2026-04-11T10:09:06Z</time></trkpt><trkpt lat="44.73576375674985" lon="9.411493588901639"><ele>659.4000000000001</ele><time>2026-04-11T10:09:08Z</time></trkpt><trkpt lat="44.73586435119653" lon="9.411559258210698"><ele>658.2</ele><time>2026-04-11T10:09:10Z</time></trkpt><trkpt lat="44.735968628328514" lon="9.411678712196881"><ele>657.0</ele><time>2026-04-11T10:09:12Z</time></trkpt><trkpt lat="44.735934178765596" lon="9.411819990920952"><ele>657.0</ele><time>2026-04-11T10:09:14Z</time></trkpt><trkpt lat="44.73591049217006" lon="9.411927437865105"><ele>657.0</ele><time>2026-04-11T10:09:18Z</time></trkpt><trkpt lat="44.735922620469694" lon="9.412014840145313"><ele>657.0</ele><time>2026-04-11T10:09:21Z</time></trkpt><trkpt lat="44.73589835703847" lon="9.412111414111331"><ele>657.0</ele><time>2026-04-11T10:09:23Z</time></trkpt><trkpt lat="44.735866004787624" lon="9.4121928199187"><ele>657.0</ele><time>2026-04-11T10:09:24Z</time></trkpt><trkpt lat="44.73587156535091" lon="9.412308925930022"><ele>657.0</ele><time>2026-04-11T10:09:26Z</time></trkpt><trkpt lat="44.735942051421745" lon="9.412343460999264"><ele>657.0</ele><time>2026-04-11T10:09:29Z</time></trkpt><trkpt lat="44.736012213916155" lon="9.412360140218109"><ele>650.0</ele><time>2026-04-11T10:09:31Z</time></trkpt><trkpt lat="44.73610024380232" lon="9.41240552344619"><ele>643.0</ele><time>2026-04-11T10:09:33Z</time></trkpt><trkpt lat="44.736200076319534" lon="9.412449773484397"><ele>636.0</ele><time>2026-04-11T10:09:35Z</time></trkpt><trkpt lat="44.73626778344006" lon="9.412493971714811"><ele>629.0</ele><time>2026-04-11T10:09:37Z</time></trkpt><trkpt lat="44.736317690610676" lon="9.412569230968776"><ele>622.0</ele><time>2026-04-11T10:09:39Z</time></trkpt><trkpt lat="44.736437773295876" lon="9.412549371824305"><ele>622.0</ele><time>2026-04-11T10:09:45Z</time></trkpt><trkpt lat="44.73653814425443" lon="9.412508227774964"><ele>622.0</ele><time>2026-04-11T10:09:48Z</time></trkpt><trkpt lat="44.736628437296616" lon="9.412475007806865"><ele>622.0</ele><time>2026-04-11T10:09:50Z</time></trkpt><trkpt lat="44.73668511933719" lon="9.412431936251558"><ele>622.0</ele><time>2026-04-11T10:09:52Z</time></trkpt><trkpt lat="44.73674959473471" lon="9.412367453921364"><ele>622.0</ele><time>2026-04-11T10:09:55Z</time></trkpt><trkpt lat="44.73681185295571" lon="9.412271505539607"><ele>622.0</ele><time>2026-04-11T10:09:57Z</time></trkpt><trkpt lat="44.73688492750254" lon="9.41216139997889"><ele>617.6666666666667</ele><time>2026-04-11T10:09:59Z</time></trkpt><trkpt lat="44.73695503381659" lon="9.4120517577092"><ele>613.3333333333334</ele><time>2026-04-11T10:10:01Z</time></trkpt><trkpt lat="44.73701154797563" lon="9.41199695016627"><ele>609.0</ele><time>2026-04-11T10:10:03Z</time></trkpt><trkpt lat="44.737045940121185" lon="9.411895539874669"><ele>604.6666666666666</ele><time>2026-04-11T10:10:06Z</time></trkpt><trkpt lat="44.737086737410195" lon="9.411804700611643"><ele>600.3333333333333</ele><time>2026-04-11T10:10:08Z</time></trkpt><trkpt lat="44.73709423943808" lon="9.41168592957671"><ele>596.0</ele><time>2026-04-11T10:10:10Z</time></trkpt><trkpt lat="44.73709123593457" lon="9.411576472781228"><ele>596.0</ele><time>2026-04-11T10:10:11Z</time></trkpt><trkpt lat="44.7370883342813" lon="9.411442831821532"><ele>596.0</ele><time>2026-04-11T10:10:13Z</time></trkpt><trkpt lat="44.73711050359812" lon="9.411308835975555"><ele>596.0</ele><time>2026-04-11T10:10:15Z</time></trkpt><trkpt lat="44.7370910296861" lon="9.411163668076554"><ele>596.0</ele><time>2026-04-11T10:10:17Z</time></trkpt><trkpt lat="44.73708337171729" lon="9.41105065720997"><ele>596.0</ele><time>2026-04-11T10:10:19Z</time></trkpt><trkpt lat="44.737084282539485" lon="9.410914192820632"><ele>593.4</ele><time>2026-04-11T10:10:20.999Z</time></trkpt><trkpt lat="44.737062595072175" lon="9.410777423081718"><ele>590.8</ele><time>2026-04-11T10:10:23.001Z</time></trkpt><trkpt lat="44.73705539549952" lon="9.410652104664528"><ele>588.1999999999999</ele><time>2026-04-11T10:10:25.001Z</time></trkpt><trkpt lat="44.7370004966275" lon="9.41056925918261"><ele>585.6</ele><time>2026-04-11T10:10:27.001Z</time></trkpt><trkpt lat="44.73699087163269" lon="9.410346498783351"><ele>583.0</ele><time>2026-04-11T10:10:28.001Z</time></trkpt><trkpt lat="44.736962734423386" lon="9.4102297880145"><ele>579.8333333333334</ele><time>2026-04-11T10:10:29.001Z</time></trkpt><trkpt lat="44.736949804280904" lon="9.41011662387822"><ele>576.6666666666667</ele><time>2026-04-11T10:10:30.001Z</time></trkpt><trkpt lat="44.73695118147991" lon="9.410015589913856"><ele>573.5</ele><time>2026-04-11T10:10:31.001Z</time></trkpt><trkpt lat="44.736944138732156" lon="9.409895840746719"><ele>570.3333333333334</ele><time>2026-04-11T10:10:32.001Z</time></trkpt><trkpt lat="44.73693567158304" lon="9.409803535528594"><ele>567.1666666666666</ele><time>2026-04-11T10:10:33.001Z</time></trkpt><trkpt lat="44.736923208153534" lon="9.40966088586526"><ele>564.0</ele><time>2026-04-11T10:10:34.001Z</time></trkpt><trkpt lat="44.73689044374835" lon="9.409507109192585"><ele>569.4</ele><time>2026-04-11T10:10:36.001Z</time></trkpt><trkpt lat="44.73687964200944" lon="9.409392769263821"><ele>574.8</ele><time>2026-04-11T10:10:38.001Z</time></trkpt><trkpt lat="44.73687864794963" lon="9.409253929429218"><ele>580.2</ele><time>2026-04-11T10:10:40.001Z</time></trkpt><trkpt lat="44.736868679982365" lon="9.409103822971458"><ele>585.6</ele><time>2026-04-11T10:10:42.001Z</time></trkpt><trkpt lat="44.73685151224855" lon="9.40895199923421"><ele>591.0</ele><time>2026-04-11T10:10:44.001Z</time></trkpt><trkpt lat="44.73684340347003" lon="9.408803720591017"><ele>591.0</ele><time>2026-04-11T10:10:46.001Z</time></trkpt><trkpt lat="44.736862724780536" lon="9.408665768051675"><ele>591.0</ele><time>2026-04-11T10:10:48.001Z</time></trkpt><trkpt lat="44.7368683389763" lon="9.408541404242976"><ele>591.0</ele><time>2026-04-11T10:10:50.001Z</time></trkpt><trkpt lat="44.736886280497636" lon="9.408391951858455"><ele>591.0</ele><time>2026-04-11T10:10:52.001Z</time></trkpt><trkpt lat="44.73690474975497" lon="9.408281493656043"><ele>591.0</ele><time>2026-04-11T10:10:54.001Z</time></trkpt><trkpt lat="44.736919745219815" lon="9.408171017664477"><ele>582.3333333333334</ele><time>2026-04-11T10:10:55.001Z</time></trkpt><trkpt lat="44.73693555184113" lon="9.408051222608306"><ele>573.6666666666666</ele><time>2026-04-11T10:10:56Z</time></trkpt><trkpt lat="44.73694952358582" lon="9.407938833019301"><ele>565.0</ele><time>2026-04-11T10:10:57Z</time></trkpt><trkpt lat="44.73695149231649" lon="9.407820876437631"><ele>556.3333333333333</ele><time>2026-04-11T10:10:59Z</time></trkpt><trkpt lat="44.73697269577558" lon="9.407706434244218"><ele>547.6666666666666</ele><time>2026-04-11T10:11:01Z</time></trkpt><trkpt lat="44.73704112659667" lon="9.407739368592273"><ele>539.0</ele><time>2026-04-11T10:11:05Z</time></trkpt><trkpt lat="44.73707034954646" lon="9.407827484170166"><ele>539.0</ele><time>2026-04-11T10:11:07Z</time></trkpt><trkpt lat="44.73709209519966" lon="9.407954343670454"><ele>539.0</ele><time>2026-04-11T10:11:09Z</time></trkpt><trkpt lat="44.73711743923426" lon="9.408076493517145"><ele>539.0</ele><time>2026-04-11T10:11:12Z</time></trkpt><trkpt lat="44.737110910420334" lon="9.408207807508786"><ele>539.0</ele><time>2026-04-11T10:11:14Z</time></trkpt><trkpt lat="44.73711714368305" lon="9.40833662898363"><ele>539.0</ele><time>2026-04-11T10:11:15Z</time></trkpt><trkpt lat="44.737172870473785" lon="9.408410075687218"><ele>539.0</ele><time>2026-04-11T10:11:17Z</time></trkpt><trkpt lat="44.73725280316631" lon="9.408523798545314"><ele>539.0</ele><time>2026-04-11T10:11:19Z</time></trkpt><trkpt lat="44.73731053778157" lon="9.408631200325317"><ele>539.0</ele><time>2026-04-11T10:11:21Z</time></trkpt><trkpt lat="44.7373683835376" lon="9.40873661003847"><ele>539.0</ele><time>2026-04-11T10:11:23Z</time></trkpt><trkpt lat="44.73736178378904" lon="9.408832977079678"><ele>539.0</ele><time>2026-04-11T10:11:24Z</time></trkpt><trkpt lat="44.73738011870519" lon="9.408957932257488"><ele>539.0</ele><time>2026-04-11T10:11:25Z</time></trkpt><trkpt lat="44.73741294951856" lon="9.40905658264005"><ele>539.0</ele><time>2026-04-11T10:11:26Z</time></trkpt><trkpt lat="44.73745418180182" lon="9.409143132075114"><ele>540.8333333333333</ele><time>2026-04-11T10:11:27Z</time></trkpt><trkpt lat="44.73749625621404" lon="9.409216680419418"><ele>542.6666666666666</ele><time>2026-04-11T10:11:28Z</time></trkpt><trkpt lat="44.7375334176338" lon="9.409297730009337"><ele>544.5</ele><time>2026-04-11T10:11:29Z</time></trkpt><trkpt lat="44.737594433638236" lon="9.40939044544783"><ele>546.3333333333334</ele><time>2026-04-11T10:11:30Z</time></trkpt><trkpt lat="44.737662790311354" lon="9.409481168190252"><ele>548.1666666666667</ele><time>2026-04-11T10:11:31Z</time></trkpt><trkpt lat="44.73772728470527" lon="9.409537920226786"><ele>550.0</ele><time>2026-04-11T10:11:32Z</time></trkpt><trkpt lat="44.737787044656585" lon="9.40960087807729"><ele>544.4</ele><time>2026-04-11T10:11:33Z</time></trkpt><trkpt lat="44.737876274123785" lon="9.4096606968774"><ele>538.8</ele><time>2026-04-11T10:11:34Z</time></trkpt><trkpt lat="44.73794619868938" lon="9.409834178882493"><ele>533.2</ele><time>2026-04-11T10:11:36Z</time></trkpt><trkpt lat="44.73804554862274" lon="9.409978022771414"><ele>527.6</ele><time>2026-04-11T10:11:38Z</time></trkpt><trkpt lat="44.73807512753247" lon="9.410059657583123"><ele>522.0</ele><time>2026-04-11T10:11:39Z</time></trkpt><trkpt lat="44.73814680502299" lon="9.410157758429223"><ele>522.0</ele><time>2026-04-11T10:11:40Z</time></trkpt><trkpt lat="44.73820081328448" lon="9.410241461031779"><ele>522.0</ele><time>2026-04-11T10:11:41Z</time></trkpt><trkpt lat="44.7382430529738" lon="9.410321342710514"><ele>522.0</ele><time>2026-04-11T10:11:42Z</time></trkpt><trkpt lat="44.73833458678532" lon="9.410399685404899"><ele>522.0</ele><time>2026-04-11T10:11:44Z</time></trkpt><trkpt lat="44.73839880493525" lon="9.410463911095638"><ele>522.0</ele><time>2026-04-11T10:11:45Z</time></trkpt><trkpt lat="44.73845320423125" lon="9.41052896142688"><ele>522.0</ele><time>2026-04-11T10:11:46Z</time></trkpt><trkpt lat="44.73851730946467" lon="9.410657197035789"><ele>525.3333333333334</ele><time>2026-04-11T10:11:48Z</time></trkpt><trkpt lat="44.738564474508074" lon="9.410807447749296"><ele>528.6666666666666</ele><time>2026-04-11T10:11:50Z</time></trkpt><trkpt lat="44.73861357687582" lon="9.410872862858092"><ele>532.0</ele><time>2026-04-11T10:14:07Z</time></trkpt><trkpt lat="44.73854136067104" lon="9.41083687449326"><ele>535.3333333333333</ele><time>2026-04-11T10:14:33.001Z</time></trkpt><trkpt lat="44.73863794978887" lon="9.410942637414218"><ele>538.6666666666666</ele><time>2026-04-11T10:14:34.001Z</time></trkpt><trkpt lat="44.73867577612623" lon="9.411015016192799"><ele>542.0</ele><time>2026-04-11T10:16:21.999Z</time></trkpt><trkpt lat="44.73868048469683" lon="9.411141935244093"><ele>533.3333333333333</ele><time>2026-04-11T10:22:06Z</time></trkpt><trkpt lat="44.73868839919036" lon="9.41124751728174"><ele>524.6666666666666</ele><time>2026-04-11T10:22:08Z</time></trkpt><trkpt lat="44.738701645269124" lon="9.411369877716671"><ele>516.0</ele><time>2026-04-11T10:22:10Z</time></trkpt><trkpt lat="44.73874303457436" lon="9.411473223247416"><ele>507.33333333333337</ele><time>2026-04-11T10:22:11.999Z</time></trkpt><trkpt lat="44.73876086155876" lon="9.411572751230683"><ele>498.6666666666667</ele><time>2026-04-11T10:22:13.999Z</time></trkpt><trkpt lat="44.73878485245353" lon="9.411722151159097"><ele>490.0</ele><time>2026-04-11T10:22:15.999Z</time></trkpt><trkpt lat="44.738795018600335" lon="9.411811381946162"><ele>490.00000000000006</ele><time>2026-04-11T10:22:16.999Z</time></trkpt><trkpt lat="44.738801141985824" lon="9.411904997564356"><ele>490.0</ele><time>2026-04-11T10:22:17.999Z</time></trkpt><trkpt lat="44.738807296682126" lon="9.411993965114442"><ele>490.0</ele><time>2026-04-11T10:22:18.999Z</time></trkpt><trkpt lat="44.738800364267945" lon="9.412154842430233"><ele>490.0</ele><time>2026-04-11T10:22:20.999Z</time></trkpt><trkpt lat="44.73879635768859" lon="9.412324332778926"><ele>490.00000000000006</ele><time>2026-04-11T10:22:22.999Z</time></trkpt><trkpt lat="44.73882712072985" lon="9.412415399337837"><ele>490.0</ele><time>2026-04-11T10:22:23.999Z</time></trkpt><trkpt lat="44.73884969972601" lon="9.412500801183525"><ele>490.2</ele><time>2026-04-11T10:22:24.999Z</time></trkpt><trkpt lat="44.73890844733995" lon="9.412608700510846"><ele>490.4</ele><time>2026-04-11T10:22:26.999Z</time></trkpt><trkpt lat="44.73897013783603" lon="9.412701215364697"><ele>490.6</ele><time>2026-04-11T10:22:28.999Z</time></trkpt><trkpt lat="44.738969896433204" lon="9.412840793705355"><ele>490.8</ele><time>2026-04-11T10:22:30.999Z</time></trkpt><trkpt lat="44.73893558310953" lon="9.41295828621998"><ele>491.0</ele><time>2026-04-11T10:22:32.999Z</time></trkpt><trkpt lat="44.73890754996932" lon="9.41310945614246"><ele>490.99999999999994</ele><time>2026-04-11T10:22:34.999Z</time></trkpt><trkpt lat="44.738914574724454" lon="9.413211930865403"><ele>491.0</ele><time>2026-04-11T10:22:36.999Z</time></trkpt><trkpt lat="44.73897124165291" lon="9.41329130244903"><ele>491.0</ele><time>2026-04-11T10:22:39.999Z</time></trkpt><trkpt lat="44.7390273575137" lon="9.4133851584172"><ele>491.0</ele><time>2026-04-11T10:23:32Z</time></trkpt><trkpt lat="44.73908872710683" lon="9.41343096659806"><ele>490.99999999999994</ele><time>2026-04-11T10:23:34Z</time></trkpt><trkpt lat="44.73918346513971" lon="9.41339040504962"><ele>491.0</ele><time>2026-04-11T10:23:37Z</time></trkpt><trkpt lat="44.739277924076774" lon="9.413316143452272"><ele>490.99999999999994</ele><time>2026-04-11T10:23:39Z</time></trkpt><trkpt lat="44.73934307797881" lon="9.413301402840323"><ele>491.0</ele><time>2026-04-11T10:23:41Z</time></trkpt><trkpt lat="44.739415136132536" lon="9.41327268432385"><ele>491.0</ele><time>2026-04-11T10:23:43Z</time></trkpt><trkpt lat="44.739512917707" lon="9.413249459395184"><ele>491.0</ele><time>2026-04-11T10:23:45Z</time></trkpt><trkpt lat="44.73957917526703" lon="9.413246311753804"><ele>490.99999999999994</ele><time>2026-04-11T10:23:46Z</time></trkpt><trkpt lat="44.73966788286125" lon="9.413302029648818"><ele>491.0</ele><time>2026-04-11T10:24:08Z</time></trkpt><trkpt lat="44.739731997347064" lon="9.41329284544606"><ele>494.16666666666663</ele><time>2026-04-11T10:24:09.999Z</time></trkpt><trkpt lat="44.739794420698544" lon="9.413308536168948"><ele>497.3333333333333</ele><time>2026-04-11T10:24:10.999Z</time></trkpt><trkpt lat="44.73988814605285" lon="9.41329122897755"><ele>500.5</ele><time>2026-04-11T10:24:12.999Z</time></trkpt><trkpt lat="44.73994165541516" lon="9.41320601684215"><ele>503.66666666666663</ele><time>2026-04-11T10:24:23.999Z</time></trkpt><trkpt lat="44.739903894945094" lon="9.413052194658663"><ele>506.8333333333333</ele><time>2026-04-11T10:24:25.999Z</time></trkpt><trkpt lat="44.739865077287874" lon="9.412980977297044"><ele>510.0</ele><time>2026-04-11T10:24:26.999Z</time></trkpt><trkpt lat="44.739854763855156" lon="9.41287837253567"><ele>510.0</ele><time>2026-04-11T10:24:27.999Z</time></trkpt><trkpt lat="44.7398644130059" lon="9.412776491661004"><ele>510.00000000000006</ele><time>2026-04-11T10:24:28.999Z</time></trkpt><trkpt lat="44.73988382424571" lon="9.412691062404248"><ele>510.0</ele><time>2026-04-11T10:24:29.999Z</time></trkpt><trkpt lat="44.739939343987345" lon="9.41257560905932"><ele>510.0</ele><time>2026-04-11T10:24:31.999Z</time></trkpt><trkpt lat="44.74000250135741" lon="9.412574267703762"><ele>510.00000000000006</ele><time>2026-04-11T10:24:32.999Z</time></trkpt><trkpt lat="44.7400676505455" lon="9.412619475989214"><ele>510.0</ele><time>2026-04-11T10:24:33.999Z</time></trkpt><trkpt lat="44.740119537691186" lon="9.412678587941578"><ele>510.0</ele><time>2026-04-11T10:24:34.999Z</time></trkpt><trkpt lat="44.740219768352844" lon="9.412798474408959"><ele>516.6666666666666</ele><time>2026-04-11T10:24:36.999Z</time></trkpt><trkpt lat="44.74028670103194" lon="9.412836058448868"><ele>523.3333333333334</ele><time>2026-04-11T10:24:37.999Z</time></trkpt><trkpt lat="44.74039138662617" lon="9.412772593664565"><ele>530.0</ele><time>2026-04-11T10:24:39.999Z</time></trkpt><trkpt lat="44.74043493151635" lon="9.412695565222142"><ele>536.6666666666667</ele><time>2026-04-11T10:24:40.999Z</time></trkpt><trkpt lat="44.74046985283805" lon="9.412601007136072"><ele>543.3333333333334</ele><time>2026-04-11T10:24:41.999Z</time></trkpt><trkpt lat="44.740540671000524" lon="9.412634273675494"><ele>550.0</ele><time>2026-04-11T10:24:44.999Z</time></trkpt><trkpt lat="44.74051631477158" lon="9.412766288237506"><ele>550.0</ele><time>2026-04-11T10:24:46.999Z</time></trkpt><trkpt lat="44.74046462476227" lon="9.412847832820415"><ele>550.0</ele><time>2026-04-11T10:24:47.999Z</time></trkpt><trkpt lat="44.74037398619016" lon="9.412984804367884"><ele>550.0</ele><time>2026-04-11T10:24:49.999Z</time></trkpt><trkpt lat="44.74031636079159" lon="9.413100892467375"><ele>550.0</ele><time>2026-04-11T10:24:51.999Z</time></trkpt><trkpt lat="44.74033332970767" lon="9.41319999670048"><ele>550.0</ele><time>2026-04-11T10:24:52.999Z</time></trkpt><trkpt lat="44.74037319392383" lon="9.41330753688472"><ele>552.0</ele><time>2026-04-11T10:24:53.999Z</time></trkpt><trkpt lat="44.74042281854" lon="9.413407707081102"><ele>554.0</ele><time>2026-04-11T10:24:54.999Z</time></trkpt><trkpt lat="44.740473940897374" lon="9.413507377300915"><ele>556.0</ele><time>2026-04-11T10:24:55.999Z</time></trkpt><trkpt lat="44.740520403155884" lon="9.413615254152008"><ele>558.0</ele><time>2026-04-11T10:24:56.999Z</time></trkpt><trkpt lat="44.74053870135999" lon="9.413727514931692"><ele>560.0</ele><time>2026-04-11T10:24:57.999Z</time></trkpt><trkpt lat="44.740535913170355" lon="9.413819110820285"><ele>562.0</ele><time>2026-04-11T10:24:59Z</time></trkpt><trkpt lat="44.740523295674166" lon="9.413924370635948"><ele>563.5</ele><time>2026-04-11T10:25:00Z</time></trkpt><trkpt lat="44.74050231338429" lon="9.414030600934442"><ele>565.0</ele><time>2026-04-11T10:25:01Z</time></trkpt><trkpt lat="44.7404798616346" lon="9.41414792426907"><ele>566.5</ele><time>2026-04-11T10:25:03Z</time></trkpt><trkpt lat="44.740487915650995" lon="9.414259634585873"><ele>568.0</ele><time>2026-04-11T10:25:04Z</time></trkpt><trkpt lat="44.74050772881066" lon="9.41438576717462"><ele>569.5</ele><time>2026-04-11T10:25:05Z</time></trkpt><trkpt lat="44.740526808063436" lon="9.414494048002776"><ele>571.0</ele><time>2026-04-11T10:25:06Z</time></trkpt><trkpt lat="44.74051009587603" lon="9.41461899121883"><ele>569.1666666666667</ele><time>2026-04-11T10:25:07Z</time></trkpt><trkpt lat="44.740479922756016" lon="9.414726125682567"><ele>567.3333333333334</ele><time>2026-04-11T10:25:08Z</time></trkpt><trkpt lat="44.7404532710397" lon="9.414824640749618"><ele>565.5</ele><time>2026-04-11T10:25:09Z</time></trkpt><trkpt lat="44.74050838161453" lon="9.414917151121971"><ele>563.6666666666666</ele><time>2026-04-11T10:25:11Z</time></trkpt><trkpt lat="44.74061703137212" lon="9.414867171361548"><ele>561.8333333333333</ele><time>2026-04-11T10:25:13Z</time></trkpt><trkpt lat="44.74066987413778" lon="9.41479444872877"><ele>560.0</ele><time>2026-04-11T10:25:14Z</time></trkpt><trkpt lat="44.74070801169497" lon="9.41472286758293"><ele>560.0</ele><time>2026-04-11T10:25:15Z</time></trkpt><trkpt lat="44.740823384509675" lon="9.41467587115806"><ele>560.0</ele><time>2026-04-11T10:25:17Z</time></trkpt><trkpt lat="44.74089893331692" lon="9.414715669325796"><ele>560.0</ele><time>2026-04-11T10:25:18Z</time></trkpt><trkpt lat="44.74097560099213" lon="9.414735506210011"><ele>560.0</ele><time>2026-04-11T10:25:19Z</time></trkpt><trkpt lat="44.74108304516815" lon="9.414744369609833"><ele>560.0</ele><time>2026-04-11T10:25:20Z</time></trkpt><trkpt lat="44.7411874700462" lon="9.414749507552886"><ele>564.0</ele><time>2026-04-11T10:25:21Z</time></trkpt><trkpt lat="44.74127793691432" lon="9.414766500681205"><ele>568.0</ele><time>2026-04-11T10:25:22Z</time></trkpt><trkpt lat="44.74135683104318" lon="9.41479511547214"><ele>572.0</ele><time>2026-04-11T10:25:23Z</time></trkpt><trkpt lat="44.74143044597008" lon="9.414865899652495"><ele>576.0</ele><time>2026-04-11T10:25:24Z</time></trkpt><trkpt lat="44.741498837603594" lon="9.414924736243751"><ele>580.0</ele><time>2026-04-11T10:25:25Z</time></trkpt><trkpt lat="44.74157973217011" lon="9.414970753548374"><ele>584.0</ele><time>2026-04-11T10:25:26Z</time></trkpt><trkpt lat="44.741668331185515" lon="9.415034648637995"><ele>584.0</ele><time>2026-04-11T10:25:27Z</time></trkpt><trkpt lat="44.7417364057642" lon="9.41508128191666"><ele>584.0</ele><time>2026-04-11T10:25:28Z</time></trkpt><trkpt lat="44.74186462843405" lon="9.415143570084096"><ele>584.0</ele><time>2026-04-11T10:25:30Z</time></trkpt><trkpt lat="44.74193172087267" lon="9.415218656230676"><ele>584.0</ele><time>2026-04-11T10:25:31Z</time></trkpt><trkpt lat="44.74200893757252" lon="9.415307045804996"><ele>584.0</ele><time>2026-04-11T10:25:32Z</time></trkpt><trkpt lat="44.74209684142327" lon="9.415403822733218"><ele>585.8</ele><time>2026-04-11T10:25:33Z</time></trkpt><trkpt lat="44.7421810251408" lon="9.41548618345634"><ele>587.5999999999999</ele><time>2026-04-11T10:25:34Z</time></trkpt><trkpt lat="44.74226886792047" lon="9.415548044161483"><ele>589.4</ele><time>2026-04-11T10:25:35Z</time></trkpt><trkpt lat="44.74234633954382" lon="9.41560198423496"><ele>591.1999999999999</ele><time>2026-04-11T10:25:36Z</time></trkpt><trkpt lat="44.74241343924071" lon="9.415670547171922"><ele>593.0</ele><time>2026-04-11T10:25:37Z</time></trkpt><trkpt lat="44.74247598725031" lon="9.415768660536608"><ele>593.0</ele><time>2026-04-11T10:25:38Z</time></trkpt><trkpt lat="44.742553610771594" lon="9.415844343416717"><ele>593.0</ele><time>2026-04-11T10:25:39Z</time></trkpt><trkpt lat="44.742621200981624" lon="9.41593693354484"><ele>593.0</ele><time>2026-04-11T10:25:40Z</time></trkpt><trkpt lat="44.74267685253026" lon="9.416054102960693"><ele>593.0</ele><time>2026-04-11T10:25:41Z</time></trkpt><trkpt lat="44.742748390878035" lon="9.416161859403804"><ele>593.0</ele><time>2026-04-11T10:25:42Z</time></trkpt><trkpt lat="44.74282633549238" lon="9.41629772394753"><ele>595.5</ele><time>2026-04-11T10:25:43Z</time></trkpt><trkpt lat="44.74287213640389" lon="9.416431264691639"><ele>598.0</ele><time>2026-04-11T10:25:44Z</time></trkpt><trkpt lat="44.74290291482027" lon="9.416533622491434"><ele>600.5</ele><time>2026-04-11T10:25:45Z</time></trkpt><trkpt lat="44.74293769782659" lon="9.41662041223533"><ele>603.0</ele><time>2026-04-11T10:25:46Z</time></trkpt><trkpt lat="44.743001016870515" lon="9.416699209387728"><ele>605.5</ele><time>2026-04-11T10:25:47Z</time></trkpt><trkpt lat="44.74308234249792" lon="9.416785576116814"><ele>608.0</ele><time>2026-04-11T10:25:48Z</time></trkpt><trkpt lat="44.743150889441715" lon="9.416829280150997"><ele>608.0</ele><time>2026-04-11T10:25:49Z</time></trkpt><trkpt lat="44.74323703444951" lon="9.416853416356561"><ele>608.0</ele><time>2026-04-11T10:25:50Z</time></trkpt><trkpt lat="44.74334435296225" lon="9.416908251636247"><ele>608.0</ele><time>2026-04-11T10:25:51Z</time></trkpt><trkpt lat="44.74340777973037" lon="9.417017110748313"><ele>608.0</ele><time>2026-04-11T10:25:52Z</time></trkpt><trkpt lat="44.74349444201099" lon="9.417148518846131"><ele>608.0</ele><time>2026-04-11T10:25:53Z</time></trkpt><trkpt lat="44.74364143569395" lon="9.417154246575805"><ele>609.5</ele><time>2026-04-11T10:25:55Z</time></trkpt><trkpt lat="44.74374580287754" lon="9.417161322694703"><ele>611.0</ele><time>2026-04-11T10:25:56Z</time></trkpt><trkpt lat="44.74382440676243" lon="9.417153121254268"><ele>612.5</ele><time>2026-04-11T10:25:57Z</time></trkpt><trkpt lat="44.74388921272886" lon="9.417141441156835"><ele>614.0</ele><time>2026-04-11T10:25:58Z</time></trkpt><trkpt lat="44.743956613493886" lon="9.417134328384297"><ele>615.5</ele><time>2026-04-11T10:25:59Z</time></trkpt><trkpt lat="44.74404553470712" lon="9.417133071012051"><ele>617.0</ele><time>2026-04-11T10:26:00Z</time></trkpt><trkpt lat="44.744166039861085" lon="9.417140691488115"><ele>617.0</ele><time>2026-04-11T10:26:01Z</time></trkpt><trkpt lat="44.744285264550314" lon="9.417113999793925"><ele>617.0</ele><time>2026-04-11T10:26:02Z</time></trkpt><trkpt lat="44.74439429436625" lon="9.41705762997453"><ele>617.0</ele><time>2026-04-11T10:26:03Z</time></trkpt><trkpt lat="44.74450482829118" lon="9.417049626756022"><ele>617.0</ele><time>2026-04-11T10:26:04Z</time></trkpt><trkpt lat="44.74462172298704" lon="9.417129338696977"><ele>618.6</ele><time>2026-04-11T10:26:04.999Z</time></trkpt><trkpt lat="44.744736167097514" lon="9.417174766667385"><ele>620.2</ele><time>2026-04-11T10:26:05.999Z</time></trkpt><trkpt lat="44.74483786636595" lon="9.41722883554597"><ele>621.8</ele><time>2026-04-11T10:26:06.999Z</time></trkpt><trkpt lat="44.74493138905674" lon="9.417307997057568"><ele>623.4</ele><time>2026-04-11T10:26:07.999Z</time></trkpt><trkpt lat="44.745010034925905" lon="9.41738192041784"><ele>625.0</ele><time>2026-04-11T10:26:08.999Z</time></trkpt><trkpt lat="44.745102954321226" lon="9.417432122986899"><ele>625.0</ele><time>2026-04-11T10:26:09.999Z</time></trkpt><trkpt lat="44.74520276217891" lon="9.417495673619419"><ele>625.0</ele><time>2026-04-11T10:26:10.999Z</time></trkpt><trkpt lat="44.74526889888015" lon="9.417481076845393"><ele>625.0</ele><time>2026-04-11T10:26:11.999Z</time></trkpt><trkpt lat="44.74534825514418" lon="9.41731557443677"><ele>625.0</ele><time>2026-04-11T10:26:13.999Z</time></trkpt><trkpt lat="44.74537494976259" lon="9.417179097495707"><ele>625.0</ele><time>2026-04-11T10:26:14.999Z</time></trkpt><trkpt lat="44.745391262329974" lon="9.41701918194736"><ele>627.0</ele><time>2026-04-11T10:26:15.999Z</time></trkpt><trkpt lat="44.74541629684388" lon="9.41677322607729"><ele>629.0</ele><time>2026-04-11T10:26:16.999Z</time></trkpt><trkpt lat="44.74541765172862" lon="9.416606666769006"><ele>631.0</ele><time>2026-04-11T10:26:17.999Z</time></trkpt><trkpt lat="44.74541236736546" lon="9.416418625915206"><ele>633.0</ele><time>2026-04-11T10:26:18.999Z</time></trkpt><trkpt lat="44.745407760996294" lon="9.416255455803105"><ele>634.0</ele><time>2026-04-11T10:26:19.999Z</time></trkpt><trkpt lat="44.74540407326687" lon="9.416049404148627"><ele>635.0</ele><time>2026-04-11T10:26:20.999Z</time></trkpt><trkpt lat="44.74539793101672" lon="9.415891569126506"><ele>636.0</ele><time>2026-04-11T10:26:21.999Z</time></trkpt><trkpt lat="44.7453881517978" lon="9.415771495455074"><ele>637.0</ele><time>2026-04-11T10:26:22.999Z</time></trkpt><trkpt lat="44.745355424260595" lon="9.415641613881585"><ele>638.0</ele><time>2026-04-11T10:26:23.999Z</time></trkpt><trkpt lat="44.74528137975105" lon="9.415561564977828"><ele>638.1999999999999</ele><time>2026-04-11T10:26:24.999Z</time></trkpt><trkpt lat="44.74520658799565" lon="9.415488814817262"><ele>638.4</ele><time>2026-04-11T10:26:25.999Z</time></trkpt><trkpt lat="44.745118378751705" lon="9.415419646305974"><ele>638.5999999999999</ele><time>2026-04-11T10:26:26.999Z</time></trkpt><trkpt lat="44.74504372183928" lon="9.415300561303395"><ele>638.8</ele><time>2026-04-11T10:26:27.999Z</time></trkpt><trkpt lat="44.74496060379298" lon="9.415187365585009"><ele>639.0</ele><time>2026-04-11T10:26:28.999Z</time></trkpt><trkpt lat="44.74488114857921" lon="9.415069622266216"><ele>639.0</ele><time>2026-04-11T10:26:29.999Z</time></trkpt><trkpt lat="44.74480544189735" lon="9.414955929805105"><ele>639.0</ele><time>2026-04-11T10:26:30.999Z</time></trkpt><trkpt lat="44.744761538346985" lon="9.414882026020292"><ele>639.0</ele><time>2026-04-11T10:26:31.999Z</time></trkpt><trkpt lat="44.744751103726735" lon="9.414781826076277"><ele>639.0</ele><time>2026-04-11T10:26:34.999Z</time></trkpt><trkpt lat="44.744824223201434" lon="9.414753352756193"><ele>639.0</ele><time>2026-04-11T10:26:35.999Z</time></trkpt><trkpt lat="44.74486327975181" lon="9.414664970978565"><ele>639.0</ele><time>2026-04-11T10:26:36.999Z</time></trkpt><trkpt lat="44.74493723315342" lon="9.414631610976855"><ele>639.0</ele><time>2026-04-11T10:26:37.999Z</time></trkpt><trkpt lat="44.745026348669704" lon="9.41467197796523"><ele>639.0</ele><time>2026-04-11T10:26:38.999Z</time></trkpt><trkpt lat="44.74512783542261" lon="9.414702544867367"><ele>639.0</ele><time>2026-04-11T10:26:39.999Z</time></trkpt><trkpt lat="44.745233752399365" lon="9.414742898171173"><ele>639.0</ele><time>2026-04-11T10:26:40.999Z</time></trkpt><trkpt lat="44.74535514398445" lon="9.414793690594772"><ele>639.0</ele><time>2026-04-11T10:26:41.999Z</time></trkpt><trkpt lat="44.74548189535731" lon="9.414843358004706"><ele>640.25</ele><time>2026-04-11T10:26:42.999Z</time></trkpt><trkpt lat="44.74560897869826" lon="9.414925620663247"><ele>641.5</ele><time>2026-04-11T10:26:43.999Z</time></trkpt><trkpt lat="44.745726171414" lon="9.41503693878458"><ele>642.75</ele><time>2026-04-11T10:26:44.999Z</time></trkpt><trkpt lat="44.74583168122244" lon="9.415180782419283"><ele>644.0</ele><time>2026-04-11T10:26:45.999Z</time></trkpt><trkpt lat="44.74592458743907" lon="9.41531536518496"><ele>644.0</ele><time>2026-04-11T10:26:46.999Z</time></trkpt><trkpt lat="44.74599437552137" lon="9.415413991500564"><ele>644.0</ele><time>2026-04-11T10:26:47.999Z</time></trkpt><trkpt lat="44.74605450101484" lon="9.415494312746528"><ele>644.0</ele><time>2026-04-11T10:26:48.999Z</time></trkpt><trkpt lat="44.746111571523834" lon="9.415570004697216"><ele>644.0</ele><time>2026-04-11T10:26:49.999Z</time></trkpt><trkpt lat="44.746168920088216" lon="9.415625903162828"><ele>644.0</ele><time>2026-04-11T10:26:50.999Z</time></trkpt><trkpt lat="44.746276857019865" lon="9.415669334047097"><ele>644.0</ele><time>2026-04-11T10:26:52.999Z</time></trkpt><trkpt lat="44.74637389168244" lon="9.415669860825645"><ele>645.6</ele><time>2026-04-11T10:26:54.999Z</time></trkpt><trkpt lat="44.746499200223205" lon="9.415609264994846"><ele>647.2</ele><time>2026-04-11T10:26:56.999Z</time></trkpt><trkpt lat="44.746560839528684" lon="9.415576462330234"><ele>648.8000000000001</ele><time>2026-04-11T10:26:57.999Z</time></trkpt><trkpt lat="44.7466547024394" lon="9.415560075152296"><ele>650.4000000000001</ele><time>2026-04-11T10:26:59.999Z</time></trkpt><trkpt lat="44.746585657287035" lon="9.415591766209527"><ele>652.0</ele><time>2026-04-11T10:27:09Z</time></trkpt><trkpt lat="44.74646649647877" lon="9.41558252958575"><ele>652.0</ele><time>2026-04-11T10:27:10Z</time></trkpt><trkpt lat="44.746349596412216" lon="9.41563214279269"><ele>652.0</ele><time>2026-04-11T10:27:11Z</time></trkpt><trkpt lat="44.74623924258318" lon="9.415638950224615"><ele>652.0</ele><time>2026-04-11T10:27:12Z</time></trkpt><trkpt lat="44.74614083103171" lon="9.415596967602195"><ele>652.0</ele><time>2026-04-11T10:27:13Z</time></trkpt><trkpt lat="44.74606577193345" lon="9.415449561181847"><ele>650.0</ele><time>2026-04-11T10:27:14Z</time></trkpt><trkpt lat="44.74596736694689" lon="9.41531972793541"><ele>648.0</ele><time>2026-04-11T10:27:15Z</time></trkpt><trkpt lat="44.74587585810745" lon="9.41520474240229"><ele>646.0</ele><time>2026-04-11T10:27:16Z</time></trkpt><trkpt lat="44.74579748257393" lon="9.415090420984288"><ele>644.0</ele><time>2026-04-11T10:27:17Z</time></trkpt><trkpt lat="44.74571956438101" lon="9.414991275242691"><ele>644.0</ele><time>2026-04-11T10:27:18Z</time></trkpt><trkpt lat="44.74581314954642" lon="9.41490222795265"><ele>644.0</ele><time>2026-04-11T10:27:23Z</time></trkpt><trkpt lat="44.74589420135661" lon="9.414903987386083"><ele>644.0</ele><time>2026-04-11T10:27:24Z</time></trkpt><trkpt lat="44.745981694341324" lon="9.414894082294731"><ele>644.0</ele><time>2026-04-11T10:27:25Z</time></trkpt><trkpt lat="44.74605862491789" lon="9.414896389206028"><ele>644.0</ele><time>2026-04-11T10:27:26Z</time></trkpt><trkpt lat="44.746192453848664" lon="9.414923351982477"><ele>646.4285714285714</ele><time>2026-04-11T10:27:28Z</time></trkpt><trkpt lat="44.746266366929426" lon="9.414955911901098"><ele>648.8571428571429</ele><time>2026-04-11T10:27:29Z</time></trkpt><trkpt lat="44.74632197839903" lon="9.415035032393932"><ele>651.2857142857142</ele><time>2026-04-11T10:27:30Z</time></trkpt><trkpt lat="44.74638097500975" lon="9.415101588222884"><ele>653.7142857142858</ele><time>2026-04-11T10:27:31Z</time></trkpt><trkpt lat="44.74645263452007" lon="9.415145933315753"><ele>656.1428571428571</ele><time>2026-04-11T10:27:32Z</time></trkpt><trkpt lat="44.74651586925193" lon="9.41519279411059"><ele>658.5714285714286</ele><time>2026-04-11T10:27:33Z</time></trkpt><trkpt lat="44.746577638063975" lon="9.415212650701614"><ele>661.0</ele><time>2026-04-11T10:27:34Z</time></trkpt><trkpt lat="44.746643057913424" lon="9.415208096945712"><ele>661.0</ele><time>2026-04-11T10:27:35Z</time></trkpt><trkpt lat="44.74671764901421" lon="9.415172433835949"><ele>661.0</ele><time>2026-04-11T10:27:36Z</time></trkpt><trkpt lat="44.74679282313585" lon="9.415129233285315"><ele>661.0</ele><time>2026-04-11T10:27:37Z</time></trkpt><trkpt lat="44.74687775333159" lon="9.415114961893453"><ele>661.0</ele><time>2026-04-11T10:27:38Z</time></trkpt><trkpt lat="44.74696968489124" lon="9.41508971041247"><ele>661.0</ele><time>2026-04-11T10:27:39Z</time></trkpt><trkpt lat="44.74706081669407" lon="9.415049460807088"><ele>661.0</ele><time>2026-04-11T10:27:40Z</time></trkpt><trkpt lat="44.74715319618725" lon="9.415035200426551"><ele>662.8333333333334</ele><time>2026-04-11T10:27:41Z</time></trkpt><trkpt lat="44.747243575826246" lon="9.415013330242553"><ele>664.6666666666667</ele><time>2026-04-11T10:27:42Z</time></trkpt><trkpt lat="44.74732139755005" lon="9.414996450007838"><ele>666.5</ele><time>2026-04-11T10:27:43Z</time></trkpt><trkpt lat="44.74739161054057" lon="9.415000606987237"><ele>668.3333333333334</ele><time>2026-04-11T10:27:44Z</time></trkpt><trkpt lat="44.747495674715005" lon="9.41493171715366"><ele>670.1666666666666</ele><time>2026-04-11T10:27:46Z</time></trkpt><trkpt lat="44.74756125657401" lon="9.41484508347047"><ele>672.0</ele><time>2026-04-11T10:27:47Z</time></trkpt><trkpt lat="44.74763903876107" lon="9.414760016365186"><ele>672.0</ele><time>2026-04-11T10:27:48Z</time></trkpt><trkpt lat="44.747706203082586" lon="9.414715323354189"><ele>672.0</ele><time>2026-04-11T10:27:49Z</time></trkpt><trkpt lat="44.74778380992494" lon="9.414749032679412"><ele>672.0</ele><time>2026-04-11T10:27:50Z</time></trkpt><trkpt lat="44.74790645982199" lon="9.414714477953213"><ele>672.0</ele><time>2026-04-11T10:27:52Z</time></trkpt><trkpt lat="44.74797846692365" lon="9.414502880997219"><ele>672.0</ele><time>2026-04-11T10:27:54Z</time></trkpt><trkpt lat="44.74800279341934" lon="9.414387608348887"><ele>676.8</ele><time>2026-04-11T10:27:55Z</time></trkpt><trkpt lat="44.748036000120074" lon="9.41425505869124"><ele>681.6</ele><time>2026-04-11T10:27:57Z</time></trkpt><trkpt lat="44.7480888428361" lon="9.414127164123085"><ele>686.4</ele><time>2026-04-11T10:27:59Z</time></trkpt><trkpt lat="44.7481966612413" lon="9.414197850139315"><ele>691.1999999999999</ele><time>2026-04-11T10:28:02.999Z</time></trkpt><trkpt lat="44.748258935236656" lon="9.41417040622727"><ele>696.0</ele><time>2026-04-11T10:28:04.999Z</time></trkpt><trkpt lat="44.74835502423469" lon="9.414211166137783"><ele>696.0</ele><time>2026-04-11T10:28:41.999Z</time></trkpt><trkpt lat="44.74842293388702" lon="9.414251487701703"><ele>696.0</ele><time>2026-04-11T10:30:41.999Z</time></trkpt><trkpt lat="44.7484949967014" lon="9.414291124940766"><ele>696.0</ele><time>2026-04-11T10:30:42.999Z</time></trkpt><trkpt lat="44.74858512536681" lon="9.414334643893731"><ele>696.0</ele><time>2026-04-11T10:30:43.999Z</time></trkpt><trkpt lat="44.74865586793275" lon="9.414374997527736"><ele>696.0</ele><time>2026-04-11T10:30:44.999Z</time></trkpt><trkpt lat="44.748724421390946" lon="9.414418976002958"><ele>696.0</ele><time>2026-04-11T10:30:45.999Z</time></trkpt><trkpt lat="44.74883447009892" lon="9.414520125894903"><ele>699.4</ele><time>2026-04-11T10:30:47.999Z</time></trkpt><trkpt lat="44.74893996722339" lon="9.41462371929682"><ele>702.8</ele><time>2026-04-11T10:30:49.999Z</time></trkpt><trkpt lat="44.749001771567166" lon="9.414678576193849"><ele>706.1999999999999</ele><time>2026-04-11T10:30:50.999Z</time></trkpt><trkpt lat="44.74906888486676" lon="9.414739790468715"><ele>709.5999999999999</ele><time>2026-04-11T10:30:51.999Z</time></trkpt><trkpt lat="44.749129633955" lon="9.414821964744796"><ele>713.0</ele><time>2026-04-11T10:30:52.999Z</time></trkpt><trkpt lat="44.749173850138725" lon="9.414969432060676"><ele>713.0</ele><time>2026-04-11T10:30:54.999Z</time></trkpt><trkpt lat="44.74922754079323" lon="9.415125583764043"><ele>713.0</ele><time>2026-04-11T10:30:56.999Z</time></trkpt><trkpt lat="44.749315093375884" lon="9.41517201762293"><ele>713.0</ele><time>2026-04-11T10:30:57.999Z</time></trkpt><trkpt lat="44.7493743579582" lon="9.415243975171906"><ele>713.0</ele><time>2026-04-11T10:30:58.999Z</time></trkpt><trkpt lat="44.74949416045595" lon="9.41525632735402"><ele>713.0</ele><time>2026-04-11T10:31:00.999Z</time></trkpt><trkpt lat="44.74955945761229" lon="9.41528744876"><ele>716.5</ele><time>2026-04-11T10:31:01.999Z</time></trkpt><trkpt lat="44.74961718082376" lon="9.41534115826122"><ele>720.0</ele><time>2026-04-11T10:31:02.999Z</time></trkpt><trkpt lat="44.74968623517076" lon="9.415383787941108"><ele>723.5</ele><time>2026-04-11T10:31:03.999Z</time></trkpt><trkpt lat="44.749802076095094" lon="9.415467777596046"><ele>727.0</ele><time>2026-04-11T10:31:05.999Z</time></trkpt><trkpt lat="44.74987305900322" lon="9.415562062806767"><ele>730.5</ele><time>2026-04-11T10:31:06.999Z</time></trkpt><trkpt lat="44.74991796159895" lon="9.415633323137818"><ele>734.0</ele><time>2026-04-11T10:31:07.999Z</time></trkpt><trkpt lat="44.7499778788911" lon="9.415671708152772"><ele>734.0</ele><time>2026-04-11T10:31:08.999Z</time></trkpt><trkpt lat="44.7500468031899" lon="9.415668017214907"><ele>734.0</ele><time>2026-04-11T10:31:09.999Z</time></trkpt><trkpt lat="44.75011305475296" lon="9.415633651548308"><ele>734.0</ele><time>2026-04-11T10:31:10.999Z</time></trkpt><trkpt lat="44.7501586001135" lon="9.415561915795491"><ele>734.0</ele><time>2026-04-11T10:31:11.999Z</time></trkpt><trkpt lat="44.750266942537216" lon="9.415484454272988"><ele>734.0</ele><time>2026-04-11T10:31:13.999Z</time></trkpt><trkpt lat="44.75033187152058" lon="9.41551843570474"><ele>734.0</ele><time>2026-04-11T10:31:14.999Z</time></trkpt><trkpt lat="44.75039359378586" lon="9.41558906332277"><ele>737.1666666666666</ele><time>2026-04-11T10:31:15.999Z</time></trkpt><trkpt lat="44.75047453534072" lon="9.415621233708945"><ele>740.3333333333333</ele><time>2026-04-11T10:31:17Z</time></trkpt><trkpt lat="44.75055299260796" lon="9.415612823902482"><ele>743.5</ele><time>2026-04-11T10:31:18Z</time></trkpt><trkpt lat="44.75061343841659" lon="9.415580452324955"><ele>746.6666666666666</ele><time>2026-04-11T10:31:19Z</time></trkpt><trkpt lat="44.75067577722431" lon="9.4155479406567"><ele>749.8333333333334</ele><time>2026-04-11T10:31:20Z</time></trkpt><trkpt lat="44.75074956352652" lon="9.415539394442272"><ele>753.0</ele><time>2026-04-11T10:31:21Z</time></trkpt><trkpt lat="44.75088476935982" lon="9.415508617709907"><ele>753.0</ele><time>2026-04-11T10:31:23Z</time></trkpt><trkpt lat="44.75096487847176" lon="9.415582062932469"><ele>753.0</ele><time>2026-04-11T10:31:24.999Z</time></trkpt><trkpt lat="44.75098868305252" lon="9.415665746501086"><ele>753.0</ele><time>2026-04-11T10:31:26Z</time></trkpt><trkpt lat="44.75101939071836" lon="9.415762638081803"><ele>753.0</ele><time>2026-04-11T10:31:27Z</time></trkpt><trkpt lat="44.751060375205405" lon="9.41586601590687"><ele>753.0</ele><time>2026-04-11T10:31:28Z</time></trkpt><trkpt lat="44.75111618530606" lon="9.415953765407496"><ele>753.0</ele><time>2026-04-11T10:31:29Z</time></trkpt><trkpt lat="44.75120673060308" lon="9.415972496004175"><ele>754.8</ele><time>2026-04-11T10:31:31Z</time></trkpt><trkpt lat="44.75128479661428" lon="9.416030499571864"><ele>756.5999999999999</ele><time>2026-04-11T10:31:33Z</time></trkpt><trkpt lat="44.75132747745161" lon="9.416190858452772"><ele>758.4000000000001</ele><time>2026-04-11T10:31:35Z</time></trkpt><trkpt lat="44.751410772702584" lon="9.416278517836416"><ele>760.2</ele><time>2026-04-11T10:31:37Z</time></trkpt><trkpt lat="44.751499973671336" lon="9.416319308352918"><ele>762.0</ele><time>2026-04-11T10:31:39Z</time></trkpt><trkpt lat="44.75160102563851" lon="9.41639714916645"><ele>762.0</ele><time>2026-04-11T10:31:41Z</time></trkpt><trkpt lat="44.751703458240314" lon="9.416397588757583"><ele>762.0</ele><time>2026-04-11T10:31:43Z</time></trkpt><trkpt lat="44.75177182228304" lon="9.41641040473874"><ele>762.0</ele><time>2026-04-11T10:31:44Z</time></trkpt><trkpt lat="44.75183322890417" lon="9.416452063437227"><ele>762.0</ele><time>2026-04-11T10:31:48Z</time></trkpt><trkpt lat="44.75189321331001" lon="9.416481350430981"><ele>762.0</ele><time>2026-04-11T10:31:51Z</time></trkpt><trkpt lat="44.751952551679494" lon="9.416533013895792"><ele>762.0</ele><time>2026-04-11T10:31:53Z</time></trkpt><trkpt lat="44.75204290575858" lon="9.416611735335273"><ele>759.8</ele><time>2026-04-11T10:31:55Z</time></trkpt><trkpt lat="44.75212534326483" lon="9.416708982137177"><ele>757.6</ele><time>2026-04-11T10:31:57Z</time></trkpt><trkpt lat="44.7521980013444" lon="9.416809272233637"><ele>755.4</ele><time>2026-04-11T10:31:58.999Z</time></trkpt><trkpt lat="44.752274293252" lon="9.416900570671539"><ele>753.1999999999999</ele><time>2026-04-11T10:32:00.999Z</time></trkpt><trkpt lat="44.75231757252898" lon="9.416989010191964"><ele>751.0</ele><time>2026-04-11T10:32:01.999Z</time></trkpt><trkpt lat="44.752358866413864" lon="9.41708013692076"><ele>751.6666666666667</ele><time>2026-04-11T10:32:02.999Z</time></trkpt><trkpt lat="44.75241945647312" lon="9.41718525160656"><ele>752.3333333333334</ele><time>2026-04-11T10:32:03.999Z</time></trkpt><trkpt lat="44.75246450938415" lon="9.417253501184126"><ele>753.0</ele><time>2026-04-11T10:32:04.999Z</time></trkpt><trkpt lat="44.752513779952636" lon="9.4173249318618"><ele>753.6666666666666</ele><time>2026-04-11T10:32:05.999Z</time></trkpt><trkpt lat="44.75260923688452" lon="9.417440586613763"><ele>754.3333333333333</ele><time>2026-04-11T10:32:07.999Z</time></trkpt><trkpt lat="44.75267147298744" lon="9.41747523494216"><ele>755.0</ele><time>2026-04-11T10:32:08.999Z</time></trkpt><trkpt lat="44.752744084450725" lon="9.417490797926753"><ele>753.0</ele><time>2026-04-11T10:32:09.999Z</time></trkpt><trkpt lat="44.75281366808509" lon="9.417487256379408"><ele>751.0</ele><time>2026-04-11T10:32:10.999Z</time></trkpt><trkpt lat="44.75288884478052" lon="9.417496398549892"><ele>749.0</ele><time>2026-04-11T10:32:11.999Z</time></trkpt><trkpt lat="44.752959628514006" lon="9.417483548845262"><ele>747.0</ele><time>2026-04-11T10:32:12.999Z</time></trkpt><trkpt lat="44.7530234676888" lon="9.4174611865418"><ele>745.0</ele><time>2026-04-11T10:32:13.999Z</time></trkpt><trkpt lat="44.75308990207353" lon="9.417456459033822"><ele>743.0</ele><time>2026-04-11T10:32:14.999Z</time></trkpt><trkpt lat="44.75316164992712" lon="9.417473697488091"><ele>741.0</ele><time>2026-04-11T10:32:15.999Z</time></trkpt><trkpt lat="44.75324110805667" lon="9.41748222919036"><ele>741.0</ele><time>2026-04-11T10:32:16.999Z</time></trkpt><trkpt lat="44.75330646494582" lon="9.417494639861468"><ele>741.0</ele><time>2026-04-11T10:32:17.999Z</time></trkpt><trkpt lat="44.75337618431916" lon="9.417498700722705"><ele>741.0</ele><time>2026-04-11T10:32:18.999Z</time></trkpt><trkpt lat="44.75345530722603" lon="9.417499290486147"><ele>741.0</ele><time>2026-04-11T10:32:19.999Z</time></trkpt><trkpt lat="44.75359262716513" lon="9.417433299250776"><ele>741.0</ele><time>2026-04-11T10:32:21.999Z</time></trkpt><trkpt lat="44.75369448097095" lon="9.417348349969819"><ele>740.3333333333334</ele><time>2026-04-11T10:32:23.999Z</time></trkpt><trkpt lat="44.753805140182344" lon="9.417241595820592"><ele>739.6666666666666</ele><time>2026-04-11T10:32:25.999Z</time></trkpt><trkpt lat="44.75385853037571" lon="9.417184464369988"><ele>739.0</ele><time>2026-04-11T10:32:26.999Z</time></trkpt><trkpt lat="44.753917014438855" lon="9.417138481752586"><ele>738.3333333333333</ele><time>2026-04-11T10:32:27.999Z</time></trkpt><trkpt lat="44.75397095699255" lon="9.41706342519584"><ele>737.6666666666666</ele><time>2026-04-11T10:32:28.999Z</time></trkpt><trkpt lat="44.75404761336734" lon="9.416992718118872"><ele>737.0</ele><time>2026-04-11T10:32:29.999Z</time></trkpt><trkpt lat="44.75411227226656" lon="9.416924097790918"><ele>736.1666666666666</ele><time>2026-04-11T10:32:30.999Z</time></trkpt><trkpt lat="44.75416861450284" lon="9.416840459926844"><ele>735.3333333333333</ele><time>2026-04-11T10:32:31.999Z</time></trkpt><trkpt lat="44.75425046845199" lon="9.416804044282525"><ele>734.5</ele><time>2026-04-11T10:32:32.999Z</time></trkpt><trkpt lat="44.75431397173259" lon="9.416730724650035"><ele>733.6666666666666</ele><time>2026-04-11T10:32:33.999Z</time></trkpt><trkpt lat="44.754366983268504" lon="9.416669518112341"><ele>732.8333333333334</ele><time>2026-04-11T10:32:34.999Z</time></trkpt><trkpt lat="44.75446024436664" lon="9.4165618398666"><ele>732.0</ele><time>2026-04-11T10:32:36.999Z</time></trkpt><trkpt lat="44.754554631937786" lon="9.416452854622253"><ele>731.6666666666666</ele><time>2026-04-11T10:32:38.999Z</time></trkpt><trkpt lat="44.75460991049281" lon="9.416388989055287"><ele>731.3333333333334</ele><time>2026-04-11T10:32:39.999Z</time></trkpt><trkpt lat="44.75470823788545" lon="9.416275387505047"><ele>731.0</ele><time>2026-04-11T10:32:41.999Z</time></trkpt><trkpt lat="44.75476133604315" lon="9.416211060521444"><ele>730.6666666666667</ele><time>2026-04-11T10:32:42.999Z</time></trkpt><trkpt lat="44.75481953113688" lon="9.416138236099478"><ele>730.3333333333334</ele><time>2026-04-11T10:32:43.999Z</time></trkpt><trkpt lat="44.75490586079967" lon="9.416067887708138"><ele>730.0</ele><time>2026-04-11T10:32:45.999Z</time></trkpt><trkpt lat="44.75499507336057" lon="9.416031535942032"><ele>729.0</ele><time>2026-04-11T10:32:47.999Z</time></trkpt><trkpt lat="44.75510972021741" lon="9.41595906930007"><ele>728.0</ele><time>2026-04-11T10:32:49.999Z</time></trkpt><trkpt lat="44.75520653315355" lon="9.415914686398754"><ele>727.0</ele><time>2026-04-11T10:32:51.999Z</time></trkpt><trkpt lat="44.755283590001945" lon="9.415890893928946"><ele>726.0</ele><time>2026-04-11T10:32:55.999Z</time></trkpt><trkpt lat="44.75535096741395" lon="9.41586373217839"><ele>725.0</ele><time>2026-04-11T10:32:56.999Z</time></trkpt><trkpt lat="44.75540157468019" lon="9.41580785449939"><ele>724.0</ele><time>2026-04-11T10:32:58.999Z</time></trkpt><trkpt lat="44.75534640647647" lon="9.41570179379199"><ele>722.4000000000001</ele><time>2026-04-11T10:32:59.999Z</time></trkpt><trkpt lat="44.75528728678854" lon="9.415615495936715"><ele>720.8</ele><time>2026-04-11T10:33:00.999Z</time></trkpt><trkpt lat="44.755249878615196" lon="9.415528111909975"><ele>719.2</ele><time>2026-04-11T10:33:01.999Z</time></trkpt><trkpt lat="44.75516884454392" lon="9.41541515669583"><ele>717.5999999999999</ele><time>2026-04-11T10:33:03.999Z</time></trkpt><trkpt lat="44.755083224410996" lon="9.415338140270844"><ele>716.0</ele><time>2026-04-11T10:33:05.999Z</time></trkpt><trkpt lat="44.754974904393634" lon="9.415287632564743"><ele>715.5999999999999</ele><time>2026-04-11T10:33:07.999Z</time></trkpt><trkpt lat="44.754910225524945" lon="9.415283483786228"><ele>715.2</ele><time>2026-04-11T10:33:08.999Z</time></trkpt><trkpt lat="44.754826205420436" lon="9.415277058327542"><ele>714.8</ele><time>2026-04-11T10:33:09.999Z</time></trkpt><trkpt lat="44.75473323391691" lon="9.415242092369201"><ele>714.4000000000001</ele><time>2026-04-11T10:33:10.999Z</time></trkpt><trkpt lat="44.754631221680036" lon="9.415205627999462"><ele>714.0</ele><time>2026-04-11T10:33:11.999Z</time></trkpt><trkpt lat="44.7545285157766" lon="9.415130810878786"><ele>714.0</ele><time>2026-04-11T10:33:12.999Z</time></trkpt><trkpt lat="44.7544371590375" lon="9.415036187827472"><ele>714.0</ele><time>2026-04-11T10:33:13.999Z</time></trkpt><trkpt lat="44.75435524648066" lon="9.414925422953335"><ele>714.0</ele><time>2026-04-11T10:33:14.999Z</time></trkpt><trkpt lat="44.75427014318304" lon="9.414813695769904"><ele>714.0</ele><time>2026-04-11T10:33:15.999Z</time></trkpt><trkpt lat="44.7542148825342" lon="9.414658808039126"><ele>713.0</ele><time>2026-04-11T10:33:16.999Z</time></trkpt><trkpt lat="44.754191776532856" lon="9.414524806567107"><ele>712.0</ele><time>2026-04-11T10:33:17.998Z</time></trkpt><trkpt lat="44.754152635992504" lon="9.414367395556285"><ele>711.0</ele><time>2026-04-11T10:33:18.998Z</time></trkpt><trkpt lat="44.754120372641715" lon="9.414193954101872"><ele>710.0</ele><time>2026-04-11T10:33:19.998Z</time></trkpt><trkpt lat="44.7540991947903" lon="9.414017541302528"><ele>710.0</ele><time>2026-04-11T10:33:20.998Z</time></trkpt><trkpt lat="44.75409784575856" lon="9.413834628972602"><ele>710.0</ele><time>2026-04-11T10:33:21.998Z</time></trkpt><trkpt lat="44.754099526228046" lon="9.413645538917072"><ele>710.0</ele><time>2026-04-11T10:33:22.999Z</time></trkpt><trkpt lat="44.75408941656415" lon="9.4134593225277"><ele>710.0</ele><time>2026-04-11T10:33:23.999Z</time></trkpt><trkpt lat="44.75410256874693" lon="9.413280207285467"><ele>710.0</ele><time>2026-04-11T10:33:24.999Z</time></trkpt><trkpt lat="44.75411709045424" lon="9.413101194844312"><ele>710.0</ele><time>2026-04-11T10:33:25.999Z</time></trkpt><trkpt lat="44.75413998932627" lon="9.412922233929672"><ele>710.0</ele><time>2026-04-11T10:33:26.999Z</time></trkpt><trkpt lat="44.754189500011044" lon="9.41274821276786"><ele>710.0</ele><time>2026-04-11T10:33:27.999Z</time></trkpt><trkpt lat="44.754224848157726" lon="9.412567899653668"><ele>710.0</ele><time>2026-04-11T10:33:29Z</time></trkpt><trkpt lat="44.75426007398032" lon="9.41238920890818"><ele>710.0</ele><time>2026-04-11T10:33:30Z</time></trkpt><trkpt lat="44.75429861216482" lon="9.412195815702482"><ele>710.0</ele><time>2026-04-11T10:33:31Z</time></trkpt><trkpt lat="44.75433521442749" lon="9.41200007565218"><ele>710.0</ele><time>2026-04-11T10:33:32Z</time></trkpt><trkpt lat="44.75437183679446" lon="9.411808491139862"><ele>708.5</ele><time>2026-04-11T10:33:33Z</time></trkpt><trkpt lat="44.754411631092935" lon="9.411612849058715"><ele>707.0</ele><time>2026-04-11T10:33:34Z</time></trkpt><trkpt lat="44.75445045668772" lon="9.411416970106462"><ele>705.5</ele><time>2026-04-11T10:33:35Z</time></trkpt><trkpt lat="44.754471540221175" lon="9.411248550887192"><ele>704.0</ele><time>2026-04-11T10:33:36Z</time></trkpt><trkpt lat="44.75450713346066" lon="9.411039127524091"><ele>704.0</ele><time>2026-04-11T10:33:37Z</time></trkpt><trkpt lat="44.7545348258822" lon="9.410867453906024"><ele>704.0</ele><time>2026-04-11T10:33:38Z</time></trkpt><trkpt lat="44.75454718282928" lon="9.410726992768938"><ele>704.0</ele><time>2026-04-11T10:33:39Z</time></trkpt><trkpt lat="44.75452790668496" lon="9.410620272295692"><ele>704.0</ele><time>2026-04-11T10:33:40Z</time></trkpt><trkpt lat="44.75447115115102" lon="9.410521537096306"><ele>704.0</ele><time>2026-04-11T10:33:41Z</time></trkpt><trkpt lat="44.75435497561942" lon="9.41048753861357"><ele>704.4000000000001</ele><time>2026-04-11T10:33:42Z</time></trkpt><trkpt lat="44.75426603445862" lon="9.410482208064336"><ele>704.8</ele><time>2026-04-11T10:33:43Z</time></trkpt><trkpt lat="44.754172741723124" lon="9.410486867186824"><ele>705.2</ele><time>2026-04-11T10:33:44Z</time></trkpt><trkpt lat="44.754073519081366" lon="9.410465406390394"><ele>705.5999999999999</ele><time>2026-04-11T10:33:45Z</time></trkpt><trkpt lat="44.75397809789334" lon="9.410421313584697"><ele>706.0</ele><time>2026-04-11T10:33:46Z</time></trkpt><trkpt lat="44.75385325953235" lon="9.41032694251284"><ele>706.0</ele><time>2026-04-11T10:33:47Z</time></trkpt><trkpt lat="44.7537189534707" lon="9.410236961855366"><ele>706.0</ele><time>2026-04-11T10:33:48Z</time></trkpt><trkpt lat="44.753611653481464" lon="9.410150426079166"><ele>706.0</ele><time>2026-04-11T10:33:49Z</time></trkpt><trkpt lat="44.7534966190751" lon="9.410101732648208"><ele>706.0</ele><time>2026-04-11T10:33:50Z</time></trkpt><trkpt lat="44.75337441144567" lon="9.410078818990648"><ele>708.4</ele><time>2026-04-11T10:33:51Z</time></trkpt><trkpt lat="44.753264545906916" lon="9.41007655047225"><ele>710.8</ele><time>2026-04-11T10:33:52Z</time></trkpt><trkpt lat="44.753170626480866" lon="9.410103765677004"><ele>713.1999999999999</ele><time>2026-04-11T10:33:53Z</time></trkpt><trkpt lat="44.75308792809459" lon="9.41017714104569"><ele>715.5999999999999</ele><time>2026-04-11T10:33:54Z</time></trkpt><trkpt lat="44.752997499170256" lon="9.410256940926315"><ele>718.0</ele><time>2026-04-11T10:33:55Z</time></trkpt><trkpt lat="44.75290860100255" lon="9.410268705281435"><ele>718.0</ele><time>2026-04-11T10:33:56Z</time></trkpt><trkpt lat="44.75283756367572" lon="9.410197131672762"><ele>718.0</ele><time>2026-04-11T10:33:57Z</time></trkpt><trkpt lat="44.75279526897733" lon="9.410059576937561"><ele>718.0</ele><time>2026-04-11T10:33:58Z</time></trkpt><trkpt lat="44.75271104643926" lon="9.409939094859736"><ele>718.0</ele><time>2026-04-11T10:33:59Z</time></trkpt><trkpt lat="44.75263224473854" lon="9.409788032669374"><ele>718.0</ele><time>2026-04-11T10:34:00Z</time></trkpt><trkpt lat="44.75255528981357" lon="9.409630317368372"><ele>718.0</ele><time>2026-04-11T10:34:01Z</time></trkpt><trkpt lat="44.75253011934189" lon="9.40944222978932"><ele>718.0</ele><time>2026-04-11T10:34:02Z</time></trkpt><trkpt lat="44.752516875147194" lon="9.409251886993545"><ele>718.0</ele><time>2026-04-11T10:34:03Z</time></trkpt><trkpt lat="44.75248983035793" lon="9.409083317224175"><ele>718.0</ele><time>2026-04-11T10:34:04Z</time></trkpt><trkpt lat="44.752430871886425" lon="9.408944351201395"><ele>718.0</ele><time>2026-04-11T10:34:05Z</time></trkpt><trkpt lat="44.75236133504468" lon="9.408839034052997"><ele>718.0</ele><time>2026-04-11T10:34:06Z</time></trkpt><trkpt lat="44.75229111218153" lon="9.408781332259348"><ele>718.0</ele><time>2026-04-11T10:34:07Z</time></trkpt><trkpt lat="44.752213315924635" lon="9.408778619373383"><ele>718.0</ele><time>2026-04-11T10:34:08Z</time></trkpt><trkpt lat="44.752132710874385" lon="9.408828633913823"><ele>718.0</ele><time>2026-04-11T10:34:09Z</time></trkpt><trkpt lat="44.7520382997429" lon="9.40892967802997"><ele>718.0</ele><time>2026-04-11T10:34:10Z</time></trkpt><trkpt lat="44.751930191577" lon="9.409044060304902"><ele>718.0</ele><time>2026-04-11T10:34:11Z</time></trkpt><trkpt lat="44.75178782457021" lon="9.409119952870968"><ele>718.0</ele><time>2026-04-11T10:34:12Z</time></trkpt><trkpt lat="44.751654768168805" lon="9.409197351641547"><ele>718.0</ele><time>2026-04-11T10:34:13Z</time></trkpt><trkpt lat="44.75152474449725" lon="9.409150531479355"><ele>717.8</ele><time>2026-04-11T10:34:14Z</time></trkpt><trkpt lat="44.751399548008585" lon="9.409115578833758"><ele>717.5999999999999</ele><time>2026-04-11T10:34:14.999Z</time></trkpt><trkpt lat="44.751292307280806" lon="9.409113369537247"><ele>717.4000000000001</ele><time>2026-04-11T10:34:15.999Z</time></trkpt><trkpt lat="44.75120191396394" lon="9.409155323442432"><ele>717.2</ele><time>2026-04-11T10:34:16.999Z</time></trkpt><trkpt lat="44.751110272608344" lon="9.409262400902447"><ele>717.0</ele><time>2026-04-11T10:34:17.999Z</time></trkpt><trkpt lat="44.751002420835086" lon="9.409394912157286"><ele>717.0</ele><time>2026-04-11T10:34:18.999Z</time></trkpt><trkpt lat="44.75088028406699" lon="9.409499181836312"><ele>717.0</ele><time>2026-04-11T10:34:19.999Z</time></trkpt><trkpt lat="44.750797016914625" lon="9.40952815615735"><ele>717.0</ele><time>2026-04-11T10:34:20.999Z</time></trkpt><trkpt lat="44.750714715720285" lon="9.409450602564473"><ele>717.0</ele><time>2026-04-11T10:34:21.999Z</time></trkpt><trkpt lat="44.750657383491735" lon="9.409327496640277"><ele>717.0</ele><time>2026-04-11T10:34:22.999Z</time></trkpt><trkpt lat="44.750586313236234" lon="9.40919166364163"><ele>717.0</ele><time>2026-04-11T10:34:23.999Z</time></trkpt><trkpt lat="44.75050658166246" lon="9.409005754512956"><ele>717.0</ele><time>2026-04-11T10:34:24.999Z</time></trkpt><trkpt lat="44.750434299750886" lon="9.408884196258066"><ele>717.0</ele><time>2026-04-11T10:34:25.999Z</time></trkpt><trkpt lat="44.75036398087954" lon="9.408791680300094"><ele>717.0</ele><time>2026-04-11T10:34:26.999Z</time></trkpt><trkpt lat="44.750264382274466" lon="9.408745284098085"><ele>714.25</ele><time>2026-04-11T10:34:27.999Z</time></trkpt><trkpt lat="44.750137055280284" lon="9.408701944027378"><ele>711.5</ele><time>2026-04-11T10:34:28.999Z</time></trkpt><trkpt lat="44.75000289207045" lon="9.4086694030396"><ele>708.75</ele><time>2026-04-11T10:34:29.999Z</time></trkpt><trkpt lat="44.74988641353543" lon="9.408656033000241"><ele>706.0</ele><time>2026-04-11T10:34:30.999Z</time></trkpt><trkpt lat="44.74979664123873" lon="9.40867304901506"><ele>706.0</ele><time>2026-04-11T10:34:31.999Z</time></trkpt><trkpt lat="44.74972539316763" lon="9.408745140756771"><ele>706.0</ele><time>2026-04-11T10:34:32.999Z</time></trkpt><trkpt lat="44.7496784324472" lon="9.4088932767167"><ele>706.0</ele><time>2026-04-11T10:34:33.999Z</time></trkpt><trkpt lat="44.7496319526326" lon="9.409093314368757"><ele>706.0</ele><time>2026-04-11T10:34:34.999Z</time></trkpt><trkpt lat="44.74956127543753" lon="9.409249076785354"><ele>705.0</ele><time>2026-04-11T10:34:35.999Z</time></trkpt><trkpt lat="44.749480427238844" lon="9.40936131256637"><ele>704.0</ele><time>2026-04-11T10:34:36.999Z</time></trkpt><trkpt lat="44.74939893748584" lon="9.409447204316907"><ele>703.0</ele><time>2026-04-11T10:34:37.999Z</time></trkpt><trkpt lat="44.7492582679708" lon="9.40957915268022"><ele>702.0</ele><time>2026-04-11T10:34:38.999Z</time></trkpt><trkpt lat="44.749162642396655" lon="9.409663231624036"><ele>704.25</ele><time>2026-04-11T10:34:39.999Z</time></trkpt><trkpt lat="44.749077570090805" lon="9.409781706503644"><ele>706.5</ele><time>2026-04-11T10:34:40.999Z</time></trkpt><trkpt lat="44.749024147288296" lon="9.409908089371386"><ele>708.75</ele><time>2026-04-11T10:34:41.999Z</time></trkpt><trkpt lat="44.74901596972704" lon="9.410079063630201"><ele>711.0</ele><time>2026-04-11T10:34:42.999Z</time></trkpt><trkpt lat="44.74901666086178" lon="9.410266372791776"><ele>711.0</ele><time>2026-04-11T10:34:43.999Z</time></trkpt><trkpt lat="44.74898696892473" lon="9.41044449862609"><ele>711.0</ele><time>2026-04-11T10:34:44.999Z</time></trkpt><trkpt lat="44.74892322074366" lon="9.410584220947243"><ele>711.0</ele><time>2026-04-11T10:34:45.999Z</time></trkpt><trkpt lat="44.74887456302463" lon="9.41073889857683"><ele>711.0</ele><time>2026-04-11T10:34:46.999Z</time></trkpt><trkpt lat="44.748833660269" lon="9.41090377416782"><ele>711.25</ele><time>2026-04-11T10:34:47.999Z</time></trkpt><trkpt lat="44.74881340007615" lon="9.41109059701725"><ele>711.5</ele><time>2026-04-11T10:34:48.999Z</time></trkpt><trkpt lat="44.7487947496375" lon="9.411290313752906"><ele>711.75</ele><time>2026-04-11T10:34:49.999Z</time></trkpt><trkpt lat="44.748784570168795" lon="9.411470136491403"><ele>712.0</ele><time>2026-04-11T10:34:50.999Z</time></trkpt><trkpt lat="44.748785634078196" lon="9.411631638094697"><ele>713.2</ele><time>2026-04-11T10:34:51.999Z</time></trkpt><trkpt lat="44.748798590365986" lon="9.411784917811964"><ele>714.4000000000001</ele><time>2026-04-11T10:34:52.999Z</time></trkpt><trkpt lat="44.74887810903231" lon="9.411899931229703"><ele>715.5999999999999</ele><time>2026-04-11T10:34:53.999Z</time></trkpt><trkpt lat="44.74889046010166" lon="9.412027692351963"><ele>716.8</ele><time>2026-04-11T10:34:54.999Z</time></trkpt><trkpt lat="44.7489270878707" lon="9.412174230332205"><ele>718.0</ele><time>2026-04-11T10:34:55.999Z</time></trkpt><trkpt lat="44.74884970569709" lon="9.41230809629177"><ele>718.4</ele><time>2026-04-11T10:34:56.999Z</time></trkpt><trkpt lat="44.74878346163446" lon="9.412372237700009"><ele>718.8</ele><time>2026-04-11T10:34:57.999Z</time></trkpt><trkpt lat="44.748713801309464" lon="9.412436026345754"><ele>719.2</ele><time>2026-04-11T10:34:58.999Z</time></trkpt><trkpt lat="44.748662958694105" lon="9.412495547701504"><ele>719.6</ele><time>2026-04-11T10:34:59.999Z</time></trkpt><trkpt lat="44.74863057890364" lon="9.412624485908463"><ele>720.0</ele><time>2026-04-11T10:35:00.999Z</time></trkpt><trkpt lat="44.748546934424276" lon="9.41275629852947"><ele>714.5</ele><time>2026-04-11T10:35:01.999Z</time></trkpt><trkpt lat="44.74849020855697" lon="9.412889529214295"><ele>709.0</ele><time>2026-04-11T10:35:02.999Z</time></trkpt><trkpt lat="44.74841667564733" lon="9.413065464015016"><ele>703.5</ele><time>2026-04-11T10:35:03.999Z</time></trkpt><trkpt lat="44.74836389239061" lon="9.413227592418545"><ele>698.0</ele><time>2026-04-11T10:35:04.999Z</time></trkpt><trkpt lat="44.748333311026705" lon="9.413374214139756"><ele>698.0</ele><time>2026-04-11T10:35:05.999Z</time></trkpt><trkpt lat="44.748326371790554" lon="9.413516921467895"><ele>698.0</ele><time>2026-04-11T10:35:06.999Z</time></trkpt><trkpt lat="44.74831175344685" lon="9.413678029914387"><ele>698.0</ele><time>2026-04-11T10:35:07.999Z</time></trkpt><trkpt lat="44.74832058191959" lon="9.413827728641218"><ele>698.0</ele><time>2026-04-11T10:35:08.999Z</time></trkpt><trkpt lat="44.74832746288153" lon="9.413978174528342"><ele>698.0</ele><time>2026-04-11T10:35:09.999Z</time></trkpt><trkpt lat="44.74833311199368" lon="9.414139088048586"><ele>697.5999999999999</ele><time>2026-04-11T10:35:10.999Z</time></trkpt><trkpt lat="44.748359817691565" lon="9.414287023320224"><ele>697.1999999999999</ele><time>2026-04-11T10:35:11.999Z</time></trkpt><trkpt lat="44.748405380638374" lon="9.41441876921621"><ele>696.8</ele><time>2026-04-11T10:35:12.999Z</time></trkpt><trkpt lat="44.748465212476816" lon="9.414535827983403"><ele>696.4</ele><time>2026-04-11T10:35:13.999Z</time></trkpt><trkpt lat="44.74852807707348" lon="9.414649042007058"><ele>696.0</ele><time>2026-04-11T10:35:14.999Z</time></trkpt><trkpt lat="44.748591193242454" lon="9.414773550201167"><ele>700.25</ele><time>2026-04-11T10:35:15.999Z</time></trkpt><trkpt lat="44.74863655044731" lon="9.41491528663435"><ele>704.5</ele><time>2026-04-11T10:35:16.999Z</time></trkpt><trkpt lat="44.74865666892796" lon="9.415069944433819"><ele>708.75</ele><time>2026-04-11T10:35:17.999Z</time></trkpt><trkpt lat="44.748648872743225" lon="9.415244877009874"><ele>713.0</ele><time>2026-04-11T10:35:18.999Z</time></trkpt><trkpt lat="44.74867444897383" lon="9.415425284242705"><ele>711.5</ele><time>2026-04-11T10:35:19.999Z</time></trkpt><trkpt lat="44.74868396135195" lon="9.415596841600614"><ele>710.0</ele><time>2026-04-11T10:35:20.999Z</time></trkpt><trkpt lat="44.748682130088916" lon="9.415769288034033"><ele>708.5</ele><time>2026-04-11T10:35:21.999Z</time></trkpt><trkpt lat="44.74862605816113" lon="9.415935884058767"><ele>707.0</ele><time>2026-04-11T10:35:22.999Z</time></trkpt><trkpt lat="44.748620088144946" lon="9.416088541183544"><ele>707.0</ele><time>2026-04-11T10:35:23.999Z</time></trkpt><trkpt lat="44.74862167687511" lon="9.416232094055546"><ele>707.0</ele><time>2026-04-11T10:35:24.999Z</time></trkpt><trkpt lat="44.74864627416023" lon="9.416399620022448"><ele>707.0</ele><time>2026-04-11T10:35:25.999Z</time></trkpt><trkpt lat="44.74868309513717" lon="9.416578132245405"><ele>707.0</ele><time>2026-04-11T10:35:26.999Z</time></trkpt><trkpt lat="44.74870904311659" lon="9.416734871403289"><ele>705.6666666666666</ele><time>2026-04-11T10:35:27.999Z</time></trkpt><trkpt lat="44.74872653966229" lon="9.416861069810185"><ele>704.3333333333333</ele><time>2026-04-11T10:35:29Z</time></trkpt><trkpt lat="44.74870914519103" lon="9.41696760666263"><ele>703.0</ele><time>2026-04-11T10:35:30Z</time></trkpt><trkpt lat="44.74867658361685" lon="9.417045092785573"><ele>701.6666666666666</ele><time>2026-04-11T10:35:31Z</time></trkpt><trkpt lat="44.7485799822931" lon="9.417081795665995"><ele>700.3333333333334</ele><time>2026-04-11T10:35:33Z</time></trkpt><trkpt lat="44.748610488642534" lon="9.417209128094623"><ele>699.0</ele><time>2026-04-11T10:35:36Z</time></trkpt><trkpt lat="44.748687206881606" lon="9.417332135747502"><ele>697.25</ele><time>2026-04-11T10:35:37Z</time></trkpt><trkpt lat="44.7487636358854" lon="9.41744992192646"><ele>695.5</ele><time>2026-04-11T10:35:38Z</time></trkpt><trkpt lat="44.74883968525576" lon="9.417576346602148"><ele>693.75</ele><time>2026-04-11T10:35:39Z</time></trkpt><trkpt lat="44.7489142678591" lon="9.417722396470324"><ele>692.0</ele><time>2026-04-11T10:35:40Z</time></trkpt><trkpt lat="44.74895508161276" lon="9.41788191957813"><ele>689.75</ele><time>2026-04-11T10:35:41Z</time></trkpt><trkpt lat="44.748990359981555" lon="9.418032870961332"><ele>687.5</ele><time>2026-04-11T10:35:42Z</time></trkpt><trkpt lat="44.74901140903047" lon="9.418246006864473"><ele>685.25</ele><time>2026-04-11T10:35:43Z</time></trkpt><trkpt lat="44.74902019725952" lon="9.418445121450269"><ele>683.0</ele><time>2026-04-11T10:35:44Z</time></trkpt><trkpt lat="44.74904092980106" lon="9.418639984765502"><ele>682.25</ele><time>2026-04-11T10:35:45Z</time></trkpt><trkpt lat="44.74905149117109" lon="9.418842998077194"><ele>681.5</ele><time>2026-04-11T10:35:46Z</time></trkpt><trkpt lat="44.74906589664663" lon="9.419024526509762"><ele>680.75</ele><time>2026-04-11T10:35:47Z</time></trkpt><trkpt lat="44.74907292446162" lon="9.419192470504091"><ele>680.0</ele><time>2026-04-11T10:35:48Z</time></trkpt><trkpt lat="44.7490772304706" lon="9.419322259605076"><ele>680.0</ele><time>2026-04-11T10:35:49Z</time></trkpt><trkpt lat="44.749037923104886" lon="9.41944221212393"><ele>680.0</ele><time>2026-04-11T10:35:50Z</time></trkpt><trkpt lat="44.748966651971955" lon="9.419532807997912"><ele>680.0</ele><time>2026-04-11T10:35:51Z</time></trkpt><trkpt lat="44.748880670148026" lon="9.41961438381862"><ele>680.0</ele><time>2026-04-11T10:35:52Z</time></trkpt><trkpt lat="44.748784154436024" lon="9.419703815516788"><ele>680.0</ele><time>2026-04-11T10:35:53Z</time></trkpt><trkpt lat="44.74867523977562" lon="9.419753670724075"><ele>679.25</ele><time>2026-04-11T10:35:54Z</time></trkpt><trkpt lat="44.748570797015084" lon="9.419722909730256"><ele>678.5</ele><time>2026-04-11T10:35:55Z</time></trkpt><trkpt lat="44.74845559622821" lon="9.419687191894283"><ele>677.75</ele><time>2026-04-11T10:35:56Z</time></trkpt><trkpt lat="44.748326613607055" lon="9.4196713215592"><ele>677.0</ele><time>2026-04-11T10:35:57Z</time></trkpt><trkpt lat="44.748202018964236" lon="9.419627270889983"><ele>677.0</ele><time>2026-04-11T10:35:58Z</time></trkpt><trkpt lat="44.748110049061054" lon="9.419603802500465"><ele>677.0</ele><time>2026-04-11T10:35:59Z</time></trkpt><trkpt lat="44.74803434793145" lon="9.419611949737249"><ele>677.0</ele><time>2026-04-11T10:36:00Z</time></trkpt><trkpt lat="44.74796914885608" lon="9.419684795708587"><ele>677.0</ele><time>2026-04-11T10:36:01Z</time></trkpt><trkpt lat="44.74791874194341" lon="9.419796396027373"><ele>677.0</ele><time>2026-04-11T10:36:02Z</time></trkpt><trkpt lat="44.74789069405718" lon="9.419912683386226"><ele>677.0</ele><time>2026-04-11T10:36:03Z</time></trkpt><trkpt lat="44.747884381561825" lon="9.42005683726436"><ele>678.75</ele><time>2026-04-11T10:36:04Z</time></trkpt><trkpt lat="44.747888586060036" lon="9.420224544734193"><ele>680.5</ele><time>2026-04-11T10:36:05Z</time></trkpt><trkpt lat="44.74790202017134" lon="9.420406146212642"><ele>682.25</ele><time>2026-04-11T10:36:06Z</time></trkpt><trkpt lat="44.747927266166556" lon="9.420609864150023"><ele>684.0</ele><time>2026-04-11T10:36:07Z</time></trkpt><trkpt lat="44.74796623119838" lon="9.420826125190757"><ele>684.25</ele><time>2026-04-11T10:36:08Z</time></trkpt><trkpt lat="44.748002249873835" lon="9.421021881809557"><ele>684.5</ele><time>2026-04-11T10:36:09Z</time></trkpt><trkpt lat="44.748023745114565" lon="9.421206620322812"><ele>684.75</ele><time>2026-04-11T10:36:10Z</time></trkpt><trkpt lat="44.74797415997756" lon="9.421358257822659"><ele>685.0</ele><time>2026-04-11T10:36:11Z</time></trkpt><trkpt lat="44.74790885105643" lon="9.421496986527714"><ele>684.75</ele><time>2026-04-11T10:36:12Z</time></trkpt><trkpt lat="44.747833003323464" lon="9.421655270720771"><ele>684.5</ele><time>2026-04-11T10:36:13Z</time></trkpt><trkpt lat="44.74774042170645" lon="9.421813645873817"><ele>684.25</ele><time>2026-04-11T10:36:14Z</time></trkpt><trkpt lat="44.747650090367074" lon="9.421974794961535"><ele>684.0</ele><time>2026-04-11T10:36:15Z</time></trkpt><trkpt lat="44.74754461261564" lon="9.422059919462484"><ele>684.0</ele><time>2026-04-11T10:36:16Z</time></trkpt><trkpt lat="44.7474394303494" lon="9.422077554107476"><ele>684.0</ele><time>2026-04-11T10:36:17Z</time></trkpt><trkpt lat="44.747326755109974" lon="9.42212885001194"><ele>684.0</ele><time>2026-04-11T10:36:18Z</time></trkpt><trkpt lat="44.74719514783839" lon="9.42212780149991"><ele>684.0</ele><time>2026-04-11T10:36:19Z</time></trkpt><trkpt lat="44.74706847482862" lon="9.422176308722062"><ele>684.75</ele><time>2026-04-11T10:36:20Z</time></trkpt><trkpt lat="44.74694800369703" lon="9.422278276110656"><ele>685.5</ele><time>2026-04-11T10:36:21Z</time></trkpt><trkpt lat="44.74683896516779" lon="9.422385352302538"><ele>686.25</ele><time>2026-04-11T10:36:22Z</time></trkpt><trkpt lat="44.746754056389705" lon="9.422507345930248"><ele>687.0</ele><time>2026-04-11T10:36:23Z</time></trkpt><trkpt lat="44.74667899032378" lon="9.422649027070642"><ele>687.0</ele><time>2026-04-11T10:36:24Z</time></trkpt><trkpt lat="44.74662261011968" lon="9.422826376060712"><ele>687.0</ele><time>2026-04-11T10:36:25Z</time></trkpt><trkpt lat="44.74655534660757" lon="9.422992608094"><ele>687.0</ele><time>2026-04-11T10:36:26Z</time></trkpt><trkpt lat="44.74644427856656" lon="9.423058216790912"><ele>687.0</ele><time>2026-04-11T10:36:27Z</time></trkpt><trkpt lat="44.74631877198246" lon="9.423022621957898"><ele>688.5</ele><time>2026-04-11T10:36:28Z</time></trkpt><trkpt lat="44.74621536908067" lon="9.423014587166728"><ele>690.0</ele><time>2026-04-11T10:36:29Z</time></trkpt><trkpt lat="44.74611723596897" lon="9.42301106292673"><ele>691.5</ele><time>2026-04-11T10:36:30Z</time></trkpt><trkpt lat="44.74594023711087" lon="9.422992809326272"><ele>693.0</ele><time>2026-04-11T10:36:31Z</time></trkpt><trkpt lat="44.74581108882322" lon="9.422985809478446"><ele>693.0</ele><time>2026-04-11T10:36:32Z</time></trkpt><trkpt lat="44.74570890031441" lon="9.423012232849082"><ele>693.0</ele><time>2026-04-11T10:36:33Z</time></trkpt><trkpt lat="44.74561834340288" lon="9.423111125646008"><ele>693.0</ele><time>2026-04-11T10:36:34Z</time></trkpt><trkpt lat="44.745530387719626" lon="9.42325763221128"><ele>693.0</ele><time>2026-04-11T10:36:35Z</time></trkpt><trkpt lat="44.74541353642082" lon="9.423352802585054"><ele>693.0</ele><time>2026-04-11T10:36:36Z</time></trkpt><trkpt lat="44.74531399375361" lon="9.423404249190794"><ele>693.0</ele><time>2026-04-11T10:36:37Z</time></trkpt><trkpt lat="44.745194937829496" lon="9.423471638200981"><ele>693.0</ele><time>2026-04-11T10:36:38Z</time></trkpt><trkpt lat="44.74508337898938" lon="9.423520448531349"><ele>693.0</ele><time>2026-04-11T10:36:39Z</time></trkpt><trkpt lat="44.744985997931394" lon="9.42360077200089"><ele>691.75</ele><time>2026-04-11T10:36:40Z</time></trkpt><trkpt lat="44.74490037288129" lon="9.423709389350359"><ele>690.5</ele><time>2026-04-11T10:36:41Z</time></trkpt><trkpt lat="44.744816058848805" lon="9.42382394497901"><ele>689.25</ele><time>2026-04-11T10:36:42Z</time></trkpt><trkpt lat="44.74472510626099" lon="9.423923066443335"><ele>688.0</ele><time>2026-04-11T10:36:43Z</time></trkpt><trkpt lat="44.744634749206725" lon="9.424013376632338"><ele>688.25</ele><time>2026-04-11T10:36:44Z</time></trkpt><trkpt lat="44.74452757563969" lon="9.42413967097078"><ele>688.5</ele><time>2026-04-11T10:36:45Z</time></trkpt><trkpt lat="44.74443814018992" lon="9.42428882846289"><ele>688.75</ele><time>2026-04-11T10:36:46Z</time></trkpt><trkpt lat="44.744335421254824" lon="9.424442269949658"><ele>689.0</ele><time>2026-04-11T10:36:47Z</time></trkpt><trkpt lat="44.7442384482393" lon="9.42457802364777"><ele>694.0</ele><time>2026-04-11T10:36:48Z</time></trkpt><trkpt lat="44.74413127292614" lon="9.424692277613879"><ele>699.0</ele><time>2026-04-11T10:36:48.999Z</time></trkpt><trkpt lat="44.74402097835749" lon="9.424778525908572"><ele>704.0</ele><time>2026-04-11T10:36:49.999Z</time></trkpt><trkpt lat="44.74390501140168" lon="9.42483771636917"><ele>709.0</ele><time>2026-04-11T10:36:50.999Z</time></trkpt><trkpt lat="44.743790301126964" lon="9.424851060166826"><ele>709.0</ele><time>2026-04-11T10:36:51.999Z</time></trkpt><trkpt lat="44.74368702381676" lon="9.424871138113932"><ele>709.0</ele><time>2026-04-11T10:36:52.999Z</time></trkpt><trkpt lat="44.74359092250334" lon="9.424953404293133"><ele>709.0</ele><time>2026-04-11T10:36:53.999Z</time></trkpt><trkpt lat="44.74351190332086" lon="9.425088327491638"><ele>709.0</ele><time>2026-04-11T10:36:54.999Z</time></trkpt><trkpt lat="44.743458606875265" lon="9.425252184344235"><ele>709.5</ele><time>2026-04-11T10:36:55.999Z</time></trkpt><trkpt lat="44.74342116957422" lon="9.425426667502846"><ele>710.0</ele><time>2026-04-11T10:36:56.999Z</time></trkpt><trkpt lat="44.74339040602767" lon="9.425605928761236"><ele>710.5</ele><time>2026-04-11T10:36:57.999Z</time></trkpt><trkpt lat="44.74335067462155" lon="9.42578665469635"><ele>711.0</ele><time>2026-04-11T10:36:58.999Z</time></trkpt><trkpt lat="44.743289445090575" lon="9.42595893658288"><ele>711.0</ele><time>2026-04-11T10:36:59.999Z</time></trkpt><trkpt lat="44.743184842103055" lon="9.426071502643774"><ele>711.0</ele><time>2026-04-11T10:37:00.999Z</time></trkpt><trkpt lat="44.743071378983466" lon="9.42617827835094"><ele>711.0</ele><time>2026-04-11T10:37:01.999Z</time></trkpt><trkpt lat="44.742948376303154" lon="9.426282415285215"><ele>711.0</ele><time>2026-04-11T10:37:02.999Z</time></trkpt><trkpt lat="44.7428248858246" lon="9.426400899020924"><ele>711.6666666666666</ele><time>2026-04-11T10:37:03.999Z</time></trkpt><trkpt lat="44.742672003186954" lon="9.42648039747367"><ele>712.3333333333333</ele><time>2026-04-11T10:37:04.999Z</time></trkpt><trkpt lat="44.742521341003894" lon="9.42654725238327"><ele>713.0</ele><time>2026-04-11T10:37:05.999Z</time></trkpt><trkpt lat="44.74238276636305" lon="9.426585896060223"><ele>713.0</ele><time>2026-04-11T10:37:06.999Z</time></trkpt><trkpt lat="44.742253679964264" lon="9.4265779602573"><ele>713.0</ele><time>2026-04-11T10:37:07.999Z</time></trkpt><trkpt lat="44.74214108073265" lon="9.42652098545723"><ele>713.0</ele><time>2026-04-11T10:37:08.999Z</time></trkpt><trkpt lat="44.742044636353555" lon="9.426417237295075"><ele>713.0</ele><time>2026-04-11T10:37:09.999Z</time></trkpt><trkpt lat="44.741938202838334" lon="9.426290502105594"><ele>711.3333333333333</ele><time>2026-04-11T10:37:10.999Z</time></trkpt><trkpt lat="44.7418291633304" lon="9.426148701176073"><ele>709.6666666666666</ele><time>2026-04-11T10:37:11.999Z</time></trkpt><trkpt lat="44.741728955009044" lon="9.425991209455939"><ele>708.0</ele><time>2026-04-11T10:37:12.999Z</time></trkpt><trkpt lat="44.7416396345184" lon="9.4258097619186"><ele>708.0</ele><time>2026-04-11T10:37:13.999Z</time></trkpt><trkpt lat="44.74154609065569" lon="9.425687815067752"><ele>708.0</ele><time>2026-04-11T10:37:14.999Z</time></trkpt><trkpt lat="44.74146477826393" lon="9.425616864829545"><ele>708.0</ele><time>2026-04-11T10:37:15.999Z</time></trkpt><trkpt lat="44.74135305937268" lon="9.425614350070886"><ele>708.0</ele><time>2026-04-11T10:37:16.999Z</time></trkpt><trkpt lat="44.74121748920226" lon="9.42563934086003"><ele>708.0</ele><time>2026-04-11T10:37:17.999Z</time></trkpt><trkpt lat="44.741072526217415" lon="9.425621448250935"><ele>708.0</ele><time>2026-04-11T10:37:18.999Z</time></trkpt><trkpt lat="44.74093480084247" lon="9.425545097262761"><ele>708.0</ele><time>2026-04-11T10:37:19.999Z</time></trkpt><trkpt lat="44.74084769940554" lon="9.425420860952011"><ele>708.0</ele><time>2026-04-11T10:37:20.999Z</time></trkpt><trkpt lat="44.74079348816641" lon="9.42526158230984"><ele>710.25</ele><time>2026-04-11T10:37:21.999Z</time></trkpt><trkpt lat="44.74072208776122" lon="9.425081733253474"><ele>712.5</ele><time>2026-04-11T10:37:22.999Z</time></trkpt><trkpt lat="44.74064785449142" lon="9.424895213171967"><ele>714.75</ele><time>2026-04-11T10:37:23.999Z</time></trkpt><trkpt lat="44.74058477083109" lon="9.424732682031614"><ele>717.0</ele><time>2026-04-11T10:37:24.999Z</time></trkpt><trkpt lat="44.740519318418805" lon="9.424649122881863"><ele>717.0</ele><time>2026-04-11T10:37:25.999Z</time></trkpt><trkpt lat="44.740415148313986" lon="9.42464019071271"><ele>717.0</ele><time>2026-04-11T10:37:27.999Z</time></trkpt><trkpt lat="44.74038028635527" lon="9.424770664856483"><ele>717.0</ele><time>2026-04-11T10:37:28.999Z</time></trkpt><trkpt lat="44.74040047725208" lon="9.42488698378202"><ele>717.0</ele><time>2026-04-11T10:37:29.999Z</time></trkpt><trkpt lat="44.74044823666927" lon="9.425017780268771"><ele>717.0</ele><time>2026-04-11T10:37:30.999Z</time></trkpt><trkpt lat="44.74050742437516" lon="9.42519566787192"><ele>717.0</ele><time>2026-04-11T10:37:31.999Z</time></trkpt><trkpt lat="44.740583255712664" lon="9.425451675345274"><ele>717.0</ele><time>2026-04-11T10:37:32.999Z</time></trkpt><trkpt lat="44.74064343291201" lon="9.42573825873766"><ele>717.0</ele><time>2026-04-11T10:37:34Z</time></trkpt><trkpt lat="44.74066492799767" lon="9.425967879506791"><ele>718.6666666666666</ele><time>2026-04-11T10:37:35Z</time></trkpt><trkpt lat="44.74063233393793" lon="9.426139180097575"><ele>720.3333333333333</ele><time>2026-04-11T10:37:36Z</time></trkpt><trkpt lat="44.7406563862109" lon="9.426357494958602"><ele>722.0</ele><time>2026-04-11T10:37:37Z</time></trkpt><trkpt lat="44.74071728939684" lon="9.426619913113763"><ele>723.0</ele><time>2026-04-11T10:37:38Z</time></trkpt><trkpt lat="44.74077328208386" lon="9.426784565959013"><ele>724.0</ele><time>2026-04-11T10:37:39Z</time></trkpt><trkpt lat="44.740814795044344" lon="9.426984500267608"><ele>725.0</ele><time>2026-04-11T10:37:40Z</time></trkpt><trkpt lat="44.74082712494928" lon="9.427167264777701"><ele>726.0</ele><time>2026-04-11T10:37:41Z</time></trkpt><trkpt lat="44.74080866289946" lon="9.4273344787618"><ele>727.75</ele><time>2026-04-11T10:37:42Z</time></trkpt><trkpt lat="44.74076104915899" lon="9.427485562979985"><ele>729.5</ele><time>2026-04-11T10:37:43Z</time></trkpt><trkpt lat="44.7407380204437" lon="9.427632582162916"><ele>731.25</ele><time>2026-04-11T10:37:44Z</time></trkpt><trkpt lat="44.740769903009536" lon="9.427769926518943"><ele>733.0</ele><time>2026-04-11T10:37:45Z</time></trkpt><trkpt lat="44.74083379767391" lon="9.427938630321709"><ele>733.75</ele><time>2026-04-11T10:37:46Z</time></trkpt><trkpt lat="44.74089943366815" lon="9.428109978228676"><ele>734.5</ele><time>2026-04-11T10:37:47Z</time></trkpt><trkpt lat="44.74091128934777" lon="9.428289423608016"><ele>735.25</ele><time>2026-04-11T10:37:48Z</time></trkpt><trkpt lat="44.74084965949984" lon="9.4284706886396"><ele>736.0</ele><time>2026-04-11T10:37:49Z</time></trkpt><trkpt lat="44.74082329613371" lon="9.428670269992868"><ele>735.5</ele><time>2026-04-11T10:37:50Z</time></trkpt><trkpt lat="44.74079256917486" lon="9.428866224950461"><ele>735.0</ele><time>2026-04-11T10:37:51Z</time></trkpt><trkpt lat="44.74079230405296" lon="9.429066697184382"><ele>734.5</ele><time>2026-04-11T10:37:52Z</time></trkpt><trkpt lat="44.74082643180131" lon="9.429246012922567"><ele>734.0</ele><time>2026-04-11T10:37:53Z</time></trkpt><trkpt lat="44.740894001838576" lon="9.429386114115797"><ele>734.0</ele><time>2026-04-11T10:37:54Z</time></trkpt><trkpt lat="44.74100042678113" lon="9.429493642462525"><ele>734.0</ele><time>2026-04-11T10:37:55Z</time></trkpt><trkpt lat="44.741129030187786" lon="9.429574445437536"><ele>734.0</ele><time>2026-04-11T10:37:56Z</time></trkpt><trkpt lat="44.74123983704382" lon="9.429660151593412"><ele>734.0</ele><time>2026-04-11T10:37:57Z</time></trkpt><trkpt lat="44.74130889928658" lon="9.429788362819005"><ele>738.5</ele><time>2026-04-11T10:37:58Z</time></trkpt><trkpt lat="44.7413139636966" lon="9.429957291613244"><ele>743.0</ele><time>2026-04-11T10:37:59Z</time></trkpt><trkpt lat="44.741303563151625" lon="9.43013979837553"><ele>747.5</ele><time>2026-04-11T10:38:00Z</time></trkpt><trkpt lat="44.74130658642086" lon="9.430344595751697"><ele>752.0</ele><time>2026-04-11T10:38:01Z</time></trkpt><trkpt lat="44.74129255099267" lon="9.43053502457925"><ele>752.8</ele><time>2026-04-11T10:38:02Z</time></trkpt><trkpt lat="44.74129588435234" lon="9.430700408879876"><ele>753.6</ele><time>2026-04-11T10:38:03Z</time></trkpt><trkpt lat="44.74131695759117" lon="9.43086181252801"><ele>754.4</ele><time>2026-04-11T10:38:04Z</time></trkpt><trkpt lat="44.74133937772142" lon="9.43100771939128"><ele>755.1999999999999</ele><time>2026-04-11T10:38:05Z</time></trkpt><trkpt lat="44.74132724974907" lon="9.431130050139675"><ele>756.0</ele><time>2026-04-11T10:38:06Z</time></trkpt><trkpt lat="44.74127744215674" lon="9.431219318587628"><ele>756.0</ele><time>2026-04-11T10:38:07Z</time></trkpt><trkpt lat="44.741187027043075" lon="9.431242505693541"><ele>756.0</ele><time>2026-04-11T10:38:08Z</time></trkpt><trkpt lat="44.741072689043634" lon="9.431236212881169"><ele>756.0</ele><time>2026-04-11T10:38:09Z</time></trkpt><trkpt lat="44.74096357940879" lon="9.43125388039006"><ele>756.0</ele><time>2026-04-11T10:38:10Z</time></trkpt><trkpt lat="44.740881454681194" lon="9.431349998151063"><ele>756.0</ele><time>2026-04-11T10:38:11Z</time></trkpt><trkpt lat="44.74083599910595" lon="9.431497699266611"><ele>754.75</ele><time>2026-04-11T10:38:12Z</time></trkpt><trkpt lat="44.740828565844005" lon="9.431668073158873"><ele>753.5</ele><time>2026-04-11T10:38:13Z</time></trkpt><trkpt lat="44.74084315974008" lon="9.431863502676796"><ele>752.25</ele><time>2026-04-11T10:38:14Z</time></trkpt><trkpt lat="44.740838073544055" lon="9.432065860478252"><ele>751.0</ele><time>2026-04-11T10:38:15Z</time></trkpt><trkpt lat="44.740801848177284" lon="9.432277555323736"><ele>751.0</ele><time>2026-04-11T10:38:16Z</time></trkpt><trkpt lat="44.74076205521921" lon="9.432483225539677"><ele>751.0</ele><time>2026-04-11T10:38:17Z</time></trkpt><trkpt lat="44.74074588606953" lon="9.432660137196347"><ele>751.0</ele><time>2026-04-11T10:38:18Z</time></trkpt><trkpt lat="44.7407709669101" lon="9.43282198142256"><ele>751.0</ele><time>2026-04-11T10:38:19Z</time></trkpt><trkpt lat="44.74083271724332" lon="9.432975686665204"><ele>752.5</ele><time>2026-04-11T10:38:20Z</time></trkpt><trkpt lat="44.740910468560145" lon="9.43310897916938"><ele>754.0</ele><time>2026-04-11T10:38:21Z</time></trkpt><trkpt lat="44.74094462048029" lon="9.433233793959486"><ele>755.5</ele><time>2026-04-11T10:38:22Z</time></trkpt><trkpt lat="44.740912914855535" lon="9.4333787840667"><ele>757.0</ele><time>2026-04-11T10:38:23Z</time></trkpt><trkpt lat="44.74084421240862" lon="9.433524591759335"><ele>757.0</ele><time>2026-04-11T10:38:24Z</time></trkpt><trkpt lat="44.7407398190319" lon="9.433649312656131"><ele>757.0</ele><time>2026-04-11T10:38:25Z</time></trkpt><trkpt lat="44.74062397794139" lon="9.433784478077373"><ele>757.0</ele><time>2026-04-11T10:38:26Z</time></trkpt><trkpt lat="44.74048686509638" lon="9.433891233583747"><ele>757.0</ele><time>2026-04-11T10:38:27Z</time></trkpt><trkpt lat="44.74034141214185" lon="9.434014037361536"><ele>757.25</ele><time>2026-04-11T10:38:28Z</time></trkpt><trkpt lat="44.74019830287735" lon="9.434151511702812"><ele>757.5</ele><time>2026-04-11T10:38:29Z</time></trkpt><trkpt lat="44.740074114908055" lon="9.434269049158347"><ele>757.75</ele><time>2026-04-11T10:38:30Z</time></trkpt><trkpt lat="44.73999839890659" lon="9.434361732989725"><ele>758.0</ele><time>2026-04-11T10:38:31Z</time></trkpt><trkpt lat="44.739922253873345" lon="9.434482246828042"><ele>761.0</ele><time>2026-04-11T10:38:32Z</time></trkpt><trkpt lat="44.739879443242266" lon="9.434645256591244"><ele>764.0</ele><time>2026-04-11T10:38:33Z</time></trkpt><trkpt lat="44.73989907869116" lon="9.434814874126598"><ele>767.0</ele><time>2026-04-11T10:38:34Z</time></trkpt><trkpt lat="44.739945178778946" lon="9.434993323859883"><ele>770.0</ele><time>2026-04-11T10:38:35Z</time></trkpt><trkpt lat="44.73995916963693" lon="9.435144049889914"><ele>770.0</ele><time>2026-04-11T10:38:36Z</time></trkpt><trkpt lat="44.73995590008887" lon="9.435259630577049"><ele>770.0</ele><time>2026-04-11T10:38:37Z</time></trkpt><trkpt lat="44.73988817535118" lon="9.435323338759545"><ele>770.0</ele><time>2026-04-11T10:38:38Z</time></trkpt><trkpt lat="44.73978765083034" lon="9.435334817929492"><ele>770.0</ele><time>2026-04-11T10:38:39Z</time></trkpt><trkpt lat="44.73967378727505" lon="9.435292733683646"><ele>770.0</ele><time>2026-04-11T10:38:40Z</time></trkpt><trkpt lat="44.739557623415976" lon="9.43521226980247"><ele>770.0</ele><time>2026-04-11T10:38:41Z</time></trkpt><trkpt lat="44.73945918339072" lon="9.435159151537889"><ele>770.0</ele><time>2026-04-11T10:38:42Z</time></trkpt><trkpt lat="44.7393751905226" lon="9.435172590128994"><ele>770.0</ele><time>2026-04-11T10:38:43Z</time></trkpt><trkpt lat="44.7393021872633" lon="9.435255552157658"><ele>770.0</ele><time>2026-04-11T10:38:44Z</time></trkpt><trkpt lat="44.73924787420526" lon="9.43540170289456"><ele>770.0</ele><time>2026-04-11T10:38:45Z</time></trkpt><trkpt lat="44.7392132635855" lon="9.43557685826922"><ele>772.0</ele><time>2026-04-11T10:38:46Z</time></trkpt><trkpt lat="44.73916514174109" lon="9.435764993559644"><ele>774.0</ele><time>2026-04-11T10:38:47Z</time></trkpt><trkpt lat="44.73915238413051" lon="9.435953498706994"><ele>776.0</ele><time>2026-04-11T10:38:48Z</time></trkpt><trkpt lat="44.73912291145183" lon="9.43612900756698"><ele>778.0</ele><time>2026-04-11T10:38:49Z</time></trkpt><trkpt lat="44.739056608148765" lon="9.43643070046494"><ele>780.3333333333333</ele><time>2026-04-11T10:38:50Z</time></trkpt><trkpt lat="44.738975749028505" lon="9.436670044588364"><ele>782.6666666666667</ele><time>2026-04-11T10:38:51Z</time></trkpt><trkpt lat="44.73892804248982" lon="9.436930303541281"><ele>785.0</ele><time>2026-04-11T10:38:52Z</time></trkpt><trkpt lat="44.73887003022849" lon="9.437179697704638"><ele>787.5</ele><time>2026-04-11T10:38:53Z</time></trkpt><trkpt lat="44.738826370771726" lon="9.437397199360463"><ele>790.0</ele><time>2026-04-11T10:38:54Z</time></trkpt><trkpt lat="44.73875960701239" lon="9.437555260735298"><ele>792.5</ele><time>2026-04-11T10:38:55Z</time></trkpt><trkpt lat="44.73867589550455" lon="9.437621588518137"><ele>795.0</ele><time>2026-04-11T10:38:56Z</time></trkpt><trkpt lat="44.73857416219248" lon="9.43768232532178"><ele>794.5</ele><time>2026-04-11T10:38:57Z</time></trkpt><trkpt lat="44.73845655165773" lon="9.437783390201325"><ele>794.0</ele><time>2026-04-11T10:38:58Z</time></trkpt><trkpt lat="44.73836423748915" lon="9.43792208188769"><ele>793.5</ele><time>2026-04-11T10:38:59Z</time></trkpt><trkpt lat="44.73828781760884" lon="9.438042683261541"><ele>793.0</ele><time>2026-04-11T10:39:00Z</time></trkpt><trkpt lat="44.738230346171534" lon="9.43816366611979"><ele>793.9999999999999</ele><time>2026-04-11T10:39:01Z</time></trkpt><trkpt lat="44.73818736498442" lon="9.438281509248352"><ele>795.0</ele><time>2026-04-11T10:39:02Z</time></trkpt><trkpt lat="44.73812839662241" lon="9.438371506389558"><ele>796.0</ele><time>2026-04-11T10:39:03Z</time></trkpt><trkpt lat="44.73808532591205" lon="9.438439042419303"><ele>797.0</ele><time>2026-04-11T10:39:05Z</time></trkpt><trkpt lat="44.73814053461442" lon="9.438385539690726"><ele>797.9999999999999</ele><time>2026-04-11T10:39:06.999Z</time></trkpt><trkpt lat="44.73826741032795" lon="9.438406714278807"><ele>799.0</ele><time>2026-04-11T10:39:07.999Z</time></trkpt><trkpt lat="44.738314015908045" lon="9.438329064309709"><ele>798.9999999999999</ele><time>2026-04-11T10:39:08.999Z</time></trkpt><trkpt lat="44.73835916029909" lon="9.438232750767503"><ele>799.0</ele><time>2026-04-11T10:39:09.999Z</time></trkpt><trkpt lat="44.7384098843949" lon="9.43817406027367"><ele>799.0</ele><time>2026-04-11T10:39:10.999Z</time></trkpt><trkpt lat="44.738523831855424" lon="9.438189911243773"><ele>799.0</ele><time>2026-04-11T10:39:12.999Z</time></trkpt><trkpt lat="44.73858877698273" lon="9.438245425695394"><ele>798.9999999999999</ele><time>2026-04-11T10:39:13.999Z</time></trkpt><trkpt lat="44.73863612253266" lon="9.438326859422297"><ele>799.0</ele><time>2026-04-11T10:39:14.999Z</time></trkpt><trkpt lat="44.738666750938734" lon="9.438423273964146"><ele>800.2</ele><time>2026-04-11T10:39:15.999Z</time></trkpt><trkpt lat="44.73869282760013" lon="9.438534096824096"><ele>801.4000000000001</ele><time>2026-04-11T10:39:16.999Z</time></trkpt><trkpt lat="44.738737571352864" lon="9.438631378798002"><ele>802.6</ele><time>2026-04-11T10:39:17.999Z</time></trkpt><trkpt lat="44.73876930155963" lon="9.438749943465957"><ele>803.8</ele><time>2026-04-11T10:39:18.999Z</time></trkpt><trkpt lat="44.7387342204954" lon="9.438914489510289"><ele>805.0</ele><time>2026-04-11T10:39:20.999Z</time></trkpt><trkpt lat="44.738748332001144" lon="9.439028918370047"><ele>807.2</ele><time>2026-04-11T10:39:22.999Z</time></trkpt><trkpt lat="44.738816431373074" lon="9.439168447707091"><ele>809.4</ele><time>2026-04-11T10:39:24.999Z</time></trkpt><trkpt lat="44.738848439923686" lon="9.439277826287055"><ele>811.5999999999999</ele><time>2026-04-11T10:39:25.999Z</time></trkpt><trkpt lat="44.738881551972334" lon="9.439380781262889"><ele>813.8</ele><time>2026-04-11T10:39:26.999Z</time></trkpt><trkpt lat="44.738924059111255" lon="9.43945580273784"><ele>816.0</ele><time>2026-04-11T10:39:27.999Z</time></trkpt><trkpt lat="44.73904909106242" lon="9.4394712260594"><ele>816.0</ele><time>2026-04-11T10:39:29.999Z</time></trkpt><trkpt lat="44.73910753962335" lon="9.43942210022064"><ele>816.0</ele><time>2026-04-11T10:39:30.999Z</time></trkpt><trkpt lat="44.739168924032484" lon="9.439332275780892"><ele>816.0</ele><time>2026-04-11T10:39:32.999Z</time></trkpt><trkpt lat="44.73923467487189" lon="9.439384398254784"><ele>816.0</ele><time>2026-04-11T10:39:34.999Z</time></trkpt><trkpt lat="44.73932084986321" lon="9.439510041916025"><ele>816.0</ele><time>2026-04-11T10:39:36.999Z</time></trkpt><trkpt lat="44.73940215055405" lon="9.439588669050323"><ele>818.1999999999999</ele><time>2026-04-11T10:39:38.999Z</time></trkpt><trkpt lat="44.739516115951346" lon="9.439582493461407"><ele>820.4</ele><time>2026-04-11T10:39:41.001Z</time></trkpt><trkpt lat="44.73957939559618" lon="9.439677058971027"><ele>822.6</ele><time>2026-04-11T10:39:43.001Z</time></trkpt><trkpt lat="44.73963544111505" lon="9.439861266080952"><ele>824.8</ele><time>2026-04-11T10:39:45.001Z</time></trkpt><trkpt lat="44.73967091520322" lon="9.439981778088463"><ele>827.0</ele><time>2026-04-11T10:39:46.001Z</time></trkpt><trkpt lat="44.739715898408704" lon="9.440128558439751"><ele>828.4285714285714</ele><time>2026-04-11T10:39:48.001Z</time></trkpt><trkpt lat="44.739759616180706" lon="9.440207553015908"><ele>829.8571428571428</ele><time>2026-04-11T10:39:50.001Z</time></trkpt><trkpt lat="44.739800370025556" lon="9.44027532290477"><ele>831.2857142857142</ele><time>2026-04-11T10:40:43Z</time></trkpt><trkpt lat="44.73983472362381" lon="9.44036233484866"><ele>832.7142857142858</ele><time>2026-04-11T10:40:44Z</time></trkpt><trkpt lat="44.73987240993275" lon="9.440457653917056"><ele>834.1428571428571</ele><time>2026-04-11T10:40:45Z</time></trkpt><trkpt lat="44.73991965211462" lon="9.440560755623936"><ele>835.5714285714286</ele><time>2026-04-11T10:40:46Z</time></trkpt><trkpt lat="44.73992596910381" lon="9.440661592047043"><ele>837.0</ele><time>2026-04-11T10:40:47Z</time></trkpt><trkpt lat="44.739921279907975" lon="9.440757974720531"><ele>839.3333333333334</ele><time>2026-04-11T10:40:48Z</time></trkpt><trkpt lat="44.73989308733283" lon="9.44084631746266"><ele>841.6666666666667</ele><time>2026-04-11T10:40:49Z</time></trkpt><trkpt lat="44.73987539614887" lon="9.44094640677127"><ele>844.0</ele><time>2026-04-11T10:40:50Z</time></trkpt><trkpt lat="44.739859887613285" lon="9.44111271460133"><ele>846.3333333333334</ele><time>2026-04-11T10:40:52Z</time></trkpt><trkpt lat="44.73984061499695" lon="9.441201138112964"><ele>848.6666666666667</ele><time>2026-04-11T10:40:53Z</time></trkpt><trkpt lat="44.73981186059438" lon="9.441301799242439"><ele>851.0</ele><time>2026-04-11T10:40:54Z</time></trkpt><trkpt lat="44.73976424522865" lon="9.441361723533545"><ele>853.4</ele><time>2026-04-11T10:40:55Z</time></trkpt><trkpt lat="44.73972239913785" lon="9.441466935531038"><ele>855.8</ele><time>2026-04-11T10:40:56Z</time></trkpt><trkpt lat="44.73971663994209" lon="9.441560032523228"><ele>858.1999999999999</ele><time>2026-04-11T10:40:57Z</time></trkpt><trkpt lat="44.739745555337244" lon="9.441758648101352"><ele>860.5999999999999</ele><time>2026-04-11T10:40:59Z</time></trkpt><trkpt lat="44.739747696633536" lon="9.441914882110563"><ele>863.0</ele><time>2026-04-11T10:41:01Z</time></trkpt><trkpt lat="44.73972201364265" lon="9.442012582465404"><ele>865.4</ele><time>2026-04-11T10:41:03Z</time></trkpt><trkpt lat="44.739636625147845" lon="9.442137805113346"><ele>867.8</ele><time>2026-04-11T10:41:05Z</time></trkpt><trkpt lat="44.73959336274595" lon="9.442256869132617"><ele>870.2</ele><time>2026-04-11T10:41:07Z</time></trkpt><trkpt lat="44.739604955019956" lon="9.442353860581632"><ele>872.6</ele><time>2026-04-11T10:41:08Z</time></trkpt><trkpt lat="44.73966452656283" lon="9.442465930692013"><ele>875.0</ele><time>2026-04-11T10:41:10Z</time></trkpt><trkpt lat="44.7397479776393" lon="9.44253984193445"><ele>875.0000000000001</ele><time>2026-04-11T10:41:12Z</time></trkpt><trkpt lat="44.73981020981339" lon="9.44259267330295"><ele>875.0</ele><time>2026-04-11T10:41:13Z</time></trkpt><trkpt lat="44.7398733030661" lon="9.442671205634344"><ele>875.0</ele><time>2026-04-11T10:41:14Z</time></trkpt><trkpt lat="44.739927704041875" lon="9.442732306652"><ele>875.0</ele><time>2026-04-11T10:41:15Z</time></trkpt><trkpt lat="44.74000110388675" lon="9.442833810416019"><ele>875.0000000000001</ele><time>2026-04-11T10:41:17Z</time></trkpt><trkpt lat="44.740027309220395" lon="9.44292587723872"><ele>875.0</ele><time>2026-04-11T10:41:18Z</time></trkpt><trkpt lat="44.74002663820552" lon="9.443076070590608"><ele>877.2</ele><time>2026-04-11T10:41:20Z</time></trkpt><trkpt lat="44.74001577989172" lon="9.443227293823561"><ele>879.4</ele><time>2026-04-11T10:41:22Z</time></trkpt><trkpt lat="44.740020904084545" lon="9.443364165070966"><ele>881.5999999999999</ele><time>2026-04-11T10:41:24Z</time></trkpt><trkpt lat="44.73998527361552" lon="9.443467371966047"><ele>883.8</ele><time>2026-04-11T10:41:26Z</time></trkpt><trkpt lat="44.73993551253559" lon="9.443548491294159"><ele>886.0</ele><time>2026-04-11T10:41:28Z</time></trkpt><trkpt lat="44.73981684945349" lon="9.44355922239205"><ele>885.9999999999999</ele><time>2026-04-11T10:41:30Z</time></trkpt><trkpt lat="44.73974017270415" lon="9.44362260526381"><ele>886.0</ele><time>2026-04-11T10:41:31.999Z</time></trkpt><trkpt lat="44.73970146688911" lon="9.443762881779554"><ele>886.0</ele><time>2026-04-11T10:41:33.999Z</time></trkpt><trkpt lat="44.73969107761076" lon="9.443855243001797"><ele>886.0</ele><time>2026-04-11T10:41:34.999Z</time></trkpt><trkpt lat="44.739680046679446" lon="9.443950108272418"><ele>885.9999999999999</ele><time>2026-04-11T10:41:35.999Z</time></trkpt><trkpt lat="44.739647191421696" lon="9.44406040960468"><ele>886.0</ele><time>2026-04-11T10:41:37.999Z</time></trkpt><trkpt lat="44.73960842292494" lon="9.444141000114529"><ele>886.8</ele><time>2026-04-11T10:41:39.999Z</time></trkpt><trkpt lat="44.73954233925417" lon="9.444203571978548"><ele>887.5999999999999</ele><time>2026-04-11T10:41:41.999Z</time></trkpt><trkpt lat="44.73945002953877" lon="9.444260350146495"><ele>888.4</ele><time>2026-04-11T10:41:43.999Z</time></trkpt><trkpt lat="44.739359520706806" lon="9.44438096697443"><ele>889.2</ele><time>2026-04-11T10:41:46.001Z</time></trkpt><trkpt lat="44.739311250342546" lon="9.444493740666083"><ele>890.0</ele><time>2026-04-11T10:41:48.001Z</time></trkpt><trkpt lat="44.739270553520356" lon="9.444587043361398"><ele>892.4285714285714</ele><time>2026-04-11T10:41:49.001Z</time></trkpt><trkpt lat="44.73924990010987" lon="9.44467893932698"><ele>894.8571428571429</ele><time>2026-04-11T10:41:50.001Z</time></trkpt><trkpt lat="44.739213813775244" lon="9.444755661080235"><ele>897.2857142857143</ele><time>2026-04-11T10:41:51.001Z</time></trkpt><trkpt lat="44.73918413759584" lon="9.44483797119166"><ele>899.7142857142858</ele><time>2026-04-11T10:41:52.001Z</time></trkpt><trkpt lat="44.739143508015644" lon="9.444916616731906"><ele>902.1428571428571</ele><time>2026-04-11T10:41:53.001Z</time></trkpt><trkpt lat="44.73909802210445" lon="9.445005214471465"><ele>904.5714285714287</ele><time>2026-04-11T10:41:54.001Z</time></trkpt><trkpt lat="44.73907169810561" lon="9.445097047833482"><ele>907.0000000000001</ele><time>2026-04-11T10:41:55.001Z</time></trkpt><trkpt lat="44.73898062249775" lon="9.445190135088753"><ele>906.9999999999999</ele><time>2026-04-11T10:41:57.001Z</time></trkpt><trkpt lat="44.738904833911334" lon="9.445213947885266"><ele>907.0</ele><time>2026-04-11T10:41:58.001Z</time></trkpt><trkpt lat="44.73883876692991" lon="9.44526936409218"><ele>907.0</ele><time>2026-04-11T10:41:59.001Z</time></trkpt><trkpt lat="44.73886519212842" lon="9.445399450368864"><ele>907.0</ele><time>2026-04-11T10:42:01.001Z</time></trkpt><trkpt lat="44.73891032019085" lon="9.44547091977594"><ele>906.9999999999999</ele><time>2026-04-11T10:42:02.001Z</time></trkpt><trkpt lat="44.738971158965946" lon="9.445561084004284"><ele>907.0</ele><time>2026-04-11T10:42:03.001Z</time></trkpt><trkpt lat="44.73899615996554" lon="9.445649871239775"><ele>909.4999999999999</ele><time>2026-04-11T10:42:04.001Z</time></trkpt><trkpt lat="44.739039323630045" lon="9.445754779497976"><ele>912.0</ele><time>2026-04-11T10:42:05.001Z</time></trkpt><trkpt lat="44.73908019485817" lon="9.4458778777583"><ele>914.5</ele><time>2026-04-11T10:42:06.001Z</time></trkpt><trkpt lat="44.73910301493308" lon="9.446002393233943"><ele>917.0</ele><time>2026-04-11T10:42:07.001Z</time></trkpt><trkpt lat="44.7391028829791" lon="9.446128764690673"><ele>919.4999999999999</ele><time>2026-04-11T10:42:08.001Z</time></trkpt><trkpt lat="44.73907527145118" lon="9.446233248784047"><ele>922.0</ele><time>2026-04-11T10:42:09.001Z</time></trkpt><trkpt lat="44.73905893059343" lon="9.446336297695897"><ele>921.9999999999999</ele><time>2026-04-11T10:42:10.001Z</time></trkpt><trkpt lat="44.73902942275501" lon="9.44644056241717"><ele>922.0</ele><time>2026-04-11T10:42:12.001Z</time></trkpt><trkpt lat="44.738931373899966" lon="9.446418600616322"><ele>922.0</ele><time>2026-04-11T10:42:14.001Z</time></trkpt><trkpt lat="44.73887087228814" lon="9.446367976229633"><ele>922.0</ele><time>2026-04-11T10:42:15.001Z</time></trkpt><trkpt lat="44.738789234860604" lon="9.446301656444268"><ele>921.9999999999999</ele><time>2026-04-11T10:42:16.001Z</time></trkpt><trkpt lat="44.73869300700348" lon="9.446278353393403"><ele>922.0</ele><time>2026-04-11T10:42:17.001Z</time></trkpt><trkpt lat="44.73860923440162" lon="9.446284540187623"><ele>926.6666666666666</ele><time>2026-04-11T10:42:18.001Z</time></trkpt><trkpt lat="44.73854465231838" lon="9.446295532757805"><ele>931.3333333333333</ele><time>2026-04-11T10:42:19.001Z</time></trkpt><trkpt lat="44.73846255547614" lon="9.446322771902038"><ele>936.0</ele><time>2026-04-11T10:42:20.001Z</time></trkpt><trkpt lat="44.738378075071175" lon="9.446329854694431"><ele>940.6666666666667</ele><time>2026-04-11T10:42:21.001Z</time></trkpt><trkpt lat="44.738293381572014" lon="9.446363801983102"><ele>945.3333333333334</ele><time>2026-04-11T10:42:22.001Z</time></trkpt><trkpt lat="44.738216672172214" lon="9.446402474544723"><ele>950.0</ele><time>2026-04-11T10:42:23.001Z</time></trkpt><trkpt lat="44.73814513505159" lon="9.446472188012784"><ele>950.0</ele><time>2026-04-11T10:42:24.001Z</time></trkpt><trkpt lat="44.738084840047726" lon="9.446592295181654"><ele>950.0</ele><time>2026-04-11T10:42:25.001Z</time></trkpt><trkpt lat="44.73804146244915" lon="9.446680610978543"><ele>950.0</ele><time>2026-04-11T10:42:26.001Z</time></trkpt><trkpt lat="44.7379890671767" lon="9.446982779800186"><ele>950.0</ele><time>2026-04-11T10:42:29Z</time></trkpt><trkpt lat="44.737999053059255" lon="9.447070948014522"><ele>950.8</ele><time>2026-04-11T10:42:30Z</time></trkpt><trkpt lat="44.737900811142126" lon="9.447230265771632"><ele>951.6</ele><time>2026-04-11T10:42:32Z</time></trkpt><trkpt lat="44.73781962280536" lon="9.447275749944586"><ele>952.4000000000001</ele><time>2026-04-11T10:42:33Z</time></trkpt><trkpt lat="44.73773520275699" lon="9.447304109247058"><ele>953.2</ele><time>2026-04-11T10:42:34Z</time></trkpt><trkpt lat="44.7376586905787" lon="9.447364830356468"><ele>954.0</ele><time>2026-04-11T10:42:35Z</time></trkpt><trkpt lat="44.73757675686579" lon="9.4474473706108"><ele>954.0</ele><time>2026-04-11T10:42:36Z</time></trkpt><trkpt lat="44.73748392260748" lon="9.447511928643387"><ele>954.0</ele><time>2026-04-11T10:42:37Z</time></trkpt><trkpt lat="44.73740460399686" lon="9.447533343573843"><ele>954.0</ele><time>2026-04-11T10:42:38Z</time></trkpt><trkpt lat="44.73734856188527" lon="9.447580887292727"><ele>954.0</ele><time>2026-04-11T10:42:39Z</time></trkpt><trkpt lat="44.73732143910223" lon="9.447663994427378"><ele>954.0</ele><time>2026-04-11T10:42:40Z</time></trkpt><trkpt lat="44.73731230021348" lon="9.447771750939312"><ele>954.0</ele><time>2026-04-11T10:42:41Z</time></trkpt><trkpt lat="44.73730165499055" lon="9.447886264410725"><ele>956.8333333333334</ele><time>2026-04-11T10:42:42Z</time></trkpt><trkpt lat="44.73729766113422" lon="9.448015668187693"><ele>959.6666666666667</ele><time>2026-04-11T10:42:43Z</time></trkpt><trkpt lat="44.73727125535223" lon="9.448133512862919"><ele>962.5</ele><time>2026-04-11T10:42:44Z</time></trkpt><trkpt lat="44.73720376493995" lon="9.448153669642382"><ele>965.3333333333334</ele><time>2026-04-11T10:42:46Z</time></trkpt><trkpt lat="44.737132956965524" lon="9.448132569622361"><ele>968.1666666666667</ele><time>2026-04-11T10:42:47Z</time></trkpt><trkpt lat="44.73704648973901" lon="9.448099831508072"><ele>971.0</ele><time>2026-04-11T10:42:49Z</time></trkpt><trkpt lat="44.736999566685945" lon="9.448002996279227"><ele>968.8</ele><time>2026-04-11T10:42:51Z</time></trkpt><trkpt lat="44.73692404687566" lon="9.447958204851977"><ele>966.5999999999999</ele><time>2026-04-11T10:42:52Z</time></trkpt><trkpt lat="44.73683969955558" lon="9.447886809237515"><ele>964.4</ele><time>2026-04-11T10:42:54Z</time></trkpt><trkpt lat="44.73672704689199" lon="9.44799421663741"><ele>962.2</ele><time>2026-04-11T10:42:56Z</time></trkpt><trkpt lat="44.73662797138508" lon="9.44807104682425"><ele>960.0</ele><time>2026-04-11T10:42:57Z</time></trkpt><trkpt lat="44.73655029811673" lon="9.448146477315131"><ele>960.0</ele><time>2026-04-11T10:42:58Z</time></trkpt><trkpt lat="44.736478766172844" lon="9.448199059178455"><ele>960.0</ele><time>2026-04-11T10:42:59Z</time></trkpt><trkpt lat="44.73641355996813" lon="9.448218541209759"><ele>960.0</ele><time>2026-04-11T10:43:00Z</time></trkpt><trkpt lat="44.73633489543218" lon="9.448182865142568"><ele>960.0</ele><time>2026-04-11T10:43:01Z</time></trkpt><trkpt lat="44.736252712649126" lon="9.44812474756738"><ele>960.0</ele><time>2026-04-11T10:43:02Z</time></trkpt><trkpt lat="44.73618766869095" lon="9.44811857734416"><ele>960.0</ele><time>2026-04-11T10:43:03Z</time></trkpt><trkpt lat="44.736091419740546" lon="9.448114965406603"><ele>959.4</ele><time>2026-04-11T10:43:04Z</time></trkpt><trkpt lat="44.73598462923634" lon="9.448141400825056"><ele>958.8</ele><time>2026-04-11T10:43:05Z</time></trkpt><trkpt lat="44.735869651092756" lon="9.448182654944233"><ele>958.2</ele><time>2026-04-11T10:43:06Z</time></trkpt><trkpt lat="44.73578693739668" lon="9.448218079767924"><ele>957.6</ele><time>2026-04-11T10:43:07Z</time></trkpt><trkpt lat="44.73573064565809" lon="9.44828494658953"><ele>957.0</ele><time>2026-04-11T10:43:08Z</time></trkpt><trkpt lat="44.7356542106642" lon="9.448396008625997"><ele>957.0</ele><time>2026-04-11T10:43:09Z</time></trkpt><trkpt lat="44.73557414614148" lon="9.448476412026025"><ele>957.0</ele><time>2026-04-11T10:43:10Z</time></trkpt><trkpt lat="44.73551241586837" lon="9.44838575284729"><ele>957.0</ele><time>2026-04-11T10:43:12Z</time></trkpt><trkpt lat="44.73549658763886" lon="9.448289445361576"><ele>957.0</ele><time>2026-04-11T10:43:13Z</time></trkpt><trkpt lat="44.735485440921714" lon="9.448132481806898"><ele>957.0</ele><time>2026-04-11T10:43:14Z</time></trkpt><trkpt lat="44.73546773426246" lon="9.447991436718201"><ele>956.25</ele><time>2026-04-11T10:43:15Z</time></trkpt><trkpt lat="44.73544346544118" lon="9.447830429303263"><ele>955.5</ele><time>2026-04-11T10:43:16Z</time></trkpt><trkpt lat="44.73538364344055" lon="9.447703589931052"><ele>954.75</ele><time>2026-04-11T10:43:17Z</time></trkpt><trkpt lat="44.73529486066479" lon="9.447801449933683"><ele>954.0</ele><time>2026-04-11T10:43:19Z</time></trkpt><trkpt lat="44.73519000591064" lon="9.44787013636023"><ele>954.0</ele><time>2026-04-11T10:43:20Z</time></trkpt><trkpt lat="44.735094749513095" lon="9.447921079424237"><ele>954.0000000000001</ele><time>2026-04-11T10:43:21Z</time></trkpt><trkpt lat="44.73498859266154" lon="9.447965205473075"><ele>954.0000000000001</ele><time>2026-04-11T10:43:22Z</time></trkpt><trkpt lat="44.73490942235295" lon="9.44796557253479"><ele>954.0</ele><time>2026-04-11T10:43:23Z</time></trkpt><trkpt lat="44.73483810261301" lon="9.447805192026754"><ele>954.0</ele><time>2026-04-11T10:43:25Z</time></trkpt><trkpt lat="44.73475786200056" lon="9.447737284797997"><ele>954.0</ele><time>2026-04-11T10:43:26Z</time></trkpt><trkpt lat="44.73466773791297" lon="9.447667926805655"><ele>954.0000000000001</ele><time>2026-04-11T10:43:27Z</time></trkpt><trkpt lat="44.734591810279156" lon="9.447673773175339"><ele>954.0000000000001</ele><time>2026-04-11T10:43:28Z</time></trkpt><trkpt lat="44.734509090513974" lon="9.447751655620532"><ele>954.0</ele><time>2026-04-11T10:43:30Z</time></trkpt><trkpt lat="44.73441095057764" lon="9.447678337283532"><ele>954.0</ele><time>2026-04-11T10:43:32Z</time></trkpt><trkpt lat="44.73438604179115" lon="9.447592670469316"><ele>955.6</ele><time>2026-04-11T10:43:33Z</time></trkpt><trkpt lat="44.73434063711429" lon="9.447454604459029"><ele>957.2</ele><time>2026-04-11T10:43:34Z</time></trkpt><trkpt lat="44.734294403862116" lon="9.44732944339254"><ele>958.8000000000001</ele><time>2026-04-11T10:43:35Z</time></trkpt><trkpt lat="44.734220540449265" lon="9.447274332212999"><ele>960.4000000000001</ele><time>2026-04-11T10:43:36Z</time></trkpt><trkpt lat="44.73410189345987" lon="9.447218884358014"><ele>962.0</ele><time>2026-04-11T10:43:37Z</time></trkpt><trkpt lat="44.73399995464761" lon="9.44721479133349"><ele>962.0</ele><time>2026-04-11T10:43:38Z</time></trkpt><trkpt lat="44.733881156028694" lon="9.44725326894619"><ele>962.0</ele><time>2026-04-11T10:43:39Z</time></trkpt><trkpt lat="44.73373925557611" lon="9.44728125904381"><ele>962.0</ele><time>2026-04-11T10:43:40Z</time></trkpt><trkpt lat="44.73364185526185" lon="9.447252040851295"><ele>962.0</ele><time>2026-04-11T10:43:41Z</time></trkpt><trkpt lat="44.733546164130985" lon="9.447178077950902"><ele>963.8</ele><time>2026-04-11T10:43:42Z</time></trkpt><trkpt lat="44.73346130880311" lon="9.447146191852266"><ele>965.6</ele><time>2026-04-11T10:43:43Z</time></trkpt><trkpt lat="44.73337212706973" lon="9.447201103428945"><ele>967.3999999999999</ele><time>2026-04-11T10:43:44Z</time></trkpt><trkpt lat="44.7332902661743" lon="9.447246910726427"><ele>969.1999999999999</ele><time>2026-04-11T10:43:45Z</time></trkpt><trkpt lat="44.733221250014545" lon="9.447300181988306"><ele>971.0</ele><time>2026-04-11T10:43:46Z</time></trkpt><trkpt lat="44.7331299828315" lon="9.447368849483606"><ele>971.0</ele><time>2026-04-11T10:43:47Z</time></trkpt><trkpt lat="44.73307153054684" lon="9.44747446432994"><ele>970.9999999999999</ele><time>2026-04-11T10:43:48Z</time></trkpt><trkpt lat="44.7330162282551" lon="9.447598305047537"><ele>970.9999999999999</ele><time>2026-04-11T10:43:49Z</time></trkpt><trkpt lat="44.73296261148075" lon="9.44772885086836"><ele>971.0</ele><time>2026-04-11T10:43:50Z</time></trkpt><trkpt lat="44.73291468902086" lon="9.447874314413738"><ele>971.0</ele><time>2026-04-11T10:43:51.001Z</time></trkpt><trkpt lat="44.73286605895234" lon="9.44799534975074"><ele>971.0000000000001</ele><time>2026-04-11T10:43:52.001Z</time></trkpt><trkpt lat="44.73279166438156" lon="9.448006344008903"><ele>971.0</ele><time>2026-04-11T10:43:54.001Z</time></trkpt><trkpt lat="44.732724258547634" lon="9.447955739161026"><ele>971.0</ele><time>2026-04-11T10:43:55.001Z</time></trkpt><trkpt lat="44.732641201860304" lon="9.447873338309474"><ele>971.0</ele><time>2026-04-11T10:43:56.001Z</time></trkpt><trkpt lat="44.73255490671361" lon="9.447796488524014"><ele>971.0000000000001</ele><time>2026-04-11T10:43:57.001Z</time></trkpt><trkpt lat="44.7324936768109" lon="9.447695554156917"><ele>971.0</ele><time>2026-04-11T10:43:58.001Z</time></trkpt><trkpt lat="44.73245748143211" lon="9.44758331667264"><ele>973.5999999999999</ele><time>2026-04-11T10:43:59.001Z</time></trkpt><trkpt lat="44.73241183858927" lon="9.447466637049665"><ele>976.1999999999999</ele><time>2026-04-11T10:44:00.001Z</time></trkpt><trkpt lat="44.73237333997991" lon="9.447335324550549"><ele>978.8000000000001</ele><time>2026-04-11T10:44:01.001Z</time></trkpt><trkpt lat="44.732310832205435" lon="9.447172636692002"><ele>981.4000000000001</ele><time>2026-04-11T10:44:02.001Z</time></trkpt><trkpt lat="44.73229448566475" lon="9.447034340202904"><ele>984.0</ele><time>2026-04-11T10:44:03.001Z</time></trkpt><trkpt lat="44.73229195430601" lon="9.446913454680285"><ele>984.0</ele><time>2026-04-11T10:44:04.001Z</time></trkpt><trkpt lat="44.73227716639088" lon="9.446807372273677"><ele>984.0</ele><time>2026-04-11T10:44:05.001Z</time></trkpt><trkpt lat="44.73225702993512" lon="9.446667369332562"><ele>984.0</ele><time>2026-04-11T10:44:06.001Z</time></trkpt><trkpt lat="44.732220707001005" lon="9.446533648877447"><ele>984.0</ele><time>2026-04-11T10:44:07.001Z</time></trkpt><trkpt lat="44.73220800050902" lon="9.446445383641949"><ele>984.0</ele><time>2026-04-11T10:44:09.001Z</time></trkpt><trkpt lat="44.73215458727333" lon="9.446345523546103"><ele>984.0</ele><time>2026-04-11T10:44:11.001Z</time></trkpt><trkpt lat="44.7320954081992" lon="9.446246783652501"><ele>984.6</ele><time>2026-04-11T10:44:12.001Z</time></trkpt><trkpt lat="44.73210991823625" lon="9.446114356663468"><ele>985.2</ele><time>2026-04-11T10:44:14.001Z</time></trkpt><trkpt lat="44.732155144919155" lon="9.44602582393785"><ele>985.8000000000001</ele><time>2026-04-11T10:44:15.001Z</time></trkpt><trkpt lat="44.732192071021274" lon="9.445913316944003"><ele>986.4000000000001</ele><time>2026-04-11T10:44:16.001Z</time></trkpt><trkpt lat="44.732177184201404" lon="9.445773615713227"><ele>987.0</ele><time>2026-04-11T10:44:18.001Z</time></trkpt><trkpt lat="44.73212748467246" lon="9.445642958211403"><ele>987.0</ele><time>2026-04-11T10:44:19.001Z</time></trkpt><trkpt lat="44.73207003182761" lon="9.445548497641768"><ele>987.0</ele><time>2026-04-11T10:44:20.001Z</time></trkpt><trkpt lat="44.731980236016284" lon="9.44545573696946"><ele>987.0</ele><time>2026-04-11T10:44:22.001Z</time></trkpt><trkpt lat="44.73188535036717" lon="9.445443984418292"><ele>987.0</ele><time>2026-04-11T10:44:23.001Z</time></trkpt><trkpt lat="44.73179001306721" lon="9.445428315679179"><ele>987.0</ele><time>2026-04-11T10:44:24.001Z</time></trkpt><trkpt lat="44.73169509690109" lon="9.445404733997204"><ele>985.0</ele><time>2026-04-11T10:44:25.001Z</time></trkpt><trkpt lat="44.731635490277675" lon="9.445356404481268"><ele>983.0</ele><time>2026-04-11T10:44:26.001Z</time></trkpt><trkpt lat="44.731599171553086" lon="9.44527757878809"><ele>981.0</ele><time>2026-04-11T10:44:28.001Z</time></trkpt><trkpt lat="44.73176599619945" lon="9.445109390968314"><ele>979.0</ele><time>2026-04-11T10:44:30Z</time></trkpt><trkpt lat="44.73182962335801" lon="9.445031187517875"><ele>977.0</ele><time>2026-04-11T10:44:31Z</time></trkpt><trkpt lat="44.73188626029976" lon="9.444970319514987"><ele>977.0000000000001</ele><time>2026-04-11T10:44:32Z</time></trkpt><trkpt lat="44.731900789872014" lon="9.44486272203996"><ele>977.0</ele><time>2026-04-11T10:44:33Z</time></trkpt><trkpt lat="44.73187174116216" lon="9.444734791864672"><ele>977.0</ele><time>2026-04-11T10:44:34Z</time></trkpt><trkpt lat="44.731862655934755" lon="9.444639853559938"><ele>977.0</ele><time>2026-04-11T10:44:35Z</time></trkpt><trkpt lat="44.731811582512734" lon="9.44457090904395"><ele>977.0000000000001</ele><time>2026-04-11T10:44:36Z</time></trkpt><trkpt lat="44.73174291627879" lon="9.444498214751638"><ele>977.0</ele><time>2026-04-11T10:44:37Z</time></trkpt><trkpt lat="44.7316986195243" lon="9.444418975344895"><ele>975.8333333333334</ele><time>2026-04-11T10:44:38Z</time></trkpt><trkpt lat="44.73166399688404" lon="9.444306064636887"><ele>974.6666666666667</ele><time>2026-04-11T10:44:39Z</time></trkpt><trkpt lat="44.731647129434556" lon="9.44418137877499"><ele>973.5</ele><time>2026-04-11T10:44:40Z</time></trkpt><trkpt lat="44.73162353848771" lon="9.444044193011738"><ele>972.3333333333333</ele><time>2026-04-11T10:44:41Z</time></trkpt><trkpt lat="44.73159060153683" lon="9.443939585338626"><ele>971.1666666666666</ele><time>2026-04-11T10:44:42Z</time></trkpt><trkpt lat="44.73157729523416" lon="9.443828064172822"><ele>970.0</ele><time>2026-04-11T10:44:43Z</time></trkpt><trkpt lat="44.73151481063036" lon="9.443722638118743"><ele>970.0</ele><time>2026-04-11T10:44:45Z</time></trkpt><trkpt lat="44.731422997257376" lon="9.443777099227896"><ele>970.0</ele><time>2026-04-11T10:44:48Z</time></trkpt><trkpt lat="44.73134335800368" lon="9.443876211701872"><ele>970.0</ele><time>2026-04-11T10:44:50Z</time></trkpt><trkpt lat="44.731293752971865" lon="9.443957537648402"><ele>970.0</ele><time>2026-04-11T10:44:51Z</time></trkpt><trkpt lat="44.73125042809456" lon="9.44406640559334"><ele>970.0</ele><time>2026-04-11T10:44:52Z</time></trkpt><trkpt lat="44.73119576099154" lon="9.444162177405184"><ele>969.9999999999999</ele><time>2026-04-11T10:44:53Z</time></trkpt><trkpt lat="44.73112781761919" lon="9.444238473582136"><ele>970.0</ele><time>2026-04-11T10:44:54Z</time></trkpt><trkpt lat="44.73108903406094" lon="9.444334662405339"><ele>970.0</ele><time>2026-04-11T10:44:55Z</time></trkpt><trkpt lat="44.73104979194885" lon="9.44440823574153"><ele>970.0</ele><time>2026-04-11T10:44:56Z</time></trkpt><trkpt lat="44.73097925552962" lon="9.44454592458505"><ele>969.9999999999999</ele><time>2026-04-11T10:44:58Z</time></trkpt><trkpt lat="44.73094123022954" lon="9.444617009009098"><ele>970.0</ele><time>2026-04-11T10:44:59Z</time></trkpt><trkpt lat="44.73091055645309" lon="9.444696524926806"><ele>967.1666666666666</ele><time>2026-04-11T10:45:00Z</time></trkpt><trkpt lat="44.73087300382026" lon="9.444784388920514"><ele>964.3333333333333</ele><time>2026-04-11T10:45:01Z</time></trkpt><trkpt lat="44.73083055532065" lon="9.444873422285559"><ele>961.5</ele><time>2026-04-11T10:45:02Z</time></trkpt><trkpt lat="44.73077890016294" lon="9.444971412373834"><ele>958.6666666666667</ele><time>2026-04-11T10:45:03Z</time></trkpt><trkpt lat="44.730714254166884" lon="9.445041292199067"><ele>955.8333333333334</ele><time>2026-04-11T10:45:04Z</time></trkpt><trkpt lat="44.73067243602303" lon="9.44514201632451"><ele>953.0</ele><time>2026-04-11T10:45:05Z</time></trkpt><trkpt lat="44.73061578178619" lon="9.445226381508029"><ele>953.0000000000001</ele><time>2026-04-11T10:45:06Z</time></trkpt><trkpt lat="44.730560591370406" lon="9.445309288006014"><ele>953.0</ele><time>2026-04-11T10:45:07Z</time></trkpt><trkpt lat="44.73051103202599" lon="9.445401506094969"><ele>953.0</ele><time>2026-04-11T10:45:08Z</time></trkpt><trkpt lat="44.73046329041434" lon="9.445480648705972"><ele>953.0</ele><time>2026-04-11T10:45:09Z</time></trkpt><trkpt lat="44.73039174008132" lon="9.445493058101961"><ele>953.0000000000001</ele><time>2026-04-11T10:45:10Z</time></trkpt><trkpt lat="44.730315921770064" lon="9.445445678284079"><ele>953.0</ele><time>2026-04-11T10:45:11Z</time></trkpt><trkpt lat="44.73026401223704" lon="9.44533639398887"><ele>950.2</ele><time>2026-04-11T10:45:12Z</time></trkpt><trkpt lat="44.73019122414707" lon="9.445255572857429"><ele>947.4</ele><time>2026-04-11T10:45:13Z</time></trkpt><trkpt lat="44.730104204968804" lon="9.445188210511034"><ele>944.6000000000001</ele><time>2026-04-11T10:45:14Z</time></trkpt><trkpt lat="44.730027205827206" lon="9.44510841339389"><ele>941.8000000000001</ele><time>2026-04-11T10:45:15Z</time></trkpt><trkpt lat="44.72996899966576" lon="9.445018742138268"><ele>939.0</ele><time>2026-04-11T10:45:16Z</time></trkpt><trkpt lat="44.729897065149245" lon="9.44496282145183"><ele>939.0</ele><time>2026-04-11T10:45:17Z</time></trkpt><trkpt lat="44.72984010293064" lon="9.444908218860274"><ele>939.0</ele><time>2026-04-11T10:45:18Z</time></trkpt><trkpt lat="44.72979807349742" lon="9.44483844135805"><ele>939.0</ele><time>2026-04-11T10:45:19Z</time></trkpt><trkpt lat="44.729739157825264" lon="9.444776239681358"><ele>939.0</ele><time>2026-04-11T10:45:20Z</time></trkpt><trkpt lat="44.72967680646993" lon="9.444709866573506"><ele>939.0</ele><time>2026-04-11T10:45:21Z</time></trkpt><trkpt lat="44.72960336827265" lon="9.44462912398936"><ele>939.0</ele><time>2026-04-11T10:45:22Z</time></trkpt><trkpt lat="44.72953136667655" lon="9.444540859258055"><ele>938.5</ele><time>2026-04-11T10:45:23Z</time></trkpt><trkpt lat="44.72945997738466" lon="9.444435260574942"><ele>938.0</ele><time>2026-04-11T10:45:24Z</time></trkpt><trkpt lat="44.729407458102315" lon="9.44435125349729"><ele>937.5</ele><time>2026-04-11T10:45:25Z</time></trkpt><trkpt lat="44.72937285775049" lon="9.444272090947694"><ele>937.0</ele><time>2026-04-11T10:45:26Z</time></trkpt><trkpt lat="44.72935078561369" lon="9.44413941855241"><ele>936.5</ele><time>2026-04-11T10:45:28Z</time></trkpt><trkpt lat="44.72937970452842" lon="9.444049823817783"><ele>936.0</ele><time>2026-04-11T10:45:31Z</time></trkpt><trkpt lat="44.729420230170035" lon="9.443977317959565"><ele>935.5</ele><time>2026-04-11T10:45:33Z</time></trkpt><trkpt lat="44.72949887233272" lon="9.443886952300154"><ele>935.0</ele><time>2026-04-11T10:45:35Z</time></trkpt><trkpt lat="44.729574892124994" lon="9.443799309648083"><ele>934.5</ele><time>2026-04-11T10:45:37Z</time></trkpt><trkpt lat="44.72962959216506" lon="9.44373300349278"><ele>934.0</ele><time>2026-04-11T10:45:39Z</time></trkpt><trkpt lat="44.72969551072499" lon="9.443648878275527"><ele>933.5</ele><time>2026-04-11T10:45:44Z</time></trkpt><trkpt lat="44.729724377769294" lon="9.443531800482427"><ele>933.0</ele><time>2026-04-11T10:45:47.999Z</time></trkpt><trkpt lat="44.7297638934766" lon="9.443446708999069"><ele>933.0</ele><time>2026-04-11T10:45:49.999Z</time></trkpt><trkpt lat="44.72979389521088" lon="9.44335856688511"><ele>932.9999999999999</ele><time>2026-04-11T10:45:52.999Z</time></trkpt><trkpt lat="44.72975981252492" lon="9.443455066136599"><ele>933.0</ele><time>2026-04-11T10:46:18.001Z</time></trkpt><trkpt lat="44.72972167119915" lon="9.443538075114436"><ele>933.0</ele><time>2026-04-11T10:46:21.001Z</time></trkpt><trkpt lat="44.729688496429695" lon="9.443614982791479"><ele>932.9999999999999</ele><time>2026-04-11T10:46:23Z</time></trkpt><trkpt lat="44.72965367433487" lon="9.443695709510926"><ele>933.0</ele><time>2026-04-11T10:46:25Z</time></trkpt><trkpt lat="44.72960524054488" lon="9.443770276502121"><ele>933.0</ele><time>2026-04-11T10:46:27Z</time></trkpt><trkpt lat="44.729504454142784" lon="9.443892704479076"><ele>933.0</ele><time>2026-04-11T10:46:29Z</time></trkpt><trkpt lat="44.729446083702065" lon="9.443947812815857"><ele>933.0</ele><time>2026-04-11T10:46:30Z</time></trkpt><trkpt lat="44.72936164744626" lon="9.444052755219843"><ele>933.0</ele><time>2026-04-11T10:46:32Z</time></trkpt><trkpt lat="44.72932702696641" lon="9.444162491015097"><ele>933.0</ele><time>2026-04-11T10:46:34Z</time></trkpt><trkpt lat="44.72933490096034" lon="9.444339126407524"><ele>933.0</ele><time>2026-04-11T10:46:36Z</time></trkpt><trkpt lat="44.729421821236585" lon="9.444445827983223"><ele>933.0</ele><time>2026-04-11T10:46:37Z</time></trkpt><trkpt lat="44.72947357067423" lon="9.444534450564346"><ele>933.0</ele><time>2026-04-11T10:46:38Z</time></trkpt><trkpt lat="44.72955488397918" lon="9.444598550108985"><ele>933.0</ele><time>2026-04-11T10:46:39Z</time></trkpt><trkpt lat="44.72961295982791" lon="9.44468462861894"><ele>933.0</ele><time>2026-04-11T10:46:40Z</time></trkpt><trkpt lat="44.72968303073754" lon="9.444757021235061"><ele>933.0</ele><time>2026-04-11T10:46:41Z</time></trkpt><trkpt lat="44.72976146112117" lon="9.444802942278868"><ele>933.0</ele><time>2026-04-11T10:46:42Z</time></trkpt><trkpt lat="44.72982238863486" lon="9.444869929751764"><ele>934.0</ele><time>2026-04-11T10:46:43Z</time></trkpt><trkpt lat="44.729884754762644" lon="9.444929877697879"><ele>935.0</ele><time>2026-04-11T10:46:44Z</time></trkpt><trkpt lat="44.72995234606716" lon="9.445001176199964"><ele>936.0</ele><time>2026-04-11T10:46:45Z</time></trkpt><trkpt lat="44.73001341466441" lon="9.445094028760957"><ele>937.0</ele><time>2026-04-11T10:46:46Z</time></trkpt><trkpt lat="44.730091811438754" lon="9.44514828964388"><ele>938.0</ele><time>2026-04-11T10:46:47Z</time></trkpt><trkpt lat="44.73014243792713" lon="9.445201692795116"><ele>939.0</ele><time>2026-04-11T10:46:48Z</time></trkpt><trkpt lat="44.73019386042934" lon="9.445258500069736"><ele>941.3333333333334</ele><time>2026-04-11T10:46:51Z</time></trkpt><trkpt lat="44.73025274191364" lon="9.445352159257075"><ele>943.6666666666667</ele><time>2026-04-11T10:46:53Z</time></trkpt><trkpt lat="44.730309084066484" lon="9.445429330200769"><ele>946.0</ele><time>2026-04-11T10:46:54Z</time></trkpt><trkpt lat="44.73038169724822" lon="9.445477635264828"><ele>948.3333333333334</ele><time>2026-04-11T10:46:55Z</time></trkpt><trkpt lat="44.73045395409226" lon="9.445480171461623"><ele>950.6666666666667</ele><time>2026-04-11T10:46:56Z</time></trkpt><trkpt lat="44.730522500190304" lon="9.445470660925237"><ele>953.0</ele><time>2026-04-11T10:46:57Z</time></trkpt><trkpt lat="44.73059230919516" lon="9.445398223452043"><ele>953.0</ele><time>2026-04-11T10:46:58Z</time></trkpt><trkpt lat="44.730629304796174" lon="9.445270061603756"><ele>953.0</ele><time>2026-04-11T10:46:59Z</time></trkpt><trkpt lat="44.730688589569986" lon="9.445149692832366"><ele>953.0</ele><time>2026-04-11T10:47:00Z</time></trkpt><trkpt lat="44.73076075701341" lon="9.445039481975416"><ele>953.0</ele><time>2026-04-11T10:47:01Z</time></trkpt><trkpt lat="44.73082045479748" lon="9.44491156071001"><ele>953.0</ele><time>2026-04-11T10:47:02Z</time></trkpt><trkpt lat="44.73088047000817" lon="9.444783379617745"><ele>953.0</ele><time>2026-04-11T10:47:03Z</time></trkpt><trkpt lat="44.73094458788939" lon="9.444667729560287"><ele>953.0</ele><time>2026-04-11T10:47:04Z</time></trkpt><trkpt lat="44.730986859665315" lon="9.44454059162269"><ele>953.0</ele><time>2026-04-11T10:47:05Z</time></trkpt><trkpt lat="44.73105473363579" lon="9.444446744795176"><ele>953.0</ele><time>2026-04-11T10:47:06Z</time></trkpt><trkpt lat="44.7310966399006" lon="9.44433275668502"><ele>953.0</ele><time>2026-04-11T10:47:07Z</time></trkpt><trkpt lat="44.73115974512449" lon="9.444223644788746"><ele>954.8</ele><time>2026-04-11T10:47:08Z</time></trkpt><trkpt lat="44.73124376642095" lon="9.444118394043093"><ele>956.5999999999999</ele><time>2026-04-11T10:47:09Z</time></trkpt><trkpt lat="44.73131377771877" lon="9.443997061104819"><ele>958.4000000000001</ele><time>2026-04-11T10:47:10Z</time></trkpt><trkpt lat="44.731391480116294" lon="9.44387806644392"><ele>960.2</ele><time>2026-04-11T10:47:11Z</time></trkpt><trkpt lat="44.73144469054022" lon="9.443766477704088"><ele>962.0</ele><time>2026-04-11T10:47:12Z</time></trkpt><trkpt lat="44.73149790931264" lon="9.443686508486957"><ele>962.0000000000001</ele><time>2026-04-11T10:47:13Z</time></trkpt><trkpt lat="44.73152650006813" lon="9.44356656750991"><ele>962.0</ele><time>2026-04-11T10:47:14Z</time></trkpt><trkpt lat="44.73153972648057" lon="9.443454690095173"><ele>962.0</ele><time>2026-04-11T10:47:15Z</time></trkpt><trkpt lat="44.73157535706141" lon="9.443358605355542"><ele>962.0</ele><time>2026-04-11T10:47:16Z</time></trkpt><trkpt lat="44.731596380242365" lon="9.44326793300215"><ele>962.0000000000001</ele><time>2026-04-11T10:47:17Z</time></trkpt><trkpt lat="44.73161885933871" lon="9.443106516743855"><ele>962.0</ele><time>2026-04-11T10:47:19Z</time></trkpt><trkpt lat="44.731646059798486" lon="9.443024196482076"><ele>960.8333333333334</ele><time>2026-04-11T10:47:20Z</time></trkpt><trkpt lat="44.73164438524015" lon="9.442934955919947"><ele>959.6666666666667</ele><time>2026-04-11T10:47:21Z</time></trkpt><trkpt lat="44.731652837334835" lon="9.442810572002031"><ele>958.5</ele><time>2026-04-11T10:47:23Z</time></trkpt><trkpt lat="44.73158159607633" lon="9.44271530329391"><ele>957.3333333333333</ele><time>2026-04-11T10:47:25Z</time></trkpt><trkpt lat="44.73155825969067" lon="9.442606123979274"><ele>956.1666666666666</ele><time>2026-04-11T10:47:27Z</time></trkpt><trkpt lat="44.73151395981667" lon="9.442512117978378"><ele>955.0</ele><time>2026-04-11T10:47:29Z</time></trkpt><trkpt lat="44.7314181933917" lon="9.44265495182264"><ele>955.0</ele><time>2026-04-11T10:47:32Z</time></trkpt><trkpt lat="44.73134179034636" lon="9.44264876917599"><ele>955.0</ele><time>2026-04-11T10:47:34Z</time></trkpt><trkpt lat="44.73127377313908" lon="9.442562922494467"><ele>955.0</ele><time>2026-04-11T10:47:36Z</time></trkpt><trkpt lat="44.731187304565424" lon="9.442616886474998"><ele>955.0</ele><time>2026-04-11T10:47:38Z</time></trkpt><trkpt lat="44.73112240190445" lon="9.442669203476324"><ele>955.0</ele><time>2026-04-11T10:47:39.999Z</time></trkpt><trkpt lat="44.73103500018634" lon="9.442784225800795"><ele>952.6666666666666</ele><time>2026-04-11T10:47:41.999Z</time></trkpt><trkpt lat="44.73097863181598" lon="9.442857082022723"><ele>950.3333333333333</ele><time>2026-04-11T10:47:42.999Z</time></trkpt><trkpt lat="44.73091548964247" lon="9.442933316128045"><ele>948.0</ele><time>2026-04-11T10:47:43.999Z</time></trkpt><trkpt lat="44.73084798935129" lon="9.443008722391868"><ele>945.6666666666667</ele><time>2026-04-11T10:47:44.999Z</time></trkpt><trkpt lat="44.730779733953575" lon="9.443077268307139"><ele>943.3333333333334</ele><time>2026-04-11T10:47:45.999Z</time></trkpt><trkpt lat="44.73071063857061" lon="9.443147232144216"><ele>941.0</ele><time>2026-04-11T10:47:46.999Z</time></trkpt><trkpt lat="44.73063402541463" lon="9.443213406963402"><ele>941.0</ele><time>2026-04-11T10:47:47.999Z</time></trkpt><trkpt lat="44.73056144740247" lon="9.443288942036805"><ele>940.9999999999999</ele><time>2026-04-11T10:47:48.999Z</time></trkpt><trkpt lat="44.73048456631808" lon="9.443360489502895"><ele>940.9999999999999</ele><time>2026-04-11T10:47:49.999Z</time></trkpt><trkpt lat="44.73040173837495" lon="9.443414961632385"><ele>941.0</ele><time>2026-04-11T10:47:50.999Z</time></trkpt><trkpt lat="44.73031187828234" lon="9.443431189798366"><ele>941.0</ele><time>2026-04-11T10:47:51.999Z</time></trkpt><trkpt lat="44.73022709206875" lon="9.443362216824355"><ele>938.4</ele><time>2026-04-11T10:47:52.999Z</time></trkpt><trkpt lat="44.730128795340505" lon="9.44331648838995"><ele>935.8</ele><time>2026-04-11T10:47:53.999Z</time></trkpt><trkpt lat="44.73002552741324" lon="9.443300764506828"><ele>933.1999999999999</ele><time>2026-04-11T10:47:54.999Z</time></trkpt><trkpt lat="44.72992109964916" lon="9.443284932037024"><ele>930.5999999999999</ele><time>2026-04-11T10:47:55.999Z</time></trkpt><trkpt lat="44.729820760549586" lon="9.443275376003466"><ele>928.0</ele><time>2026-04-11T10:47:56.999Z</time></trkpt><trkpt lat="44.729740783098904" lon="9.443208491066912"><ele>927.9999999999999</ele><time>2026-04-11T10:47:57.999Z</time></trkpt><trkpt lat="44.729669311697414" lon="9.4431454633353"><ele>928.0</ele><time>2026-04-11T10:47:58.999Z</time></trkpt><trkpt lat="44.72962011550589" lon="9.443071523699896"><ele>928.0</ele><time>2026-04-11T10:47:59.999Z</time></trkpt><trkpt lat="44.729608740962014" lon="9.442966137191327"><ele>928.0</ele><time>2026-04-11T10:48:00.999Z</time></trkpt><trkpt lat="44.72958345283895" lon="9.442865774733658"><ele>927.9999999999999</ele><time>2026-04-11T10:48:01.999Z</time></trkpt><trkpt lat="44.729547794957604" lon="9.442754099894326"><ele>928.0</ele><time>2026-04-11T10:48:03.001Z</time></trkpt><trkpt lat="44.7294928911061" lon="9.442653717151815"><ele>927.2</ele><time>2026-04-11T10:48:04.001Z</time></trkpt><trkpt lat="44.7294368322676" lon="9.442561913381969"><ele>926.4</ele><time>2026-04-11T10:48:05.001Z</time></trkpt><trkpt lat="44.72936565870192" lon="9.442483927868292"><ele>925.6000000000001</ele><time>2026-04-11T10:48:06.001Z</time></trkpt><trkpt lat="44.72928645582923" lon="9.44240626132398"><ele>924.8000000000001</ele><time>2026-04-11T10:48:07.001Z</time></trkpt><trkpt lat="44.72921316455419" lon="9.442338352091975"><ele>924.0</ele><time>2026-04-11T10:48:08.001Z</time></trkpt><trkpt lat="44.72913165062949" lon="9.442276103088533"><ele>923.6</ele><time>2026-04-11T10:48:09.001Z</time></trkpt><trkpt lat="44.72903610511095" lon="9.442226863297034"><ele>923.2</ele><time>2026-04-11T10:48:10.001Z</time></trkpt><trkpt lat="44.72893522646342" lon="9.442204154779235"><ele>922.8000000000001</ele><time>2026-04-11T10:48:11.001Z</time></trkpt><trkpt lat="44.72883446188873" lon="9.442205694847777"><ele>922.4000000000001</ele><time>2026-04-11T10:48:12.001Z</time></trkpt><trkpt lat="44.728742752915984" lon="9.442216672936079"><ele>922.0</ele><time>2026-04-11T10:48:13.001Z</time></trkpt><trkpt lat="44.728642962962255" lon="9.442218043983313"><ele>922.4000000000001</ele><time>2026-04-11T10:48:14.001Z</time></trkpt><trkpt lat="44.72854548256381" lon="9.442218239622953"><ele>922.8000000000001</ele><time>2026-04-11T10:48:15.001Z</time></trkpt><trkpt lat="44.72845420421855" lon="9.44220906704726"><ele>923.2</ele><time>2026-04-11T10:48:16.001Z</time></trkpt><trkpt lat="44.72838724397544" lon="9.442165940035276"><ele>923.6</ele><time>2026-04-11T10:48:17.001Z</time></trkpt><trkpt lat="44.72829747205502" lon="9.44212448649879"><ele>924.0</ele><time>2026-04-11T10:48:19.001Z</time></trkpt><trkpt lat="44.72820174753049" lon="9.442247828724826"><ele>924.0</ele><time>2026-04-11T10:48:20.001Z</time></trkpt><trkpt lat="44.72812782465192" lon="9.442308286295953"><ele>924.0000000000001</ele><time>2026-04-11T10:48:21.001Z</time></trkpt><trkpt lat="44.72803319552004" lon="9.442360226356406"><ele>924.0000000000001</ele><time>2026-04-11T10:48:22.001Z</time></trkpt><trkpt lat="44.72793339210761" lon="9.442382474405296"><ele>924.0</ele><time>2026-04-11T10:48:23Z</time></trkpt><trkpt lat="44.72783938316687" lon="9.442392444810103"><ele>924.0</ele><time>2026-04-11T10:48:24Z</time></trkpt><trkpt lat="44.72775700719463" lon="9.442421905896712"><ele>924.6666666666666</ele><time>2026-04-11T10:48:25Z</time></trkpt><trkpt lat="44.72767663088892" lon="9.442460274401721"><ele>925.3333333333333</ele><time>2026-04-11T10:48:26Z</time></trkpt><trkpt lat="44.727614749584674" lon="9.44256055402846"><ele>926.0</ele><time>2026-04-11T10:48:27Z</time></trkpt><trkpt lat="44.727546460069945" lon="9.442635670847789"><ele>926.6666666666666</ele><time>2026-04-11T10:48:28Z</time></trkpt><trkpt lat="44.72746481887454" lon="9.44267877878975"><ele>927.3333333333333</ele><time>2026-04-11T10:48:29Z</time></trkpt><trkpt lat="44.72738180159252" lon="9.44264304098601"><ele>928.0</ele><time>2026-04-11T10:48:30Z</time></trkpt><trkpt lat="44.7273000666721" lon="9.442614528434335"><ele>928.0</ele><time>2026-04-11T10:48:31Z</time></trkpt><trkpt lat="44.727238998460315" lon="9.442511034664786"><ele>928.0</ele><time>2026-04-11T10:48:32Z</time></trkpt><trkpt lat="44.727166458348016" lon="9.442425710702883"><ele>928.0</ele><time>2026-04-11T10:48:33Z</time></trkpt><trkpt lat="44.72711048707568" lon="9.442309673948198"><ele>928.0</ele><time>2026-04-11T10:48:34Z</time></trkpt><trkpt lat="44.727092000918155" lon="9.442175913037104"><ele>928.0</ele><time>2026-04-11T10:48:35Z</time></trkpt><trkpt lat="44.72708284065934" lon="9.442048496467107"><ele>926.5999999999999</ele><time>2026-04-11T10:48:36Z</time></trkpt><trkpt lat="44.72712001870204" lon="9.441915225038018"><ele>925.1999999999999</ele><time>2026-04-11T10:48:37Z</time></trkpt><trkpt lat="44.72714930238562" lon="9.441786539116842"><ele>923.8</ele><time>2026-04-11T10:48:38Z</time></trkpt><trkpt lat="44.727150486074585" lon="9.441651555353253"><ele>922.4</ele><time>2026-04-11T10:48:39Z</time></trkpt><trkpt lat="44.72710584350813" lon="9.441526879233093"><ele>921.0</ele><time>2026-04-11T10:48:40Z</time></trkpt><trkpt lat="44.72704595181319" lon="9.441378032022634"><ele>919.25</ele><time>2026-04-11T10:48:41Z</time></trkpt><trkpt lat="44.72696222944863" lon="9.441262733404937"><ele>917.5</ele><time>2026-04-11T10:48:42Z</time></trkpt><trkpt lat="44.72686581731397" lon="9.441167381459518"><ele>915.75</ele><time>2026-04-11T10:48:43Z</time></trkpt><trkpt lat="44.72675817541227" lon="9.441077976919665"><ele>914.0</ele><time>2026-04-11T10:48:44Z</time></trkpt><trkpt lat="44.72667123471895" lon="9.44096466938353"><ele>920.25</ele><time>2026-04-11T10:48:45Z</time></trkpt><trkpt lat="44.7265597422562" lon="9.440906831858864"><ele>926.5</ele><time>2026-04-11T10:48:46Z</time></trkpt><trkpt lat="44.72645266787736" lon="9.440822777054294"><ele>932.75</ele><time>2026-04-11T10:48:47Z</time></trkpt><trkpt lat="44.726374603736396" lon="9.440697051819862"><ele>939.0</ele><time>2026-04-11T10:48:48Z</time></trkpt><trkpt lat="44.726306549626926" lon="9.44056344099052"><ele>942.0</ele><time>2026-04-11T10:48:49Z</time></trkpt><trkpt lat="44.72623461973083" lon="9.440424577181405"><ele>945.0</ele><time>2026-04-11T10:48:50Z</time></trkpt><trkpt lat="44.726159558987135" lon="9.440273362762914"><ele>948.0</ele><time>2026-04-11T10:48:51Z</time></trkpt><trkpt lat="44.72607225929787" lon="9.4401401514588"><ele>951.0</ele><time>2026-04-11T10:48:52Z</time></trkpt><trkpt lat="44.72599618749149" lon="9.439981683773645"><ele>951.0</ele><time>2026-04-11T10:48:53Z</time></trkpt><trkpt lat="44.725911207621515" lon="9.439826363531699"><ele>951.0</ele><time>2026-04-11T10:48:54Z</time></trkpt><trkpt lat="44.72582311978522" lon="9.439673222322366"><ele>951.0</ele><time>2026-04-11T10:48:55Z</time></trkpt><trkpt lat="44.72573114193338" lon="9.439555009544563"><ele>951.0</ele><time>2026-04-11T10:48:56Z</time></trkpt><trkpt lat="44.725628373909544" lon="9.439474423117971"><ele>951.75</ele><time>2026-04-11T10:48:57Z</time></trkpt><trkpt lat="44.72550807490782" lon="9.439418214623855"><ele>952.5</ele><time>2026-04-11T10:48:58Z</time></trkpt><trkpt lat="44.72537216992134" lon="9.439357884483865"><ele>953.25</ele><time>2026-04-11T10:48:59Z</time></trkpt><trkpt lat="44.725235662625686" lon="9.439294698507494"><ele>954.0</ele><time>2026-04-11T10:49:00Z</time></trkpt><trkpt lat="44.725092274129544" lon="9.439233931640384"><ele>954.0</ele><time>2026-04-11T10:49:01Z</time></trkpt><trkpt lat="44.724952760647014" lon="9.43916948220984"><ele>954.0</ele><time>2026-04-11T10:49:02Z</time></trkpt><trkpt lat="44.72481486461402" lon="9.439129406154398"><ele>954.0</ele><time>2026-04-11T10:49:03Z</time></trkpt><trkpt lat="44.72469279051109" lon="9.439119533434422"><ele>954.0</ele><time>2026-04-11T10:49:04Z</time></trkpt><trkpt lat="44.72457641234607" lon="9.439143184952565"><ele>954.0</ele><time>2026-04-11T10:49:05Z</time></trkpt><trkpt lat="44.7244623702661" lon="9.439214436199595"><ele>954.0</ele><time>2026-04-11T10:49:06Z</time></trkpt><trkpt lat="44.72435186515877" lon="9.439316706753306"><ele>954.0</ele><time>2026-04-11T10:49:07Z</time></trkpt><trkpt lat="44.72425055380738" lon="9.439421324445425"><ele>954.0</ele><time>2026-04-11T10:49:08Z</time></trkpt><trkpt lat="44.72416185131492" lon="9.439492207138127"><ele>956.0</ele><time>2026-04-11T10:49:09Z</time></trkpt><trkpt lat="44.72407356844395" lon="9.43949326004462"><ele>958.0</ele><time>2026-04-11T10:49:10Z</time></trkpt><trkpt lat="44.72399233063747" lon="9.439478675566269"><ele>960.0</ele><time>2026-04-11T10:49:11Z</time></trkpt><trkpt lat="44.72391536827395" lon="9.439441628688828"><ele>962.0</ele><time>2026-04-11T10:49:12Z</time></trkpt><trkpt lat="44.723876054676644" lon="9.439340370208775"><ele>964.0</ele><time>2026-04-11T10:49:13Z</time></trkpt><trkpt lat="44.72389719199608" lon="9.439197975107934"><ele>966.0</ele><time>2026-04-11T10:49:14Z</time></trkpt><trkpt lat="44.72393924306964" lon="9.439053582707965"><ele>966.0</ele><time>2026-04-11T10:49:15Z</time></trkpt><trkpt lat="44.723966443278435" lon="9.438871164259734"><ele>966.0</ele><time>2026-04-11T10:49:16Z</time></trkpt><trkpt lat="44.72398339855369" lon="9.438661294084373"><ele>966.0</ele><time>2026-04-11T10:49:17Z</time></trkpt><trkpt lat="44.72402609860532" lon="9.438449904608317"><ele>966.0</ele><time>2026-04-11T10:49:18Z</time></trkpt><trkpt lat="44.724055169228976" lon="9.438225849370262"><ele>966.3333333333333</ele><time>2026-04-11T10:49:19Z</time></trkpt><trkpt lat="44.72408660661655" lon="9.438001720415"><ele>966.6666666666666</ele><time>2026-04-11T10:49:20Z</time></trkpt><trkpt lat="44.72411735912875" lon="9.437777882570833"><ele>967.0</ele><time>2026-04-11T10:49:21Z</time></trkpt><trkpt lat="44.7241596684559" lon="9.437573174558144"><ele>966.9999999999999</ele><time>2026-04-11T10:49:22Z</time></trkpt><trkpt lat="44.72418623883732" lon="9.437407483721834"><ele>967.0</ele><time>2026-04-11T10:49:23Z</time></trkpt><trkpt lat="44.724175778765584" lon="9.4372738287142"><ele>967.0</ele><time>2026-04-11T10:49:24Z</time></trkpt><trkpt lat="44.724105912916784" lon="9.437202092232255"><ele>967.0</ele><time>2026-04-11T10:49:26Z</time></trkpt><trkpt lat="44.72404394950642" lon="9.437185878130503"><ele>966.9999999999999</ele><time>2026-04-11T10:49:27Z</time></trkpt><trkpt lat="44.72397314136936" lon="9.437135642430773"><ele>967.0</ele><time>2026-04-11T10:49:28Z</time></trkpt><trkpt lat="44.72389115315614" lon="9.437055494773373"><ele>966.9999999999999</ele><time>2026-04-11T10:49:29Z</time></trkpt><trkpt lat="44.72380509254604" lon="9.436974520916989"><ele>967.0</ele><time>2026-04-11T10:49:29.999Z</time></trkpt><trkpt lat="44.72373673665617" lon="9.436945765676853"><ele>967.0</ele><time>2026-04-11T10:49:30.999Z</time></trkpt><trkpt lat="44.72366690832018" lon="9.437061876273376"><ele>967.0</ele><time>2026-04-11T10:49:32.999Z</time></trkpt><trkpt lat="44.72366412806566" lon="9.437171728491226"><ele>966.9999999999999</ele><time>2026-04-11T10:49:33.999Z</time></trkpt><trkpt lat="44.723689083294815" lon="9.437274166193488"><ele>967.0</ele><time>2026-04-11T10:49:34.999Z</time></trkpt><trkpt lat="44.72372390048899" lon="9.437382351879414"><ele>966.9999999999999</ele><time>2026-04-11T10:49:35.999Z</time></trkpt><trkpt lat="44.72371845226097" lon="9.437489032551019"><ele>967.0</ele><time>2026-04-11T10:49:36.999Z</time></trkpt><trkpt lat="44.723661417663685" lon="9.437580763903693"><ele>967.0</ele><time>2026-04-11T10:49:37.999Z</time></trkpt><trkpt lat="44.72356905963303" lon="9.437637684048305"><ele>967.0</ele><time>2026-04-11T10:49:38.999Z</time></trkpt><trkpt lat="44.72350772838131" lon="9.437658964519258"><ele>966.9999999999999</ele><time>2026-04-11T10:49:39.999Z</time></trkpt><trkpt lat="44.7234467451986" lon="9.437683413050015"><ele>967.0</ele><time>2026-04-11T10:49:55.999Z</time></trkpt><trkpt lat="44.72337350375091" lon="9.43772905491583"><ele>973.0</ele><time>2026-04-11T10:49:59.999Z</time></trkpt><trkpt lat="44.72323695217527" lon="9.4378705443894"><ele>979.0</ele><time>2026-04-11T10:50:00.999Z</time></trkpt><trkpt lat="44.72317120145717" lon="9.43797893529024"><ele>985.0</ele><time>2026-04-11T10:50:01.999Z</time></trkpt><trkpt lat="44.723118998519176" lon="9.438110496542748"><ele>991.0</ele><time>2026-04-11T10:50:02.999Z</time></trkpt><trkpt lat="44.72306520897454" lon="9.438262176780258"><ele>991.0</ele><time>2026-04-11T10:50:03.999Z</time></trkpt><trkpt lat="44.72302801835529" lon="9.438425119812111"><ele>991.0</ele><time>2026-04-11T10:50:04.999Z</time></trkpt><trkpt lat="44.7229861934888" lon="9.438595996616419"><ele>991.0</ele><time>2026-04-11T10:50:05.999Z</time></trkpt><trkpt lat="44.72294351080297" lon="9.438758616038282"><ele>991.0</ele><time>2026-04-11T10:50:06.999Z</time></trkpt><trkpt lat="44.722918931404266" lon="9.438914141504352"><ele>991.75</ele><time>2026-04-11T10:50:07.999Z</time></trkpt><trkpt lat="44.722921785495984" lon="9.439069198106903"><ele>992.5</ele><time>2026-04-11T10:50:09.001Z</time></trkpt><trkpt lat="44.7229061800929" lon="9.439222998106006"><ele>993.25</ele><time>2026-04-11T10:50:10.001Z</time></trkpt><trkpt lat="44.722905934394994" lon="9.439388746884056"><ele>994.0</ele><time>2026-04-11T10:50:11.001Z</time></trkpt><trkpt lat="44.72288782799875" lon="9.43956072493977"><ele>994.4000000000001</ele><time>2026-04-11T10:50:12.001Z</time></trkpt><trkpt lat="44.72288397836027" lon="9.439704796848694"><ele>994.8000000000001</ele><time>2026-04-11T10:50:13.001Z</time></trkpt><trkpt lat="44.72286034723424" lon="9.439787051198053"><ele>995.1999999999999</ele><time>2026-04-11T10:50:14.001Z</time></trkpt><trkpt lat="44.72272694774927" lon="9.43978754481063"><ele>995.5999999999999</ele><time>2026-04-11T10:50:16.001Z</time></trkpt><trkpt lat="44.72262996327955" lon="9.439789733154806"><ele>996.0</ele><time>2026-04-11T10:50:17.001Z</time></trkpt><trkpt lat="44.72254409801409" lon="9.439813055179869"><ele>999.5</ele><time>2026-04-11T10:50:18.001Z</time></trkpt><trkpt lat="44.72248931281665" lon="9.439875551516257"><ele>1003.0</ele><time>2026-04-11T10:50:19.001Z</time></trkpt><trkpt lat="44.72243260024972" lon="9.43992842430853"><ele>1006.5</ele><time>2026-04-11T10:50:20.001Z</time></trkpt><trkpt lat="44.72236869606143" lon="9.439994685528717"><ele>1010.0</ele><time>2026-04-11T10:50:21.001Z</time></trkpt><trkpt lat="44.72229253378458" lon="9.440049579142691"><ele>1013.5</ele><time>2026-04-11T10:50:22.001Z</time></trkpt><trkpt lat="44.72220495717151" lon="9.440113454687351"><ele>1017.0</ele><time>2026-04-11T10:50:23.001Z</time></trkpt><trkpt lat="44.722111456223345" lon="9.44018299377877"><ele>1017.0</ele><time>2026-04-11T10:50:24.001Z</time></trkpt><trkpt lat="44.72201727264905" lon="9.440276631646775"><ele>1017.0</ele><time>2026-04-11T10:50:25.001Z</time></trkpt><trkpt lat="44.72192421254004" lon="9.44038930678547"><ele>1017.0</ele><time>2026-04-11T10:50:26Z</time></trkpt><trkpt lat="44.721827086446275" lon="9.440504494998827"><ele>1017.0</ele><time>2026-04-11T10:50:27Z</time></trkpt><trkpt lat="44.72173154571176" lon="9.44062120008921"><ele>1021.25</ele><time>2026-04-11T10:50:28Z</time></trkpt><trkpt lat="44.72165927512671" lon="9.440762853334352"><ele>1025.5</ele><time>2026-04-11T10:50:29Z</time></trkpt><trkpt lat="44.721597324508174" lon="9.440910931977132"><ele>1029.75</ele><time>2026-04-11T10:50:30Z</time></trkpt><trkpt lat="44.7215398066787" lon="9.44104850438976"><ele>1034.0</ele><time>2026-04-11T10:50:31Z</time></trkpt><trkpt lat="44.72145371803537" lon="9.441142507295359"><ele>1034.0</ele><time>2026-04-11T10:50:32Z</time></trkpt><trkpt lat="44.72136817381707" lon="9.441240660459412"><ele>1034.0</ele><time>2026-04-11T10:50:33Z</time></trkpt><trkpt lat="44.72127814376756" lon="9.44134495098891"><ele>1034.0</ele><time>2026-04-11T10:50:34Z</time></trkpt><trkpt lat="44.721218892384215" lon="9.441457589302187"><ele>1034.0</ele><time>2026-04-11T10:50:35Z</time></trkpt><trkpt lat="44.721166131909236" lon="9.44154441574728"><ele>1034.0</ele><time>2026-04-11T10:50:36Z</time></trkpt><trkpt lat="44.72115104144155" lon="9.441664368218573"><ele>1034.75</ele><time>2026-04-11T10:50:37Z</time></trkpt><trkpt lat="44.721187459505416" lon="9.441831152657608"><ele>1035.5</ele><time>2026-04-11T10:50:38Z</time></trkpt><trkpt lat="44.72121311841537" lon="9.442004289880197"><ele>1036.25</ele><time>2026-04-11T10:50:39Z</time></trkpt><trkpt lat="44.72122780145514" lon="9.442180070571816"><ele>1037.0</ele><time>2026-04-11T10:50:40Z</time></trkpt><trkpt lat="44.72122486506072" lon="9.442321752327377"><ele>1038.6</ele><time>2026-04-11T10:50:41Z</time></trkpt><trkpt lat="44.72117800146943" lon="9.442422641380713"><ele>1040.2</ele><time>2026-04-11T10:50:42Z</time></trkpt><trkpt lat="44.721121732213454" lon="9.442527870615956"><ele>1041.8</ele><time>2026-04-11T10:50:43Z</time></trkpt><trkpt lat="44.72104579077209" lon="9.442649624850402"><ele>1043.4</ele><time>2026-04-11T10:50:44Z</time></trkpt><trkpt lat="44.72099036872105" lon="9.44276414731638"><ele>1045.0</ele><time>2026-04-11T10:50:45Z</time></trkpt><trkpt lat="44.72099706432592" lon="9.442888636522621"><ele>1048.5</ele><time>2026-04-11T10:50:46Z</time></trkpt><trkpt lat="44.721011276343475" lon="9.443011042212252"><ele>1052.0</ele><time>2026-04-11T10:50:47Z</time></trkpt><trkpt lat="44.72109806795617" lon="9.443144969526994"><ele>1055.5</ele><time>2026-04-11T10:50:48Z</time></trkpt><trkpt lat="44.72116948554703" lon="9.443305438326178"><ele>1059.0</ele><time>2026-04-11T10:50:49Z</time></trkpt><trkpt lat="44.721256063649925" lon="9.443467957336207"><ele>1059.0</ele><time>2026-04-11T10:50:50Z</time></trkpt><trkpt lat="44.7213655369286" lon="9.443601725720741"><ele>1059.0</ele><time>2026-04-11T10:50:51Z</time></trkpt><trkpt lat="44.72146548855469" lon="9.443715917740708"><ele>1059.0</ele><time>2026-04-11T10:50:52Z</time></trkpt><trkpt lat="44.721577603394955" lon="9.443794654000708"><ele>1059.0</ele><time>2026-04-11T10:50:53Z</time></trkpt><trkpt lat="44.7217025900565" lon="9.443854873624847"><ele>1063.75</ele><time>2026-04-11T10:50:54Z</time></trkpt><trkpt lat="44.72183854965833" lon="9.443899100640426"><ele>1068.5</ele><time>2026-04-11T10:50:55Z</time></trkpt><trkpt lat="44.721987821850696" lon="9.443932803979868"><ele>1073.25</ele><time>2026-04-11T10:50:56Z</time></trkpt><trkpt lat="44.72213909391092" lon="9.443989345902768"><ele>1078.0</ele><time>2026-04-11T10:50:57Z</time></trkpt><trkpt lat="44.72229358786451" lon="9.443972415981825"><ele>1078.3333333333333</ele><time>2026-04-11T10:50:58Z</time></trkpt><trkpt lat="44.722435268567935" lon="9.443919139694644"><ele>1078.6666666666667</ele><time>2026-04-11T10:50:59Z</time></trkpt><trkpt lat="44.72256423303845" lon="9.443819895492068"><ele>1079.0</ele><time>2026-04-11T10:51:00Z</time></trkpt><trkpt lat="44.7227090228626" lon="9.443730020833279"><ele>1081.0</ele><time>2026-04-11T10:51:01Z</time></trkpt><trkpt lat="44.722829608015346" lon="9.443578592425997"><ele>1083.0</ele><time>2026-04-11T10:51:02Z</time></trkpt><trkpt lat="44.722942806716084" lon="9.443428985021951"><ele>1085.0</ele><time>2026-04-11T10:51:03Z</time></trkpt><trkpt lat="44.723044949064374" lon="9.443246878978181"><ele>1085.0</ele><time>2026-04-11T10:51:04Z</time></trkpt><trkpt lat="44.723159006555896" lon="9.443078073162871"><ele>1085.0</ele><time>2026-04-11T10:51:05Z</time></trkpt><trkpt lat="44.723252313734775" lon="9.442941636334497"><ele>1085.0</ele><time>2026-04-11T10:51:06Z</time></trkpt><trkpt lat="44.72333671039025" lon="9.442835005648472"><ele>1085.0</ele><time>2026-04-11T10:51:07Z</time></trkpt><trkpt lat="44.7234109797992" lon="9.442743970907605"><ele>1081.6</ele><time>2026-04-11T10:51:08Z</time></trkpt><trkpt lat="44.72351600037833" lon="9.442698174734575"><ele>1078.2</ele><time>2026-04-11T10:51:09Z</time></trkpt><trkpt lat="44.72362233431944" lon="9.44269838655996"><ele>1074.8</ele><time>2026-04-11T10:51:10Z</time></trkpt><trkpt lat="44.72370382522067" lon="9.442743317998287"><ele>1071.4</ele><time>2026-04-11T10:51:11Z</time></trkpt><trkpt lat="44.723768535944664" lon="9.442837757876761"><ele>1068.0</ele><time>2026-04-11T10:51:12Z</time></trkpt><trkpt lat="44.72381776725736" lon="9.442965167034565"><ele>1068.0</ele><time>2026-04-11T10:51:13Z</time></trkpt><trkpt lat="44.72382973795299" lon="9.4431372142255"><ele>1068.0</ele><time>2026-04-11T10:51:14Z</time></trkpt><trkpt lat="44.72384955204525" lon="9.443318229491464"><ele>1068.0</ele><time>2026-04-11T10:51:15Z</time></trkpt><trkpt lat="44.72386251750759" lon="9.443514923454602"><ele>1068.0</ele><time>2026-04-11T10:51:16Z</time></trkpt><trkpt lat="44.72388372107273" lon="9.443706990536906"><ele>1068.75</ele><time>2026-04-11T10:51:17Z</time></trkpt><trkpt lat="44.72387653944845" lon="9.44389334538925"><ele>1069.5</ele><time>2026-04-11T10:51:18Z</time></trkpt><trkpt lat="44.72383276429846" lon="9.444028817450093"><ele>1070.25</ele><time>2026-04-11T10:51:19Z</time></trkpt><trkpt lat="44.72379187957347" lon="9.44416113464409"><ele>1071.0</ele><time>2026-04-11T10:51:20Z</time></trkpt><trkpt lat="44.72368299103066" lon="9.44421919613879"><ele>1071.0</ele><time>2026-04-11T10:51:21Z</time></trkpt><trkpt lat="44.72358562261305" lon="9.444318233726941"><ele>1071.0</ele><time>2026-04-11T10:51:22Z</time></trkpt><trkpt lat="44.7234848703514" lon="9.444436134725457"><ele>1071.0</ele><time>2026-04-11T10:51:23Z</time></trkpt><trkpt lat="44.72338193775113" lon="9.444563298823347"><ele>1071.0</ele><time>2026-04-11T10:51:24Z</time></trkpt><trkpt lat="44.723272779464786" lon="9.444692257863196"><ele>1075.75</ele><time>2026-04-11T10:51:25Z</time></trkpt><trkpt lat="44.72317741459432" lon="9.44482046208295"><ele>1080.5</ele><time>2026-04-11T10:51:26Z</time></trkpt><trkpt lat="44.72311322450895" lon="9.444972165911716"><ele>1085.25</ele><time>2026-04-11T10:51:27Z</time></trkpt><trkpt lat="44.72307518983227" lon="9.445152312482485"><ele>1090.0</ele><time>2026-04-11T10:51:28Z</time></trkpt><trkpt lat="44.723038302176796" lon="9.445345508469808"><ele>1090.3333333333333</ele><time>2026-04-11T10:51:29Z</time></trkpt><trkpt lat="44.72299100784979" lon="9.44554596185804"><ele>1090.6666666666667</ele><time>2026-04-11T10:51:30Z</time></trkpt><trkpt lat="44.72293535731614" lon="9.445746196976227"><ele>1091.0</ele><time>2026-04-11T10:51:31Z</time></trkpt><trkpt lat="44.72287838780643" lon="9.445955358104449"><ele>1091.0</ele><time>2026-04-11T10:51:32Z</time></trkpt><trkpt lat="44.72282343040601" lon="9.446167445644575"><ele>1091.0</ele><time>2026-04-11T10:51:32.999Z</time></trkpt><trkpt lat="44.722768347187085" lon="9.4463620531494"><ele>1091.0</ele><time>2026-04-11T10:51:33.999Z</time></trkpt><trkpt lat="44.72271917216573" lon="9.446519458341598"><ele>1091.0</ele><time>2026-04-11T10:51:34.999Z</time></trkpt><trkpt lat="44.722651223375294" lon="9.446637716752319"><ele>1098.0</ele><time>2026-04-11T10:51:35.999Z</time></trkpt><trkpt lat="44.72255622379784" lon="9.446727500867153"><ele>1105.0</ele><time>2026-04-11T10:51:36.999Z</time></trkpt><trkpt lat="44.72243475851276" lon="9.446737935403984"><ele>1112.0</ele><time>2026-04-11T10:51:37.999Z</time></trkpt><trkpt lat="44.72230744946799" lon="9.446758591143523"><ele>1119.0</ele><time>2026-04-11T10:51:38.999Z</time></trkpt><trkpt lat="44.72218167848048" lon="9.446798275036628"><ele>1119.0</ele><time>2026-04-11T10:51:39.999Z</time></trkpt><trkpt lat="44.72209362924508" lon="9.446849011639074"><ele>1119.0</ele><time>2026-04-11T10:51:40.999Z</time></trkpt><trkpt lat="44.72204331250337" lon="9.44695022236333"><ele>1119.0</ele><time>2026-04-11T10:51:41.999Z</time></trkpt><trkpt lat="44.72200566536449" lon="9.447100325955628"><ele>1119.0</ele><time>2026-04-11T10:51:42.999Z</time></trkpt><trkpt lat="44.721980623628426" lon="9.44727853074679"><ele>1119.0</ele><time>2026-04-11T10:51:43.999Z</time></trkpt><trkpt lat="44.721951346400765" lon="9.447473350630315"><ele>1121.25</ele><time>2026-04-11T10:51:44.999Z</time></trkpt><trkpt lat="44.72191057006493" lon="9.447679834105422"><ele>1123.5</ele><time>2026-04-11T10:51:45.999Z</time></trkpt><trkpt lat="44.72187289460246" lon="9.44790211376301"><ele>1125.75</ele><time>2026-04-11T10:51:46.999Z</time></trkpt><trkpt lat="44.7218770691895" lon="9.448080843741222"><ele>1128.0</ele><time>2026-04-11T10:51:47.999Z</time></trkpt><trkpt lat="44.72186778296406" lon="9.448260553094277"><ele>1130.25</ele><time>2026-04-11T10:51:48.999Z</time></trkpt><trkpt lat="44.72185586798964" lon="9.448461036863609"><ele>1132.5</ele><time>2026-04-11T10:51:49.999Z</time></trkpt><trkpt lat="44.72182088069249" lon="9.448672686443885"><ele>1134.75</ele><time>2026-04-11T10:51:50.999Z</time></trkpt><trkpt lat="44.721803618835736" lon="9.448851332749417"><ele>1137.0</ele><time>2026-04-11T10:51:51.999Z</time></trkpt><trkpt lat="44.721795410563686" lon="9.449063057431015"><ele>1139.0</ele><time>2026-04-11T10:51:52.999Z</time></trkpt><trkpt lat="44.72180878256047" lon="9.449265788584444"><ele>1141.0</ele><time>2026-04-11T10:51:53.999Z</time></trkpt><trkpt lat="44.72181142028031" lon="9.449492634753497"><ele>1143.0</ele><time>2026-04-11T10:51:54.999Z</time></trkpt><trkpt lat="44.72184542953622" lon="9.449713196708052"><ele>1145.3333333333333</ele><time>2026-04-11T10:51:55.999Z</time></trkpt><trkpt lat="44.721875046977225" lon="9.44993623516572"><ele>1147.6666666666665</ele><time>2026-04-11T10:51:56.999Z</time></trkpt><trkpt lat="44.72190696595582" lon="9.450153437834699"><ele>1150.0</ele><time>2026-04-11T10:51:57.999Z</time></trkpt><trkpt lat="44.721942388107216" lon="9.450370083564698"><ele>1152.5</ele><time>2026-04-11T10:51:58.999Z</time></trkpt><trkpt lat="44.721965562508174" lon="9.450577456640875"><ele>1155.0</ele><time>2026-04-11T10:51:59.999Z</time></trkpt><trkpt lat="44.721956845111166" lon="9.450769816956736"><ele>1157.5</ele><time>2026-04-11T10:52:00.999Z</time></trkpt><trkpt lat="44.721914402606885" lon="9.450933612204825"><ele>1160.0</ele><time>2026-04-11T10:52:01.999Z</time></trkpt><trkpt lat="44.721840717165406" lon="9.451067577242801"><ele>1160.0</ele><time>2026-04-11T10:52:02.999Z</time></trkpt><trkpt lat="44.7217377545844" lon="9.451197245484916"><ele>1160.0</ele><time>2026-04-11T10:52:03.999Z</time></trkpt><trkpt lat="44.7216157218233" lon="9.451319852973725"><ele>1160.0</ele><time>2026-04-11T10:52:04.999Z</time></trkpt><trkpt lat="44.72148124374987" lon="9.451434349783144"><ele>1160.0</ele><time>2026-04-11T10:52:05.999Z</time></trkpt><trkpt lat="44.72134043873851" lon="9.451544945549752"><ele>1161.5</ele><time>2026-04-11T10:52:06.999Z</time></trkpt><trkpt lat="44.72120865200614" lon="9.451635927851846"><ele>1163.0</ele><time>2026-04-11T10:52:07.999Z</time></trkpt><trkpt lat="44.7210983974888" lon="9.451711125412036"><ele>1164.5</ele><time>2026-04-11T10:52:08.999Z</time></trkpt><trkpt lat="44.7209989877733" lon="9.451808343683041"><ele>1166.0</ele><time>2026-04-11T10:52:09.999Z</time></trkpt><trkpt lat="44.72091818464161" lon="9.451957758631691"><ele>1167.25</ele><time>2026-04-11T10:52:10.999Z</time></trkpt><trkpt lat="44.720847654941444" lon="9.452146112387803"><ele>1168.5</ele><time>2026-04-11T10:52:11.999Z</time></trkpt><trkpt lat="44.7208007217823" lon="9.45233451188737"><ele>1169.75</ele><time>2026-04-11T10:52:12.999Z</time></trkpt><trkpt lat="44.72078726578564" lon="9.452493015226345"><ele>1171.0</ele><time>2026-04-11T10:52:14.001Z</time></trkpt><trkpt lat="44.72078783378883" lon="9.4526773691597"><ele>1171.0</ele><time>2026-04-11T10:52:15.001Z</time></trkpt><trkpt lat="44.72080486817127" lon="9.45289762133302"><ele>1171.0</ele><time>2026-04-11T10:52:16.001Z</time></trkpt><trkpt lat="44.72081552441727" lon="9.453119316096942"><ele>1171.0</ele><time>2026-04-11T10:52:17.001Z</time></trkpt><trkpt lat="44.7208199620081" lon="9.453317273167757"><ele>1173.25</ele><time>2026-04-11T10:52:18.001Z</time></trkpt><trkpt lat="44.72085080545454" lon="9.45349547609948"><ele>1175.5</ele><time>2026-04-11T10:52:19.001Z</time></trkpt><trkpt lat="44.72091997544863" lon="9.453646506236543"><ele>1177.75</ele><time>2026-04-11T10:52:20.001Z</time></trkpt><trkpt lat="44.720992078179556" lon="9.453853939214596"><ele>1180.0</ele><time>2026-04-11T10:52:21.001Z</time></trkpt><trkpt lat="44.721100462166646" lon="9.454028004669349"><ele>1184.0</ele><time>2026-04-11T10:52:22.001Z</time></trkpt><trkpt lat="44.72121465331344" lon="9.454188788585142"><ele>1188.0</ele><time>2026-04-11T10:52:23.001Z</time></trkpt><trkpt lat="44.72130809202595" lon="9.454359932756628"><ele>1192.0</ele><time>2026-04-11T10:52:24.001Z</time></trkpt><trkpt lat="44.721367003841564" lon="9.45449496966843"><ele>1196.0</ele><time>2026-04-11T10:52:25.001Z</time></trkpt><trkpt lat="44.72135232865051" lon="9.454589399163995"><ele>1195.75</ele><time>2026-04-11T10:52:26.001Z</time></trkpt><trkpt lat="44.72133424290346" lon="9.454714897464072"><ele>1195.5</ele><time>2026-04-11T10:52:27.001Z</time></trkpt><trkpt lat="44.72127348165512" lon="9.454861599043266"><ele>1195.25</ele><time>2026-04-11T10:52:28.001Z</time></trkpt><trkpt lat="44.72121141790674" lon="9.455048374715108"><ele>1195.0</ele><time>2026-04-11T10:52:29.001Z</time></trkpt><trkpt lat="44.72113838327308" lon="9.455242937940092"><ele>1195.0</ele><time>2026-04-11T10:52:30.001Z</time></trkpt><trkpt lat="44.72107057680566" lon="9.45544073338155"><ele>1195.0</ele><time>2026-04-11T10:52:31Z</time></trkpt><trkpt lat="44.72100092814632" lon="9.455637871383065"><ele>1195.0</ele><time>2026-04-11T10:52:32Z</time></trkpt><trkpt lat="44.720956769032796" lon="9.455855989850381"><ele>1195.0</ele><time>2026-04-11T10:52:33Z</time></trkpt><trkpt lat="44.720917245500026" lon="9.456086732804259"><ele>1195.0</ele><time>2026-04-11T10:52:34Z</time></trkpt><trkpt lat="44.720875722032275" lon="9.456322925088703"><ele>1195.0</ele><time>2026-04-11T10:52:35Z</time></trkpt><trkpt lat="44.72082698978091" lon="9.45655368360544"><ele>1195.0</ele><time>2026-04-11T10:52:36Z</time></trkpt><trkpt lat="44.720771726788364" lon="9.456780866260535"><ele>1195.0</ele><time>2026-04-11T10:52:37Z</time></trkpt><trkpt lat="44.72071782621492" lon="9.457002340113874"><ele>1195.0</ele><time>2026-04-11T10:52:38Z</time></trkpt><trkpt lat="44.720663683088596" lon="9.457216271016776"><ele>1199.3333333333333</ele><time>2026-04-11T10:52:39Z</time></trkpt><trkpt lat="44.7206047962265" lon="9.457434451078145"><ele>1203.6666666666667</ele><time>2026-04-11T10:52:40Z</time></trkpt><trkpt lat="44.72054095595649" lon="9.457649860452133"><ele>1208.0</ele><time>2026-04-11T10:52:41Z</time></trkpt><trkpt lat="44.72046740993303" lon="9.457869163377069"><ele>1211.6666666666667</ele><time>2026-04-11T10:52:42Z</time></trkpt><trkpt lat="44.72039066922304" lon="9.458080687337732"><ele>1215.3333333333333</ele><time>2026-04-11T10:52:43Z</time></trkpt><trkpt lat="44.720323538474744" lon="9.458290851729341"><ele>1219.0</ele><time>2026-04-11T10:52:44Z</time></trkpt><trkpt lat="44.72027292561392" lon="9.458498746529084"><ele>1217.8</ele><time>2026-04-11T10:52:45Z</time></trkpt><trkpt lat="44.72021421110301" lon="9.458664809833811"><ele>1216.6000000000001</ele><time>2026-04-11T10:52:46Z</time></trkpt><trkpt lat="44.72015447494343" lon="9.458800720175592"><ele>1215.4</ele><time>2026-04-11T10:52:47Z</time></trkpt><trkpt lat="44.720102718075346" lon="9.45892144528371"><ele>1214.2</ele><time>2026-04-11T10:52:48Z</time></trkpt><trkpt lat="44.720064308343254" lon="9.45903440652975"><ele>1213.0</ele><time>2026-04-11T10:52:49Z</time></trkpt><trkpt lat="44.720033179544515" lon="9.459142281881027"><ele>1213.0</ele><time>2026-04-11T10:52:50Z</time></trkpt><trkpt lat="44.72000448691919" lon="9.459250515807097"><ele>1213.0</ele><time>2026-04-11T10:52:51Z</time></trkpt><trkpt lat="44.719982762471716" lon="9.459348573153761"><ele>1213.0</ele><time>2026-04-11T10:52:52Z</time></trkpt><trkpt lat="44.7199796274482" lon="9.459510455709557"><ele>1213.0</ele><time>2026-04-11T10:52:54Z</time></trkpt><trkpt lat="44.72004041518935" lon="9.459617745959086"><ele>1213.0</ele><time>2026-04-11T10:52:56Z</time></trkpt><trkpt lat="44.720103820687534" lon="9.459671975147428"><ele>1213.0</ele><time>2026-04-11T10:52:58Z</time></trkpt><trkpt lat="44.72018769411024" lon="9.45968059249098"><ele>1214.8</ele><time>2026-04-11T10:53:01Z</time></trkpt><trkpt lat="44.72028502099237" lon="9.459671018885942"><ele>1216.6</ele><time>2026-04-11T10:53:03Z</time></trkpt><trkpt lat="44.72041716259613" lon="9.459616714580047"><ele>1218.4</ele><time>2026-04-11T10:53:05Z</time></trkpt><trkpt lat="44.7204957948243" lon="9.459559863512569"><ele>1220.2</ele><time>2026-04-11T10:53:06Z</time></trkpt><trkpt lat="44.72056082694217" lon="9.459444696115577"><ele>1222.0</ele><time>2026-04-11T10:53:07Z</time></trkpt><trkpt lat="44.72060175101415" lon="9.45931138530907"><ele>1222.0</ele><time>2026-04-11T10:53:08Z</time></trkpt><trkpt lat="44.72067691704407" lon="9.459198139297186"><ele>1222.0</ele><time>2026-04-11T10:53:09Z</time></trkpt><trkpt lat="44.72076414456524" lon="9.459117535441544"><ele>1222.0</ele><time>2026-04-11T10:53:10Z</time></trkpt><trkpt lat="44.72088025320094" lon="9.459129582661573"><ele>1222.0</ele><time>2026-04-11T10:53:11Z</time></trkpt><trkpt lat="44.72099635779213" lon="9.459099128599963"><ele>1222.0</ele><time>2026-04-11T10:53:12Z</time></trkpt><trkpt lat="44.72111230938969" lon="9.459072086653327"><ele>1224.0</ele><time>2026-04-11T10:53:13Z</time></trkpt><trkpt lat="44.72122287889453" lon="9.459159403429803"><ele>1226.0</ele><time>2026-04-11T10:53:14Z</time></trkpt><trkpt lat="44.721344804253064" lon="9.459192799970113"><ele>1228.0</ele><time>2026-04-11T10:53:15Z</time></trkpt><trkpt lat="44.72147715727981" lon="9.459181079090802"><ele>1230.0</ele><time>2026-04-11T10:53:16Z</time></trkpt><trkpt lat="44.721610511386835" lon="9.45917366787635"><ele>1230.0</ele><time>2026-04-11T10:53:17Z</time></trkpt><trkpt lat="44.72174749873248" lon="9.459181925828915"><ele>1230.0</ele><time>2026-04-11T10:53:18Z</time></trkpt><trkpt lat="44.721877854709845" lon="9.45916982455552"><ele>1230.0</ele><time>2026-04-11T10:53:19Z</time></trkpt><trkpt lat="44.72199804200642" lon="9.459155710565021"><ele>1230.0</ele><time>2026-04-11T10:53:20Z</time></trkpt><trkpt lat="44.72210060234677" lon="9.45910784123569"><ele>1230.5</ele><time>2026-04-11T10:53:21Z</time></trkpt><trkpt lat="44.72219782316729" lon="9.459076743676501"><ele>1231.0</ele><time>2026-04-11T10:53:22Z</time></trkpt><trkpt lat="44.722296929748936" lon="9.459031633838192"><ele>1231.5</ele><time>2026-04-11T10:53:23Z</time></trkpt><trkpt lat="44.72238955896506" lon="9.458996813164667"><ele>1232.0</ele><time>2026-04-11T10:53:24Z</time></trkpt><trkpt lat="44.72246381178959" lon="9.458990846924163"><ele>1232.5</ele><time>2026-04-11T10:53:25Z</time></trkpt><trkpt lat="44.72252870321004" lon="9.458983452862578"><ele>1233.0</ele><time>2026-04-11T10:53:26Z</time></trkpt><trkpt lat="44.72260238081233" lon="9.458998521733063"><ele>1233.0</ele><time>2026-04-11T10:53:28Z</time></trkpt><trkpt lat="44.72256714883512" lon="9.459182937924487"><ele>1233.0</ele><time>2026-04-11T10:53:31Z</time></trkpt><trkpt lat="44.722509450308834" lon="9.459246176584973"><ele>1233.0</ele><time>2026-04-11T10:53:32Z</time></trkpt><trkpt lat="44.722437418592605" lon="9.45932740024532"><ele>1233.0</ele><time>2026-04-11T10:53:33Z</time></trkpt><trkpt lat="44.7223612229936" lon="9.459426324934702"><ele>1233.0</ele><time>2026-04-11T10:53:33.999Z</time></trkpt><trkpt lat="44.722293494490394" lon="9.459537767287495"><ele>1233.5</ele><time>2026-04-11T10:53:34.999Z</time></trkpt><trkpt lat="44.72225678270017" lon="9.459629326971982"><ele>1234.0</ele><time>2026-04-11T10:53:35.999Z</time></trkpt><trkpt lat="44.7221999241448" lon="9.459736130562936"><ele>1234.5</ele><time>2026-04-11T10:53:37.999Z</time></trkpt><trkpt lat="44.722130749042506" lon="9.459801089691384"><ele>1235.0</ele><time>2026-04-11T10:53:39.999Z</time></trkpt><trkpt lat="44.72208474067305" lon="9.45987108288609"><ele>1235.5</ele><time>2026-04-11T10:53:54.999Z</time></trkpt><trkpt lat="44.722071479579846" lon="9.459994700805455"><ele>1236.0</ele><time>2026-04-11T10:54:25.001Z</time></trkpt><trkpt lat="44.72200234102897" lon="9.46011884005667"><ele>1236.0</ele><time>2026-04-11T10:54:27.001Z</time></trkpt><trkpt lat="44.72195249604493" lon="9.46021862331111"><ele>1236.0</ele><time>2026-04-11T10:54:29.001Z</time></trkpt><trkpt lat="44.721957265054066" lon="9.460324630620962"><ele>1236.0</ele><time>2026-04-11T10:54:31.001Z</time></trkpt><trkpt lat="44.722013350366986" lon="9.460450823570032"><ele>1236.0</ele><time>2026-04-11T10:54:33.001Z</time></trkpt><trkpt lat="44.72209663199755" lon="9.460521731221258"><ele>1236.0</ele><time>2026-04-11T10:54:35.001Z</time></trkpt><trkpt lat="44.722174349168725" lon="9.460567775604122"><ele>1235.1666666666667</ele><time>2026-04-11T10:54:37Z</time></trkpt><trkpt lat="44.72224072498315" lon="9.46062740930373"><ele>1234.3333333333333</ele><time>2026-04-11T10:54:39Z</time></trkpt><trkpt lat="44.72226251899922" lon="9.460731265759646"><ele>1233.5</ele><time>2026-04-11T10:54:43Z</time></trkpt><trkpt lat="44.72224520116204" lon="9.460844343497541"><ele>1232.6666666666665</ele><time>2026-04-11T10:54:46Z</time></trkpt><trkpt lat="44.7222336085462" lon="9.460955800351353"><ele>1231.8333333333333</ele><time>2026-04-11T10:54:49Z</time></trkpt><trkpt lat="44.72229054302774" lon="9.461063711180028"><ele>1231.0</ele><time>2026-04-11T10:54:52Z</time></trkpt><trkpt lat="44.72234276562027" lon="9.46113324579128"><ele>1231.0</ele><time>2026-04-11T10:54:54Z</time></trkpt><trkpt lat="44.72240091930766" lon="9.461175486888331"><ele>1231.0</ele><time>2026-04-11T10:54:56Z</time></trkpt><trkpt lat="44.72246637648892" lon="9.461233194497401"><ele>1231.0</ele><time>2026-04-11T10:54:58Z</time></trkpt><trkpt lat="44.72254914584841" lon="9.461274938814242"><ele>1231.0</ele><time>2026-04-11T10:55:01Z</time></trkpt><trkpt lat="44.72263233348045" lon="9.461330421111482"><ele>1231.0</ele><time>2026-04-11T10:55:04Z</time></trkpt><trkpt lat="44.72265861369918" lon="9.461415402897334"><ele>1231.0</ele><time>2026-04-11T10:55:06Z</time></trkpt><trkpt lat="44.7226609294713" lon="9.461504031404317"><ele>1230.2857142857142</ele><time>2026-04-11T10:55:08Z</time></trkpt><trkpt lat="44.7226777001889" lon="9.461624277292598"><ele>1229.5714285714287</ele><time>2026-04-11T10:55:10Z</time></trkpt><trkpt lat="44.7226963361999" lon="9.461711814887918"><ele>1228.857142857143</ele><time>2026-04-11T10:55:12Z</time></trkpt><trkpt lat="44.72272126179336" lon="9.461796591981336"><ele>1228.142857142857</ele><time>2026-04-11T10:55:14Z</time></trkpt><trkpt lat="44.72273465360372" lon="9.461890822138406"><ele>1227.4285714285713</ele><time>2026-04-11T10:55:16Z</time></trkpt><trkpt lat="44.72275224871975" lon="9.461989996366876"><ele>1226.7142857142858</ele><time>2026-04-11T10:55:18Z</time></trkpt><trkpt lat="44.722787473301715" lon="9.462070655835943"><ele>1226.0</ele><time>2026-04-11T10:55:20Z</time></trkpt><trkpt lat="44.722840627643016" lon="9.462141281397013"><ele>1223.1666666666667</ele><time>2026-04-11T10:55:22Z</time></trkpt><trkpt lat="44.722883161198055" lon="9.462238165215549"><ele>1220.3333333333335</ele><time>2026-04-11T10:55:24Z</time></trkpt><trkpt lat="44.722948143843944" lon="9.462338372153566"><ele>1217.5</ele><time>2026-04-11T10:55:27Z</time></trkpt><trkpt lat="44.72301440152028" lon="9.462420045103952"><ele>1214.6666666666667</ele><time>2026-04-11T10:55:31Z</time></trkpt><trkpt lat="44.72307239045909" lon="9.46248699442675"><ele>1211.8333333333333</ele><time>2026-04-11T10:55:33Z</time></trkpt><trkpt lat="44.72312919114344" lon="9.462539662034809"><ele>1209.0</ele><time>2026-04-11T10:55:35Z</time></trkpt><trkpt lat="44.723180421190285" lon="9.462613213473315"><ele>1209.0</ele><time>2026-04-11T10:55:37Z</time></trkpt><trkpt lat="44.72323509064126" lon="9.462666210925157"><ele>1209.0</ele><time>2026-04-11T10:55:39Z</time></trkpt><trkpt lat="44.72328153595643" lon="9.462756447316677"><ele>1209.0</ele><time>2026-04-11T10:55:42.999Z</time></trkpt><trkpt lat="44.723338646577126" lon="9.462858184262648"><ele>1209.0</ele><time>2026-04-11T10:55:48.999Z</time></trkpt><trkpt lat="44.72343475206611" lon="9.462852419338391"><ele>1209.0</ele><time>2026-04-11T10:55:52.999Z</time></trkpt><trkpt lat="44.72350933014125" lon="9.462830681455445"><ele>1209.0</ele><time>2026-04-11T10:55:54.999Z</time></trkpt><trkpt lat="44.723583940407735" lon="9.462802962189938"><ele>1206.6666666666667</ele><time>2026-04-11T10:55:56.999Z</time></trkpt><trkpt lat="44.72365297362129" lon="9.462797444254317"><ele>1204.3333333333333</ele><time>2026-04-11T10:55:58.999Z</time></trkpt><trkpt lat="44.723725419115276" lon="9.462794167477817"><ele>1202.0</ele><time>2026-04-11T10:56:00.999Z</time></trkpt><trkpt lat="44.723789052497374" lon="9.462805212026959"><ele>1199.6666666666665</ele><time>2026-04-11T10:56:02.999Z</time></trkpt><trkpt lat="44.72385198990751" lon="9.462812427623115"><ele>1197.3333333333333</ele><time>2026-04-11T10:56:04.999Z</time></trkpt><trkpt lat="44.723947229496716" lon="9.462808893023572"><ele>1195.0</ele><time>2026-04-11T10:56:07.999Z</time></trkpt><trkpt lat="44.7240178660374" lon="9.462732735791535"><ele>1195.0</ele><time>2026-04-11T10:56:10.999Z</time></trkpt><trkpt lat="44.72408952748605" lon="9.462615473406032"><ele>1195.0</ele><time>2026-04-11T10:56:12.999Z</time></trkpt><trkpt lat="44.72417080566598" lon="9.462531941821677"><ele>1195.0</ele><time>2026-04-11T10:56:14.999Z</time></trkpt><trkpt lat="44.72425070125503" lon="9.462450006249792"><ele>1195.0</ele><time>2026-04-11T10:56:16.999Z</time></trkpt><trkpt lat="44.72430885831591" lon="9.462415185097683"><ele>1195.0</ele><time>2026-04-11T10:56:17.999Z</time></trkpt><trkpt lat="44.7244146803547" lon="9.462341943521821"><ele>1194.4</ele><time>2026-04-11T10:56:19.999Z</time></trkpt><trkpt lat="44.72448963387744" lon="9.462273227644697"><ele>1193.8</ele><time>2026-04-11T10:56:25.001Z</time></trkpt><trkpt lat="44.72457463973131" lon="9.462238468505392"><ele>1193.2</ele><time>2026-04-11T10:56:28Z</time></trkpt><trkpt lat="44.72464937444277" lon="9.462195869906271"><ele>1192.6</ele><time>2026-04-11T10:56:30Z</time></trkpt><trkpt lat="44.72473356139521" lon="9.462155624575145"><ele>1192.0</ele><time>2026-04-11T10:56:32Z</time></trkpt><trkpt lat="44.72484758839568" lon="9.462104578872518"><ele>1192.0</ele><time>2026-04-11T10:56:34Z</time></trkpt><trkpt lat="44.72495853213591" lon="9.462063011533134"><ele>1192.0</ele><time>2026-04-11T10:56:36Z</time></trkpt><trkpt lat="44.72505444360601" lon="9.462014072836658"><ele>1192.0</ele><time>2026-04-11T10:56:38Z</time></trkpt><trkpt lat="44.725151397120264" lon="9.461994690527986"><ele>1192.0</ele><time>2026-04-11T10:56:40Z</time></trkpt><trkpt lat="44.72526715212695" lon="9.46199921037911"><ele>1192.0</ele><time>2026-04-11T10:56:42Z</time></trkpt><trkpt lat="44.72535173074462" lon="9.462010301828329"><ele>1191.8333333333333</ele><time>2026-04-11T10:56:44Z</time></trkpt><trkpt lat="44.72547710745645" lon="9.461997867342308"><ele>1191.6666666666665</ele><time>2026-04-11T10:56:46Z</time></trkpt><trkpt lat="44.725546013955565" lon="9.461991598960301"><ele>1191.5</ele><time>2026-04-11T10:56:47Z</time></trkpt><trkpt lat="44.725627810782846" lon="9.461977763583151"><ele>1191.3333333333333</ele><time>2026-04-11T10:56:49Z</time></trkpt><trkpt lat="44.725731986568086" lon="9.461951962630462"><ele>1191.1666666666667</ele><time>2026-04-11T10:56:51Z</time></trkpt><trkpt lat="44.725796857803594" lon="9.461940284566264"><ele>1191.0</ele><time>2026-04-11T10:56:52Z</time></trkpt><trkpt lat="44.72586279617418" lon="9.461930656655944"><ele>1191.0</ele><time>2026-04-11T10:56:53Z</time></trkpt><trkpt lat="44.725933293552075" lon="9.46192338402973"><ele>1191.0</ele><time>2026-04-11T10:56:54Z</time></trkpt><trkpt lat="44.72600325482583" lon="9.461909926400441"><ele>1191.0</ele><time>2026-04-11T10:56:55Z</time></trkpt><trkpt lat="44.726071085174134" lon="9.461902149898231"><ele>1191.0</ele><time>2026-04-11T10:56:56Z</time></trkpt><trkpt lat="44.726147203871825" lon="9.46190022272475"><ele>1191.0</ele><time>2026-04-11T10:56:57Z</time></trkpt><trkpt lat="44.72623286262787" lon="9.46189811770811"><ele>1191.0</ele><time>2026-04-11T10:56:58Z</time></trkpt><trkpt lat="44.72630228213306" lon="9.46188909440252"><ele>1191.0</ele><time>2026-04-11T10:56:59Z</time></trkpt><trkpt lat="44.72642742888003" lon="9.461864562100358"><ele>1190.8333333333333</ele><time>2026-04-11T10:57:01Z</time></trkpt><trkpt lat="44.726490027170556" lon="9.461826407596604"><ele>1190.6666666666667</ele><time>2026-04-11T10:57:02Z</time></trkpt><trkpt lat="44.72655523209203" lon="9.461771985996823"><ele>1190.5</ele><time>2026-04-11T10:57:03Z</time></trkpt><trkpt lat="44.726626616724204" lon="9.461719420577868"><ele>1190.3333333333335</ele><time>2026-04-11T10:57:04Z</time></trkpt><trkpt lat="44.726701947253574" lon="9.461680276352164"><ele>1190.1666666666667</ele><time>2026-04-11T10:57:05Z</time></trkpt><trkpt lat="44.72679371919066" lon="9.461633684806658"><ele>1190.0</ele><time>2026-04-11T10:57:07Z</time></trkpt><trkpt lat="44.72685652317889" lon="9.461610465242488"><ele>1189.6</ele><time>2026-04-11T10:57:09Z</time></trkpt><trkpt lat="44.72691939868557" lon="9.461669808245357"><ele>1189.2</ele><time>2026-04-11T10:57:11Z</time></trkpt><trkpt lat="44.726980464097345" lon="9.461775298519472"><ele>1188.8</ele><time>2026-04-11T10:57:13Z</time></trkpt><trkpt lat="44.727084381058766" lon="9.461874650005536"><ele>1188.4</ele><time>2026-04-11T10:57:15Z</time></trkpt><trkpt lat="44.72716552624915" lon="9.461940255325262"><ele>1188.0</ele><time>2026-04-11T10:57:16Z</time></trkpt><trkpt lat="44.72724525474046" lon="9.461993157956373"><ele>1188.0</ele><time>2026-04-11T10:57:17Z</time></trkpt><trkpt lat="44.72731924424523" lon="9.462052108116193"><ele>1188.0</ele><time>2026-04-11T10:57:18Z</time></trkpt><trkpt lat="44.727395594321834" lon="9.462118105957256"><ele>1188.0</ele><time>2026-04-11T10:57:19Z</time></trkpt><trkpt lat="44.72747112529057" lon="9.462163485230775"><ele>1188.0</ele><time>2026-04-11T10:57:20Z</time></trkpt><trkpt lat="44.72755072547675" lon="9.46217042387317"><ele>1188.0</ele><time>2026-04-11T10:57:21Z</time></trkpt><trkpt lat="44.72764803648965" lon="9.462135215712646"><ele>1188.0</ele><time>2026-04-11T10:57:22Z</time></trkpt><trkpt lat="44.72774483194255" lon="9.462067592272245"><ele>1184.5</ele><time>2026-04-11T10:57:23Z</time></trkpt><trkpt lat="44.72784279092827" lon="9.461979202073318"><ele>1181.0</ele><time>2026-04-11T10:57:24Z</time></trkpt><trkpt lat="44.72794709007484" lon="9.46189137270256"><ele>1177.5</ele><time>2026-04-11T10:57:25Z</time></trkpt><trkpt lat="44.72805691283121" lon="9.461818036960153"><ele>1174.0</ele><time>2026-04-11T10:57:26Z</time></trkpt><trkpt lat="44.728179138424004" lon="9.461755197777746"><ele>1174.0</ele><time>2026-04-11T10:57:27Z</time></trkpt><trkpt lat="44.72829727311493" lon="9.461702779054152"><ele>1174.0</ele><time>2026-04-11T10:57:28Z</time></trkpt><trkpt lat="44.72842728835053" lon="9.461647148694874"><ele>1174.0</ele><time>2026-04-11T10:57:29Z</time></trkpt><trkpt lat="44.72852054828679" lon="9.46162121161599"><ele>1174.0</ele><time>2026-04-11T10:57:30Z</time></trkpt><trkpt lat="44.72863022562074" lon="9.461573953201098"><ele>1170.75</ele><time>2026-04-11T10:57:31Z</time></trkpt><trkpt lat="44.72873928658782" lon="9.461521408014896"><ele>1167.5</ele><time>2026-04-11T10:57:32Z</time></trkpt><trkpt lat="44.72884785593413" lon="9.461460794479517"><ele>1164.25</ele><time>2026-04-11T10:57:32.999Z</time></trkpt><trkpt lat="44.7289567312471" lon="9.461419276480619"><ele>1161.0</ele><time>2026-04-11T10:57:33.999Z</time></trkpt><trkpt lat="44.72906545414058" lon="9.461404456728246"><ele>1161.0</ele><time>2026-04-11T10:57:34.999Z</time></trkpt><trkpt lat="44.72917025842905" lon="9.461390655008117"><ele>1161.0</ele><time>2026-04-11T10:57:35.999Z</time></trkpt><trkpt lat="44.72926478474552" lon="9.4613393273653"><ele>1161.0</ele><time>2026-04-11T10:57:36.999Z</time></trkpt><trkpt lat="44.729356666354306" lon="9.461251614351564"><ele>1161.0</ele><time>2026-04-11T10:57:37.999Z</time></trkpt><trkpt lat="44.72943918282092" lon="9.461126364367033"><ele>1161.0</ele><time>2026-04-11T10:57:38.999Z</time></trkpt><trkpt lat="44.72951437885843" lon="9.460981681286416"><ele>1161.0</ele><time>2026-04-11T10:57:39.999Z</time></trkpt><trkpt lat="44.72959045731335" lon="9.46083744603438"><ele>1161.0</ele><time>2026-04-11T10:57:40.999Z</time></trkpt><trkpt lat="44.72967020723771" lon="9.460715452178302"><ele>1161.0</ele><time>2026-04-11T10:57:41.999Z</time></trkpt><trkpt lat="44.72974457159563" lon="9.460598201950262"><ele>1161.0</ele><time>2026-04-11T10:57:42.999Z</time></trkpt><trkpt lat="44.72981731629887" lon="9.460490497978366"><ele>1162.0</ele><time>2026-04-11T10:57:43.999Z</time></trkpt><trkpt lat="44.72989231188391" lon="9.460380480560321"><ele>1163.0</ele><time>2026-04-11T10:57:44.999Z</time></trkpt><trkpt lat="44.72995423245391" lon="9.460243525458013"><ele>1164.0</ele><time>2026-04-11T10:57:45.999Z</time></trkpt><trkpt lat="44.729996545047605" lon="9.460079652434572"><ele>1165.0</ele><time>2026-04-11T10:57:46.999Z</time></trkpt><trkpt lat="44.730021316138775" lon="9.459905694829551"><ele>1165.0</ele><time>2026-04-11T10:57:47.999Z</time></trkpt><trkpt lat="44.73005970673555" lon="9.459751615466311"><ele>1165.0</ele><time>2026-04-11T10:57:48.999Z</time></trkpt><trkpt lat="44.73011287995047" lon="9.459619735248811"><ele>1165.0</ele><time>2026-04-11T10:57:49.999Z</time></trkpt><trkpt lat="44.73017024637248" lon="9.45949159809047"><ele>1165.0</ele><time>2026-04-11T10:57:50.999Z</time></trkpt><trkpt lat="44.730216078474136" lon="9.45936250163595"><ele>1165.0</ele><time>2026-04-11T10:57:51.999Z</time></trkpt><trkpt lat="44.73023847295848" lon="9.45923183597679"><ele>1161.5</ele><time>2026-04-11T10:57:52.999Z</time></trkpt><trkpt lat="44.73026480385258" lon="9.45913653678792"><ele>1158.0</ele><time>2026-04-11T10:57:53.999Z</time></trkpt><trkpt lat="44.730458277695085" lon="9.459261004853932"><ele>1154.5</ele><time>2026-04-11T10:57:56.999Z</time></trkpt><trkpt lat="44.73051442594442" lon="9.459398163547972"><ele>1151.0</ele><time>2026-04-11T10:57:57.999Z</time></trkpt><trkpt lat="44.73058270584577" lon="9.459538690645102"><ele>1152.0</ele><time>2026-04-11T10:57:58.999Z</time></trkpt><trkpt lat="44.730664553734925" lon="9.45967198566854"><ele>1153.0</ele><time>2026-04-11T10:57:59.999Z</time></trkpt><trkpt lat="44.73075376096763" lon="9.459808200283154"><ele>1154.0</ele><time>2026-04-11T10:58:00.999Z</time></trkpt><trkpt lat="44.73083837357719" lon="9.459949121366323"><ele>1155.0</ele><time>2026-04-11T10:58:01.999Z</time></trkpt><trkpt lat="44.73091011702207" lon="9.460100041454272"><ele>1155.0</ele><time>2026-04-11T10:58:02.999Z</time></trkpt><trkpt lat="44.73097717449213" lon="9.460239795835278"><ele>1155.0</ele><time>2026-04-11T10:58:03.999Z</time></trkpt><trkpt lat="44.73103258905623" lon="9.460369033640239"><ele>1155.0</ele><time>2026-04-11T10:58:04.999Z</time></trkpt><trkpt lat="44.73108606647564" lon="9.460488075229748"><ele>1155.0</ele><time>2026-04-11T10:58:05.999Z</time></trkpt><trkpt lat="44.73114129922605" lon="9.460590886454643"><ele>1155.0</ele><time>2026-04-11T10:58:06.999Z</time></trkpt><trkpt lat="44.73120324032183" lon="9.46068111434532"><ele>1153.5</ele><time>2026-04-11T10:58:07.999Z</time></trkpt><trkpt lat="44.73125786462702" lon="9.460742987925014"><ele>1152.0</ele><time>2026-04-11T10:58:08.999Z</time></trkpt><trkpt lat="44.73132690727271" lon="9.460798280809797"><ele>1150.5</ele><time>2026-04-11T10:58:10.999Z</time></trkpt><trkpt lat="44.73141846851062" lon="9.460914500742124"><ele>1149.0</ele><time>2026-04-11T10:58:12.999Z</time></trkpt><trkpt lat="44.73146850656673" lon="9.460972128212978"><ele>1147.5</ele><time>2026-04-11T10:58:21.999Z</time></trkpt><trkpt lat="44.73156020692274" lon="9.461047855283558"><ele>1146.0</ele><time>2026-04-11T10:58:23.999Z</time></trkpt><trkpt lat="44.7316339029922" lon="9.46106989626875"><ele>1146.0</ele><time>2026-04-11T10:58:27.999Z</time></trkpt><trkpt lat="44.73168869841802" lon="9.461127277231999"><ele>1146.0</ele><time>2026-04-11T10:58:29.999Z</time></trkpt><trkpt lat="44.73163872821823" lon="9.461194069149382"><ele>1146.0</ele><time>2026-04-11T10:58:34Z</time></trkpt><trkpt lat="44.731570253134564" lon="9.461086943970127"><ele>1146.0</ele><time>2026-04-11T10:58:36Z</time></trkpt><trkpt lat="44.73152631103872" lon="9.460995160615903"><ele>1146.0</ele><time>2026-04-11T10:58:37Z</time></trkpt><trkpt lat="44.73146687009392" lon="9.460937809389474"><ele>1146.0</ele><time>2026-04-11T10:58:38Z</time></trkpt><trkpt lat="44.73140824138757" lon="9.46088061909013"><ele>1146.0</ele><time>2026-04-11T10:58:39Z</time></trkpt><trkpt lat="44.731336448219075" lon="9.460775633504465"><ele>1146.0</ele><time>2026-04-11T10:58:41Z</time></trkpt><trkpt lat="44.731390785785024" lon="9.460660038378602"><ele>1146.0</ele><time>2026-04-11T10:58:44Z</time></trkpt><trkpt lat="44.731500234688404" lon="9.460570974132782"><ele>1146.0</ele><time>2026-04-11T10:58:46Z</time></trkpt><trkpt lat="44.73156078143465" lon="9.460489485206605"><ele>1146.0</ele><time>2026-04-11T10:58:48Z</time></trkpt><trkpt lat="44.73162090048705" lon="9.460436623020648"><ele>1146.0</ele><time>2026-04-11T10:58:49Z</time></trkpt><trkpt lat="44.731678724563615" lon="9.460384770391189"><ele>1146.0</ele><time>2026-04-11T10:58:50Z</time></trkpt><trkpt lat="44.73177848665015" lon="9.460377079165049"><ele>1146.0</ele><time>2026-04-11T10:58:52Z</time></trkpt><trkpt lat="44.731910252033536" lon="9.46036439261269"><ele>1146.0</ele><time>2026-04-11T10:58:54Z</time></trkpt><trkpt lat="44.731982876278956" lon="9.460353259158268"><ele>1146.0</ele><time>2026-04-11T10:58:55Z</time></trkpt><trkpt lat="44.73205643180106" lon="9.460341772856449"><ele>1146.0</ele><time>2026-04-11T10:58:56Z</time></trkpt><trkpt lat="44.73213375223145" lon="9.460312115880738"><ele>1146.0</ele><time>2026-04-11T10:58:57Z</time></trkpt><trkpt lat="44.732218933031085" lon="9.460282682867492"><ele>1146.0</ele><time>2026-04-11T10:58:58Z</time></trkpt><trkpt lat="44.73231200671579" lon="9.46023166959957"><ele>1146.0</ele><time>2026-04-11T10:58:59Z</time></trkpt><trkpt lat="44.732388623706434" lon="9.460195646461454"><ele>1146.0</ele><time>2026-04-11T10:59:00Z</time></trkpt><trkpt lat="44.732468666549664" lon="9.460134809234377"><ele>1146.0</ele><time>2026-04-11T10:59:01Z</time></trkpt><trkpt lat="44.732534969415376" lon="9.460069803425254"><ele>1146.0</ele><time>2026-04-11T10:59:02Z</time></trkpt><trkpt lat="44.73258264618461" lon="9.460009247688363"><ele>1146.0</ele><time>2026-04-11T10:59:03Z</time></trkpt><trkpt lat="44.73266758891199" lon="9.459939961156852"><ele>1146.0</ele><time>2026-04-11T10:59:05Z</time></trkpt><trkpt lat="44.73278214277585" lon="9.459943913255648"><ele>1146.0</ele><time>2026-04-11T10:59:07Z</time></trkpt><trkpt lat="44.732857397919794" lon="9.45991896024923"><ele>1146.0</ele><time>2026-04-11T10:59:08Z</time></trkpt><trkpt lat="44.7329364231513" lon="9.459882687691703"><ele>1146.0</ele><time>2026-04-11T10:59:09Z</time></trkpt><trkpt lat="44.73301766780274" lon="9.459884001252002"><ele>1144.8</ele><time>2026-04-11T10:59:10Z</time></trkpt><trkpt lat="44.73309807160115" lon="9.459899600848866"><ele>1143.6</ele><time>2026-04-11T10:59:11Z</time></trkpt><trkpt lat="44.73316423094044" lon="9.459903060321478"><ele>1142.4</ele><time>2026-04-11T10:59:12Z</time></trkpt><trkpt lat="44.73328978587612" lon="9.459931972963377"><ele>1141.2</ele><time>2026-04-11T10:59:14Z</time></trkpt><trkpt lat="44.73337304012695" lon="9.459992238579577"><ele>1140.0</ele><time>2026-04-11T10:59:15Z</time></trkpt><trkpt lat="44.73346171253623" lon="9.460081032566663"><ele>1139.4</ele><time>2026-04-11T10:59:16Z</time></trkpt><trkpt lat="44.73355606910925" lon="9.460159859143541"><ele>1138.8</ele><time>2026-04-11T10:59:17Z</time></trkpt><trkpt lat="44.73364519835591" lon="9.460216324111348"><ele>1138.2</ele><time>2026-04-11T10:59:18Z</time></trkpt><trkpt lat="44.73372597509257" lon="9.460266275083663"><ele>1137.6</ele><time>2026-04-11T10:59:19Z</time></trkpt><trkpt lat="44.73382976735169" lon="9.460316954226032"><ele>1137.0</ele><time>2026-04-11T10:59:20Z</time></trkpt><trkpt lat="44.73393756615618" lon="9.460343308438915"><ele>1137.0</ele><time>2026-04-11T10:59:21Z</time></trkpt><trkpt lat="44.73402522181022" lon="9.460365575913569"><ele>1137.0</ele><time>2026-04-11T10:59:22Z</time></trkpt><trkpt lat="44.73410734742441" lon="9.46038406331374"><ele>1137.0</ele><time>2026-04-11T10:59:23Z</time></trkpt><trkpt lat="44.73420257226844" lon="9.460371236644828"><ele>1137.0</ele><time>2026-04-11T10:59:24Z</time></trkpt><trkpt lat="44.73427263690131" lon="9.460364313390013"><ele>1137.0</ele><time>2026-04-11T10:59:25Z</time></trkpt><trkpt lat="44.73435831290641" lon="9.460343616928684"><ele>1137.0</ele><time>2026-04-11T10:59:27Z</time></trkpt><trkpt lat="44.734422573912546" lon="9.460352135997672"><ele>1136.8</ele><time>2026-04-11T10:59:28Z</time></trkpt><trkpt lat="44.73450815334053" lon="9.460404993952524"><ele>1136.6</ele><time>2026-04-11T10:59:29Z</time></trkpt><trkpt lat="44.734613094406" lon="9.460442221915596"><ele>1136.3999999999999</ele><time>2026-04-11T10:59:30Z</time></trkpt><trkpt lat="44.73469664250896" lon="9.460442774507246"><ele>1136.2</ele><time>2026-04-11T10:59:31Z</time></trkpt><trkpt lat="44.734799414003675" lon="9.46041458347036"><ele>1136.0</ele><time>2026-04-11T10:59:32Z</time></trkpt><trkpt lat="44.73488619133705" lon="9.460381223075343"><ele>1136.0</ele><time>2026-04-11T10:59:33Z</time></trkpt><trkpt lat="44.734971631400704" lon="9.460352579252465"><ele>1136.0</ele><time>2026-04-11T10:59:34Z</time></trkpt><trkpt lat="44.735060584609585" lon="9.460332114513859"><ele>1136.0</ele><time>2026-04-11T10:59:35Z</time></trkpt><trkpt lat="44.73514957723722" lon="9.460369756633508"><ele>1136.0</ele><time>2026-04-11T10:59:35.999Z</time></trkpt><trkpt lat="44.73524662142748" lon="9.460420617754178"><ele>1136.0</ele><time>2026-04-11T10:59:36.999Z</time></trkpt><trkpt lat="44.73532670674003" lon="9.4604990867621"><ele>1136.8</ele><time>2026-04-11T10:59:37.999Z</time></trkpt><trkpt lat="44.735394730996696" lon="9.460585706690114"><ele>1137.6</ele><time>2026-04-11T10:59:38.999Z</time></trkpt><trkpt lat="44.735476504047064" lon="9.460663398756028"><ele>1138.4</ele><time>2026-04-11T10:59:39.999Z</time></trkpt><trkpt lat="44.735579034215014" lon="9.460713823376476"><ele>1139.2</ele><time>2026-04-11T10:59:40.999Z</time></trkpt><trkpt lat="44.73567205749803" lon="9.460780463256706"><ele>1140.0</ele><time>2026-04-11T10:59:41.999Z</time></trkpt><trkpt lat="44.735740809996436" lon="9.460845506820812"><ele>1140.0</ele><time>2026-04-11T10:59:42.999Z</time></trkpt><trkpt lat="44.73583026709024" lon="9.460900431167566"><ele>1140.0</ele><time>2026-04-11T10:59:43.999Z</time></trkpt><trkpt lat="44.735914986715756" lon="9.460993179421445"><ele>1140.0</ele><time>2026-04-11T10:59:44.999Z</time></trkpt><trkpt lat="44.73600952322026" lon="9.461061211183903"><ele>1140.0</ele><time>2026-04-11T10:59:45.999Z</time></trkpt><trkpt lat="44.73607884003976" lon="9.46110038703164"><ele>1140.0</ele><time>2026-04-11T10:59:46.999Z</time></trkpt><trkpt lat="44.736127095166" lon="9.461187471228744"><ele>1140.5</ele><time>2026-04-11T10:59:47.999Z</time></trkpt><trkpt lat="44.73613441270525" lon="9.461323219639198"><ele>1141.0</ele><time>2026-04-11T10:59:48.999Z</time></trkpt><trkpt lat="44.73611688552165" lon="9.461489887918994"><ele>1141.5</ele><time>2026-04-11T10:59:49.999Z</time></trkpt><trkpt lat="44.73611315107747" lon="9.461657782121671"><ele>1142.0</ele><time>2026-04-11T10:59:50.999Z</time></trkpt><trkpt lat="44.736124093290876" lon="9.461828752086106"><ele>1142.0</ele><time>2026-04-11T10:59:51.999Z</time></trkpt><trkpt lat="44.7361756290461" lon="9.462035812226816"><ele>1142.0</ele><time>2026-04-11T10:59:52.999Z</time></trkpt><trkpt lat="44.73622665575269" lon="9.462223515446874"><ele>1142.0</ele><time>2026-04-11T10:59:53.999Z</time></trkpt><trkpt lat="44.73628122849045" lon="9.462374819287888"><ele>1142.0</ele><time>2026-04-11T10:59:54.999Z</time></trkpt><trkpt lat="44.73632057146335" lon="9.462486514445551"><ele>1139.6666666666667</ele><time>2026-04-11T10:59:55.999Z</time></trkpt><trkpt lat="44.73635154695396" lon="9.46257965860668"><ele>1137.3333333333335</ele><time>2026-04-11T10:59:56.999Z</time></trkpt><trkpt lat="44.736448780641226" lon="9.462649260233285"><ele>1135.0</ele><time>2026-04-11T10:59:58.999Z</time></trkpt><trkpt lat="44.73653721839061" lon="9.46258756559326"><ele>1132.6666666666667</ele><time>2026-04-11T11:00:00.999Z</time></trkpt><trkpt lat="44.73658385663595" lon="9.462523996953239"><ele>1130.3333333333333</ele><time>2026-04-11T11:00:01.999Z</time></trkpt><trkpt lat="44.73663874321401" lon="9.462471756809343"><ele>1128.0</ele><time>2026-04-11T11:00:02.999Z</time></trkpt><trkpt lat="44.736697456755806" lon="9.462412281308977"><ele>1128.0</ele><time>2026-04-11T11:00:03.999Z</time></trkpt><trkpt lat="44.736750613539066" lon="9.462362732602864"><ele>1128.0</ele><time>2026-04-11T11:00:04.999Z</time></trkpt><trkpt lat="44.73687516308692" lon="9.462293401961224"><ele>1128.0</ele><time>2026-04-11T11:00:06.999Z</time></trkpt><trkpt lat="44.73693681136575" lon="9.462244347457723"><ele>1128.0</ele><time>2026-04-11T11:00:07.999Z</time></trkpt><trkpt lat="44.73698070062587" lon="9.46217284036548"><ele>1128.0</ele><time>2026-04-11T11:00:08.999Z</time></trkpt><trkpt lat="44.73700829790918" lon="9.462064786811583"><ele>1128.0</ele><time>2026-04-11T11:00:09.999Z</time></trkpt><trkpt lat="44.73704242868357" lon="9.461954083808477"><ele>1128.6666666666667</ele><time>2026-04-11T11:00:10.999Z</time></trkpt><trkpt lat="44.73710564154965" lon="9.461870401176908"><ele>1129.3333333333333</ele><time>2026-04-11T11:00:11.999Z</time></trkpt><trkpt lat="44.73717828710862" lon="9.461808540635824"><ele>1130.0</ele><time>2026-04-11T11:00:12.999Z</time></trkpt><trkpt lat="44.73725951862895" lon="9.461778359625603"><ele>1130.6666666666665</ele><time>2026-04-11T11:00:13.999Z</time></trkpt><trkpt lat="44.73733298160482" lon="9.461775813940207"><ele>1131.3333333333333</ele><time>2026-04-11T11:00:14.999Z</time></trkpt><trkpt lat="44.737392518532836" lon="9.461805574712603"><ele>1132.0</ele><time>2026-04-11T11:00:15.999Z</time></trkpt><trkpt lat="44.73745416995257" lon="9.461843172648127"><ele>1132.0</ele><time>2026-04-11T11:00:16.999Z</time></trkpt><trkpt lat="44.73751899566068" lon="9.461827393626065"><ele>1132.0</ele><time>2026-04-11T11:00:17.999Z</time></trkpt><trkpt lat="44.73758522941409" lon="9.461785120906715"><ele>1132.0</ele><time>2026-04-11T11:00:18.999Z</time></trkpt><trkpt lat="44.73766929509693" lon="9.461723286985157"><ele>1132.0</ele><time>2026-04-11T11:00:19.999Z</time></trkpt><trkpt lat="44.737727640474006" lon="9.46167187272784"><ele>1132.0</ele><time>2026-04-11T11:00:20.999Z</time></trkpt><trkpt lat="44.73779290633286" lon="9.461521300104108"><ele>1132.0</ele><time>2026-04-11T11:00:22.999Z</time></trkpt><trkpt lat="44.73784237876111" lon="9.461415875973083"><ele>1132.8</ele><time>2026-04-11T11:00:23.999Z</time></trkpt><trkpt lat="44.7379204578688" lon="9.461316045455693"><ele>1133.6</ele><time>2026-04-11T11:00:24.999Z</time></trkpt><trkpt lat="44.73800683241623" lon="9.461230706428163"><ele>1134.3999999999999</ele><time>2026-04-11T11:00:25.999Z</time></trkpt><trkpt lat="44.738086329423055" lon="9.461169209786162"><ele>1135.2</ele><time>2026-04-11T11:00:26.999Z</time></trkpt><trkpt lat="44.7381724951683" lon="9.461135114631437"><ele>1136.0</ele><time>2026-04-11T11:00:27.999Z</time></trkpt><trkpt lat="44.73827658580068" lon="9.461116548787501"><ele>1136.0</ele><time>2026-04-11T11:00:28.999Z</time></trkpt><trkpt lat="44.73839519497639" lon="9.461062553271248"><ele>1136.0</ele><time>2026-04-11T11:00:29.999Z</time></trkpt><trkpt lat="44.738491545956585" lon="9.461003485995132"><ele>1136.0</ele><time>2026-04-11T11:00:30.999Z</time></trkpt><trkpt lat="44.73858952001618" lon="9.460993617778605"><ele>1136.0</ele><time>2026-04-11T11:00:31.999Z</time></trkpt><trkpt lat="44.73870305384192" lon="9.460977465128826"><ele>1136.0</ele><time>2026-04-11T11:00:32.999Z</time></trkpt><trkpt lat="44.73883603549455" lon="9.460954941677397"><ele>1133.6</ele><time>2026-04-11T11:00:33.999Z</time></trkpt><trkpt lat="44.738954442494276" lon="9.460935389699646"><ele>1131.1999999999998</ele><time>2026-04-11T11:00:34.999Z</time></trkpt><trkpt lat="44.739064389435654" lon="9.460924352561445"><ele>1128.8000000000002</ele><time>2026-04-11T11:00:35.999Z</time></trkpt><trkpt lat="44.73916340269293" lon="9.46091967584427"><ele>1126.4</ele><time>2026-04-11T11:00:37Z</time></trkpt><trkpt lat="44.73927146504994" lon="9.460941551921984"><ele>1124.0</ele><time>2026-04-11T11:00:38Z</time></trkpt><trkpt lat="44.739392552710484" lon="9.46094597038619"><ele>1123.0</ele><time>2026-04-11T11:00:39Z</time></trkpt><trkpt lat="44.73949829640273" lon="9.460953291694718"><ele>1122.0</ele><time>2026-04-11T11:00:40Z</time></trkpt><trkpt lat="44.7395906840481" lon="9.46095676574568"><ele>1121.0</ele><time>2026-04-11T11:00:41Z</time></trkpt><trkpt lat="44.73969018355254" lon="9.460934154325887"><ele>1120.0</ele><time>2026-04-11T11:00:42Z</time></trkpt><trkpt lat="44.73979174998095" lon="9.46088829882827"><ele>1119.0</ele><time>2026-04-11T11:00:43Z</time></trkpt><trkpt lat="44.73989629515171" lon="9.460868498430134"><ele>1119.0</ele><time>2026-04-11T11:00:44Z</time></trkpt><trkpt lat="44.7399929378509" lon="9.46087335671578"><ele>1119.0</ele><time>2026-04-11T11:00:45Z</time></trkpt><trkpt lat="44.740084565054836" lon="9.460901262475744"><ele>1119.0</ele><time>2026-04-11T11:00:46Z</time></trkpt><trkpt lat="44.740161070606256" lon="9.460955086676265"><ele>1119.0</ele><time>2026-04-11T11:00:47Z</time></trkpt><trkpt lat="44.740208468415894" lon="9.461025701348193"><ele>1119.0</ele><time>2026-04-11T11:00:48Z</time></trkpt><trkpt lat="44.74023734722255" lon="9.46113052976274"><ele>1119.0</ele><time>2026-04-11T11:00:49Z</time></trkpt><trkpt lat="44.74030455343857" lon="9.461280715296809"><ele>1117.2</ele><time>2026-04-11T11:00:50Z</time></trkpt><trkpt lat="44.740380978765735" lon="9.461433577085597"><ele>1115.4</ele><time>2026-04-11T11:00:51Z</time></trkpt><trkpt lat="44.74043799022339" lon="9.461562085640653"><ele>1113.6</ele><time>2026-04-11T11:00:52Z</time></trkpt><trkpt lat="44.74047624897046" lon="9.461705395551222"><ele>1111.8</ele><time>2026-04-11T11:00:53Z</time></trkpt><trkpt lat="44.74050439085369" lon="9.461809946213505"><ele>1110.0</ele><time>2026-04-11T11:00:54Z</time></trkpt><trkpt lat="44.74054506265252" lon="9.461918633436643"><ele>1110.0</ele><time>2026-04-11T11:00:55Z</time></trkpt><trkpt lat="44.74062053924999" lon="9.462049827201216"><ele>1110.0</ele><time>2026-04-11T11:00:56Z</time></trkpt><trkpt lat="44.74070876680999" lon="9.46215686452303"><ele>1110.0</ele><time>2026-04-11T11:00:57Z</time></trkpt><trkpt lat="44.740797831979826" lon="9.462230612553402"><ele>1110.0</ele><time>2026-04-11T11:00:58Z</time></trkpt><trkpt lat="44.740880022574125" lon="9.46231163452242"><ele>1110.0</ele><time>2026-04-11T11:00:59Z</time></trkpt><trkpt lat="44.74095173580232" lon="9.46238975584845"><ele>1108.5</ele><time>2026-04-11T11:01:00Z</time></trkpt><trkpt lat="44.74099657020528" lon="9.462502905160923"><ele>1107.0</ele><time>2026-04-11T11:01:02Z</time></trkpt><trkpt lat="44.74101071723378" lon="9.46262319955589"><ele>1105.5</ele><time>2026-04-11T11:01:11Z</time></trkpt><trkpt lat="44.74098784289135" lon="9.462719656660674"><ele>1104.0</ele><time>2026-04-11T11:01:12Z</time></trkpt><trkpt lat="44.74097172596841" lon="9.46282908219969"><ele>1102.5</ele><time>2026-04-11T11:01:13Z</time></trkpt><trkpt lat="44.74098489027776" lon="9.462938152456934"><ele>1101.0</ele><time>2026-04-11T11:01:14Z</time></trkpt><trkpt lat="44.74098377467642" lon="9.463028296620095"><ele>1099.3999999999999</ele><time>2026-04-11T11:01:15Z</time></trkpt><trkpt lat="44.74105199299696" lon="9.463151666032479"><ele>1097.8</ele><time>2026-04-11T11:01:17Z</time></trkpt><trkpt lat="44.74113323969635" lon="9.463207777362632"><ele>1096.1999999999998</ele><time>2026-04-11T11:01:18Z</time></trkpt><trkpt lat="44.74124210903423" lon="9.463270876809124"><ele>1094.6</ele><time>2026-04-11T11:01:19Z</time></trkpt><trkpt lat="44.741341772666274" lon="9.463269415654736"><ele>1093.0</ele><time>2026-04-11T11:01:20Z</time></trkpt><trkpt lat="44.74143558594509" lon="9.463238913334017"><ele>1093.0</ele><time>2026-04-11T11:01:21Z</time></trkpt><trkpt lat="44.74150464771101" lon="9.463225724938575"><ele>1093.0</ele><time>2026-04-11T11:01:22Z</time></trkpt><trkpt lat="44.74157063842615" lon="9.463240220716877"><ele>1093.0</ele><time>2026-04-11T11:01:23Z</time></trkpt><trkpt lat="44.74166832115753" lon="9.463315697201255"><ele>1093.0</ele><time>2026-04-11T11:01:25Z</time></trkpt><trkpt lat="44.74170742475152" lon="9.463395667831675"><ele>1093.0</ele><time>2026-04-11T11:01:27Z</time></trkpt><trkpt lat="44.74179781187174" lon="9.463506149169799"><ele>1093.0</ele><time>2026-04-11T11:01:29Z</time></trkpt><trkpt lat="44.74184300637832" lon="9.463629913256424"><ele>1092.4</ele><time>2026-04-11T11:01:30Z</time></trkpt><trkpt lat="44.741862498470375" lon="9.463786732711501"><ele>1091.8</ele><time>2026-04-11T11:01:31Z</time></trkpt><trkpt lat="44.741859735823176" lon="9.463929394043923"><ele>1091.2</ele><time>2026-04-11T11:01:32Z</time></trkpt><trkpt lat="44.74184189580616" lon="9.464073325501783"><ele>1090.6</ele><time>2026-04-11T11:01:33Z</time></trkpt><trkpt lat="44.74181581928922" lon="9.464215993426325"><ele>1090.0</ele><time>2026-04-11T11:01:34Z</time></trkpt><trkpt lat="44.741810577179656" lon="9.464306578886948"><ele>1090.0</ele><time>2026-04-11T11:01:35Z</time></trkpt><trkpt lat="44.74184262550409" lon="9.464436331703173"><ele>1090.0</ele><time>2026-04-11T11:01:37Z</time></trkpt><trkpt lat="44.74189367260906" lon="9.464495366097786"><ele>1090.0</ele><time>2026-04-11T11:01:38Z</time></trkpt><trkpt lat="44.74194515022605" lon="9.46460116819985"><ele>1090.0</ele><time>2026-04-11T11:01:39Z</time></trkpt><trkpt lat="44.74198654348594" lon="9.464700950164197"><ele>1090.0</ele><time>2026-04-11T11:01:39.999Z</time></trkpt><trkpt lat="44.742037495712246" lon="9.464798756718135"><ele>1090.0</ele><time>2026-04-11T11:01:40.999Z</time></trkpt><trkpt lat="44.742104355808614" lon="9.464891794325267"><ele>1086.8333333333333</ele><time>2026-04-11T11:01:41.999Z</time></trkpt><trkpt lat="44.74216017417774" lon="9.464994277826408"><ele>1083.6666666666665</ele><time>2026-04-11T11:01:42.999Z</time></trkpt><trkpt lat="44.74218491109439" lon="9.465098830203594"><ele>1080.5</ele><time>2026-04-11T11:01:43.999Z</time></trkpt><trkpt lat="44.74219819237484" lon="9.465263574698328"><ele>1077.3333333333333</ele><time>2026-04-11T11:01:45.999Z</time></trkpt><trkpt lat="44.74221379131825" lon="9.465383398593444"><ele>1074.1666666666667</ele><time>2026-04-11T11:01:46.999Z</time></trkpt><trkpt lat="44.742205536003716" lon="9.465478707148256"><ele>1071.0</ele><time>2026-04-11T11:01:47.999Z</time></trkpt><trkpt lat="44.74218226336898" lon="9.46560620893282"><ele>1069.6666666666667</ele><time>2026-04-11T11:01:48.999Z</time></trkpt><trkpt lat="44.74214739749324" lon="9.46574100654162"><ele>1068.3333333333333</ele><time>2026-04-11T11:01:49.999Z</time></trkpt><trkpt lat="44.74213004700044" lon="9.4658611372005"><ele>1067.0</ele><time>2026-04-11T11:01:50.999Z</time></trkpt><trkpt lat="44.74211280922339" lon="9.465973492235147"><ele>1065.6666666666665</ele><time>2026-04-11T11:01:51.999Z</time></trkpt><trkpt lat="44.74209869258749" lon="9.466081548773879"><ele>1064.3333333333333</ele><time>2026-04-11T11:01:52.999Z</time></trkpt><trkpt lat="44.742087906277696" lon="9.466213147699207"><ele>1063.0</ele><time>2026-04-11T11:01:53.999Z</time></trkpt><trkpt lat="44.74207580853808" lon="9.466323661723917"><ele>1061.0</ele><time>2026-04-11T11:01:54.999Z</time></trkpt><trkpt lat="44.742049152598284" lon="9.466437500794504"><ele>1059.0</ele><time>2026-04-11T11:01:55.999Z</time></trkpt><trkpt lat="44.74203498867386" lon="9.466569464932267"><ele>1057.0</ele><time>2026-04-11T11:01:56.999Z</time></trkpt><trkpt lat="44.74204221950854" lon="9.466683676567444"><ele>1055.0</ele><time>2026-04-11T11:01:57.999Z</time></trkpt><trkpt lat="44.742052799898026" lon="9.466819904935662"><ele>1053.0</ele><time>2026-04-11T11:01:58.999Z</time></trkpt><trkpt lat="44.74209657633247" lon="9.466908573492496"><ele>1051.0</ele><time>2026-04-11T11:01:59.999Z</time></trkpt><trkpt lat="44.74217571849195" lon="9.466992477091413"><ele>1051.0</ele><time>2026-04-11T11:02:00.999Z</time></trkpt><trkpt lat="44.74227504999054" lon="9.46707579430752"><ele>1051.0</ele><time>2026-04-11T11:02:01.999Z</time></trkpt><trkpt lat="44.7423545247961" lon="9.467128956520726"><ele>1051.0</ele><time>2026-04-11T11:02:02.999Z</time></trkpt><trkpt lat="44.742392042051804" lon="9.467200872597134"><ele>1051.0</ele><time>2026-04-11T11:02:03.999Z</time></trkpt><trkpt lat="44.742449008674726" lon="9.467363257497762"><ele>1051.0</ele><time>2026-04-11T11:02:05.999Z</time></trkpt><trkpt lat="44.74246182385576" lon="9.467460296328614"><ele>1051.0</ele><time>2026-04-11T11:02:06.999Z</time></trkpt><trkpt lat="44.74248291874664" lon="9.46757707126482"><ele>1051.0</ele><time>2026-04-11T11:02:07.999Z</time></trkpt><trkpt lat="44.74250755287032" lon="9.467688378717618"><ele>1051.0</ele><time>2026-04-11T11:02:08.999Z</time></trkpt><trkpt lat="44.742583985104794" lon="9.467759073129702"><ele>1051.0</ele><time>2026-04-11T11:02:10.999Z</time></trkpt><trkpt lat="44.74266886875331" lon="9.467820808733476"><ele>1051.0</ele><time>2026-04-11T11:02:11.999Z</time></trkpt><trkpt lat="44.74275770263141" lon="9.467919669644658"><ele>1047.6</ele><time>2026-04-11T11:02:12.999Z</time></trkpt><trkpt lat="44.74282484488042" lon="9.468008156658733"><ele>1044.1999999999998</ele><time>2026-04-11T11:02:13.999Z</time></trkpt><trkpt lat="44.74287232390617" lon="9.468089637610483"><ele>1040.8000000000002</ele><time>2026-04-11T11:02:14.999Z</time></trkpt><trkpt lat="44.74293727548559" lon="9.468185557997492"><ele>1037.4</ele><time>2026-04-11T11:02:15.999Z</time></trkpt><trkpt lat="44.74301047611306" lon="9.468282268595553"><ele>1034.0</ele><time>2026-04-11T11:02:16.999Z</time></trkpt><trkpt lat="44.743084549972096" lon="9.468364311261386"><ele>1034.0</ele><time>2026-04-11T11:02:17.999Z</time></trkpt><trkpt lat="44.743131594242186" lon="9.46843595301739"><ele>1034.0</ele><time>2026-04-11T11:02:18.999Z</time></trkpt><trkpt lat="44.743174907135405" lon="9.46851461247084"><ele>1034.0</ele><time>2026-04-11T11:02:20.999Z</time></trkpt><trkpt lat="44.743219742139914" lon="9.468584091530598"><ele>1034.0</ele><time>2026-04-11T11:02:21.999Z</time></trkpt><trkpt lat="44.74331364981541" lon="9.468759716735246"><ele>1034.0</ele><time>2026-04-11T11:02:23.999Z</time></trkpt><trkpt lat="44.74334852541675" lon="9.468848807131609"><ele>1034.0</ele><time>2026-04-11T11:02:24.999Z</time></trkpt><trkpt lat="44.74343968428131" lon="9.468977737457886"><ele>1034.0</ele><time>2026-04-11T11:02:26.999Z</time></trkpt><trkpt lat="44.74350467658006" lon="9.469001047628156"><ele>1034.0</ele><time>2026-04-11T11:02:27.999Z</time></trkpt><trkpt lat="44.74359189752155" lon="9.468980319744759"><ele>1034.0</ele><time>2026-04-11T11:02:28.999Z</time></trkpt><trkpt lat="44.7436787713371" lon="9.468955571928822"><ele>1034.0</ele><time>2026-04-11T11:02:29.999Z</time></trkpt><trkpt lat="44.74377973012856" lon="9.468912512385987"><ele>1034.0</ele><time>2026-04-11T11:02:31.999Z</time></trkpt><trkpt lat="44.74385431686448" lon="9.468899596942592"><ele>1034.0</ele><time>2026-04-11T11:02:32.999Z</time></trkpt><trkpt lat="44.743936701136036" lon="9.468865367732873"><ele>1031.5</ele><time>2026-04-11T11:02:33.999Z</time></trkpt><trkpt lat="44.74398390228101" lon="9.468777105980433"><ele>1029.0</ele><time>2026-04-11T11:02:34.999Z</time></trkpt><trkpt lat="44.74402166851866" lon="9.468651523059968"><ele>1026.5</ele><time>2026-04-11T11:02:35.999Z</time></trkpt><trkpt lat="44.74404636753869" lon="9.468513541125875"><ele>1024.0</ele><time>2026-04-11T11:02:36.999Z</time></trkpt><trkpt lat="44.74407011196516" lon="9.468402935441413"><ele>1021.5000000000001</ele><time>2026-04-11T11:02:37.999Z</time></trkpt><trkpt lat="44.744091049196655" lon="9.468297557239465"><ele>1019.0</ele><time>2026-04-11T11:02:38.999Z</time></trkpt><trkpt lat="44.74410554772494" lon="9.468180546107286"><ele>1019.0000000000001</ele><time>2026-04-11T11:02:39.999Z</time></trkpt><trkpt lat="44.7441223618219" lon="9.468065916819159"><ele>1019.0</ele><time>2026-04-11T11:02:40.999Z</time></trkpt><trkpt lat="44.7441450292316" lon="9.467974993938766"><ele>1019.0</ele><time>2026-04-11T11:02:41.999Z</time></trkpt><trkpt lat="44.74421285304226" lon="9.467895600685422"><ele>1019.0</ele><time>2026-04-11T11:02:43Z</time></trkpt><trkpt lat="44.744296736249645" lon="9.467822662359952"><ele>1019.0000000000001</ele><time>2026-04-11T11:02:44Z</time></trkpt><trkpt lat="44.744371445617574" lon="9.467763761669351"><ele>1019.0</ele><time>2026-04-11T11:02:45Z</time></trkpt><trkpt lat="44.744449326143936" lon="9.467700050010386"><ele>1017.6</ele><time>2026-04-11T11:02:46Z</time></trkpt><trkpt lat="44.744517321788315" lon="9.467544562077636"><ele>1016.2</ele><time>2026-04-11T11:02:48Z</time></trkpt><trkpt lat="44.744562149434806" lon="9.467434243371908"><ele>1014.8000000000001</ele><time>2026-04-11T11:02:49Z</time></trkpt><trkpt lat="44.74461174749906" lon="9.467341527403208"><ele>1013.4000000000001</ele><time>2026-04-11T11:02:50Z</time></trkpt><trkpt lat="44.744660565526004" lon="9.46724909397864"><ele>1012.0</ele><time>2026-04-11T11:02:51Z</time></trkpt><trkpt lat="44.74470433737397" lon="9.467166539458287"><ele>1013.3333333333333</ele><time>2026-04-11T11:02:52Z</time></trkpt><trkpt lat="44.744748867622114" lon="9.467087414085524"><ele>1014.6666666666666</ele><time>2026-04-11T11:02:53Z</time></trkpt><trkpt lat="44.74480982419703" lon="9.467011449588808"><ele>1016.0</ele><time>2026-04-11T11:02:54Z</time></trkpt><trkpt lat="44.74489060913194" lon="9.466909392130201"><ele>1017.3333333333333</ele><time>2026-04-11T11:02:55Z</time></trkpt><trkpt lat="44.74496280334719" lon="9.466835159810218"><ele>1018.6666666666666</ele><time>2026-04-11T11:02:56Z</time></trkpt><trkpt lat="44.745032906833956" lon="9.46681029990548"><ele>1020.0</ele><time>2026-04-11T11:02:57Z</time></trkpt><trkpt lat="44.74510316560267" lon="9.466789096822493"><ele>1020.0</ele><time>2026-04-11T11:02:58Z</time></trkpt><trkpt lat="44.74518178380815" lon="9.466771338797864"><ele>1020.0</ele><time>2026-04-11T11:02:59Z</time></trkpt><trkpt lat="44.745261310066724" lon="9.466789252762313"><ele>1020.0</ele><time>2026-04-11T11:03:05Z</time></trkpt><trkpt lat="44.745383136576685" lon="9.466780295876069"><ele>1020.0</ele><time>2026-04-11T11:03:07Z</time></trkpt><trkpt lat="44.745467608344" lon="9.46678162735203"><ele>1020.0</ele><time>2026-04-11T11:03:08Z</time></trkpt><trkpt lat="44.74555039794574" lon="9.466799613151364"><ele>1020.1666666666666</ele><time>2026-04-11T11:03:09Z</time></trkpt><trkpt lat="44.74563284612234" lon="9.466808223557768"><ele>1020.3333333333333</ele><time>2026-04-11T11:03:10Z</time></trkpt><trkpt lat="44.745739021915455" lon="9.466807521446807"><ele>1020.5</ele><time>2026-04-11T11:03:12Z</time></trkpt><trkpt lat="44.74584400534264" lon="9.466798376667866"><ele>1020.6666666666666</ele><time>2026-04-11T11:03:14Z</time></trkpt><trkpt lat="44.7459114512651" lon="9.466825290981287"><ele>1020.8333333333333</ele><time>2026-04-11T11:03:29Z</time></trkpt><trkpt lat="44.74597495850698" lon="9.466872292500774"><ele>1021.0</ele><time>2026-04-11T11:03:32Z</time></trkpt><trkpt lat="44.74600893043945" lon="9.46698043289974"><ele>1021.1666666666666</ele><time>2026-04-11T11:04:25.999Z</time></trkpt><trkpt lat="44.74607101277652" lon="9.467035501011367"><ele>1021.3333333333333</ele><time>2026-04-11T11:04:28.999Z</time></trkpt><trkpt lat="44.74614895921792" lon="9.467040061325344"><ele>1021.5</ele><time>2026-04-11T11:04:30.999Z</time></trkpt><trkpt lat="44.74622358885789" lon="9.467022436596254"><ele>1021.6666666666667</ele><time>2026-04-11T11:04:32.999Z</time></trkpt><trkpt lat="44.746314846196746" lon="9.467043915249963"><ele>1021.8333333333334</ele><time>2026-04-11T11:04:34.999Z</time></trkpt><trkpt lat="44.74640786183032" lon="9.467039747028132"><ele>1022.0</ele><time>2026-04-11T11:04:37.999Z</time></trkpt><trkpt lat="44.74649869753801" lon="9.467033391049524"><ele>1022.0000000000001</ele><time>2026-04-11T11:04:39.999Z</time></trkpt><trkpt lat="44.74656391375681" lon="9.467059348587192"><ele>1022.0</ele><time>2026-04-11T11:04:42.999Z</time></trkpt><trkpt lat="44.7466332437824" lon="9.467120383167359"><ele>1022.0</ele><time>2026-04-11T11:04:45.999Z</time></trkpt><trkpt lat="44.746702607721126" lon="9.467120741994611"><ele>1022.0</ele><time>2026-04-11T11:04:47.999Z</time></trkpt><trkpt lat="44.74679207741019" lon="9.467128175645263"><ele>1022.0000000000001</ele><time>2026-04-11T11:04:50Z</time></trkpt><trkpt lat="44.74686832593624" lon="9.467134807691368"><ele>1022.0</ele><time>2026-04-11T11:04:52Z</time></trkpt><trkpt lat="44.74695648651983" lon="9.4671594916361"><ele>1022.4285714285714</ele><time>2026-04-11T11:04:54Z</time></trkpt><trkpt lat="44.74701362463855" lon="9.467199529239263"><ele>1022.8571428571429</ele><time>2026-04-11T11:04:55Z</time></trkpt><trkpt lat="44.74708339212284" lon="9.46722037988827"><ele>1023.2857142857142</ele><time>2026-04-11T11:04:56Z</time></trkpt><trkpt lat="44.74715875110816" lon="9.467235000074254"><ele>1023.7142857142857</ele><time>2026-04-11T11:04:57Z</time></trkpt><trkpt lat="44.7472400929682" lon="9.467276196226283"><ele>1024.142857142857</ele><time>2026-04-11T11:04:58Z</time></trkpt><trkpt lat="44.74730216599691" lon="9.46732310545682"><ele>1024.5714285714284</ele><time>2026-04-11T11:04:59Z</time></trkpt><trkpt lat="44.74737025465011" lon="9.467376350090571"><ele>1025.0</ele><time>2026-04-11T11:05:00Z</time></trkpt><trkpt lat="44.74745455700774" lon="9.467432721791669"><ele>1025.0</ele><time>2026-04-11T11:05:01Z</time></trkpt><trkpt lat="44.747529626013346" lon="9.46746017046463"><ele>1025.0</ele><time>2026-04-11T11:05:02Z</time></trkpt><trkpt lat="44.7475926314698" lon="9.467471699845351"><ele>1025.0</ele><time>2026-04-11T11:05:03Z</time></trkpt><trkpt lat="44.74769308403311" lon="9.467498540329824"><ele>1025.0</ele><time>2026-04-11T11:05:05Z</time></trkpt><trkpt lat="44.747781110948395" lon="9.467453466058224"><ele>1025.0</ele><time>2026-04-11T11:05:06Z</time></trkpt><trkpt lat="44.74785336246255" lon="9.467412783736588"><ele>1025.0</ele><time>2026-04-11T11:05:07Z</time></trkpt><trkpt lat="44.747935238143356" lon="9.467374717330756"><ele>1025.6666666666667</ele><time>2026-04-11T11:05:08Z</time></trkpt><trkpt lat="44.74801948930516" lon="9.467356592868569"><ele>1026.3333333333335</ele><time>2026-04-11T11:05:09Z</time></trkpt><trkpt lat="44.74808937279523" lon="9.467342033570871"><ele>1027.0</ele><time>2026-04-11T11:05:10Z</time></trkpt><trkpt lat="44.748152270809136" lon="9.467311839402743"><ele>1027.6666666666667</ele><time>2026-04-11T11:05:11Z</time></trkpt><trkpt lat="44.748241393256286" lon="9.467291325778952"><ele>1028.3333333333333</ele><time>2026-04-11T11:05:12Z</time></trkpt><trkpt lat="44.748315119818095" lon="9.467271989814812"><ele>1029.0</ele><time>2026-04-11T11:05:13Z</time></trkpt><trkpt lat="44.74839178469556" lon="9.467270258159864"><ele>1029.0</ele><time>2026-04-11T11:05:14Z</time></trkpt><trkpt lat="44.74848235399001" lon="9.467277709671523"><ele>1029.0</ele><time>2026-04-11T11:05:15Z</time></trkpt><trkpt lat="44.748584943299136" lon="9.46728532161709"><ele>1029.0</ele><time>2026-04-11T11:05:16Z</time></trkpt><trkpt lat="44.748678338503844" lon="9.467295029518812"><ele>1029.0</ele><time>2026-04-11T11:05:17Z</time></trkpt><trkpt lat="44.748751826283595" lon="9.46732588568584"><ele>1029.0</ele><time>2026-04-11T11:05:18Z</time></trkpt><trkpt lat="44.74881984434474" lon="9.467367545733936"><ele>1029.0</ele><time>2026-04-11T11:05:19Z</time></trkpt><trkpt lat="44.74890663340381" lon="9.467456637232347"><ele>1030.4</ele><time>2026-04-11T11:05:21Z</time></trkpt><trkpt lat="44.74899904848666" lon="9.467531989209549"><ele>1031.8000000000002</ele><time>2026-04-11T11:05:23Z</time></trkpt><trkpt lat="44.749096166604396" lon="9.467608159543623"><ele>1033.1999999999998</ele><time>2026-04-11T11:05:25Z</time></trkpt><trkpt lat="44.74916637521755" lon="9.467608864220132"><ele>1034.6</ele><time>2026-04-11T11:05:27Z</time></trkpt><trkpt lat="44.74924161121511" lon="9.467581604782753"><ele>1036.0</ele><time>2026-04-11T11:05:29Z</time></trkpt><trkpt lat="44.74931082882418" lon="9.46771854790346"><ele>1036.0</ele><time>2026-04-11T11:05:31Z</time></trkpt><trkpt lat="44.749357336961104" lon="9.467801924480145"><ele>1036.0</ele><time>2026-04-11T11:05:32Z</time></trkpt><trkpt lat="44.74941980323466" lon="9.467886990589562"><ele>1036.0</ele><time>2026-04-11T11:05:33Z</time></trkpt><trkpt lat="44.74948391080808" lon="9.467966030834958"><ele>1036.0</ele><time>2026-04-11T11:05:34Z</time></trkpt><trkpt lat="44.7495418947465" lon="9.468028327871615"><ele>1036.0</ele><time>2026-04-11T11:05:35Z</time></trkpt><trkpt lat="44.74961917599055" lon="9.46809897724222"><ele>1036.0</ele><time>2026-04-11T11:05:36Z</time></trkpt><trkpt lat="44.749685035353" lon="9.468159753795867"><ele>1037.5</ele><time>2026-04-11T11:05:37Z</time></trkpt><trkpt lat="44.74975703220357" lon="9.468229283176786"><ele>1039.0</ele><time>2026-04-11T11:05:38Z</time></trkpt><trkpt lat="44.74982515619288" lon="9.468319149472464"><ele>1040.5</ele><time>2026-04-11T11:05:39Z</time></trkpt><trkpt lat="44.749876752995455" lon="9.468391423607127"><ele>1042.0</ele><time>2026-04-11T11:05:40Z</time></trkpt><trkpt lat="44.74993951734883" lon="9.468465214361755"><ele>1043.5</ele><time>2026-04-11T11:05:41Z</time></trkpt><trkpt lat="44.75000484195705" lon="9.468544552286065"><ele>1045.0</ele><time>2026-04-11T11:05:42Z</time></trkpt><trkpt lat="44.75006986266981" lon="9.4686259241559"><ele>1045.0</ele><time>2026-04-11T11:05:43Z</time></trkpt><trkpt lat="44.75013952991587" lon="9.468731104832717"><ele>1045.0</ele><time>2026-04-11T11:05:45Z</time></trkpt><trkpt lat="44.750165746571554" lon="9.46887936468932"><ele>1045.0</ele><time>2026-04-11T11:07:38Z</time></trkpt><trkpt lat="44.75020059466103" lon="9.468957934848303"><ele>1045.0</ele><time>2026-04-11T11:07:39Z</time></trkpt><trkpt lat="44.75025257863935" lon="9.469088544038305"><ele>1045.0</ele><time>2026-04-11T11:07:41Z</time></trkpt><trkpt lat="44.75029579295561" lon="9.469225727272251"><ele>1045.0</ele><time>2026-04-11T11:07:43Z</time></trkpt><trkpt lat="44.75034013466831" lon="9.469350650476562"><ele>1045.0</ele><time>2026-04-11T11:07:45Z</time></trkpt><trkpt lat="44.750381851709434" lon="9.469446372518835"><ele>1045.0</ele><time>2026-04-11T11:07:47Z</time></trkpt><trkpt lat="44.750427196811174" lon="9.469537776732059"><ele>1045.0</ele><time>2026-04-11T11:08:26.999Z</time></trkpt><trkpt lat="44.75046485879238" lon="9.469667047072349"><ele>1045.0</ele><time>2026-04-11T11:09:08.999Z</time></trkpt><trkpt lat="44.75047288713215" lon="9.469807105562683"><ele>1045.0</ele><time>2026-04-11T11:09:11Z</time></trkpt><trkpt lat="44.750506797841716" lon="9.469910681060519"><ele>1045.0</ele><time>2026-04-11T11:09:13Z</time></trkpt><trkpt lat="44.75053336971295" lon="9.470043455877065"><ele>1045.0</ele><time>2026-04-11T11:09:15Z</time></trkpt><trkpt lat="44.75057142927751" lon="9.470144104672517"><ele>1045.0</ele><time>2026-04-11T11:09:17Z</time></trkpt><trkpt lat="44.75063489102044" lon="9.470285894187151"><ele>1045.0</ele><time>2026-04-11T11:09:19Z</time></trkpt><trkpt lat="44.750719735062184" lon="9.470400124749386"><ele>1044.5</ele><time>2026-04-11T11:09:21Z</time></trkpt><trkpt lat="44.750774102773065" lon="9.470458512224663"><ele>1044.0</ele><time>2026-04-11T11:09:22Z</time></trkpt><trkpt lat="44.750833580203036" lon="9.470529016591897"><ele>1043.5</ele><time>2026-04-11T11:09:23Z</time></trkpt><trkpt lat="44.750886536077665" lon="9.470607015080333"><ele>1043.0</ele><time>2026-04-11T11:09:24Z</time></trkpt><trkpt lat="44.75092685003386" lon="9.47069545921906"><ele>1042.5</ele><time>2026-04-11T11:09:25Z</time></trkpt><trkpt lat="44.75097037032598" lon="9.470784534280384"><ele>1042.0</ele><time>2026-04-11T11:09:26Z</time></trkpt><trkpt lat="44.751015822345906" lon="9.470875897043788"><ele>1041.3333333333333</ele><time>2026-04-11T11:09:27Z</time></trkpt><trkpt lat="44.751052959395224" lon="9.470951641478624"><ele>1040.6666666666665</ele><time>2026-04-11T11:09:28Z</time></trkpt><trkpt lat="44.751132209460756" lon="9.471073892126038"><ele>1040.0</ele><time>2026-04-11T11:09:30Z</time></trkpt><trkpt lat="44.75118514499071" lon="9.471123851917591"><ele>1039.3333333333333</ele><time>2026-04-11T11:09:31Z</time></trkpt><trkpt lat="44.751240139761826" lon="9.471182250469372"><ele>1038.6666666666667</ele><time>2026-04-11T11:09:32Z</time></trkpt><trkpt lat="44.75129599382014" lon="9.471251085664946"><ele>1038.0</ele><time>2026-04-11T11:09:33Z</time></trkpt><trkpt lat="44.75135754534778" lon="9.47133695530996"><ele>1038.0</ele><time>2026-04-11T11:09:34Z</time></trkpt><trkpt lat="44.751422187735095" lon="9.471424323341996"><ele>1038.0</ele><time>2026-04-11T11:09:35Z</time></trkpt><trkpt lat="44.75147540611948" lon="9.471483016413963"><ele>1038.0</ele><time>2026-04-11T11:09:36Z</time></trkpt><trkpt lat="44.75153032021583" lon="9.47154790300178"><ele>1038.0</ele><time>2026-04-11T11:09:37Z</time></trkpt><trkpt lat="44.75159239558876" lon="9.471611032452387"><ele>1038.0</ele><time>2026-04-11T11:09:38Z</time></trkpt><trkpt lat="44.75168733178771" lon="9.471706389043138"><ele>1038.0</ele><time>2026-04-11T11:09:40Z</time></trkpt><trkpt lat="44.75174210748049" lon="9.471761977861648"><ele>1038.0</ele><time>2026-04-11T11:09:41Z</time></trkpt><trkpt lat="44.751811146086666" lon="9.471853802498659"><ele>1038.0</ele><time>2026-04-11T11:09:42Z</time></trkpt><trkpt lat="44.75186593439629" lon="9.471945864508656"><ele>1038.0</ele><time>2026-04-11T11:09:43Z</time></trkpt><trkpt lat="44.75192069217223" lon="9.472030689454586"><ele>1038.0</ele><time>2026-04-11T11:09:44Z</time></trkpt><trkpt lat="44.75197619444109" lon="9.47211350297137"><ele>1038.0</ele><time>2026-04-11T11:09:45Z</time></trkpt><trkpt lat="44.752028866732005" lon="9.47217975241096"><ele>1038.0</ele><time>2026-04-11T11:09:46Z</time></trkpt><trkpt lat="44.75210343828541" lon="9.472290658849536"><ele>1038.0</ele><time>2026-04-11T11:09:48Z</time></trkpt><trkpt lat="44.75213651176134" lon="9.47237044926447"><ele>1038.0</ele><time>2026-04-11T11:09:49.999Z</time></trkpt><trkpt lat="44.752151116260265" lon="9.472462917581531"><ele>1038.0</ele><time>2026-04-11T11:09:51.999Z</time></trkpt><trkpt lat="44.75222278019225" lon="9.472530469647591"><ele>1038.0</ele><time>2026-04-11T11:09:53.999Z</time></trkpt><trkpt lat="44.752312166590215" lon="9.472668282056683"><ele>1038.0</ele><time>2026-04-11T11:09:55.999Z</time></trkpt><trkpt lat="44.752371148538735" lon="9.472759240203208"><ele>1038.0</ele><time>2026-04-11T11:09:56.999Z</time></trkpt><trkpt lat="44.75243381777308" lon="9.47285133450542"><ele>1038.0</ele><time>2026-04-11T11:09:57.999Z</time></trkpt><trkpt lat="44.752475516501136" lon="9.472934854268843"><ele>1038.0</ele><time>2026-04-11T11:09:58.999Z</time></trkpt><trkpt lat="44.752555962012835" lon="9.473023616978063"><ele>1038.0</ele><time>2026-04-11T11:10:00.999Z</time></trkpt><trkpt lat="44.75265319907401" lon="9.473111506198343"><ele>1038.0</ele><time>2026-04-11T11:10:02.999Z</time></trkpt><trkpt lat="44.75271378103324" lon="9.473174323914405"><ele>1038.0</ele><time>2026-04-11T11:10:03.999Z</time></trkpt><trkpt lat="44.75276348335504" lon="9.473231836917499"><ele>1038.0</ele><time>2026-04-11T11:10:04.999Z</time></trkpt><trkpt lat="44.75283932258792" lon="9.473352921301421"><ele>1038.8333333333333</ele><time>2026-04-11T11:10:06.999Z</time></trkpt><trkpt lat="44.75289949869664" lon="9.473407457085878"><ele>1039.6666666666667</ele><time>2026-04-11T11:10:07.999Z</time></trkpt><trkpt lat="44.7529479445819" lon="9.473474406774194"><ele>1040.5</ele><time>2026-04-11T11:10:08.999Z</time></trkpt><trkpt lat="44.75298388501092" lon="9.473551145693062"><ele>1041.3333333333335</ele><time>2026-04-11T11:10:09.999Z</time></trkpt><trkpt lat="44.75302709147348" lon="9.473625468151885"><ele>1042.1666666666667</ele><time>2026-04-11T11:10:10.999Z</time></trkpt><trkpt lat="44.75308523411169" lon="9.473767714292132"><ele>1043.0</ele><time>2026-04-11T11:10:12.999Z</time></trkpt><trkpt lat="44.75311721005872" lon="9.473895112460752"><ele>1040.4</ele><time>2026-04-11T11:10:14.999Z</time></trkpt><trkpt lat="44.75312924814109" lon="9.474011935675788"><ele>1037.8</ele><time>2026-04-11T11:10:16.999Z</time></trkpt><trkpt lat="44.75320851626974" lon="9.474111409201518"><ele>1035.2</ele><time>2026-04-11T11:10:18.999Z</time></trkpt><trkpt lat="44.75326390427392" lon="9.47419902731404"><ele>1032.6</ele><time>2026-04-11T11:10:20.999Z</time></trkpt><trkpt lat="44.75330685368206" lon="9.474310529057734"><ele>1030.0</ele><time>2026-04-11T11:10:22.999Z</time></trkpt><trkpt lat="44.753332663400535" lon="9.474442303332536"><ele>1030.0</ele><time>2026-04-11T11:10:24.999Z</time></trkpt><trkpt lat="44.7533722675007" lon="9.474546566622484"><ele>1030.0</ele><time>2026-04-11T11:10:26.999Z</time></trkpt><trkpt lat="44.75341940994094" lon="9.474646097231345"><ele>1030.0</ele><time>2026-04-11T11:10:28.999Z</time></trkpt><trkpt lat="44.75346589075083" lon="9.474715636989677"><ele>1030.0</ele><time>2026-04-11T11:10:29.999Z</time></trkpt><trkpt lat="44.75351324208039" lon="9.47481019283069"><ele>1030.0</ele><time>2026-04-11T11:10:30.999Z</time></trkpt><trkpt lat="44.75358157289516" lon="9.474888114507616"><ele>1030.0</ele><time>2026-04-11T11:10:31.999Z</time></trkpt><trkpt lat="44.75364237483417" lon="9.474970047053704"><ele>1029.4</ele><time>2026-04-11T11:10:32.999Z</time></trkpt><trkpt lat="44.75364072631989" lon="9.475062008289083"><ele>1028.8</ele><time>2026-04-11T11:10:33.999Z</time></trkpt><trkpt lat="44.75371459297203" lon="9.475172393800658"><ele>1028.2</ele><time>2026-04-11T11:10:35.999Z</time></trkpt><trkpt lat="44.75379381571368" lon="9.47532311193338"><ele>1027.6</ele><time>2026-04-11T11:10:37.999Z</time></trkpt><trkpt lat="44.7538221578955" lon="9.475429592819681"><ele>1027.0</ele><time>2026-04-11T11:10:38.999Z</time></trkpt><trkpt lat="44.753844636925486" lon="9.475517146297316"><ele>1023.4000000000001</ele><time>2026-04-11T11:10:39.999Z</time></trkpt><trkpt lat="44.75390251691905" lon="9.47564505768716"><ele>1019.8000000000001</ele><time>2026-04-11T11:10:41.999Z</time></trkpt><trkpt lat="44.75397358015394" lon="9.475788412002826"><ele>1016.2</ele><time>2026-04-11T11:10:43.999Z</time></trkpt><trkpt lat="44.754010805277815" lon="9.475860616589957"><ele>1012.6</ele><time>2026-04-11T11:10:44.999Z</time></trkpt><trkpt lat="44.754054527581324" lon="9.475945209873466"><ele>1009.0</ele><time>2026-04-11T11:10:46.999Z</time></trkpt><trkpt lat="44.754142713173216" lon="9.476030321145116"><ele>1009.0</ele><time>2026-04-11T11:11:00.999Z</time></trkpt><trkpt lat="44.75422443339681" lon="9.476112689263022"><ele>1009.0000000000001</ele><time>2026-04-11T11:11:02.999Z</time></trkpt><trkpt lat="44.75433838267536" lon="9.476111672330731"><ele>1009.0000000000001</ele><time>2026-04-11T11:11:04.999Z</time></trkpt><trkpt lat="44.75443193926515" lon="9.476158520416904"><ele>1009.0</ele><time>2026-04-11T11:11:07Z</time></trkpt><trkpt lat="44.75450257736111" lon="9.476280852008692"><ele>1009.0</ele><time>2026-04-11T11:11:09Z</time></trkpt><trkpt lat="44.75456738178551" lon="9.476382230470872"><ele>1006.0</ele><time>2026-04-11T11:11:10Z</time></trkpt><trkpt lat="44.754641030781755" lon="9.476455650215392"><ele>1003.0000000000001</ele><time>2026-04-11T11:11:11Z</time></trkpt><trkpt lat="44.754702815192424" lon="9.476555476023572"><ele>1000.0000000000001</ele><time>2026-04-11T11:11:12Z</time></trkpt><trkpt lat="44.75476008097479" lon="9.476651624514645"><ele>997.0</ele><time>2026-04-11T11:11:13Z</time></trkpt><trkpt lat="44.75481219372495" lon="9.47671164025595"><ele>994.0</ele><time>2026-04-11T11:11:14Z</time></trkpt><trkpt lat="44.75495486859319" lon="9.476728360179735"><ele>994.0</ele><time>2026-04-11T11:11:16Z</time></trkpt><trkpt lat="44.755040349612955" lon="9.476723765320209"><ele>994.0</ele><time>2026-04-11T11:11:17Z</time></trkpt><trkpt lat="44.755107355195335" lon="9.476705079376753"><ele>994.0</ele><time>2026-04-11T11:11:18Z</time></trkpt><trkpt lat="44.755176469624075" lon="9.476688841377067"><ele>994.0</ele><time>2026-04-11T11:11:19Z</time></trkpt><trkpt lat="44.75524463798422" lon="9.47665347907102"><ele>994.0</ele><time>2026-04-11T11:11:20Z</time></trkpt><trkpt lat="44.75530731022096" lon="9.476624305954221"><ele>994.0</ele><time>2026-04-11T11:11:21Z</time></trkpt><trkpt lat="44.75537170176423" lon="9.476579145230323"><ele>994.0</ele><time>2026-04-11T11:11:22Z</time></trkpt><trkpt lat="44.75543720816643" lon="9.476541127961523"><ele>993.0</ele><time>2026-04-11T11:11:23Z</time></trkpt><trkpt lat="44.75555733189231" lon="9.476456889185414"><ele>992.0000000000001</ele><time>2026-04-11T11:11:25Z</time></trkpt><trkpt lat="44.755637455996094" lon="9.476441118682477"><ele>991.0000000000001</ele><time>2026-04-11T11:11:26Z</time></trkpt><trkpt lat="44.75572132612813" lon="9.476446629336957"><ele>990.0</ele><time>2026-04-11T11:11:27Z</time></trkpt><trkpt lat="44.75582115944779" lon="9.476490932739361"><ele>989.0</ele><time>2026-04-11T11:11:29Z</time></trkpt><trkpt lat="44.75590631145409" lon="9.47662951941665"><ele>989.0000000000001</ele><time>2026-04-11T11:11:31Z</time></trkpt><trkpt lat="44.75596454983041" lon="9.47666680553691"><ele>989.0</ele><time>2026-04-11T11:11:32Z</time></trkpt><trkpt lat="44.756029144827245" lon="9.47666376467781"><ele>989.0</ele><time>2026-04-11T11:11:33Z</time></trkpt><trkpt lat="44.75609918214001" lon="9.476690554913585"><ele>989.0</ele><time>2026-04-11T11:11:34Z</time></trkpt><trkpt lat="44.75618499578632" lon="9.476732243403646"><ele>989.0000000000001</ele><time>2026-04-11T11:11:35Z</time></trkpt><trkpt lat="44.75627360831365" lon="9.47674545432813"><ele>989.0</ele><time>2026-04-11T11:11:36Z</time></trkpt><trkpt lat="44.7563634043561" lon="9.47672363646644"><ele>988.6</ele><time>2026-04-11T11:11:37Z</time></trkpt><trkpt lat="44.75642081463981" lon="9.476672987032039"><ele>988.2</ele><time>2026-04-11T11:11:38Z</time></trkpt><trkpt lat="44.75647493891462" lon="9.476602482712208"><ele>987.8000000000001</ele><time>2026-04-11T11:11:39Z</time></trkpt><trkpt lat="44.756537108331514" lon="9.476504696061285"><ele>987.4000000000001</ele><time>2026-04-11T11:11:40Z</time></trkpt><trkpt lat="44.756607119200474" lon="9.476398363185346"><ele>987.0</ele><time>2026-04-11T11:11:41Z</time></trkpt><trkpt lat="44.756718386035274" lon="9.476312676147508"><ele>987.2</ele><time>2026-04-11T11:11:43Z</time></trkpt><trkpt lat="44.75679156757243" lon="9.476257559483402"><ele>987.4000000000001</ele><time>2026-04-11T11:11:45Z</time></trkpt><trkpt lat="44.75689412871771" lon="9.476226805432272"><ele>987.5999999999999</ele><time>2026-04-11T11:11:47Z</time></trkpt><trkpt lat="44.756961096293175" lon="9.476225278904419"><ele>987.8</ele><time>2026-04-11T11:11:48Z</time></trkpt><trkpt lat="44.757077864989185" lon="9.476183170748994"><ele>988.0</ele><time>2026-04-11T11:11:50Z</time></trkpt><trkpt lat="44.757183725474896" lon="9.476168910527074"><ele>988.0</ele><time>2026-04-11T11:11:52Z</time></trkpt><trkpt lat="44.75727520016009" lon="9.476207381604928"><ele>988.0</ele><time>2026-04-11T11:11:53Z</time></trkpt><trkpt lat="44.757385128076706" lon="9.4762747510062"><ele>988.0</ele><time>2026-04-11T11:11:54Z</time></trkpt><trkpt lat="44.75748713617653" lon="9.476320321325856"><ele>988.0</ele><time>2026-04-11T11:11:55Z</time></trkpt><trkpt lat="44.75758023650408" lon="9.476348814375276"><ele>988.0</ele><time>2026-04-11T11:11:56Z</time></trkpt><trkpt lat="44.75766219201126" lon="9.476378595163194"><ele>986.2</ele><time>2026-04-11T11:11:57Z</time></trkpt><trkpt lat="44.75773592227827" lon="9.476393204997356"><ele>984.4</ele><time>2026-04-11T11:11:58Z</time></trkpt><trkpt lat="44.75781300244591" lon="9.47639039924816"><ele>982.6000000000001</ele><time>2026-04-11T11:11:59Z</time></trkpt><trkpt lat="44.75793962854453" lon="9.476366566338005"><ele>980.8000000000001</ele><time>2026-04-11T11:12:01Z</time></trkpt><trkpt lat="44.75801122228423" lon="9.47634695117788"><ele>979.0</ele><time>2026-04-11T11:12:02Z</time></trkpt><trkpt lat="44.75811749627571" lon="9.476306631575385"><ele>978.9999999999999</ele><time>2026-04-11T11:12:04Z</time></trkpt><trkpt lat="44.7582115044213" lon="9.476350007348067"><ele>979.0</ele><time>2026-04-11T11:12:06Z</time></trkpt><trkpt lat="44.75825647338887" lon="9.47646196399783"><ele>979.0</ele><time>2026-04-11T11:12:08Z</time></trkpt><trkpt lat="44.75826307607793" lon="9.476550494440684"><ele>979.0</ele><time>2026-04-11T11:12:11Z</time></trkpt><trkpt lat="44.75828061263078" lon="9.476653919402747"><ele>978.9999999999999</ele><time>2026-04-11T11:12:13Z</time></trkpt><trkpt lat="44.75832965203125" lon="9.47679331859084"><ele>979.0</ele><time>2026-04-11T11:12:15Z</time></trkpt><trkpt lat="44.758344842485485" lon="9.476930287741082"><ele>979.0</ele><time>2026-04-11T11:12:17Z</time></trkpt><trkpt lat="44.75840469618111" lon="9.477027600770278"><ele>979.0000000000001</ele><time>2026-04-11T11:12:19Z</time></trkpt><trkpt lat="44.75849151950815" lon="9.477048454011188"><ele>979.0000000000001</ele><time>2026-04-11T11:12:20.999Z</time></trkpt><trkpt lat="44.758604644380476" lon="9.477108971608091"><ele>979.0</ele><time>2026-04-11T11:12:22.999Z</time></trkpt><trkpt lat="44.75870474584457" lon="9.477124118818907"><ele>979.0</ele><time>2026-04-11T11:12:24.999Z</time></trkpt><trkpt lat="44.75875590700481" lon="9.47719733603104"><ele>976.2</ele><time>2026-04-11T11:12:26.999Z</time></trkpt><trkpt lat="44.75869305874589" lon="9.47731793786489"><ele>973.4000000000001</ele><time>2026-04-11T11:12:28.999Z</time></trkpt><trkpt lat="44.75862435005821" lon="9.4773309101041"><ele>970.6</ele><time>2026-04-11T11:12:29.999Z</time></trkpt><trkpt lat="44.7585474610651" lon="9.47735976954425"><ele>967.8</ele><time>2026-04-11T11:12:30.999Z</time></trkpt><trkpt lat="44.75848334140868" lon="9.477414236208336"><ele>965.0</ele><time>2026-04-11T11:12:31.999Z</time></trkpt><trkpt lat="44.758381551645634" lon="9.477517978485158"><ele>963.8333333333334</ele><time>2026-04-11T11:12:33.999Z</time></trkpt><trkpt lat="44.75833109209672" lon="9.477684341815946"><ele>962.6666666666667</ele><time>2026-04-11T11:12:35.999Z</time></trkpt><trkpt lat="44.7582894782214" lon="9.477835562777756"><ele>961.5</ele><time>2026-04-11T11:12:37.999Z</time></trkpt><trkpt lat="44.75826514804572" lon="9.477918144200746"><ele>960.3333333333333</ele><time>2026-04-11T11:12:38.999Z</time></trkpt><trkpt lat="44.758262942046834" lon="9.478013433193428"><ele>959.1666666666666</ele><time>2026-04-11T11:12:39.999Z</time></trkpt><trkpt lat="44.75828391427349" lon="9.478100313371545"><ele>958.0</ele><time>2026-04-11T11:12:40.999Z</time></trkpt><trkpt lat="44.75828865792204" lon="9.478223568996093"><ele>955.3333333333333</ele><time>2026-04-11T11:12:41.999Z</time></trkpt><trkpt lat="44.758311422605885" lon="9.47832769594761"><ele>952.6666666666666</ele><time>2026-04-11T11:12:42.999Z</time></trkpt><trkpt lat="44.75833683359846" lon="9.478420999765346"><ele>950.0</ele><time>2026-04-11T11:12:43.999Z</time></trkpt><trkpt lat="44.7583668549525" lon="9.478511852058556"><ele>947.3333333333333</ele><time>2026-04-11T11:12:44.999Z</time></trkpt><trkpt lat="44.75838475449407" lon="9.478669435306102"><ele>944.6666666666666</ele><time>2026-04-11T11:12:46.999Z</time></trkpt><trkpt lat="44.758404140588446" lon="9.47879366383776"><ele>942.0</ele><time>2026-04-11T11:12:48.999Z</time></trkpt><trkpt lat="44.758400520661255" lon="9.47888466098947"><ele>939.0</ele><time>2026-04-11T11:12:49.999Z</time></trkpt><trkpt lat="44.758398279059826" lon="9.478979880289945"><ele>936.0</ele><time>2026-04-11T11:12:50.999Z</time></trkpt><trkpt lat="44.75841721332355" lon="9.479069703564198"><ele>933.0</ele><time>2026-04-11T11:12:51.999Z</time></trkpt><trkpt lat="44.75844820612241" lon="9.479236084733376"><ele>930.0</ele><time>2026-04-11T11:12:53.999Z</time></trkpt><trkpt lat="44.75839090840633" lon="9.479323210230119"><ele>927.0</ele><time>2026-04-11T11:12:55.999Z</time></trkpt><trkpt lat="44.758259446281336" lon="9.479393076409558"><ele>926.9999999999999</ele><time>2026-04-11T11:12:57.999Z</time></trkpt><trkpt lat="44.758190119847086" lon="9.479419289773688"><ele>927.0</ele><time>2026-04-11T11:12:58.999Z</time></trkpt><trkpt lat="44.75812630954199" lon="9.479429469841586"><ele>926.9999999999999</ele><time>2026-04-11T11:12:59.999Z</time></trkpt><trkpt lat="44.758065729673014" lon="9.479546999272863"><ele>926.9999999999999</ele><time>2026-04-11T11:13:01.999Z</time></trkpt><trkpt lat="44.75801384689095" lon="9.47961930202617"><ele>927.0</ele><time>2026-04-11T11:13:02.999Z</time></trkpt><trkpt lat="44.75795261048379" lon="9.479644874831346"><ele>926.9999999999999</ele><time>2026-04-11T11:13:03.999Z</time></trkpt><trkpt lat="44.75788496598882" lon="9.479668995168991"><ele>926.9999999999999</ele><time>2026-04-11T11:13:04.999Z</time></trkpt><trkpt lat="44.75782061398102" lon="9.47971300534426"><ele>927.1666666666666</ele><time>2026-04-11T11:13:05.999Z</time></trkpt><trkpt lat="44.75775586515011" lon="9.47977742020872"><ele>927.3333333333333</ele><time>2026-04-11T11:13:06.999Z</time></trkpt><trkpt lat="44.75768941990251" lon="9.47981193735959"><ele>927.5</ele><time>2026-04-11T11:13:07.999Z</time></trkpt><trkpt lat="44.75761669768072" lon="9.47982701971301"><ele>927.6666666666666</ele><time>2026-04-11T11:13:08.999Z</time></trkpt><trkpt lat="44.75752531426303" lon="9.479829796276963"><ele>927.8333333333333</ele><time>2026-04-11T11:13:09.999Z</time></trkpt><trkpt lat="44.757438407292916" lon="9.479834375111315"><ele>928.0</ele><time>2026-04-11T11:13:10.999Z</time></trkpt><trkpt lat="44.757367466937225" lon="9.479940760607887"><ele>924.3333333333333</ele><time>2026-04-11T11:13:13Z</time></trkpt><trkpt lat="44.75735032013908" lon="9.480035440301803"><ele>920.6666666666666</ele><time>2026-04-11T11:13:14Z</time></trkpt><trkpt lat="44.75735006488842" lon="9.480125755860396"><ele>917.0</ele><time>2026-04-11T11:13:15Z</time></trkpt><trkpt lat="44.75729076655233" lon="9.480230671730096"><ele>913.3333333333333</ele><time>2026-04-11T11:13:17Z</time></trkpt><trkpt lat="44.75716321590684" lon="9.480204865510554"><ele>909.6666666666666</ele><time>2026-04-11T11:13:19Z</time></trkpt><trkpt lat="44.75708993189598" lon="9.480185266177466"><ele>906.0</ele><time>2026-04-11T11:13:20Z</time></trkpt><trkpt lat="44.75697600934326" lon="9.480239252758942"><ele>906.0</ele><time>2026-04-11T11:13:22Z</time></trkpt><trkpt lat="44.75690570421456" lon="9.48030505105275"><ele>906.0</ele><time>2026-04-11T11:13:23Z</time></trkpt><trkpt lat="44.7568514334116" lon="9.480393455278001"><ele>906.0</ele><time>2026-04-11T11:13:24Z</time></trkpt><trkpt lat="44.75683547714477" lon="9.480485440007813"><ele>906.0</ele><time>2026-04-11T11:13:26Z</time></trkpt><trkpt lat="44.756809011195536" lon="9.480638844679644"><ele>906.0</ele><time>2026-04-11T11:13:28Z</time></trkpt><trkpt lat="44.756800175450515" lon="9.480728007069331"><ele>906.0</ele><time>2026-04-11T11:13:29Z</time></trkpt><trkpt lat="44.75676768060028" lon="9.480864106581526"><ele>902.6666666666666</ele><time>2026-04-11T11:13:31Z</time></trkpt><trkpt lat="44.756767619232974" lon="9.48100665326855"><ele>899.3333333333333</ele><time>2026-04-11T11:13:33Z</time></trkpt><trkpt lat="44.756714942536306" lon="9.481144632699156"><ele>896.0</ele><time>2026-04-11T11:13:35Z</time></trkpt><trkpt lat="44.7566664147497" lon="9.481226944617072"><ele>892.6666666666666</ele><time>2026-04-11T11:13:36Z</time></trkpt><trkpt lat="44.75662738505233" lon="9.481309909784702"><ele>889.3333333333333</ele><time>2026-04-11T11:13:37Z</time></trkpt><trkpt lat="44.75659788213302" lon="9.481402658897357"><ele>886.0</ele><time>2026-04-11T11:13:38Z</time></trkpt><trkpt lat="44.75655465985902" lon="9.481505578968836"><ele>886.5999999999999</ele><time>2026-04-11T11:13:40Z</time></trkpt><trkpt lat="44.75663471826876" lon="9.48158943113549"><ele>887.1999999999999</ele><time>2026-04-11T11:13:43Z</time></trkpt><trkpt lat="44.75675967039852" lon="9.481639402241797"><ele>887.8000000000001</ele><time>2026-04-11T11:13:45Z</time></trkpt><trkpt lat="44.756823040434526" lon="9.481678499017645"><ele>888.4000000000001</ele><time>2026-04-11T11:13:46Z</time></trkpt><trkpt lat="44.75690041386666" lon="9.481735276936808"><ele>889.0</ele><time>2026-04-11T11:13:48Z</time></trkpt><trkpt lat="44.75694290477889" lon="9.481829319710654"><ele>888.9999999999999</ele><time>2026-04-11T11:13:52Z</time></trkpt><trkpt lat="44.756960724788016" lon="9.481920388166975"><ele>889.0</ele><time>2026-04-11T11:13:54Z</time></trkpt><trkpt lat="44.756952974431755" lon="9.482013072832709"><ele>889.0</ele><time>2026-04-11T11:13:57Z</time></trkpt><trkpt lat="44.756937900365784" lon="9.48215950713573"><ele>889.0</ele><time>2026-04-11T11:14:00Z</time></trkpt><trkpt lat="44.756909601472046" lon="9.482287912371076"><ele>888.9999999999999</ele><time>2026-04-11T11:14:02Z</time></trkpt><trkpt lat="44.75688210238653" lon="9.482369370617489"><ele>889.0</ele><time>2026-04-11T11:14:03Z</time></trkpt><trkpt lat="44.75687158845615" lon="9.482469281793318"><ele>889.0</ele><time>2026-04-11T11:14:04Z</time></trkpt><trkpt lat="44.75691142205568" lon="9.482619987835433"><ele>889.0000000000001</ele><time>2026-04-11T11:14:06Z</time></trkpt><trkpt lat="44.75695550609966" lon="9.48274002651881"><ele>889.0000000000001</ele><time>2026-04-11T11:14:09Z</time></trkpt><trkpt lat="44.75699144487798" lon="9.482887923096316"><ele>889.0</ele><time>2026-04-11T11:14:11Z</time></trkpt><trkpt lat="44.75697801215324" lon="9.483023544443812"><ele>889.0</ele><time>2026-04-11T11:14:13Z</time></trkpt><trkpt lat="44.756998016459335" lon="9.48311513858472"><ele>889.0</ele><time>2026-04-11T11:14:14Z</time></trkpt><trkpt lat="44.75703381320263" lon="9.483191647619941"><ele>889.0000000000001</ele><time>2026-04-11T11:14:15Z</time></trkpt><trkpt lat="44.75705139298122" lon="9.483280131433121"><ele>889.0000000000001</ele><time>2026-04-11T11:14:16Z</time></trkpt><trkpt lat="44.756999901169884" lon="9.483426248853876"><ele>889.0</ele><time>2026-04-11T11:14:18Z</time></trkpt><trkpt lat="44.75693529272227" lon="9.48352975078012"><ele>889.0</ele><time>2026-04-11T11:14:20Z</time></trkpt><trkpt lat="44.75683006572718" lon="9.483627572652463"><ele>885.4999999999999</ele><time>2026-04-11T11:14:25Z</time></trkpt><trkpt lat="44.75676641692993" lon="9.483701418102537"><ele>882.0</ele><time>2026-04-11T11:14:27Z</time></trkpt><trkpt lat="44.756694662001166" lon="9.483777705503986"><ele>878.5</ele><time>2026-04-11T11:14:29Z</time></trkpt><trkpt lat="44.75663033107514" lon="9.48386071628823"><ele>875.0</ele><time>2026-04-11T11:14:31Z</time></trkpt><trkpt lat="44.7565602208654" lon="9.48396054444061"><ele>871.4999999999999</ele><time>2026-04-11T11:14:33Z</time></trkpt><trkpt lat="44.756502933863814" lon="9.484034059259654"><ele>868.0</ele><time>2026-04-11T11:14:35Z</time></trkpt><trkpt lat="44.75643126726246" lon="9.484080803259147"><ele>867.8333333333333</ele><time>2026-04-11T11:14:37Z</time></trkpt><trkpt lat="44.75635973387394" lon="9.48409088953869"><ele>867.6666666666666</ele><time>2026-04-11T11:14:39Z</time></trkpt><trkpt lat="44.756275337911866" lon="9.484135739489965"><ele>867.5</ele><time>2026-04-11T11:14:42Z</time></trkpt><trkpt lat="44.7562158526933" lon="9.48416832867294"><ele>867.3333333333333</ele><time>2026-04-11T11:14:44Z</time></trkpt><trkpt lat="44.75614381237148" lon="9.484193954931028"><ele>867.1666666666666</ele><time>2026-04-11T11:14:45.999Z</time></trkpt><trkpt lat="44.75606879346604" lon="9.484212481506072"><ele>867.0</ele><time>2026-04-11T11:14:47.999Z</time></trkpt><trkpt lat="44.755983400690916" lon="9.484228645330699"><ele>862.5</ele><time>2026-04-11T11:14:50.999Z</time></trkpt><trkpt lat="44.75592850129536" lon="9.4842763755633"><ele>858.0</ele><time>2026-04-11T11:14:52.999Z</time></trkpt><trkpt lat="44.75584283774969" lon="9.484366656773457"><ele>853.5</ele><time>2026-04-11T11:14:54.999Z</time></trkpt><trkpt lat="44.75583925071455" lon="9.484495138742155"><ele>849.0</ele><time>2026-04-11T11:14:56.999Z</time></trkpt><trkpt lat="44.75587807719627" lon="9.484614521398694"><ele>844.5</ele><time>2026-04-11T11:14:58.999Z</time></trkpt><trkpt lat="44.75585433735302" lon="9.48473011841006"><ele>840.0</ele><time>2026-04-11T11:15:00.999Z</time></trkpt><trkpt lat="44.75578764473366" lon="9.484852020806997"><ele>838.0</ele><time>2026-04-11T11:15:02.999Z</time></trkpt><trkpt lat="44.755728037825286" lon="9.484948140848584"><ele>836.0</ele><time>2026-04-11T11:15:04.999Z</time></trkpt><trkpt lat="44.755700819932834" lon="9.485086133813939"><ele>834.0</ele><time>2026-04-11T11:15:06.999Z</time></trkpt><trkpt lat="44.755664766346264" lon="9.485208817437664"><ele>832.0</ele><time>2026-04-11T11:15:08.999Z</time></trkpt><trkpt lat="44.755599692855164" lon="9.485316446635073"><ele>830.0</ele><time>2026-04-11T11:15:10.999Z</time></trkpt><trkpt lat="44.75551768075751" lon="9.485426657158236"><ele>829.8333333333334</ele><time>2026-04-11T11:15:12.999Z</time></trkpt><trkpt lat="44.75547100977157" lon="9.485567723818146"><ele>829.6666666666667</ele><time>2026-04-11T11:15:14.999Z</time></trkpt><trkpt lat="44.755442166447594" lon="9.485676295712828"><ele>829.5</ele><time>2026-04-11T11:15:16.999Z</time></trkpt><trkpt lat="44.755408500327256" lon="9.485773441236555"><ele>829.3333333333333</ele><time>2026-04-11T11:15:19Z</time></trkpt><trkpt lat="44.75536830324591" lon="9.485845821984402"><ele>829.1666666666666</ele><time>2026-04-11T11:15:21Z</time></trkpt><trkpt lat="44.75536687090023" lon="9.48596807201517"><ele>829.0</ele><time>2026-04-11T11:15:23Z</time></trkpt><trkpt lat="44.75535505480282" lon="9.486109962951375"><ele>829.0</ele><time>2026-04-11T11:15:25Z</time></trkpt><trkpt lat="44.75533006131131" lon="9.486209648691528"><ele>829.0</ele><time>2026-04-11T11:15:27Z</time></trkpt><trkpt lat="44.75526361256071" lon="9.486330427725813"><ele>829.0</ele><time>2026-04-11T11:15:43Z</time></trkpt><trkpt lat="44.7551671358652" lon="9.486447713355398"><ele>829.0</ele><time>2026-04-11T11:15:45Z</time></trkpt><trkpt lat="44.75508597478" lon="9.486527843382364"><ele>829.0</ele><time>2026-04-11T11:15:47Z</time></trkpt><trkpt lat="44.755018763457144" lon="9.486606492739002"><ele>824.4000000000001</ele><time>2026-04-11T11:15:49Z</time></trkpt><trkpt lat="44.754971955855716" lon="9.4867092518403"><ele>819.8</ele><time>2026-04-11T11:15:51Z</time></trkpt><trkpt lat="44.75492095392462" lon="9.486835056665278"><ele>815.2</ele><time>2026-04-11T11:17:20.999Z</time></trkpt><trkpt lat="44.754869144933416" lon="9.486926583626136"><ele>810.5999999999999</ele><time>2026-04-11T11:17:23Z</time></trkpt><trkpt lat="44.75477771175377" lon="9.487022066682508"><ele>806.0</ele><time>2026-04-11T11:17:25Z</time></trkpt><trkpt lat="44.754746855482246" lon="9.487114313226618"><ele>806.0000000000001</ele><time>2026-04-11T11:17:26Z</time></trkpt><trkpt lat="44.75470984875868" lon="9.48719152908124"><ele>806.0</ele><time>2026-04-11T11:17:27Z</time></trkpt><trkpt lat="44.75466531224845" lon="9.48726667477721"><ele>806.0</ele><time>2026-04-11T11:17:28Z</time></trkpt><trkpt lat="44.754649235294764" lon="9.48737692906901"><ele>806.0</ele><time>2026-04-11T11:17:29Z</time></trkpt><trkpt lat="44.75462615360909" lon="9.487500309368345"><ele>806.0000000000001</ele><time>2026-04-11T11:17:30Z</time></trkpt><trkpt lat="44.754621142270466" lon="9.487634752067033"><ele>806.0</ele><time>2026-04-11T11:17:32Z</time></trkpt><trkpt lat="44.754574310004166" lon="9.487710729281666"><ele>806.0</ele><time>2026-04-11T11:17:33Z</time></trkpt><trkpt lat="44.75449255037439" lon="9.487867570357484"><ele>806.0</ele><time>2026-04-11T11:17:35Z</time></trkpt><trkpt lat="44.75445088188516" lon="9.487938216261211"><ele>806.0</ele><time>2026-04-11T11:17:36Z</time></trkpt><trkpt lat="44.75440942097988" lon="9.488008246275905"><ele>806.0</ele><time>2026-04-11T11:17:37Z</time></trkpt><trkpt lat="44.754328293694876" lon="9.488122213432128"><ele>806.0</ele><time>2026-04-11T11:17:39Z</time></trkpt><trkpt lat="44.75428936488901" lon="9.488199127839259"><ele>800.5000000000001</ele><time>2026-04-11T11:17:40Z</time></trkpt><trkpt lat="44.754253661150706" lon="9.488284683926114"><ele>795.0</ele><time>2026-04-11T11:17:41Z</time></trkpt><trkpt lat="44.75421043986757" lon="9.488385909618849"><ele>789.5</ele><time>2026-04-11T11:17:42Z</time></trkpt><trkpt lat="44.754161477883166" lon="9.488472575727698"><ele>784.0</ele><time>2026-04-11T11:17:43Z</time></trkpt><trkpt lat="44.75413878936628" lon="9.48856271251445"><ele>778.5000000000001</ele><time>2026-04-11T11:17:44Z</time></trkpt><trkpt lat="44.75412403023585" lon="9.488735458602122"><ele>773.0</ele><time>2026-04-11T11:17:46Z</time></trkpt><trkpt lat="44.754129155268856" lon="9.488829244561918"><ele>772.0</ele><time>2026-04-11T11:17:47Z</time></trkpt><trkpt lat="44.75409201144649" lon="9.488984453792371"><ele>771.0</ele><time>2026-04-11T11:17:49Z</time></trkpt><trkpt lat="44.754049927444264" lon="9.489083770571476"><ele>770.0</ele><time>2026-04-11T11:17:50Z</time></trkpt><trkpt lat="44.754033280684475" lon="9.48920258246582"><ele>769.0</ele><time>2026-04-11T11:17:51Z</time></trkpt><trkpt lat="44.75402191470932" lon="9.489310364396081"><ele>768.0</ele><time>2026-04-11T11:17:52Z</time></trkpt><trkpt lat="44.75402452569734" lon="9.489477425459492"><ele>768.0</ele><time>2026-04-11T11:17:54Z</time></trkpt><trkpt lat="44.75403928672819" lon="9.489590645944324"><ele>768.0</ele><time>2026-04-11T11:17:55Z</time></trkpt><trkpt lat="44.75404498551702" lon="9.489680658535747"><ele>768.0</ele><time>2026-04-11T11:17:56Z</time></trkpt><trkpt lat="44.7540752480569" lon="9.489816025468835"><ele>768.0</ele><time>2026-04-11T11:17:58Z</time></trkpt><trkpt lat="44.75406984841633" lon="9.489932769140507"><ele>768.0</ele><time>2026-04-11T11:18:00Z</time></trkpt><trkpt lat="44.754063357022936" lon="9.490051258992205"><ele>768.0</ele><time>2026-04-11T11:18:02Z</time></trkpt><trkpt lat="44.7540416729725" lon="9.490217095356812"><ele>765.4</ele><time>2026-04-11T11:18:04Z</time></trkpt><trkpt lat="44.75403021201734" lon="9.490392748856534"><ele>762.8</ele><time>2026-04-11T11:18:06Z</time></trkpt><trkpt lat="44.75400945743824" lon="9.490497523157366"><ele>760.2</ele><time>2026-04-11T11:18:07Z</time></trkpt><trkpt lat="44.75395123591305" lon="9.490646088655213"><ele>757.6</ele><time>2026-04-11T11:18:09Z</time></trkpt><trkpt lat="44.753867452137975" lon="9.49072308508263"><ele>755.0</ele><time>2026-04-11T11:18:11Z</time></trkpt><trkpt lat="44.75382242268251" lon="9.49081110418945"><ele>752.6666666666666</ele><time>2026-04-11T11:18:12Z</time></trkpt><trkpt lat="44.753791601513875" lon="9.49091307022534"><ele>750.3333333333333</ele><time>2026-04-11T11:18:13Z</time></trkpt><trkpt lat="44.753765809291096" lon="9.49100752180023"><ele>748.0</ele><time>2026-04-11T11:18:14Z</time></trkpt><trkpt lat="44.75372621053303" lon="9.49108708347068"><ele>745.6666666666666</ele><time>2026-04-11T11:18:15Z</time></trkpt><trkpt lat="44.753665892007966" lon="9.491138756699707"><ele>743.3333333333334</ele><time>2026-04-11T11:18:16Z</time></trkpt><trkpt lat="44.753579848282435" lon="9.49124726794049"><ele>741.0</ele><time>2026-04-11T11:18:18Z</time></trkpt><trkpt lat="44.753529311483774" lon="9.49132262031207"><ele>734.8333333333334</ele><time>2026-04-11T11:18:19Z</time></trkpt><trkpt lat="44.75346404219939" lon="9.491389831671329"><ele>728.6666666666666</ele><time>2026-04-11T11:18:20Z</time></trkpt><trkpt lat="44.75339014024736" lon="9.49144594757562"><ele>722.5</ele><time>2026-04-11T11:18:21Z</time></trkpt><trkpt lat="44.75335250970464" lon="9.491533215872314"><ele>716.3333333333333</ele><time>2026-04-11T11:18:22Z</time></trkpt><trkpt lat="44.75331329521174" lon="9.491637394681806"><ele>710.1666666666666</ele><time>2026-04-11T11:18:23Z</time></trkpt><trkpt lat="44.75328992086098" lon="9.491746569560089"><ele>704.0</ele><time>2026-04-11T11:18:24Z</time></trkpt><trkpt lat="44.7532529744505" lon="9.491821093008472"><ele>704.0</ele><time>2026-04-11T11:18:25Z</time></trkpt><trkpt lat="44.75324193311981" lon="9.49193749647598"><ele>704.0</ele><time>2026-04-11T11:18:26Z</time></trkpt><trkpt lat="44.75325342581537" lon="9.492061067414918"><ele>704.0</ele><time>2026-04-11T11:18:27Z</time></trkpt><trkpt lat="44.75324387340372" lon="9.49218460594535"><ele>704.0</ele><time>2026-04-11T11:18:28Z</time></trkpt><trkpt lat="44.75320925002839" lon="9.492279499101118"><ele>704.0</ele><time>2026-04-11T11:18:29Z</time></trkpt><trkpt lat="44.7531480463766" lon="9.492386123051691"><ele>704.0</ele><time>2026-04-11T11:18:31Z</time></trkpt><trkpt lat="44.75309313575712" lon="9.492464989972609"><ele>702.8333333333333</ele><time>2026-04-11T11:18:32Z</time></trkpt><trkpt lat="44.753038170235094" lon="9.49253900240783"><ele>701.6666666666666</ele><time>2026-04-11T11:18:33Z</time></trkpt><trkpt lat="44.75296978148829" lon="9.492593768614922"><ele>700.5</ele><time>2026-04-11T11:18:34Z</time></trkpt><trkpt lat="44.75292152861333" lon="9.492666538331816"><ele>699.3333333333334</ele><time>2026-04-11T11:18:35Z</time></trkpt><trkpt lat="44.75285408797072" lon="9.492732509383185"><ele>698.1666666666667</ele><time>2026-04-11T11:18:36Z</time></trkpt><trkpt lat="44.75279045614409" lon="9.492817137869322"><ele>697.0</ele><time>2026-04-11T11:18:37Z</time></trkpt><trkpt lat="44.75268348594663" lon="9.49290128001012"><ele>695.0</ele><time>2026-04-11T11:18:39Z</time></trkpt><trkpt lat="44.75257774636996" lon="9.49297482149148"><ele>693.0</ele><time>2026-04-11T11:18:41Z</time></trkpt><trkpt lat="44.75246394462926" lon="9.493032605021666"><ele>691.0</ele><time>2026-04-11T11:18:43Z</time></trkpt><trkpt lat="44.7523998520594" lon="9.493066720021615"><ele>689.0</ele><time>2026-04-11T11:18:44Z</time></trkpt><trkpt lat="44.75233709212566" lon="9.49309524733216"><ele>687.0</ele><time>2026-04-11T11:18:45Z</time></trkpt><trkpt lat="44.75227075962914" lon="9.49312215443385"><ele>685.0</ele><time>2026-04-11T11:18:46Z</time></trkpt><trkpt lat="44.75220735218318" lon="9.493146039955173"><ele>685.0</ele><time>2026-04-11T11:18:47Z</time></trkpt><trkpt lat="44.7521475451045" lon="9.49318812272556"><ele>685.0</ele><time>2026-04-11T11:18:48Z</time></trkpt><trkpt lat="44.75209431102253" lon="9.493246369384082"><ele>685.0</ele><time>2026-04-11T11:18:49Z</time></trkpt><trkpt lat="44.751984918235514" lon="9.493321807739013"><ele>685.0</ele><time>2026-04-11T11:18:51Z</time></trkpt><trkpt lat="44.75193016704843" lon="9.493366729987363"><ele>685.0</ele><time>2026-04-11T11:18:52Z</time></trkpt><trkpt lat="44.75189450534919" lon="9.493470853490072"><ele>685.0</ele><time>2026-04-11T11:18:53Z</time></trkpt><trkpt lat="44.75185819012427" lon="9.493556971407367"><ele>682.8</ele><time>2026-04-11T11:18:54Z</time></trkpt><trkpt lat="44.75181107415319" lon="9.493627066594708"><ele>680.6</ele><time>2026-04-11T11:18:55Z</time></trkpt><trkpt lat="44.7517369564377" lon="9.49373549481176"><ele>678.4000000000001</ele><time>2026-04-11T11:18:57Z</time></trkpt><trkpt lat="44.75178418027595" lon="9.493898999004093"><ele>676.2</ele><time>2026-04-11T11:18:59Z</time></trkpt><trkpt lat="44.75186520444333" lon="9.493960886371319"><ele>674.0</ele><time>2026-04-11T11:19:00Z</time></trkpt><trkpt lat="44.751932720447506" lon="9.494021771004928"><ele>674.0</ele><time>2026-04-11T11:19:01Z</time></trkpt><trkpt lat="44.75199894102466" lon="9.494081790320182"><ele>674.0</ele><time>2026-04-11T11:19:02Z</time></trkpt><trkpt lat="44.75208367487762" lon="9.494130728257641"><ele>674.0</ele><time>2026-04-11T11:19:03Z</time></trkpt><trkpt lat="44.752152082336366" lon="9.494203472257023"><ele>674.0</ele><time>2026-04-11T11:19:04Z</time></trkpt><trkpt lat="44.75221999753477" lon="9.494265936852814"><ele>674.0</ele><time>2026-04-11T11:19:05Z</time></trkpt><trkpt lat="44.75227872334598" lon="9.494329448133392"><ele>674.0</ele><time>2026-04-11T11:19:05.999Z</time></trkpt><trkpt lat="44.75232856532318" lon="9.494411014784282"><ele>674.0</ele><time>2026-04-11T11:19:06.999Z</time></trkpt><trkpt lat="44.75237660172101" lon="9.494495700008246"><ele>674.0</ele><time>2026-04-11T11:19:07.999Z</time></trkpt><trkpt lat="44.7524236034622" lon="9.494588047888932"><ele>674.0</ele><time>2026-04-11T11:19:08.999Z</time></trkpt><trkpt lat="44.75246341915111" lon="9.494683040779757"><ele>674.0</ele><time>2026-04-11T11:19:09.999Z</time></trkpt><trkpt lat="44.752493960187124" lon="9.494795342562046"><ele>674.0</ele><time>2026-04-11T11:19:10.999Z</time></trkpt><trkpt lat="44.75251480153885" lon="9.494908336594982"><ele>674.0</ele><time>2026-04-11T11:19:11.999Z</time></trkpt><trkpt lat="44.752507798662386" lon="9.495034203349045"><ele>672.8333333333333</ele><time>2026-04-11T11:19:12.999Z</time></trkpt><trkpt lat="44.75253039625023" lon="9.495152550067973"><ele>671.6666666666666</ele><time>2026-04-11T11:19:13.999Z</time></trkpt><trkpt lat="44.75253443027698" lon="9.495275321234155"><ele>670.5</ele><time>2026-04-11T11:19:14.999Z</time></trkpt><trkpt lat="44.752548069460495" lon="9.495391914343324"><ele>669.3333333333334</ele><time>2026-04-11T11:19:15.999Z</time></trkpt><trkpt lat="44.7525741608982" lon="9.495514537402057"><ele>668.1666666666667</ele><time>2026-04-11T11:19:16.999Z</time></trkpt><trkpt lat="44.752605844975996" lon="9.495641837703086"><ele>667.0</ele><time>2026-04-11T11:19:17.999Z</time></trkpt><trkpt lat="44.75264586259414" lon="9.495757643321147"><ele>666.4000000000001</ele><time>2026-04-11T11:19:18.999Z</time></trkpt><trkpt lat="44.75270620980369" lon="9.495846912471455"><ele>665.8000000000001</ele><time>2026-04-11T11:19:19.999Z</time></trkpt><trkpt lat="44.752790295976396" lon="9.495920263046049"><ele>665.2</ele><time>2026-04-11T11:19:20.999Z</time></trkpt><trkpt lat="44.752893597832326" lon="9.495991686245391"><ele>664.6</ele><time>2026-04-11T11:19:21.999Z</time></trkpt><trkpt lat="44.75299392124998" lon="9.496063991335335"><ele>664.0</ele><time>2026-04-11T11:19:22.999Z</time></trkpt><trkpt lat="44.753065493940895" lon="9.496167961151588"><ele>662.0</ele><time>2026-04-11T11:19:23.999Z</time></trkpt><trkpt lat="44.75308227953818" lon="9.496310556928455"><ele>660.0</ele><time>2026-04-11T11:19:24.999Z</time></trkpt><trkpt lat="44.75311539810532" lon="9.496458249152782"><ele>658.0</ele><time>2026-04-11T11:19:25.999Z</time></trkpt><trkpt lat="44.753142009733075" lon="9.496623342476965"><ele>656.0</ele><time>2026-04-11T11:19:26.999Z</time></trkpt><trkpt lat="44.75315549394539" lon="9.496794623750736"><ele>656.0</ele><time>2026-04-11T11:19:27.999Z</time></trkpt><trkpt lat="44.75315845525735" lon="9.496953474335571"><ele>656.0</ele><time>2026-04-11T11:19:29Z</time></trkpt><trkpt lat="44.75317387582851" lon="9.497075609253965"><ele>656.0</ele><time>2026-04-11T11:19:30Z</time></trkpt><trkpt lat="44.75318556611091" lon="9.497171890904662"><ele>656.0</ele><time>2026-04-11T11:19:31Z</time></trkpt><trkpt lat="44.7532146341446" lon="9.497264793322556"><ele>656.0</ele><time>2026-04-11T11:19:32Z</time></trkpt><trkpt lat="44.75325551277404" lon="9.497351808159854"><ele>656.0</ele><time>2026-04-11T11:19:33Z</time></trkpt><trkpt lat="44.75332087332111" lon="9.497439544128316"><ele>655.5999999999999</ele><time>2026-04-11T11:19:34Z</time></trkpt><trkpt lat="44.753425642271026" lon="9.49751066420911"><ele>655.2</ele><time>2026-04-11T11:19:35Z</time></trkpt><trkpt lat="44.75352563038478" lon="9.497576648964777"><ele>654.8</ele><time>2026-04-11T11:19:36Z</time></trkpt><trkpt lat="44.75359290465202" lon="9.497681568182337"><ele>654.4000000000001</ele><time>2026-04-11T11:19:37Z</time></trkpt><trkpt lat="44.75365519777272" lon="9.497806484136714"><ele>654.0</ele><time>2026-04-11T11:19:38Z</time></trkpt><trkpt lat="44.75373564117167" lon="9.497934357584297"><ele>654.0</ele><time>2026-04-11T11:19:39Z</time></trkpt><trkpt lat="44.75381314398017" lon="9.498082899854861"><ele>654.0</ele><time>2026-04-11T11:19:40Z</time></trkpt><trkpt lat="44.75388725529726" lon="9.49823967418695"><ele>654.0</ele><time>2026-04-11T11:19:41Z</time></trkpt><trkpt lat="44.75394788903788" lon="9.498386385208507"><ele>654.0</ele><time>2026-04-11T11:19:42Z</time></trkpt><trkpt lat="44.7540058500891" lon="9.498515459195001"><ele>654.0</ele><time>2026-04-11T11:19:43Z</time></trkpt><trkpt lat="44.75407028606295" lon="9.498623420994718"><ele>654.0</ele><time>2026-04-11T11:19:44Z</time></trkpt><trkpt lat="44.75414168695148" lon="9.498723868078024"><ele>654.0</ele><time>2026-04-11T11:19:45Z</time></trkpt><trkpt lat="44.754221032131916" lon="9.498815870153027"><ele>654.0</ele><time>2026-04-11T11:19:46Z</time></trkpt><trkpt lat="44.754304562088706" lon="9.498885496621824"><ele>654.0</ele><time>2026-04-11T11:19:47Z</time></trkpt><trkpt lat="44.75439130587159" lon="9.498928942859925"><ele>650.25</ele><time>2026-04-11T11:19:48Z</time></trkpt><trkpt lat="44.754472899830795" lon="9.498979800847778"><ele>646.5</ele><time>2026-04-11T11:19:49Z</time></trkpt><trkpt lat="44.754585401229036" lon="9.498909885217811"><ele>642.75</ele><time>2026-04-11T11:19:50Z</time></trkpt><trkpt lat="44.75469246793001" lon="9.498843075893445"><ele>639.0</ele><time>2026-04-11T11:19:51Z</time></trkpt><trkpt lat="44.754803220094175" lon="9.498773597856802"><ele>639.0</ele><time>2026-04-11T11:19:52Z</time></trkpt><trkpt lat="44.75491124490857" lon="9.498754389456517"><ele>639.0</ele><time>2026-04-11T11:19:53Z</time></trkpt><trkpt lat="44.7550159909143" lon="9.498836875899816"><ele>639.0</ele><time>2026-04-11T11:19:54Z</time></trkpt><trkpt lat="44.75513058054231" lon="9.498878809661731"><ele>639.0</ele><time>2026-04-11T11:19:55Z</time></trkpt><trkpt lat="44.755282181441174" lon="9.498899823863768"><ele>638.0</ele><time>2026-04-11T11:19:56Z</time></trkpt><trkpt lat="44.755438465643856" lon="9.4989147182113"><ele>637.0</ele><time>2026-04-11T11:19:57Z</time></trkpt><trkpt lat="44.75557883451098" lon="9.498935775102009"><ele>636.0</ele><time>2026-04-11T11:19:58Z</time></trkpt><trkpt lat="44.75569754878673" lon="9.498952490673547"><ele>635.0</ele><time>2026-04-11T11:19:59Z</time></trkpt><trkpt lat="44.755779730952746" lon="9.498933921787433"><ele>635.0</ele><time>2026-04-11T11:20:00Z</time></trkpt><trkpt lat="44.75587698939244" lon="9.49888048920035"><ele>635.0</ele><time>2026-04-11T11:20:01Z</time></trkpt><trkpt lat="44.75599195929516" lon="9.498792577329315"><ele>635.0</ele><time>2026-04-11T11:20:02Z</time></trkpt><trkpt lat="44.7561296838402" lon="9.498771216620431"><ele>635.0</ele><time>2026-04-11T11:20:03Z</time></trkpt><trkpt lat="44.75626426632056" lon="9.498779961505045"><ele>632.8</ele><time>2026-04-11T11:20:04Z</time></trkpt><trkpt lat="44.75639911478949" lon="9.498764328738986"><ele>630.6</ele><time>2026-04-11T11:20:05Z</time></trkpt><trkpt lat="44.756504515692534" lon="9.498753935379979"><ele>628.4</ele><time>2026-04-11T11:20:06Z</time></trkpt><trkpt lat="44.75658670590369" lon="9.498716894521174"><ele>626.2</ele><time>2026-04-11T11:20:07Z</time></trkpt><trkpt lat="44.75666608705237" lon="9.498619572209053"><ele>624.0</ele><time>2026-04-11T11:20:08Z</time></trkpt><trkpt lat="44.756758608500945" lon="9.498501247184432"><ele>631.4</ele><time>2026-04-11T11:20:09Z</time></trkpt><trkpt lat="44.75685054639694" lon="9.498409425874815"><ele>638.8</ele><time>2026-04-11T11:20:10Z</time></trkpt><trkpt lat="44.75693712267537" lon="9.498362616041994"><ele>646.1999999999999</ele><time>2026-04-11T11:20:11Z</time></trkpt><trkpt lat="44.7570118641889" lon="9.498376214862418"><ele>653.5999999999999</ele><time>2026-04-11T11:20:12Z</time></trkpt><trkpt lat="44.757094465608816" lon="9.498448512083954"><ele>661.0</ele><time>2026-04-11T11:20:13Z</time></trkpt><trkpt lat="44.75717843281983" lon="9.498582184535916"><ele>662.0</ele><time>2026-04-11T11:20:14Z</time></trkpt><trkpt lat="44.75726659282876" lon="9.498738326507516"><ele>663.0</ele><time>2026-04-11T11:20:15Z</time></trkpt><trkpt lat="44.75736326700376" lon="9.498870087696446"><ele>664.0</ele><time>2026-04-11T11:20:16Z</time></trkpt><trkpt lat="44.75747045092163" lon="9.498943674484693"><ele>665.0</ele><time>2026-04-11T11:20:17Z</time></trkpt><trkpt lat="44.75759178985238" lon="9.498974143906187"><ele>653.3333333333333</ele><time>2026-04-11T11:20:18Z</time></trkpt><trkpt lat="44.75771257097674" lon="9.498998873666745"><ele>641.6666666666666</ele><time>2026-04-11T11:20:19Z</time></trkpt><trkpt lat="44.757823446996284" lon="9.499020074744832"><ele>630.0</ele><time>2026-04-11T11:20:20Z</time></trkpt><trkpt lat="44.75804889267685" lon="9.499103604065642"><ele>630.0</ele><time>2026-04-11T11:20:21Z</time></trkpt><trkpt lat="44.75818742601616" lon="9.499012510703821"><ele>630.0</ele><time>2026-04-11T11:20:22Z</time></trkpt><trkpt lat="44.75832763245421" lon="9.498992705890444"><ele>630.0</ele><time>2026-04-11T11:20:23Z</time></trkpt><trkpt lat="44.75847523412016" lon="9.498991197840258"><ele>630.0</ele><time>2026-04-11T11:20:24Z</time></trkpt><trkpt lat="44.7586447686566" lon="9.499003360205098"><ele>629.6666666666666</ele><time>2026-04-11T11:20:25Z</time></trkpt><trkpt lat="44.75880542802655" lon="9.499014593248537"><ele>629.3333333333333</ele><time>2026-04-11T11:20:26Z</time></trkpt><trkpt lat="44.75895806630052" lon="9.499000674819245"><ele>629.0</ele><time>2026-04-11T11:20:27Z</time></trkpt><trkpt lat="44.75910428461118" lon="9.4989958670129"><ele>629.0</ele><time>2026-04-11T11:20:28Z</time></trkpt><trkpt lat="44.75924022343351" lon="9.498964001297097"><ele>629.0</ele><time>2026-04-11T11:20:29Z</time></trkpt><trkpt lat="44.75936408069568" lon="9.498901523539304"><ele>629.0</ele><time>2026-04-11T11:20:30Z</time></trkpt><trkpt lat="44.759478697604465" lon="9.498813644036982"><ele>629.0</ele><time>2026-04-11T11:20:31Z</time></trkpt><trkpt lat="44.75959321006204" lon="9.498745281245654"><ele>625.25</ele><time>2026-04-11T11:20:32Z</time></trkpt><trkpt lat="44.75972307728399" lon="9.498776420770096"><ele>621.5</ele><time>2026-04-11T11:20:33Z</time></trkpt><trkpt lat="44.75986776835177" lon="9.498752954670843"><ele>617.75</ele><time>2026-04-11T11:20:34Z</time></trkpt><trkpt lat="44.75999926913047" lon="9.498739572934534"><ele>614.0</ele><time>2026-04-11T11:20:35Z</time></trkpt><trkpt lat="44.760111907725125" lon="9.49869703004759"><ele>615.8</ele><time>2026-04-11T11:20:36Z</time></trkpt><trkpt lat="44.76019917502694" lon="9.498686723331973"><ele>617.5999999999999</ele><time>2026-04-11T11:20:37Z</time></trkpt><trkpt lat="44.760250910263586" lon="9.498773455716526"><ele>619.4</ele><time>2026-04-11T11:20:38Z</time></trkpt><trkpt lat="44.76027145511796" lon="9.498919665691936"><ele>621.1999999999999</ele><time>2026-04-11T11:20:39Z</time></trkpt><trkpt lat="44.76035109585248" lon="9.499019201271846"><ele>623.0</ele><time>2026-04-11T11:20:40Z</time></trkpt><trkpt lat="44.76044256825734" lon="9.499052006084733"><ele>623.0</ele><time>2026-04-11T11:20:41Z</time></trkpt><trkpt lat="44.7605838562873" lon="9.499085109708636"><ele>623.0</ele><time>2026-04-11T11:20:42Z</time></trkpt><trkpt lat="44.76070371599803" lon="9.499100708044779"><ele>623.0</ele><time>2026-04-11T11:20:43Z</time></trkpt><trkpt lat="44.760781977110696" lon="9.499222263704917"><ele>623.0</ele><time>2026-04-11T11:20:44Z</time></trkpt><trkpt lat="44.76088526591185" lon="9.499297133166323"><ele>623.0</ele><time>2026-04-11T11:20:45Z</time></trkpt><trkpt lat="44.760980645585484" lon="9.499336368270093"><ele>623.0</ele><time>2026-04-11T11:20:46Z</time></trkpt><trkpt lat="44.76108602066615" lon="9.499315696153957"><ele>623.0</ele><time>2026-04-11T11:20:47Z</time></trkpt><trkpt lat="44.761176884319326" lon="9.49924551720761"><ele>623.0</ele><time>2026-04-11T11:20:48Z</time></trkpt><trkpt lat="44.761262006739955" lon="9.49913900845613"><ele>623.0</ele><time>2026-04-11T11:20:49Z</time></trkpt><trkpt lat="44.761330317827216" lon="9.498969261885977"><ele>622.0</ele><time>2026-04-11T11:20:50Z</time></trkpt><trkpt lat="44.76139409427899" lon="9.498921073031969"><ele>621.0</ele><time>2026-04-11T11:20:51Z</time></trkpt><trkpt lat="44.761460677937414" lon="9.498895426143074"><ele>620.0</ele><time>2026-04-11T11:20:52Z</time></trkpt><trkpt lat="44.76154187161005" lon="9.498894573305604"><ele>619.0</ele><time>2026-04-11T11:20:53Z</time></trkpt><trkpt lat="44.7616200681616" lon="9.498931614482638"><ele>618.0</ele><time>2026-04-11T11:20:54Z</time></trkpt><trkpt lat="44.761662953829834" lon="9.499038809179314"><ele>617.0</ele><time>2026-04-11T11:20:55Z</time></trkpt><trkpt lat="44.76171367892969" lon="9.499194631915149"><ele>617.0</ele><time>2026-04-11T11:20:55.999Z</time></trkpt><trkpt lat="44.76180936886001" lon="9.499359726003489"><ele>617.0</ele><time>2026-04-11T11:20:56.999Z</time></trkpt><trkpt lat="44.76187104859165" lon="9.499497794941057"><ele>617.0</ele><time>2026-04-11T11:20:57.999Z</time></trkpt><trkpt lat="44.76191127734663" lon="9.499627453177194"><ele>617.0</ele><time>2026-04-11T11:20:58.999Z</time></trkpt><trkpt lat="44.76195774740716" lon="9.49971588852026"><ele>617.0</ele><time>2026-04-11T11:20:59.999Z</time></trkpt><trkpt lat="44.762031883545234" lon="9.499750476003351"><ele>610.5</ele><time>2026-04-11T11:21:00.999Z</time></trkpt><trkpt lat="44.76213785895214" lon="9.499758258253324"><ele>604.0</ele><time>2026-04-11T11:21:01.999Z</time></trkpt><trkpt lat="44.762264998443065" lon="9.499746086235827"><ele>597.5</ele><time>2026-04-11T11:21:02.999Z</time></trkpt><trkpt lat="44.76240657734461" lon="9.499742432558628"><ele>591.0</ele><time>2026-04-11T11:21:03.999Z</time></trkpt><trkpt lat="44.762550384641116" lon="9.499746921020707"><ele>591.0</ele><time>2026-04-11T11:21:04.999Z</time></trkpt><trkpt lat="44.76267295442674" lon="9.499736708477094"><ele>591.0</ele><time>2026-04-11T11:21:05.999Z</time></trkpt><trkpt lat="44.76278643232531" lon="9.499704313219654"><ele>591.0</ele><time>2026-04-11T11:21:06.999Z</time></trkpt><trkpt lat="44.76291239294647" lon="9.499657729080232"><ele>591.0</ele><time>2026-04-11T11:21:07.999Z</time></trkpt><trkpt lat="44.763029909738215" lon="9.499632271918557"><ele>593.2</ele><time>2026-04-11T11:21:08.999Z</time></trkpt><trkpt lat="44.76312900695739" lon="9.499633971579192"><ele>595.4000000000001</ele><time>2026-04-11T11:21:09.999Z</time></trkpt><trkpt lat="44.76320679134742" lon="9.499666472666018"><ele>597.6</ele><time>2026-04-11T11:21:10.999Z</time></trkpt><trkpt lat="44.76325726333034" lon="9.499742798064732"><ele>599.8000000000001</ele><time>2026-04-11T11:21:11.999Z</time></trkpt><trkpt lat="44.763308704148656" lon="9.499882572823081"><ele>602.0</ele><time>2026-04-11T11:21:12.999Z</time></trkpt><trkpt lat="44.763344106694376" lon="9.500053024992283"><ele>602.0</ele><time>2026-04-11T11:21:13.999Z</time></trkpt><trkpt lat="44.76334691314253" lon="9.500235319168736"><ele>602.0</ele><time>2026-04-11T11:21:14.999Z</time></trkpt><trkpt lat="44.763344117323264" lon="9.500395578224545"><ele>602.0</ele><time>2026-04-11T11:21:15.999Z</time></trkpt><trkpt lat="44.76336485809928" lon="9.50053488058489"><ele>602.0</ele><time>2026-04-11T11:21:16.999Z</time></trkpt><trkpt lat="44.76342513130124" lon="9.50066314433051"><ele>601.0</ele><time>2026-04-11T11:21:17.999Z</time></trkpt><trkpt lat="44.763500232866335" lon="9.500797511603663"><ele>600.0</ele><time>2026-04-11T11:21:18.999Z</time></trkpt><trkpt lat="44.76354316502154" lon="9.50093165970813"><ele>599.0</ele><time>2026-04-11T11:21:19.999Z</time></trkpt><trkpt lat="44.76357791509842" lon="9.501042269262747"><ele>598.0</ele><time>2026-04-11T11:21:20.999Z</time></trkpt><trkpt lat="44.76363367089334" lon="9.501105126082193"><ele>597.0</ele><time>2026-04-11T11:21:21.999Z</time></trkpt><trkpt lat="44.76371340209766" lon="9.501102845993104"><ele>597.0</ele><time>2026-04-11T11:21:22.999Z</time></trkpt><trkpt lat="44.76379872281089" lon="9.50107091671377"><ele>597.0</ele><time>2026-04-11T11:21:23.999Z</time></trkpt><trkpt lat="44.76390233916068" lon="9.50098786445398"><ele>597.0</ele><time>2026-04-11T11:21:24.999Z</time></trkpt><trkpt lat="44.76403348492615" lon="9.500899516059441"><ele>597.0</ele><time>2026-04-11T11:21:25.999Z</time></trkpt><trkpt lat="44.7641408067705" lon="9.500799930324309"><ele>597.0</ele><time>2026-04-11T11:21:26.999Z</time></trkpt><trkpt lat="44.76422025739092" lon="9.500702982746294"><ele>597.0</ele><time>2026-04-11T11:21:27.999Z</time></trkpt><trkpt lat="44.76430789675623" lon="9.500671206671996"><ele>597.0</ele><time>2026-04-11T11:21:28.999Z</time></trkpt><trkpt lat="44.764378648762445" lon="9.500727236626563"><ele>597.0</ele><time>2026-04-11T11:21:29.999Z</time></trkpt><trkpt lat="44.764436579080225" lon="9.500827297290424"><ele>597.0</ele><time>2026-04-11T11:21:30.999Z</time></trkpt><trkpt lat="44.764485902890314" lon="9.50097799130299"><ele>595.0</ele><time>2026-04-11T11:21:31.999Z</time></trkpt><trkpt lat="44.76452927512166" lon="9.501128268903127"><ele>593.0</ele><time>2026-04-11T11:21:32.999Z</time></trkpt><trkpt lat="44.764582039900446" lon="9.501315353932055"><ele>591.0</ele><time>2026-04-11T11:21:33.999Z</time></trkpt><trkpt lat="44.76462984864215" lon="9.501483172844972"><ele>589.0</ele><time>2026-04-11T11:21:35Z</time></trkpt><trkpt lat="44.764673106012374" lon="9.501608898239672"><ele>589.0</ele><time>2026-04-11T11:21:36Z</time></trkpt><trkpt lat="44.76473785057482" lon="9.50168938967572"><ele>589.0</ele><time>2026-04-11T11:21:37Z</time></trkpt><trkpt lat="44.764835213311066" lon="9.501730080619609"><ele>589.0</ele><time>2026-04-11T11:21:38Z</time></trkpt><trkpt lat="44.76495416781213" lon="9.501780030806474"><ele>589.0</ele><time>2026-04-11T11:21:39Z</time></trkpt><trkpt lat="44.765053313735564" lon="9.501856077806252"><ele>589.0</ele><time>2026-04-11T11:21:40Z</time></trkpt><trkpt lat="44.76509101357659" lon="9.502016524485104"><ele>584.25</ele><time>2026-04-11T11:21:41Z</time></trkpt><trkpt lat="44.765164203302405" lon="9.502149803289605"><ele>579.5</ele><time>2026-04-11T11:21:42Z</time></trkpt><trkpt lat="44.76525431127852" lon="9.502280356567514"><ele>574.75</ele><time>2026-04-11T11:21:43Z</time></trkpt><trkpt lat="44.76536319103276" lon="9.502376000164206"><ele>570.0</ele><time>2026-04-11T11:21:44Z</time></trkpt><trkpt lat="44.765468978803824" lon="9.502427314756984"><ele>570.0</ele><time>2026-04-11T11:21:45Z</time></trkpt><trkpt lat="44.76563816067554" lon="9.502506248330407"><ele>570.0</ele><time>2026-04-11T11:21:46Z</time></trkpt><trkpt lat="44.76577684677367" lon="9.502563706404702"><ele>570.0</ele><time>2026-04-11T11:21:47Z</time></trkpt><trkpt lat="44.76590713064664" lon="9.502599709586208"><ele>577.75</ele><time>2026-04-11T11:21:48Z</time></trkpt><trkpt lat="44.766040052403525" lon="9.502617448255544"><ele>585.5</ele><time>2026-04-11T11:21:49Z</time></trkpt><trkpt lat="44.766174631340476" lon="9.502658332720848"><ele>593.25</ele><time>2026-04-11T11:21:50Z</time></trkpt><trkpt lat="44.76629700836851" lon="9.50274475117755"><ele>601.0</ele><time>2026-04-11T11:21:51Z</time></trkpt><trkpt lat="44.76641109825227" lon="9.502863816628684"><ele>591.25</ele><time>2026-04-11T11:21:52Z</time></trkpt><trkpt lat="44.766507670864286" lon="9.503010087561142"><ele>581.5</ele><time>2026-04-11T11:21:53Z</time></trkpt><trkpt lat="44.766580955543056" lon="9.503190277773362"><ele>571.75</ele><time>2026-04-11T11:21:54Z</time></trkpt><trkpt lat="44.7666615435219" lon="9.503369238183538"><ele>562.0</ele><time>2026-04-11T11:21:55Z</time></trkpt><trkpt lat="44.76674984723361" lon="9.50352411193479"><ele>562.0</ele><time>2026-04-11T11:21:56Z</time></trkpt><trkpt lat="44.7668347248581" lon="9.503661342312517"><ele>562.0</ele><time>2026-04-11T11:21:57Z</time></trkpt><trkpt lat="44.76690956920786" lon="9.503766264749165"><ele>562.0</ele><time>2026-04-11T11:21:58Z</time></trkpt><trkpt lat="44.76700359134572" lon="9.50383703136242"><ele>562.0</ele><time>2026-04-11T11:21:59Z</time></trkpt><trkpt lat="44.76711842774514" lon="9.503890091331561"><ele>558.5</ele><time>2026-04-11T11:22:00Z</time></trkpt><trkpt lat="44.76725144149928" lon="9.503911447298783"><ele>555.0</ele><time>2026-04-11T11:22:01Z</time></trkpt><trkpt lat="44.767390724401324" lon="9.503934585858348"><ele>551.5</ele><time>2026-04-11T11:22:02Z</time></trkpt><trkpt lat="44.76753811854314" lon="9.503943406276695"><ele>548.0</ele><time>2026-04-11T11:22:03Z</time></trkpt><trkpt lat="44.76769588510288" lon="9.503944366744596"><ele>548.0</ele><time>2026-04-11T11:22:04Z</time></trkpt><trkpt lat="44.767859442712925" lon="9.503932409080319"><ele>548.0</ele><time>2026-04-11T11:22:05Z</time></trkpt><trkpt lat="44.76802613815706" lon="9.503920404383601"><ele>548.0</ele><time>2026-04-11T11:22:06Z</time></trkpt><trkpt lat="44.76815759857261" lon="9.503940857900247"><ele>548.0</ele><time>2026-04-11T11:22:07Z</time></trkpt><trkpt lat="44.768287380190785" lon="9.503985035692219"><ele>548.0</ele><time>2026-04-11T11:22:08Z</time></trkpt><trkpt lat="44.768414679892146" lon="9.504049761978292"><ele>548.0</ele><time>2026-04-11T11:22:09Z</time></trkpt><trkpt lat="44.76852963243946" lon="9.504106674483921"><ele>548.0</ele><time>2026-04-11T11:22:10Z</time></trkpt><trkpt lat="44.7686238912475" lon="9.504196398830551"><ele>547.0</ele><time>2026-04-11T11:22:11Z</time></trkpt><trkpt lat="44.768715836170145" lon="9.504297912937341"><ele>546.0</ele><time>2026-04-11T11:22:12Z</time></trkpt><trkpt lat="44.768804476493955" lon="9.504397983235158"><ele>545.0</ele><time>2026-04-11T11:22:13Z</time></trkpt><trkpt lat="44.76890983859439" lon="9.50446130606524"><ele>544.0</ele><time>2026-04-11T11:22:14Z</time></trkpt><trkpt lat="44.76904124851153" lon="9.504490311005643"><ele>544.0</ele><time>2026-04-11T11:22:15Z</time></trkpt><trkpt lat="44.769184852532675" lon="9.504481245097644"><ele>544.0</ele><time>2026-04-11T11:22:16Z</time></trkpt><trkpt lat="44.76932537145968" lon="9.50443059906827"><ele>544.0</ele><time>2026-04-11T11:22:17Z</time></trkpt><trkpt lat="44.76944894747707" lon="9.504359705573693"><ele>544.0</ele><time>2026-04-11T11:22:18Z</time></trkpt><trkpt lat="44.769567738088355" lon="9.504283880110716"><ele>538.5</ele><time>2026-04-11T11:22:19Z</time></trkpt><trkpt lat="44.76967287279133" lon="9.50418764363541"><ele>533.0</ele><time>2026-04-11T11:22:20Z</time></trkpt><trkpt lat="44.769762628540846" lon="9.50406724308367"><ele>527.5</ele><time>2026-04-11T11:22:21Z</time></trkpt><trkpt lat="44.76983147914236" lon="9.503929482077233"><ele>522.0</ele><time>2026-04-11T11:22:22Z</time></trkpt><trkpt lat="44.76987185559386" lon="9.503769349043445"><ele>523.75</ele><time>2026-04-11T11:22:23Z</time></trkpt><trkpt lat="44.76988158045905" lon="9.503586383811582"><ele>525.5</ele><time>2026-04-11T11:22:24Z</time></trkpt><trkpt lat="44.76988091512665" lon="9.503390365686084"><ele>527.25</ele><time>2026-04-11T11:22:25Z</time></trkpt><trkpt lat="44.76988746225559" lon="9.50318395566064"><ele>529.0</ele><time>2026-04-11T11:22:26Z</time></trkpt><trkpt lat="44.76993785587225" lon="9.502993052063525"><ele>532.0</ele><time>2026-04-11T11:22:27Z</time></trkpt><trkpt lat="44.76997741156043" lon="9.502804386490146"><ele>535.0</ele><time>2026-04-11T11:22:28Z</time></trkpt><trkpt lat="44.77000701203356" lon="9.502633016520434"><ele>538.0</ele><time>2026-04-11T11:22:29Z</time></trkpt><trkpt lat="44.7700343664062" lon="9.502484240983916"><ele>541.0</ele><time>2026-04-11T11:22:30Z</time></trkpt><trkpt lat="44.77006015285413" lon="9.502364286001946"><ele>541.0</ele><time>2026-04-11T11:22:31Z</time></trkpt><trkpt lat="44.7701222392707" lon="9.502293004009358"><ele>541.0</ele><time>2026-04-11T11:22:32Z</time></trkpt><trkpt lat="44.7702049053746" lon="9.502268225825961"><ele>541.0</ele><time>2026-04-11T11:22:33Z</time></trkpt><trkpt lat="44.770308739454364" lon="9.50233800153574"><ele>541.0</ele><time>2026-04-11T11:22:34Z</time></trkpt><trkpt lat="44.77043258819183" lon="9.502383957852432"><ele>541.0</ele><time>2026-04-11T11:22:35Z</time></trkpt><trkpt lat="44.77055569669829" lon="9.502475717188046"><ele>535.5</ele><time>2026-04-11T11:22:36Z</time></trkpt><trkpt lat="44.77067188542543" lon="9.502558549496499"><ele>530.0</ele><time>2026-04-11T11:22:37Z</time></trkpt><trkpt lat="44.77079073065635" lon="9.502608291399186"><ele>524.5</ele><time>2026-04-11T11:22:38Z</time></trkpt><trkpt lat="44.77089620006738" lon="9.502593756833402"><ele>519.0</ele><time>2026-04-11T11:22:39Z</time></trkpt><trkpt lat="44.77100699283401" lon="9.50254452560853"><ele>518.25</ele><time>2026-04-11T11:22:40Z</time></trkpt><trkpt lat="44.771125764036874" lon="9.502487543588112"><ele>517.5</ele><time>2026-04-11T11:22:41Z</time></trkpt><trkpt lat="44.771244720778974" lon="9.502457802611637"><ele>516.75</ele><time>2026-04-11T11:22:42Z</time></trkpt><trkpt lat="44.771359841299144" lon="9.502494320721379"><ele>516.0</ele><time>2026-04-11T11:22:43Z</time></trkpt><trkpt lat="44.771472378533375" lon="9.502569343151468"><ele>516.0</ele><time>2026-04-11T11:22:44Z</time></trkpt><trkpt lat="44.771593599609574" lon="9.502682325337268"><ele>516.0</ele><time>2026-04-11T11:22:45Z</time></trkpt><trkpt lat="44.77170700009721" lon="9.502796705541174"><ele>516.0</ele><time>2026-04-11T11:22:46Z</time></trkpt><trkpt lat="44.77181364354925" lon="9.502894072218114"><ele>516.0</ele><time>2026-04-11T11:22:47Z</time></trkpt><trkpt lat="44.77192854404632" lon="9.502945304170956"><ele>513.25</ele><time>2026-04-11T11:22:48Z</time></trkpt><trkpt lat="44.77204256274407" lon="9.502935127883916"><ele>510.5</ele><time>2026-04-11T11:22:49Z</time></trkpt><trkpt lat="44.77215207121143" lon="9.502883723293309"><ele>507.75</ele><time>2026-04-11T11:22:50Z</time></trkpt><trkpt lat="44.77226154897533" lon="9.502803712781555"><ele>505.0</ele><time>2026-04-11T11:22:51Z</time></trkpt><trkpt lat="44.77237873344324" lon="9.502704982611176"><ele>505.0</ele><time>2026-04-11T11:22:52Z</time></trkpt><trkpt lat="44.7725049921345" lon="9.50262964346168"><ele>505.0</ele><time>2026-04-11T11:22:53Z</time></trkpt><trkpt lat="44.7726322885602" lon="9.502559732106125"><ele>505.0</ele><time>2026-04-11T11:22:53.999Z</time></trkpt><trkpt lat="44.77277581809197" lon="9.502500796032997"><ele>505.0</ele><time>2026-04-11T11:22:54.999Z</time></trkpt><trkpt lat="44.77291430450966" lon="9.502457471771951"><ele>504.0</ele><time>2026-04-11T11:22:55.999Z</time></trkpt><trkpt lat="44.773048735303696" lon="9.502423472087656"><ele>503.0</ele><time>2026-04-11T11:22:56.999Z</time></trkpt><trkpt lat="44.773178968214026" lon="9.502418642235966"><ele>502.0</ele><time>2026-04-11T11:22:57.999Z</time></trkpt><trkpt lat="44.77330286574502" lon="9.502459020290031"><ele>501.0</ele><time>2026-04-11T11:22:58.999Z</time></trkpt><trkpt lat="44.773421212137585" lon="9.50254653573057"><ele>501.0</ele><time>2026-04-11T11:22:59.999Z</time></trkpt><trkpt lat="44.77352001852505" lon="9.50267225414487"><ele>501.0</ele><time>2026-04-11T11:23:00.999Z</time></trkpt><trkpt lat="44.77360835086307" lon="9.502839006572952"><ele>501.0</ele><time>2026-04-11T11:23:01.999Z</time></trkpt><trkpt lat="44.773694010698826" lon="9.503042621692032"><ele>501.0</ele><time>2026-04-11T11:23:02.999Z</time></trkpt><trkpt lat="44.773777845858305" lon="9.503242626772925"><ele>501.0</ele><time>2026-04-11T11:23:03.999Z</time></trkpt><trkpt lat="44.77383507006691" lon="9.503447309114915"><ele>501.0</ele><time>2026-04-11T11:23:04.999Z</time></trkpt><trkpt lat="44.77387756767594" lon="9.503629480186367"><ele>501.0</ele><time>2026-04-11T11:23:05.999Z</time></trkpt><trkpt lat="44.77393110673977" lon="9.503776209904832"><ele>501.0</ele><time>2026-04-11T11:23:06.999Z</time></trkpt><trkpt lat="44.77401396891824" lon="9.50388950672526"><ele>494.5</ele><time>2026-04-11T11:23:07.999Z</time></trkpt><trkpt lat="44.77413178408547" lon="9.50395331326026"><ele>488.0</ele><time>2026-04-11T11:23:08.999Z</time></trkpt><trkpt lat="44.77423541040357" lon="9.50402503966651"><ele>481.5</ele><time>2026-04-11T11:23:09.999Z</time></trkpt><trkpt lat="44.774339793399385" lon="9.503986759326155"><ele>475.0</ele><time>2026-04-11T11:23:10.999Z</time></trkpt><trkpt lat="44.77446482619736" lon="9.503969597708197"><ele>475.0</ele><time>2026-04-11T11:23:11.999Z</time></trkpt><trkpt lat="44.77457409485611" lon="9.504011183175068"><ele>475.0</ele><time>2026-04-11T11:23:12.999Z</time></trkpt><trkpt lat="44.77463799530808" lon="9.504050411998216"><ele>475.0</ele><time>2026-04-11T11:23:13.999Z</time></trkpt><trkpt lat="44.7747351678035" lon="9.504132705484249"><ele>475.0</ele><time>2026-04-11T11:23:14.999Z</time></trkpt><trkpt lat="44.77485736645652" lon="9.50421301605299"><ele>475.0</ele><time>2026-04-11T11:23:15.999Z</time></trkpt><trkpt lat="44.774954439162435" lon="9.504290893676236"><ele>475.0</ele><time>2026-04-11T11:23:16.999Z</time></trkpt><trkpt lat="44.77506772543964" lon="9.504330431043957"><ele>475.0</ele><time>2026-04-11T11:23:17.999Z</time></trkpt><trkpt lat="44.77520205942964" lon="9.504336473481466"><ele>475.0</ele><time>2026-04-11T11:23:18.999Z</time></trkpt><trkpt lat="44.775342746728796" lon="9.50430852658738"><ele>475.0</ele><time>2026-04-11T11:23:19.999Z</time></trkpt><trkpt lat="44.77548200073175" lon="9.504273097677855"><ele>475.25</ele><time>2026-04-11T11:23:20.999Z</time></trkpt><trkpt lat="44.775608822927865" lon="9.50430102982045"><ele>475.5</ele><time>2026-04-11T11:23:21.999Z</time></trkpt><trkpt lat="44.77573993115701" lon="9.504379712476108"><ele>475.75</ele><time>2026-04-11T11:23:22.999Z</time></trkpt><trkpt lat="44.77589191263744" lon="9.504438711899303"><ele>476.0</ele><time>2026-04-11T11:23:23.999Z</time></trkpt><trkpt lat="44.77603990559683" lon="9.504521492250294"><ele>469.5</ele><time>2026-04-11T11:23:24.999Z</time></trkpt><trkpt lat="44.77618263998957" lon="9.504596429585577"><ele>463.0</ele><time>2026-04-11T11:23:25.999Z</time></trkpt><trkpt lat="44.776316606045235" lon="9.504658643415716"><ele>456.5</ele><time>2026-04-11T11:23:26.999Z</time></trkpt><trkpt lat="44.77643378689517" lon="9.504698877686032"><ele>450.0</ele><time>2026-04-11T11:23:27.999Z</time></trkpt><trkpt lat="44.77656455076375" lon="9.50470946761423"><ele>450.0</ele><time>2026-04-11T11:23:28.999Z</time></trkpt><trkpt lat="44.7767001988468" lon="9.504749374746767"><ele>450.0</ele><time>2026-04-11T11:23:29.999Z</time></trkpt><trkpt lat="44.776833475819615" lon="9.504752629363521"><ele>450.0</ele><time>2026-04-11T11:23:30.999Z</time></trkpt><trkpt lat="44.77692221395205" lon="9.504752216232307"><ele>450.0</ele><time>2026-04-11T11:23:31.999Z</time></trkpt><trkpt lat="44.777035032493146" lon="9.504601272007937"><ele>451.8</ele><time>2026-04-11T11:23:33.999Z</time></trkpt><trkpt lat="44.77704859881916" lon="9.504440632095028"><ele>453.6</ele><time>2026-04-11T11:23:34.999Z</time></trkpt><trkpt lat="44.77709652667967" lon="9.504335675549534"><ele>455.4</ele><time>2026-04-11T11:23:35.999Z</time></trkpt><trkpt lat="44.77717503124284" lon="9.504308062422107"><ele>457.2</ele><time>2026-04-11T11:23:36.999Z</time></trkpt><trkpt lat="44.777254207727935" lon="9.504326970533118"><ele>459.0</ele><time>2026-04-11T11:23:37.999Z</time></trkpt><trkpt lat="44.77733585746088" lon="9.504402545455159"><ele>459.0</ele><time>2026-04-11T11:23:38.999Z</time></trkpt><trkpt lat="44.77739062612224" lon="9.504504692164362"><ele>459.0</ele><time>2026-04-11T11:23:40Z</time></trkpt><trkpt lat="44.77744546873958" lon="9.5046265193987"><ele>459.0</ele><time>2026-04-11T11:23:41Z</time></trkpt><trkpt lat="44.77751428443327" lon="9.504691156419122"><ele>459.0</ele><time>2026-04-11T11:23:42Z</time></trkpt><trkpt lat="44.77760444824439" lon="9.504710411110494"><ele>459.0</ele><time>2026-04-11T11:23:43Z</time></trkpt><trkpt lat="44.7777005551342" lon="9.50466722417267"><ele>457.5</ele><time>2026-04-11T11:23:44Z</time></trkpt><trkpt lat="44.77780850416564" lon="9.504576616231441"><ele>456.0</ele><time>2026-04-11T11:23:45Z</time></trkpt><trkpt lat="44.77791867259722" lon="9.504470850348126"><ele>454.5</ele><time>2026-04-11T11:23:46Z</time></trkpt><trkpt lat="44.77804964814886" lon="9.50439169445871"><ele>453.0</ele><time>2026-04-11T11:23:47Z</time></trkpt><trkpt lat="44.77819875085139" lon="9.504400463536019"><ele>453.0</ele><time>2026-04-11T11:23:48Z</time></trkpt><trkpt lat="44.77834253015088" lon="9.504424548249464"><ele>453.0</ele><time>2026-04-11T11:23:49Z</time></trkpt><trkpt lat="44.77849799531146" lon="9.504438573637238"><ele>453.0</ele><time>2026-04-11T11:23:50Z</time></trkpt><trkpt lat="44.77862803190334" lon="9.504450535930635"><ele>453.0</ele><time>2026-04-11T11:23:51Z</time></trkpt><trkpt lat="44.778747898449005" lon="9.504504893928464"><ele>448.0</ele><time>2026-04-11T11:23:52Z</time></trkpt><trkpt lat="44.77883480324384" lon="9.5046478092923"><ele>443.0</ele><time>2026-04-11T11:23:53Z</time></trkpt><trkpt lat="44.77895075555763" lon="9.504774173150874"><ele>438.0</ele><time>2026-04-11T11:23:54Z</time></trkpt><trkpt lat="44.779068969999805" lon="9.504914440103573"><ele>433.0</ele><time>2026-04-11T11:23:55Z</time></trkpt><trkpt lat="44.77920156819659" lon="9.505036974720733"><ele>433.0</ele><time>2026-04-11T11:23:56Z</time></trkpt><trkpt lat="44.77933160249158" lon="9.505148840911602"><ele>433.0</ele><time>2026-04-11T11:23:57Z</time></trkpt><trkpt lat="44.77945294082053" lon="9.50524954136078"><ele>433.0</ele><time>2026-04-11T11:23:58Z</time></trkpt><trkpt lat="44.77957472284168" lon="9.50534315223786"><ele>433.0</ele><time>2026-04-11T11:23:59Z</time></trkpt><trkpt lat="44.77969573712532" lon="9.505442038965736"><ele>429.0</ele><time>2026-04-11T11:24:00Z</time></trkpt><trkpt lat="44.77980789571318" lon="9.505522812348406"><ele>424.99999999999994</ele><time>2026-04-11T11:24:01Z</time></trkpt><trkpt lat="44.779913399750214" lon="9.505562390161623"><ele>421.0</ele><time>2026-04-11T11:24:02Z</time></trkpt><trkpt lat="44.780006754018935" lon="9.505587567273231"><ele>417.0</ele><time>2026-04-11T11:24:03Z</time></trkpt><trkpt lat="44.780099667310964" lon="9.505591033019893"><ele>413.0</ele><time>2026-04-11T11:24:04Z</time></trkpt><trkpt lat="44.7801990830394" lon="9.505560590631541"><ele>412.2</ele><time>2026-04-11T11:24:05Z</time></trkpt><trkpt lat="44.780297067926575" lon="9.505510537204051"><ele>411.4</ele><time>2026-04-11T11:24:06Z</time></trkpt><trkpt lat="44.78038241863352" lon="9.505453683519926"><ele>410.59999999999997</ele><time>2026-04-11T11:24:07Z</time></trkpt><trkpt lat="44.780455236314964" lon="9.505363365105076"><ele>409.79999999999995</ele><time>2026-04-11T11:24:08Z</time></trkpt><trkpt lat="44.780504792683914" lon="9.505251651850578"><ele>409.0</ele><time>2026-04-11T11:24:09Z</time></trkpt><trkpt lat="44.78056091304241" lon="9.50516681640838"><ele>411.4</ele><time>2026-04-11T11:24:10Z</time></trkpt><trkpt lat="44.780631419607175" lon="9.505131962776272"><ele>413.79999999999995</ele><time>2026-04-11T11:24:11Z</time></trkpt><trkpt lat="44.780708072401275" lon="9.505156218240357"><ele>416.20000000000005</ele><time>2026-04-11T11:24:12Z</time></trkpt><trkpt lat="44.78078609046133" lon="9.505242620554071"><ele>418.6</ele><time>2026-04-11T11:24:13Z</time></trkpt><trkpt lat="44.780894439056354" lon="9.50530773116665"><ele>421.0</ele><time>2026-04-11T11:24:14Z</time></trkpt><trkpt lat="44.78101189412058" lon="9.505384205613135"><ele>418.6</ele><time>2026-04-11T11:24:15Z</time></trkpt><trkpt lat="44.781113134512374" lon="9.505447143814393"><ele>416.20000000000005</ele><time>2026-04-11T11:24:16Z</time></trkpt><trkpt lat="44.78120553953107" lon="9.505516110915243"><ele>413.79999999999995</ele><time>2026-04-11T11:24:17Z</time></trkpt><trkpt lat="44.78127883421065" lon="9.50560669348546"><ele>411.4</ele><time>2026-04-11T11:24:18Z</time></trkpt><trkpt lat="44.78132107951502" lon="9.505713058234427"><ele>409.0</ele><time>2026-04-11T11:24:19Z</time></trkpt><trkpt lat="44.78133209008314" lon="9.505834885551982"><ele>409.0</ele><time>2026-04-11T11:24:20Z</time></trkpt><trkpt lat="44.78132230903764" lon="9.505964124026994"><ele>409.0</ele><time>2026-04-11T11:24:21Z</time></trkpt><trkpt lat="44.78128782825641" lon="9.506083731244141"><ele>409.0</ele><time>2026-04-11T11:24:22Z</time></trkpt><trkpt lat="44.781223402511614" lon="9.506174482128804"><ele>409.0</ele><time>2026-04-11T11:24:23Z</time></trkpt><trkpt lat="44.78111784245859" lon="9.506203099880027"><ele>409.0</ele><time>2026-04-11T11:24:24Z</time></trkpt><trkpt lat="44.781030181177414" lon="9.506287652661577"><ele>407.2</ele><time>2026-04-11T11:24:25Z</time></trkpt><trkpt lat="44.780953115002625" lon="9.506384536171687"><ele>405.4</ele><time>2026-04-11T11:24:26Z</time></trkpt><trkpt lat="44.780903178286806" lon="9.506510615089914"><ele>403.6</ele><time>2026-04-11T11:24:27Z</time></trkpt><trkpt lat="44.78086540533913" lon="9.506641623371118"><ele>401.8</ele><time>2026-04-11T11:24:28Z</time></trkpt><trkpt lat="44.78081677513813" lon="9.50673427969194"><ele>400.0</ele><time>2026-04-11T11:24:29Z</time></trkpt><trkpt lat="44.780756757075125" lon="9.506786379549387"><ele>400.0</ele><time>2026-04-11T11:24:30Z</time></trkpt><trkpt lat="44.78067398715007" lon="9.506750625352044"><ele>400.0</ele><time>2026-04-11T11:24:31Z</time></trkpt><trkpt lat="44.78058069313033" lon="9.506740372991576"><ele>400.0</ele><time>2026-04-11T11:24:32Z</time></trkpt><trkpt lat="44.7804587702727" lon="9.506718346413786"><ele>400.0</ele><time>2026-04-11T11:24:33Z</time></trkpt><trkpt lat="44.780329523264534" lon="9.506724613298433"><ele>400.0</ele><time>2026-04-11T11:24:34Z</time></trkpt><trkpt lat="44.7802105166083" lon="9.506717924294659"><ele>400.4</ele><time>2026-04-11T11:24:35Z</time></trkpt><trkpt lat="44.780109506977944" lon="9.50667709348683"><ele>400.8</ele><time>2026-04-11T11:24:36Z</time></trkpt><trkpt lat="44.78001834083689" lon="9.506644127693539"><ele>401.20000000000005</ele><time>2026-04-11T11:24:37Z</time></trkpt><trkpt lat="44.77993241444562" lon="9.506593089764202"><ele>401.6</ele><time>2026-04-11T11:24:38Z</time></trkpt><trkpt lat="44.779848469907165" lon="9.506561046712592"><ele>402.0</ele><time>2026-04-11T11:24:39Z</time></trkpt><trkpt lat="44.779766301058665" lon="9.506554020890649"><ele>402.0</ele><time>2026-04-11T11:24:40Z</time></trkpt><trkpt lat="44.7796915391461" lon="9.506592320850256"><ele>402.0</ele><time>2026-04-11T11:24:41Z</time></trkpt><trkpt lat="44.77967275462713" lon="9.506726517940454"><ele>402.0</ele><time>2026-04-11T11:24:42Z</time></trkpt><trkpt lat="44.779657211029956" lon="9.506816889184261"><ele>402.0</ele><time>2026-04-11T11:24:43Z</time></trkpt><trkpt lat="44.77974748179332" lon="9.506919855723421"><ele>402.0</ele><time>2026-04-11T11:24:44Z</time></trkpt><trkpt lat="44.779815635461006" lon="9.506973968377892"><ele>402.0</ele><time>2026-04-11T11:24:45Z</time></trkpt><trkpt lat="44.77991837141695" lon="9.50701468508799"><ele>402.0</ele><time>2026-04-11T11:24:46Z</time></trkpt><trkpt lat="44.78003714528238" lon="9.507052242792527"><ele>402.0</ele><time>2026-04-11T11:24:47Z</time></trkpt><trkpt lat="44.78016106971017" lon="9.50709901014874"><ele>402.0</ele><time>2026-04-11T11:24:48Z</time></trkpt><trkpt lat="44.780291377446204" lon="9.507172521559863"><ele>402.0</ele><time>2026-04-11T11:24:49Z</time></trkpt><trkpt lat="44.78042006840752" lon="9.507267557254071"><ele>398.0</ele><time>2026-04-11T11:24:50Z</time></trkpt><trkpt lat="44.780543255373324" lon="9.507344514826922"><ele>394.0</ele><time>2026-04-11T11:24:51Z</time></trkpt><trkpt lat="44.78065701177112" lon="9.507407955850637"><ele>390.0</ele><time>2026-04-11T11:24:52Z</time></trkpt><trkpt lat="44.7807678473488" lon="9.507460074492595"><ele>386.0</ele><time>2026-04-11T11:24:53Z</time></trkpt><trkpt lat="44.780871968565435" lon="9.50748790622761"><ele>385.99999999999994</ele><time>2026-04-11T11:24:54Z</time></trkpt><trkpt lat="44.78097892949023" lon="9.507497070596482"><ele>386.0</ele><time>2026-04-11T11:24:55Z</time></trkpt><trkpt lat="44.78108136956572" lon="9.507488452111861"><ele>386.0</ele><time>2026-04-11T11:24:56Z</time></trkpt><trkpt lat="44.781178444080844" lon="9.507485118402151"><ele>386.0</ele><time>2026-04-11T11:24:57Z</time></trkpt><trkpt lat="44.78124575133161" lon="9.507523529242413"><ele>385.99999999999994</ele><time>2026-04-11T11:24:57.999Z</time></trkpt><trkpt lat="44.781270465398244" lon="9.507608424210428"><ele>386.0</ele><time>2026-04-11T11:24:58.999Z</time></trkpt><trkpt lat="44.781242681343265" lon="9.507705648936794"><ele>386.0</ele><time>2026-04-11T11:24:59.999Z</time></trkpt><trkpt lat="44.78117306606062" lon="9.507769883437467"><ele>386.0</ele><time>2026-04-11T11:25:00.999Z</time></trkpt><trkpt lat="44.78107652430872" lon="9.507810279040934"><ele>386.0</ele><time>2026-04-11T11:25:01.999Z</time></trkpt><trkpt lat="44.780961102153455" lon="9.507780841185907"><ele>386.0</ele><time>2026-04-11T11:25:02.999Z</time></trkpt><trkpt lat="44.78082911373431" lon="9.507813217661603"><ele>386.0</ele><time>2026-04-11T11:25:03.999Z</time></trkpt><trkpt lat="44.78068739115688" lon="9.507820250623405"><ele>386.0</ele><time>2026-04-11T11:25:04.999Z</time></trkpt><trkpt lat="44.78056158400942" lon="9.507837462449807"><ele>386.0</ele><time>2026-04-11T11:25:05.999Z</time></trkpt><trkpt lat="44.78044428465013" lon="9.50784719356014"><ele>386.0</ele><time>2026-04-11T11:25:06.999Z</time></trkpt><trkpt lat="44.78034948928071" lon="9.507865149473574"><ele>386.0</ele><time>2026-04-11T11:25:07.999Z</time></trkpt><trkpt lat="44.780282134067214" lon="9.507910976255966"><ele>386.0</ele><time>2026-04-11T11:25:08.999Z</time></trkpt><trkpt lat="44.78024395408426" lon="9.508003702833308"><ele>382.8</ele><time>2026-04-11T11:25:09.999Z</time></trkpt><trkpt lat="44.780243467268555" lon="9.508101282485653"><ele>379.6</ele><time>2026-04-11T11:25:10.999Z</time></trkpt><trkpt lat="44.78029091257145" lon="9.508187918389918"><ele>376.4</ele><time>2026-04-11T11:25:11.999Z</time></trkpt><trkpt lat="44.78036589406386" lon="9.508257984635758"><ele>373.2</ele><time>2026-04-11T11:25:12.999Z</time></trkpt><trkpt lat="44.78047347397636" lon="9.508295217538954"><ele>370.0</ele><time>2026-04-11T11:25:13.999Z</time></trkpt><trkpt lat="44.78060959579294" lon="9.508316426041368"><ele>370.0</ele><time>2026-04-11T11:25:14.999Z</time></trkpt><trkpt lat="44.78073395677633" lon="9.508311016066378"><ele>370.0</ele><time>2026-04-11T11:25:15.999Z</time></trkpt><trkpt lat="44.780852759928806" lon="9.508286862496783"><ele>370.0</ele><time>2026-04-11T11:25:16.999Z</time></trkpt><trkpt lat="44.78097131492417" lon="9.50825260425054"><ele>370.0</ele><time>2026-04-11T11:25:17.999Z</time></trkpt><trkpt lat="44.781075805326005" lon="9.508213934638638"><ele>369.16666666666663</ele><time>2026-04-11T11:25:18.999Z</time></trkpt><trkpt lat="44.781163204444276" lon="9.508191303653314"><ele>368.3333333333333</ele><time>2026-04-11T11:25:19.999Z</time></trkpt><trkpt lat="44.78123787930245" lon="9.508211101313833"><ele>367.5</ele><time>2026-04-11T11:25:20.999Z</time></trkpt><trkpt lat="44.78127806629369" lon="9.508288555666997"><ele>366.6666666666667</ele><time>2026-04-11T11:25:21.999Z</time></trkpt><trkpt lat="44.78126743598286" lon="9.508402850119177"><ele>365.83333333333337</ele><time>2026-04-11T11:25:22.999Z</time></trkpt><trkpt lat="44.78121465863641" lon="9.508511836339027"><ele>365.0</ele><time>2026-04-11T11:25:23.999Z</time></trkpt><trkpt lat="44.781126863183665" lon="9.508598131450738"><ele>365.0</ele><time>2026-04-11T11:25:24.999Z</time></trkpt><trkpt lat="44.7810241598234" lon="9.508686092508277"><ele>365.0</ele><time>2026-04-11T11:25:25.999Z</time></trkpt><trkpt lat="44.78091493536382" lon="9.50877857498957"><ele>365.0</ele><time>2026-04-11T11:25:26.999Z</time></trkpt><trkpt lat="44.78079967434919" lon="9.508864748345157"><ele>365.0</ele><time>2026-04-11T11:25:27.999Z</time></trkpt><trkpt lat="44.78068339436628" lon="9.508937549249769"><ele>363.0</ele><time>2026-04-11T11:25:28.999Z</time></trkpt><trkpt lat="44.78057920746375" lon="9.509008225632455"><ele>361.0</ele><time>2026-04-11T11:25:29.999Z</time></trkpt><trkpt lat="44.78047951666499" lon="9.509080060997672"><ele>359.0</ele><time>2026-04-11T11:25:30.999Z</time></trkpt><trkpt lat="44.7803854780775" lon="9.50915089744296"><ele>357.0</ele><time>2026-04-11T11:25:31.999Z</time></trkpt><trkpt lat="44.78028598128354" lon="9.509203430016195"><ele>355.0</ele><time>2026-04-11T11:25:32.999Z</time></trkpt><trkpt lat="44.78018242181984" lon="9.509207033969254"><ele>354.75</ele><time>2026-04-11T11:25:33.999Z</time></trkpt><trkpt lat="44.780077763190434" lon="9.509200967147596"><ele>354.5</ele><time>2026-04-11T11:25:34.999Z</time></trkpt><trkpt lat="44.779963804528855" lon="9.50915735769204"><ele>354.25</ele><time>2026-04-11T11:25:35.999Z</time></trkpt><trkpt lat="44.77982435552863" lon="9.509140584082918"><ele>354.0</ele><time>2026-04-11T11:25:36.999Z</time></trkpt><trkpt lat="44.77967888266775" lon="9.50910630219761"><ele>354.0</ele><time>2026-04-11T11:25:37.999Z</time></trkpt><trkpt lat="44.77953474852651" lon="9.509054625408496"><ele>354.0</ele><time>2026-04-11T11:25:38.999Z</time></trkpt><trkpt lat="44.77938999175283" lon="9.509019932992016"><ele>354.0</ele><time>2026-04-11T11:25:39.999Z</time></trkpt><trkpt lat="44.779252160584996" lon="9.50898670350228"><ele>354.0</ele><time>2026-04-11T11:25:40.999Z</time></trkpt><trkpt lat="44.779120149898674" lon="9.508954669286053"><ele>352.0</ele><time>2026-04-11T11:25:41.999Z</time></trkpt><trkpt lat="44.77899612105694" lon="9.508923948497229"><ele>350.0</ele><time>2026-04-11T11:25:42.999Z</time></trkpt><trkpt lat="44.77887685278257" lon="9.508891527433509"><ele>348.0</ele><time>2026-04-11T11:25:43.999Z</time></trkpt><trkpt lat="44.778757705397545" lon="9.50888290846238"><ele>346.0</ele><time>2026-04-11T11:25:44.999Z</time></trkpt><trkpt lat="44.778652822088304" lon="9.508854671162593"><ele>346.0</ele><time>2026-04-11T11:25:46Z</time></trkpt><trkpt lat="44.77855147709053" lon="9.508831680254016"><ele>346.0</ele><time>2026-04-11T11:25:47Z</time></trkpt><trkpt lat="44.7784632279336" lon="9.508782141756319"><ele>346.0</ele><time>2026-04-11T11:25:48Z</time></trkpt><trkpt lat="44.778373799741544" lon="9.508778565261531"><ele>346.0</ele><time>2026-04-11T11:25:49Z</time></trkpt><trkpt lat="44.778288836826064" lon="9.508803294588757"><ele>346.0</ele><time>2026-04-11T11:25:50Z</time></trkpt><trkpt lat="44.77822472430033" lon="9.508871763640542"><ele>346.0</ele><time>2026-04-11T11:25:51Z</time></trkpt><trkpt lat="44.77818427010274" lon="9.508941367995995"><ele>346.0</ele><time>2026-04-11T11:25:52Z</time></trkpt><trkpt lat="44.77818871114197" lon="9.509055121908087"><ele>346.0</ele><time>2026-04-11T11:25:54Z</time></trkpt><trkpt lat="44.77832142848476" lon="9.50917947466026"><ele>346.0</ele><time>2026-04-11T11:25:57Z</time></trkpt><trkpt lat="44.77842638102956" lon="9.509200682761433"><ele>346.0</ele><time>2026-04-11T11:25:58Z</time></trkpt><trkpt lat="44.778544424633296" lon="9.509214322884084"><ele>346.0</ele><time>2026-04-11T11:25:59Z</time></trkpt><trkpt lat="44.77868273761778" lon="9.509225721024261"><ele>346.0</ele><time>2026-04-11T11:26:00Z</time></trkpt><trkpt lat="44.778830918624166" lon="9.509241379045465"><ele>346.0</ele><time>2026-04-11T11:26:01Z</time></trkpt><trkpt lat="44.778977240484465" lon="9.50928607125384"><ele>346.0</ele><time>2026-04-11T11:26:02Z</time></trkpt><trkpt lat="44.779105774701414" lon="9.509359452040341"><ele>346.0</ele><time>2026-04-11T11:26:03Z</time></trkpt><trkpt lat="44.77923623575065" lon="9.509457807575888"><ele>346.0</ele><time>2026-04-11T11:26:04Z</time></trkpt><trkpt lat="44.77936335928955" lon="9.509588174790052"><ele>346.0</ele><time>2026-04-11T11:26:05Z</time></trkpt><trkpt lat="44.7794909672571" lon="9.509732994506573"><ele>344.66666666666663</ele><time>2026-04-11T11:26:06Z</time></trkpt><trkpt lat="44.7796170510382" lon="9.509882710132977"><ele>343.3333333333333</ele><time>2026-04-11T11:26:07Z</time></trkpt><trkpt lat="44.779744387401955" lon="9.510042401491184"><ele>342.0</ele><time>2026-04-11T11:26:08Z</time></trkpt><trkpt lat="44.779870141924434" lon="9.510193845874406"><ele>342.0</ele><time>2026-04-11T11:26:09Z</time></trkpt><trkpt lat="44.779977076519884" lon="9.510336128283138"><ele>342.0</ele><time>2026-04-11T11:26:10Z</time></trkpt><trkpt lat="44.78007450360356" lon="9.510436806943616"><ele>342.0</ele><time>2026-04-11T11:26:11Z</time></trkpt><trkpt lat="44.78017589058632" lon="9.510515612673618"><ele>342.0</ele><time>2026-04-11T11:26:12Z</time></trkpt><trkpt lat="44.78029861136444" lon="9.51056168028205"><ele>340.0</ele><time>2026-04-11T11:26:13Z</time></trkpt><trkpt lat="44.78043863465345" lon="9.5105680555779"><ele>338.0</ele><time>2026-04-11T11:26:14Z</time></trkpt><trkpt lat="44.78058352299914" lon="9.510563531954965"><ele>336.0</ele><time>2026-04-11T11:26:15Z</time></trkpt><trkpt lat="44.78073098856974" lon="9.510558968476216"><ele>334.0</ele><time>2026-04-11T11:26:16Z</time></trkpt><trkpt lat="44.780864179620075" lon="9.510554113167725"><ele>334.0</ele><time>2026-04-11T11:26:17Z</time></trkpt><trkpt lat="44.78098918945084" lon="9.510541851179902"><ele>334.0</ele><time>2026-04-11T11:26:18Z</time></trkpt><trkpt lat="44.78111014024426" lon="9.510527949553202"><ele>334.0</ele><time>2026-04-11T11:26:19Z</time></trkpt><trkpt lat="44.7812218206151" lon="9.510508761082146"><ele>334.0</ele><time>2026-04-11T11:26:20Z</time></trkpt><trkpt lat="44.781325847072715" lon="9.510496159403143"><ele>333.0</ele><time>2026-04-11T11:26:21Z</time></trkpt><trkpt lat="44.78142808373927" lon="9.510485365365263"><ele>332.0</ele><time>2026-04-11T11:26:22Z</time></trkpt><trkpt lat="44.78152578978712" lon="9.510500819129586"><ele>331.0</ele><time>2026-04-11T11:26:23Z</time></trkpt><trkpt lat="44.78162980664098" lon="9.51054087061849"><ele>330.0</ele><time>2026-04-11T11:26:24Z</time></trkpt><trkpt lat="44.781746949732906" lon="9.51059686481684"><ele>329.0</ele><time>2026-04-11T11:26:25Z</time></trkpt><trkpt lat="44.78186687159613" lon="9.510653084505076"><ele>329.0</ele><time>2026-04-11T11:26:26Z</time></trkpt><trkpt lat="44.78197754993964" lon="9.510681409021478"><ele>329.0</ele><time>2026-04-11T11:26:27Z</time></trkpt><trkpt lat="44.78208447223568" lon="9.510670157848756"><ele>329.0</ele><time>2026-04-11T11:26:28Z</time></trkpt><trkpt lat="44.78218782761985" lon="9.510619694025152"><ele>329.0</ele><time>2026-04-11T11:26:29Z</time></trkpt><trkpt lat="44.78228365803553" lon="9.510527694419944"><ele>329.0</ele><time>2026-04-11T11:26:30Z</time></trkpt><trkpt lat="44.78237325497456" lon="9.510388123292433"><ele>329.0</ele><time>2026-04-11T11:26:31Z</time></trkpt><trkpt lat="44.78244953722547" lon="9.510224889411726"><ele>329.0</ele><time>2026-04-11T11:26:32Z</time></trkpt><trkpt lat="44.78252811829577" lon="9.51005404922839"><ele>329.0</ele><time>2026-04-11T11:26:33Z</time></trkpt><trkpt lat="44.78261574312703" lon="9.50989717684791"><ele>329.0</ele><time>2026-04-11T11:26:34Z</time></trkpt><trkpt lat="44.7827116367967" lon="9.50977173799793"><ele>328.4</ele><time>2026-04-11T11:26:35Z</time></trkpt><trkpt lat="44.78281399926532" lon="9.509686042077819"><ele>327.79999999999995</ele><time>2026-04-11T11:26:36Z</time></trkpt><trkpt lat="44.78292367525193" lon="9.509689216537872"><ele>327.20000000000005</ele><time>2026-04-11T11:26:37Z</time></trkpt><trkpt lat="44.783017509560075" lon="9.509722460367678"><ele>326.6</ele><time>2026-04-11T11:26:38Z</time></trkpt><trkpt lat="44.78311470383115" lon="9.509779826949055"><ele>326.0</ele><time>2026-04-11T11:26:39Z</time></trkpt><trkpt lat="44.78320374619342" lon="9.509902409427957"><ele>326.0</ele><time>2026-04-11T11:26:40Z</time></trkpt><trkpt lat="44.783292213536384" lon="9.510041477768045"><ele>326.0</ele><time>2026-04-11T11:26:41Z</time></trkpt><trkpt lat="44.78338086672722" lon="9.510209126745588"><ele>326.0</ele><time>2026-04-11T11:26:42Z</time></trkpt><trkpt lat="44.78346833077936" lon="9.510395870883334"><ele>326.0</ele><time>2026-04-11T11:26:43Z</time></trkpt><trkpt lat="44.78354696109575" lon="9.510592397206272"><ele>324.75</ele><time>2026-04-11T11:26:44Z</time></trkpt><trkpt lat="44.783624518535035" lon="9.51078074074754"><ele>323.5</ele><time>2026-04-11T11:26:45Z</time></trkpt><trkpt lat="44.78369194978536" lon="9.510943772836963"><ele>322.25</ele><time>2026-04-11T11:26:46Z</time></trkpt><trkpt lat="44.783759685962345" lon="9.511075970279666"><ele>321.0</ele><time>2026-04-11T11:26:47Z</time></trkpt><trkpt lat="44.78384195823099" lon="9.511162366638882"><ele>321.0</ele><time>2026-04-11T11:26:48Z</time></trkpt><trkpt lat="44.78394581400354" lon="9.51122616002033"><ele>321.0</ele><time>2026-04-11T11:26:49Z</time></trkpt><trkpt lat="44.784083940272346" lon="9.51126858042911"><ele>321.0</ele><time>2026-04-11T11:26:50Z</time></trkpt><trkpt lat="44.784243419060054" lon="9.511286012503389"><ele>321.0</ele><time>2026-04-11T11:26:51Z</time></trkpt><trkpt lat="44.78440893465143" lon="9.511301386926647"><ele>321.0</ele><time>2026-04-11T11:26:52Z</time></trkpt><trkpt lat="44.78455799507925" lon="9.511299632981938"><ele>321.0</ele><time>2026-04-11T11:26:53Z</time></trkpt><trkpt lat="44.784698314677065" lon="9.511263891544266"><ele>321.0</ele><time>2026-04-11T11:26:54Z</time></trkpt><trkpt lat="44.78484955707106" lon="9.511184563128118"><ele>321.0</ele><time>2026-04-11T11:26:55Z</time></trkpt><trkpt lat="44.78501321885661" lon="9.51109667024678"><ele>321.0</ele><time>2026-04-11T11:26:56Z</time></trkpt><trkpt lat="44.785185310283545" lon="9.511008531938012"><ele>321.0</ele><time>2026-04-11T11:26:57Z</time></trkpt><trkpt lat="44.785355785606924" lon="9.510940537874179"><ele>318.0</ele><time>2026-04-11T11:26:58Z</time></trkpt><trkpt lat="44.785526321212004" lon="9.51088552456541"><ele>315.0</ele><time>2026-04-11T11:26:59Z</time></trkpt><trkpt lat="44.78570291021256" lon="9.510851362018515"><ele>312.0</ele><time>2026-04-11T11:27:00Z</time></trkpt><trkpt lat="44.78588393610789" lon="9.51082253184556"><ele>312.3333333333333</ele><time>2026-04-11T11:27:01Z</time></trkpt><trkpt lat="44.78606588421731" lon="9.510802346403494"><ele>312.66666666666663</ele><time>2026-04-11T11:27:02Z</time></trkpt><trkpt lat="44.786249707106876" lon="9.510793579900856"><ele>313.0</ele><time>2026-04-11T11:27:03Z</time></trkpt><trkpt lat="44.786424423254424" lon="9.510795914330988"><ele>313.0</ele><time>2026-04-11T11:27:04Z</time></trkpt><trkpt lat="44.78659175823757" lon="9.510831143852053"><ele>313.0</ele><time>2026-04-11T11:27:05Z</time></trkpt><trkpt lat="44.78674886594114" lon="9.510873369823088"><ele>313.0</ele><time>2026-04-11T11:27:06Z</time></trkpt><trkpt lat="44.78689409302382" lon="9.510934911010056"><ele>312.0</ele><time>2026-04-11T11:27:07Z</time></trkpt><trkpt lat="44.78702342176337" lon="9.511031331718302"><ele>311.0</ele><time>2026-04-11T11:27:07.999Z</time></trkpt><trkpt lat="44.78713110316864" lon="9.511149764877995"><ele>310.0</ele><time>2026-04-11T11:27:08.999Z</time></trkpt><trkpt lat="44.7872235330867" lon="9.511291679202376"><ele>309.0</ele><time>2026-04-11T11:27:09.999Z</time></trkpt><trkpt lat="44.78729465454826" lon="9.5114649838305"><ele>309.0</ele><time>2026-04-11T11:27:10.999Z</time></trkpt><trkpt lat="44.787360228857494" lon="9.511670622150012"><ele>309.0</ele><time>2026-04-11T11:27:11.999Z</time></trkpt><trkpt lat="44.78742767849324" lon="9.511881557634174"><ele>309.0</ele><time>2026-04-11T11:27:12.999Z</time></trkpt><trkpt lat="44.78751309595247" lon="9.512074063381993"><ele>307.25</ele><time>2026-04-11T11:27:13.999Z</time></trkpt><trkpt lat="44.78761110809781" lon="9.512213602101289"><ele>305.5</ele><time>2026-04-11T11:27:14.999Z</time></trkpt><trkpt lat="44.787726358219096" lon="9.512291423754942"><ele>303.75</ele><time>2026-04-11T11:27:15.999Z</time></trkpt><trkpt lat="44.787848763568306" lon="9.512322549113247"><ele>302.0</ele><time>2026-04-11T11:27:16.999Z</time></trkpt><trkpt lat="44.7879775921134" lon="9.512301515020816"><ele>302.0</ele><time>2026-04-11T11:27:17.999Z</time></trkpt><trkpt lat="44.78811669378655" lon="9.512246738130536"><ele>302.0</ele><time>2026-04-11T11:27:18.999Z</time></trkpt><trkpt lat="44.788268073904646" lon="9.51215169127176"><ele>302.0</ele><time>2026-04-11T11:27:19.999Z</time></trkpt><trkpt lat="44.78842988939637" lon="9.512048602288068"><ele>307.6666666666667</ele><time>2026-04-11T11:27:20.999Z</time></trkpt><trkpt lat="44.78860123373639" lon="9.51195467184448"><ele>313.3333333333333</ele><time>2026-04-11T11:27:21.999Z</time></trkpt><trkpt lat="44.7887631894698" lon="9.511907342293691"><ele>319.0</ele><time>2026-04-11T11:27:22.999Z</time></trkpt><trkpt lat="44.78892378854461" lon="9.511906476795664"><ele>319.0</ele><time>2026-04-11T11:27:23.999Z</time></trkpt><trkpt lat="44.78907732899841" lon="9.511936132301825"><ele>319.0</ele><time>2026-04-11T11:27:24.999Z</time></trkpt><trkpt lat="44.78923872247129" lon="9.512009089099587"><ele>319.0</ele><time>2026-04-11T11:27:25.999Z</time></trkpt><trkpt lat="44.789399176279" lon="9.512104849218437"><ele>313.0</ele><time>2026-04-11T11:27:26.999Z</time></trkpt><trkpt lat="44.78956424791909" lon="9.512218424010841"><ele>307.0</ele><time>2026-04-11T11:27:27.999Z</time></trkpt><trkpt lat="44.78971013818351" lon="9.512354698771452"><ele>301.0</ele><time>2026-04-11T11:27:28.999Z</time></trkpt><trkpt lat="44.78984004775477" lon="9.512513936472747"><ele>301.0</ele><time>2026-04-11T11:27:29.999Z</time></trkpt><trkpt lat="44.789975135493336" lon="9.512653147111589"><ele>301.0</ele><time>2026-04-11T11:27:30.999Z</time></trkpt><trkpt lat="44.790126794670684" lon="9.512754309718343"><ele>301.0</ele><time>2026-04-11T11:27:31.999Z</time></trkpt><trkpt lat="44.79029584796952" lon="9.512829562381288"><ele>301.66666666666663</ele><time>2026-04-11T11:27:32.999Z</time></trkpt><trkpt lat="44.79046676259693" lon="9.512890696600142"><ele>302.3333333333333</ele><time>2026-04-11T11:27:33.999Z</time></trkpt><trkpt lat="44.79064117712088" lon="9.512956293745868"><ele>303.0</ele><time>2026-04-11T11:27:34.999Z</time></trkpt><trkpt lat="44.790814534012696" lon="9.513028900241915"><ele>301.3333333333333</ele><time>2026-04-11T11:27:35.999Z</time></trkpt><trkpt lat="44.790990610664686" lon="9.5131073437398"><ele>299.66666666666663</ele><time>2026-04-11T11:27:36.999Z</time></trkpt><trkpt lat="44.79114371813687" lon="9.513196641007225"><ele>298.0</ele><time>2026-04-11T11:27:37.999Z</time></trkpt><trkpt lat="44.791282993612505" lon="9.513319201353495"><ele>298.0</ele><time>2026-04-11T11:27:38.999Z</time></trkpt><trkpt lat="44.79142062298141" lon="9.51347248001805"><ele>298.0</ele><time>2026-04-11T11:27:39.999Z</time></trkpt><trkpt lat="44.79155448439108" lon="9.513639519848189"><ele>298.0</ele><time>2026-04-11T11:27:40.999Z</time></trkpt><trkpt lat="44.79167473156181" lon="9.513777806756874"><ele>296.25</ele><time>2026-04-11T11:27:41.999Z</time></trkpt><trkpt lat="44.79179319806214" lon="9.513903716533843"><ele>294.5</ele><time>2026-04-11T11:27:42.999Z</time></trkpt><trkpt lat="44.791911889217836" lon="9.514015598655819"><ele>292.75</ele><time>2026-04-11T11:27:43.999Z</time></trkpt><trkpt lat="44.79202600545148" lon="9.514107998354248"><ele>291.0</ele><time>2026-04-11T11:27:44.999Z</time></trkpt><trkpt lat="44.792140418085054" lon="9.514182605145363"><ele>291.0</ele><time>2026-04-11T11:27:45.999Z</time></trkpt><trkpt lat="44.792257882012585" lon="9.514229019934906"><ele>291.0</ele><time>2026-04-11T11:27:46.999Z</time></trkpt><trkpt lat="44.792394870615546" lon="9.514248572457264"><ele>291.0</ele><time>2026-04-11T11:27:47.999Z</time></trkpt><trkpt lat="44.792550911695024" lon="9.514254954387303"><ele>291.0</ele><time>2026-04-11T11:27:48.999Z</time></trkpt><trkpt lat="44.792716928546675" lon="9.514274328812645"><ele>292.3333333333333</ele><time>2026-04-11T11:27:49.999Z</time></trkpt><trkpt lat="44.792886040505046" lon="9.514315294317434"><ele>293.66666666666663</ele><time>2026-04-11T11:27:50.999Z</time></trkpt><trkpt lat="44.793056606951325" lon="9.51438149787234"><ele>295.0</ele><time>2026-04-11T11:27:52Z</time></trkpt><trkpt lat="44.79322701259961" lon="9.514458322033938"><ele>295.0</ele><time>2026-04-11T11:27:53Z</time></trkpt><trkpt lat="44.79340032498" lon="9.51453853287817"><ele>295.0</ele><time>2026-04-11T11:27:54Z</time></trkpt><trkpt lat="44.79356968496686" lon="9.514608319135036"><ele>295.0</ele><time>2026-04-11T11:27:55Z</time></trkpt><trkpt lat="44.79372654868181" lon="9.514680508747288"><ele>291.66666666666663</ele><time>2026-04-11T11:27:56Z</time></trkpt><trkpt lat="44.79387719461605" lon="9.514765695654772"><ele>288.3333333333333</ele><time>2026-04-11T11:27:57Z</time></trkpt><trkpt lat="44.79403035411667" lon="9.514874003507476"><ele>285.0</ele><time>2026-04-11T11:27:58Z</time></trkpt><trkpt lat="44.79417912435908" lon="9.515004438476716"><ele>285.0</ele><time>2026-04-11T11:27:59Z</time></trkpt><trkpt lat="44.79431589032186" lon="9.515140057217362"><ele>285.0</ele><time>2026-04-11T11:28:00Z</time></trkpt><trkpt lat="44.79445954269614" lon="9.515281972418816"><ele>285.0</ele><time>2026-04-11T11:28:01Z</time></trkpt><trkpt lat="44.7946062710467" lon="9.515420346139353"><ele>283.25</ele><time>2026-04-11T11:28:02Z</time></trkpt><trkpt lat="44.7947430693994" lon="9.515542790778495"><ele>281.5</ele><time>2026-04-11T11:28:03Z</time></trkpt><trkpt lat="44.79486373298695" lon="9.515649174932843"><ele>279.75</ele><time>2026-04-11T11:28:04Z</time></trkpt><trkpt lat="44.794976710620865" lon="9.515715965626747"><ele>278.0</ele><time>2026-04-11T11:28:05Z</time></trkpt><trkpt lat="44.79509151090744" lon="9.515729013817001"><ele>277.5</ele><time>2026-04-11T11:28:06Z</time></trkpt><trkpt lat="44.79521231496885" lon="9.51568444520574"><ele>277.0</ele><time>2026-04-11T11:28:07Z</time></trkpt><trkpt lat="44.795328308880904" lon="9.515598303931064"><ele>276.5</ele><time>2026-04-11T11:28:08Z</time></trkpt><trkpt lat="44.79543119519059" lon="9.515459594951212"><ele>276.0</ele><time>2026-04-11T11:28:09Z</time></trkpt><trkpt lat="44.79552507831621" lon="9.515270842069693"><ele>276.0</ele><time>2026-04-11T11:28:10Z</time></trkpt><trkpt lat="44.79562947964739" lon="9.51508126881052"><ele>276.0</ele><time>2026-04-11T11:28:11Z</time></trkpt><trkpt lat="44.79573802685982" lon="9.514926108002381"><ele>276.0</ele><time>2026-04-11T11:28:12Z</time></trkpt><trkpt lat="44.79586040569171" lon="9.514827170380213"><ele>276.0</ele><time>2026-04-11T11:28:13Z</time></trkpt><trkpt lat="44.79599444377959" lon="9.514745168590107"><ele>276.0</ele><time>2026-04-11T11:28:14Z</time></trkpt><trkpt lat="44.796143854919045" lon="9.514679736534495"><ele>276.0</ele><time>2026-04-11T11:28:15Z</time></trkpt><trkpt lat="44.79630129157633" lon="9.514607293726323"><ele>277.6666666666667</ele><time>2026-04-11T11:28:16Z</time></trkpt><trkpt lat="44.79647230999877" lon="9.514521139967448"><ele>279.33333333333337</ele><time>2026-04-11T11:28:17Z</time></trkpt><trkpt lat="44.79664198759536" lon="9.514438284812394"><ele>281.0</ele><time>2026-04-11T11:28:18Z</time></trkpt><trkpt lat="44.7968214790503" lon="9.514353864812577"><ele>277.6666666666667</ele><time>2026-04-11T11:28:19Z</time></trkpt><trkpt lat="44.797006609391154" lon="9.514259483288184"><ele>274.3333333333333</ele><time>2026-04-11T11:28:20Z</time></trkpt><trkpt lat="44.79719205498634" lon="9.51415958746082"><ele>271.0</ele><time>2026-04-11T11:28:21Z</time></trkpt><trkpt lat="44.79738208742137" lon="9.51406079873457"><ele>271.0</ele><time>2026-04-11T11:28:22Z</time></trkpt><trkpt lat="44.797579591366606" lon="9.513962309619002"><ele>271.0</ele><time>2026-04-11T11:28:23Z</time></trkpt><trkpt lat="44.797781134895786" lon="9.513864595620479"><ele>271.0</ele><time>2026-04-11T11:28:24Z</time></trkpt><trkpt lat="44.797984854931116" lon="9.51377109463983"><ele>269.3333333333333</ele><time>2026-04-11T11:28:25Z</time></trkpt><trkpt lat="44.798188294349465" lon="9.513676272183513"><ele>267.6666666666667</ele><time>2026-04-11T11:28:26Z</time></trkpt><trkpt lat="44.79839227651492" lon="9.513578820027336"><ele>266.0</ele><time>2026-04-11T11:28:27Z</time></trkpt><trkpt lat="44.798591545149336" lon="9.513477687761556"><ele>266.0</ele><time>2026-04-11T11:28:28Z</time></trkpt><trkpt lat="44.79878447260608" lon="9.513367591881234"><ele>266.0</ele><time>2026-04-11T11:28:29Z</time></trkpt><trkpt lat="44.79895701701147" lon="9.513259122928599"><ele>266.0</ele><time>2026-04-11T11:28:30Z</time></trkpt><trkpt lat="44.79911737445372" lon="9.513156563938958"><ele>266.0</ele><time>2026-04-11T11:28:31Z</time></trkpt><trkpt lat="44.79926403750143" lon="9.513062007135677"><ele>266.0</ele><time>2026-04-11T11:28:32Z</time></trkpt><trkpt lat="44.79940309473414" lon="9.512976323301944"><ele>266.0</ele><time>2026-04-11T11:28:33Z</time></trkpt><trkpt lat="44.79952649235093" lon="9.512899126069623"><ele>266.0</ele><time>2026-04-11T11:28:34Z</time></trkpt><trkpt lat="44.79964042875964" lon="9.512828346649103"><ele>266.5</ele><time>2026-04-11T11:28:35Z</time></trkpt><trkpt lat="44.79973890411842" lon="9.512761528424322"><ele>267.0</ele><time>2026-04-11T11:28:36Z</time></trkpt><trkpt lat="44.79983365713655" lon="9.512687484919983"><ele>267.5</ele><time>2026-04-11T11:28:37Z</time></trkpt><trkpt lat="44.79994285470842" lon="9.512595213968762"><ele>268.0</ele><time>2026-04-11T11:28:38Z</time></trkpt><trkpt lat="44.800061289989955" lon="9.512500952066366"><ele>265.0</ele><time>2026-04-11T11:28:39Z</time></trkpt><trkpt lat="44.800178316744386" lon="9.512421623687672"><ele>262.0</ele><time>2026-04-11T11:28:40Z</time></trkpt><trkpt lat="44.800275502555316" lon="9.51234277270264"><ele>259.0</ele><time>2026-04-11T11:28:41Z</time></trkpt><trkpt lat="44.80034819839716" lon="9.512237018714535"><ele>256.0</ele><time>2026-04-11T11:28:42Z</time></trkpt><trkpt lat="44.8004087819765" lon="9.51208447464037"><ele>257.3333333333333</ele><time>2026-04-11T11:28:43Z</time></trkpt><trkpt lat="44.80046446215481" lon="9.511902629594763"><ele>258.6666666666667</ele><time>2026-04-11T11:28:44Z</time></trkpt><trkpt lat="44.80052467346562" lon="9.51169591878188"><ele>260.0</ele><time>2026-04-11T11:28:45Z</time></trkpt><trkpt lat="44.80059967345223" lon="9.511476819479345"><ele>260.0</ele><time>2026-04-11T11:28:46Z</time></trkpt><trkpt lat="44.800683224128356" lon="9.511244497997966"><ele>260.0</ele><time>2026-04-11T11:28:47Z</time></trkpt><trkpt lat="44.80078400627455" lon="9.511000493377656"><ele>260.0</ele><time>2026-04-11T11:28:48Z</time></trkpt><trkpt lat="44.80089898016559" lon="9.510754566949398"><ele>262.0</ele><time>2026-04-11T11:28:49Z</time></trkpt><trkpt lat="44.80102162891237" lon="9.510545892235335"><ele>264.0</ele><time>2026-04-11T11:28:50Z</time></trkpt><trkpt lat="44.801161935774886" lon="9.510380579802895"><ele>266.0</ele><time>2026-04-11T11:28:51Z</time></trkpt><trkpt lat="44.801328337228064" lon="9.510245503232726"><ele>266.0</ele><time>2026-04-11T11:28:52Z</time></trkpt><trkpt lat="44.80149359244611" lon="9.510072415954237"><ele>266.0</ele><time>2026-04-11T11:28:53Z</time></trkpt><trkpt lat="44.80164146308161" lon="9.509866618307095"><ele>266.0</ele><time>2026-04-11T11:28:54Z</time></trkpt><trkpt lat="44.801775916652396" lon="9.509633021313984"><ele>266.33333333333337</ele><time>2026-04-11T11:28:55Z</time></trkpt><trkpt lat="44.801925384173344" lon="9.50940845415765"><ele>266.6666666666667</ele><time>2026-04-11T11:28:56Z</time></trkpt><trkpt lat="44.80208064696682" lon="9.509180168633067"><ele>267.0</ele><time>2026-04-11T11:28:57Z</time></trkpt><trkpt lat="44.80224347569079" lon="9.508976355192079"><ele>267.0</ele><time>2026-04-11T11:28:58Z</time></trkpt><trkpt lat="44.80239154159758" lon="9.508835120718972"><ele>267.0</ele><time>2026-04-11T11:28:59Z</time></trkpt><trkpt lat="44.80255319667409" lon="9.508796182038234"><ele>267.0</ele><time>2026-04-11T11:29:00Z</time></trkpt><trkpt lat="44.802735076134056" lon="9.508779922747197"><ele>268.3333333333333</ele><time>2026-04-11T11:29:01Z</time></trkpt><trkpt lat="44.802931487568" lon="9.50875379948566"><ele>269.66666666666663</ele><time>2026-04-11T11:29:01.999Z</time></trkpt><trkpt lat="44.803106735671726" lon="9.508684590594578"><ele>271.0</ele><time>2026-04-11T11:29:02.999Z</time></trkpt><trkpt lat="44.80324596680099" lon="9.508592323303747"><ele>271.0</ele><time>2026-04-11T11:29:03.999Z</time></trkpt><trkpt lat="44.80335022425551" lon="9.508478668938787"><ele>271.0</ele><time>2026-04-11T11:29:04.999Z</time></trkpt><trkpt lat="44.80351033041484" lon="9.508409759735708"><ele>271.0</ele><time>2026-04-11T11:29:05.999Z</time></trkpt><trkpt lat="44.8036890695584" lon="9.508417646104425"><ele>268.0</ele><time>2026-04-11T11:29:06.999Z</time></trkpt><trkpt lat="44.80387789187728" lon="9.508366846731223"><ele>265.0</ele><time>2026-04-11T11:29:07.999Z</time></trkpt><trkpt lat="44.80406196505908" lon="9.508342436585675"><ele>262.0</ele><time>2026-04-11T11:29:08.999Z</time></trkpt><trkpt lat="44.804230929840024" lon="9.508313442383223"><ele>263.66666666666663</ele><time>2026-04-11T11:29:09.999Z</time></trkpt><trkpt lat="44.80438876765183" lon="9.508315058794462"><ele>265.3333333333333</ele><time>2026-04-11T11:29:10.999Z</time></trkpt><trkpt lat="44.80451851332614" lon="9.508427367364373"><ele>267.0</ele><time>2026-04-11T11:29:11.999Z</time></trkpt><trkpt lat="44.80466811706586" lon="9.508543117981457"><ele>267.0</ele><time>2026-04-11T11:29:12.999Z</time></trkpt><trkpt lat="44.80479754696036" lon="9.508667930916838"><ele>267.0</ele><time>2026-04-11T11:29:13.999Z</time></trkpt><trkpt lat="44.80491184441983" lon="9.508749208967137"><ele>267.0</ele><time>2026-04-11T11:29:14.999Z</time></trkpt><trkpt lat="44.80502396571778" lon="9.508777534954202"><ele>267.0</ele><time>2026-04-11T11:29:15.999Z</time></trkpt><trkpt lat="44.80514607224727" lon="9.508768458904544"><ele>267.8</ele><time>2026-04-11T11:29:16.999Z</time></trkpt><trkpt lat="44.80526304834427" lon="9.508726441228912"><ele>268.6</ele><time>2026-04-11T11:29:17.999Z</time></trkpt><trkpt lat="44.80537984062348" lon="9.50869645073739"><ele>269.40000000000003</ele><time>2026-04-11T11:29:18.999Z</time></trkpt><trkpt lat="44.80548259340429" lon="9.508692053409773"><ele>270.2</ele><time>2026-04-11T11:29:19.999Z</time></trkpt><trkpt lat="44.805567337676095" lon="9.5086989936813"><ele>271.0</ele><time>2026-04-11T11:29:20.999Z</time></trkpt><trkpt lat="44.80564105340917" lon="9.50870889358029"><ele>271.0</ele><time>2026-04-11T11:29:21.999Z</time></trkpt><trkpt lat="44.80575398400873" lon="9.508710871438215"><ele>271.0</ele><time>2026-04-11T11:29:23.999Z</time></trkpt><trkpt lat="44.805865337175774" lon="9.508696638011841"><ele>271.0</ele><time>2026-04-11T11:29:25.999Z</time></trkpt><trkpt lat="44.80596799662346" lon="9.508659784945486"><ele>271.0</ele><time>2026-04-11T11:29:27.999Z</time></trkpt><trkpt lat="44.80609222815014" lon="9.50860675739085"><ele>270.2</ele><time>2026-04-11T11:29:29.999Z</time></trkpt><trkpt lat="44.806160057028656" lon="9.508575329936559"><ele>269.40000000000003</ele><time>2026-04-11T11:29:30.999Z</time></trkpt><trkpt lat="44.80627732829211" lon="9.508525538421358"><ele>268.6</ele><time>2026-04-11T11:29:32.999Z</time></trkpt><trkpt lat="44.80638522539861" lon="9.508494314793301"><ele>267.8</ele><time>2026-04-11T11:29:34.999Z</time></trkpt><trkpt lat="44.806489704912096" lon="9.508475103568053"><ele>267.0</ele><time>2026-04-11T11:29:36.999Z</time></trkpt><trkpt lat="44.80657436762084" lon="9.508461730615611"><ele>267.0</ele><time>2026-04-11T11:29:38.999Z</time></trkpt><trkpt lat="44.80666392227992" lon="9.508441032984873"><ele>267.0</ele><time>2026-04-11T11:29:40.999Z</time></trkpt><trkpt lat="44.80674472507557" lon="9.508428923980789"><ele>267.0</ele><time>2026-04-11T11:29:42.999Z</time></trkpt><trkpt lat="44.80682183283668" lon="9.508432564434997"><ele>267.0</ele><time>2026-04-11T11:29:44.999Z</time></trkpt><trkpt lat="44.806889208253374" lon="9.508433809140385"><ele>267.0</ele><time>2026-04-11T11:29:46.999Z</time></trkpt><trkpt lat="44.8069555841645" lon="9.508448667373251"><ele>267.0</ele><time>2026-04-11T11:29:48.999Z</time></trkpt><trkpt lat="44.807017164029844" lon="9.50848518704023"><ele>267.3333333333333</ele><time>2026-04-11T11:29:50.999Z</time></trkpt><trkpt lat="44.80707842985332" lon="9.508539860829064"><ele>267.6666666666667</ele><time>2026-04-11T11:30:11Z</time></trkpt><trkpt lat="44.80704056626611" lon="9.508654739228676"><ele>268.0</ele><time>2026-04-11T11:31:09.999Z</time></trkpt><trkpt lat="44.80698341855578" lon="9.508728499449289"><ele>268.33333333333337</ele><time>2026-04-11T11:33:55.999Z</time></trkpt><trkpt lat="44.80707265758518" lon="9.508680806735304"><ele>268.6666666666667</ele><time>2026-04-11T12:13:05Z</time></trkpt><trkpt lat="44.807141741191835" lon="9.508609157385555"><ele>269.0</ele><time>2026-04-11T12:13:07Z</time></trkpt><trkpt lat="44.80722253411267" lon="9.508653717041792"><ele>269.0</ele><time>2026-04-11T12:13:10Z</time></trkpt><trkpt lat="44.807334104931876" lon="9.508710282118216"><ele>269.0</ele><time>2026-04-11T12:13:12Z</time></trkpt><trkpt lat="44.80742160812106" lon="9.50874005351452"><ele>269.0</ele><time>2026-04-11T12:13:13Z</time></trkpt><trkpt lat="44.80752437367505" lon="9.508757503788505"><ele>269.0</ele><time>2026-04-11T12:13:14Z</time></trkpt><trkpt lat="44.807620975824626" lon="9.508749407366304"><ele>269.0</ele><time>2026-04-11T12:13:14.999Z</time></trkpt><trkpt lat="44.80770377829408" lon="9.508726621605566"><ele>267.8</ele><time>2026-04-11T12:13:15.999Z</time></trkpt><trkpt lat="44.80778242537186" lon="9.508685725156868"><ele>266.59999999999997</ele><time>2026-04-11T12:13:16.999Z</time></trkpt><trkpt lat="44.807863843485016" lon="9.508617892737824"><ele>265.4</ele><time>2026-04-11T12:13:17.999Z</time></trkpt><trkpt lat="44.80794242540162" lon="9.508534185882597"><ele>264.2</ele><time>2026-04-11T12:13:18.999Z</time></trkpt><trkpt lat="44.80802900763056" lon="9.508458879710592"><ele>263.0</ele><time>2026-04-11T12:13:19.999Z</time></trkpt><trkpt lat="44.80812594999211" lon="9.508410800164944"><ele>263.0</ele><time>2026-04-11T12:13:20.999Z</time></trkpt><trkpt lat="44.80823750870003" lon="9.508392627753535"><ele>263.0</ele><time>2026-04-11T12:13:21.999Z</time></trkpt><trkpt lat="44.80836050331279" lon="9.508404123878536"><ele>263.0</ele><time>2026-04-11T12:13:22.999Z</time></trkpt><trkpt lat="44.808489811547794" lon="9.508414526375617"><ele>263.0</ele><time>2026-04-11T12:13:23.999Z</time></trkpt><trkpt lat="44.80861974419723" lon="9.508385168544606"><ele>261.0</ele><time>2026-04-11T12:13:24.999Z</time></trkpt><trkpt lat="44.80873560453658" lon="9.508334406957879"><ele>259.0</ele><time>2026-04-11T12:13:25.999Z</time></trkpt><trkpt lat="44.808844955853324" lon="9.508329121594153"><ele>257.0</ele><time>2026-04-11T12:13:26.999Z</time></trkpt><trkpt lat="44.808966523434634" lon="9.508379478223581"><ele>255.0</ele><time>2026-04-11T12:13:27.999Z</time></trkpt><trkpt lat="44.80907529437877" lon="9.508460233914077"><ele>255.0</ele><time>2026-04-11T12:13:28.999Z</time></trkpt><trkpt lat="44.80916779620824" lon="9.50848982547442"><ele>255.0</ele><time>2026-04-11T12:13:29.999Z</time></trkpt><trkpt lat="44.809275076624154" lon="9.508469154306592"><ele>255.0</ele><time>2026-04-11T12:13:30.999Z</time></trkpt><trkpt lat="44.809406369146004" lon="9.508443380439713"><ele>255.0</ele><time>2026-04-11T12:13:31.999Z</time></trkpt><trkpt lat="44.809545926331644" lon="9.508424843262205"><ele>252.33333333333331</ele><time>2026-04-11T12:13:32.999Z</time></trkpt><trkpt lat="44.80969644274632" lon="9.508401983791675"><ele>249.66666666666666</ele><time>2026-04-11T12:13:33.999Z</time></trkpt><trkpt lat="44.809850105242525" lon="9.508369543296714"><ele>247.0</ele><time>2026-04-11T12:13:34.999Z</time></trkpt><trkpt lat="44.81000593994202" lon="9.50832721489085"><ele>242.33333333333331</ele><time>2026-04-11T12:13:35.999Z</time></trkpt><trkpt lat="44.8101663387163" lon="9.50826355493424"><ele>237.66666666666669</ele><time>2026-04-11T12:13:36.999Z</time></trkpt><trkpt lat="44.81032030214197" lon="9.508185405430025"><ele>233.0</ele><time>2026-04-11T12:13:37.999Z</time></trkpt><trkpt lat="44.81046193791877" lon="9.5081127257474"><ele>233.0</ele><time>2026-04-11T12:13:38.999Z</time></trkpt><trkpt lat="44.81060337513899" lon="9.508021378420748"><ele>233.0</ele><time>2026-04-11T12:13:39.999Z</time></trkpt><trkpt lat="44.81073139378936" lon="9.50793115429756"><ele>233.0</ele><time>2026-04-11T12:13:40.999Z</time></trkpt><trkpt lat="44.81084102734264" lon="9.50784751773843"><ele>233.0</ele><time>2026-04-11T12:13:41.999Z</time></trkpt><trkpt lat="44.81094546998583" lon="9.507748064999008"><ele>233.60000000000002</ele><time>2026-04-11T12:13:42.999Z</time></trkpt><trkpt lat="44.8110356456851" lon="9.507642182059794"><ele>234.20000000000002</ele><time>2026-04-11T12:13:43.999Z</time></trkpt><trkpt lat="44.811124450577815" lon="9.507548778893067"><ele>234.8</ele><time>2026-04-11T12:13:44.999Z</time></trkpt><trkpt lat="44.811211670572185" lon="9.507463450585602"><ele>235.4</ele><time>2026-04-11T12:13:45.999Z</time></trkpt><trkpt lat="44.811293181368214" lon="9.507381759499543"><ele>236.0</ele><time>2026-04-11T12:13:46.999Z</time></trkpt><trkpt lat="44.811367214436146" lon="9.507306905730472"><ele>236.00000000000003</ele><time>2026-04-11T12:13:47.999Z</time></trkpt><trkpt lat="44.81145368724264" lon="9.507225700619493"><ele>236.0</ele><time>2026-04-11T12:13:48.999Z</time></trkpt><trkpt lat="44.81152931998243" lon="9.507156950622871"><ele>236.0</ele><time>2026-04-11T12:13:49.999Z</time></trkpt><trkpt lat="44.811604321314725" lon="9.507093254614073"><ele>236.0</ele><time>2026-04-11T12:13:50.999Z</time></trkpt><trkpt lat="44.81168024202558" lon="9.507043729131757"><ele>236.00000000000003</ele><time>2026-04-11T12:13:51.999Z</time></trkpt><trkpt lat="44.811759280316984" lon="9.507005027474156"><ele>236.0</ele><time>2026-04-11T12:13:52.999Z</time></trkpt><trkpt lat="44.81184039991482" lon="9.506979753714786"><ele>234.83333333333334</ele><time>2026-04-11T12:13:53.999Z</time></trkpt><trkpt lat="44.811923954481095" lon="9.506976969975304"><ele>233.66666666666669</ele><time>2026-04-11T12:13:54.999Z</time></trkpt><trkpt lat="44.81199789915871" lon="9.506996216420616"><ele>232.5</ele><time>2026-04-11T12:13:55.999Z</time></trkpt><trkpt lat="44.81207870416142" lon="9.507015802251106"><ele>231.33333333333331</ele><time>2026-04-11T12:13:56.999Z</time></trkpt><trkpt lat="44.81215755529869" lon="9.507047834052052"><ele>230.16666666666666</ele><time>2026-04-11T12:13:57.999Z</time></trkpt><trkpt lat="44.81223569928678" lon="9.507089799526792"><ele>229.0</ele><time>2026-04-11T12:13:58.999Z</time></trkpt><trkpt lat="44.812310669257975" lon="9.50713621713266"><ele>228.99999999999997</ele><time>2026-04-11T12:13:59.999Z</time></trkpt><trkpt lat="44.81239258874439" lon="9.507168768299064"><ele>229.0</ele><time>2026-04-11T12:14:01Z</time></trkpt><trkpt lat="44.812468295572565" lon="9.50717485006629"><ele>229.0</ele><time>2026-04-11T12:14:02Z</time></trkpt><trkpt lat="44.81255485157162" lon="9.507136569332397"><ele>229.0</ele><time>2026-04-11T12:14:03Z</time></trkpt><trkpt lat="44.81263375413789" lon="9.507074031943395"><ele>228.99999999999997</ele><time>2026-04-11T12:14:04Z</time></trkpt><trkpt lat="44.81270001417425" lon="9.50700435757881"><ele>229.0</ele><time>2026-04-11T12:14:05Z</time></trkpt><trkpt lat="44.812770273498586" lon="9.506926193423443"><ele>230.25</ele><time>2026-04-11T12:14:06Z</time></trkpt><trkpt lat="44.8128679454832" lon="9.506849123409381"><ele>231.5</ele><time>2026-04-11T12:14:07Z</time></trkpt><trkpt lat="44.81299620969207" lon="9.506773976560774"><ele>232.75</ele><time>2026-04-11T12:14:08Z</time></trkpt><trkpt lat="44.81314057159511" lon="9.506697728106742"><ele>234.0</ele><time>2026-04-11T12:14:09Z</time></trkpt><trkpt lat="44.8132855177708" lon="9.506621245527082"><ele>234.0</ele><time>2026-04-11T12:14:10Z</time></trkpt><trkpt lat="44.81341203957708" lon="9.50653592851533"><ele>234.0</ele><time>2026-04-11T12:14:11Z</time></trkpt><trkpt lat="44.81352518262361" lon="9.50644211139554"><ele>234.0</ele><time>2026-04-11T12:14:12Z</time></trkpt><trkpt lat="44.81363084056812" lon="9.506326126747696"><ele>234.0</ele><time>2026-04-11T12:14:13Z</time></trkpt><trkpt lat="44.8137346664205" lon="9.506187988570279"><ele>232.75</ele><time>2026-04-11T12:14:14Z</time></trkpt><trkpt lat="44.81384215625455" lon="9.506079359005119"><ele>231.5</ele><time>2026-04-11T12:14:15Z</time></trkpt><trkpt lat="44.81397109351112" lon="9.506021313854566"><ele>230.25</ele><time>2026-04-11T12:14:16Z</time></trkpt><trkpt lat="44.814109607255" lon="9.506023128464554"><ele>229.0</ele><time>2026-04-11T12:14:17Z</time></trkpt><trkpt lat="44.81424229385692" lon="9.5060121750831"><ele>226.5</ele><time>2026-04-11T12:14:18Z</time></trkpt><trkpt lat="44.8143576782407" lon="9.505970687397776"><ele>224.0</ele><time>2026-04-11T12:14:19Z</time></trkpt><trkpt lat="44.81445544364042" lon="9.50588328297708"><ele>221.5</ele><time>2026-04-11T12:14:19.999Z</time></trkpt><trkpt lat="44.81453456472258" lon="9.505752849472408"><ele>219.0</ele><time>2026-04-11T12:14:20.999Z</time></trkpt><trkpt lat="44.81460429634077" lon="9.505585652052758"><ele>221.33333333333331</ele><time>2026-04-11T12:14:21.999Z</time></trkpt><trkpt lat="44.814668951531374" lon="9.505397125917415"><ele>223.66666666666666</ele><time>2026-04-11T12:14:22.999Z</time></trkpt><trkpt lat="44.814732729841644" lon="9.505196561786276"><ele>226.0</ele><time>2026-04-11T12:14:23.999Z</time></trkpt><trkpt lat="44.81480284316467" lon="9.504981447556533"><ele>226.0</ele><time>2026-04-11T12:14:24.999Z</time></trkpt><trkpt lat="44.814872667882554" lon="9.5047626618809"><ele>226.0</ele><time>2026-04-11T12:14:25.999Z</time></trkpt><trkpt lat="44.81494709092272" lon="9.50456110421043"><ele>226.0</ele><time>2026-04-11T12:14:26.999Z</time></trkpt><trkpt lat="44.81502325652231" lon="9.50438503289604"><ele>224.5</ele><time>2026-04-11T12:14:27.999Z</time></trkpt><trkpt lat="44.81511402904662" lon="9.504235173227258"><ele>223.0</ele><time>2026-04-11T12:14:28.999Z</time></trkpt><trkpt lat="44.815228155581075" lon="9.504142114948868"><ele>221.5</ele><time>2026-04-11T12:14:29.998Z</time></trkpt><trkpt lat="44.81533928256572" lon="9.504056067600686"><ele>220.0</ele><time>2026-04-11T12:14:30.998Z</time></trkpt><trkpt lat="44.815482075379684" lon="9.504035104497913"><ele>220.0</ele><time>2026-04-11T12:14:31.998Z</time></trkpt><trkpt lat="44.81564153766098" lon="9.504047725044966"><ele>220.0</ele><time>2026-04-11T12:14:32.998Z</time></trkpt><trkpt lat="44.81580786310336" lon="9.504092472493612"><ele>220.0</ele><time>2026-04-11T12:14:33.998Z</time></trkpt><trkpt lat="44.815982211835156" lon="9.504156792896314"><ele>218.66666666666666</ele><time>2026-04-11T12:14:34.998Z</time></trkpt><trkpt lat="44.816154294721954" lon="9.504206040480534"><ele>217.33333333333331</ele><time>2026-04-11T12:14:35.998Z</time></trkpt><trkpt lat="44.816310131631504" lon="9.5042488087309"><ele>216.0</ele><time>2026-04-11T12:14:36.998Z</time></trkpt><trkpt lat="44.81645245427081" lon="9.504273535154667"><ele>216.0</ele><time>2026-04-11T12:14:37.998Z</time></trkpt><trkpt lat="44.81658765584263" lon="9.50425838837836"><ele>216.0</ele><time>2026-04-11T12:14:38.998Z</time></trkpt><trkpt lat="44.81673459827228" lon="9.504214803708411"><ele>216.0</ele><time>2026-04-11T12:14:39.998Z</time></trkpt><trkpt lat="44.816867509521614" lon="9.504152158144821"><ele>216.0</ele><time>2026-04-11T12:14:40.998Z</time></trkpt><trkpt lat="44.816981053897074" lon="9.504071284107976"><ele>215.75</ele><time>2026-04-11T12:14:41.998Z</time></trkpt><trkpt lat="44.81707765417236" lon="9.503950463649481"><ele>215.5</ele><time>2026-04-11T12:14:42.998Z</time></trkpt><trkpt lat="44.8171690293768" lon="9.503794678915698"><ele>215.25</ele><time>2026-04-11T12:14:43.998Z</time></trkpt><trkpt lat="44.817274786346445" lon="9.503635255187248"><ele>215.0</ele><time>2026-04-11T12:14:44.998Z</time></trkpt><trkpt lat="44.817398631360525" lon="9.503495818021877"><ele>215.0</ele><time>2026-04-11T12:14:45.998Z</time></trkpt><trkpt lat="44.81753181267734" lon="9.503386594655163"><ele>215.0</ele><time>2026-04-11T12:14:46.998Z</time></trkpt><trkpt lat="44.81765411784501" lon="9.503297837617998"><ele>215.0</ele><time>2026-04-11T12:14:47.998Z</time></trkpt><trkpt lat="44.817770392827164" lon="9.503204124823554"><ele>215.0</ele><time>2026-04-11T12:14:48.998Z</time></trkpt><trkpt lat="44.817869881314344" lon="9.503088507316651"><ele>214.5</ele><time>2026-04-11T12:14:49.998Z</time></trkpt><trkpt lat="44.817962483644706" lon="9.502967751122458"><ele>214.0</ele><time>2026-04-11T12:14:50.997Z</time></trkpt><trkpt lat="44.81807483408304" lon="9.50285261005392"><ele>213.5</ele><time>2026-04-11T12:14:51.997Z</time></trkpt><trkpt lat="44.81820501209224" lon="9.502753820792794"><ele>213.0</ele><time>2026-04-11T12:14:52.997Z</time></trkpt><trkpt lat="44.818339959540836" lon="9.502677176607962"><ele>211.33333333333331</ele><time>2026-04-11T12:14:53.997Z</time></trkpt><trkpt lat="44.818486616428665" lon="9.502610611116692"><ele>209.66666666666666</ele><time>2026-04-11T12:14:54.997Z</time></trkpt><trkpt lat="44.81864624402649" lon="9.502554897735932"><ele>208.0</ele><time>2026-04-11T12:14:55.997Z</time></trkpt><trkpt lat="44.81878844721566" lon="9.502493701774508"><ele>208.0</ele><time>2026-04-11T12:14:56.997Z</time></trkpt><trkpt lat="44.81891107452466" lon="9.502422889485898"><ele>208.0</ele><time>2026-04-11T12:14:57.997Z</time></trkpt><trkpt lat="44.81902377955422" lon="9.502355143222681"><ele>208.0</ele><time>2026-04-11T12:14:58.997Z</time></trkpt><trkpt lat="44.81912135167204" lon="9.502294772733483"><ele>208.0</ele><time>2026-04-11T12:14:59.997Z</time></trkpt><trkpt lat="44.81920949954401" lon="9.502241623154223"><ele>208.0</ele><time>2026-04-11T12:15:00.997Z</time></trkpt><trkpt lat="44.81928344093483" lon="9.50219637120713"><ele>208.0</ele><time>2026-04-11T12:15:01.997Z</time></trkpt><trkpt lat="44.819360107119394" lon="9.502162877541952"><ele>208.0</ele><time>2026-04-11T12:15:02.997Z</time></trkpt><trkpt lat="44.819451135646204" lon="9.502127554134763"><ele>208.0</ele><time>2026-04-11T12:15:04.997Z</time></trkpt><trkpt lat="44.819580761668654" lon="9.502245543410568"><ele>208.0</ele><time>2026-04-11T12:15:06.997Z</time></trkpt><trkpt lat="44.81961486052046" lon="9.502388791892093"><ele>205.0</ele><time>2026-04-11T12:15:08.997Z</time></trkpt><trkpt lat="44.819644243828044" lon="9.502473867099539"><ele>205.0</ele><time>2026-04-11T12:15:10.997Z</time></trkpt></trkseg><trkseg><trkpt lat="44.81940781586903" lon="9.502677530090082"><ele>204.99999999999997</ele><time>2026-04-11T12:46:03Z</time></trkpt><trkpt lat="44.81936690712769" lon="9.50260621752446"><ele>205.0</ele><time>2026-04-11T12:47:37.999Z</time></trkpt><trkpt lat="44.81941419262418" lon="9.502518540280334"><ele>205.0</ele><time>2026-04-11T12:47:39.999Z</time></trkpt><trkpt lat="44.81947569794242" lon="9.502431234067894"><ele>205.0</ele><time>2026-04-11T12:47:42.999Z</time></trkpt><trkpt lat="44.81952601344145" lon="9.502337923656974"><ele>204.99999999999997</ele><time>2026-04-11T12:47:45.999Z</time></trkpt><trkpt lat="44.81961390020426" lon="9.502339524930056"><ele>205.0</ele><time>2026-04-11T12:47:56.999Z</time></trkpt><trkpt lat="44.81968247024864" lon="9.502526328017181"><ele>205.0</ele><time>2026-04-11T12:47:58.999Z</time></trkpt><trkpt lat="44.819710243832546" lon="9.502668994022747"><ele>205.0</ele><time>2026-04-11T12:47:59.999Z</time></trkpt><trkpt lat="44.81978087855999" lon="9.50280109454718"><ele>205.0</ele><time>2026-04-11T12:48:00.999Z</time></trkpt><trkpt lat="44.81984247463664" lon="9.502954719170296"><ele>205.0</ele><time>2026-04-11T12:48:02Z</time></trkpt><trkpt lat="44.819903170731514" lon="9.503115213648638"><ele>204.8</ele><time>2026-04-11T12:48:03Z</time></trkpt><trkpt lat="44.81995179995414" lon="9.503277437391692"><ele>204.6</ele><time>2026-04-11T12:48:04Z</time></trkpt><trkpt lat="44.81999304962688" lon="9.503392890229465"><ele>204.39999999999998</ele><time>2026-04-11T12:48:05Z</time></trkpt><trkpt lat="44.82003141589819" lon="9.503497290767408"><ele>204.2</ele><time>2026-04-11T12:48:07Z</time></trkpt><trkpt lat="44.820157875405435" lon="9.50340901949123"><ele>204.0</ele><time>2026-04-11T12:48:08Z</time></trkpt><trkpt lat="44.82024225082768" lon="9.50333346184958"><ele>200.66666666666669</ele><time>2026-04-11T12:48:09Z</time></trkpt><trkpt lat="44.82036848034031" lon="9.503249962284398"><ele>197.33333333333334</ele><time>2026-04-11T12:48:10Z</time></trkpt><trkpt lat="44.82052718514928" lon="9.5031172205177"><ele>194.0</ele><time>2026-04-11T12:48:11Z</time></trkpt><trkpt lat="44.82064676336266" lon="9.503017260092514"><ele>194.0</ele><time>2026-04-11T12:48:12Z</time></trkpt><trkpt lat="44.82077732414474" lon="9.502932155728907"><ele>194.0</ele><time>2026-04-11T12:48:13Z</time></trkpt><trkpt lat="44.82089237960497" lon="9.502877968047398"><ele>194.0</ele><time>2026-04-11T12:48:14Z</time></trkpt><trkpt lat="44.8210093757592" lon="9.502825226204692"><ele>194.0</ele><time>2026-04-11T12:48:15Z</time></trkpt><trkpt lat="44.82110872625812" lon="9.50275821698683"><ele>194.0</ele><time>2026-04-11T12:48:16Z</time></trkpt><trkpt lat="44.82119722846685" lon="9.502708660768295"><ele>194.0</ele><time>2026-04-11T12:48:17Z</time></trkpt><trkpt lat="44.821304477036506" lon="9.502647205818349"><ele>194.0</ele><time>2026-04-11T12:48:18Z</time></trkpt><trkpt lat="44.82141802662126" lon="9.502599934598338"><ele>194.0</ele><time>2026-04-11T12:48:19Z</time></trkpt><trkpt lat="44.82150140757923" lon="9.50252518617212"><ele>194.0</ele><time>2026-04-11T12:48:20Z</time></trkpt><trkpt lat="44.8215795380751" lon="9.502464780677816"><ele>194.0</ele><time>2026-04-11T12:48:21Z</time></trkpt><trkpt lat="44.82165207156441" lon="9.502411162707643"><ele>194.0</ele><time>2026-04-11T12:48:22Z</time></trkpt><trkpt lat="44.82173843216192" lon="9.502380538620242"><ele>194.0</ele><time>2026-04-11T12:48:23Z</time></trkpt><trkpt lat="44.82180218635896" lon="9.502279836270253"><ele>194.0</ele><time>2026-04-11T12:48:24Z</time></trkpt><trkpt lat="44.82187212840473" lon="9.502248610225912"><ele>194.0</ele><time>2026-04-11T12:48:25Z</time></trkpt><trkpt lat="44.82190183309253" lon="9.50203881939961"><ele>193.5</ele><time>2026-04-11T12:48:29Z</time></trkpt><trkpt lat="44.8218779939181" lon="9.501903710873753"><ele>193.0</ele><time>2026-04-11T12:48:30Z</time></trkpt><trkpt lat="44.821775593869134" lon="9.501788626524299"><ele>192.5</ele><time>2026-04-11T12:48:31Z</time></trkpt><trkpt lat="44.8216990180123" lon="9.501643534904249"><ele>192.0</ele><time>2026-04-11T12:48:32Z</time></trkpt><trkpt lat="44.82159259981793" lon="9.501480409245413"><ele>192.0</ele><time>2026-04-11T12:48:33Z</time></trkpt><trkpt lat="44.821470075997716" lon="9.501306956087767"><ele>192.0</ele><time>2026-04-11T12:48:34Z</time></trkpt><trkpt lat="44.821358875477344" lon="9.501117316969768"><ele>192.0</ele><time>2026-04-11T12:48:35Z</time></trkpt><trkpt lat="44.82126565076019" lon="9.500913512730037"><ele>191.0</ele><time>2026-04-11T12:48:36Z</time></trkpt><trkpt lat="44.82117176240561" lon="9.50071463143597"><ele>190.0</ele><time>2026-04-11T12:48:37Z</time></trkpt><trkpt lat="44.821089152152794" lon="9.500517222282074"><ele>189.0</ele><time>2026-04-11T12:48:38Z</time></trkpt><trkpt lat="44.82102220156563" lon="9.500329853933229"><ele>190.33333333333331</ele><time>2026-04-11T12:48:39Z</time></trkpt><trkpt lat="44.82096705796676" lon="9.500139106622917"><ele>191.66666666666666</ele><time>2026-04-11T12:48:40Z</time></trkpt><trkpt lat="44.82090663075525" lon="9.499941161644593"><ele>193.0</ele><time>2026-04-11T12:48:41Z</time></trkpt><trkpt lat="44.82085000053733" lon="9.499744292257322"><ele>193.0</ele><time>2026-04-11T12:48:42Z</time></trkpt><trkpt lat="44.8207983782683" lon="9.499530639715783"><ele>193.0</ele><time>2026-04-11T12:48:43Z</time></trkpt><trkpt lat="44.820749452644954" lon="9.499312539050207"><ele>193.0</ele><time>2026-04-11T12:48:44Z</time></trkpt><trkpt lat="44.82069598029835" lon="9.499098887786689"><ele>193.0</ele><time>2026-04-11T12:48:45Z</time></trkpt><trkpt lat="44.8206353651447" lon="9.498880657908723"><ele>193.0</ele><time>2026-04-11T12:48:46Z</time></trkpt><trkpt lat="44.820572180083346" lon="9.49865527212394"><ele>193.0</ele><time>2026-04-11T12:48:47Z</time></trkpt><trkpt lat="44.820513751539266" lon="9.498432845162336"><ele>192.66666666666666</ele><time>2026-04-11T12:48:48Z</time></trkpt><trkpt lat="44.82045044242631" lon="9.49821529753176"><ele>192.33333333333331</ele><time>2026-04-11T12:48:49Z</time></trkpt><trkpt lat="44.820384853462684" lon="9.498001153553549"><ele>192.0</ele><time>2026-04-11T12:48:50Z</time></trkpt><trkpt lat="44.82031784828014" lon="9.497794911399977"><ele>191.66666666666666</ele><time>2026-04-11T12:48:51Z</time></trkpt><trkpt lat="44.82024970659673" lon="9.49758456432688"><ele>191.33333333333331</ele><time>2026-04-11T12:48:52Z</time></trkpt><trkpt lat="44.82018094113718" lon="9.497385008406686"><ele>191.0</ele><time>2026-04-11T12:48:53Z</time></trkpt><trkpt lat="44.82011606489783" lon="9.497186078833955"><ele>193.33333333333331</ele><time>2026-04-11T12:48:54Z</time></trkpt><trkpt lat="44.82005359562342" lon="9.496989799240355"><ele>195.66666666666666</ele><time>2026-04-11T12:48:55Z</time></trkpt><trkpt lat="44.81998975172944" lon="9.496791596264034"><ele>198.0</ele><time>2026-04-11T12:48:56Z</time></trkpt><trkpt lat="44.81992838867592" lon="9.49659227537471"><ele>198.0</ele><time>2026-04-11T12:48:57Z</time></trkpt><trkpt lat="44.819860806515464" lon="9.496384981415282"><ele>198.0</ele><time>2026-04-11T12:48:58Z</time></trkpt><trkpt lat="44.81979107880588" lon="9.496168954211981"><ele>198.0</ele><time>2026-04-11T12:48:59Z</time></trkpt><trkpt lat="44.81971807393194" lon="9.495958373466715"><ele>196.33333333333331</ele><time>2026-04-11T12:49:00Z</time></trkpt><trkpt lat="44.819648870895136" lon="9.4957372803779"><ele>194.66666666666666</ele><time>2026-04-11T12:49:01Z</time></trkpt><trkpt lat="44.81958522525636" lon="9.495515419201995"><ele>193.0</ele><time>2026-04-11T12:49:02Z</time></trkpt><trkpt lat="44.819523642119115" lon="9.495287386853198"><ele>192.0</ele><time>2026-04-11T12:49:03Z</time></trkpt><trkpt lat="44.819461274843675" lon="9.495056654598732"><ele>191.0</ele><time>2026-04-11T12:49:04Z</time></trkpt><trkpt lat="44.819402244129" lon="9.494826818532776"><ele>190.0</ele><time>2026-04-11T12:49:05Z</time></trkpt><trkpt lat="44.819333679062105" lon="9.494590072781412"><ele>192.66666666666669</ele><time>2026-04-11T12:49:06Z</time></trkpt><trkpt lat="44.819264903220905" lon="9.494358095734873"><ele>195.33333333333334</ele><time>2026-04-11T12:49:07Z</time></trkpt><trkpt lat="44.81919923100689" lon="9.49412086111865"><ele>198.0</ele><time>2026-04-11T12:49:08Z</time></trkpt><trkpt lat="44.81914034827463" lon="9.493878787794255"><ele>196.66666666666669</ele><time>2026-04-11T12:49:09Z</time></trkpt><trkpt lat="44.81908990210058" lon="9.493633327478483"><ele>195.33333333333334</ele><time>2026-04-11T12:49:10Z</time></trkpt><trkpt lat="44.81904500563748" lon="9.493379046532217"><ele>194.0</ele><time>2026-04-11T12:49:11Z</time></trkpt><trkpt lat="44.81901174015416" lon="9.493126012248874"><ele>194.0</ele><time>2026-04-11T12:49:12Z</time></trkpt><trkpt lat="44.818989094478646" lon="9.492872168772584"><ele>194.0</ele><time>2026-04-11T12:49:13Z</time></trkpt><trkpt lat="44.81896704183155" lon="9.492617990279014"><ele>194.0</ele><time>2026-04-11T12:49:14Z</time></trkpt><trkpt lat="44.81894787731281" lon="9.492365841074538"><ele>194.0</ele><time>2026-04-11T12:49:15Z</time></trkpt><trkpt lat="44.81893962029054" lon="9.492107879936567"><ele>194.0</ele><time>2026-04-11T12:49:16Z</time></trkpt><trkpt lat="44.81892587972769" lon="9.491844160461339"><ele>194.0</ele><time>2026-04-11T12:49:17Z</time></trkpt><trkpt lat="44.81892427612124" lon="9.491594416847189"><ele>194.0</ele><time>2026-04-11T12:49:18Z</time></trkpt><trkpt lat="44.81891920242467" lon="9.491337817173576"><ele>194.0</ele><time>2026-04-11T12:49:19Z</time></trkpt><trkpt lat="44.81891187272993" lon="9.491079736674433"><ele>194.0</ele><time>2026-04-11T12:49:20Z</time></trkpt><trkpt lat="44.81890288070247" lon="9.490823107992126"><ele>194.33333333333334</ele><time>2026-04-11T12:49:21Z</time></trkpt><trkpt lat="44.818894886695105" lon="9.490568534840454"><ele>194.66666666666669</ele><time>2026-04-11T12:49:22Z</time></trkpt><trkpt lat="44.8188878438057" lon="9.490311791690155"><ele>195.0</ele><time>2026-04-11T12:49:23Z</time></trkpt><trkpt lat="44.81887932947056" lon="9.490054406896622"><ele>195.0</ele><time>2026-04-11T12:49:24Z</time></trkpt><trkpt lat="44.818876178119645" lon="9.489805595383995"><ele>195.0</ele><time>2026-04-11T12:49:25Z</time></trkpt><trkpt lat="44.8188686970889" lon="9.48954818237169"><ele>195.0</ele><time>2026-04-11T12:49:26Z</time></trkpt><trkpt lat="44.818860299443266" lon="9.489294082984193"><ele>195.0</ele><time>2026-04-11T12:49:27Z</time></trkpt><trkpt lat="44.818857975833645" lon="9.489035738804658"><ele>195.0</ele><time>2026-04-11T12:49:28Z</time></trkpt><trkpt lat="44.81885277454156" lon="9.488778359283245"><ele>195.0</ele><time>2026-04-11T12:49:29Z</time></trkpt><trkpt lat="44.818849720129876" lon="9.48851819981368"><ele>194.66666666666669</ele><time>2026-04-11T12:49:30Z</time></trkpt><trkpt lat="44.81884279864016" lon="9.488255867367094"><ele>194.33333333333334</ele><time>2026-04-11T12:49:31Z</time></trkpt><trkpt lat="44.81883596819527" lon="9.487989637014648"><ele>194.0</ele><time>2026-04-11T12:49:32Z</time></trkpt><trkpt lat="44.81882963224078" lon="9.487723535779871"><ele>194.66666666666669</ele><time>2026-04-11T12:49:32.999Z</time></trkpt><trkpt lat="44.818821597310716" lon="9.487456126908425"><ele>195.33333333333331</ele><time>2026-04-11T12:49:33.999Z</time></trkpt><trkpt lat="44.81881281054737" lon="9.487186612014128"><ele>196.0</ele><time>2026-04-11T12:49:34.999Z</time></trkpt><trkpt lat="44.81879877268654" lon="9.48692815552754"><ele>196.66666666666666</ele><time>2026-04-11T12:49:35.999Z</time></trkpt><trkpt lat="44.818806793747925" lon="9.486663832085794"><ele>197.33333333333331</ele><time>2026-04-11T12:49:36.999Z</time></trkpt><trkpt lat="44.81875307386603" lon="9.486375826222876"><ele>198.0</ele><time>2026-04-11T12:49:37.999Z</time></trkpt><trkpt lat="44.81870720962775" lon="9.486095692478761"><ele>198.33333333333331</ele><time>2026-04-11T12:49:38.999Z</time></trkpt><trkpt lat="44.818653270990865" lon="9.485829932726185"><ele>198.66666666666666</ele><time>2026-04-11T12:49:39.999Z</time></trkpt><trkpt lat="44.8185847048425" lon="9.48562134794362"><ele>199.0</ele><time>2026-04-11T12:49:40.999Z</time></trkpt><trkpt lat="44.818505860678286" lon="9.485389919139642"><ele>205.0</ele><time>2026-04-11T12:49:41.999Z</time></trkpt><trkpt lat="44.81842264617124" lon="9.485163359967801"><ele>211.0</ele><time>2026-04-11T12:49:42.999Z</time></trkpt><trkpt lat="44.818337091605734" lon="9.484941359371652"><ele>217.0</ele><time>2026-04-11T12:49:43.999Z</time></trkpt><trkpt lat="44.81824806705543" lon="9.484713323406687"><ele>218.66666666666666</ele><time>2026-04-11T12:49:44.999Z</time></trkpt><trkpt lat="44.81816252278943" lon="9.48448259973384"><ele>220.33333333333331</ele><time>2026-04-11T12:49:45.999Z</time></trkpt><trkpt lat="44.81807871431407" lon="9.484251708116783"><ele>222.0</ele><time>2026-04-11T12:49:46.999Z</time></trkpt><trkpt lat="44.81799485666274" lon="9.484027653362194"><ele>222.0</ele><time>2026-04-11T12:49:47.999Z</time></trkpt><trkpt lat="44.81791255942197" lon="9.483799095160062"><ele>222.0</ele><time>2026-04-11T12:49:48.999Z</time></trkpt><trkpt lat="44.817839041122056" lon="9.483574075685972"><ele>222.0</ele><time>2026-04-11T12:49:49.999Z</time></trkpt><trkpt lat="44.817757312418586" lon="9.483346945223959"><ele>220.66666666666669</ele><time>2026-04-11T12:49:50.999Z</time></trkpt><trkpt lat="44.81767140434077" lon="9.483088586682634"><ele>219.33333333333334</ele><time>2026-04-11T12:49:52.082Z</time></trkpt><trkpt lat="44.8175889028968" lon="9.482863130795216"><ele>218.0</ele><time>2026-04-11T12:49:53.07Z</time></trkpt><trkpt lat="44.81750780290783" lon="9.482637300201496"><ele>216.5</ele><time>2026-04-11T12:49:54.048Z</time></trkpt><trkpt lat="44.81742538481734" lon="9.482407837869165"><ele>215.0</ele><time>2026-04-11T12:49:55.044Z</time></trkpt><trkpt lat="44.81707118111568" lon="9.481471141952735"><ele>210.0</ele><time>2026-04-11T12:49:57.999Z</time></trkpt><trkpt lat="44.8169874691188" lon="9.481223639984627"><ele>205.0</ele><time>2026-04-11T12:49:58.999Z</time></trkpt><trkpt lat="44.8169185478066" lon="9.480988982524295"><ele>200.0</ele><time>2026-04-11T12:49:59.999Z</time></trkpt><trkpt lat="44.81685461956244" lon="9.48073018124928"><ele>202.33333333333334</ele><time>2026-04-11T12:50:00.999Z</time></trkpt><trkpt lat="44.816799613110064" lon="9.480469066565714"><ele>204.66666666666669</ele><time>2026-04-11T12:50:01.999Z</time></trkpt><trkpt lat="44.816747010128395" lon="9.480208180617186"><ele>207.0</ele><time>2026-04-11T12:50:02.999Z</time></trkpt><trkpt lat="44.81670815078904" lon="9.479943214580164"><ele>207.0</ele><time>2026-04-11T12:50:03.999Z</time></trkpt><trkpt lat="44.81668175578622" lon="9.479665940305315"><ele>207.0</ele><time>2026-04-11T12:50:04.999Z</time></trkpt><trkpt lat="44.8166576434484" lon="9.479395603356435"><ele>207.0</ele><time>2026-04-11T12:50:05.999Z</time></trkpt><trkpt lat="44.816644043502116" lon="9.479129294962439"><ele>207.66666666666669</ele><time>2026-04-11T12:50:06.999Z</time></trkpt><trkpt lat="44.816639784826656" lon="9.478861035932795"><ele>208.33333333333334</ele><time>2026-04-11T12:50:08Z</time></trkpt><trkpt lat="44.81663581272656" lon="9.478601887880842"><ele>209.0</ele><time>2026-04-11T12:50:09Z</time></trkpt><trkpt lat="44.8166335899137" lon="9.478339943408976"><ele>209.33333333333334</ele><time>2026-04-11T12:50:10Z</time></trkpt><trkpt lat="44.816634842322436" lon="9.478083944378952"><ele>209.66666666666669</ele><time>2026-04-11T12:50:11Z</time></trkpt><trkpt lat="44.816647420034435" lon="9.477839517650139"><ele>210.0</ele><time>2026-04-11T12:50:12Z</time></trkpt><trkpt lat="44.8166453438767" lon="9.477585829757338"><ele>210.33333333333331</ele><time>2026-04-11T12:50:13Z</time></trkpt><trkpt lat="44.81664168904034" lon="9.477339971208137"><ele>210.66666666666666</ele><time>2026-04-11T12:50:14Z</time></trkpt><trkpt lat="44.81663809574106" lon="9.477099479708244"><ele>211.0</ele><time>2026-04-11T12:50:15Z</time></trkpt><trkpt lat="44.81663983390728" lon="9.4768575093389"><ele>212.66666666666666</ele><time>2026-04-11T12:50:16Z</time></trkpt><trkpt lat="44.8166373605492" lon="9.47662059823007"><ele>214.33333333333331</ele><time>2026-04-11T12:50:17Z</time></trkpt><trkpt lat="44.816641495468645" lon="9.4763806046821"><ele>216.0</ele><time>2026-04-11T12:50:18Z</time></trkpt><trkpt lat="44.81664127219248" lon="9.47612757313427"><ele>217.66666666666669</ele><time>2026-04-11T12:50:19Z</time></trkpt><trkpt lat="44.81664142446085" lon="9.475872219230364"><ele>219.33333333333334</ele><time>2026-04-11T12:50:20Z</time></trkpt><trkpt lat="44.81664215430723" lon="9.47561363498462"><ele>221.0</ele><time>2026-04-11T12:50:21Z</time></trkpt><trkpt lat="44.816645443687186" lon="9.47535368377732"><ele>222.33333333333334</ele><time>2026-04-11T12:50:22Z</time></trkpt><trkpt lat="44.81664666325751" lon="9.47509428022724"><ele>223.66666666666669</ele><time>2026-04-11T12:50:23Z</time></trkpt><trkpt lat="44.816649020898915" lon="9.474827107652134"><ele>225.0</ele><time>2026-04-11T12:50:24Z</time></trkpt><trkpt lat="44.816650893351614" lon="9.474562361030536"><ele>226.0</ele><time>2026-04-11T12:50:25Z</time></trkpt><trkpt lat="44.8166526397207" lon="9.47428955009514"><ele>227.0</ele><time>2026-04-11T12:50:26Z</time></trkpt><trkpt lat="44.81666120783956" lon="9.474027829787577"><ele>228.0</ele><time>2026-04-11T12:50:27Z</time></trkpt><trkpt lat="44.81666762340283" lon="9.473784117217198"><ele>228.0</ele><time>2026-04-11T12:50:28Z</time></trkpt><trkpt lat="44.81667689658841" lon="9.473561294024847"><ele>228.0</ele><time>2026-04-11T12:50:29Z</time></trkpt><trkpt lat="44.816691634198676" lon="9.473350679299884"><ele>228.0</ele><time>2026-04-11T12:50:30Z</time></trkpt><trkpt lat="44.816722250867336" lon="9.47314915718053"><ele>228.0</ele><time>2026-04-11T12:50:31Z</time></trkpt><trkpt lat="44.816775124333816" lon="9.472944926686662"><ele>228.0</ele><time>2026-04-11T12:50:32Z</time></trkpt><trkpt lat="44.81684618272785" lon="9.472742789691896"><ele>228.0</ele><time>2026-04-11T12:50:33Z</time></trkpt><trkpt lat="44.816936289705" lon="9.472549400223638"><ele>229.0</ele><time>2026-04-11T12:50:34Z</time></trkpt><trkpt lat="44.81703831167472" lon="9.472372054491533"><ele>230.0</ele><time>2026-04-11T12:50:35Z</time></trkpt><trkpt lat="44.817150397095915" lon="9.472203118475043"><ele>231.0</ele><time>2026-04-11T12:50:36Z</time></trkpt><trkpt lat="44.81727805864661" lon="9.4720328692578"><ele>231.0</ele><time>2026-04-11T12:50:37Z</time></trkpt><trkpt lat="44.817395791968174" lon="9.471858210900248"><ele>231.0</ele><time>2026-04-11T12:50:37.999Z</time></trkpt><trkpt lat="44.81749327441409" lon="9.471651405753521"><ele>231.0</ele><time>2026-04-11T12:50:38.999Z</time></trkpt><trkpt lat="44.81756907797378" lon="9.471422870110537"><ele>232.0</ele><time>2026-04-11T12:50:39.999Z</time></trkpt><trkpt lat="44.81761103796024" lon="9.471172945626536"><ele>233.0</ele><time>2026-04-11T12:50:40.999Z</time></trkpt><trkpt lat="44.81762127229836" lon="9.47091374303813"><ele>234.0</ele><time>2026-04-11T12:50:41.999Z</time></trkpt><trkpt lat="44.81759911398908" lon="9.470655754060953"><ele>232.66666666666669</ele><time>2026-04-11T12:50:42.999Z</time></trkpt><trkpt lat="44.817550102964034" lon="9.470394417660291"><ele>231.33333333333334</ele><time>2026-04-11T12:50:43.999Z</time></trkpt><trkpt lat="44.8174922466097" lon="9.470133486061366"><ele>230.0</ele><time>2026-04-11T12:50:44.999Z</time></trkpt><trkpt lat="44.81743142968172" lon="9.469853711047278"><ele>226.66666666666669</ele><time>2026-04-11T12:50:45.999Z</time></trkpt><trkpt lat="44.81737821241143" lon="9.469567216544437"><ele>223.33333333333331</ele><time>2026-04-11T12:50:46.999Z</time></trkpt><trkpt lat="44.81732843565432" lon="9.46926604562529"><ele>220.0</ele><time>2026-04-11T12:50:47.999Z</time></trkpt><trkpt lat="44.817273111454206" lon="9.46896736097403"><ele>219.33333333333331</ele><time>2026-04-11T12:50:48.999Z</time></trkpt><trkpt lat="44.81721131889926" lon="9.46866559738982"><ele>218.66666666666669</ele><time>2026-04-11T12:50:49.999Z</time></trkpt><trkpt lat="44.817151728340946" lon="9.468366962550121"><ele>218.0</ele><time>2026-04-11T12:50:50.999Z</time></trkpt><trkpt lat="44.817095600822185" lon="9.46807875717365"><ele>217.5</ele><time>2026-04-11T12:50:51.999Z</time></trkpt><trkpt lat="44.81703526453333" lon="9.46776628281407"><ele>217.0</ele><time>2026-04-11T12:50:52.999Z</time></trkpt><trkpt lat="44.816963954249175" lon="9.467469067299598"><ele>217.0</ele><time>2026-04-11T12:50:53.999Z</time></trkpt><trkpt lat="44.81687864423277" lon="9.467183671690865"><ele>217.0</ele><time>2026-04-11T12:50:54.999Z</time></trkpt><trkpt lat="44.81678108559958" lon="9.466903593871967"><ele>217.0</ele><time>2026-04-11T12:50:55.999Z</time></trkpt><trkpt lat="44.816666624394045" lon="9.466633779596664"><ele>217.66666666666666</ele><time>2026-04-11T12:50:56.999Z</time></trkpt><trkpt lat="44.81654371458085" lon="9.466368307489802"><ele>218.33333333333331</ele><time>2026-04-11T12:50:57.999Z</time></trkpt><trkpt lat="44.81642350877778" lon="9.466105817166929"><ele>219.0</ele><time>2026-04-11T12:50:58.999Z</time></trkpt><trkpt lat="44.81630435323327" lon="9.46585226481025"><ele>219.0</ele><time>2026-04-11T12:50:59.999Z</time></trkpt><trkpt lat="44.816205177731064" lon="9.465586839287074"><ele>219.0</ele><time>2026-04-11T12:51:00.999Z</time></trkpt><trkpt lat="44.81613060919116" lon="9.465304002234957"><ele>219.0</ele><time>2026-04-11T12:51:01.999Z</time></trkpt><trkpt lat="44.8160865513165" lon="9.465010991614701"><ele>217.0</ele><time>2026-04-11T12:51:02.999Z</time></trkpt><trkpt lat="44.81606148788415" lon="9.46470599277339"><ele>215.0</ele><time>2026-04-11T12:51:03.999Z</time></trkpt><trkpt lat="44.81604446332712" lon="9.464398143233884"><ele>213.0</ele><time>2026-04-11T12:51:04.999Z</time></trkpt><trkpt lat="44.81601855500551" lon="9.46410097257114"><ele>212.33333333333331</ele><time>2026-04-11T12:51:05.999Z</time></trkpt><trkpt lat="44.81598990042643" lon="9.463791686549333"><ele>211.66666666666666</ele><time>2026-04-11T12:51:06.999Z</time></trkpt><trkpt lat="44.81594912635682" lon="9.463476842679102"><ele>211.0</ele><time>2026-04-11T12:51:07.999Z</time></trkpt><trkpt lat="44.81590613538376" lon="9.463181629966305"><ele>217.0</ele><time>2026-04-11T12:51:08.999Z</time></trkpt><trkpt lat="44.81585512533748" lon="9.462891015278917"><ele>223.0</ele><time>2026-04-11T12:51:09.999Z</time></trkpt><trkpt lat="44.81580359532751" lon="9.462594976207244"><ele>229.0</ele><time>2026-04-11T12:51:10.999Z</time></trkpt><trkpt lat="44.81575315226233" lon="9.462302699747752"><ele>228.0</ele><time>2026-04-11T12:51:11.999Z</time></trkpt><trkpt lat="44.81570274603139" lon="9.4620149300664"><ele>227.0</ele><time>2026-04-11T12:51:12.999Z</time></trkpt><trkpt lat="44.81566324101648" lon="9.461741445651223"><ele>226.0</ele><time>2026-04-11T12:51:13.999Z</time></trkpt><trkpt lat="44.81563187744186" lon="9.461488218209382"><ele>225.33333333333331</ele><time>2026-04-11T12:51:14.999Z</time></trkpt><trkpt lat="44.81560612349174" lon="9.461244296161793"><ele>224.66666666666669</ele><time>2026-04-11T12:51:15.999Z</time></trkpt><trkpt lat="44.81557988220918" lon="9.461015862253781"><ele>224.0</ele><time>2026-04-11T12:51:16.999Z</time></trkpt><trkpt lat="44.815561456444165" lon="9.460787848535952"><ele>224.0</ele><time>2026-04-11T12:51:17.999Z</time></trkpt><trkpt lat="44.8155465063374" lon="9.460589887954898"><ele>224.0</ele><time>2026-04-11T12:51:18.999Z</time></trkpt><trkpt lat="44.815535781973736" lon="9.460396897863323"><ele>224.0</ele><time>2026-04-11T12:51:19.999Z</time></trkpt><trkpt lat="44.81552710416478" lon="9.460201159360322"><ele>224.0</ele><time>2026-04-11T12:51:20.999Z</time></trkpt><trkpt lat="44.81550840538209" lon="9.460009695332177"><ele>223.75</ele><time>2026-04-11T12:51:21.999Z</time></trkpt><trkpt lat="44.81548664316929" lon="9.459815762458444"><ele>223.5</ele><time>2026-04-11T12:51:22.999Z</time></trkpt><trkpt lat="44.81546539812133" lon="9.459622012166413"><ele>223.25</ele><time>2026-04-11T12:51:23.999Z</time></trkpt><trkpt lat="44.81545043828173" lon="9.459433920486521"><ele>223.0</ele><time>2026-04-11T12:51:24.999Z</time></trkpt><trkpt lat="44.81543265867703" lon="9.45924791537064"><ele>223.0</ele><time>2026-04-11T12:51:25.999Z</time></trkpt><trkpt lat="44.81540356815589" lon="9.459080752822913"><ele>223.0</ele><time>2026-04-11T12:51:26.999Z</time></trkpt><trkpt lat="44.81537187377665" lon="9.458929300761685"><ele>223.0</ele><time>2026-04-11T12:51:27.999Z</time></trkpt><trkpt lat="44.81533828452543" lon="9.458797847524323"><ele>223.0</ele><time>2026-04-11T12:51:28.999Z</time></trkpt><trkpt lat="44.81530553261262" lon="9.458685470602566"><ele>223.0</ele><time>2026-04-11T12:51:29.999Z</time></trkpt><trkpt lat="44.815281115722705" lon="9.458585676498604"><ele>222.83333333333331</ele><time>2026-04-11T12:51:30.999Z</time></trkpt><trkpt lat="44.81524519295882" lon="9.458444106090358"><ele>222.66666666666666</ele><time>2026-04-11T12:51:32.999Z</time></trkpt><trkpt lat="44.815220770804345" lon="9.45834539429366"><ele>222.5</ele><time>2026-04-11T12:51:34.999Z</time></trkpt><trkpt lat="44.8151898122801" lon="9.458260283703783"><ele>222.33333333333331</ele><time>2026-04-11T12:52:25Z</time></trkpt><trkpt lat="44.81517075411599" lon="9.458165134088564"><ele>222.16666666666666</ele><time>2026-04-11T12:52:28Z</time></trkpt><trkpt lat="44.81512274092461" lon="9.458046083392594"><ele>222.0</ele><time>2026-04-11T12:52:44Z</time></trkpt><trkpt lat="44.81503863862825" lon="9.457847653546692"><ele>222.8</ele><time>2026-04-11T12:52:46Z</time></trkpt><trkpt lat="44.81497532237319" lon="9.457702896674565"><ele>223.6</ele><time>2026-04-11T12:52:48Z</time></trkpt><trkpt lat="44.81492802568164" lon="9.457595990750349"><ele>224.40000000000003</ele><time>2026-04-11T12:52:49Z</time></trkpt><trkpt lat="44.81487494893" lon="9.457477496114906"><ele>225.20000000000002</ele><time>2026-04-11T12:52:50Z</time></trkpt><trkpt lat="44.814823252133266" lon="9.457361973204748"><ele>226.0</ele><time>2026-04-11T12:52:51Z</time></trkpt><trkpt lat="44.814772226991664" lon="9.457247951342463"><ele>226.0</ele><time>2026-04-11T12:52:52Z</time></trkpt><trkpt lat="44.81471538332618" lon="9.457120927314884"><ele>226.0</ele><time>2026-04-11T12:52:53Z</time></trkpt><trkpt lat="44.81465727411717" lon="9.456991075256784"><ele>226.0</ele><time>2026-04-11T12:52:54Z</time></trkpt><trkpt lat="44.8145848934427" lon="9.456829331767132"><ele>226.0</ele><time>2026-04-11T12:52:55Z</time></trkpt><trkpt lat="44.81451877063635" lon="9.456681572386831"><ele>224.5</ele><time>2026-04-11T12:52:56Z</time></trkpt><trkpt lat="44.81445080149357" lon="9.456529687088643"><ele>223.0</ele><time>2026-04-11T12:52:57Z</time></trkpt><trkpt lat="44.814381450591355" lon="9.456374714115277"><ele>221.5</ele><time>2026-04-11T12:52:58Z</time></trkpt><trkpt lat="44.814313394905916" lon="9.456223840903286"><ele>220.0</ele><time>2026-04-11T12:52:59Z</time></trkpt><trkpt lat="44.81424791597496" lon="9.456078729431294"><ele>220.0</ele><time>2026-04-11T12:53:00Z</time></trkpt><trkpt lat="44.81418885375786" lon="9.455947838365939"><ele>220.0</ele><time>2026-04-11T12:53:01Z</time></trkpt><trkpt lat="44.81412328012667" lon="9.455800028286534"><ele>220.0</ele><time>2026-04-11T12:53:02Z</time></trkpt><trkpt lat="44.814052675666986" lon="9.45564144528485"><ele>220.0</ele><time>2026-04-11T12:53:03Z</time></trkpt><trkpt lat="44.81397710151357" lon="9.455472744535742"><ele>218.75</ele><time>2026-04-11T12:53:04Z</time></trkpt><trkpt lat="44.813899932140465" lon="9.455300482890872"><ele>217.5</ele><time>2026-04-11T12:53:05Z</time></trkpt><trkpt lat="44.8138216535133" lon="9.455125745268143"><ele>216.25</ele><time>2026-04-11T12:53:06Z</time></trkpt><trkpt lat="44.81374104158527" lon="9.454945799032693"><ele>215.0</ele><time>2026-04-11T12:53:07Z</time></trkpt><trkpt lat="44.81366098086186" lon="9.454767083307901"><ele>214.0</ele><time>2026-04-11T12:53:08Z</time></trkpt><trkpt lat="44.813582296149036" lon="9.454591439099536"><ele>213.0</ele><time>2026-04-11T12:53:09Z</time></trkpt><trkpt lat="44.81350327117543" lon="9.454415035415597"><ele>212.0</ele><time>2026-04-11T12:53:10Z</time></trkpt><trkpt lat="44.81342159165768" lon="9.454232705972947"><ele>211.0</ele><time>2026-04-11T12:53:11Z</time></trkpt><trkpt lat="44.813337897689806" lon="9.454046744324867"><ele>212.0</ele><time>2026-04-11T12:53:12Z</time></trkpt><trkpt lat="44.813249436442554" lon="9.453850797430635"><ele>213.0</ele><time>2026-04-11T12:53:13Z</time></trkpt><trkpt lat="44.81316459601436" lon="9.453662870879818"><ele>214.0</ele><time>2026-04-11T12:53:14Z</time></trkpt><trkpt lat="44.81307953550281" lon="9.453474456700052"><ele>214.0</ele><time>2026-04-11T12:53:15Z</time></trkpt><trkpt lat="44.81299947584288" lon="9.453297119793154"><ele>214.0</ele><time>2026-04-11T12:53:16Z</time></trkpt><trkpt lat="44.812916810724424" lon="9.453114011546182"><ele>214.0</ele><time>2026-04-11T12:53:17Z</time></trkpt><trkpt lat="44.812835372840304" lon="9.452933621702668"><ele>213.5</ele><time>2026-04-11T12:53:18Z</time></trkpt><trkpt lat="44.81275306094633" lon="9.452751295938908"><ele>213.0</ele><time>2026-04-11T12:53:19Z</time></trkpt><trkpt lat="44.81267696362894" lon="9.452581759651245"><ele>212.5</ele><time>2026-04-11T12:53:20Z</time></trkpt><trkpt lat="44.812601657135176" lon="9.452404060485058"><ele>212.0</ele><time>2026-04-11T12:53:21Z</time></trkpt><trkpt lat="44.812536115423136" lon="9.452220808950548"><ele>215.33333333333334</ele><time>2026-04-11T12:53:22Z</time></trkpt><trkpt lat="44.81247768837547" lon="9.452023017513419"><ele>218.66666666666669</ele><time>2026-04-11T12:53:23Z</time></trkpt><trkpt lat="44.812416889612855" lon="9.451824419881543"><ele>222.0</ele><time>2026-04-11T12:53:24Z</time></trkpt><trkpt lat="44.81238129000416" lon="9.451576136575808"><ele>222.0</ele><time>2026-04-11T12:53:25Z</time></trkpt><trkpt lat="44.81234877584393" lon="9.45131663921311"><ele>222.0</ele><time>2026-04-11T12:53:26Z</time></trkpt><trkpt lat="44.81232075521314" lon="9.451040228062157"><ele>222.0</ele><time>2026-04-11T12:53:27Z</time></trkpt><trkpt lat="44.81229705582402" lon="9.450752351294545"><ele>221.0</ele><time>2026-04-11T12:53:28Z</time></trkpt><trkpt lat="44.81226594576605" lon="9.45045529017945"><ele>220.0</ele><time>2026-04-11T12:53:29Z</time></trkpt><trkpt lat="44.812228494695624" lon="9.450156701455096"><ele>219.0</ele><time>2026-04-11T12:53:30Z</time></trkpt><trkpt lat="44.81218618882768" lon="9.449852017145068"><ele>217.66666666666669</ele><time>2026-04-11T12:53:31Z</time></trkpt><trkpt lat="44.81214266597945" lon="9.449541273958408"><ele>216.33333333333334</ele><time>2026-04-11T12:53:32Z</time></trkpt><trkpt lat="44.812103569242296" lon="9.449237490872148"><ele>215.0</ele><time>2026-04-11T12:53:33Z</time></trkpt><trkpt lat="44.812072806738996" lon="9.448941978929978"><ele>214.66666666666669</ele><time>2026-04-11T12:53:34Z</time></trkpt><trkpt lat="44.81203825611983" lon="9.448640405606334"><ele>214.33333333333331</ele><time>2026-04-11T12:53:35Z</time></trkpt><trkpt lat="44.81200982319705" lon="9.448338794501016"><ele>214.0</ele><time>2026-04-11T12:53:36Z</time></trkpt><trkpt lat="44.8119675118055" lon="9.448028993967917"><ele>213.66666666666666</ele><time>2026-04-11T12:53:37Z</time></trkpt><trkpt lat="44.811930007159134" lon="9.447723936227833"><ele>213.33333333333331</ele><time>2026-04-11T12:53:38Z</time></trkpt><trkpt lat="44.81189402011655" lon="9.447419843979247"><ele>213.0</ele><time>2026-04-11T12:53:39Z</time></trkpt><trkpt lat="44.81185578811792" lon="9.447110848769483"><ele>215.33333333333331</ele><time>2026-04-11T12:53:40Z</time></trkpt><trkpt lat="44.811816854722736" lon="9.446801102374826"><ele>217.66666666666666</ele><time>2026-04-11T12:53:41Z</time></trkpt><trkpt lat="44.811779043453136" lon="9.446496076017635"><ele>220.0</ele><time>2026-04-11T12:53:42Z</time></trkpt><trkpt lat="44.81173714165943" lon="9.446188108852567"><ele>220.0</ele><time>2026-04-11T12:53:43Z</time></trkpt><trkpt lat="44.81170212981389" lon="9.445876676586073"><ele>220.0</ele><time>2026-04-11T12:53:44Z</time></trkpt><trkpt lat="44.81166673755597" lon="9.4455652247037"><ele>220.0</ele><time>2026-04-11T12:53:45Z</time></trkpt><trkpt lat="44.81162835797915" lon="9.44525346147732"><ele>221.0</ele><time>2026-04-11T12:53:46Z</time></trkpt><trkpt lat="44.811587699594924" lon="9.444942586255669"><ele>222.0</ele><time>2026-04-11T12:53:47Z</time></trkpt><trkpt lat="44.811549716586356" lon="9.444629163004707"><ele>222.0</ele><time>2026-04-11T12:53:48Z</time></trkpt><trkpt lat="44.811514456419566" lon="9.444322785111325"><ele>222.0</ele><time>2026-04-11T12:53:49Z</time></trkpt><trkpt lat="44.811481864061776" lon="9.444015795777975"><ele>222.0</ele><time>2026-04-11T12:53:49.999Z</time></trkpt><trkpt lat="44.81144067911704" lon="9.44370714069625"><ele>221.66666666666669</ele><time>2026-04-11T12:53:50.999Z</time></trkpt><trkpt lat="44.81140693950724" lon="9.443406213760932"><ele>221.33333333333334</ele><time>2026-04-11T12:53:51.999Z</time></trkpt><trkpt lat="44.81136770779139" lon="9.443106172902757"><ele>221.0</ele><time>2026-04-11T12:53:52.999Z</time></trkpt><trkpt lat="44.811330836791655" lon="9.442817187437267"><ele>221.0</ele><time>2026-04-11T12:53:53.999Z</time></trkpt><trkpt lat="44.811293356806154" lon="9.442527715342626"><ele>221.0</ele><time>2026-04-11T12:53:54.999Z</time></trkpt><trkpt lat="44.81125869749629" lon="9.442242312155937"><ele>221.0</ele><time>2026-04-11T12:53:55.999Z</time></trkpt><trkpt lat="44.81122450815196" lon="9.44195722162003"><ele>220.33333333333334</ele><time>2026-04-11T12:53:56.999Z</time></trkpt><trkpt lat="44.81118872417035" lon="9.441667011659346"><ele>219.66666666666669</ele><time>2026-04-11T12:53:57.999Z</time></trkpt><trkpt lat="44.81115140173878" lon="9.441374564679894"><ele>219.0</ele><time>2026-04-11T12:53:58.999Z</time></trkpt><trkpt lat="44.81111289161198" lon="9.441081861226003"><ele>218.33333333333331</ele><time>2026-04-11T12:53:59.999Z</time></trkpt><trkpt lat="44.8110670055611" lon="9.440795074136078"><ele>217.66666666666666</ele><time>2026-04-11T12:54:00.999Z</time></trkpt><trkpt lat="44.81101407514155" lon="9.440508700124632"><ele>217.0</ele><time>2026-04-11T12:54:01.999Z</time></trkpt><trkpt lat="44.810938775078775" lon="9.440243826939957"><ele>218.33333333333331</ele><time>2026-04-11T12:54:02.999Z</time></trkpt><trkpt lat="44.81084691783516" lon="9.439985827611043"><ele>219.66666666666669</ele><time>2026-04-11T12:54:03.999Z</time></trkpt><trkpt lat="44.81074377571614" lon="9.439747484564254"><ele>221.0</ele><time>2026-04-11T12:54:04.999Z</time></trkpt><trkpt lat="44.810664214351334" lon="9.43949221575494"><ele>221.0</ele><time>2026-04-11T12:54:05.999Z</time></trkpt><trkpt lat="44.810576615991245" lon="9.439246742663274"><ele>221.0</ele><time>2026-04-11T12:54:06.999Z</time></trkpt><trkpt lat="44.81037155378366" lon="9.439093833529885"><ele>221.0</ele><time>2026-04-11T12:54:07.999Z</time></trkpt><trkpt lat="44.81023557474785" lon="9.438892143233518"><ele>223.66666666666669</ele><time>2026-04-11T12:54:08.999Z</time></trkpt><trkpt lat="44.81009305089017" lon="9.438688037717446"><ele>226.33333333333331</ele><time>2026-04-11T12:54:09.999Z</time></trkpt><trkpt lat="44.809953864141775" lon="9.438483544032621"><ele>229.0</ele><time>2026-04-11T12:54:10.999Z</time></trkpt><trkpt lat="44.809811650675734" lon="9.43827312277329"><ele>229.0</ele><time>2026-04-11T12:54:11.999Z</time></trkpt><trkpt lat="44.809665905855354" lon="9.438062056533221"><ele>229.0</ele><time>2026-04-11T12:54:12.999Z</time></trkpt><trkpt lat="44.809527742219416" lon="9.43784008985491"><ele>229.0</ele><time>2026-04-11T12:54:13.999Z</time></trkpt><trkpt lat="44.80938648809408" lon="9.437625304052588"><ele>230.0</ele><time>2026-04-11T12:54:14.999Z</time></trkpt><trkpt lat="44.809238171025186" lon="9.437410035625293"><ele>231.0</ele><time>2026-04-11T12:54:15.999Z</time></trkpt><trkpt lat="44.80909361575365" lon="9.437182636245806"><ele>232.0</ele><time>2026-04-11T12:54:16.999Z</time></trkpt><trkpt lat="44.808968870974006" lon="9.4369402844506"><ele>228.66666666666666</ele><time>2026-04-11T12:54:17.999Z</time></trkpt><trkpt lat="44.80886797610504" lon="9.436693250872246"><ele>225.33333333333331</ele><time>2026-04-11T12:54:18.999Z</time></trkpt><trkpt lat="44.80878510994589" lon="9.436424213504557"><ele>222.0</ele><time>2026-04-11T12:54:20Z</time></trkpt><trkpt lat="44.80870496078409" lon="9.436160296637787"><ele>220.66666666666669</ele><time>2026-04-11T12:54:21Z</time></trkpt><trkpt lat="44.808614207839604" lon="9.435892512366712"><ele>219.33333333333334</ele><time>2026-04-11T12:54:22Z</time></trkpt><trkpt lat="44.80852179701048" lon="9.435629250179812"><ele>218.0</ele><time>2026-04-11T12:54:23Z</time></trkpt><trkpt lat="44.80842843503497" lon="9.435363807214362"><ele>218.0</ele><time>2026-04-11T12:54:24Z</time></trkpt><trkpt lat="44.80833545812375" lon="9.435098075850034"><ele>218.0</ele><time>2026-04-11T12:54:25Z</time></trkpt><trkpt lat="44.80824449607905" lon="9.434835465175505"><ele>218.0</ele><time>2026-04-11T12:54:26Z</time></trkpt><trkpt lat="44.80814980305704" lon="9.434562609429237"><ele>218.66666666666669</ele><time>2026-04-11T12:54:27Z</time></trkpt><trkpt lat="44.808055563175834" lon="9.43428776713399"><ele>219.33333333333331</ele><time>2026-04-11T12:54:28Z</time></trkpt><trkpt lat="44.80796142281252" lon="9.434018069691879"><ele>220.0</ele><time>2026-04-11T12:54:29Z</time></trkpt><trkpt lat="44.8078642342954" lon="9.433743642719529"><ele>220.0</ele><time>2026-04-11T12:54:30Z</time></trkpt><trkpt lat="44.807770243809614" lon="9.433468841437357"><ele>220.0</ele><time>2026-04-11T12:54:31Z</time></trkpt><trkpt lat="44.80767593266137" lon="9.43319161704591"><ele>220.0</ele><time>2026-04-11T12:54:32Z</time></trkpt><trkpt lat="44.80758078284926" lon="9.432910998621233"><ele>221.66666666666666</ele><time>2026-04-11T12:54:33Z</time></trkpt><trkpt lat="44.8074802475337" lon="9.432634055782122"><ele>223.33333333333331</ele><time>2026-04-11T12:54:34Z</time></trkpt><trkpt lat="44.807378768923904" lon="9.4323555036145"><ele>225.0</ele><time>2026-04-11T12:54:35Z</time></trkpt><trkpt lat="44.807275981506805" lon="9.432089163600837"><ele>228.0</ele><time>2026-04-11T12:54:36Z</time></trkpt><trkpt lat="44.80718116759548" lon="9.431821938699375"><ele>231.0</ele><time>2026-04-11T12:54:37Z</time></trkpt><trkpt lat="44.80708636023084" lon="9.43155539729853"><ele>234.0</ele><time>2026-04-11T12:54:38Z</time></trkpt><trkpt lat="44.806975022379525" lon="9.431291695682447"><ele>232.33333333333331</ele><time>2026-04-11T12:54:39Z</time></trkpt><trkpt lat="44.806847062374175" lon="9.431043561694727"><ele>230.66666666666666</ele><time>2026-04-11T12:54:40Z</time></trkpt><trkpt lat="44.806716114500034" lon="9.430796336136801"><ele>229.0</ele><time>2026-04-11T12:54:41Z</time></trkpt><trkpt lat="44.80658329824605" lon="9.430556343856185"><ele>229.0</ele><time>2026-04-11T12:54:42Z</time></trkpt><trkpt lat="44.80644474460448" lon="9.430324221802202"><ele>229.0</ele><time>2026-04-11T12:54:43Z</time></trkpt><trkpt lat="44.806306794495256" lon="9.430087186457905"><ele>229.0</ele><time>2026-04-11T12:54:44Z</time></trkpt><trkpt lat="44.80615858710589" lon="9.429862101752164"><ele>229.0</ele><time>2026-04-11T12:54:45Z</time></trkpt><trkpt lat="44.80600817861703" lon="9.429646324574302"><ele>229.0</ele><time>2026-04-11T12:54:46Z</time></trkpt><trkpt lat="44.80585092044539" lon="9.429441488778"><ele>229.0</ele><time>2026-04-11T12:54:47Z</time></trkpt><trkpt lat="44.805690145266816" lon="9.429234635556426"><ele>229.66666666666666</ele><time>2026-04-11T12:54:48Z</time></trkpt><trkpt lat="44.80552938441395" lon="9.429028703690511"><ele>230.33333333333331</ele><time>2026-04-11T12:54:49Z</time></trkpt><trkpt lat="44.80537396211521" lon="9.428827181587273"><ele>231.0</ele><time>2026-04-11T12:54:50Z</time></trkpt><trkpt lat="44.80522056067085" lon="9.428623641655978"><ele>229.33333333333331</ele><time>2026-04-11T12:54:51Z</time></trkpt><trkpt lat="44.8050685306617" lon="9.428418569403215"><ele>227.66666666666666</ele><time>2026-04-11T12:54:52Z</time></trkpt><trkpt lat="44.80491378740824" lon="9.42821609664628"><ele>226.0</ele><time>2026-04-11T12:54:53Z</time></trkpt><trkpt lat="44.80476001219289" lon="9.428013593004708"><ele>226.0</ele><time>2026-04-11T12:54:54Z</time></trkpt><trkpt lat="44.80460586120174" lon="9.427815873852218"><ele>226.0</ele><time>2026-04-11T12:54:55Z</time></trkpt><trkpt lat="44.804447916780354" lon="9.427615793958667"><ele>226.0</ele><time>2026-04-11T12:54:56Z</time></trkpt><trkpt lat="44.80429306234831" lon="9.427406766990797"><ele>226.0</ele><time>2026-04-11T12:54:57Z</time></trkpt><trkpt lat="44.80413776728257" lon="9.42720075779232"><ele>226.0</ele><time>2026-04-11T12:54:58Z</time></trkpt><trkpt lat="44.803983428497006" lon="9.426998190700974"><ele>226.0</ele><time>2026-04-11T12:54:59Z</time></trkpt><trkpt lat="44.803831853320865" lon="9.426790036833568"><ele>226.33333333333331</ele><time>2026-04-11T12:55:00Z</time></trkpt><trkpt lat="44.80366684889703" lon="9.426597962540274"><ele>226.66666666666669</ele><time>2026-04-11T12:55:01Z</time></trkpt><trkpt lat="44.80351593943907" lon="9.426402814609578"><ele>227.0</ele><time>2026-04-11T12:55:02Z</time></trkpt><trkpt lat="44.80335275626294" lon="9.426203361785957"><ele>227.0</ele><time>2026-04-11T12:55:03Z</time></trkpt><trkpt lat="44.80318981793446" lon="9.42602638980614"><ele>227.0</ele><time>2026-04-11T12:55:04Z</time></trkpt><trkpt lat="44.803018909708385" lon="9.425851811295468"><ele>227.0</ele><time>2026-04-11T12:55:05Z</time></trkpt><trkpt lat="44.80284583406649" lon="9.425683493293619"><ele>227.0</ele><time>2026-04-11T12:55:06Z</time></trkpt><trkpt lat="44.80267178985173" lon="9.425528537988729"><ele>227.0</ele><time>2026-04-11T12:55:07Z</time></trkpt><trkpt lat="44.80248940022992" lon="9.425376908890561"><ele>227.0</ele><time>2026-04-11T12:55:08Z</time></trkpt><trkpt lat="44.802304788590334" lon="9.425247593598517"><ele>226.0</ele><time>2026-04-11T12:55:09Z</time></trkpt><trkpt lat="44.80211673842358" lon="9.425117455700894"><ele>225.0</ele><time>2026-04-11T12:55:10Z</time></trkpt><trkpt lat="44.8019372433915" lon="9.424987483770748"><ele>224.0</ele><time>2026-04-11T12:55:11Z</time></trkpt><trkpt lat="44.80175301667741" lon="9.424853715347155"><ele>224.0</ele><time>2026-04-11T12:55:12Z</time></trkpt><trkpt lat="44.801569121894964" lon="9.424718951614077"><ele>224.0</ele><time>2026-04-11T12:55:13Z</time></trkpt><trkpt lat="44.801389697412645" lon="9.424587404415488"><ele>224.0</ele><time>2026-04-11T12:55:14Z</time></trkpt><trkpt lat="44.80120776243741" lon="9.424456562254685"><ele>225.0</ele><time>2026-04-11T12:55:15Z</time></trkpt><trkpt lat="44.801027401355874" lon="9.42432897796848"><ele>226.0</ele><time>2026-04-11T12:55:16Z</time></trkpt><trkpt lat="44.80084777611038" lon="9.424204477804695"><ele>227.0</ele><time>2026-04-11T12:55:17Z</time></trkpt><trkpt lat="44.80066961291209" lon="9.424081982238683"><ele>227.66666666666669</ele><time>2026-04-11T12:55:18Z</time></trkpt><trkpt lat="44.80048978140461" lon="9.423952789256502"><ele>228.33333333333331</ele><time>2026-04-11T12:55:19Z</time></trkpt><trkpt lat="44.800313058768516" lon="9.423825933545542"><ele>229.0</ele><time>2026-04-11T12:55:20Z</time></trkpt><trkpt lat="44.80013276178052" lon="9.42370007530584"><ele>230.66666666666666</ele><time>2026-04-11T12:55:21Z</time></trkpt><trkpt lat="44.79994665381968" lon="9.423582665817912"><ele>232.33333333333331</ele><time>2026-04-11T12:55:22Z</time></trkpt><trkpt lat="44.7997553813811" lon="9.423486750567582"><ele>234.0</ele><time>2026-04-11T12:55:23Z</time></trkpt><trkpt lat="44.79956272926239" lon="9.423408109238023"><ele>234.0</ele><time>2026-04-11T12:55:24Z</time></trkpt><trkpt lat="44.799368059460285" lon="9.423338557880125"><ele>234.0</ele><time>2026-04-11T12:55:25Z</time></trkpt><trkpt lat="44.799172116032814" lon="9.423294067061606"><ele>234.0</ele><time>2026-04-11T12:55:26Z</time></trkpt><trkpt lat="44.798975459329405" lon="9.423261213056188"><ele>234.66666666666669</ele><time>2026-04-11T12:55:27Z</time></trkpt><trkpt lat="44.79878074128971" lon="9.42324938639141"><ele>235.33333333333334</ele><time>2026-04-11T12:55:28Z</time></trkpt><trkpt lat="44.79857086269272" lon="9.42321736569048"><ele>236.0</ele><time>2026-04-11T12:55:29Z</time></trkpt><trkpt lat="44.79836162169782" lon="9.4231912272836"><ele>237.66666666666669</ele><time>2026-04-11T12:55:30Z</time></trkpt><trkpt lat="44.79814982982866" lon="9.423158311232143"><ele>239.33333333333331</ele><time>2026-04-11T12:55:31Z</time></trkpt><trkpt lat="44.797939175194216" lon="9.423116936770832"><ele>241.0</ele><time>2026-04-11T12:55:32Z</time></trkpt><trkpt lat="44.797725784029325" lon="9.42306930275607"><ele>241.33333333333331</ele><time>2026-04-11T12:55:33Z</time></trkpt><trkpt lat="44.79750501263339" lon="9.423011466776622"><ele>241.66666666666669</ele><time>2026-04-11T12:55:34Z</time></trkpt><trkpt lat="44.79729942106072" lon="9.42295972040735"><ele>242.0</ele><time>2026-04-11T12:55:35Z</time></trkpt><trkpt lat="44.79709289504703" lon="9.422876737404115"><ele>241.33333333333334</ele><time>2026-04-11T12:55:36Z</time></trkpt><trkpt lat="44.79688767374501" lon="9.422778057257746"><ele>240.66666666666669</ele><time>2026-04-11T12:55:37Z</time></trkpt><trkpt lat="44.79669060040581" lon="9.422656480454934"><ele>240.0</ele><time>2026-04-11T12:55:38Z</time></trkpt><trkpt lat="44.796500694960585" lon="9.422505427699106"><ele>240.0</ele><time>2026-04-11T12:55:39Z</time></trkpt><trkpt lat="44.796321677040325" lon="9.422329483582095"><ele>240.0</ele><time>2026-04-11T12:55:40Z</time></trkpt><trkpt lat="44.79615465069279" lon="9.422149266304414"><ele>240.0</ele><time>2026-04-11T12:55:41Z</time></trkpt><trkpt lat="44.796002615788126" lon="9.421933834618603"><ele>240.66666666666669</ele><time>2026-04-11T12:55:42Z</time></trkpt><trkpt lat="44.79584099456928" lon="9.421721017839616"><ele>241.33333333333334</ele><time>2026-04-11T12:55:43Z</time></trkpt><trkpt lat="44.79567634312092" lon="9.421504801036479"><ele>242.0</ele><time>2026-04-11T12:55:44Z</time></trkpt><trkpt lat="44.79550885666111" lon="9.421287379360763"><ele>242.0</ele><time>2026-04-11T12:55:45Z</time></trkpt><trkpt lat="44.795346062694705" lon="9.421077319641558"><ele>242.0</ele><time>2026-04-11T12:55:46Z</time></trkpt><trkpt lat="44.795181299550904" lon="9.420860512272581"><ele>242.0</ele><time>2026-04-11T12:55:47Z</time></trkpt><trkpt lat="44.795015119862995" lon="9.42063393862888"><ele>261.5</ele><time>2026-04-11T12:55:48Z</time></trkpt><trkpt lat="44.79484803302196" lon="9.420407794635885"><ele>281.0</ele><time>2026-04-11T12:55:49Z</time></trkpt><trkpt lat="44.794681399192115" lon="9.420182936428256"><ele>281.0</ele><time>2026-04-11T12:55:50Z</time></trkpt><trkpt lat="44.79450877672473" lon="9.419957797578236"><ele>281.0</ele><time>2026-04-11T12:55:51Z</time></trkpt><trkpt lat="44.79434996692813" lon="9.41973470419705"><ele>302.5</ele><time>2026-04-11T12:55:52Z</time></trkpt><trkpt lat="44.794137493747435" lon="9.419488969786771"><ele>324.0</ele><time>2026-04-11T12:55:53.065Z</time></trkpt><trkpt lat="44.79397146057232" lon="9.419263916170518"><ele>324.0</ele><time>2026-04-11T12:55:54.065Z</time></trkpt><trkpt lat="44.79380428478457" lon="9.41903761304692"><ele>324.0</ele><time>2026-04-11T12:55:55.064Z</time></trkpt><trkpt lat="44.79362887892304" lon="9.418804512838589"><ele>341.5</ele><time>2026-04-11T12:55:56.065Z</time></trkpt><trkpt lat="44.793458885451216" lon="9.418576021815861"><ele>359.0</ele><time>2026-04-11T12:55:57.061Z</time></trkpt><trkpt lat="44.79283694644108" lon="9.417788698318239"><ele>382.5</ele><time>2026-04-11T12:56:00.701Z</time></trkpt><trkpt lat="44.79265575786783" lon="9.417585543408231"><ele>406.0</ele><time>2026-04-11T12:56:01.704Z</time></trkpt><trkpt lat="44.792487629831456" lon="9.417364795912805"><ele>397.0</ele><time>2026-04-11T12:56:02.703Z</time></trkpt><trkpt lat="44.792330607344056" lon="9.417126624984302"><ele>388.0</ele><time>2026-04-11T12:56:03.704Z</time></trkpt><trkpt lat="44.79216227775763" lon="9.41690561278914"><ele>388.0</ele><time>2026-04-11T12:56:04.705Z</time></trkpt><trkpt lat="44.79198282841208" lon="9.416702005509617"><ele>388.0</ele><time>2026-04-11T12:56:05.704Z</time></trkpt><trkpt lat="44.79181442661489" lon="9.416480898573745"><ele>357.5</ele><time>2026-04-11T12:56:06.704Z</time></trkpt><trkpt lat="44.79165746508689" lon="9.416243264290364"><ele>327.0</ele><time>2026-04-11T12:56:07.704Z</time></trkpt><trkpt lat="44.79147734488568" lon="9.416040058682112"><ele>327.0</ele><time>2026-04-11T12:56:08.704Z</time></trkpt><trkpt lat="44.791308981033445" lon="9.415819147492384"><ele>327.0</ele><time>2026-04-11T12:56:09.705Z</time></trkpt><trkpt lat="44.791141303968" lon="9.415597211520536"><ele>304.3333333333333</ele><time>2026-04-11T12:56:10.705Z</time></trkpt><trkpt lat="44.79097304904738" lon="9.41537821658311"><ele>281.66666666666663</ele><time>2026-04-11T12:56:11.701Z</time></trkpt><trkpt lat="44.7909" lon="9.4152832"><ele>259.0</ele><time>2026-04-11T12:56:12.704Z</time></trkpt><trkpt lat="44.789974538949345" lon="9.413976135384448"><ele>251.33333333333331</ele><time>2026-04-11T12:56:22.999Z</time></trkpt><trkpt lat="44.78983240927535" lon="9.413793216753707"><ele>243.66666666666669</ele><time>2026-04-11T12:56:23.999Z</time></trkpt><trkpt lat="44.789676159201186" lon="9.41359747997037"><ele>236.0</ele><time>2026-04-11T12:56:24.999Z</time></trkpt><trkpt lat="44.789560955140786" lon="9.413453897195566"><ele>236.0</ele><time>2026-04-11T12:56:25.999Z</time></trkpt><trkpt lat="44.78941506001102" lon="9.413250236803924"><ele>236.0</ele><time>2026-04-11T12:56:26.999Z</time></trkpt><trkpt lat="44.78926077593626" lon="9.413045925386243"><ele>236.0</ele><time>2026-04-11T12:56:27.999Z</time></trkpt><trkpt lat="44.789100823060785" lon="9.41285013313588"><ele>236.33333333333334</ele><time>2026-04-11T12:56:29Z</time></trkpt><trkpt lat="44.78894480196517" lon="9.412654990323736"><ele>236.66666666666669</ele><time>2026-04-11T12:56:30Z</time></trkpt><trkpt lat="44.788790379386874" lon="9.41245523718753"><ele>237.0</ele><time>2026-04-11T12:56:31Z</time></trkpt><trkpt lat="44.78863454362379" lon="9.412254532962791"><ele>237.33333333333331</ele><time>2026-04-11T12:56:32Z</time></trkpt><trkpt lat="44.78847188922761" lon="9.412037820223622"><ele>237.66666666666666</ele><time>2026-04-11T12:56:33Z</time></trkpt><trkpt lat="44.788310100617096" lon="9.411823103376383"><ele>238.0</ele><time>2026-04-11T12:56:34Z</time></trkpt><trkpt lat="44.78814967099638" lon="9.411609794014778"><ele>238.0</ele><time>2026-04-11T12:56:35Z</time></trkpt><trkpt lat="44.787986257705654" lon="9.411394378054961"><ele>238.0</ele><time>2026-04-11T12:56:36Z</time></trkpt><trkpt lat="44.78781982278854" lon="9.41117175268485"><ele>239.0</ele><time>2026-04-11T12:56:37Z</time></trkpt><trkpt lat="44.787654537693534" lon="9.410953896726832"><ele>240.0</ele><time>2026-04-11T12:56:38Z</time></trkpt><trkpt lat="44.78748865390742" lon="9.410735854693705"><ele>240.0</ele><time>2026-04-11T12:56:39Z</time></trkpt><trkpt lat="44.787322480310266" lon="9.410517204685654"><ele>240.0</ele><time>2026-04-11T12:56:40Z</time></trkpt><trkpt lat="44.787154243415486" lon="9.410301871038603"><ele>238.5</ele><time>2026-04-11T12:56:41Z</time></trkpt><trkpt lat="44.78698597072846" lon="9.410082960855435"><ele>237.0</ele><time>2026-04-11T12:56:42Z</time></trkpt><trkpt lat="44.78681546458938" lon="9.409866643883298"><ele>241.5</ele><time>2026-04-11T12:56:43Z</time></trkpt><trkpt lat="44.786652476203095" lon="9.409647860898732"><ele>246.0</ele><time>2026-04-11T12:56:44Z</time></trkpt><trkpt lat="44.78648423039664" lon="9.409426374450764"><ele>246.0</ele><time>2026-04-11T12:56:45Z</time></trkpt><trkpt lat="44.78631176929614" lon="9.409204651374921"><ele>246.0</ele><time>2026-04-11T12:56:46Z</time></trkpt><trkpt lat="44.78613966978372" lon="9.408983020019582"><ele>246.0</ele><time>2026-04-11T12:56:47Z</time></trkpt><trkpt lat="44.78597067515883" lon="9.408762416413666"><ele>246.0</ele><time>2026-04-11T12:56:48Z</time></trkpt><trkpt lat="44.7858031245214" lon="9.408542688858363"><ele>246.0</ele><time>2026-04-11T12:56:49Z</time></trkpt><trkpt lat="44.78563192699662" lon="9.408319269859033"><ele>246.0</ele><time>2026-04-11T12:56:50Z</time></trkpt><trkpt lat="44.78545558636198" lon="9.408096706683486"><ele>247.0</ele><time>2026-04-11T12:56:51Z</time></trkpt><trkpt lat="44.785285898887025" lon="9.407873691528758"><ele>248.0</ele><time>2026-04-11T12:56:52Z</time></trkpt><trkpt lat="44.78511097836563" lon="9.407645811356911"><ele>248.0</ele><time>2026-04-11T12:56:53Z</time></trkpt><trkpt lat="44.78493894980721" lon="9.407418218768704"><ele>248.0</ele><time>2026-04-11T12:56:54Z</time></trkpt><trkpt lat="44.78477258791812" lon="9.407179657226806"><ele>247.0</ele><time>2026-04-11T12:56:55Z</time></trkpt><trkpt lat="44.78460605164087" lon="9.406941285514772"><ele>246.0</ele><time>2026-04-11T12:56:56Z</time></trkpt><trkpt lat="44.784437021423635" lon="9.406700140270157"><ele>245.0</ele><time>2026-04-11T12:56:57Z</time></trkpt><trkpt lat="44.78427075284226" lon="9.406458143057844"><ele>244.0</ele><time>2026-04-11T12:56:58Z</time></trkpt><trkpt lat="44.78410526855456" lon="9.406214367825719"><ele>244.0</ele><time>2026-04-11T12:56:59Z</time></trkpt><trkpt lat="44.78393973628151" lon="9.40597122775909"><ele>244.0</ele><time>2026-04-11T12:57:00Z</time></trkpt><trkpt lat="44.783770254584894" lon="9.405731337977542"><ele>242.5</ele><time>2026-04-11T12:57:01Z</time></trkpt><trkpt lat="44.78360094143857" lon="9.405487944133792"><ele>241.0</ele><time>2026-04-11T12:57:02Z</time></trkpt><trkpt lat="44.78343458120727" lon="9.405247568206178"><ele>241.0</ele><time>2026-04-11T12:57:03Z</time></trkpt><trkpt lat="44.7832653616991" lon="9.40500499156435"><ele>241.0</ele><time>2026-04-11T12:57:04Z</time></trkpt><trkpt lat="44.78309853297304" lon="9.404761425005809"><ele>241.0</ele><time>2026-04-11T12:57:05Z</time></trkpt><trkpt lat="44.78293437269875" lon="9.40452133300571"><ele>241.0</ele><time>2026-04-11T12:57:06Z</time></trkpt><trkpt lat="44.78276589033586" lon="9.404276914421128"><ele>242.0</ele><time>2026-04-11T12:57:07Z</time></trkpt><trkpt lat="44.782600435327424" lon="9.404033575417888"><ele>243.0</ele><time>2026-04-11T12:57:08Z</time></trkpt><trkpt lat="44.782436043178784" lon="9.40379174600246"><ele>243.5</ele><time>2026-04-11T12:57:09Z</time></trkpt><trkpt lat="44.78227045095963" lon="9.403554965229537"><ele>244.0</ele><time>2026-04-11T12:57:10Z</time></trkpt><trkpt lat="44.78210456152714" lon="9.40331516739709"><ele>244.0</ele><time>2026-04-11T12:57:11Z</time></trkpt><trkpt lat="44.7819395906656" lon="9.403076579096274"><ele>244.0</ele><time>2026-04-11T12:57:12Z</time></trkpt><trkpt lat="44.78177401751196" lon="9.402832250462632"><ele>245.5</ele><time>2026-04-11T12:57:13Z</time></trkpt><trkpt lat="44.78160633987117" lon="9.40259519816806"><ele>247.0</ele><time>2026-04-11T12:57:14Z</time></trkpt><trkpt lat="44.78143946600776" lon="9.402359821595223"><ele>250.0</ele><time>2026-04-11T12:57:15Z</time></trkpt><trkpt lat="44.78127234597565" lon="9.40212365406926"><ele>253.0</ele><time>2026-04-11T12:57:16Z</time></trkpt><trkpt lat="44.78111016512751" lon="9.401887797198365"><ele>250.5</ele><time>2026-04-11T12:57:17Z</time></trkpt><trkpt lat="44.780948420309834" lon="9.401651419452364"><ele>248.0</ele><time>2026-04-11T12:57:18Z</time></trkpt><trkpt lat="44.78079185847484" lon="9.401411340960319"><ele>251.5</ele><time>2026-04-11T12:57:19Z</time></trkpt><trkpt lat="44.78064196405416" lon="9.401166601914788"><ele>255.0</ele><time>2026-04-11T12:57:20Z</time></trkpt><trkpt lat="44.780493089190074" lon="9.400916484042504"><ele>255.0</ele><time>2026-04-11T12:57:21Z</time></trkpt><trkpt lat="44.78036361293972" lon="9.400663396328653"><ele>255.0</ele><time>2026-04-11T12:57:22Z</time></trkpt><trkpt lat="44.780245749280304" lon="9.400383981215148"><ele>253.5</ele><time>2026-04-11T12:57:23Z</time></trkpt><trkpt lat="44.780147791548224" lon="9.400092359552918"><ele>252.0</ele><time>2026-04-11T12:57:24Z</time></trkpt><trkpt lat="44.78005756158146" lon="9.399790331174515"><ele>254.5</ele><time>2026-04-11T12:57:25Z</time></trkpt><trkpt lat="44.77998613628016" lon="9.399486329753547"><ele>257.0</ele><time>2026-04-11T12:57:26Z</time></trkpt><trkpt lat="44.77992028522958" lon="9.399169245413734"><ele>257.0</ele><time>2026-04-11T12:57:27Z</time></trkpt><trkpt lat="44.7798721365188" lon="9.398852769621385"><ele>257.0</ele><time>2026-04-11T12:57:28Z</time></trkpt><trkpt lat="44.779835505902355" lon="9.398530944385858"><ele>258.5</ele><time>2026-04-11T12:57:29Z</time></trkpt><trkpt lat="44.7798116292295" lon="9.398201699262987"><ele>260.0</ele><time>2026-04-11T12:57:30Z</time></trkpt><trkpt lat="44.779803692918335" lon="9.397877327792244"><ele>260.5</ele><time>2026-04-11T12:57:31Z</time></trkpt><trkpt lat="44.77979067175791" lon="9.397548572108834"><ele>261.0</ele><time>2026-04-11T12:57:32Z</time></trkpt><trkpt lat="44.779768484060476" lon="9.397214518405786"><ele>264.0</ele><time>2026-04-11T12:57:33Z</time></trkpt><trkpt lat="44.77973695054524" lon="9.396886519625046"><ele>267.0</ele><time>2026-04-11T12:57:34Z</time></trkpt><trkpt lat="44.77969671588074" lon="9.396558468633597"><ele>271.0</ele><time>2026-04-11T12:57:35Z</time></trkpt><trkpt lat="44.779645422894234" lon="9.396226742424941"><ele>275.0</ele><time>2026-04-11T12:57:36Z</time></trkpt><trkpt lat="44.77958884134128" lon="9.395903861786241"><ele>275.0</ele><time>2026-04-11T12:57:37Z</time></trkpt><trkpt lat="44.779525417242745" lon="9.395580872705303"><ele>275.0</ele><time>2026-04-11T12:57:38Z</time></trkpt><trkpt lat="44.77945529435224" lon="9.395265112834348"><ele>277.5</ele><time>2026-04-11T12:57:39Z</time></trkpt><trkpt lat="44.779376291433515" lon="9.394950250390671"><ele>280.0</ele><time>2026-04-11T12:57:40Z</time></trkpt><trkpt lat="44.779292228327556" lon="9.394640213260091"><ele>266.5</ele><time>2026-04-11T12:57:41Z</time></trkpt><trkpt lat="44.77918823314505" lon="9.394346585297486"><ele>253.0</ele><time>2026-04-11T12:57:42Z</time></trkpt><trkpt lat="44.77908693784476" lon="9.394046138525836"><ele>258.5</ele><time>2026-04-11T12:57:43Z</time></trkpt><trkpt lat="44.77896969131291" lon="9.393766115446747"><ele>264.0</ele><time>2026-04-11T12:57:44Z</time></trkpt><trkpt lat="44.77884777575838" lon="9.39349993857154"><ele>264.0</ele><time>2026-04-11T12:57:45Z</time></trkpt><trkpt lat="44.778722975318246" lon="9.393241243700441"><ele>264.0</ele><time>2026-04-11T12:57:46Z</time></trkpt><trkpt lat="44.77859183325302" lon="9.392991355750473"><ele>264.0</ele><time>2026-04-11T12:57:47Z</time></trkpt><trkpt lat="44.778463868690714" lon="9.392748699400666"><ele>261.0</ele><time>2026-04-11T12:57:48Z</time></trkpt><trkpt lat="44.77833560983697" lon="9.392527150191965"><ele>258.0</ele><time>2026-04-11T12:57:49Z</time></trkpt><trkpt lat="44.778199579117306" lon="9.392313570954295"><ele>255.0</ele><time>2026-04-11T12:57:50Z</time></trkpt><trkpt lat="44.778065676115986" lon="9.392125945095882"><ele>255.25</ele><time>2026-04-11T12:57:51Z</time></trkpt><trkpt lat="44.77795304014148" lon="9.391974079541232"><ele>255.5</ele><time>2026-04-11T12:57:52Z</time></trkpt><trkpt lat="44.777843825779364" lon="9.39184572070256"><ele>255.75</ele><time>2026-04-11T12:57:53Z</time></trkpt><trkpt lat="44.777734246200865" lon="9.39172298803889"><ele>256.0</ele><time>2026-04-11T12:57:54Z</time></trkpt><trkpt lat="44.77763110004149" lon="9.391607676844481"><ele>256.0</ele><time>2026-04-11T12:57:55Z</time></trkpt><trkpt lat="44.777533756378084" lon="9.391494833001106"><ele>256.0</ele><time>2026-04-11T12:57:56Z</time></trkpt><trkpt lat="44.77743734322773" lon="9.391379781682407"><ele>256.0</ele><time>2026-04-11T12:57:57Z</time></trkpt><trkpt lat="44.77731470127102" lon="9.391256160953073"><ele>256.0</ele><time>2026-04-11T12:57:58Z</time></trkpt><trkpt lat="44.77719538312502" lon="9.391135165367988"><ele>256.75</ele><time>2026-04-11T12:57:59Z</time></trkpt><trkpt lat="44.777080583410815" lon="9.391025388792702"><ele>257.5</ele><time>2026-04-11T12:58:00Z</time></trkpt><trkpt lat="44.776974589511255" lon="9.390933531230653"><ele>258.25</ele><time>2026-04-11T12:58:01Z</time></trkpt><trkpt lat="44.77689050726219" lon="9.390833421004688"><ele>259.0</ele><time>2026-04-11T12:58:01.999Z</time></trkpt><trkpt lat="44.77681210909236" lon="9.39075335292236"><ele>259.0</ele><time>2026-04-11T12:58:02.999Z</time></trkpt><trkpt lat="44.7767522782122" lon="9.390650863044442"><ele>259.0</ele><time>2026-04-11T12:58:03.999Z</time></trkpt><trkpt lat="44.7767068929005" lon="9.390540096959674"><ele>259.0</ele><time>2026-04-11T12:58:04.999Z</time></trkpt><trkpt lat="44.776685406967005" lon="9.390400373899338"><ele>259.0</ele><time>2026-04-11T12:58:05.999Z</time></trkpt><trkpt lat="44.77667047784584" lon="9.390251106734079"><ele>259.0</ele><time>2026-04-11T12:58:06.999Z</time></trkpt><trkpt lat="44.776635643241896" lon="9.390123893640462"><ele>261.2</ele><time>2026-04-11T12:58:07.999Z</time></trkpt><trkpt lat="44.77656507564266" lon="9.39002250199867"><ele>263.4</ele><time>2026-04-11T12:58:08.999Z</time></trkpt><trkpt lat="44.776450330475754" lon="9.38999088421268"><ele>265.6</ele><time>2026-04-11T12:58:09.999Z</time></trkpt><trkpt lat="44.776336417234674" lon="9.389985539131464"><ele>267.8</ele><time>2026-04-11T12:58:10.999Z</time></trkpt><trkpt lat="44.77622527890322" lon="9.389939670665967"><ele>270.0</ele><time>2026-04-11T12:58:11.999Z</time></trkpt><trkpt lat="44.7761126279836" lon="9.389853333847395"><ele>269.6666666666667</ele><time>2026-04-11T12:58:12.999Z</time></trkpt><trkpt lat="44.776001293022205" lon="9.38969034613449"><ele>269.33333333333337</ele><time>2026-04-11T12:58:13.999Z</time></trkpt><trkpt lat="44.775888256555895" lon="9.389481636277438"><ele>269.0</ele><time>2026-04-11T12:58:14.999Z</time></trkpt><trkpt lat="44.77578760169918" lon="9.389333220973308"><ele>269.0</ele><time>2026-04-11T12:58:15.999Z</time></trkpt><trkpt lat="44.77567264673881" lon="9.389205219198866"><ele>269.0</ele><time>2026-04-11T12:58:16.999Z</time></trkpt><trkpt lat="44.77557522318185" lon="9.389095911635096"><ele>269.0</ele><time>2026-04-11T12:58:17.999Z</time></trkpt><trkpt lat="44.77551760474705" lon="9.388956951300507"><ele>269.0</ele><time>2026-04-11T12:58:18.999Z</time></trkpt><trkpt lat="44.77545820064332" lon="9.388712101537012"><ele>270.75</ele><time>2026-04-11T12:58:19.999Z</time></trkpt><trkpt lat="44.77539890144837" lon="9.388529164924673"><ele>272.5</ele><time>2026-04-11T12:58:20.999Z</time></trkpt><trkpt lat="44.775348251652304" lon="9.38832864144837"><ele>274.25</ele><time>2026-04-11T12:58:21.999Z</time></trkpt><trkpt lat="44.77529038836186" lon="9.388127519632175"><ele>276.0</ele><time>2026-04-11T12:58:22.999Z</time></trkpt><trkpt lat="44.77523767985473" lon="9.387950033317399"><ele>277.25</ele><time>2026-04-11T12:58:23.999Z</time></trkpt><trkpt lat="44.77519131612792" lon="9.387791819653957"><ele>278.5</ele><time>2026-04-11T12:58:24.999Z</time></trkpt><trkpt lat="44.775140917825176" lon="9.387635351845999"><ele>279.75</ele><time>2026-04-11T12:58:25.999Z</time></trkpt><trkpt lat="44.775082909143705" lon="9.387487875159803"><ele>281.0</ele><time>2026-04-11T12:58:26.999Z</time></trkpt><trkpt lat="44.77502790338322" lon="9.38735631372901"><ele>280.2</ele><time>2026-04-11T12:58:27.999Z</time></trkpt><trkpt lat="44.774972685131786" lon="9.387236228708678"><ele>279.40000000000003</ele><time>2026-04-11T12:58:28.999Z</time></trkpt><trkpt lat="44.77490960312419" lon="9.387128706230516"><ele>278.6</ele><time>2026-04-11T12:58:29.999Z</time></trkpt><trkpt lat="44.774835239912036" lon="9.38703202018202"><ele>277.8</ele><time>2026-04-11T12:58:30.999Z</time></trkpt><trkpt lat="44.77475192055054" lon="9.386947399906983"><ele>277.0</ele><time>2026-04-11T12:58:31.999Z</time></trkpt><trkpt lat="44.77463323507834" lon="9.386895796099353"><ele>277.0</ele><time>2026-04-11T12:58:32.999Z</time></trkpt><trkpt lat="44.7744980167944" lon="9.386839111842313"><ele>277.0</ele><time>2026-04-11T12:58:34Z</time></trkpt><trkpt lat="44.7743796682518" lon="9.38680995083129"><ele>277.0</ele><time>2026-04-11T12:58:35Z</time></trkpt><trkpt lat="44.77426278833365" lon="9.386810195788678"><ele>277.0</ele><time>2026-04-11T12:58:36Z</time></trkpt><trkpt lat="44.77412940152182" lon="9.386814057887547"><ele>274.2</ele><time>2026-04-11T12:58:37Z</time></trkpt><trkpt lat="44.77400892217497" lon="9.386813832067842"><ele>271.4</ele><time>2026-04-11T12:58:38Z</time></trkpt><trkpt lat="44.77390433756575" lon="9.386806705137342"><ele>268.6</ele><time>2026-04-11T12:58:39Z</time></trkpt><trkpt lat="44.773803685759816" lon="9.386799442814848"><ele>265.8</ele><time>2026-04-11T12:58:40Z</time></trkpt><trkpt lat="44.77370898391958" lon="9.386788093491884"><ele>263.0</ele><time>2026-04-11T12:58:41Z</time></trkpt><trkpt lat="44.773605575821456" lon="9.386783216479314"><ele>263.8</ele><time>2026-04-11T12:58:42Z</time></trkpt><trkpt lat="44.77350097276843" lon="9.38677252824809"><ele>264.6</ele><time>2026-04-11T12:58:43Z</time></trkpt><trkpt lat="44.7733934682051" lon="9.386743825519275"><ele>265.4</ele><time>2026-04-11T12:58:44Z</time></trkpt><trkpt lat="44.7732889741237" lon="9.386713293037536"><ele>266.2</ele><time>2026-04-11T12:58:45Z</time></trkpt><trkpt lat="44.77318974028747" lon="9.386695078048188"><ele>267.0</ele><time>2026-04-11T12:58:46Z</time></trkpt><trkpt lat="44.773091224432086" lon="9.386674442873355"><ele>267.0</ele><time>2026-04-11T12:58:47Z</time></trkpt><trkpt lat="44.77299420309476" lon="9.386650935116306"><ele>267.0</ele><time>2026-04-11T12:58:48Z</time></trkpt><trkpt lat="44.77290335685311" lon="9.386631178306349"><ele>267.0</ele><time>2026-04-11T12:58:49Z</time></trkpt><trkpt lat="44.77280582374037" lon="9.386604428501702"><ele>267.0</ele><time>2026-04-11T12:58:50Z</time></trkpt><trkpt lat="44.77271073130506" lon="9.386576560410951"><ele>267.0</ele><time>2026-04-11T12:58:51Z</time></trkpt><trkpt lat="44.77262385386915" lon="9.386552012451384"><ele>267.6666666666667</ele><time>2026-04-11T12:58:52Z</time></trkpt><trkpt lat="44.77254739222355" lon="9.386525241874049"><ele>268.3333333333333</ele><time>2026-04-11T12:58:53Z</time></trkpt><trkpt lat="44.772479313818195" lon="9.386517123135889"><ele>269.0</ele><time>2026-04-11T12:58:54Z</time></trkpt><trkpt lat="44.77240867093176" lon="9.386500977632325"><ele>269.66666666666663</ele><time>2026-04-11T12:58:55Z</time></trkpt><trkpt lat="44.772326112331186" lon="9.386480520715038"><ele>270.3333333333333</ele><time>2026-04-11T12:58:57Z</time></trkpt><trkpt lat="44.77225652391743" lon="9.386516574381368"><ele>271.0</ele><time>2026-04-11T12:58:59Z</time></trkpt><trkpt lat="44.77220301402349" lon="9.386607883104544"><ele>271.0</ele><time>2026-04-11T12:59:01Z</time></trkpt><trkpt lat="44.7722088400036" lon="9.386469830881053"><ele>271.0</ele><time>2026-04-11T12:59:02Z</time></trkpt><trkpt lat="44.77217153062248" lon="9.386616254491186"><ele>271.0</ele><time>2026-04-11T12:59:04Z</time></trkpt><trkpt lat="44.77210668617226" lon="9.386591983961255"><ele>271.0</ele><time>2026-04-11T12:59:30Z</time></trkpt><trkpt lat="44.77203494017632" lon="9.386556913602123"><ele>271.0</ele><time>2026-04-11T13:02:19Z</time></trkpt><trkpt lat="44.771954835957175" lon="9.386532260479214"><ele>271.0</ele><time>2026-04-11T13:02:21Z</time></trkpt><trkpt lat="44.77187895431149" lon="9.386488003707221"><ele>271.40000000000003</ele><time>2026-04-11T13:02:23Z</time></trkpt><trkpt lat="44.77181836778273" lon="9.386408771218205"><ele>271.8</ele><time>2026-04-11T13:02:26Z</time></trkpt><trkpt lat="44.771752538467844" lon="9.386378068592053"><ele>272.20000000000005</ele><time>2026-04-11T13:02:27Z</time></trkpt><trkpt lat="44.77166940550102" lon="9.386348218277702"><ele>272.6</ele><time>2026-04-11T13:02:28Z</time></trkpt><trkpt lat="44.77156891039929" lon="9.386299702429715"><ele>273.0</ele><time>2026-04-11T13:02:29Z</time></trkpt><trkpt lat="44.7714502823613" lon="9.386287548597263"><ele>274.5</ele><time>2026-04-11T13:02:30Z</time></trkpt><trkpt lat="44.771327940177635" lon="9.386240612540249"><ele>276.0</ele><time>2026-04-11T13:02:31Z</time></trkpt><trkpt lat="44.771201496531475" lon="9.386192871944912"><ele>277.5</ele><time>2026-04-11T13:02:32Z</time></trkpt><trkpt lat="44.77107169674527" lon="9.386162568539442"><ele>279.0</ele><time>2026-04-11T13:02:33Z</time></trkpt><trkpt lat="44.77094980417299" lon="9.386134749270827"><ele>280.25</ele><time>2026-04-11T13:02:34Z</time></trkpt><trkpt lat="44.77083110462082" lon="9.386103960833308"><ele>281.5</ele><time>2026-04-11T13:02:35Z</time></trkpt><trkpt lat="44.77069109026041" lon="9.386060910050976"><ele>282.75</ele><time>2026-04-11T13:02:35.999Z</time></trkpt><trkpt lat="44.770585759185366" lon="9.386053283237473"><ele>284.0</ele><time>2026-04-11T13:02:36.999Z</time></trkpt><trkpt lat="44.77046913815179" lon="9.386029619523052"><ele>284.0</ele><time>2026-04-11T13:02:37.999Z</time></trkpt><trkpt lat="44.7703538831538" lon="9.385997676063525"><ele>284.0</ele><time>2026-04-11T13:02:38.999Z</time></trkpt><trkpt lat="44.7702535159055" lon="9.385979388430446"><ele>284.0</ele><time>2026-04-11T13:02:39.999Z</time></trkpt><trkpt lat="44.770181273198226" lon="9.385952879346359"><ele>284.0</ele><time>2026-04-11T13:02:40.999Z</time></trkpt><trkpt lat="44.77013644443794" lon="9.385878674215663"><ele>284.0</ele><time>2026-04-11T13:02:41.999Z</time></trkpt><trkpt lat="44.77010533950263" lon="9.38575737130245"><ele>284.0</ele><time>2026-04-11T13:02:42.999Z</time></trkpt><trkpt lat="44.77011902796594" lon="9.385628056869523"><ele>284.0</ele><time>2026-04-11T13:02:43.999Z</time></trkpt><trkpt lat="44.770175504156406" lon="9.385552717433642"><ele>284.0</ele><time>2026-04-11T13:02:44.999Z</time></trkpt><trkpt lat="44.770175365857014" lon="9.3854319174037"><ele>284.0</ele><time>2026-04-11T13:02:52.001Z</time></trkpt><trkpt lat="44.770177800368444" lon="9.3852628612908"><ele>284.0</ele><time>2026-04-11T13:02:54.001Z</time></trkpt><trkpt lat="44.77017032982028" lon="9.385142725006812"><ele>285.25</ele><time>2026-04-11T13:02:55.001Z</time></trkpt><trkpt lat="44.77014299292145" lon="9.38500863085862"><ele>286.5</ele><time>2026-04-11T13:02:56.001Z</time></trkpt><trkpt lat="44.77008912548137" lon="9.384875765884948"><ele>287.75</ele><time>2026-04-11T13:02:57.001Z</time></trkpt><trkpt lat="44.77001587920941" lon="9.384737925930411"><ele>289.0</ele><time>2026-04-11T13:02:58.001Z</time></trkpt><trkpt lat="44.76993752427734" lon="9.384588381168799"><ele>291.5</ele><time>2026-04-11T13:02:59.001Z</time></trkpt><trkpt lat="44.7698534951982" lon="9.384426560301051"><ele>294.0</ele><time>2026-04-11T13:03:00.001Z</time></trkpt><trkpt lat="44.769771144103174" lon="9.384256289745117"><ele>296.5</ele><time>2026-04-11T13:03:01.001Z</time></trkpt><trkpt lat="44.769683874112204" lon="9.384077790351954"><ele>299.0</ele><time>2026-04-11T13:03:02.001Z</time></trkpt><trkpt lat="44.76959416939382" lon="9.383897842558207"><ele>300.33333333333337</ele><time>2026-04-11T13:03:03.001Z</time></trkpt><trkpt lat="44.769505143212385" lon="9.383714766284854"><ele>301.6666666666667</ele><time>2026-04-11T13:03:04.001Z</time></trkpt><trkpt lat="44.76941840094925" lon="9.383530214612586"><ele>303.0</ele><time>2026-04-11T13:03:05.001Z</time></trkpt><trkpt lat="44.76932768203191" lon="9.38334269481876"><ele>303.0</ele><time>2026-04-11T13:03:06.001Z</time></trkpt><trkpt lat="44.76923464031391" lon="9.38315640788637"><ele>303.0</ele><time>2026-04-11T13:03:07.001Z</time></trkpt><trkpt lat="44.76914553183899" lon="9.38297549149966"><ele>303.0</ele><time>2026-04-11T13:03:08.001Z</time></trkpt><trkpt lat="44.769054428540436" lon="9.382781706435944"><ele>304.6666666666667</ele><time>2026-04-11T13:03:09.001Z</time></trkpt><trkpt lat="44.768959031559646" lon="9.382596456367814"><ele>306.33333333333337</ele><time>2026-04-11T13:03:10.001Z</time></trkpt><trkpt lat="44.76886260066976" lon="9.382409267550372"><ele>308.0</ele><time>2026-04-11T13:03:11.001Z</time></trkpt><trkpt lat="44.76877379292178" lon="9.38222364071521"><ele>309.25</ele><time>2026-04-11T13:03:12.001Z</time></trkpt><trkpt lat="44.76869549399612" lon="9.382052936484481"><ele>310.5</ele><time>2026-04-11T13:03:13.001Z</time></trkpt><trkpt lat="44.76863415268659" lon="9.38187820103949"><ele>311.75</ele><time>2026-04-11T13:03:14.001Z</time></trkpt><trkpt lat="44.76859670100783" lon="9.381696683269327"><ele>313.0</ele><time>2026-04-11T13:03:15.001Z</time></trkpt><trkpt lat="44.768587196068985" lon="9.38151503991321"><ele>314.8</ele><time>2026-04-11T13:03:16.001Z</time></trkpt><trkpt lat="44.76858610408529" lon="9.381348893243258"><ele>316.6</ele><time>2026-04-11T13:03:17.001Z</time></trkpt><trkpt lat="44.7685912250386" lon="9.381213887577465"><ele>318.40000000000003</ele><time>2026-04-11T13:03:18.001Z</time></trkpt><trkpt lat="44.768612772628074" lon="9.381121609010266"><ele>320.20000000000005</ele><time>2026-04-11T13:03:19.001Z</time></trkpt><trkpt lat="44.76874692352882" lon="9.381045377530382"><ele>322.0</ele><time>2026-04-11T13:03:21Z</time></trkpt><trkpt lat="44.76885698766252" lon="9.380990105836814"><ele>322.0</ele><time>2026-04-11T13:03:22Z</time></trkpt><trkpt lat="44.76897604593174" lon="9.380936777591595"><ele>322.0</ele><time>2026-04-11T13:03:23Z</time></trkpt><trkpt lat="44.76910814565437" lon="9.380867449221837"><ele>322.0</ele><time>2026-04-11T13:03:24Z</time></trkpt><trkpt lat="44.76923056115025" lon="9.380805674972706"><ele>322.0</ele><time>2026-04-11T13:03:25Z</time></trkpt><trkpt lat="44.76936190311712" lon="9.380722809553669"><ele>322.75</ele><time>2026-04-11T13:03:26Z</time></trkpt><trkpt lat="44.76948098802276" lon="9.380608904850321"><ele>323.5</ele><time>2026-04-11T13:03:27Z</time></trkpt><trkpt lat="44.769584378479834" lon="9.380463870928496"><ele>324.25</ele><time>2026-04-11T13:03:28Z</time></trkpt><trkpt lat="44.76966835175836" lon="9.380301777697056"><ele>325.0</ele><time>2026-04-11T13:03:29Z</time></trkpt><trkpt lat="44.76973836116244" lon="9.380125335319617"><ele>327.25</ele><time>2026-04-11T13:03:30Z</time></trkpt><trkpt lat="44.76979017926274" lon="9.379937556628436"><ele>329.5</ele><time>2026-04-11T13:03:31Z</time></trkpt><trkpt lat="44.76985606746535" lon="9.379754054659141"><ele>331.75</ele><time>2026-04-11T13:03:32Z</time></trkpt><trkpt lat="44.76992665886745" lon="9.379569863194698"><ele>334.0</ele><time>2026-04-11T13:03:33Z</time></trkpt><trkpt lat="44.77000039237155" lon="9.379382124025163"><ele>337.3333333333333</ele><time>2026-04-11T13:03:34Z</time></trkpt><trkpt lat="44.77007343325421" lon="9.379182462193551"><ele>340.6666666666667</ele><time>2026-04-11T13:03:35Z</time></trkpt><trkpt lat="44.77014061833142" lon="9.378980643802327"><ele>344.0</ele><time>2026-04-11T13:03:36Z</time></trkpt><trkpt lat="44.77019980724035" lon="9.378799064649492"><ele>348.25</ele><time>2026-04-11T13:03:37Z</time></trkpt><trkpt lat="44.77025229889687" lon="9.37866249407955"><ele>352.5</ele><time>2026-04-11T13:03:38Z</time></trkpt><trkpt lat="44.77033049096632" lon="9.37854104205908"><ele>356.75</ele><time>2026-04-11T13:03:39Z</time></trkpt><trkpt lat="44.77045735088047" lon="9.378470566680786"><ele>361.0</ele><time>2026-04-11T13:03:40Z</time></trkpt><trkpt lat="44.77057463206006" lon="9.37834621323124"><ele>361.0</ele><time>2026-04-11T13:03:41Z</time></trkpt><trkpt lat="44.77070516825281" lon="9.378222966482067"><ele>361.0</ele><time>2026-04-11T13:03:42Z</time></trkpt><trkpt lat="44.770821738104424" lon="9.378084450180076"><ele>361.0</ele><time>2026-04-11T13:03:43Z</time></trkpt><trkpt lat="44.770931098375016" lon="9.377999498368654"><ele>361.0</ele><time>2026-04-11T13:03:44Z</time></trkpt><trkpt lat="44.77101660876496" lon="9.377945557420906"><ele>365.20000000000005</ele><time>2026-04-11T13:03:45Z</time></trkpt><trkpt lat="44.771091009952876" lon="9.377897319852705"><ele>369.40000000000003</ele><time>2026-04-11T13:03:46Z</time></trkpt><trkpt lat="44.77116595190943" lon="9.377797015175098"><ele>373.6</ele><time>2026-04-11T13:03:47Z</time></trkpt><trkpt lat="44.77123085544491" lon="9.377668991750326"><ele>377.8</ele><time>2026-04-11T13:03:48Z</time></trkpt><trkpt lat="44.77129530254642" lon="9.377514102186677"><ele>382.0</ele><time>2026-04-11T13:03:49Z</time></trkpt><trkpt lat="44.77137608893226" lon="9.377359302579075"><ele>382.0</ele><time>2026-04-11T13:03:50Z</time></trkpt><trkpt lat="44.77147985595504" lon="9.377174125682203"><ele>382.0</ele><time>2026-04-11T13:03:51Z</time></trkpt><trkpt lat="44.771552931359565" lon="9.37705308507298"><ele>382.0</ele><time>2026-04-11T13:03:52Z</time></trkpt><trkpt lat="44.77163879411775" lon="9.3769578528086"><ele>382.0</ele><time>2026-04-11T13:03:53Z</time></trkpt><trkpt lat="44.77168015120323" lon="9.376882272458438"><ele>382.0</ele><time>2026-04-11T13:03:54Z</time></trkpt><trkpt lat="44.77175794887712" lon="9.376842198877421"><ele>382.0</ele><time>2026-04-11T13:03:55Z</time></trkpt><trkpt lat="44.77184470025504" lon="9.376764373826088"><ele>382.0</ele><time>2026-04-11T13:03:56Z</time></trkpt><trkpt lat="44.771911629419265" lon="9.37666382691328"><ele>382.0</ele><time>2026-04-11T13:03:57Z</time></trkpt><trkpt lat="44.77198764781851" lon="9.376610168752507"><ele>382.0</ele><time>2026-04-11T13:03:58Z</time></trkpt><trkpt lat="44.77206403556817" lon="9.376548502556087"><ele>382.0</ele><time>2026-04-11T13:03:59Z</time></trkpt><trkpt lat="44.77215365072911" lon="9.376465888356448"><ele>382.0</ele><time>2026-04-11T13:04:00Z</time></trkpt><trkpt lat="44.77225406017496" lon="9.376393708387237"><ele>382.0</ele><time>2026-04-11T13:04:01Z</time></trkpt><trkpt lat="44.77234666844855" lon="9.376334175381153"><ele>382.0</ele><time>2026-04-11T13:04:02Z</time></trkpt><trkpt lat="44.772430228177576" lon="9.376319976961236"><ele>382.0</ele><time>2026-04-11T13:04:03Z</time></trkpt><trkpt lat="44.77252039622819" lon="9.376293877740409"><ele>382.0</ele><time>2026-04-11T13:04:04Z</time></trkpt><trkpt lat="44.77261292844682" lon="9.376285935265178"><ele>382.0</ele><time>2026-04-11T13:04:05Z</time></trkpt><trkpt lat="44.77271921552718" lon="9.37628366900851"><ele>382.0</ele><time>2026-04-11T13:04:06Z</time></trkpt><trkpt lat="44.7728322014919" lon="9.376288538309835"><ele>382.0</ele><time>2026-04-11T13:04:07Z</time></trkpt><trkpt lat="44.7729463639658" lon="9.376305267947412"><ele>382.0</ele><time>2026-04-11T13:04:08Z</time></trkpt><trkpt lat="44.773053807722256" lon="9.376326088745593"><ele>386.0</ele><time>2026-04-11T13:04:09Z</time></trkpt><trkpt lat="44.7731491918121" lon="9.376344384838852"><ele>390.0</ele><time>2026-04-11T13:04:10Z</time></trkpt><trkpt lat="44.77330133924316" lon="9.376219133798784"><ele>394.0</ele><time>2026-04-11T13:04:12Z</time></trkpt><trkpt lat="44.77339125139314" lon="9.376114719830294"><ele>398.0</ele><time>2026-04-11T13:04:13Z</time></trkpt><trkpt lat="44.77348934712671" lon="9.376057414632973"><ele>402.0</ele><time>2026-04-11T13:04:14Z</time></trkpt><trkpt lat="44.77358787800742" lon="9.376020200457637"><ele>406.0</ele><time>2026-04-11T13:04:15Z</time></trkpt><trkpt lat="44.773654880267046" lon="9.375916715541347"><ele>410.0</ele><time>2026-04-11T13:04:16Z</time></trkpt><trkpt lat="44.773726362083444" lon="9.375815413819716"><ele>414.0</ele><time>2026-04-11T13:04:17Z</time></trkpt><trkpt lat="44.77379535153486" lon="9.375699367197488"><ele>418.0</ele><time>2026-04-11T13:04:18Z</time></trkpt><trkpt lat="44.77385918451118" lon="9.375570747635143"><ele>417.59999999999997</ele><time>2026-04-11T13:04:19Z</time></trkpt><trkpt lat="44.773941769888275" lon="9.375468563677074"><ele>417.2</ele><time>2026-04-11T13:04:20Z</time></trkpt><trkpt lat="44.774038477391926" lon="9.37538905051857"><ele>416.8</ele><time>2026-04-11T13:04:21Z</time></trkpt><trkpt lat="44.77409155748243" lon="9.375259051310678"><ele>416.4</ele><time>2026-04-11T13:04:22Z</time></trkpt><trkpt lat="44.77414857641478" lon="9.375124965616285"><ele>416.0</ele><time>2026-04-11T13:04:23Z</time></trkpt><trkpt lat="44.77422183774178" lon="9.375007342980775"><ele>416.0</ele><time>2026-04-11T13:04:24Z</time></trkpt><trkpt lat="44.77429145831888" lon="9.374890385443017"><ele>416.0</ele><time>2026-04-11T13:04:25Z</time></trkpt><trkpt lat="44.774356303435425" lon="9.37478291867831"><ele>416.0</ele><time>2026-04-11T13:04:26Z</time></trkpt><trkpt lat="44.774411992838495" lon="9.374682833038507"><ele>416.0</ele><time>2026-04-11T13:04:27Z</time></trkpt><trkpt lat="44.774464111996174" lon="9.374584137926536"><ele>416.0</ele><time>2026-04-11T13:04:29Z</time></trkpt><trkpt lat="44.77451237235253" lon="9.374488702995054"><ele>417.8333333333333</ele><time>2026-04-11T13:04:30Z</time></trkpt><trkpt lat="44.77455990369943" lon="9.374390610622326"><ele>419.66666666666663</ele><time>2026-04-11T13:04:31Z</time></trkpt><trkpt lat="44.774619384910324" lon="9.374264042571028"><ele>421.5</ele><time>2026-04-11T13:04:32Z</time></trkpt><trkpt lat="44.77466166199754" lon="9.374171267194773"><ele>423.33333333333337</ele><time>2026-04-11T13:04:33Z</time></trkpt><trkpt lat="44.77469338021787" lon="9.37408558648771"><ele>425.1666666666667</ele><time>2026-04-11T13:04:35Z</time></trkpt><trkpt lat="44.77472412512306" lon="9.373966653855664"><ele>427.0</ele><time>2026-04-11T13:04:44.999Z</time></trkpt><trkpt lat="44.774749070113906" lon="9.37387483305261"><ele>428.1666666666667</ele><time>2026-04-11T13:04:45.999Z</time></trkpt><trkpt lat="44.77476793097238" lon="9.373775579357337"><ele>429.33333333333337</ele><time>2026-04-11T13:04:46.999Z</time></trkpt><trkpt lat="44.774804737733504" lon="9.373667286567047"><ele>430.5</ele><time>2026-04-11T13:04:47.999Z</time></trkpt><trkpt lat="44.774833675354266" lon="9.373575630837163"><ele>431.66666666666663</ele><time>2026-04-11T13:04:48.999Z</time></trkpt><trkpt lat="44.774852817942154" lon="9.3734708242141"><ele>432.8333333333333</ele><time>2026-04-11T13:04:49.999Z</time></trkpt><trkpt lat="44.77486790236895" lon="9.373360687035904"><ele>434.0</ele><time>2026-04-11T13:04:50.999Z</time></trkpt><trkpt lat="44.774890546421474" lon="9.373246936044868"><ele>433.99999999999994</ele><time>2026-04-11T13:04:52.001Z</time></trkpt><trkpt lat="44.77487754693962" lon="9.373113353344454"><ele>434.0</ele><time>2026-04-11T13:04:53.001Z</time></trkpt><trkpt lat="44.774870559640036" lon="9.372986948564915"><ele>434.0</ele><time>2026-04-11T13:04:54.001Z</time></trkpt><trkpt lat="44.7748922427287" lon="9.372854328688222"><ele>434.0</ele><time>2026-04-11T13:04:55.001Z</time></trkpt><trkpt lat="44.77491437689336" lon="9.372758993896388"><ele>433.99999999999994</ele><time>2026-04-11T13:04:56.001Z</time></trkpt><trkpt lat="44.77493537506181" lon="9.3726639706269"><ele>434.0</ele><time>2026-04-11T13:04:57.001Z</time></trkpt><trkpt lat="44.77500435584599" lon="9.372527639500918"><ele>436.4</ele><time>2026-04-11T13:04:59.001Z</time></trkpt><trkpt lat="44.77506406754823" lon="9.372448356045336"><ele>438.79999999999995</ele><time>2026-04-11T13:05:00.001Z</time></trkpt><trkpt lat="44.775101149101566" lon="9.372376021004111"><ele>441.20000000000005</ele><time>2026-04-11T13:05:01.001Z</time></trkpt><trkpt lat="44.775136992116394" lon="9.37225001796798"><ele>443.6</ele><time>2026-04-11T13:05:03Z</time></trkpt><trkpt lat="44.77516771864194" lon="9.372099527463522"><ele>446.0</ele><time>2026-04-11T13:05:05Z</time></trkpt><trkpt lat="44.77517422546682" lon="9.37193799315172"><ele>444.4</ele><time>2026-04-11T13:05:07Z</time></trkpt><trkpt lat="44.775209672509526" lon="9.37178607987958"><ele>442.8</ele><time>2026-04-11T13:05:09Z</time></trkpt><trkpt lat="44.775211917894694" lon="9.371640561199742"><ele>441.19999999999993</ele><time>2026-04-11T13:05:11Z</time></trkpt><trkpt lat="44.77521087501756" lon="9.371456640667631"><ele>439.59999999999997</ele><time>2026-04-11T13:05:13Z</time></trkpt><trkpt lat="44.77521080614936" lon="9.371363153523266"><ele>438.0</ele><time>2026-04-11T13:05:14Z</time></trkpt><trkpt lat="44.7752113633491" lon="9.371247531986482"><ele>438.0</ele><time>2026-04-11T13:05:15Z</time></trkpt><trkpt lat="44.775206960421116" lon="9.371119759455466"><ele>437.99999999999994</ele><time>2026-04-11T13:05:16Z</time></trkpt><trkpt lat="44.77521248760877" lon="9.370985106883774"><ele>437.99999999999994</ele><time>2026-04-11T13:05:17Z</time></trkpt><trkpt lat="44.775220505564995" lon="9.370876393137133"><ele>438.0</ele><time>2026-04-11T13:05:18Z</time></trkpt><trkpt lat="44.77523248414023" lon="9.370752749979978"><ele>438.0</ele><time>2026-04-11T13:05:19Z</time></trkpt><trkpt lat="44.77523670166544" lon="9.37058894692527"><ele>441.59999999999997</ele><time>2026-04-11T13:05:20Z</time></trkpt><trkpt lat="44.775269575415926" lon="9.370465455621186"><ele>445.19999999999993</ele><time>2026-04-11T13:05:21Z</time></trkpt><trkpt lat="44.775291391722554" lon="9.370338358783485"><ele>448.8</ele><time>2026-04-11T13:05:22Z</time></trkpt><trkpt lat="44.775312046126395" lon="9.370190961227626"><ele>452.4</ele><time>2026-04-11T13:05:23Z</time></trkpt><trkpt lat="44.77533804544561" lon="9.370078129111358"><ele>456.0</ele><time>2026-04-11T13:05:24Z</time></trkpt><trkpt lat="44.77535476589102" lon="9.369967170944909"><ele>456.0</ele><time>2026-04-11T13:05:25Z</time></trkpt><trkpt lat="44.77538447169688" lon="9.369836017749286"><ele>456.0</ele><time>2026-04-11T13:05:26Z</time></trkpt><trkpt lat="44.77542536970512" lon="9.36968067063267"><ele>456.0</ele><time>2026-04-11T13:05:27Z</time></trkpt><trkpt lat="44.775465921540906" lon="9.3695394683642"><ele>456.0</ele><time>2026-04-11T13:05:28Z</time></trkpt><trkpt lat="44.77551078414129" lon="9.369419520979658"><ele>456.0</ele><time>2026-04-11T13:05:29Z</time></trkpt><trkpt lat="44.77554062394948" lon="9.369300737129661"><ele>458.5</ele><time>2026-04-11T13:05:30Z</time></trkpt><trkpt lat="44.77556203331891" lon="9.369181054711891"><ele>461.0</ele><time>2026-04-11T13:05:31Z</time></trkpt><trkpt lat="44.77557936020216" lon="9.369063359301316"><ele>463.5</ele><time>2026-04-11T13:05:32Z</time></trkpt><trkpt lat="44.77561974778059" lon="9.3689288470366"><ele>466.0</ele><time>2026-04-11T13:05:34Z</time></trkpt><trkpt lat="44.775641728918174" lon="9.368831675070235"><ele>468.5</ele><time>2026-04-11T13:05:35Z</time></trkpt><trkpt lat="44.7756902422163" lon="9.368736128989628"><ele>471.0</ele><time>2026-04-11T13:05:36Z</time></trkpt><trkpt lat="44.77574218043437" lon="9.368657193660665"><ele>472.0</ele><time>2026-04-11T13:05:37Z</time></trkpt><trkpt lat="44.77579787524587" lon="9.368589940922565"><ele>473.0</ele><time>2026-04-11T13:05:38Z</time></trkpt><trkpt lat="44.77585698946998" lon="9.368493709880955"><ele>474.0</ele><time>2026-04-11T13:05:39Z</time></trkpt><trkpt lat="44.775923533036874" lon="9.368372078066987"><ele>475.0</ele><time>2026-04-11T13:05:40Z</time></trkpt><trkpt lat="44.77597507055055" lon="9.36825003243895"><ele>476.0</ele><time>2026-04-11T13:05:41Z</time></trkpt><trkpt lat="44.77603025237624" lon="9.368126397402483"><ele>476.4</ele><time>2026-04-11T13:05:42Z</time></trkpt><trkpt lat="44.77608424463473" lon="9.367995210211904"><ele>476.8</ele><time>2026-04-11T13:05:43Z</time></trkpt><trkpt lat="44.776125420405954" lon="9.36786045549717"><ele>477.19999999999993</ele><time>2026-04-11T13:05:44Z</time></trkpt><trkpt lat="44.776156531760414" lon="9.367756683148286"><ele>477.59999999999997</ele><time>2026-04-11T13:05:45Z</time></trkpt><trkpt lat="44.77620606882697" lon="9.367671626912246"><ele>478.0</ele><time>2026-04-11T13:05:46Z</time></trkpt><trkpt lat="44.77625268155154" lon="9.367574375542995"><ele>478.0</ele><time>2026-04-11T13:05:47Z</time></trkpt><trkpt lat="44.77630907200199" lon="9.367471827828625"><ele>477.99999999999994</ele><time>2026-04-11T13:05:48Z</time></trkpt><trkpt lat="44.77636310161051" lon="9.367411129703846"><ele>477.99999999999994</ele><time>2026-04-11T13:05:49Z</time></trkpt><trkpt lat="44.77642504906626" lon="9.367319728872914"><ele>478.0</ele><time>2026-04-11T13:05:50Z</time></trkpt><trkpt lat="44.77649946166755" lon="9.367228749586916"><ele>478.0</ele><time>2026-04-11T13:05:52Z</time></trkpt><trkpt lat="44.776596990294244" lon="9.36712069321485"><ele>478.4</ele><time>2026-04-11T13:05:54Z</time></trkpt><trkpt lat="44.776699853591026" lon="9.367034271050468"><ele>478.79999999999995</ele><time>2026-04-11T13:05:55Z</time></trkpt><trkpt lat="44.776768626316674" lon="9.366902699441711"><ele>479.2</ele><time>2026-04-11T13:05:56Z</time></trkpt><trkpt lat="44.77684506627447" lon="9.366824381045069"><ele>479.6</ele><time>2026-04-11T13:05:57Z</time></trkpt><trkpt lat="44.77690133169219" lon="9.366769266474712"><ele>480.0</ele><time>2026-04-11T13:05:58Z</time></trkpt><trkpt lat="44.776959736769015" lon="9.36671395304424"><ele>480.8</ele><time>2026-04-11T13:05:59Z</time></trkpt><trkpt lat="44.77703731043658" lon="9.36665387879037"><ele>481.6</ele><time>2026-04-11T13:06:00Z</time></trkpt><trkpt lat="44.77712154477986" lon="9.366559856335899"><ele>482.4</ele><time>2026-04-11T13:06:01Z</time></trkpt><trkpt lat="44.77718988755108" lon="9.366469275161466"><ele>483.2</ele><time>2026-04-11T13:06:02Z</time></trkpt><trkpt lat="44.777231649418454" lon="9.366354191340378"><ele>484.0</ele><time>2026-04-11T13:06:03Z</time></trkpt><trkpt lat="44.77729858306629" lon="9.366249640528869"><ele>485.6</ele><time>2026-04-11T13:06:04Z</time></trkpt><trkpt lat="44.77736393692617" lon="9.366138893586664"><ele>487.2</ele><time>2026-04-11T13:06:05Z</time></trkpt><trkpt lat="44.77741441222562" lon="9.366030475119922"><ele>488.80000000000007</ele><time>2026-04-11T13:06:06Z</time></trkpt><trkpt lat="44.77746249397026" lon="9.365915093005478"><ele>490.40000000000003</ele><time>2026-04-11T13:06:07Z</time></trkpt><trkpt lat="44.777513812570966" lon="9.365808794923487"><ele>492.0</ele><time>2026-04-11T13:06:08Z</time></trkpt><trkpt lat="44.77754752244662" lon="9.365711930708136"><ele>492.0</ele><time>2026-04-11T13:06:09Z</time></trkpt><trkpt lat="44.77758357614218" lon="9.365601314213807"><ele>492.00000000000006</ele><time>2026-04-11T13:06:10Z</time></trkpt><trkpt lat="44.77761731929048" lon="9.365485339874708"><ele>492.00000000000006</ele><time>2026-04-11T13:06:11Z</time></trkpt><trkpt lat="44.77764291800637" lon="9.365357547505145"><ele>492.0</ele><time>2026-04-11T13:06:12Z</time></trkpt><trkpt lat="44.77768021175418" lon="9.365221686823327"><ele>492.0</ele><time>2026-04-11T13:06:13Z</time></trkpt><trkpt lat="44.77771689723069" lon="9.365076910530167"><ele>490.6</ele><time>2026-04-11T13:06:14Z</time></trkpt><trkpt lat="44.77775108057975" lon="9.364928268455502"><ele>489.20000000000005</ele><time>2026-04-11T13:06:15Z</time></trkpt><trkpt lat="44.77778036572494" lon="9.364826150442111"><ele>487.8</ele><time>2026-04-11T13:06:16Z</time></trkpt><trkpt lat="44.77782697443977" lon="9.364742333601418"><ele>486.4</ele><time>2026-04-11T13:06:17Z</time></trkpt><trkpt lat="44.77786579081121" lon="9.364665938537465"><ele>485.0</ele><time>2026-04-11T13:06:18Z</time></trkpt><trkpt lat="44.777953050912664" lon="9.364511139571537"><ele>488.4</ele><time>2026-04-11T13:06:20Z</time></trkpt><trkpt lat="44.77802429690711" lon="9.364398650078115"><ele>491.8</ele><time>2026-04-11T13:06:21Z</time></trkpt><trkpt lat="44.778105928456306" lon="9.364271603919496"><ele>495.20000000000005</ele><time>2026-04-11T13:06:22Z</time></trkpt><trkpt lat="44.77816091208034" lon="9.364146773127647"><ele>498.6</ele><time>2026-04-11T13:06:23Z</time></trkpt><trkpt lat="44.77820496647194" lon="9.36406089120574"><ele>502.0</ele><time>2026-04-11T13:06:24Z</time></trkpt><trkpt lat="44.77826547131665" lon="9.363961476863434"><ele>504.6</ele><time>2026-04-11T13:06:24.999Z</time></trkpt><trkpt lat="44.77831640378411" lon="9.36384049202591"><ele>507.20000000000005</ele><time>2026-04-11T13:06:25.999Z</time></trkpt><trkpt lat="44.77836750642584" lon="9.363733805773501"><ele>509.8</ele><time>2026-04-11T13:06:26.999Z</time></trkpt><trkpt lat="44.77839488171591" lon="9.36361304389177"><ele>512.4</ele><time>2026-04-11T13:06:27.999Z</time></trkpt><trkpt lat="44.77845552317665" lon="9.363519221148954"><ele>515.0</ele><time>2026-04-11T13:06:28.999Z</time></trkpt><trkpt lat="44.77850615988996" lon="9.363404931776849"><ele>518.1666666666666</ele><time>2026-04-11T13:06:29.999Z</time></trkpt><trkpt lat="44.778551421080316" lon="9.363302775000761"><ele>521.3333333333333</ele><time>2026-04-11T13:06:30.999Z</time></trkpt><trkpt lat="44.778598494276444" lon="9.363202385059163"><ele>524.5</ele><time>2026-04-11T13:06:31.999Z</time></trkpt><trkpt lat="44.77864692930447" lon="9.363103308471317"><ele>527.6666666666666</ele><time>2026-04-11T13:06:32.999Z</time></trkpt><trkpt lat="44.77870709472093" lon="9.362986659036512"><ele>530.8333333333334</ele><time>2026-04-11T13:06:33.999Z</time></trkpt><trkpt lat="44.77875139389684" lon="9.362906014713884"><ele>534.0</ele><time>2026-04-11T13:06:34.999Z</time></trkpt><trkpt lat="44.77880494865004" lon="9.362816217264673"><ele>534.25</ele><time>2026-04-11T13:06:36.999Z</time></trkpt><trkpt lat="44.778940078955536" lon="9.362649094874453"><ele>534.5</ele><time>2026-04-11T13:06:38.999Z</time></trkpt><trkpt lat="44.779013641518574" lon="9.362587278066336"><ele>534.75</ele><time>2026-04-11T13:06:39.999Z</time></trkpt><trkpt lat="44.77910866385287" lon="9.362531324475173"><ele>535.0</ele><time>2026-04-11T13:06:41.999Z</time></trkpt><trkpt lat="44.779245420959185" lon="9.362479574225919"><ele>535.0</ele><time>2026-04-11T13:06:43.999Z</time></trkpt><trkpt lat="44.77931379347923" lon="9.362465667276824"><ele>535.0</ele><time>2026-04-11T13:06:44.999Z</time></trkpt><trkpt lat="44.779379540120836" lon="9.362459022083469"><ele>535.0</ele><time>2026-04-11T13:06:45.999Z</time></trkpt><trkpt lat="44.7794866464953" lon="9.36247947339203"><ele>535.0</ele><time>2026-04-11T13:06:47.999Z</time></trkpt><trkpt lat="44.7796114774715" lon="9.362514435804522"><ele>535.0</ele><time>2026-04-11T13:06:49.999Z</time></trkpt><trkpt lat="44.77969532571527" lon="9.362536022124795"><ele>536.6666666666667</ele><time>2026-04-11T13:06:50.999Z</time></trkpt><trkpt lat="44.779768278508946" lon="9.362553137423296"><ele>538.3333333333334</ele><time>2026-04-11T13:06:51.999Z</time></trkpt><trkpt lat="44.77985432176766" lon="9.362570841246743"><ele>540.0</ele><time>2026-04-11T13:06:52.999Z</time></trkpt><trkpt lat="44.77992702238796" lon="9.362579782375962"><ele>541.6666666666666</ele><time>2026-04-11T13:06:53.999Z</time></trkpt><trkpt lat="44.77999232148746" lon="9.362554937405498"><ele>543.3333333333333</ele><time>2026-04-11T13:06:54.999Z</time></trkpt><trkpt lat="44.780105222277086" lon="9.362507870496204"><ele>545.0</ele><time>2026-04-11T13:06:57Z</time></trkpt><trkpt lat="44.78018227050938" lon="9.362481220775178"><ele>542.2</ele><time>2026-04-11T13:06:58Z</time></trkpt><trkpt lat="44.78024677060332" lon="9.362407561973786"><ele>539.4</ele><time>2026-04-11T13:06:59Z</time></trkpt><trkpt lat="44.78032477171996" lon="9.362381516115555"><ele>536.6</ele><time>2026-04-11T13:07:00Z</time></trkpt><trkpt lat="44.7804384318347" lon="9.362312273545648"><ele>533.8</ele><time>2026-04-11T13:07:02Z</time></trkpt><trkpt lat="44.7805466753305" lon="9.362273979411956"><ele>531.0</ele><time>2026-04-11T13:07:03Z</time></trkpt><trkpt lat="44.78061848719108" lon="9.3622398555988"><ele>531.0</ele><time>2026-04-11T13:07:04Z</time></trkpt><trkpt lat="44.78069056827863" lon="9.362202420796502"><ele>531.0</ele><time>2026-04-11T13:07:05Z</time></trkpt><trkpt lat="44.78076134839048" lon="9.362153543906915"><ele>531.0</ele><time>2026-04-11T13:07:06Z</time></trkpt><trkpt lat="44.78082855799871" lon="9.362107907149806"><ele>531.0</ele><time>2026-04-11T13:07:07Z</time></trkpt><trkpt lat="44.780867987567376" lon="9.361947667363227"><ele>531.0</ele><time>2026-04-11T13:07:09Z</time></trkpt><trkpt lat="44.78087129930679" lon="9.361850607502253"><ele>531.0</ele><time>2026-04-11T13:07:10Z</time></trkpt><trkpt lat="44.78084267577304" lon="9.361680214422964"><ele>534.8</ele><time>2026-04-11T13:07:12Z</time></trkpt><trkpt lat="44.780836688755166" lon="9.361559236408448"><ele>538.6</ele><time>2026-04-11T13:07:13Z</time></trkpt><trkpt lat="44.780897279280076" lon="9.361382315026912"><ele>542.4</ele><time>2026-04-11T13:07:15Z</time></trkpt><trkpt lat="44.780946382264844" lon="9.361284495594658"><ele>546.2</ele><time>2026-04-11T13:07:16Z</time></trkpt><trkpt lat="44.781014360718665" lon="9.361200574361119"><ele>550.0</ele><time>2026-04-11T13:07:17Z</time></trkpt><trkpt lat="44.78109568942973" lon="9.361115502050202"><ele>550.6</ele><time>2026-04-11T13:07:18Z</time></trkpt><trkpt lat="44.78118014566925" lon="9.36104891592965"><ele>551.2</ele><time>2026-04-11T13:07:19Z</time></trkpt><trkpt lat="44.781255763711805" lon="9.360945136379256"><ele>551.8</ele><time>2026-04-11T13:07:21Z</time></trkpt><trkpt lat="44.78130542033148" lon="9.36078999088379"><ele>552.4</ele><time>2026-04-11T13:07:23Z</time></trkpt><trkpt lat="44.78134520956505" lon="9.360674931802986"><ele>553.0</ele><time>2026-04-11T13:07:24Z</time></trkpt><trkpt lat="44.78138916854195" lon="9.360569834350727"><ele>555.0</ele><time>2026-04-11T13:07:25Z</time></trkpt><trkpt lat="44.781463691719345" lon="9.360502871895871"><ele>557.0</ele><time>2026-04-11T13:07:27Z</time></trkpt><trkpt lat="44.78154242003034" lon="9.360485129614068"><ele>559.0</ele><time>2026-04-11T13:07:28Z</time></trkpt><trkpt lat="44.78163512715439" lon="9.360441555160794"><ele>561.0</ele><time>2026-04-11T13:07:29Z</time></trkpt><trkpt lat="44.7817318974598" lon="9.360421315053287"><ele>563.0</ele><time>2026-04-11T13:07:30Z</time></trkpt><trkpt lat="44.78180599989157" lon="9.36037973610787"><ele>565.0</ele><time>2026-04-11T13:07:31Z</time></trkpt><trkpt lat="44.78192958250337" lon="9.360304283124636"><ele>567.2</ele><time>2026-04-11T13:07:33Z</time></trkpt><trkpt lat="44.782007913268345" lon="9.360271397417398"><ele>569.4</ele><time>2026-04-11T13:07:34Z</time></trkpt><trkpt lat="44.7821011007181" lon="9.360229699185718"><ele>571.6</ele><time>2026-04-11T13:07:35Z</time></trkpt><trkpt lat="44.78216597654497" lon="9.360207869334909"><ele>573.8</ele><time>2026-04-11T13:07:36Z</time></trkpt><trkpt lat="44.782301408205065" lon="9.360197706785042"><ele>576.0</ele><time>2026-04-11T13:07:38Z</time></trkpt><trkpt lat="44.7823726873061" lon="9.360103795056958"><ele>576.0</ele><time>2026-04-11T13:07:40Z</time></trkpt><trkpt lat="44.782470227769785" lon="9.360102669311992"><ele>576.0</ele><time>2026-04-11T13:07:43Z</time></trkpt><trkpt lat="44.782543115311995" lon="9.360157567451722"><ele>576.0</ele><time>2026-04-11T13:07:44Z</time></trkpt><trkpt lat="44.78263963106166" lon="9.360184250045704"><ele>576.0</ele><time>2026-04-11T13:07:45Z</time></trkpt><trkpt lat="44.782730442479725" lon="9.360183628617438"><ele>576.0</ele><time>2026-04-11T13:07:46Z</time></trkpt><trkpt lat="44.78282648524895" lon="9.360120043407731"><ele>577.5</ele><time>2026-04-11T13:07:47Z</time></trkpt><trkpt lat="44.78290708172179" lon="9.360004577813692"><ele>579.0</ele><time>2026-04-11T13:07:48Z</time></trkpt><trkpt lat="44.78298417114371" lon="9.359869106709017"><ele>580.5</ele><time>2026-04-11T13:07:49Z</time></trkpt><trkpt lat="44.783040731440934" lon="9.359699474130316"><ele>582.0</ele><time>2026-04-11T13:07:50Z</time></trkpt><trkpt lat="44.783065985777846" lon="9.359520668804324"><ele>584.25</ele><time>2026-04-11T13:07:51Z</time></trkpt><trkpt lat="44.78303474321452" lon="9.35939111777964"><ele>586.5</ele><time>2026-04-11T13:07:52Z</time></trkpt><trkpt lat="44.78296074265164" lon="9.359278185018923"><ele>588.75</ele><time>2026-04-11T13:07:53Z</time></trkpt><trkpt lat="44.782856139404174" lon="9.359157934476842"><ele>591.0</ele><time>2026-04-11T13:07:54Z</time></trkpt><trkpt lat="44.78276199527016" lon="9.359030627486218"><ele>590.5</ele><time>2026-04-11T13:07:55Z</time></trkpt><trkpt lat="44.78266613735723" lon="9.358884548405811"><ele>590.0</ele><time>2026-04-11T13:07:56Z</time></trkpt><trkpt lat="44.78256584718651" lon="9.35874628558299"><ele>589.5</ele><time>2026-04-11T13:07:57Z</time></trkpt><trkpt lat="44.78252599602235" lon="9.35861404732232"><ele>589.0</ele><time>2026-04-11T13:07:58Z</time></trkpt><trkpt lat="44.782546018885064" lon="9.358483103503834"><ele>589.0</ele><time>2026-04-11T13:07:59Z</time></trkpt><trkpt lat="44.782616915547834" lon="9.358383164761102"><ele>589.0</ele><time>2026-04-11T13:08:00Z</time></trkpt><trkpt lat="44.782717231904684" lon="9.35828907708737"><ele>589.0</ele><time>2026-04-11T13:08:01Z</time></trkpt><trkpt lat="44.782818061917446" lon="9.35819684471112"><ele>589.0</ele><time>2026-04-11T13:08:02Z</time></trkpt><trkpt lat="44.78293814970439" lon="9.35805562466064"><ele>592.4</ele><time>2026-04-11T13:08:03Z</time></trkpt><trkpt lat="44.7830583538416" lon="9.357929470874858"><ele>595.8</ele><time>2026-04-11T13:08:04Z</time></trkpt><trkpt lat="44.7831418261107" lon="9.357817966667367"><ele>599.2</ele><time>2026-04-11T13:08:05Z</time></trkpt><trkpt lat="44.783171071229084" lon="9.357719877645843"><ele>602.6</ele><time>2026-04-11T13:08:06Z</time></trkpt><trkpt lat="44.78315264186063" lon="9.357602283975908"><ele>606.0</ele><time>2026-04-11T13:08:07Z</time></trkpt><trkpt lat="44.78311242297092" lon="9.357462668952715"><ele>606.0</ele><time>2026-04-11T13:08:08Z</time></trkpt><trkpt lat="44.783036805544306" lon="9.357302142905025"><ele>606.0</ele><time>2026-04-11T13:08:09Z</time></trkpt><trkpt lat="44.78293872369072" lon="9.357133872330978"><ele>606.0</ele><time>2026-04-11T13:08:10Z</time></trkpt><trkpt lat="44.78284555424752" lon="9.356945709847698"><ele>606.75</ele><time>2026-04-11T13:08:11Z</time></trkpt><trkpt lat="44.782756275763845" lon="9.356773313214587"><ele>607.5</ele><time>2026-04-11T13:08:12Z</time></trkpt><trkpt lat="44.78270295923582" lon="9.35659239250621"><ele>608.25</ele><time>2026-04-11T13:08:13Z</time></trkpt><trkpt lat="44.78268490092168" lon="9.356464034250852"><ele>609.0</ele><time>2026-04-11T13:08:14Z</time></trkpt><trkpt lat="44.78272542576621" lon="9.356361224359965"><ele>609.0</ele><time>2026-04-11T13:08:15Z</time></trkpt><trkpt lat="44.782809902342954" lon="9.356306286023209"><ele>609.0</ele><time>2026-04-11T13:08:16Z</time></trkpt><trkpt lat="44.7829188571637" lon="9.356274267073973"><ele>609.0</ele><time>2026-04-11T13:08:17Z</time></trkpt><trkpt lat="44.783041612131356" lon="9.356302490691638"><ele>609.0</ele><time>2026-04-11T13:08:18Z</time></trkpt><trkpt lat="44.78317079741295" lon="9.356408590929878"><ele>610.3333333333334</ele><time>2026-04-11T13:08:19Z</time></trkpt><trkpt lat="44.78331308417376" lon="9.356501930810008"><ele>611.6666666666667</ele><time>2026-04-11T13:08:19.999Z</time></trkpt><trkpt lat="44.783460333210414" lon="9.356552950484854"><ele>613.0</ele><time>2026-04-11T13:08:20.999Z</time></trkpt><trkpt lat="44.783612542333884" lon="9.356556298537019"><ele>614.5</ele><time>2026-04-11T13:08:21.999Z</time></trkpt><trkpt lat="44.78376186900288" lon="9.356516949222712"><ele>616.0</ele><time>2026-04-11T13:08:22.999Z</time></trkpt><trkpt lat="44.7839011879179" lon="9.356490498410151"><ele>617.5</ele><time>2026-04-11T13:08:23.999Z</time></trkpt><trkpt lat="44.78402005574137" lon="9.356477200326415"><ele>619.0</ele><time>2026-04-11T13:08:24.999Z</time></trkpt><trkpt lat="44.78412225647932" lon="9.356462539937475"><ele>619.0</ele><time>2026-04-11T13:08:25.999Z</time></trkpt><trkpt lat="44.78419163141286" lon="9.356467709457899"><ele>619.0</ele><time>2026-04-11T13:08:26.999Z</time></trkpt><trkpt lat="44.784241895970844" lon="9.3563358902051"><ele>619.0</ele><time>2026-04-11T13:08:27.999Z</time></trkpt><trkpt lat="44.78430010671624" lon="9.356203228719853"><ele>619.0</ele><time>2026-04-11T13:08:28.999Z</time></trkpt><trkpt lat="44.78436035179082" lon="9.356058709006827"><ele>619.0</ele><time>2026-04-11T13:08:29.999Z</time></trkpt><trkpt lat="44.78444263950989" lon="9.355909768393849"><ele>622.3333333333334</ele><time>2026-04-11T13:08:30.999Z</time></trkpt><trkpt lat="44.78453121894129" lon="9.355735244950417"><ele>625.6666666666666</ele><time>2026-04-11T13:08:31.999Z</time></trkpt><trkpt lat="44.78461617707751" lon="9.355547970846496"><ele>629.0</ele><time>2026-04-11T13:08:32.999Z</time></trkpt><trkpt lat="44.78469732617606" lon="9.355331746060363"><ele>630.3333333333333</ele><time>2026-04-11T13:08:33.999Z</time></trkpt><trkpt lat="44.78475630882304" lon="9.355117560864755"><ele>631.6666666666666</ele><time>2026-04-11T13:08:34.999Z</time></trkpt><trkpt lat="44.78480384633389" lon="9.354934108551461"><ele>633.0</ele><time>2026-04-11T13:08:35.999Z</time></trkpt><trkpt lat="44.784852307682755" lon="9.354713358627999"><ele>631.75</ele><time>2026-04-11T13:08:36.999Z</time></trkpt><trkpt lat="44.78493788350011" lon="9.354543843790813"><ele>630.5</ele><time>2026-04-11T13:08:37.999Z</time></trkpt><trkpt lat="44.785042999639906" lon="9.354415956351135"><ele>629.25</ele><time>2026-04-11T13:08:38.999Z</time></trkpt><trkpt lat="44.785150349159025" lon="9.354367351202749"><ele>628.0</ele><time>2026-04-11T13:08:39.999Z</time></trkpt><trkpt lat="44.7852813598008" lon="9.354342309490612"><ele>633.0</ele><time>2026-04-11T13:08:40.999Z</time></trkpt><trkpt lat="44.785439750895236" lon="9.354315514547643"><ele>638.0</ele><time>2026-04-11T13:08:41.999Z</time></trkpt><trkpt lat="44.78559334940452" lon="9.354254028104094"><ele>643.0</ele><time>2026-04-11T13:08:42.999Z</time></trkpt><trkpt lat="44.78573182498567" lon="9.354198330853444"><ele>643.0</ele><time>2026-04-11T13:08:43.999Z</time></trkpt><trkpt lat="44.78585089905811" lon="9.354091837439624"><ele>643.0</ele><time>2026-04-11T13:08:44.999Z</time></trkpt><trkpt lat="44.78595815399887" lon="9.353954668022187"><ele>643.0</ele><time>2026-04-11T13:08:45.999Z</time></trkpt><trkpt lat="44.78605933495111" lon="9.353820951516239"><ele>643.0</ele><time>2026-04-11T13:08:46.999Z</time></trkpt><trkpt lat="44.786157776879726" lon="9.353720518104867"><ele>644.25</ele><time>2026-04-11T13:08:47.999Z</time></trkpt><trkpt lat="44.78625729492666" lon="9.353668169152664"><ele>645.5</ele><time>2026-04-11T13:08:48.999Z</time></trkpt><trkpt lat="44.78636721128801" lon="9.353703473971157"><ele>646.75</ele><time>2026-04-11T13:08:49.999Z</time></trkpt><trkpt lat="44.78649796846602" lon="9.353743262296662"><ele>648.0</ele><time>2026-04-11T13:08:50.999Z</time></trkpt><trkpt lat="44.78664808528553" lon="9.35373840553659"><ele>648.0</ele><time>2026-04-11T13:08:51.999Z</time></trkpt><trkpt lat="44.78676944345069" lon="9.353710274900873"><ele>648.0</ele><time>2026-04-11T13:08:52.999Z</time></trkpt><trkpt lat="44.786886881801614" lon="9.353634180346523"><ele>648.0</ele><time>2026-04-11T13:08:53.999Z</time></trkpt><trkpt lat="44.78698458398004" lon="9.353547802785434"><ele>648.0</ele><time>2026-04-11T13:08:54.999Z</time></trkpt><trkpt lat="44.78707697789877" lon="9.353400471284132"><ele>650.25</ele><time>2026-04-11T13:08:55.999Z</time></trkpt><trkpt lat="44.78718161559388" lon="9.35324766220487"><ele>652.5</ele><time>2026-04-11T13:08:56.999Z</time></trkpt><trkpt lat="44.787281620979215" lon="9.353089461222392"><ele>654.75</ele><time>2026-04-11T13:08:57.999Z</time></trkpt><trkpt lat="44.787386159556235" lon="9.352942173749922"><ele>657.0</ele><time>2026-04-11T13:08:58.999Z</time></trkpt><trkpt lat="44.787488128601765" lon="9.3528563783048"><ele>657.0</ele><time>2026-04-11T13:08:59.999Z</time></trkpt><trkpt lat="44.787604772769036" lon="9.35280188107739"><ele>657.0</ele><time>2026-04-11T13:09:00.999Z</time></trkpt><trkpt lat="44.78772018902202" lon="9.352711429531613"><ele>657.0</ele><time>2026-04-11T13:09:01.999Z</time></trkpt><trkpt lat="44.78785189498382" lon="9.352627799173257"><ele>657.0</ele><time>2026-04-11T13:09:03Z</time></trkpt><trkpt lat="44.78798795519238" lon="9.35252442522913"><ele>659.5</ele><time>2026-04-11T13:09:04Z</time></trkpt><trkpt lat="44.7881192709301" lon="9.352421188184255"><ele>662.0</ele><time>2026-04-11T13:09:05Z</time></trkpt><trkpt lat="44.78823006537369" lon="9.35233403486474"><ele>664.5</ele><time>2026-04-11T13:09:06Z</time></trkpt><trkpt lat="44.78831816889073" lon="9.352238794660462"><ele>667.0</ele><time>2026-04-11T13:09:07Z</time></trkpt><trkpt lat="44.78837990195229" lon="9.352148709163318"><ele>667.25</ele><time>2026-04-11T13:09:08Z</time></trkpt><trkpt lat="44.78842417626211" lon="9.352034546520043"><ele>667.5</ele><time>2026-04-11T13:09:09Z</time></trkpt><trkpt lat="44.78839818952044" lon="9.351851674791487"><ele>667.75</ele><time>2026-04-11T13:09:10Z</time></trkpt><trkpt lat="44.788321720345266" lon="9.351718628725845"><ele>668.0</ele><time>2026-04-11T13:09:11Z</time></trkpt><trkpt lat="44.78828152207365" lon="9.351551550298025"><ele>669.8</ele><time>2026-04-11T13:09:12Z</time></trkpt><trkpt lat="44.78829614762273" lon="9.351358569394414"><ele>671.5999999999999</ele><time>2026-04-11T13:09:13Z</time></trkpt><trkpt lat="44.78830868098049" lon="9.351179458421528"><ele>673.4000000000001</ele><time>2026-04-11T13:09:14Z</time></trkpt><trkpt lat="44.78830647481326" lon="9.351043487004624"><ele>675.2</ele><time>2026-04-11T13:09:15Z</time></trkpt><trkpt lat="44.78826730387844" lon="9.35093735797305"><ele>677.0</ele><time>2026-04-11T13:09:16Z</time></trkpt><trkpt lat="44.78818912114904" lon="9.350828874625313"><ele>677.0</ele><time>2026-04-11T13:09:17Z</time></trkpt><trkpt lat="44.78809695838485" lon="9.350720363669804"><ele>677.0</ele><time>2026-04-11T13:09:18Z</time></trkpt><trkpt lat="44.78798660271806" lon="9.350629780294765"><ele>677.0</ele><time>2026-04-11T13:09:19Z</time></trkpt><trkpt lat="44.78786733220862" lon="9.350537742664258"><ele>677.0</ele><time>2026-04-11T13:09:20Z</time></trkpt><trkpt lat="44.78772725778782" lon="9.350431951919962"><ele>679.3333333333333</ele><time>2026-04-11T13:09:21Z</time></trkpt><trkpt lat="44.787581302986354" lon="9.350338649379815"><ele>681.6666666666666</ele><time>2026-04-11T13:09:22Z</time></trkpt><trkpt lat="44.78744078107305" lon="9.350298417981104"><ele>684.0</ele><time>2026-04-11T13:09:23Z</time></trkpt><trkpt lat="44.787288665159004" lon="9.350299447520085"><ele>684.0</ele><time>2026-04-11T13:09:24Z</time></trkpt><trkpt lat="44.7871335295301" lon="9.350284318865329"><ele>684.0</ele><time>2026-04-11T13:09:25Z</time></trkpt><trkpt lat="44.78698114031355" lon="9.350289289753613"><ele>684.0</ele><time>2026-04-11T13:09:26Z</time></trkpt><trkpt lat="44.78683624826409" lon="9.350292116975112"><ele>683.5</ele><time>2026-04-11T13:09:27Z</time></trkpt><trkpt lat="44.78671222105936" lon="9.350296888797159"><ele>683.0</ele><time>2026-04-11T13:09:28Z</time></trkpt><trkpt lat="44.78659523546354" lon="9.350254343788988"><ele>682.5</ele><time>2026-04-11T13:09:29Z</time></trkpt><trkpt lat="44.786481648764685" lon="9.350200047131423"><ele>682.0</ele><time>2026-04-11T13:09:30Z</time></trkpt><trkpt lat="44.78638440402434" lon="9.350141857698983"><ele>682.0</ele><time>2026-04-11T13:09:31Z</time></trkpt><trkpt lat="44.786318943096724" lon="9.350080268942312"><ele>682.0</ele><time>2026-04-11T13:09:32Z</time></trkpt><trkpt lat="44.78641596621523" lon="9.349918121998897"><ele>682.0</ele><time>2026-04-11T13:09:35Z</time></trkpt><trkpt lat="44.7864742752956" lon="9.349842499611764"><ele>682.0</ele><time>2026-04-11T13:09:36Z</time></trkpt><trkpt lat="44.7865478586786" lon="9.349743995944932"><ele>682.0</ele><time>2026-04-11T13:09:37Z</time></trkpt><trkpt lat="44.786628510456765" lon="9.34963002813575"><ele>683.8</ele><time>2026-04-11T13:09:38Z</time></trkpt><trkpt lat="44.78672359460036" lon="9.34956450705053"><ele>685.6</ele><time>2026-04-11T13:09:39Z</time></trkpt><trkpt lat="44.78682867808015" lon="9.34953763649714"><ele>687.4</ele><time>2026-04-11T13:09:40Z</time></trkpt><trkpt lat="44.78692074182938" lon="9.349475269862499"><ele>689.1999999999999</ele><time>2026-04-11T13:09:41Z</time></trkpt><trkpt lat="44.787024673099715" lon="9.349354547438292"><ele>691.0</ele><time>2026-04-11T13:09:43Z</time></trkpt><trkpt lat="44.78701089592399" lon="9.349195149249606"><ele>692.5999999999999</ele><time>2026-04-11T13:09:44Z</time></trkpt><trkpt lat="44.78697503222327" lon="9.349039039557752"><ele>694.2</ele><time>2026-04-11T13:09:45Z</time></trkpt><trkpt lat="44.78695446375839" lon="9.348869038613323"><ele>695.8</ele><time>2026-04-11T13:09:46Z</time></trkpt><trkpt lat="44.78695384570682" lon="9.348751035220147"><ele>697.4000000000001</ele><time>2026-04-11T13:09:47Z</time></trkpt><trkpt lat="44.787059303560596" lon="9.348659433874843"><ele>699.0</ele><time>2026-04-11T13:09:49Z</time></trkpt><trkpt lat="44.78716634721611" lon="9.348607149888512"><ele>699.0</ele><time>2026-04-11T13:09:50Z</time></trkpt><trkpt lat="44.787273883475784" lon="9.348577861386483"><ele>699.0</ele><time>2026-04-11T13:09:51Z</time></trkpt><trkpt lat="44.78736310061806" lon="9.348617579393283"><ele>699.0</ele><time>2026-04-11T13:09:52Z</time></trkpt><trkpt lat="44.78743507315602" lon="9.348706666059021"><ele>699.0</ele><time>2026-04-11T13:09:53Z</time></trkpt><trkpt lat="44.787506752263276" lon="9.348830577436829"><ele>699.0</ele><time>2026-04-11T13:09:54Z</time></trkpt><trkpt lat="44.78754150041144" lon="9.349000865754782"><ele>699.0</ele><time>2026-04-11T13:09:55Z</time></trkpt><trkpt lat="44.787611000981755" lon="9.349190583651124"><ele>699.0</ele><time>2026-04-11T13:09:56Z</time></trkpt><trkpt lat="44.787679199511196" lon="9.34934817309156"><ele>699.0</ele><time>2026-04-11T13:09:57Z</time></trkpt><trkpt lat="44.78775210765845" lon="9.34934517575421"><ele>699.0</ele><time>2026-04-11T13:09:59Z</time></trkpt><trkpt lat="44.78783932297095" lon="9.349307735621027"><ele>699.0</ele><time>2026-04-11T13:10:00Z</time></trkpt><trkpt lat="44.78792113961927" lon="9.349173737907213"><ele>698.5</ele><time>2026-04-11T13:10:01Z</time></trkpt><trkpt lat="44.78791328340683" lon="9.349009346922836"><ele>698.0</ele><time>2026-04-11T13:10:02Z</time></trkpt><trkpt lat="44.78784551236674" lon="9.348845188100231"><ele>697.5</ele><time>2026-04-11T13:10:03Z</time></trkpt><trkpt lat="44.78782284202225" lon="9.348669120373799"><ele>697.0</ele><time>2026-04-11T13:10:04Z</time></trkpt><trkpt lat="44.787824788455346" lon="9.34848872737266"><ele>698.5</ele><time>2026-04-11T13:10:05Z</time></trkpt><trkpt lat="44.787847971217595" lon="9.348303087723183"><ele>700.0</ele><time>2026-04-11T13:10:06Z</time></trkpt><trkpt lat="44.78788170198239" lon="9.34812621704191"><ele>701.5</ele><time>2026-04-11T13:10:07Z</time></trkpt><trkpt lat="44.7879056184329" lon="9.34792796486359"><ele>703.0</ele><time>2026-04-11T13:10:08Z</time></trkpt><trkpt lat="44.78794819292594" lon="9.34771444790665"><ele>705.75</ele><time>2026-04-11T13:10:09Z</time></trkpt><trkpt lat="44.78799318353546" lon="9.347505177159386"><ele>708.5</ele><time>2026-04-11T13:10:10Z</time></trkpt><trkpt lat="44.788047104050314" lon="9.34730550818899"><ele>711.25</ele><time>2026-04-11T13:10:11Z</time></trkpt><trkpt lat="44.78809452692933" lon="9.347150978016929"><ele>714.0</ele><time>2026-04-11T13:10:12Z</time></trkpt><trkpt lat="44.78811724864032" lon="9.346991524174788"><ele>717.75</ele><time>2026-04-11T13:10:13Z</time></trkpt><trkpt lat="44.78809774809334" lon="9.34680684559274"><ele>721.5</ele><time>2026-04-11T13:10:14Z</time></trkpt><trkpt lat="44.78805905888861" lon="9.346613219283256"><ele>725.25</ele><time>2026-04-11T13:10:15Z</time></trkpt><trkpt lat="44.78800915839235" lon="9.346412759663748"><ele>729.0</ele><time>2026-04-11T13:10:16Z</time></trkpt><trkpt lat="44.78795381521807" lon="9.346203739260188"><ele>731.0</ele><time>2026-04-11T13:10:17Z</time></trkpt><trkpt lat="44.78791629597627" lon="9.34603372407181"><ele>733.0</ele><time>2026-04-11T13:10:18Z</time></trkpt><trkpt lat="44.78792377013814" lon="9.345902215300415"><ele>735.0</ele><time>2026-04-11T13:10:19Z</time></trkpt><trkpt lat="44.787927581935925" lon="9.345787921011691"><ele>737.0</ele><time>2026-04-11T13:10:19.999Z</time></trkpt><trkpt lat="44.78796174730147" lon="9.345664956302624"><ele>739.0</ele><time>2026-04-11T13:10:20.999Z</time></trkpt><trkpt lat="44.788007520787076" lon="9.345526395273753"><ele>739.2</ele><time>2026-04-11T13:10:21.999Z</time></trkpt><trkpt lat="44.788068186946255" lon="9.345406371293095"><ele>739.4000000000001</ele><time>2026-04-11T13:10:22.999Z</time></trkpt><trkpt lat="44.788139052189315" lon="9.345323413977672"><ele>739.6</ele><time>2026-04-11T13:10:23.999Z</time></trkpt><trkpt lat="44.788213515811194" lon="9.345257682097216"><ele>739.8</ele><time>2026-04-11T13:10:24.999Z</time></trkpt><trkpt lat="44.78830239669475" lon="9.345193043326915"><ele>740.0</ele><time>2026-04-11T13:10:25.999Z</time></trkpt><trkpt lat="44.788402530275896" lon="9.345102633336497"><ele>741.25</ele><time>2026-04-11T13:10:26.999Z</time></trkpt><trkpt lat="44.788542094559546" lon="9.345014297701024"><ele>742.5</ele><time>2026-04-11T13:10:27.999Z</time></trkpt><trkpt lat="44.78868362949221" lon="9.344920567365616"><ele>743.75</ele><time>2026-04-11T13:10:28.999Z</time></trkpt><trkpt lat="44.78880374704916" lon="9.344836208841445"><ele>745.0</ele><time>2026-04-11T13:10:29.999Z</time></trkpt><trkpt lat="44.78890781677054" lon="9.344780637121064"><ele>746.0</ele><time>2026-04-11T13:10:30.999Z</time></trkpt><trkpt lat="44.78897855647696" lon="9.344682109667032"><ele>747.0</ele><time>2026-04-11T13:10:31.999Z</time></trkpt><trkpt lat="44.7890324772915" lon="9.344550046898261"><ele>748.0</ele><time>2026-04-11T13:10:32.999Z</time></trkpt><trkpt lat="44.7891309961405" lon="9.344466770614323"><ele>749.0</ele><time>2026-04-11T13:10:33.999Z</time></trkpt><trkpt lat="44.78923571822888" lon="9.34434027071489"><ele>750.5</ele><time>2026-04-11T13:10:34.999Z</time></trkpt><trkpt lat="44.78935023027776" lon="9.344216223004224"><ele>752.0</ele><time>2026-04-11T13:10:35.999Z</time></trkpt><trkpt lat="44.78943730006823" lon="9.344080793660796"><ele>753.5</ele><time>2026-04-11T13:10:36.999Z</time></trkpt><trkpt lat="44.78951138790998" lon="9.343940111271468"><ele>755.0</ele><time>2026-04-11T13:10:37.999Z</time></trkpt><trkpt lat="44.78957174803321" lon="9.34377784711662"><ele>757.0</ele><time>2026-04-11T13:10:38.999Z</time></trkpt><trkpt lat="44.78964546976444" lon="9.34359400704246"><ele>759.0</ele><time>2026-04-11T13:10:39.999Z</time></trkpt><trkpt lat="44.789714836197845" lon="9.343416631674026"><ele>761.0</ele><time>2026-04-11T13:10:40.999Z</time></trkpt><trkpt lat="44.78974881976416" lon="9.343253792684962"><ele>763.0</ele><time>2026-04-11T13:10:41.999Z</time></trkpt><trkpt lat="44.78978740974219" lon="9.343111584764973"><ele>763.5</ele><time>2026-04-11T13:10:42.999Z</time></trkpt><trkpt lat="44.78979225850092" lon="9.34293063652483"><ele>764.0</ele><time>2026-04-11T13:10:43.999Z</time></trkpt><trkpt lat="44.78978671223257" lon="9.342771916821487"><ele>764.5</ele><time>2026-04-11T13:10:44.999Z</time></trkpt><trkpt lat="44.789784265855694" lon="9.342615253964507"><ele>765.0</ele><time>2026-04-11T13:10:45.999Z</time></trkpt><trkpt lat="44.78977976537449" lon="9.342412330337904"><ele>766.0</ele><time>2026-04-11T13:10:46.999Z</time></trkpt><trkpt lat="44.7897735490108" lon="9.342171767407791"><ele>767.0</ele><time>2026-04-11T13:10:47.999Z</time></trkpt><trkpt lat="44.78978019090171" lon="9.341939926541222"><ele>768.0</ele><time>2026-04-11T13:10:48.999Z</time></trkpt><trkpt lat="44.78978336924706" lon="9.341702203433291"><ele>768.0</ele><time>2026-04-11T13:10:49.999Z</time></trkpt><trkpt lat="44.78977753166349" lon="9.34145989260902"><ele>768.0</ele><time>2026-04-11T13:10:50.999Z</time></trkpt><trkpt lat="44.7897762590369" lon="9.341225203897766"><ele>768.0</ele><time>2026-04-11T13:10:51.999Z</time></trkpt><trkpt lat="44.789775209424796" lon="9.340989934385844"><ele>769.75</ele><time>2026-04-11T13:10:52.999Z</time></trkpt><trkpt lat="44.78978693711537" lon="9.340760644869896"><ele>771.5</ele><time>2026-04-11T13:10:53.999Z</time></trkpt><trkpt lat="44.789789422510445" lon="9.34052851342824"><ele>773.25</ele><time>2026-04-11T13:10:54.999Z</time></trkpt><trkpt lat="44.78978558848085" lon="9.340362803404865"><ele>775.0</ele><time>2026-04-11T13:10:55.999Z</time></trkpt><trkpt lat="44.78978452086296" lon="9.340201535845974"><ele>777.0</ele><time>2026-04-11T13:10:56.999Z</time></trkpt><trkpt lat="44.78976848208444" lon="9.340037841567211"><ele>779.0</ele><time>2026-04-11T13:10:57.999Z</time></trkpt><trkpt lat="44.78974587425132" lon="9.339895517661635"><ele>781.0</ele><time>2026-04-11T13:10:58.999Z</time></trkpt><trkpt lat="44.78969163290748" lon="9.339778166187312"><ele>783.0</ele><time>2026-04-11T13:10:59.999Z</time></trkpt><trkpt lat="44.78961073902589" lon="9.339687650806727"><ele>785.0</ele><time>2026-04-11T13:11:00.999Z</time></trkpt><trkpt lat="44.78950714379515" lon="9.339573559435"><ele>788.0</ele><time>2026-04-11T13:11:01.999Z</time></trkpt><trkpt lat="44.789409233246005" lon="9.339427801556809"><ele>791.0</ele><time>2026-04-11T13:11:02.999Z</time></trkpt><trkpt lat="44.78930978922492" lon="9.339237431653647"><ele>794.0</ele><time>2026-04-11T13:11:03.999Z</time></trkpt><trkpt lat="44.789229268406956" lon="9.339053656527103"><ele>791.0</ele><time>2026-04-11T13:11:04.999Z</time></trkpt><trkpt lat="44.789148516601244" lon="9.338905215968417"><ele>788.0</ele><time>2026-04-11T13:11:05.999Z</time></trkpt><trkpt lat="44.78906626776884" lon="9.338724602513723"><ele>785.0</ele><time>2026-04-11T13:11:06.999Z</time></trkpt><trkpt lat="44.78898976700655" lon="9.338526661571345"><ele>782.0</ele><time>2026-04-11T13:11:08Z</time></trkpt><trkpt lat="44.78891438685507" lon="9.338348029709863"><ele>782.0</ele><time>2026-04-11T13:11:09Z</time></trkpt><trkpt lat="44.788829458301905" lon="9.338215903674746"><ele>782.0</ele><time>2026-04-11T13:11:10Z</time></trkpt><trkpt lat="44.788740144701826" lon="9.338114321858336"><ele>782.0</ele><time>2026-04-11T13:11:11Z</time></trkpt><trkpt lat="44.788636231135875" lon="9.33804416896004"><ele>782.0</ele><time>2026-04-11T13:11:12Z</time></trkpt><trkpt lat="44.788532286814664" lon="9.33801607032524"><ele>782.8</ele><time>2026-04-11T13:11:13Z</time></trkpt><trkpt lat="44.78840997663039" lon="9.338032980008045"><ele>783.6</ele><time>2026-04-11T13:11:14Z</time></trkpt><trkpt lat="44.78828927129209" lon="9.338066921801875"><ele>784.4</ele><time>2026-04-11T13:11:15Z</time></trkpt><trkpt lat="44.78820525427475" lon="9.33810470079912"><ele>785.1999999999999</ele><time>2026-04-11T13:11:16Z</time></trkpt><trkpt lat="44.78814929696997" lon="9.338184437838459"><ele>786.0</ele><time>2026-04-11T13:11:17Z</time></trkpt><trkpt lat="44.7880596971934" lon="9.338305550586822"><ele>786.0</ele><time>2026-04-11T13:11:18Z</time></trkpt><trkpt lat="44.78798337223757" lon="9.338468859472563"><ele>786.0</ele><time>2026-04-11T13:11:19Z</time></trkpt><trkpt lat="44.787938292215536" lon="9.33858391070438"><ele>786.0</ele><time>2026-04-11T13:11:20Z</time></trkpt><trkpt lat="44.787803413162074" lon="9.338658996010942"><ele>786.0</ele><time>2026-04-11T13:11:22Z</time></trkpt><trkpt lat="44.78769604342035" lon="9.338628711024228"><ele>786.5999999999999</ele><time>2026-04-11T13:11:23Z</time></trkpt><trkpt lat="44.78757667977717" lon="9.33859813705265"><ele>787.2</ele><time>2026-04-11T13:11:24Z</time></trkpt><trkpt lat="44.787491869617796" lon="9.338547714950824"><ele>787.8</ele><time>2026-04-11T13:11:25Z</time></trkpt><trkpt lat="44.78742837617107" lon="9.338469797025141"><ele>788.4000000000001</ele><time>2026-04-11T13:11:26Z</time></trkpt><trkpt lat="44.78735344956359" lon="9.338350758176773"><ele>789.0</ele><time>2026-04-11T13:11:27Z</time></trkpt><trkpt lat="44.78728559893224" lon="9.338233314450212"><ele>789.0</ele><time>2026-04-11T13:11:28Z</time></trkpt><trkpt lat="44.78721518721894" lon="9.338144778941269"><ele>789.0</ele><time>2026-04-11T13:11:29Z</time></trkpt><trkpt lat="44.78713446607099" lon="9.338004504498652"><ele>789.0</ele><time>2026-04-11T13:11:31Z</time></trkpt><trkpt lat="44.787129131727845" lon="9.337873380948386"><ele>789.0</ele><time>2026-04-11T13:11:33Z</time></trkpt><trkpt lat="44.78711455678719" lon="9.33776486461805"><ele>789.0</ele><time>2026-04-11T13:11:34Z</time></trkpt><trkpt lat="44.78707692362619" lon="9.337635173137029"><ele>790.2</ele><time>2026-04-11T13:11:35Z</time></trkpt><trkpt lat="44.787040202972626" lon="9.337517943339613"><ele>791.4000000000001</ele><time>2026-04-11T13:11:36Z</time></trkpt><trkpt lat="44.78701280738803" lon="9.337431440089366"><ele>792.6</ele><time>2026-04-11T13:11:37Z</time></trkpt><trkpt lat="44.786949382772065" lon="9.337291776001983"><ele>793.8</ele><time>2026-04-11T13:11:39Z</time></trkpt><trkpt lat="44.78684175839665" lon="9.337194836672099"><ele>795.0</ele><time>2026-04-11T13:11:41Z</time></trkpt><trkpt lat="44.78676808642446" lon="9.337178616944328"><ele>795.8333333333334</ele><time>2026-04-11T13:11:42Z</time></trkpt><trkpt lat="44.78668848868817" lon="9.337185167568704"><ele>796.6666666666667</ele><time>2026-04-11T13:11:43Z</time></trkpt><trkpt lat="44.78662028716272" lon="9.337186552690316"><ele>797.5</ele><time>2026-04-11T13:11:44Z</time></trkpt><trkpt lat="44.78654804065938" lon="9.33718385167029"><ele>798.3333333333334</ele><time>2026-04-11T13:11:45Z</time></trkpt><trkpt lat="44.78646174061903" lon="9.33717625825282"><ele>799.1666666666667</ele><time>2026-04-11T13:11:46Z</time></trkpt><trkpt lat="44.786384746141216" lon="9.337155707185158"><ele>800.0</ele><time>2026-04-11T13:11:47Z</time></trkpt><trkpt lat="44.78630506825725" lon="9.337117917469614"><ele>800.0</ele><time>2026-04-11T13:11:48Z</time></trkpt><trkpt lat="44.786229660471676" lon="9.337032590866947"><ele>800.0</ele><time>2026-04-11T13:11:49Z</time></trkpt><trkpt lat="44.78614143724282" lon="9.336976547333768"><ele>800.0</ele><time>2026-04-11T13:11:50Z</time></trkpt><trkpt lat="44.786045332112934" lon="9.336919236094335"><ele>800.0</ele><time>2026-04-11T13:11:51Z</time></trkpt><trkpt lat="44.785941625984485" lon="9.336877667126235"><ele>800.0</ele><time>2026-04-11T13:11:52Z</time></trkpt><trkpt lat="44.78584331488481" lon="9.33681205352935"><ele>799.4</ele><time>2026-04-11T13:11:53Z</time></trkpt><trkpt lat="44.78574149687758" lon="9.336743189278438"><ele>798.8</ele><time>2026-04-11T13:11:54Z</time></trkpt><trkpt lat="44.785629601392124" lon="9.33668264245305"><ele>798.2</ele><time>2026-04-11T13:11:55Z</time></trkpt><trkpt lat="44.78554364414448" lon="9.3365996602142"><ele>797.6</ele><time>2026-04-11T13:11:56Z</time></trkpt><trkpt lat="44.78546576158124" lon="9.336551697255699"><ele>797.0</ele><time>2026-04-11T13:11:57Z</time></trkpt><trkpt lat="44.78544030614628" lon="9.336441028037468"><ele>799.0</ele><time>2026-04-11T13:11:58Z</time></trkpt><trkpt lat="44.78541957662731" lon="9.336345762197034"><ele>801.0</ele><time>2026-04-11T13:11:59Z</time></trkpt><trkpt lat="44.785421124612185" lon="9.336194607378681"><ele>803.0</ele><time>2026-04-11T13:12:01Z</time></trkpt><trkpt lat="44.78540834863464" lon="9.336091055517063"><ele>805.0</ele><time>2026-04-11T13:12:02Z</time></trkpt><trkpt lat="44.785302252566225" lon="9.335972180569543"><ele>807.0</ele><time>2026-04-11T13:12:03Z</time></trkpt><trkpt lat="44.78525213131367" lon="9.335847598091211"><ele>808.6666666666667</ele><time>2026-04-11T13:12:05Z</time></trkpt><trkpt lat="44.78497704122449" lon="9.335973455868883"><ele>810.3333333333334</ele><time>2026-04-11T13:12:06Z</time></trkpt><trkpt lat="44.78491702702519" lon="9.336006965266375"><ele>812.0</ele><time>2026-04-11T13:12:07Z</time></trkpt><trkpt lat="44.78478524995944" lon="9.336057289042651"><ele>812.0</ele><time>2026-04-11T13:12:09Z</time></trkpt><trkpt lat="44.78469124226598" lon="9.336113557635395"><ele>812.0</ele><time>2026-04-11T13:12:10Z</time></trkpt><trkpt lat="44.78462172354343" lon="9.336202951977832"><ele>812.0</ele><time>2026-04-11T13:12:11Z</time></trkpt><trkpt lat="44.78456498766982" lon="9.336274669382698"><ele>812.0</ele><time>2026-04-11T13:12:12Z</time></trkpt><trkpt lat="44.78447827610467" lon="9.336349412538516"><ele>812.0</ele><time>2026-04-11T13:12:14Z</time></trkpt><trkpt lat="44.78439846388013" lon="9.336398166882525"><ele>812.75</ele><time>2026-04-11T13:12:15Z</time></trkpt><trkpt lat="44.78429535825158" lon="9.336544407690347"><ele>813.5</ele><time>2026-04-11T13:12:17Z</time></trkpt><trkpt lat="44.784164158970455" lon="9.336593274950777"><ele>814.25</ele><time>2026-04-11T13:12:19Z</time></trkpt><trkpt lat="44.784061891417295" lon="9.336573589533748"><ele>815.0</ele><time>2026-04-11T13:12:20Z</time></trkpt><trkpt lat="44.78396348523107" lon="9.336574213583855"><ele>815.0000000000001</ele><time>2026-04-11T13:12:21Z</time></trkpt><trkpt lat="44.78385086873707" lon="9.336627457111765"><ele>815.0</ele><time>2026-04-11T13:12:23Z</time></trkpt><trkpt lat="44.783784222573146" lon="9.336634519094277"><ele>815.0</ele><time>2026-04-11T13:12:24Z</time></trkpt><trkpt lat="44.78370305551462" lon="9.336631161038673"><ele>815.0</ele><time>2026-04-11T13:12:25Z</time></trkpt><trkpt lat="44.78363419715761" lon="9.336634899834078"><ele>815.0000000000001</ele><time>2026-04-11T13:12:26Z</time></trkpt><trkpt lat="44.783551166633146" lon="9.336671843895452"><ele>815.0</ele><time>2026-04-11T13:12:27Z</time></trkpt><trkpt lat="44.783458355597936" lon="9.336715108467518"><ele>817.3333333333334</ele><time>2026-04-11T13:12:28Z</time></trkpt><trkpt lat="44.78339091292447" lon="9.336729564159473"><ele>819.6666666666667</ele><time>2026-04-11T13:12:28.999Z</time></trkpt><trkpt lat="44.78332168911107" lon="9.336708044810699"><ele>822.0</ele><time>2026-04-11T13:12:29.999Z</time></trkpt><trkpt lat="44.783256536585604" lon="9.336685699497403"><ele>824.3333333333333</ele><time>2026-04-11T13:12:30.999Z</time></trkpt><trkpt lat="44.783129297498455" lon="9.336639739973737"><ele>826.6666666666666</ele><time>2026-04-11T13:12:32.999Z</time></trkpt><trkpt lat="44.78306252782316" lon="9.336643742160629"><ele>829.0</ele><time>2026-04-11T13:12:33.999Z</time></trkpt><trkpt lat="44.783029531392245" lon="9.336566728702094"><ele>829.0</ele><time>2026-04-11T13:12:36.999Z</time></trkpt><trkpt lat="44.78303038841644" lon="9.336403427007356"><ele>829.0</ele><time>2026-04-11T13:12:43.999Z</time></trkpt><trkpt lat="44.78301353844006" lon="9.33630487627814"><ele>829.0</ele><time>2026-04-11T13:12:44.999Z</time></trkpt><trkpt lat="44.782976146017226" lon="9.336144894624276"><ele>829.0</ele><time>2026-04-11T13:12:46.999Z</time></trkpt><trkpt lat="44.78295740648117" lon="9.335992190254958"><ele>829.0</ele><time>2026-04-11T13:12:48.999Z</time></trkpt><trkpt lat="44.782944394183566" lon="9.335894552628613"><ele>831.8000000000001</ele><time>2026-04-11T13:12:49.999Z</time></trkpt><trkpt lat="44.78295156880586" lon="9.335725717942857"><ele>834.6</ele><time>2026-04-11T13:12:51.999Z</time></trkpt><trkpt lat="44.78293179203118" lon="9.335606840094618"><ele>837.4</ele><time>2026-04-11T13:12:53.999Z</time></trkpt><trkpt lat="44.78283061233088" lon="9.335560645748629"><ele>840.2</ele><time>2026-04-11T13:12:55.999Z</time></trkpt><trkpt lat="44.78276817290553" lon="9.335597703303998"><ele>843.0</ele><time>2026-04-11T13:12:56.999Z</time></trkpt><trkpt lat="44.78267829520473" lon="9.335629555651373"><ele>843.0</ele><time>2026-04-11T13:12:57.999Z</time></trkpt><trkpt lat="44.78259047060429" lon="9.335648672107741"><ele>843.0</ele><time>2026-04-11T13:12:58.999Z</time></trkpt><trkpt lat="44.782494770094665" lon="9.335640399725103"><ele>843.0</ele><time>2026-04-11T13:12:59.999Z</time></trkpt><trkpt lat="44.78241959678899" lon="9.33563495117403"><ele>843.0</ele><time>2026-04-11T13:13:00.999Z</time></trkpt><trkpt lat="44.78230630881759" lon="9.335686546580458"><ele>843.0</ele><time>2026-04-11T13:13:02.999Z</time></trkpt><trkpt lat="44.78221975459411" lon="9.335745300768046"><ele>843.0</ele><time>2026-04-11T13:13:03.999Z</time></trkpt><trkpt lat="44.78213096181239" lon="9.335825821138247"><ele>843.0</ele><time>2026-04-11T13:13:04.999Z</time></trkpt><trkpt lat="44.78199518432134" lon="9.335858121376445"><ele>843.0</ele><time>2026-04-11T13:13:06.999Z</time></trkpt><trkpt lat="44.78188163308993" lon="9.335874387998693"><ele>843.0</ele><time>2026-04-11T13:13:08.999Z</time></trkpt><trkpt lat="44.78180436027544" lon="9.335912837488674"><ele>843.0</ele><time>2026-04-11T13:13:09.999Z</time></trkpt><trkpt lat="44.78173455605878" lon="9.335940759264004"><ele>846.5999999999999</ele><time>2026-04-11T13:13:10.999Z</time></trkpt><trkpt lat="44.7816565117862" lon="9.335943057155479"><ele>850.1999999999999</ele><time>2026-04-11T13:13:11.999Z</time></trkpt><trkpt lat="44.78156648201115" lon="9.335914741717337"><ele>853.8</ele><time>2026-04-11T13:13:13Z</time></trkpt><trkpt lat="44.78149210364473" lon="9.33590966975157"><ele>857.4</ele><time>2026-04-11T13:13:14Z</time></trkpt><trkpt lat="44.781422616992366" lon="9.335854031364217"><ele>861.0</ele><time>2026-04-11T13:13:16Z</time></trkpt><trkpt lat="44.781322149993045" lon="9.335749241502144"><ele>861.0</ele><time>2026-04-11T13:13:18Z</time></trkpt><trkpt lat="44.781268999099225" lon="9.335631284140511"><ele>860.9999999999999</ele><time>2026-04-11T13:13:20Z</time></trkpt><trkpt lat="44.781311061504816" lon="9.335482950621829"><ele>860.9999999999999</ele><time>2026-04-11T13:13:22Z</time></trkpt><trkpt lat="44.78136395266428" lon="9.335389729138196"><ele>861.0</ele><time>2026-04-11T13:13:24Z</time></trkpt><trkpt lat="44.78137351879382" lon="9.335263814786561"><ele>861.0</ele><time>2026-04-11T13:13:26Z</time></trkpt><trkpt lat="44.78133329457047" lon="9.335176788711657"><ele>864.3333333333334</ele><time>2026-04-11T13:13:28Z</time></trkpt><trkpt lat="44.78132638199769" lon="9.335075912491853"><ele>867.6666666666667</ele><time>2026-04-11T13:13:30Z</time></trkpt><trkpt lat="44.78132151976363" lon="9.334964364084856"><ele>871.0</ele><time>2026-04-11T13:13:31Z</time></trkpt><trkpt lat="44.78129442075618" lon="9.334871686472082"><ele>874.3333333333334</ele><time>2026-04-11T13:13:33Z</time></trkpt><trkpt lat="44.7812809415569" lon="9.33475069421465"><ele>877.6666666666667</ele><time>2026-04-11T13:13:35Z</time></trkpt><trkpt lat="44.78130373577602" lon="9.33460255789943"><ele>881.0</ele><time>2026-04-11T13:13:37Z</time></trkpt><trkpt lat="44.78132187582998" lon="9.3345018212738"><ele>883.1666666666667</ele><time>2026-04-11T13:13:38Z</time></trkpt><trkpt lat="44.781309840721235" lon="9.334388165037126"><ele>885.3333333333334</ele><time>2026-04-11T13:13:39Z</time></trkpt><trkpt lat="44.78127767802044" lon="9.33427346948755"><ele>887.5</ele><time>2026-04-11T13:13:40Z</time></trkpt><trkpt lat="44.78126531828749" lon="9.33416544608023"><ele>889.6666666666667</ele><time>2026-04-11T13:13:41Z</time></trkpt><trkpt lat="44.7812661733134" lon="9.334058988245356"><ele>891.8333333333334</ele><time>2026-04-11T13:13:42Z</time></trkpt><trkpt lat="44.7812627846318" lon="9.333959843053611"><ele>894.0</ele><time>2026-04-11T13:13:43Z</time></trkpt><trkpt lat="44.78125872747496" lon="9.333786655063244"><ele>893.0</ele><time>2026-04-11T13:13:45Z</time></trkpt><trkpt lat="44.781232233878335" lon="9.33367416038564"><ele>892.0000000000001</ele><time>2026-04-11T13:13:47Z</time></trkpt><trkpt lat="44.78116302504207" lon="9.333533866429935"><ele>891.0000000000001</ele><time>2026-04-11T13:13:49Z</time></trkpt><trkpt lat="44.78107725975712" lon="9.33339184807116"><ele>890.0</ele><time>2026-04-11T13:13:51Z</time></trkpt><trkpt lat="44.78101356105759" lon="9.333330026825688"><ele>889.0</ele><time>2026-04-11T13:13:52Z</time></trkpt><trkpt lat="44.780945535741445" lon="9.33319623068004"><ele>892.4000000000001</ele><time>2026-04-11T13:13:54Z</time></trkpt><trkpt lat="44.780918930998006" lon="9.333013763934945"><ele>895.8000000000001</ele><time>2026-04-11T13:13:56Z</time></trkpt><trkpt lat="44.780893687289065" lon="9.332903142358639"><ele>899.1999999999999</ele><time>2026-04-11T13:13:57Z</time></trkpt><trkpt lat="44.78085616812965" lon="9.332808680176766"><ele>902.5999999999999</ele><time>2026-04-11T13:13:58Z</time></trkpt><trkpt lat="44.780811299002124" lon="9.332737380864888"><ele>906.0</ele><time>2026-04-11T13:13:59Z</time></trkpt><trkpt lat="44.780763359781055" lon="9.332569484016133"><ele>906.0</ele><time>2026-04-11T13:14:01Z</time></trkpt><trkpt lat="44.78072383174546" lon="9.332455818800529"><ele>906.0</ele><time>2026-04-11T13:14:02Z</time></trkpt><trkpt lat="44.78068632628725" lon="9.332347948642214"><ele>906.0</ele><time>2026-04-11T13:14:03Z</time></trkpt><trkpt lat="44.78063997168523" lon="9.332248572486034"><ele>906.0</ele><time>2026-04-11T13:14:04Z</time></trkpt><trkpt lat="44.78060833453943" lon="9.332159413320582"><ele>906.0</ele><time>2026-04-11T13:14:05Z</time></trkpt><trkpt lat="44.78055767196119" lon="9.33203740661965"><ele>906.0</ele><time>2026-04-11T13:14:07Z</time></trkpt><trkpt lat="44.78048459974203" lon="9.33190587048054"><ele>909.5999999999999</ele><time>2026-04-11T13:14:09Z</time></trkpt><trkpt lat="44.78046741200728" lon="9.33174714136163"><ele>913.1999999999999</ele><time>2026-04-11T13:14:11Z</time></trkpt><trkpt lat="44.780425787488824" lon="9.331577830948271"><ele>916.8000000000001</ele><time>2026-04-11T13:14:13Z</time></trkpt><trkpt lat="44.78037650194969" lon="9.331503053375608"><ele>920.4000000000001</ele><time>2026-04-11T13:14:14Z</time></trkpt><trkpt lat="44.780278817675686" lon="9.331405936917887"><ele>924.0</ele><time>2026-04-11T13:14:16Z</time></trkpt><trkpt lat="44.780215797242285" lon="9.331401203054495"><ele>923.5</ele><time>2026-04-11T13:14:17Z</time></trkpt><trkpt lat="44.78015217090055" lon="9.331371748133126"><ele>923.0</ele><time>2026-04-11T13:14:18Z</time></trkpt><trkpt lat="44.78010421044604" lon="9.331301247281333"><ele>922.5</ele><time>2026-04-11T13:14:19Z</time></trkpt><trkpt lat="44.78008412166799" lon="9.331204686041971"><ele>922.0</ele><time>2026-04-11T13:14:20Z</time></trkpt><trkpt lat="44.7800713781227" lon="9.331104818529807"><ele>921.5</ele><time>2026-04-11T13:14:21Z</time></trkpt><trkpt lat="44.780131312871845" lon="9.330952765376896"><ele>921.0</ele><time>2026-04-11T13:14:23Z</time></trkpt><trkpt lat="44.78016520934037" lon="9.33084087972372"><ele>921.0</ele><time>2026-04-11T13:14:24Z</time></trkpt><trkpt lat="44.78017692118561" lon="9.330753642431596"><ele>920.9999999999999</ele><time>2026-04-11T13:14:25Z</time></trkpt><trkpt lat="44.78014614683411" lon="9.330574655839692"><ele>920.9999999999999</ele><time>2026-04-11T13:14:27Z</time></trkpt><trkpt lat="44.78006398171165" lon="9.330494672794295"><ele>921.0</ele><time>2026-04-11T13:14:29Z</time></trkpt><trkpt lat="44.78004155951955" lon="9.330349300375694"><ele>921.0</ele><time>2026-04-11T13:14:31Z</time></trkpt><trkpt lat="44.78006145922844" lon="9.330187506135262"><ele>925.5</ele><time>2026-04-11T13:14:33Z</time></trkpt><trkpt lat="44.780046182823185" lon="9.330082662559679"><ele>930.0</ele><time>2026-04-11T13:14:34Z</time></trkpt><trkpt lat="44.78000914201752" lon="9.329981540600766"><ele>934.5</ele><time>2026-04-11T13:14:35Z</time></trkpt><trkpt lat="44.779974992171695" lon="9.329896177284002"><ele>939.0</ele><time>2026-04-11T13:14:36Z</time></trkpt><trkpt lat="44.77996298136388" lon="9.329773730911894"><ele>943.5</ele><time>2026-04-11T13:14:38Z</time></trkpt><trkpt lat="44.7800115282136" lon="9.329710515276902"><ele>948.0</ele><time>2026-04-11T13:14:38.999Z</time></trkpt><trkpt lat="44.78007191886866" lon="9.329627163755523"><ele>948.0</ele><time>2026-04-11T13:14:39.999Z</time></trkpt><trkpt lat="44.78010311049692" lon="9.329516177232847"><ele>948.0</ele><time>2026-04-11T13:14:40.999Z</time></trkpt><trkpt lat="44.78015393988539" lon="9.329440896815758"><ele>948.0</ele><time>2026-04-11T13:14:42.999Z</time></trkpt><trkpt lat="44.78020930980772" lon="9.329535256709086"><ele>948.0</ele><time>2026-04-11T13:14:44.999Z</time></trkpt><trkpt lat="44.7801781455422" lon="9.329729785939872"><ele>948.0</ele><time>2026-04-11T13:14:46.999Z</time></trkpt><trkpt lat="44.78019491887807" lon="9.32984903843565"><ele>951.6666666666666</ele><time>2026-04-11T13:14:47.999Z</time></trkpt><trkpt lat="44.780242612347756" lon="9.329943329678034"><ele>955.3333333333333</ele><time>2026-04-11T13:14:48.999Z</time></trkpt><trkpt lat="44.78030943752459" lon="9.32997415197833"><ele>959.0</ele><time>2026-04-11T13:14:49.999Z</time></trkpt><trkpt lat="44.78037520671548" lon="9.329986452279307"><ele>962.6666666666666</ele><time>2026-04-11T13:14:50.999Z</time></trkpt><trkpt lat="44.78047197335906" lon="9.330016848829885"><ele>966.3333333333333</ele><time>2026-04-11T13:14:51.999Z</time></trkpt><trkpt lat="44.78057996485759" lon="9.330050502566309"><ele>970.0</ele><time>2026-04-11T13:14:52.999Z</time></trkpt><trkpt lat="44.78064912848797" lon="9.330090253222567"><ele>970.0</ele><time>2026-04-11T13:14:53.999Z</time></trkpt><trkpt lat="44.78071304464279" lon="9.330151503913312"><ele>970.0</ele><time>2026-04-11T13:14:54.999Z</time></trkpt><trkpt lat="44.78078660169337" lon="9.33020844312326"><ele>970.0</ele><time>2026-04-11T13:14:55.999Z</time></trkpt><trkpt lat="44.780870080784304" lon="9.330293729789696"><ele>970.0</ele><time>2026-04-11T13:14:56.999Z</time></trkpt><trkpt lat="44.78095860297579" lon="9.33038070790249"><ele>970.0</ele><time>2026-04-11T13:14:57.999Z</time></trkpt><trkpt lat="44.78102811664872" lon="9.33044464153201"><ele>973.3333333333333</ele><time>2026-04-11T13:14:58.999Z</time></trkpt><trkpt lat="44.7810858798814" lon="9.330511357172433"><ele>976.6666666666666</ele><time>2026-04-11T13:14:59.999Z</time></trkpt><trkpt lat="44.781199727547786" lon="9.330529346599096"><ele>980.0</ele><time>2026-04-11T13:15:01.999Z</time></trkpt><trkpt lat="44.78128292583756" lon="9.330504191606849"><ele>983.3333333333333</ele><time>2026-04-11T13:15:02.999Z</time></trkpt><trkpt lat="44.781350365398715" lon="9.330445330745"><ele>986.6666666666666</ele><time>2026-04-11T13:15:03.999Z</time></trkpt><trkpt lat="44.78140768209235" lon="9.330384300561981"><ele>990.0</ele><time>2026-04-11T13:15:04.999Z</time></trkpt><trkpt lat="44.78148887005869" lon="9.330351960884894"><ele>990.0</ele><time>2026-04-11T13:15:06.999Z</time></trkpt><trkpt lat="44.7815808163074" lon="9.330424028866565"><ele>990.0</ele><time>2026-04-11T13:15:08.999Z</time></trkpt><trkpt lat="44.78167116479637" lon="9.33046775964689"><ele>990.0</ele><time>2026-04-11T13:15:10.999Z</time></trkpt><trkpt lat="44.781743113028085" lon="9.330442555405341"><ele>990.0</ele><time>2026-04-11T13:15:12.999Z</time></trkpt><trkpt lat="44.78180655900071" lon="9.330425919862508"><ele>990.0</ele><time>2026-04-11T13:15:14.999Z</time></trkpt><trkpt lat="44.78195438659908" lon="9.330350800880234"><ele>990.0</ele><time>2026-04-11T13:15:16.999Z</time></trkpt><trkpt lat="44.78197727501533" lon="9.330246998962222"><ele>990.0</ele><time>2026-04-11T13:15:19Z</time></trkpt><trkpt lat="44.781937884214265" lon="9.330075714766226"><ele>990.0</ele><time>2026-04-11T13:15:21Z</time></trkpt><trkpt lat="44.78189929252466" lon="9.32999543339281"><ele>990.0</ele><time>2026-04-11T13:15:22Z</time></trkpt><trkpt lat="44.781839120048375" lon="9.32991729576005"><ele>990.0</ele><time>2026-04-11T13:15:23Z</time></trkpt><trkpt lat="44.78180109533305" lon="9.329824335738884"><ele>990.0</ele><time>2026-04-11T13:15:24Z</time></trkpt><trkpt lat="44.78176359153559" lon="9.329747522088851"><ele>996.3333333333334</ele><time>2026-04-11T13:15:25Z</time></trkpt><trkpt lat="44.78172281346578" lon="9.329662121878165"><ele>1002.6666666666667</ele><time>2026-04-11T13:15:26Z</time></trkpt><trkpt lat="44.781673816403504" lon="9.329580031666783"><ele>1009.0</ele><time>2026-04-11T13:15:27Z</time></trkpt><trkpt lat="44.7816198153005" lon="9.329529977300528"><ele>1015.3333333333334</ele><time>2026-04-11T13:15:28Z</time></trkpt><trkpt lat="44.7815491490736" lon="9.329488462613376"><ele>1021.6666666666667</ele><time>2026-04-11T13:15:29Z</time></trkpt><trkpt lat="44.78146309263472" lon="9.329427926849881"><ele>1028.0</ele><time>2026-04-11T13:15:30Z</time></trkpt><trkpt lat="44.78138343580087" lon="9.329363119931877"><ele>1028.0</ele><time>2026-04-11T13:15:31Z</time></trkpt><trkpt lat="44.78130358934713" lon="9.329299891758009"><ele>1028.0</ele><time>2026-04-11T13:15:32Z</time></trkpt><trkpt lat="44.78121033991306" lon="9.329240506822558"><ele>1028.0</ele><time>2026-04-11T13:15:33Z</time></trkpt><trkpt lat="44.78111490708204" lon="9.329220280964108"><ele>1028.0</ele><time>2026-04-11T13:15:35Z</time></trkpt><trkpt lat="44.78103635698209" lon="9.329205218217751"><ele>1028.0</ele><time>2026-04-11T13:15:37Z</time></trkpt><trkpt lat="44.78091118975792" lon="9.32915582224753"><ele>1027.2</ele><time>2026-04-11T13:15:39Z</time></trkpt><trkpt lat="44.780827560184946" lon="9.329042749682026"><ele>1026.4</ele><time>2026-04-11T13:15:41Z</time></trkpt><trkpt lat="44.780790443070316" lon="9.328903425335604"><ele>1025.6000000000001</ele><time>2026-04-11T13:15:43Z</time></trkpt><trkpt lat="44.78081578054964" lon="9.328757995758004"><ele>1024.8</ele><time>2026-04-11T13:15:45Z</time></trkpt><trkpt lat="44.78086868304271" lon="9.32868973743101"><ele>1024.0</ele><time>2026-04-11T13:15:46Z</time></trkpt><trkpt lat="44.78091399769193" lon="9.328590596586258"><ele>1024.0</ele><time>2026-04-11T13:15:47Z</time></trkpt><trkpt lat="44.78095610402864" lon="9.328500606751769"><ele>1024.0</ele><time>2026-04-11T13:15:48Z</time></trkpt><trkpt lat="44.780989051030254" lon="9.328406249854055"><ele>1024.0</ele><time>2026-04-11T13:15:49Z</time></trkpt><trkpt lat="44.780942264997485" lon="9.328218051153215"><ele>1024.0</ele><time>2026-04-11T13:15:51Z</time></trkpt><trkpt lat="44.780902365836425" lon="9.328101554016365"><ele>1024.0</ele><time>2026-04-11T13:15:52Z</time></trkpt><trkpt lat="44.780878715719744" lon="9.328004128310967"><ele>1025.5714285714284</ele><time>2026-04-11T13:15:53Z</time></trkpt><trkpt lat="44.7808873131548" lon="9.32791322087083"><ele>1027.142857142857</ele><time>2026-04-11T13:15:54Z</time></trkpt><trkpt lat="44.78092900399653" lon="9.327802253017607"><ele>1028.7142857142858</ele><time>2026-04-11T13:15:56Z</time></trkpt><trkpt lat="44.78095639565689" lon="9.327699899811497"><ele>1030.2857142857142</ele><time>2026-04-11T13:15:57Z</time></trkpt><trkpt lat="44.78097899914966" lon="9.327602636410832"><ele>1031.857142857143</ele><time>2026-04-11T13:15:58Z</time></trkpt><trkpt lat="44.7809974951542" lon="9.327500084636394"><ele>1033.4285714285713</ele><time>2026-04-11T13:15:59Z</time></trkpt><trkpt lat="44.780999971845375" lon="9.32740515279122"><ele>1035.0</ele><time>2026-04-11T13:16:00Z</time></trkpt><trkpt lat="44.78099636909627" lon="9.327286950652754"><ele>1036.857142857143</ele><time>2026-04-11T13:16:01Z</time></trkpt><trkpt lat="44.780996667607674" lon="9.327161218447074"><ele>1038.7142857142858</ele><time>2026-04-11T13:16:02Z</time></trkpt><trkpt lat="44.78100334838146" lon="9.327056871329306"><ele>1040.5714285714287</ele><time>2026-04-11T13:16:03Z</time></trkpt><trkpt lat="44.78102113063001" lon="9.326971051337878"><ele>1042.4285714285716</ele><time>2026-04-11T13:16:04Z</time></trkpt><trkpt lat="44.78104191433885" lon="9.326884663401865"><ele>1044.2857142857144</ele><time>2026-04-11T13:16:05Z</time></trkpt><trkpt lat="44.78106430224245" lon="9.326788565922998"><ele>1046.142857142857</ele><time>2026-04-11T13:16:06Z</time></trkpt><trkpt lat="44.78106456806074" lon="9.326692931314094"><ele>1048.0</ele><time>2026-04-11T13:16:07Z</time></trkpt><trkpt lat="44.78110680917479" lon="9.326501799147637"><ele>1053.1666666666665</ele><time>2026-04-11T13:16:09Z</time></trkpt><trkpt lat="44.78120034249752" lon="9.326426084142257"><ele>1058.3333333333333</ele><time>2026-04-11T13:16:11Z</time></trkpt><trkpt lat="44.78126312172598" lon="9.326351555552469"><ele>1063.5</ele><time>2026-04-11T13:16:12Z</time></trkpt><trkpt lat="44.781287146846566" lon="9.326261774885412"><ele>1068.6666666666667</ele><time>2026-04-11T13:16:13Z</time></trkpt><trkpt lat="44.781322767646685" lon="9.326153405702762"><ele>1073.8333333333335</ele><time>2026-04-11T13:16:14Z</time></trkpt><trkpt lat="44.781373486276955" lon="9.326046224956032"><ele>1079.0</ele><time>2026-04-11T13:16:15Z</time></trkpt><trkpt lat="44.781412418381166" lon="9.325953502189563"><ele>1079.0</ele><time>2026-04-11T13:16:16Z</time></trkpt><trkpt lat="44.781387810958" lon="9.32580425792509"><ele>1079.0</ele><time>2026-04-11T13:16:18Z</time></trkpt><trkpt lat="44.78136787490086" lon="9.325706009307424"><ele>1079.0</ele><time>2026-04-11T13:16:19Z</time></trkpt><trkpt lat="44.78141156462754" lon="9.325558206113884"><ele>1079.0</ele><time>2026-04-11T13:16:21Z</time></trkpt><trkpt lat="44.781481565148866" lon="9.325503544690099"><ele>1079.0</ele><time>2026-04-11T13:16:22Z</time></trkpt><trkpt lat="44.78154670249827" lon="9.325457698733329"><ele>1079.0</ele><time>2026-04-11T13:16:23Z</time></trkpt><trkpt lat="44.78161583433019" lon="9.325416224086132"><ele>1079.5</ele><time>2026-04-11T13:16:24Z</time></trkpt><trkpt lat="44.781680160913716" lon="9.325365161196222"><ele>1080.0</ele><time>2026-04-11T13:16:25Z</time></trkpt><trkpt lat="44.78175684833859" lon="9.325402159280705"><ele>1080.5</ele><time>2026-04-11T13:16:28Z</time></trkpt><trkpt lat="44.78181999273127" lon="9.325436630161896"><ele>1081.0</ele><time>2026-04-11T13:16:45Z</time></trkpt><trkpt lat="44.781865564376986" lon="9.325513719229189"><ele>1081.5</ele><time>2026-04-11T13:16:48.999Z</time></trkpt><trkpt lat="44.78192355408323" lon="9.325624637494444"><ele>1082.0</ele><time>2026-04-11T13:16:51.999Z</time></trkpt><trkpt lat="44.78197949789878" lon="9.325753183527349"><ele>1086.0</ele><time>2026-04-11T13:16:53.999Z</time></trkpt><trkpt lat="44.78204726079619" lon="9.325919267693767"><ele>1090.0</ele><time>2026-04-11T13:16:55.999Z</time></trkpt><trkpt lat="44.78210357839698" lon="9.326053139324204"><ele>1094.0</ele><time>2026-04-11T13:16:57.999Z</time></trkpt><trkpt lat="44.78217883225451" lon="9.326209610115857"><ele>1098.0</ele><time>2026-04-11T13:16:59.999Z</time></trkpt><trkpt lat="44.78226862616679" lon="9.326246841107773"><ele>1098.0</ele><time>2026-04-11T13:17:01.999Z</time></trkpt><trkpt lat="44.78233161012623" lon="9.326243617585328"><ele>1098.0</ele><time>2026-04-11T13:17:02.999Z</time></trkpt><trkpt lat="44.782420025589694" lon="9.326235783183268"><ele>1098.0</ele><time>2026-04-11T13:17:04.999Z</time></trkpt><trkpt lat="44.78253087264329" lon="9.326262345094323"><ele>1098.0</ele><time>2026-04-11T13:17:06.999Z</time></trkpt><trkpt lat="44.7826247231807" lon="9.326230877269175"><ele>1098.0</ele><time>2026-04-11T13:17:08.999Z</time></trkpt><trkpt lat="44.782715255804966" lon="9.32613323582635"><ele>1099.6666666666667</ele><time>2026-04-11T13:17:10.999Z</time></trkpt><trkpt lat="44.78277358758507" lon="9.326086879848365"><ele>1101.3333333333333</ele><time>2026-04-11T13:17:11.999Z</time></trkpt><trkpt lat="44.78284060246725" lon="9.326079557739732"><ele>1103.0</ele><time>2026-04-11T13:20:57.999Z</time></trkpt><trkpt lat="44.782904197467396" lon="9.32608459326929"><ele>1104.6666666666665</ele><time>2026-04-11T13:20:59.999Z</time></trkpt><trkpt lat="44.78303736369777" lon="9.326080971374758"><ele>1106.3333333333333</ele><time>2026-04-11T13:21:01.999Z</time></trkpt><trkpt lat="44.78310642343322" lon="9.326092122590254"><ele>1108.0</ele><time>2026-04-11T13:21:02.999Z</time></trkpt><trkpt lat="44.783220874572734" lon="9.326124187615356"><ele>1108.0</ele><time>2026-04-11T13:21:04.999Z</time></trkpt><trkpt lat="44.78332400958575" lon="9.326137100579913"><ele>1108.0</ele><time>2026-04-11T13:21:06.999Z</time></trkpt><trkpt lat="44.7834180737367" lon="9.326218620985296"><ele>1108.0</ele><time>2026-04-11T13:21:08.999Z</time></trkpt><trkpt lat="44.78349742861265" lon="9.32628973308658"><ele>1108.0</ele><time>2026-04-11T13:21:10.999Z</time></trkpt><trkpt lat="44.78357164084076" lon="9.326318172239942"><ele>1108.0</ele><time>2026-04-11T13:21:12.999Z</time></trkpt><trkpt lat="44.78367098723376" lon="9.326341299882486"><ele>1110.8333333333333</ele><time>2026-04-11T13:21:14.999Z</time></trkpt><trkpt lat="44.78372833988723" lon="9.326399893533383"><ele>1113.6666666666665</ele><time>2026-04-11T13:21:15.999Z</time></trkpt><trkpt lat="44.78379097184863" lon="9.32643783435199"><ele>1116.5</ele><time>2026-04-11T13:21:16.999Z</time></trkpt><trkpt lat="44.7838679603091" lon="9.326450037811595"><ele>1119.3333333333333</ele><time>2026-04-11T13:21:17.999Z</time></trkpt><trkpt lat="44.78398574076905" lon="9.326485402251203"><ele>1122.1666666666667</ele><time>2026-04-11T13:21:19.999Z</time></trkpt><trkpt lat="44.784051683657125" lon="9.326484055737383"><ele>1125.0</ele><time>2026-04-11T13:21:20.999Z</time></trkpt><trkpt lat="44.78415383446119" lon="9.326451120285313"><ele>1125.0</ele><time>2026-04-11T13:21:22.999Z</time></trkpt><trkpt lat="44.784083001189245" lon="9.326478440921687"><ele>1125.0</ele><time>2026-04-11T13:22:34Z</time></trkpt><trkpt lat="44.78400953876106" lon="9.326493721114778"><ele>1125.0</ele><time>2026-04-11T13:22:51Z</time></trkpt><trkpt lat="44.78391849020049" lon="9.326471741612998"><ele>1125.0</ele><time>2026-04-11T13:22:54Z</time></trkpt><trkpt lat="44.78383569383532" lon="9.326421267290732"><ele>1125.0</ele><time>2026-04-11T13:22:56Z</time></trkpt><trkpt lat="44.78376393229909" lon="9.326398806209093"><ele>1125.0</ele><time>2026-04-11T13:22:57Z</time></trkpt><trkpt lat="44.78365704176281" lon="9.326338920952209"><ele>1124.2</ele><time>2026-04-11T13:22:59Z</time></trkpt><trkpt lat="44.78355318646652" lon="9.326281861267693"><ele>1123.4</ele><time>2026-04-11T13:23:00.999Z</time></trkpt><trkpt lat="44.78344835019786" lon="9.32626315487711"><ele>1122.6</ele><time>2026-04-11T13:23:02.999Z</time></trkpt><trkpt lat="44.78337188028583" lon="9.326167194975117"><ele>1121.8</ele><time>2026-04-11T13:23:04.999Z</time></trkpt><trkpt lat="44.78335137357682" lon="9.326083333552365"><ele>1121.0</ele><time>2026-04-11T13:23:06.999Z</time></trkpt><trkpt lat="44.783385394172136" lon="9.325980870513408"><ele>1119.3333333333335</ele><time>2026-04-11T13:23:08.999Z</time></trkpt><trkpt lat="44.78340975341298" lon="9.32585968724025"><ele>1117.6666666666667</ele><time>2026-04-11T13:23:10.999Z</time></trkpt><trkpt lat="44.78339703473234" lon="9.325723427094742"><ele>1116.0</ele><time>2026-04-11T13:23:12.999Z</time></trkpt><trkpt lat="44.783374102288825" lon="9.325621009744836"><ele>1114.3333333333333</ele><time>2026-04-11T13:23:13.999Z</time></trkpt><trkpt lat="44.78334846602002" lon="9.325498944200918"><ele>1112.6666666666665</ele><time>2026-04-11T13:23:14.999Z</time></trkpt><trkpt lat="44.783323069098145" lon="9.325395396401131"><ele>1111.0</ele><time>2026-04-11T13:23:15.999Z</time></trkpt><trkpt lat="44.78329226771552" lon="9.325298347840564"><ele>1111.0</ele><time>2026-04-11T13:23:16.999Z</time></trkpt><trkpt lat="44.7832615428149" lon="9.325209073318495"><ele>1111.0</ele><time>2026-04-11T13:23:17.999Z</time></trkpt><trkpt lat="44.78325299028554" lon="9.325089220339098"><ele>1111.0</ele><time>2026-04-11T13:23:19.999Z</time></trkpt><trkpt lat="44.78327983227851" lon="9.324982659674166"><ele>1111.0</ele><time>2026-04-11T13:23:21.999Z</time></trkpt><trkpt lat="44.78329018305142" lon="9.324861460431054"><ele>1111.0</ele><time>2026-04-11T13:23:25.999Z</time></trkpt><trkpt lat="44.78335263970956" lon="9.324808063752858"><ele>1111.0</ele><time>2026-04-11T13:23:27.999Z</time></trkpt><trkpt lat="44.783488002902494" lon="9.32482195686553"><ele>1113.1666666666665</ele><time>2026-04-11T13:23:29.999Z</time></trkpt><trkpt lat="44.78356474476237" lon="9.324804699468114"><ele>1115.3333333333333</ele><time>2026-04-11T13:23:30.999Z</time></trkpt><trkpt lat="44.78363976227809" lon="9.324778446910656"><ele>1117.5</ele><time>2026-04-11T13:23:31.999Z</time></trkpt><trkpt lat="44.78369970716704" lon="9.324720946166527"><ele>1119.6666666666667</ele><time>2026-04-11T13:23:34.999Z</time></trkpt><trkpt lat="44.78370415712827" lon="9.324573229982466"><ele>1121.8333333333335</ele><time>2026-04-11T13:23:36.999Z</time></trkpt><trkpt lat="44.78365453661909" lon="9.324516253391577"><ele>1124.0</ele><time>2026-04-11T13:23:37.999Z</time></trkpt><trkpt lat="44.783606655040664" lon="9.324457126483994"><ele>1127.1666666666667</ele><time>2026-04-11T13:23:38.999Z</time></trkpt><trkpt lat="44.78358717047291" lon="9.324359917168291"><ele>1130.3333333333335</ele><time>2026-04-11T13:23:40.999Z</time></trkpt><trkpt lat="44.78366255703478" lon="9.324337586484155"><ele>1133.5</ele><time>2026-04-11T13:23:43Z</time></trkpt><trkpt lat="44.783792310844824" lon="9.324325701363138"><ele>1136.6666666666667</ele><time>2026-04-11T13:23:45Z</time></trkpt><trkpt lat="44.783868890529114" lon="9.324302340835562"><ele>1139.8333333333333</ele><time>2026-04-11T13:23:46Z</time></trkpt><trkpt lat="44.78394741899226" lon="9.324279577483166"><ele>1143.0</ele><time>2026-04-11T13:23:47Z</time></trkpt><trkpt lat="44.784029068134714" lon="9.32427127394416"><ele>1143.0</ele><time>2026-04-11T13:23:48Z</time></trkpt><trkpt lat="44.78410643898001" lon="9.32425810205632"><ele>1143.0</ele><time>2026-04-11T13:23:49Z</time></trkpt><trkpt lat="44.78418712147527" lon="9.3242340582966"><ele>1143.0</ele><time>2026-04-11T13:23:50Z</time></trkpt><trkpt lat="44.78426784688855" lon="9.324234425507314"><ele>1143.0</ele><time>2026-04-11T13:23:51Z</time></trkpt><trkpt lat="44.784405675621414" lon="9.324222533394055"><ele>1143.0</ele><time>2026-04-11T13:23:53Z</time></trkpt><trkpt lat="44.78447170687134" lon="9.32419782441327"><ele>1143.0</ele><time>2026-04-11T13:23:54Z</time></trkpt><trkpt lat="44.784595587083544" lon="9.324228131287377"><ele>1145.6666666666667</ele><time>2026-04-11T13:23:56Z</time></trkpt><trkpt lat="44.78467159765399" lon="9.324240145099136"><ele>1148.3333333333333</ele><time>2026-04-11T13:23:57Z</time></trkpt><trkpt lat="44.78474507590586" lon="9.324271396941649"><ele>1151.0</ele><time>2026-04-11T13:23:58Z</time></trkpt><trkpt lat="44.78482602921618" lon="9.324302905219607"><ele>1153.6666666666665</ele><time>2026-04-11T13:23:59Z</time></trkpt><trkpt lat="44.784900536234794" lon="9.324338151784788"><ele>1156.3333333333333</ele><time>2026-04-11T13:24:00Z</time></trkpt><trkpt lat="44.78497200923676" lon="9.324391196181624"><ele>1159.0</ele><time>2026-04-11T13:24:01Z</time></trkpt><trkpt lat="44.785037597010664" lon="9.324437768335466"><ele>1159.0</ele><time>2026-04-11T13:24:02Z</time></trkpt><trkpt lat="44.785142803594034" lon="9.324568322709235"><ele>1159.0</ele><time>2026-04-11T13:24:04Z</time></trkpt><trkpt lat="44.785187978208846" lon="9.324647109913261"><ele>1159.0</ele><time>2026-04-11T13:24:05Z</time></trkpt><trkpt lat="44.78521828698672" lon="9.324739056691945"><ele>1159.0</ele><time>2026-04-11T13:24:06Z</time></trkpt><trkpt lat="44.785234232049774" lon="9.324842472007884"><ele>1159.0</ele><time>2026-04-11T13:24:07Z</time></trkpt><trkpt lat="44.78524213168874" lon="9.324955492960688"><ele>1159.0</ele><time>2026-04-11T13:24:08Z</time></trkpt><trkpt lat="44.785249538717956" lon="9.325078084086822"><ele>1160.6666666666665</ele><time>2026-04-11T13:24:09Z</time></trkpt><trkpt lat="44.7852606710596" lon="9.32520104552747"><ele>1162.3333333333333</ele><time>2026-04-11T13:24:10Z</time></trkpt><trkpt lat="44.78526946384985" lon="9.325311516396388"><ele>1164.0</ele><time>2026-04-11T13:24:11Z</time></trkpt><trkpt lat="44.78525984323209" lon="9.325415352555542"><ele>1165.6666666666667</ele><time>2026-04-11T13:24:12Z</time></trkpt><trkpt lat="44.78525187993532" lon="9.32552170316307"><ele>1167.3333333333335</ele><time>2026-04-11T13:24:13Z</time></trkpt><trkpt lat="44.785244299051634" lon="9.32565013806894"><ele>1169.0</ele><time>2026-04-11T13:24:14Z</time></trkpt><trkpt lat="44.78525738893423" lon="9.325846670429895"><ele>1169.0</ele><time>2026-04-11T13:24:16Z</time></trkpt><trkpt lat="44.78525563451859" lon="9.32595937529954"><ele>1169.0</ele><time>2026-04-11T13:24:43Z</time></trkpt><trkpt lat="44.78520479658058" lon="9.326018919638997"><ele>1169.0</ele><time>2026-04-11T13:24:45Z</time></trkpt><trkpt lat="44.785168054235776" lon="9.326105243525204"><ele>1169.0</ele><time>2026-04-11T13:24:47Z</time></trkpt><trkpt lat="44.785140507364275" lon="9.326241210852457"><ele>1169.0</ele><time>2026-04-11T13:24:49Z</time></trkpt><trkpt lat="44.78510844648374" lon="9.326413407379219"><ele>1169.0</ele><time>2026-04-11T13:24:51Z</time></trkpt><trkpt lat="44.78508940453524" lon="9.326503940086734"><ele>1165.0</ele><time>2026-04-11T13:24:52Z</time></trkpt><trkpt lat="44.78505357887169" lon="9.32662498660203"><ele>1161.0</ele><time>2026-04-11T13:24:54Z</time></trkpt><trkpt lat="44.78498265070831" lon="9.326719812724296"><ele>1157.0</ele><time>2026-04-11T13:24:57Z</time></trkpt><trkpt lat="44.78493388583154" lon="9.326782531586229"><ele>1153.0</ele><time>2026-04-11T13:24:59Z</time></trkpt><trkpt lat="44.78487542132607" lon="9.326857725108539"><ele>1149.0</ele><time>2026-04-11T13:25:01Z</time></trkpt><trkpt lat="44.78480956351477" lon="9.326942427455482"><ele>1145.0</ele><time>2026-04-11T13:25:04Z</time></trkpt><trkpt lat="44.78475226646226" lon="9.327016119466704"><ele>1145.0</ele><time>2026-04-11T13:25:06Z</time></trkpt><trkpt lat="44.784794446440294" lon="9.327165222540748"><ele>1145.0</ele><time>2026-04-11T13:25:07Z</time></trkpt><trkpt lat="44.784788315805116" lon="9.327287164558022"><ele>1145.0</ele><time>2026-04-11T13:25:09Z</time></trkpt><trkpt lat="44.78482599943109" lon="9.327400263636276"><ele>1145.0</ele><time>2026-04-11T13:25:11Z</time></trkpt><trkpt lat="44.784887311188506" lon="9.327453242797388"><ele>1145.0</ele><time>2026-04-11T13:25:12.999Z</time></trkpt><trkpt lat="44.78494941349242" lon="9.327367919554645"><ele>1145.0</ele><time>2026-04-11T13:25:25.999Z</time></trkpt><trkpt lat="44.78500265605005" lon="9.327282752489335"><ele>1145.0</ele><time>2026-04-11T13:25:36.999Z</time></trkpt><trkpt lat="44.78507023271876" lon="9.327139974008908"><ele>1145.0</ele><time>2026-04-11T13:25:38.999Z</time></trkpt><trkpt lat="44.78512223312515" lon="9.326957047941432"><ele>1145.0</ele><time>2026-04-11T13:25:40.999Z</time></trkpt><trkpt lat="44.78513976115926" lon="9.326836607831082"><ele>1145.0</ele><time>2026-04-11T13:25:41.999Z</time></trkpt><trkpt lat="44.785155050610314" lon="9.326736388917665"><ele>1145.0</ele><time>2026-04-11T13:25:42.999Z</time></trkpt><trkpt lat="44.785112661633356" lon="9.32658572000804"><ele>1145.0</ele><time>2026-04-11T13:25:43.999Z</time></trkpt><trkpt lat="44.785137995094" lon="9.326479206291491"><ele>1145.0</ele><time>2026-04-11T13:25:44.999Z</time></trkpt><trkpt lat="44.78515929755517" lon="9.326377838060292"><ele>1145.0</ele><time>2026-04-11T13:25:45.999Z</time></trkpt><trkpt lat="44.78517735247778" lon="9.326275379585566"><ele>1145.0</ele><time>2026-04-11T13:25:46.999Z</time></trkpt><trkpt lat="44.78520850525731" lon="9.32612838909687"><ele>1145.0</ele><time>2026-04-11T13:25:47.999Z</time></trkpt><trkpt lat="44.78526105919648" lon="9.326008274878232"><ele>1145.0</ele><time>2026-04-11T13:25:49Z</time></trkpt><trkpt lat="44.78534628096924" lon="9.325886482097024"><ele>1149.0</ele><time>2026-04-11T13:25:50Z</time></trkpt><trkpt lat="44.78542194150989" lon="9.325803236202644"><ele>1153.0</ele><time>2026-04-11T13:25:51Z</time></trkpt><trkpt lat="44.78548058339491" lon="9.325737885400072"><ele>1157.0</ele><time>2026-04-11T13:25:52Z</time></trkpt><trkpt lat="44.78553260642243" lon="9.325672386676937"><ele>1161.0</ele><time>2026-04-11T13:25:53Z</time></trkpt><trkpt lat="44.785581427008744" lon="9.325600244171099"><ele>1165.0</ele><time>2026-04-11T13:25:54Z</time></trkpt><trkpt lat="44.78562870615329" lon="9.325525326896681"><ele>1169.0</ele><time>2026-04-11T13:25:55Z</time></trkpt><trkpt lat="44.78568621184106" lon="9.325435910446231"><ele>1171.25</ele><time>2026-04-11T13:25:56Z</time></trkpt><trkpt lat="44.78575895778039" lon="9.32534786040092"><ele>1173.5</ele><time>2026-04-11T13:25:57Z</time></trkpt><trkpt lat="44.7858402229104" lon="9.325268795411196"><ele>1175.75</ele><time>2026-04-11T13:25:59Z</time></trkpt><trkpt lat="44.78605379031127" lon="9.325432766796663"><ele>1178.0</ele><time>2026-04-11T13:26:01Z</time></trkpt><trkpt lat="44.78611381778002" lon="9.325529320153672"><ele>1181.6</ele><time>2026-04-11T13:26:05Z</time></trkpt><trkpt lat="44.78619935265425" lon="9.325659219972653"><ele>1185.1999999999998</ele><time>2026-04-11T13:26:07Z</time></trkpt><trkpt lat="44.78626518522214" lon="9.325750834814269"><ele>1188.8</ele><time>2026-04-11T13:26:08Z</time></trkpt><trkpt lat="44.78630486390775" lon="9.32586730050418"><ele>1192.3999999999999</ele><time>2026-04-11T13:26:09Z</time></trkpt><trkpt lat="44.78633981507336" lon="9.325984200313524"><ele>1196.0</ele><time>2026-04-11T13:26:10Z</time></trkpt><trkpt lat="44.786343471435025" lon="9.326080055238965"><ele>1196.0</ele><time>2026-04-11T13:26:11Z</time></trkpt><trkpt lat="44.78633306629421" lon="9.326266989152286"><ele>1196.0</ele><time>2026-04-11T13:26:13Z</time></trkpt><trkpt lat="44.78632798516492" lon="9.326376741125234"><ele>1196.0</ele><time>2026-04-11T13:26:14Z</time></trkpt><trkpt lat="44.786346900502245" lon="9.3264811322658"><ele>1196.0</ele><time>2026-04-11T13:26:15Z</time></trkpt><trkpt lat="44.78640641297475" lon="9.326585422211133"><ele>1196.0</ele><time>2026-04-11T13:26:17Z</time></trkpt><trkpt lat="44.786486444450766" lon="9.326577649429778"><ele>1193.0</ele><time>2026-04-11T13:26:18Z</time></trkpt><trkpt lat="44.78655377352305" lon="9.326578132569422"><ele>1190.0</ele><time>2026-04-11T13:26:19Z</time></trkpt><trkpt lat="44.786645966417495" lon="9.32656728363504"><ele>1187.0</ele><time>2026-04-11T13:26:20Z</time></trkpt><trkpt lat="44.786761766806144" lon="9.32653543794149"><ele>1184.0</ele><time>2026-04-11T13:26:21Z</time></trkpt><trkpt lat="44.78683763764897" lon="9.326503737678836"><ele>1181.0</ele><time>2026-04-11T13:26:22Z</time></trkpt><trkpt lat="44.786900298567915" lon="9.326486253020192"><ele>1178.0</ele><time>2026-04-11T13:26:23Z</time></trkpt><trkpt lat="44.787071172945794" lon="9.326401000357269"><ele>1184.2</ele><time>2026-04-11T13:26:25Z</time></trkpt><trkpt lat="44.78717342715977" lon="9.326362411641657"><ele>1190.4</ele><time>2026-04-11T13:26:26Z</time></trkpt><trkpt lat="44.787261698937684" lon="9.32632216543417"><ele>1196.6000000000001</ele><time>2026-04-11T13:26:27Z</time></trkpt><trkpt lat="44.78733784606011" lon="9.326259605785893"><ele>1202.8</ele><time>2026-04-11T13:26:28Z</time></trkpt><trkpt lat="44.78741119608668" lon="9.326203542211571"><ele>1209.0</ele><time>2026-04-11T13:26:29Z</time></trkpt><trkpt lat="44.787483880774815" lon="9.326134256448599"><ele>1209.0</ele><time>2026-04-11T13:26:30Z</time></trkpt><trkpt lat="44.787564093682235" lon="9.326093901988202"><ele>1209.0</ele><time>2026-04-11T13:26:31Z</time></trkpt><trkpt lat="44.7876397601986" lon="9.326009134052828"><ele>1209.0</ele><time>2026-04-11T13:26:32Z</time></trkpt><trkpt lat="44.78772142749733" lon="9.325962236888598"><ele>1209.0</ele><time>2026-04-11T13:26:33Z</time></trkpt><trkpt lat="44.787841199707344" lon="9.325852529761281"><ele>1209.0</ele><time>2026-04-11T13:26:34Z</time></trkpt><trkpt lat="44.78796219930957" lon="9.325790300291475"><ele>1203.75</ele><time>2026-04-11T13:26:35Z</time></trkpt><trkpt lat="44.78808039301913" lon="9.325726607029994"><ele>1198.5</ele><time>2026-04-11T13:26:36Z</time></trkpt><trkpt lat="44.78821532165436" lon="9.325692561119181"><ele>1193.25</ele><time>2026-04-11T13:26:37Z</time></trkpt><trkpt lat="44.78835071468676" lon="9.325670488255115"><ele>1188.0</ele><time>2026-04-11T13:26:38Z</time></trkpt><trkpt lat="44.78847968931912" lon="9.325663783673548"><ele>1187.4</ele><time>2026-04-11T13:26:39Z</time></trkpt><trkpt lat="44.788601860773404" lon="9.325659767591905"><ele>1186.8</ele><time>2026-04-11T13:26:40Z</time></trkpt><trkpt lat="44.78870662088364" lon="9.325656323866127"><ele>1186.2</ele><time>2026-04-11T13:26:41Z</time></trkpt><trkpt lat="44.78880975134575" lon="9.325648785066816"><ele>1185.6</ele><time>2026-04-11T13:26:42Z</time></trkpt><trkpt lat="44.78890123412283" lon="9.325617963827222"><ele>1185.0</ele><time>2026-04-11T13:26:43Z</time></trkpt><trkpt lat="44.789002130799666" lon="9.325609907448055"><ele>1185.0</ele><time>2026-04-11T13:26:44Z</time></trkpt><trkpt lat="44.789104557535296" lon="9.32555411473809"><ele>1185.0</ele><time>2026-04-11T13:26:45Z</time></trkpt><trkpt lat="44.78922193299022" lon="9.325525230649117"><ele>1185.0</ele><time>2026-04-11T13:26:46Z</time></trkpt><trkpt lat="44.78932489227546" lon="9.325532638370111"><ele>1185.0</ele><time>2026-04-11T13:26:47Z</time></trkpt><trkpt lat="44.78942085597154" lon="9.325554782843078"><ele>1185.0</ele><time>2026-04-11T13:26:48Z</time></trkpt><trkpt lat="44.78952477756358" lon="9.325562861458875"><ele>1185.0</ele><time>2026-04-11T13:26:49Z</time></trkpt><trkpt lat="44.78961797092136" lon="9.325567452825478"><ele>1185.0</ele><time>2026-04-11T13:26:50Z</time></trkpt><trkpt lat="44.78971012491281" lon="9.325554298311241"><ele>1185.0</ele><time>2026-04-11T13:26:51Z</time></trkpt><trkpt lat="44.78982903609684" lon="9.32558306135198"><ele>1185.0</ele><time>2026-04-11T13:26:52Z</time></trkpt><trkpt lat="44.789933438495254" lon="9.325639991641053"><ele>1185.0</ele><time>2026-04-11T13:26:53Z</time></trkpt><trkpt lat="44.7900041857647" lon="9.325647925271698"><ele>1185.0</ele><time>2026-04-11T13:26:54Z</time></trkpt><trkpt lat="44.79009234888682" lon="9.325673641551498"><ele>1185.0</ele><time>2026-04-11T13:26:56Z</time></trkpt><trkpt lat="44.79017063491503" lon="9.32565536849807"><ele>1185.0</ele><time>2026-04-11T13:26:57Z</time></trkpt><trkpt lat="44.790293599204865" lon="9.32566154160258"><ele>1185.0</ele><time>2026-04-11T13:26:58Z</time></trkpt><trkpt lat="44.79037972887433" lon="9.325727367088938"><ele>1185.0</ele><time>2026-04-11T13:26:59Z</time></trkpt><trkpt lat="44.79045323286161" lon="9.32581410112409"><ele>1192.0</ele><time>2026-04-11T13:27:00Z</time></trkpt><trkpt lat="44.79054821711389" lon="9.325921257700015"><ele>1199.0</ele><time>2026-04-11T13:27:01Z</time></trkpt><trkpt lat="44.79065445241388" lon="9.326035749958377"><ele>1206.0</ele><time>2026-04-11T13:27:02Z</time></trkpt><trkpt lat="44.79074654409585" lon="9.326157644494964"><ele>1213.0</ele><time>2026-04-11T13:27:03Z</time></trkpt><trkpt lat="44.79083556618232" lon="9.326255587212692"><ele>1213.0</ele><time>2026-04-11T13:27:04Z</time></trkpt><trkpt lat="44.79091538315523" lon="9.32635707398914"><ele>1213.0</ele><time>2026-04-11T13:27:05Z</time></trkpt><trkpt lat="44.79100366622733" lon="9.326467236753137"><ele>1213.0</ele><time>2026-04-11T13:27:06Z</time></trkpt><trkpt lat="44.79109662389898" lon="9.326568156753456"><ele>1213.0</ele><time>2026-04-11T13:27:06.999Z</time></trkpt><trkpt lat="44.79118814028185" lon="9.326659795819525"><ele>1212.0</ele><time>2026-04-11T13:27:07.999Z</time></trkpt><trkpt lat="44.79127891029619" lon="9.326746754947852"><ele>1211.0</ele><time>2026-04-11T13:27:08.999Z</time></trkpt><trkpt lat="44.79135850965003" lon="9.3268498771308"><ele>1210.0</ele><time>2026-04-11T13:27:09.999Z</time></trkpt><trkpt lat="44.791429892293415" lon="9.326903793607443"><ele>1209.0</ele><time>2026-04-11T13:27:10.999Z</time></trkpt><trkpt lat="44.7914787216287" lon="9.32696488182188"><ele>1208.0</ele><time>2026-04-11T13:27:11.999Z</time></trkpt><trkpt lat="44.79157036584215" lon="9.327061687594277"><ele>1208.0</ele><time>2026-04-11T13:27:13.999Z</time></trkpt><trkpt lat="44.79163080863426" lon="9.327118453459137"><ele>1208.0</ele><time>2026-04-11T13:27:14.999Z</time></trkpt><trkpt lat="44.791705735587755" lon="9.327184755841133"><ele>1208.0</ele><time>2026-04-11T13:27:15.999Z</time></trkpt><trkpt lat="44.791771270009335" lon="9.327245960935581"><ele>1208.0</ele><time>2026-04-11T13:27:16.999Z</time></trkpt><trkpt lat="44.791828793192145" lon="9.327306104758229"><ele>1208.0</ele><time>2026-04-11T13:27:17.999Z</time></trkpt><trkpt lat="44.79191548016032" lon="9.327361212013278"><ele>1208.0</ele><time>2026-04-11T13:27:18.999Z</time></trkpt><trkpt lat="44.79197761758465" lon="9.32738606245397"><ele>1201.2</ele><time>2026-04-11T13:27:19.999Z</time></trkpt><trkpt lat="44.7920969428889" lon="9.327431946765486"><ele>1194.4</ele><time>2026-04-11T13:27:21.999Z</time></trkpt><trkpt lat="44.79220644229096" lon="9.327416497417126"><ele>1187.6000000000001</ele><time>2026-04-11T13:27:22.999Z</time></trkpt><trkpt lat="44.792296516919535" lon="9.3274061105016"><ele>1180.8</ele><time>2026-04-11T13:27:23.999Z</time></trkpt><trkpt lat="44.792376996374934" lon="9.327396534464238"><ele>1174.0</ele><time>2026-04-11T13:27:24.999Z</time></trkpt><trkpt lat="44.792460155132126" lon="9.327388573695913"><ele>1174.0</ele><time>2026-04-11T13:27:25.999Z</time></trkpt><trkpt lat="44.792526127431294" lon="9.327383941268096"><ele>1174.0</ele><time>2026-04-11T13:27:26.999Z</time></trkpt><trkpt lat="44.79260300074192" lon="9.327378044535902"><ele>1174.0</ele><time>2026-04-11T13:27:27.999Z</time></trkpt><trkpt lat="44.7926738968827" lon="9.327388543074676"><ele>1174.0</ele><time>2026-04-11T13:27:28.999Z</time></trkpt><trkpt lat="44.79273786248512" lon="9.327342028151609"><ele>1174.0</ele><time>2026-04-11T13:27:29.999Z</time></trkpt><trkpt lat="44.79281460389029" lon="9.32730354873412"><ele>1174.0</ele><time>2026-04-11T13:27:30.999Z</time></trkpt><trkpt lat="44.792895403386794" lon="9.327230045011037"><ele>1173.2</ele><time>2026-04-11T13:27:31.999Z</time></trkpt><trkpt lat="44.79295990483522" lon="9.327132246059588"><ele>1172.4</ele><time>2026-04-11T13:27:32.999Z</time></trkpt><trkpt lat="44.793018881826725" lon="9.326996198912346"><ele>1171.6</ele><time>2026-04-11T13:27:33.999Z</time></trkpt><trkpt lat="44.79305822066355" lon="9.326845545033276"><ele>1170.8</ele><time>2026-04-11T13:27:34.999Z</time></trkpt><trkpt lat="44.79309000122865" lon="9.326704604199875"><ele>1170.0</ele><time>2026-04-11T13:27:35.999Z</time></trkpt><trkpt lat="44.793119840193015" lon="9.32657374941965"><ele>1170.0</ele><time>2026-04-11T13:27:36.999Z</time></trkpt><trkpt lat="44.79313878425608" lon="9.326445138907726"><ele>1170.0</ele><time>2026-04-11T13:27:37.999Z</time></trkpt><trkpt lat="44.79318818447943" lon="9.326318799622255"><ele>1170.0</ele><time>2026-04-11T13:27:38.999Z</time></trkpt><trkpt lat="44.793220773298444" lon="9.32616533602634"><ele>1170.0</ele><time>2026-04-11T13:27:39.999Z</time></trkpt><trkpt lat="44.79326003080127" lon="9.326040138254383"><ele>1170.0</ele><time>2026-04-11T13:27:40.999Z</time></trkpt><trkpt lat="44.79329520955385" lon="9.325922145579394"><ele>1170.6</ele><time>2026-04-11T13:27:41.999Z</time></trkpt><trkpt lat="44.793323493415826" lon="9.32581882705284"><ele>1171.2</ele><time>2026-04-11T13:27:42.999Z</time></trkpt><trkpt lat="44.79333587608016" lon="9.32571344269431"><ele>1171.8</ele><time>2026-04-11T13:27:43.999Z</time></trkpt><trkpt lat="44.79333595492535" lon="9.325516721737527"><ele>1172.4</ele><time>2026-04-11T13:27:45.999Z</time></trkpt><trkpt lat="44.79331550363045" lon="9.325372360260603"><ele>1173.0</ele><time>2026-04-11T13:27:46.999Z</time></trkpt><trkpt lat="44.793279988945045" lon="9.325225040485218"><ele>1173.0</ele><time>2026-04-11T13:27:47.999Z</time></trkpt><trkpt lat="44.79327642812294" lon="9.325092384892628"><ele>1173.0</ele><time>2026-04-11T13:27:48.999Z</time></trkpt><trkpt lat="44.79324533636487" lon="9.32498553948166"><ele>1173.0</ele><time>2026-04-11T13:27:49.999Z</time></trkpt><trkpt lat="44.793230040787435" lon="9.324876984874342"><ele>1173.0</ele><time>2026-04-11T13:27:50.999Z</time></trkpt><trkpt lat="44.793209220542344" lon="9.324752440057413"><ele>1173.0</ele><time>2026-04-11T13:27:51.999Z</time></trkpt><trkpt lat="44.79317707175065" lon="9.32459948132191"><ele>1173.0</ele><time>2026-04-11T13:27:52.999Z</time></trkpt><trkpt lat="44.79314753113194" lon="9.324449988981996"><ele>1173.0</ele><time>2026-04-11T13:27:53.999Z</time></trkpt><trkpt lat="44.79312832915901" lon="9.324332621966725"><ele>1173.0</ele><time>2026-04-11T13:27:55Z</time></trkpt><trkpt lat="44.79310951050391" lon="9.32422828180863"><ele>1173.0</ele><time>2026-04-11T13:27:56Z</time></trkpt><trkpt lat="44.79308350516007" lon="9.324143632155273"><ele>1173.0</ele><time>2026-04-11T13:27:57Z</time></trkpt><trkpt lat="44.7931138714769" lon="9.324053691200932"><ele>1173.0</ele><time>2026-04-11T13:27:59Z</time></trkpt><trkpt lat="44.793182889327234" lon="9.324065841127162"><ele>1173.0</ele><time>2026-04-11T13:28:21Z</time></trkpt><trkpt lat="44.7932869188549" lon="9.324173820550692"><ele>1173.0</ele><time>2026-04-11T13:28:23Z</time></trkpt><trkpt lat="44.79335584797674" lon="9.32426265868926"><ele>1173.0</ele><time>2026-04-11T13:28:24Z</time></trkpt><trkpt lat="44.79345318463316" lon="9.324355150068664"><ele>1173.0</ele><time>2026-04-11T13:28:25Z</time></trkpt><trkpt lat="44.7935570360324" lon="9.324501334951071"><ele>1172.25</ele><time>2026-04-11T13:28:26Z</time></trkpt><trkpt lat="44.793663354677605" lon="9.324617683657584"><ele>1171.5</ele><time>2026-04-11T13:28:27Z</time></trkpt><trkpt lat="44.79375347975557" lon="9.32471806366257"><ele>1170.75</ele><time>2026-04-11T13:28:28Z</time></trkpt><trkpt lat="44.79384255054869" lon="9.324827424423807"><ele>1170.0</ele><time>2026-04-11T13:28:29Z</time></trkpt><trkpt lat="44.79393239169253" lon="9.324936930290635"><ele>1170.0</ele><time>2026-04-11T13:28:30Z</time></trkpt><trkpt lat="44.79401146440939" lon="9.325081389824845"><ele>1170.0</ele><time>2026-04-11T13:28:31Z</time></trkpt><trkpt lat="44.79408749936936" lon="9.32524436833832"><ele>1170.0</ele><time>2026-04-11T13:28:32Z</time></trkpt><trkpt lat="44.79413111628507" lon="9.325419027194947"><ele>1170.0</ele><time>2026-04-11T13:28:33Z</time></trkpt><trkpt lat="44.794193452462544" lon="9.325578258334868"><ele>1168.25</ele><time>2026-04-11T13:28:34Z</time></trkpt><trkpt lat="44.79421932720638" lon="9.32574787366161"><ele>1166.5</ele><time>2026-04-11T13:28:35Z</time></trkpt><trkpt lat="44.79425169046951" lon="9.325910915965288"><ele>1164.75</ele><time>2026-04-11T13:28:36Z</time></trkpt><trkpt lat="44.794273322257304" lon="9.326078594992644"><ele>1163.0</ele><time>2026-04-11T13:28:37Z</time></trkpt><trkpt lat="44.794304557756845" lon="9.326258891108099"><ele>1160.5</ele><time>2026-04-11T13:28:38Z</time></trkpt><trkpt lat="44.79430693057634" lon="9.326435300151987"><ele>1158.0</ele><time>2026-04-11T13:28:39Z</time></trkpt><trkpt lat="44.794289768137006" lon="9.326610812711383"><ele>1155.5</ele><time>2026-04-11T13:28:40Z</time></trkpt><trkpt lat="44.79431118480461" lon="9.3268124669241"><ele>1153.0</ele><time>2026-04-11T13:28:41Z</time></trkpt><trkpt lat="44.79436363987" lon="9.326998153780382"><ele>1159.5</ele><time>2026-04-11T13:28:42Z</time></trkpt><trkpt lat="44.79441800443865" lon="9.327146447629147"><ele>1166.0</ele><time>2026-04-11T13:28:43Z</time></trkpt><trkpt lat="44.79445901901503" lon="9.327297506313474"><ele>1172.5</ele><time>2026-04-11T13:28:44Z</time></trkpt><trkpt lat="44.79449935239535" lon="9.327471927952743"><ele>1179.0</ele><time>2026-04-11T13:28:45Z</time></trkpt><trkpt lat="44.794517183127674" lon="9.327644911712538"><ele>1179.0</ele><time>2026-04-11T13:28:46Z</time></trkpt><trkpt lat="44.79449660941072" lon="9.32778622661655"><ele>1179.0</ele><time>2026-04-11T13:28:47Z</time></trkpt><trkpt lat="44.79448607322594" lon="9.32792842020086"><ele>1179.0</ele><time>2026-04-11T13:28:48Z</time></trkpt><trkpt lat="44.7944874182974" lon="9.328048279877363"><ele>1179.0</ele><time>2026-04-11T13:28:49Z</time></trkpt><trkpt lat="44.794530609414025" lon="9.32818176570475"><ele>1179.0</ele><time>2026-04-11T13:28:51Z</time></trkpt><trkpt lat="44.794600696151136" lon="9.328293800897432"><ele>1175.8</ele><time>2026-04-11T13:28:52Z</time></trkpt><trkpt lat="44.79466650915188" lon="9.328399509813961"><ele>1172.6000000000001</ele><time>2026-04-11T13:28:53Z</time></trkpt><trkpt lat="44.79474087643401" lon="9.328497073870988"><ele>1169.4</ele><time>2026-04-11T13:28:54Z</time></trkpt><trkpt lat="44.79483467439557" lon="9.328593549435672"><ele>1166.2</ele><time>2026-04-11T13:28:55Z</time></trkpt><trkpt lat="44.79493726899229" lon="9.328690415090364"><ele>1163.0</ele><time>2026-04-11T13:28:56Z</time></trkpt><trkpt lat="44.795043639313405" lon="9.328763361697524"><ele>1163.0</ele><time>2026-04-11T13:28:57Z</time></trkpt><trkpt lat="44.795150920276306" lon="9.328812380091085"><ele>1163.0</ele><time>2026-04-11T13:28:58Z</time></trkpt><trkpt lat="44.795229677315135" lon="9.328890289550653"><ele>1163.0</ele><time>2026-04-11T13:28:59Z</time></trkpt><trkpt lat="44.79531305435794" lon="9.3289661925029"><ele>1163.0</ele><time>2026-04-11T13:29:00Z</time></trkpt><trkpt lat="44.795400924990666" lon="9.329084751337524"><ele>1163.0</ele><time>2026-04-11T13:29:01Z</time></trkpt><trkpt lat="44.795505585579484" lon="9.329184129582345"><ele>1159.8</ele><time>2026-04-11T13:29:02Z</time></trkpt><trkpt lat="44.795601821678844" lon="9.329283599905265"><ele>1156.6</ele><time>2026-04-11T13:29:03Z</time></trkpt><trkpt lat="44.79566906673488" lon="9.329382664432737"><ele>1153.4</ele><time>2026-04-11T13:29:04Z</time></trkpt><trkpt lat="44.79574177246276" lon="9.329480412395563"><ele>1150.2</ele><time>2026-04-11T13:29:05Z</time></trkpt><trkpt lat="44.79581368737792" lon="9.329597636036896"><ele>1147.0</ele><time>2026-04-11T13:29:06Z</time></trkpt><trkpt lat="44.79588713577498" lon="9.329683937157165"><ele>1146.0</ele><time>2026-04-11T13:29:07Z</time></trkpt><trkpt lat="44.79596080658319" lon="9.329731623519706"><ele>1145.0</ele><time>2026-04-11T13:29:08Z</time></trkpt><trkpt lat="44.79605329294937" lon="9.329732665080257"><ele>1144.0</ele><time>2026-04-11T13:29:10Z</time></trkpt><trkpt lat="44.79610504012178" lon="9.329576218514182"><ele>1143.0</ele><time>2026-04-11T13:29:12Z</time></trkpt><trkpt lat="44.79613159284203" lon="9.329479382978734"><ele>1142.0</ele><time>2026-04-11T13:29:13Z</time></trkpt><trkpt lat="44.796173747479344" lon="9.329387212865527"><ele>1141.0</ele><time>2026-04-11T13:29:14Z</time></trkpt><trkpt lat="44.79624468283406" lon="9.329339705978411"><ele>1141.0</ele><time>2026-04-11T13:29:15Z</time></trkpt><trkpt lat="44.79627910262809" lon="9.329261712097168"><ele>1141.0</ele><time>2026-04-11T13:29:17Z</time></trkpt><trkpt lat="44.79630632058606" lon="9.32914922397075"><ele>1141.0</ele><time>2026-04-11T13:29:19Z</time></trkpt><trkpt lat="44.79618985985261" lon="9.328952577203832"><ele>1141.0</ele><time>2026-04-11T13:29:20Z</time></trkpt><trkpt lat="44.79622176422411" lon="9.328831796306325"><ele>1141.0</ele><time>2026-04-11T13:29:21Z</time></trkpt><trkpt lat="44.7962969195858" lon="9.328687744039547"><ele>1143.8</ele><time>2026-04-11T13:29:23Z</time></trkpt><trkpt lat="44.796353126412576" lon="9.32859388447083"><ele>1146.6</ele><time>2026-04-11T13:29:24Z</time></trkpt><trkpt lat="44.79642835600527" lon="9.328514499612377"><ele>1149.4</ele><time>2026-04-11T13:29:25Z</time></trkpt><trkpt lat="44.79651788921803" lon="9.328441499664654"><ele>1152.2</ele><time>2026-04-11T13:29:25.999Z</time></trkpt><trkpt lat="44.796615705341864" lon="9.328387275900342"><ele>1155.0</ele><time>2026-04-11T13:29:26.999Z</time></trkpt><trkpt lat="44.79672220761997" lon="9.328337758030097"><ele>1152.0</ele><time>2026-04-11T13:29:27.999Z</time></trkpt><trkpt lat="44.796837761681196" lon="9.328308117714968"><ele>1149.0</ele><time>2026-04-11T13:29:28.999Z</time></trkpt><trkpt lat="44.79695901475295" lon="9.328323061572888"><ele>1146.0</ele><time>2026-04-11T13:29:29.999Z</time></trkpt><trkpt lat="44.79705768891702" lon="9.328352320554046"><ele>1143.0</ele><time>2026-04-11T13:29:30.999Z</time></trkpt><trkpt lat="44.79713189108968" lon="9.328363873184227"><ele>1140.0</ele><time>2026-04-11T13:29:31.999Z</time></trkpt><trkpt lat="44.79724859317384" lon="9.328411219422254"><ele>1140.0</ele><time>2026-04-11T13:29:33.999Z</time></trkpt><trkpt lat="44.79734642107895" lon="9.328489488087378"><ele>1140.0</ele><time>2026-04-11T13:29:35.999Z</time></trkpt><trkpt lat="44.79740782939361" lon="9.328586518439053"><ele>1140.0</ele><time>2026-04-11T13:29:37.999Z</time></trkpt><trkpt lat="44.797467162630106" lon="9.328677650371691"><ele>1140.0</ele><time>2026-04-11T13:29:39.999Z</time></trkpt><trkpt lat="44.79752866862693" lon="9.328718735556173"><ele>1140.0</ele><time>2026-04-11T13:29:40.999Z</time></trkpt><trkpt lat="44.79756987050971" lon="9.328805952196804"><ele>1140.0</ele><time>2026-04-11T13:29:41.999Z</time></trkpt><trkpt lat="44.79761757858949" lon="9.328948563479246"><ele>1138.6666666666667</ele><time>2026-04-11T13:29:42.999Z</time></trkpt><trkpt lat="44.7976863880148" lon="9.329007632676735"><ele>1137.3333333333333</ele><time>2026-04-11T13:29:43.999Z</time></trkpt><trkpt lat="44.797767142935875" lon="9.329067107570356"><ele>1136.0</ele><time>2026-04-11T13:29:44.999Z</time></trkpt><trkpt lat="44.79783946185247" lon="9.329107252908274"><ele>1134.6666666666665</ele><time>2026-04-11T13:29:45.999Z</time></trkpt><trkpt lat="44.79790730839041" lon="9.32914776155117"><ele>1133.3333333333333</ele><time>2026-04-11T13:29:46.999Z</time></trkpt><trkpt lat="44.79796745006719" lon="9.32918366991397"><ele>1132.0</ele><time>2026-04-11T13:29:47.999Z</time></trkpt><trkpt lat="44.79808350067281" lon="9.329244675073804"><ele>1132.0</ele><time>2026-04-11T13:29:49.999Z</time></trkpt><trkpt lat="44.798166710250094" lon="9.329265060676134"><ele>1132.0</ele><time>2026-04-11T13:29:51.999Z</time></trkpt><trkpt lat="44.79820393707613" lon="9.329192215237992"><ele>1132.0</ele><time>2026-04-11T13:29:53.999Z</time></trkpt><trkpt lat="44.798137549156436" lon="9.329118492192274"><ele>1132.0</ele><time>2026-04-11T13:33:45.999Z</time></trkpt><trkpt lat="44.798063169454544" lon="9.329090210679967"><ele>1132.0</ele><time>2026-04-11T13:33:46.999Z</time></trkpt><trkpt lat="44.79796790586455" lon="9.329045802103902"><ele>1132.0</ele><time>2026-04-11T13:33:47.999Z</time></trkpt><trkpt lat="44.79786527887918" lon="9.328985691476584"><ele>1132.0</ele><time>2026-04-11T13:33:48.999Z</time></trkpt><trkpt lat="44.79776810534057" lon="9.328915908665023"><ele>1132.0</ele><time>2026-04-11T13:33:49.999Z</time></trkpt><trkpt lat="44.79769217539543" lon="9.328838675073019"><ele>1132.0</ele><time>2026-04-11T13:33:50.999Z</time></trkpt><trkpt lat="44.79763148566346" lon="9.328757785063532"><ele>1132.0</ele><time>2026-04-11T13:33:51.999Z</time></trkpt><trkpt lat="44.797573861794106" lon="9.328689566254917"><ele>1132.0</ele><time>2026-04-11T13:33:52.999Z</time></trkpt><trkpt lat="44.79752226981219" lon="9.328610849452568"><ele>1132.0</ele><time>2026-04-11T13:33:53.999Z</time></trkpt><trkpt lat="44.79745939969005" lon="9.328523704899117"><ele>1134.0</ele><time>2026-04-11T13:33:54.999Z</time></trkpt><trkpt lat="44.797423236371" lon="9.328432430623726"><ele>1136.0</ele><time>2026-04-11T13:33:55.999Z</time></trkpt><trkpt lat="44.797356839343685" lon="9.328317966158508"><ele>1138.0</ele><time>2026-04-11T13:33:56.999Z</time></trkpt><trkpt lat="44.79717120969588" lon="9.328354484151697"><ele>1140.0</ele><time>2026-04-11T13:33:58.999Z</time></trkpt><trkpt lat="44.79705928730156" lon="9.32832030829795"><ele>1140.0</ele><time>2026-04-11T13:33:59.999Z</time></trkpt><trkpt lat="44.79691334102848" lon="9.328299154016412"><ele>1140.0</ele><time>2026-04-11T13:34:00.999Z</time></trkpt><trkpt lat="44.79675843361915" lon="9.328291156168488"><ele>1140.0</ele><time>2026-04-11T13:34:01.999Z</time></trkpt><trkpt lat="44.79662319452269" lon="9.328324483867501"><ele>1140.0</ele><time>2026-04-11T13:34:02.999Z</time></trkpt><trkpt lat="44.79651212408533" lon="9.328410580702196"><ele>1143.75</ele><time>2026-04-11T13:34:03.999Z</time></trkpt><trkpt lat="44.79640718123311" lon="9.328491627959421"><ele>1147.5</ele><time>2026-04-11T13:34:04.999Z</time></trkpt><trkpt lat="44.79631374528438" lon="9.328593502347017"><ele>1151.25</ele><time>2026-04-11T13:34:05.999Z</time></trkpt><trkpt lat="44.79622958306191" lon="9.328702344768336"><ele>1155.0</ele><time>2026-04-11T13:34:06.999Z</time></trkpt><trkpt lat="44.79616952894692" lon="9.328839465236896"><ele>1152.6666666666667</ele><time>2026-04-11T13:34:07.999Z</time></trkpt><trkpt lat="44.79613244098533" lon="9.32896907976356"><ele>1150.3333333333333</ele><time>2026-04-11T13:34:08.999Z</time></trkpt><trkpt lat="44.79612354641027" lon="9.329067623351845"><ele>1148.0</ele><time>2026-04-11T13:34:09.999Z</time></trkpt><trkpt lat="44.79612997045145" lon="9.329170792793628"><ele>1145.6666666666665</ele><time>2026-04-11T13:34:10.999Z</time></trkpt><trkpt lat="44.79621977510843" lon="9.329245051768835"><ele>1143.3333333333333</ele><time>2026-04-11T13:34:12.001Z</time></trkpt><trkpt lat="44.79618328576232" lon="9.329375615795328"><ele>1141.0</ele><time>2026-04-11T13:34:15.001Z</time></trkpt><trkpt lat="44.79609221224373" lon="9.329477801846368"><ele>1141.0</ele><time>2026-04-11T13:34:16.001Z</time></trkpt><trkpt lat="44.796047554714924" lon="9.32963403209105"><ele>1141.0</ele><time>2026-04-11T13:34:17.001Z</time></trkpt><trkpt lat="44.79595308030039" lon="9.329687384174722"><ele>1141.0</ele><time>2026-04-11T13:34:19.001Z</time></trkpt><trkpt lat="44.795852701617704" lon="9.329604209944502"><ele>1141.0</ele><time>2026-04-11T13:34:21.001Z</time></trkpt><trkpt lat="44.795788110006484" lon="9.329490975152721"><ele>1141.0</ele><time>2026-04-11T13:34:22.001Z</time></trkpt><trkpt lat="44.79568838102501" lon="9.329346921841688"><ele>1142.5</ele><time>2026-04-11T13:34:23.001Z</time></trkpt><trkpt lat="44.795582382615265" lon="9.329230506249276"><ele>1144.0</ele><time>2026-04-11T13:34:24.001Z</time></trkpt><trkpt lat="44.79548921066445" lon="9.329149094021894"><ele>1145.5</ele><time>2026-04-11T13:34:25.001Z</time></trkpt><trkpt lat="44.79540085806918" lon="9.329024805898337"><ele>1147.0</ele><time>2026-04-11T13:34:26.001Z</time></trkpt><trkpt lat="44.795302273758935" lon="9.328901059922565"><ele>1150.2</ele><time>2026-04-11T13:34:27.001Z</time></trkpt><trkpt lat="44.795217088817665" lon="9.3288125602165"><ele>1153.4</ele><time>2026-04-11T13:34:28.001Z</time></trkpt><trkpt lat="44.79511453409671" lon="9.32876171341888"><ele>1156.6</ele><time>2026-04-11T13:34:29.001Z</time></trkpt><trkpt lat="44.7950086209883" lon="9.328685961735053"><ele>1159.8</ele><time>2026-04-11T13:34:30.001Z</time></trkpt><trkpt lat="44.79491932649499" lon="9.328596204241627"><ele>1163.0</ele><time>2026-04-11T13:34:31.001Z</time></trkpt><trkpt lat="44.79483782722673" lon="9.328529395314208"><ele>1163.0</ele><time>2026-04-11T13:34:32.001Z</time></trkpt><trkpt lat="44.79476858496144" lon="9.328456060976063"><ele>1163.0</ele><time>2026-04-11T13:34:33.001Z</time></trkpt><trkpt lat="44.794687734588834" lon="9.328350702766038"><ele>1163.0</ele><time>2026-04-11T13:34:34.001Z</time></trkpt><trkpt lat="44.794612779752796" lon="9.328234993224687"><ele>1163.0</ele><time>2026-04-11T13:34:35.001Z</time></trkpt><trkpt lat="44.79455571737633" lon="9.328128544579053"><ele>1163.0</ele><time>2026-04-11T13:34:36.001Z</time></trkpt><trkpt lat="44.79450325318068" lon="9.328008888092377"><ele>1166.2</ele><time>2026-04-11T13:34:38.001Z</time></trkpt><trkpt lat="44.79450847895003" lon="9.327911293013678"><ele>1169.4</ele><time>2026-04-11T13:34:39.001Z</time></trkpt><trkpt lat="44.79453305916304" lon="9.327812410624336"><ele>1172.6000000000001</ele><time>2026-04-11T13:34:40.001Z</time></trkpt><trkpt lat="44.79453729878945" lon="9.32765851706408"><ele>1175.8</ele><time>2026-04-11T13:34:41Z</time></trkpt><trkpt lat="44.794520064537195" lon="9.327488281216993"><ele>1179.0</ele><time>2026-04-11T13:34:42Z</time></trkpt><trkpt lat="44.79449876422939" lon="9.32731244046388"><ele>1181.25</ele><time>2026-04-11T13:34:43Z</time></trkpt><trkpt lat="44.79445322507619" lon="9.32714495096998"><ele>1183.5</ele><time>2026-04-11T13:34:44Z</time></trkpt><trkpt lat="44.794405194011894" lon="9.326990047536984"><ele>1185.75</ele><time>2026-04-11T13:34:45Z</time></trkpt><trkpt lat="44.79436077757982" lon="9.326852528484645"><ele>1188.0</ele><time>2026-04-11T13:34:46Z</time></trkpt><trkpt lat="44.79433950780105" lon="9.326680986102994"><ele>1181.75</ele><time>2026-04-11T13:34:47Z</time></trkpt><trkpt lat="44.7943217626918" lon="9.326516264893284"><ele>1175.5</ele><time>2026-04-11T13:34:48Z</time></trkpt><trkpt lat="44.794327782829804" lon="9.326335364012374"><ele>1169.25</ele><time>2026-04-11T13:34:49Z</time></trkpt><trkpt lat="44.79429752058958" lon="9.326149727340146"><ele>1163.0</ele><time>2026-04-11T13:34:50Z</time></trkpt><trkpt lat="44.79429698317512" lon="9.325979131942153"><ele>1163.0</ele><time>2026-04-11T13:34:51Z</time></trkpt><trkpt lat="44.79427128011661" lon="9.325836814650957"><ele>1163.0</ele><time>2026-04-11T13:34:52Z</time></trkpt><trkpt lat="44.79423631799594" lon="9.32569666154267"><ele>1163.0</ele><time>2026-04-11T13:34:53Z</time></trkpt><trkpt lat="44.794198178223674" lon="9.325547202873414"><ele>1163.0</ele><time>2026-04-11T13:34:54Z</time></trkpt><trkpt lat="44.794150674028046" lon="9.325402048471068"><ele>1163.0</ele><time>2026-04-11T13:34:55Z</time></trkpt><trkpt lat="44.79409548614151" lon="9.325235764357124"><ele>1164.75</ele><time>2026-04-11T13:34:56Z</time></trkpt><trkpt lat="44.7940370008945" lon="9.325083696055946"><ele>1166.5</ele><time>2026-04-11T13:34:57Z</time></trkpt><trkpt lat="44.793973448701564" lon="9.32493601768198"><ele>1168.25</ele><time>2026-04-11T13:34:58Z</time></trkpt><trkpt lat="44.79388886653267" lon="9.324811681455918"><ele>1170.0</ele><time>2026-04-11T13:34:59Z</time></trkpt><trkpt lat="44.793797420317354" lon="9.324707960128707"><ele>1170.6</ele><time>2026-04-11T13:35:00Z</time></trkpt><trkpt lat="44.793717319480784" lon="9.324632063393674"><ele>1171.2</ele><time>2026-04-11T13:35:01Z</time></trkpt><trkpt lat="44.793634264280065" lon="9.324550032782554"><ele>1171.8</ele><time>2026-04-11T13:35:02Z</time></trkpt><trkpt lat="44.79354813461638" lon="9.324452845886922"><ele>1172.4</ele><time>2026-04-11T13:35:03Z</time></trkpt><trkpt lat="44.79345524037347" lon="9.324352198570928"><ele>1173.0</ele><time>2026-04-11T13:35:04Z</time></trkpt><trkpt lat="44.79337393738662" lon="9.324222434808835"><ele>1173.0</ele><time>2026-04-11T13:35:05Z</time></trkpt><trkpt lat="44.79330174132098" lon="9.324130110722402"><ele>1173.0</ele><time>2026-04-11T13:35:06Z</time></trkpt><trkpt lat="44.79322547971638" lon="9.324047891329915"><ele>1173.0</ele><time>2026-04-11T13:35:07Z</time></trkpt><trkpt lat="44.79316216483908" lon="9.32399389353673"><ele>1173.0</ele><time>2026-04-11T13:35:08Z</time></trkpt><trkpt lat="44.79307103754689" lon="9.324053275494933"><ele>1173.0</ele><time>2026-04-11T13:35:10Z</time></trkpt><trkpt lat="44.793059677416466" lon="9.324161160699457"><ele>1173.0</ele><time>2026-04-11T13:35:11Z</time></trkpt><trkpt lat="44.79306842762775" lon="9.324309752192551"><ele>1173.0</ele><time>2026-04-11T13:35:13Z</time></trkpt><trkpt lat="44.793121511084145" lon="9.324455205988178"><ele>1173.0</ele><time>2026-04-11T13:35:14Z</time></trkpt><trkpt lat="44.793165649961736" lon="9.324576083066752"><ele>1173.0</ele><time>2026-04-11T13:35:15Z</time></trkpt><trkpt lat="44.79318155690908" lon="9.324721722470008"><ele>1173.0</ele><time>2026-04-11T13:35:16Z</time></trkpt><trkpt lat="44.79320913456913" lon="9.324877938364056"><ele>1173.0</ele><time>2026-04-11T13:35:17Z</time></trkpt><trkpt lat="44.79323102613567" lon="9.325015564356184"><ele>1173.0</ele><time>2026-04-11T13:35:18Z</time></trkpt><trkpt lat="44.79324818275417" lon="9.325131539841443"><ele>1173.0</ele><time>2026-04-11T13:35:19Z</time></trkpt><trkpt lat="44.793274076755196" lon="9.325324329425564"><ele>1173.0</ele><time>2026-04-11T13:35:21Z</time></trkpt><trkpt lat="44.7932956538421" lon="9.325468707444106"><ele>1173.0</ele><time>2026-04-11T13:35:22Z</time></trkpt><trkpt lat="44.79331028439963" lon="9.325608341911806"><ele>1173.0</ele><time>2026-04-11T13:35:23Z</time></trkpt><trkpt lat="44.793308655550454" lon="9.325714189017724"><ele>1173.5</ele><time>2026-04-11T13:35:24Z</time></trkpt><trkpt lat="44.7932819627739" lon="9.325863579435117"><ele>1174.0</ele><time>2026-04-11T13:35:26Z</time></trkpt><trkpt lat="44.79324096394265" lon="9.326022718001708"><ele>1174.5</ele><time>2026-04-11T13:35:27Z</time></trkpt><trkpt lat="44.793193859712666" lon="9.32618072101483"><ele>1175.0</ele><time>2026-04-11T13:35:28Z</time></trkpt><trkpt lat="44.79314994503583" lon="9.326325594639545"><ele>1173.75</ele><time>2026-04-11T13:35:29Z</time></trkpt><trkpt lat="44.79310374781376" lon="9.326492549461562"><ele>1172.5</ele><time>2026-04-11T13:35:30Z</time></trkpt><trkpt lat="44.79306573732579" lon="9.326657723295275"><ele>1171.25</ele><time>2026-04-11T13:35:31Z</time></trkpt><trkpt lat="44.79303252376195" lon="9.326806711578437"><ele>1170.0</ele><time>2026-04-11T13:35:32Z</time></trkpt><trkpt lat="44.79299421607619" lon="9.326954734291483"><ele>1170.0</ele><time>2026-04-11T13:35:33Z</time></trkpt><trkpt lat="44.79294705622734" lon="9.32707978004343"><ele>1170.0</ele><time>2026-04-11T13:35:34Z</time></trkpt><trkpt lat="44.792898606834804" lon="9.327177168153321"><ele>1170.0</ele><time>2026-04-11T13:35:35Z</time></trkpt><trkpt lat="44.79284667622214" lon="9.32724298643965"><ele>1170.0</ele><time>2026-04-11T13:35:36Z</time></trkpt><trkpt lat="44.79277746175754" lon="9.327287757331108"><ele>1170.0</ele><time>2026-04-11T13:35:37Z</time></trkpt><trkpt lat="44.79270601267651" lon="9.327324406607126"><ele>1170.0</ele><time>2026-04-11T13:35:38Z</time></trkpt><trkpt lat="44.792577758122334" lon="9.327333100041225"><ele>1170.6666666666667</ele><time>2026-04-11T13:35:40Z</time></trkpt><trkpt lat="44.79250049555996" lon="9.327338785720695"><ele>1171.3333333333333</ele><time>2026-04-11T13:35:41Z</time></trkpt><trkpt lat="44.79242426111979" lon="9.327344404972193"><ele>1172.0</ele><time>2026-04-11T13:35:42Z</time></trkpt><trkpt lat="44.792337505501116" lon="9.327354315765753"><ele>1172.6666666666665</ele><time>2026-04-11T13:35:43Z</time></trkpt><trkpt lat="44.792257887165405" lon="9.327363789342147"><ele>1173.3333333333333</ele><time>2026-04-11T13:35:43.999Z</time></trkpt><trkpt lat="44.792166220597075" lon="9.327368306996565"><ele>1174.0</ele><time>2026-04-11T13:35:44.999Z</time></trkpt><trkpt lat="44.79206887390693" lon="9.327362182560787"><ele>1174.0</ele><time>2026-04-11T13:35:45.999Z</time></trkpt><trkpt lat="44.79198012382969" lon="9.327337278681371"><ele>1174.0</ele><time>2026-04-11T13:35:46.999Z</time></trkpt><trkpt lat="44.791914815517295" lon="9.327307926242137"><ele>1174.0</ele><time>2026-04-11T13:35:47.999Z</time></trkpt><trkpt lat="44.79181402039104" lon="9.327224123286511"><ele>1174.0</ele><time>2026-04-11T13:35:49.999Z</time></trkpt><trkpt lat="44.79174262066607" lon="9.32716188471758"><ele>1174.0</ele><time>2026-04-11T13:35:50.999Z</time></trkpt><trkpt lat="44.79167419202721" lon="9.327101741765437"><ele>1174.0</ele><time>2026-04-11T13:35:51.999Z</time></trkpt><trkpt lat="44.79159772763088" lon="9.327031391418101"><ele>1180.8</ele><time>2026-04-11T13:35:52.999Z</time></trkpt><trkpt lat="44.791543037353144" lon="9.326977783090774"><ele>1187.6000000000001</ele><time>2026-04-11T13:35:53.999Z</time></trkpt><trkpt lat="44.79147881050626" lon="9.32691468123765"><ele>1194.4</ele><time>2026-04-11T13:35:54.999Z</time></trkpt><trkpt lat="44.79140507312223" lon="9.326829221882972"><ele>1201.2</ele><time>2026-04-11T13:35:55.999Z</time></trkpt><trkpt lat="44.79132065942176" lon="9.326740374455143"><ele>1208.0</ele><time>2026-04-11T13:35:56.999Z</time></trkpt><trkpt lat="44.791218735813175" lon="9.32667226677448"><ele>1208.0</ele><time>2026-04-11T13:35:57.999Z</time></trkpt><trkpt lat="44.791146515287544" lon="9.326575710189125"><ele>1208.0</ele><time>2026-04-11T13:35:58.999Z</time></trkpt><trkpt lat="44.7910610400769" lon="9.326509357560548"><ele>1208.0</ele><time>2026-04-11T13:35:59.999Z</time></trkpt><trkpt lat="44.790972609385896" lon="9.326414450235193"><ele>1208.0</ele><time>2026-04-11T13:36:00.999Z</time></trkpt><trkpt lat="44.79088545820667" lon="9.326288359578024"><ele>1208.0</ele><time>2026-04-11T13:36:01.999Z</time></trkpt><trkpt lat="44.790794092061056" lon="9.326159880444113"><ele>1209.25</ele><time>2026-04-11T13:36:02.999Z</time></trkpt><trkpt lat="44.79070753251412" lon="9.326032810360722"><ele>1210.5</ele><time>2026-04-11T13:36:03.999Z</time></trkpt><trkpt lat="44.7906072113836" lon="9.32591922531006"><ele>1211.75</ele><time>2026-04-11T13:36:04.999Z</time></trkpt><trkpt lat="44.79051222602156" lon="9.325813517455712"><ele>1213.0</ele><time>2026-04-11T13:36:05.999Z</time></trkpt><trkpt lat="44.790409857249216" lon="9.32571267148151"><ele>1213.0</ele><time>2026-04-11T13:36:06.999Z</time></trkpt><trkpt lat="44.790311556078606" lon="9.32564106744667"><ele>1213.0</ele><time>2026-04-11T13:36:07.999Z</time></trkpt><trkpt lat="44.7902277042769" lon="9.325615302485751"><ele>1213.0</ele><time>2026-04-11T13:36:08.999Z</time></trkpt><trkpt lat="44.7901411757283" lon="9.325617119812296"><ele>1213.0</ele><time>2026-04-11T13:36:09.999Z</time></trkpt><trkpt lat="44.79004986399685" lon="9.325648613217494"><ele>1213.0</ele><time>2026-04-11T13:36:10.999Z</time></trkpt><trkpt lat="44.789974120797005" lon="9.325623195705461"><ele>1215.0</ele><time>2026-04-11T13:36:11.999Z</time></trkpt><trkpt lat="44.78990024162267" lon="9.325565499384671"><ele>1217.0</ele><time>2026-04-11T13:36:12.999Z</time></trkpt><trkpt lat="44.789784956686646" lon="9.325528831971344"><ele>1219.0</ele><time>2026-04-11T13:36:13.999Z</time></trkpt><trkpt lat="44.789688017454054" lon="9.32552412927916"><ele>1221.0</ele><time>2026-04-11T13:36:14.999Z</time></trkpt><trkpt lat="44.78956648160535" lon="9.325518141562029"><ele>1223.0</ele><time>2026-04-11T13:36:15.999Z</time></trkpt><trkpt lat="44.78945230311601" lon="9.32551052469632"><ele>1223.0</ele><time>2026-04-11T13:36:16.999Z</time></trkpt><trkpt lat="44.78934290346589" lon="9.325501596206351"><ele>1223.0</ele><time>2026-04-11T13:36:18.001Z</time></trkpt><trkpt lat="44.78923642018121" lon="9.32549492970426"><ele>1223.0</ele><time>2026-04-11T13:36:19.001Z</time></trkpt><trkpt lat="44.78910928011545" lon="9.325508568929772"><ele>1223.0</ele><time>2026-04-11T13:36:20.001Z</time></trkpt><trkpt lat="44.788984974547475" lon="9.325576405896358"><ele>1213.5</ele><time>2026-04-11T13:36:21.001Z</time></trkpt><trkpt lat="44.78885344553703" lon="9.325596354842036"><ele>1204.0</ele><time>2026-04-11T13:36:22.001Z</time></trkpt><trkpt lat="44.78874767861254" lon="9.325608365758942"><ele>1194.5</ele><time>2026-04-11T13:36:23.001Z</time></trkpt><trkpt lat="44.788644335517965" lon="9.32561161275153"><ele>1185.0</ele><time>2026-04-11T13:36:24.001Z</time></trkpt><trkpt lat="44.78853171760454" lon="9.325638549072618"><ele>1185.75</ele><time>2026-04-11T13:36:25.001Z</time></trkpt><trkpt lat="44.78843434003525" lon="9.325639785149814"><ele>1186.5</ele><time>2026-04-11T13:36:26.001Z</time></trkpt><trkpt lat="44.78830806869781" lon="9.325646845413067"><ele>1187.25</ele><time>2026-04-11T13:36:27.001Z</time></trkpt><trkpt lat="44.78818499386706" lon="9.32564962981882"><ele>1188.0</ele><time>2026-04-11T13:36:28.001Z</time></trkpt><trkpt lat="44.78806579936156" lon="9.32566582686033"><ele>1188.0</ele><time>2026-04-11T13:36:29.001Z</time></trkpt><trkpt lat="44.787948811170416" lon="9.325734471955622"><ele>1188.0</ele><time>2026-04-11T13:36:30.001Z</time></trkpt><trkpt lat="44.78784827736544" lon="9.325791512850829"><ele>1188.0</ele><time>2026-04-11T13:36:31.001Z</time></trkpt><trkpt lat="44.78775574110008" lon="9.325868229653889"><ele>1188.0</ele><time>2026-04-11T13:36:32.001Z</time></trkpt><trkpt lat="44.787668805471164" lon="9.325949588324765"><ele>1188.0</ele><time>2026-04-11T13:36:33.001Z</time></trkpt><trkpt lat="44.78759017416883" lon="9.32601839972242"><ele>1191.5</ele><time>2026-04-11T13:36:34.001Z</time></trkpt><trkpt lat="44.78753228636542" lon="9.326067437621605"><ele>1195.0</ele><time>2026-04-11T13:36:35.001Z</time></trkpt><trkpt lat="44.787461796550225" lon="9.326123621840141"><ele>1198.5</ele><time>2026-04-11T13:36:36.001Z</time></trkpt><trkpt lat="44.787371479923266" lon="9.32619687744031"><ele>1202.0</ele><time>2026-04-11T13:36:37.001Z</time></trkpt><trkpt lat="44.78729679206692" lon="9.326253588118083"><ele>1205.5</ele><time>2026-04-11T13:36:38.001Z</time></trkpt><trkpt lat="44.78722799857848" lon="9.326295498826111"><ele>1209.0</ele><time>2026-04-11T13:36:39.001Z</time></trkpt><trkpt lat="44.78711972616177" lon="9.3263495153782"><ele>1203.8333333333333</ele><time>2026-04-11T13:36:40.001Z</time></trkpt><trkpt lat="44.78702053445791" lon="9.326396715892226"><ele>1198.6666666666667</ele><time>2026-04-11T13:36:41Z</time></trkpt><trkpt lat="44.78694157457192" lon="9.326423473376408"><ele>1193.5</ele><time>2026-04-11T13:36:42Z</time></trkpt><trkpt lat="44.78687556985972" lon="9.32644678509804"><ele>1188.3333333333335</ele><time>2026-04-11T13:36:43Z</time></trkpt><trkpt lat="44.78679690386122" lon="9.326474568566473"><ele>1183.1666666666667</ele><time>2026-04-11T13:36:44Z</time></trkpt><trkpt lat="44.78669695443731" lon="9.326519833883173"><ele>1178.0</ele><time>2026-04-11T13:36:45Z</time></trkpt><trkpt lat="44.786585332193866" lon="9.326529518146065"><ele>1178.0</ele><time>2026-04-11T13:36:46Z</time></trkpt><trkpt lat="44.7864827928359" lon="9.326551613574162"><ele>1178.0</ele><time>2026-04-11T13:36:47Z</time></trkpt><trkpt lat="44.786408552347865" lon="9.326527903073673"><ele>1178.0</ele><time>2026-04-11T13:36:48Z</time></trkpt><trkpt lat="44.78635617661179" lon="9.326464134282524"><ele>1178.0</ele><time>2026-04-11T13:36:50Z</time></trkpt><trkpt lat="44.78637784973121" lon="9.32637126589069"><ele>1178.0</ele><time>2026-04-11T13:36:51Z</time></trkpt><trkpt lat="44.786366296856436" lon="9.326269766619195"><ele>1178.0</ele><time>2026-04-11T13:36:52Z</time></trkpt><trkpt lat="44.786373074145466" lon="9.32612337740549"><ele>1181.6</ele><time>2026-04-11T13:36:53Z</time></trkpt><trkpt lat="44.78636684148546" lon="9.325973334239077"><ele>1185.1999999999998</ele><time>2026-04-11T13:36:54Z</time></trkpt><trkpt lat="44.786344417622" lon="9.325880774944215"><ele>1188.8</ele><time>2026-04-11T13:36:55Z</time></trkpt><trkpt lat="44.78630252971091" lon="9.325792420630894"><ele>1192.3999999999999</ele><time>2026-04-11T13:36:56Z</time></trkpt><trkpt lat="44.78624494067494" lon="9.32566265443732"><ele>1196.0</ele><time>2026-04-11T13:36:57Z</time></trkpt><trkpt lat="44.786155471570964" lon="9.325524215541762"><ele>1197.25</ele><time>2026-04-11T13:36:58Z</time></trkpt><trkpt lat="44.78608454187488" lon="9.325438387068699"><ele>1198.5</ele><time>2026-04-11T13:36:59Z</time></trkpt><trkpt lat="44.786042351960226" lon="9.32535401909157"><ele>1199.75</ele><time>2026-04-11T13:37:03Z</time></trkpt><trkpt lat="44.78578322547943" lon="9.32525367352415"><ele>1201.0</ele><time>2026-04-11T13:37:05Z</time></trkpt><trkpt lat="44.7857030141671" lon="9.325332943118195"><ele>1196.3999999999999</ele><time>2026-04-11T13:37:06Z</time></trkpt><trkpt lat="44.78559441692017" lon="9.3254916397492"><ele>1191.8</ele><time>2026-04-11T13:37:07Z</time></trkpt><trkpt lat="44.78553230531527" lon="9.325588209215747"><ele>1187.1999999999998</ele><time>2026-04-11T13:37:08Z</time></trkpt><trkpt lat="44.7854779877682" lon="9.325665194957152"><ele>1182.6</ele><time>2026-04-11T13:37:09Z</time></trkpt><trkpt lat="44.78541386706821" lon="9.325737740538527"><ele>1178.0</ele><time>2026-04-11T13:37:10Z</time></trkpt><trkpt lat="44.78535577202758" lon="9.32580215120234"><ele>1178.0</ele><time>2026-04-11T13:37:11Z</time></trkpt><trkpt lat="44.7852994900373" lon="9.325864551796093"><ele>1178.0</ele><time>2026-04-11T13:37:12Z</time></trkpt><trkpt lat="44.785230105115716" lon="9.325949262142766"><ele>1178.0</ele><time>2026-04-11T13:37:14Z</time></trkpt><trkpt lat="44.78527074239732" lon="9.325830166524675"><ele>1178.0</ele><time>2026-04-11T13:37:20Z</time></trkpt><trkpt lat="44.785274337525856" lon="9.325735824432765"><ele>1178.0</ele><time>2026-04-11T13:37:21Z</time></trkpt><trkpt lat="44.78526078474388" lon="9.325613398139893"><ele>1178.0</ele><time>2026-04-11T13:37:22Z</time></trkpt><trkpt lat="44.785261855886255" lon="9.32547505295125"><ele>1178.0</ele><time>2026-04-11T13:37:23Z</time></trkpt><trkpt lat="44.785273030176235" lon="9.325354801890418"><ele>1178.0</ele><time>2026-04-11T13:37:24Z</time></trkpt><trkpt lat="44.78529077352467" lon="9.325192305070036"><ele>1178.0</ele><time>2026-04-11T13:37:26Z</time></trkpt><trkpt lat="44.78528134251268" lon="9.325078774543144"><ele>1178.0</ele><time>2026-04-11T13:37:27Z</time></trkpt><trkpt lat="44.78526749273148" lon="9.324966862262405"><ele>1178.0</ele><time>2026-04-11T13:37:28Z</time></trkpt><trkpt lat="44.78525740920848" lon="9.324849563763772"><ele>1178.0</ele><time>2026-04-11T13:37:29Z</time></trkpt><trkpt lat="44.78524365363629" lon="9.324754267203438"><ele>1179.6666666666667</ele><time>2026-04-11T13:37:30Z</time></trkpt><trkpt lat="44.78519266193718" lon="9.324603266169333"><ele>1181.3333333333335</ele><time>2026-04-11T13:37:32Z</time></trkpt><trkpt lat="44.78514562043972" lon="9.324531172022674"><ele>1183.0</ele><time>2026-04-11T13:37:33Z</time></trkpt><trkpt lat="44.785085240200225" lon="9.32447113269896"><ele>1184.6666666666667</ele><time>2026-04-11T13:37:34Z</time></trkpt><trkpt lat="44.78501464025061" lon="9.324414249588436"><ele>1186.3333333333333</ele><time>2026-04-11T13:37:35Z</time></trkpt><trkpt lat="44.78495428672605" lon="9.32436926179864"><ele>1188.0</ele><time>2026-04-11T13:37:36Z</time></trkpt><trkpt lat="44.784829651434706" lon="9.324315566134556"><ele>1183.1666666666667</ele><time>2026-04-11T13:37:38Z</time></trkpt><trkpt lat="44.78474768638406" lon="9.324275034119744"><ele>1178.3333333333333</ele><time>2026-04-11T13:37:38.999Z</time></trkpt><trkpt lat="44.78465636870976" lon="9.324281930856575"><ele>1173.5</ele><time>2026-04-11T13:37:39.999Z</time></trkpt><trkpt lat="44.78458560696845" lon="9.324240689960396"><ele>1168.6666666666665</ele><time>2026-04-11T13:37:40.999Z</time></trkpt><trkpt lat="44.784485679992095" lon="9.324218586064736"><ele>1163.8333333333333</ele><time>2026-04-11T13:37:42.999Z</time></trkpt><trkpt lat="44.784406486190456" lon="9.324225316418282"><ele>1159.0</ele><time>2026-04-11T13:37:43.999Z</time></trkpt><trkpt lat="44.78432081023421" lon="9.324244555188123"><ele>1156.3333333333333</ele><time>2026-04-11T13:37:44.999Z</time></trkpt><trkpt lat="44.78425089706687" lon="9.324268889944719"><ele>1153.6666666666665</ele><time>2026-04-11T13:37:45.999Z</time></trkpt><trkpt lat="44.78417869064341" lon="9.324268847985936"><ele>1151.0</ele><time>2026-04-11T13:37:46.999Z</time></trkpt><trkpt lat="44.78410490009137" lon="9.324275151487194"><ele>1148.3333333333333</ele><time>2026-04-11T13:37:47.999Z</time></trkpt><trkpt lat="44.78402023866166" lon="9.32428630531381"><ele>1145.6666666666667</ele><time>2026-04-11T13:37:48.999Z</time></trkpt><trkpt lat="44.783941430346616" lon="9.324298384823948"><ele>1143.0</ele><time>2026-04-11T13:37:49.999Z</time></trkpt><trkpt lat="44.7838565209079" lon="9.32431088341206"><ele>1143.0</ele><time>2026-04-11T13:37:50.999Z</time></trkpt><trkpt lat="44.78377585772236" lon="9.32431855663384"><ele>1143.0</ele><time>2026-04-11T13:37:51.999Z</time></trkpt><trkpt lat="44.78369634380489" lon="9.324331685054455"><ele>1143.0</ele><time>2026-04-11T13:37:52.999Z</time></trkpt><trkpt lat="44.78361532017596" lon="9.32437790685242"><ele>1143.0</ele><time>2026-04-11T13:37:54.999Z</time></trkpt><trkpt lat="44.7836511485834" lon="9.324500957057413"><ele>1143.0</ele><time>2026-04-11T13:37:57.999Z</time></trkpt><trkpt lat="44.78370834580945" lon="9.324608314174307"><ele>1143.0</ele><time>2026-04-11T13:37:58.999Z</time></trkpt><trkpt lat="44.78373779436941" lon="9.32470613677658"><ele>1139.8333333333333</ele><time>2026-04-11T13:38:00.999Z</time></trkpt><trkpt lat="44.7836275194846" lon="9.324791303337843"><ele>1136.6666666666667</ele><time>2026-04-11T13:38:02.999Z</time></trkpt><trkpt lat="44.78355454506485" lon="9.324805323720696"><ele>1133.5</ele><time>2026-04-11T13:38:03.999Z</time></trkpt><trkpt lat="44.783478015063714" lon="9.324807439622647"><ele>1130.3333333333335</ele><time>2026-04-11T13:38:04.999Z</time></trkpt><trkpt lat="44.78340637795827" lon="9.324816355627037"><ele>1127.1666666666667</ele><time>2026-04-11T13:38:05.999Z</time></trkpt><trkpt lat="44.783338317171896" lon="9.324843968980561"><ele>1124.0</ele><time>2026-04-11T13:38:06.999Z</time></trkpt><trkpt lat="44.783263457399684" lon="9.324976149140006"><ele>1121.4</ele><time>2026-04-11T13:38:08.999Z</time></trkpt><trkpt lat="44.78326963818385" lon="9.325121665836123"><ele>1118.8000000000002</ele><time>2026-04-11T13:38:10.999Z</time></trkpt><trkpt lat="44.783278222793264" lon="9.325281037673891"><ele>1116.1999999999998</ele><time>2026-04-11T13:38:12.999Z</time></trkpt><trkpt lat="44.7832436269314" lon="9.325385172510957"><ele>1113.6</ele><time>2026-04-11T13:38:14.999Z</time></trkpt><trkpt lat="44.78314414219881" lon="9.325426991541189"><ele>1111.0</ele><time>2026-04-11T13:38:16.999Z</time></trkpt><trkpt lat="44.78308833001738" lon="9.325488744672501"><ele>1110.3999999999999</ele><time>2026-04-11T13:38:17.999Z</time></trkpt><trkpt lat="44.783043078101755" lon="9.325591312400944"><ele>1109.8</ele><time>2026-04-11T13:38:18.999Z</time></trkpt><trkpt lat="44.78300012778109" lon="9.325711148498709"><ele>1109.1999999999998</ele><time>2026-04-11T13:38:19.999Z</time></trkpt><trkpt lat="44.78295842767542" lon="9.325819901411469"><ele>1108.6</ele><time>2026-04-11T13:38:20.999Z</time></trkpt><trkpt lat="44.78290857544288" lon="9.325909936631211"><ele>1108.0</ele><time>2026-04-11T13:38:21.999Z</time></trkpt><trkpt lat="44.78282223304005" lon="9.326073342067989"><ele>1108.0</ele><time>2026-04-11T13:38:24.001Z</time></trkpt></trkseg><trkseg><trkpt lat="44.78276324391528" lon="9.326035431282564"><ele>1108.0</ele><time>2026-04-11T14:32:01Z</time></trkpt><trkpt lat="44.78281525981508" lon="9.325956643354086"><ele>1108.0</ele><time>2026-04-11T14:32:04Z</time></trkpt><trkpt lat="44.78286693759646" lon="9.3259048840672"><ele>1108.0</ele><time>2026-04-11T14:32:05Z</time></trkpt><trkpt lat="44.78293021804111" lon="9.325847657287168"><ele>1108.0</ele><time>2026-04-11T14:32:06Z</time></trkpt><trkpt lat="44.78299843896838" lon="9.325698127703669"><ele>1108.0</ele><time>2026-04-11T14:32:08Z</time></trkpt><trkpt lat="44.78302856051626" lon="9.325605251847952"><ele>1108.0</ele><time>2026-04-11T14:32:09Z</time></trkpt><trkpt lat="44.78306236409829" lon="9.325530426916675"><ele>1108.5</ele><time>2026-04-11T14:32:09.999Z</time></trkpt><trkpt lat="44.78310867327482" lon="9.325469124013896"><ele>1109.0</ele><time>2026-04-11T14:32:10.999Z</time></trkpt><trkpt lat="44.78315720137584" lon="9.325404951619364"><ele>1109.5</ele><time>2026-04-11T14:32:11.999Z</time></trkpt><trkpt lat="44.783219294178" lon="9.32536145015253"><ele>1110.0</ele><time>2026-04-11T14:32:12.999Z</time></trkpt><trkpt lat="44.78329116540976" lon="9.32533071957455"><ele>1110.5</ele><time>2026-04-11T14:32:14.999Z</time></trkpt><trkpt lat="44.78325962032444" lon="9.325183493544397"><ele>1111.0</ele><time>2026-04-11T14:32:16.999Z</time></trkpt><trkpt lat="44.78322662809805" lon="9.325095880219834"><ele>1111.0</ele><time>2026-04-11T14:32:17.999Z</time></trkpt><trkpt lat="44.78325154621239" lon="9.324965391885002"><ele>1111.0</ele><time>2026-04-11T14:32:19.999Z</time></trkpt><trkpt lat="44.783325577974765" lon="9.324822328808606"><ele>1111.0</ele><time>2026-04-11T14:32:21.999Z</time></trkpt><trkpt lat="44.78339177524111" lon="9.324789647913022"><ele>1111.0</ele><time>2026-04-11T14:32:22.999Z</time></trkpt><trkpt lat="44.783475961285106" lon="9.324789429740193"><ele>1111.0</ele><time>2026-04-11T14:32:23.999Z</time></trkpt><trkpt lat="44.78356602201266" lon="9.324789567225327"><ele>1113.1666666666665</ele><time>2026-04-11T14:32:24.999Z</time></trkpt><trkpt lat="44.78364791900248" lon="9.324779236419577"><ele>1115.3333333333333</ele><time>2026-04-11T14:32:25.999Z</time></trkpt><trkpt lat="44.783709859098245" lon="9.324741286210807"><ele>1117.5</ele><time>2026-04-11T14:32:26.999Z</time></trkpt><trkpt lat="44.783711878750694" lon="9.324594740268424"><ele>1119.6666666666667</ele><time>2026-04-11T14:32:28.999Z</time></trkpt><trkpt lat="44.783662120971414" lon="9.324509640662557"><ele>1121.8333333333335</ele><time>2026-04-11T14:32:29.999Z</time></trkpt><trkpt lat="44.78360262175082" lon="9.324438430011611"><ele>1124.0</ele><time>2026-04-11T14:32:30.999Z</time></trkpt><trkpt lat="44.78356022260323" lon="9.324357246855993"><ele>1127.1666666666667</ele><time>2026-04-11T14:32:31.999Z</time></trkpt><trkpt lat="44.78365256011831" lon="9.324299413378057"><ele>1130.3333333333335</ele><time>2026-04-11T14:32:34.999Z</time></trkpt><trkpt lat="44.78372309221053" lon="9.32429202506921"><ele>1133.5</ele><time>2026-04-11T14:32:35.999Z</time></trkpt><trkpt lat="44.78380887762611" lon="9.324273163231481"><ele>1136.6666666666667</ele><time>2026-04-11T14:32:36.999Z</time></trkpt><trkpt lat="44.783899214476826" lon="9.324267199607691"><ele>1139.8333333333333</ele><time>2026-04-11T14:32:37.999Z</time></trkpt><trkpt lat="44.78399695906931" lon="9.324241416485748"><ele>1143.0</ele><time>2026-04-11T14:32:38.999Z</time></trkpt><trkpt lat="44.7841054833406" lon="9.324233242949694"><ele>1143.0</ele><time>2026-04-11T14:32:39.999Z</time></trkpt><trkpt lat="44.78419560892003" lon="9.324226400354634"><ele>1143.0</ele><time>2026-04-11T14:32:40.999Z</time></trkpt><trkpt lat="44.78427427653777" lon="9.324219959826381"><ele>1143.0</ele><time>2026-04-11T14:32:41.999Z</time></trkpt><trkpt lat="44.78435652152774" lon="9.324214654737245"><ele>1143.0</ele><time>2026-04-11T14:32:42.999Z</time></trkpt><trkpt lat="44.78448292117745" lon="9.32418806802853"><ele>1143.0</ele><time>2026-04-11T14:32:44.999Z</time></trkpt><trkpt lat="44.78455360567862" lon="9.324192260776478"><ele>1146.2</ele><time>2026-04-11T14:32:45.999Z</time></trkpt><trkpt lat="44.784640196099424" lon="9.324224329582645"><ele>1149.4</ele><time>2026-04-11T14:32:46.999Z</time></trkpt><trkpt lat="44.78474145290955" lon="9.324255751050147"><ele>1152.6000000000001</ele><time>2026-04-11T14:32:47.999Z</time></trkpt><trkpt lat="44.78485019673686" lon="9.324298404309275"><ele>1155.8</ele><time>2026-04-11T14:32:48.999Z</time></trkpt><trkpt lat="44.784930960636615" lon="9.324350061291945"><ele>1159.0</ele><time>2026-04-11T14:32:49.999Z</time></trkpt><trkpt lat="44.785009294146356" lon="9.324404859581263"><ele>1159.0</ele><time>2026-04-11T14:32:50.999Z</time></trkpt><trkpt lat="44.78507272776253" lon="9.324473725179724"><ele>1159.0</ele><time>2026-04-11T14:32:51.999Z</time></trkpt><trkpt lat="44.785137988704456" lon="9.324550632053581"><ele>1159.0</ele><time>2026-04-11T14:32:52.999Z</time></trkpt><trkpt lat="44.785192328598185" lon="9.324637843307025"><ele>1159.0</ele><time>2026-04-11T14:32:53.999Z</time></trkpt><trkpt lat="44.78522832219341" lon="9.324734434788791"><ele>1159.0</ele><time>2026-04-11T14:32:54.999Z</time></trkpt><trkpt lat="44.785244956167226" lon="9.324851621466646"><ele>1159.0</ele><time>2026-04-11T14:32:55.999Z</time></trkpt><trkpt lat="44.785249076082096" lon="9.324983606879929"><ele>1160.6666666666665</ele><time>2026-04-11T14:32:56.999Z</time></trkpt><trkpt lat="44.785257927556216" lon="9.325107452777061"><ele>1162.3333333333333</ele><time>2026-04-11T14:32:57.999Z</time></trkpt><trkpt lat="44.7852662745487" lon="9.32523943656527"><ele>1164.0</ele><time>2026-04-11T14:32:58.999Z</time></trkpt><trkpt lat="44.785274615125026" lon="9.325366376149464"><ele>1165.6666666666667</ele><time>2026-04-11T14:32:59.999Z</time></trkpt><trkpt lat="44.78526649219994" lon="9.325482897199043"><ele>1167.3333333333335</ele><time>2026-04-11T14:33:00.999Z</time></trkpt><trkpt lat="44.78524848150996" lon="9.325585690063441"><ele>1169.0</ele><time>2026-04-11T14:33:01.999Z</time></trkpt><trkpt lat="44.785255505188125" lon="9.325805685428577"><ele>1169.0</ele><time>2026-04-11T14:33:03.999Z</time></trkpt><trkpt lat="44.78526137816881" lon="9.32590044674424"><ele>1169.0</ele><time>2026-04-11T14:33:05.999Z</time></trkpt><trkpt lat="44.78526120829268" lon="9.32601998922983"><ele>1169.0</ele><time>2026-04-11T14:33:17.998Z</time></trkpt><trkpt lat="44.78531745260817" lon="9.326067708320721"><ele>1169.0</ele><time>2026-04-11T14:33:20.998Z</time></trkpt><trkpt lat="44.78538997269079" lon="9.325998531805038"><ele>1169.0</ele><time>2026-04-11T14:33:22.998Z</time></trkpt><trkpt lat="44.78544346452376" lon="9.325921812693336"><ele>1169.0</ele><time>2026-04-11T14:33:23.998Z</time></trkpt><trkpt lat="44.78550813007945" lon="9.325844483222324"><ele>1169.0</ele><time>2026-04-11T14:33:24.998Z</time></trkpt><trkpt lat="44.785532395733334" lon="9.325677973161428"><ele>1169.0</ele><time>2026-04-11T14:33:25.998Z</time></trkpt><trkpt lat="44.785588012123945" lon="9.325590443674548"><ele>1169.0</ele><time>2026-04-11T14:33:26.998Z</time></trkpt><trkpt lat="44.78565043936075" lon="9.325490323257647"><ele>1169.0</ele><time>2026-04-11T14:33:27.998Z</time></trkpt><trkpt lat="44.785722663604986" lon="9.325388200355285"><ele>1169.0</ele><time>2026-04-11T14:33:28.998Z</time></trkpt><trkpt lat="44.78578271413709" lon="9.3253256292895"><ele>1171.25</ele><time>2026-04-11T14:33:29.998Z</time></trkpt><trkpt lat="44.785841742311675" lon="9.32526729419097"><ele>1173.5</ele><time>2026-04-11T14:33:30.998Z</time></trkpt><trkpt lat="44.78589912801148" lon="9.325210582281581"><ele>1175.75</ele><time>2026-04-11T14:33:31.998Z</time></trkpt><trkpt lat="44.78609536482337" lon="9.325500767401229"><ele>1178.0</ele><time>2026-04-11T14:33:33.998Z</time></trkpt><trkpt lat="44.78617284355391" lon="9.325591604183174"><ele>1181.0</ele><time>2026-04-11T14:33:35.998Z</time></trkpt><trkpt lat="44.78620994001591" lon="9.32567806007887"><ele>1184.0</ele><time>2026-04-11T14:33:36.998Z</time></trkpt><trkpt lat="44.786277958506446" lon="9.325776905995758"><ele>1187.0</ele><time>2026-04-11T14:33:37.998Z</time></trkpt><trkpt lat="44.78632177022896" lon="9.325907606854226"><ele>1190.0</ele><time>2026-04-11T14:33:38.998Z</time></trkpt><trkpt lat="44.786344688217966" lon="9.32599955191068"><ele>1193.0</ele><time>2026-04-11T14:33:39.998Z</time></trkpt><trkpt lat="44.78634695524249" lon="9.326106129564044"><ele>1196.0</ele><time>2026-04-11T14:33:40.998Z</time></trkpt><trkpt lat="44.78633574927666" lon="9.326209036589255"><ele>1196.0</ele><time>2026-04-11T14:33:41.998Z</time></trkpt><trkpt lat="44.78632992568088" lon="9.326334826375533"><ele>1196.0</ele><time>2026-04-11T14:33:42.998Z</time></trkpt><trkpt lat="44.78633579556889" lon="9.326449693017006"><ele>1196.0</ele><time>2026-04-11T14:33:43.998Z</time></trkpt><trkpt lat="44.78636984749889" lon="9.326546497447666"><ele>1196.0</ele><time>2026-04-11T14:33:45.998Z</time></trkpt><trkpt lat="44.78650544717329" lon="9.326578377487555"><ele>1196.0</ele><time>2026-04-11T14:33:47.998Z</time></trkpt><trkpt lat="44.78658810972005" lon="9.32657722343203"><ele>1193.0</ele><time>2026-04-11T14:33:48.998Z</time></trkpt><trkpt lat="44.7866607829816" lon="9.326564024004153"><ele>1190.0</ele><time>2026-04-11T14:33:49.998Z</time></trkpt><trkpt lat="44.78674935250906" lon="9.326539114198367"><ele>1187.0</ele><time>2026-04-11T14:33:50.998Z</time></trkpt><trkpt lat="44.78685264067764" lon="9.326503085255338"><ele>1184.0</ele><time>2026-04-11T14:33:52Z</time></trkpt><trkpt lat="44.786929459975454" lon="9.326463357945277"><ele>1181.0</ele><time>2026-04-11T14:33:53Z</time></trkpt><trkpt lat="44.78702474786165" lon="9.32644229996493"><ele>1178.0</ele><time>2026-04-11T14:33:55Z</time></trkpt><trkpt lat="44.78709963988028" lon="9.326413157889327"><ele>1184.2</ele><time>2026-04-11T14:33:56Z</time></trkpt><trkpt lat="44.78719244826664" lon="9.326369802038446"><ele>1190.4</ele><time>2026-04-11T14:33:57Z</time></trkpt><trkpt lat="44.7872875863952" lon="9.326312629571554"><ele>1196.6000000000001</ele><time>2026-04-11T14:33:58Z</time></trkpt><trkpt lat="44.787374702130506" lon="9.326256259146815"><ele>1202.8</ele><time>2026-04-11T14:33:59Z</time></trkpt><trkpt lat="44.78744448206966" lon="9.326206132363724"><ele>1209.0</ele><time>2026-04-11T14:34:00Z</time></trkpt><trkpt lat="44.787546023054496" lon="9.326088783598376"><ele>1209.0</ele><time>2026-04-11T14:34:02Z</time></trkpt><trkpt lat="44.78764783621801" lon="9.326024593418376"><ele>1209.0</ele><time>2026-04-11T14:34:03Z</time></trkpt><trkpt lat="44.787730444287746" lon="9.325948955830787"><ele>1209.0</ele><time>2026-04-11T14:34:04Z</time></trkpt><trkpt lat="44.78781744750721" lon="9.325850983347504"><ele>1209.0</ele><time>2026-04-11T14:34:05Z</time></trkpt><trkpt lat="44.78793932147171" lon="9.325780037971796"><ele>1203.75</ele><time>2026-04-11T14:34:06Z</time></trkpt><trkpt lat="44.78807416331525" lon="9.325749032114874"><ele>1198.5</ele><time>2026-04-11T14:34:07Z</time></trkpt><trkpt lat="44.78820652017292" lon="9.325694612924503"><ele>1193.25</ele><time>2026-04-11T14:34:08Z</time></trkpt><trkpt lat="44.7883365276637" lon="9.325691774905025"><ele>1188.0</ele><time>2026-04-11T14:34:09Z</time></trkpt><trkpt lat="44.78847810425444" lon="9.325663836057698"><ele>1187.25</ele><time>2026-04-11T14:34:10Z</time></trkpt><trkpt lat="44.78861822914836" lon="9.325640251783948"><ele>1186.5</ele><time>2026-04-11T14:34:11Z</time></trkpt><trkpt lat="44.7887359114094" lon="9.32563543719624"><ele>1185.75</ele><time>2026-04-11T14:34:12Z</time></trkpt><trkpt lat="44.78883483367584" lon="9.32563544211372"><ele>1185.0</ele><time>2026-04-11T14:34:13Z</time></trkpt><trkpt lat="44.788945865246056" lon="9.325629187834192"><ele>1185.0</ele><time>2026-04-11T14:34:13.999Z</time></trkpt><trkpt lat="44.78906186953253" lon="9.325570636541805"><ele>1185.0</ele><time>2026-04-11T14:34:14.999Z</time></trkpt><trkpt lat="44.78919679010804" lon="9.325554294339547"><ele>1185.0</ele><time>2026-04-11T14:34:15.999Z</time></trkpt><trkpt lat="44.789317207311505" lon="9.325550719541345"><ele>1185.0</ele><time>2026-04-11T14:34:16.999Z</time></trkpt><trkpt lat="44.78943925894325" lon="9.325558222761416"><ele>1185.0</ele><time>2026-04-11T14:34:17.999Z</time></trkpt><trkpt lat="44.789563914243274" lon="9.32556478989398"><ele>1185.0</ele><time>2026-04-11T14:34:18.999Z</time></trkpt><trkpt lat="44.78983359309493" lon="9.32556450684112"><ele>1185.0</ele><time>2026-04-11T14:34:20.999Z</time></trkpt><trkpt lat="44.78993880975271" lon="9.325642090012778"><ele>1185.0</ele><time>2026-04-11T14:34:21.999Z</time></trkpt><trkpt lat="44.79002760498249" lon="9.325674612929182"><ele>1185.0</ele><time>2026-04-11T14:34:22.999Z</time></trkpt><trkpt lat="44.79010538753787" lon="9.325687139294576"><ele>1185.0</ele><time>2026-04-11T14:34:23.999Z</time></trkpt><trkpt lat="44.79016877574031" lon="9.325660272056286"><ele>1185.0</ele><time>2026-04-11T14:34:24.999Z</time></trkpt><trkpt lat="44.790257195113924" lon="9.325662190006195"><ele>1185.0</ele><time>2026-04-11T14:34:25.999Z</time></trkpt><trkpt lat="44.79034518687033" lon="9.325706775456215"><ele>1185.0</ele><time>2026-04-11T14:34:26.999Z</time></trkpt><trkpt lat="44.79044208514526" lon="9.325772309263122"><ele>1192.0</ele><time>2026-04-11T14:34:27.999Z</time></trkpt><trkpt lat="44.79053161565869" lon="9.325869448062312"><ele>1199.0</ele><time>2026-04-11T14:34:28.999Z</time></trkpt><trkpt lat="44.79063822233985" lon="9.326003688859828"><ele>1206.0</ele><time>2026-04-11T14:34:29.999Z</time></trkpt><trkpt lat="44.79074229579642" lon="9.32615139661011"><ele>1213.0</ele><time>2026-04-11T14:34:30.999Z</time></trkpt><trkpt lat="44.79085500193134" lon="9.326283034239468"><ele>1211.75</ele><time>2026-04-11T14:34:31.999Z</time></trkpt><trkpt lat="44.79094701596896" lon="9.326420406016394"><ele>1210.5</ele><time>2026-04-11T14:34:32.999Z</time></trkpt><trkpt lat="44.79105712234176" lon="9.326528531124476"><ele>1209.25</ele><time>2026-04-11T14:34:33.999Z</time></trkpt><trkpt lat="44.79116251018823" lon="9.326635182862091"><ele>1208.0</ele><time>2026-04-11T14:34:34.999Z</time></trkpt><trkpt lat="44.791253697507855" lon="9.32672615654295"><ele>1208.0</ele><time>2026-04-11T14:34:35.999Z</time></trkpt><trkpt lat="44.79133868707078" lon="9.326829515817455"><ele>1208.0</ele><time>2026-04-11T14:34:36.999Z</time></trkpt><trkpt lat="44.791424724169914" lon="9.326917891174855"><ele>1208.0</ele><time>2026-04-11T14:34:37.999Z</time></trkpt><trkpt lat="44.79150361541649" lon="9.326981020250246"><ele>1208.0</ele><time>2026-04-11T14:34:38.999Z</time></trkpt><trkpt lat="44.79155858754488" lon="9.327050115556863"><ele>1208.0</ele><time>2026-04-11T14:34:39.999Z</time></trkpt><trkpt lat="44.791658715968964" lon="9.327143317691103"><ele>1208.0</ele><time>2026-04-11T14:34:41.999Z</time></trkpt><trkpt lat="44.79172849218618" lon="9.327204592572778"><ele>1208.0</ele><time>2026-04-11T14:34:42.999Z</time></trkpt><trkpt lat="44.79180139315647" lon="9.327250758047219"><ele>1208.0</ele><time>2026-04-11T14:34:43.999Z</time></trkpt><trkpt lat="44.7918700821672" lon="9.327313599898874"><ele>1208.0</ele><time>2026-04-11T14:34:44.999Z</time></trkpt><trkpt lat="44.791949656641194" lon="9.327373548967687"><ele>1208.0</ele><time>2026-04-11T14:34:45.999Z</time></trkpt><trkpt lat="44.792044399485846" lon="9.327404554153162"><ele>1208.0</ele><time>2026-04-11T14:34:47.999Z</time></trkpt><trkpt lat="44.79212431866905" lon="9.327423284550445"><ele>1202.3333333333335</ele><time>2026-04-11T14:34:48.999Z</time></trkpt><trkpt lat="44.79222511925917" lon="9.32739622770005"><ele>1196.6666666666667</ele><time>2026-04-11T14:34:49.999Z</time></trkpt><trkpt lat="44.79232946991256" lon="9.32740218950113"><ele>1191.0</ele><time>2026-04-11T14:34:50.999Z</time></trkpt><trkpt lat="44.792407804716795" lon="9.32739286865277"><ele>1185.3333333333333</ele><time>2026-04-11T14:34:51.999Z</time></trkpt><trkpt lat="44.79248568570108" lon="9.327386691819687"><ele>1179.6666666666665</ele><time>2026-04-11T14:34:52.999Z</time></trkpt><trkpt lat="44.792560926957684" lon="9.327381145785118"><ele>1174.0</ele><time>2026-04-11T14:34:53.999Z</time></trkpt><trkpt lat="44.79263726154448" lon="9.327359561773997"><ele>1173.2</ele><time>2026-04-11T14:34:54.999Z</time></trkpt><trkpt lat="44.79271313535589" lon="9.327369961752751"><ele>1172.4</ele><time>2026-04-11T14:34:55.999Z</time></trkpt><trkpt lat="44.792844003310705" lon="9.327280863033856"><ele>1171.6</ele><time>2026-04-11T14:34:57.999Z</time></trkpt><trkpt lat="44.792917601481655" lon="9.327200488378748"><ele>1170.8</ele><time>2026-04-11T14:34:58.999Z</time></trkpt><trkpt lat="44.79297463114021" lon="9.327100063848755"><ele>1170.0</ele><time>2026-04-11T14:34:59.999Z</time></trkpt><trkpt lat="44.79302248764825" lon="9.326980270405944"><ele>1170.0</ele><time>2026-04-11T14:35:00.999Z</time></trkpt><trkpt lat="44.79306537271753" lon="9.326816318425426"><ele>1170.0</ele><time>2026-04-11T14:35:01.999Z</time></trkpt><trkpt lat="44.79309936487968" lon="9.326663541134485"><ele>1170.0</ele><time>2026-04-11T14:35:02.999Z</time></trkpt><trkpt lat="44.79312796317494" lon="9.326498650285748"><ele>1170.0</ele><time>2026-04-11T14:35:03.999Z</time></trkpt><trkpt lat="44.79316789971782" lon="9.326328062208676"><ele>1171.0</ele><time>2026-04-11T14:35:04.999Z</time></trkpt><trkpt lat="44.79322213639678" lon="9.326172363453576"><ele>1172.0</ele><time>2026-04-11T14:35:05.999Z</time></trkpt><trkpt lat="44.79326596099611" lon="9.326020401459123"><ele>1173.0</ele><time>2026-04-11T14:35:06.999Z</time></trkpt><trkpt lat="44.79330406545" lon="9.325873212362334"><ele>1174.0</ele><time>2026-04-11T14:35:07.999Z</time></trkpt><trkpt lat="44.793338742186776" lon="9.325746838476864"><ele>1175.0</ele><time>2026-04-11T14:35:08.999Z</time></trkpt><trkpt lat="44.79334510617756" lon="9.325580864747037"><ele>1174.5</ele><time>2026-04-11T14:35:10.999Z</time></trkpt><trkpt lat="44.793311621351386" lon="9.325422129442531"><ele>1174.0</ele><time>2026-04-11T14:35:12.998Z</time></trkpt><trkpt lat="44.79329070306101" lon="9.32519635443067"><ele>1173.5</ele><time>2026-04-11T14:35:13.998Z</time></trkpt><trkpt lat="44.793277820793115" lon="9.325015838770932"><ele>1173.0</ele><time>2026-04-11T14:35:14.998Z</time></trkpt><trkpt lat="44.79324859248053" lon="9.324847242013202"><ele>1173.0</ele><time>2026-04-11T14:35:15.998Z</time></trkpt><trkpt lat="44.79320891310094" lon="9.324702973955768"><ele>1173.0</ele><time>2026-04-11T14:35:16.998Z</time></trkpt><trkpt lat="44.79316895213386" lon="9.324558740835467"><ele>1173.0</ele><time>2026-04-11T14:35:17.998Z</time></trkpt><trkpt lat="44.79313880948394" lon="9.3244230883932"><ele>1173.0</ele><time>2026-04-11T14:35:18.998Z</time></trkpt><trkpt lat="44.79310951622907" lon="9.324287150821686"><ele>1173.0</ele><time>2026-04-11T14:35:19.998Z</time></trkpt><trkpt lat="44.793086619555126" lon="9.324180682513063"><ele>1173.0</ele><time>2026-04-11T14:35:20.998Z</time></trkpt><trkpt lat="44.79306879133949" lon="9.324091553331902"><ele>1173.0</ele><time>2026-04-11T14:35:21.998Z</time></trkpt><trkpt lat="44.79313077648668" lon="9.324004730480425"><ele>1173.0</ele><time>2026-04-11T14:35:23.998Z</time></trkpt><trkpt lat="44.79322087682275" lon="9.32409404753116"><ele>1173.0</ele><time>2026-04-11T14:35:26.998Z</time></trkpt><trkpt lat="44.79327602521245" lon="9.324159438903626"><ele>1173.0</ele><time>2026-04-11T14:35:27.998Z</time></trkpt><trkpt lat="44.79336397178232" lon="9.324243015329895"><ele>1173.0</ele><time>2026-04-11T14:35:28.998Z</time></trkpt><trkpt lat="44.793437298180656" lon="9.324365875637293"><ele>1172.25</ele><time>2026-04-11T14:35:29.998Z</time></trkpt><trkpt lat="44.79353802328802" lon="9.324451531663524"><ele>1171.5</ele><time>2026-04-11T14:35:30.998Z</time></trkpt><trkpt lat="44.79362542336388" lon="9.324576173879793"><ele>1170.75</ele><time>2026-04-11T14:35:31.998Z</time></trkpt><trkpt lat="44.793722598567825" lon="9.324682800309189"><ele>1170.0</ele><time>2026-04-11T14:35:32.998Z</time></trkpt><trkpt lat="44.793827377201616" lon="9.324778225752926"><ele>1170.0</ele><time>2026-04-11T14:35:33.998Z</time></trkpt><trkpt lat="44.79390821511933" lon="9.324916400797791"><ele>1170.0</ele><time>2026-04-11T14:35:34.998Z</time></trkpt><trkpt lat="44.79398308359355" lon="9.325039716240827"><ele>1170.0</ele><time>2026-04-11T14:35:35.998Z</time></trkpt><trkpt lat="44.794044779966214" lon="9.325175952934561"><ele>1170.0</ele><time>2026-04-11T14:35:36.998Z</time></trkpt><trkpt lat="44.79410358153514" lon="9.325334310757885"><ele>1170.0</ele><time>2026-04-11T14:35:37.998Z</time></trkpt><trkpt lat="44.7941521163492" lon="9.325489413127992"><ele>1170.0</ele><time>2026-04-11T14:35:38.998Z</time></trkpt><trkpt lat="44.7941961299815" lon="9.32564973523642"><ele>1170.0</ele><time>2026-04-11T14:35:39.998Z</time></trkpt><trkpt lat="44.79423518483146" lon="9.325820711227532"><ele>1170.0</ele><time>2026-04-11T14:35:40.998Z</time></trkpt><trkpt lat="44.79426083372476" lon="9.325977157780798"><ele>1168.25</ele><time>2026-04-11T14:35:41.998Z</time></trkpt><trkpt lat="44.79427906591166" lon="9.326140938673898"><ele>1166.5</ele><time>2026-04-11T14:35:42.998Z</time></trkpt><trkpt lat="44.79429152484074" lon="9.32629822090862"><ele>1164.75</ele><time>2026-04-11T14:35:43.998Z</time></trkpt><trkpt lat="44.79431113631833" lon="9.326443030827285"><ele>1163.0</ele><time>2026-04-11T14:35:44.998Z</time></trkpt><trkpt lat="44.794290273465286" lon="9.32662133782686"><ele>1160.5</ele><time>2026-04-11T14:35:45.998Z</time></trkpt><trkpt lat="44.79430432218494" lon="9.326796888892625"><ele>1158.0</ele><time>2026-04-11T14:35:46.998Z</time></trkpt><trkpt lat="44.794365053255596" lon="9.326980359543194"><ele>1155.5</ele><time>2026-04-11T14:35:47.998Z</time></trkpt><trkpt lat="44.79441708165857" lon="9.32714544158972"><ele>1153.0</ele><time>2026-04-11T14:35:48.998Z</time></trkpt><trkpt lat="44.794467454074606" lon="9.327310838216695"><ele>1159.5</ele><time>2026-04-11T14:35:49.998Z</time></trkpt><trkpt lat="44.79450615094195" lon="9.327465642176879"><ele>1166.0</ele><time>2026-04-11T14:35:50.998Z</time></trkpt><trkpt lat="44.79453493120989" lon="9.32763404076816"><ele>1172.5</ele><time>2026-04-11T14:35:51.998Z</time></trkpt><trkpt lat="44.79449684659028" lon="9.32778371250216"><ele>1179.0</ele><time>2026-04-11T14:35:52.998Z</time></trkpt><trkpt lat="44.79448568473538" lon="9.327938645750102"><ele>1179.0</ele><time>2026-04-11T14:35:53.998Z</time></trkpt><trkpt lat="44.79449480759115" lon="9.328045543305947"><ele>1179.0</ele><time>2026-04-11T14:35:54.998Z</time></trkpt><trkpt lat="44.794541331007935" lon="9.328205091246463"><ele>1179.0</ele><time>2026-04-11T14:35:56.998Z</time></trkpt><trkpt lat="44.79460239104724" lon="9.328317360453017"><ele>1179.0</ele><time>2026-04-11T14:35:58Z</time></trkpt><trkpt lat="44.794693500549805" lon="9.328430819288808"><ele>1179.0</ele><time>2026-04-11T14:35:59Z</time></trkpt><trkpt lat="44.794796330133785" lon="9.328548860183144"><ele>1178.75</ele><time>2026-04-11T14:36:00Z</time></trkpt><trkpt lat="44.794907505460046" lon="9.32865632375639"><ele>1178.5</ele><time>2026-04-11T14:36:01Z</time></trkpt><trkpt lat="44.79501477089676" lon="9.328729081018492"><ele>1178.25</ele><time>2026-04-11T14:36:02Z</time></trkpt><trkpt lat="44.7951243176718" lon="9.328791397597717"><ele>1178.0</ele><time>2026-04-11T14:36:03Z</time></trkpt><trkpt lat="44.79522984126816" lon="9.328880362159643"><ele>1170.25</ele><time>2026-04-11T14:36:04Z</time></trkpt><trkpt lat="44.79531977395419" lon="9.328954261351807"><ele>1162.5</ele><time>2026-04-11T14:36:05Z</time></trkpt><trkpt lat="44.79541567578629" lon="9.329090918842981"><ele>1154.75</ele><time>2026-04-11T14:36:06Z</time></trkpt><trkpt lat="44.79553270875203" lon="9.32921007329474"><ele>1147.0</ele><time>2026-04-11T14:36:07Z</time></trkpt><trkpt lat="44.79562607477" lon="9.329333665768015"><ele>1147.0</ele><time>2026-04-11T14:36:08Z</time></trkpt><trkpt lat="44.795699266524714" lon="9.329420584729187"><ele>1147.0</ele><time>2026-04-11T14:36:09Z</time></trkpt><trkpt lat="44.79576577745921" lon="9.329520320413364"><ele>1147.0</ele><time>2026-04-11T14:36:10Z</time></trkpt><trkpt lat="44.79584012777045" lon="9.329632651988547"><ele>1147.0</ele><time>2026-04-11T14:36:11Z</time></trkpt><trkpt lat="44.79590474967872" lon="9.329703042172003"><ele>1147.0</ele><time>2026-04-11T14:36:12Z</time></trkpt><trkpt lat="44.795983684028506" lon="9.32974770722312"><ele>1146.0</ele><time>2026-04-11T14:36:13Z</time></trkpt><trkpt lat="44.79606344279305" lon="9.329667552946066"><ele>1145.0</ele><time>2026-04-11T14:36:15Z</time></trkpt><trkpt lat="44.79611629519813" lon="9.329506319234858"><ele>1144.0</ele><time>2026-04-11T14:36:17Z</time></trkpt><trkpt lat="44.79614477226599" lon="9.329424770757637"><ele>1143.0</ele><time>2026-04-11T14:36:17.999Z</time></trkpt><trkpt lat="44.79620576784592" lon="9.329381423474137"><ele>1142.0</ele><time>2026-04-11T14:36:18.999Z</time></trkpt><trkpt lat="44.796269307080806" lon="9.329302491982146"><ele>1141.0</ele><time>2026-04-11T14:36:20.999Z</time></trkpt><trkpt lat="44.7962439654224" lon="9.329126900926038"><ele>1141.0</ele><time>2026-04-11T14:38:41.999Z</time></trkpt><trkpt lat="44.79622421294873" lon="9.328996530618115"><ele>1141.0</ele><time>2026-04-11T14:38:42.999Z</time></trkpt><trkpt lat="44.79621512357045" lon="9.328852357772533"><ele>1141.0</ele><time>2026-04-11T14:38:43.999Z</time></trkpt><trkpt lat="44.7962329188632" lon="9.328744227155878"><ele>1141.0</ele><time>2026-04-11T14:38:44.999Z</time></trkpt><trkpt lat="44.79628488671448" lon="9.32865939150266"><ele>1141.0</ele><time>2026-04-11T14:38:45.999Z</time></trkpt><trkpt lat="44.7963770655115" lon="9.328569117087273"><ele>1140.75</ele><time>2026-04-11T14:38:46.999Z</time></trkpt><trkpt lat="44.79648278097366" lon="9.328484012537066"><ele>1140.5</ele><time>2026-04-11T14:38:47.999Z</time></trkpt><trkpt lat="44.7965991071314" lon="9.328408653012696"><ele>1140.25</ele><time>2026-04-11T14:38:48.999Z</time></trkpt><trkpt lat="44.79673248109467" lon="9.328334149079048"><ele>1140.0</ele><time>2026-04-11T14:38:49.999Z</time></trkpt><trkpt lat="44.79687656862497" lon="9.328328079283247"><ele>1140.0</ele><time>2026-04-11T14:38:50.999Z</time></trkpt><trkpt lat="44.79701840751449" lon="9.328356740201272"><ele>1140.0</ele><time>2026-04-11T14:38:51.999Z</time></trkpt><trkpt lat="44.79713782126476" lon="9.328368161277492"><ele>1140.0</ele><time>2026-04-11T14:38:52.999Z</time></trkpt><trkpt lat="44.797225084021775" lon="9.328376292289095"><ele>1140.0</ele><time>2026-04-11T14:38:53.999Z</time></trkpt><trkpt lat="44.797287333880156" lon="9.328341622088725"><ele>1140.0</ele><time>2026-04-11T14:38:54.999Z</time></trkpt><trkpt lat="44.79734190923512" lon="9.328175653144426"><ele>1138.0</ele><time>2026-04-11T14:38:56.999Z</time></trkpt><trkpt lat="44.79726507788903" lon="9.328042775688084"><ele>1136.0</ele><time>2026-04-11T14:38:57.999Z</time></trkpt><trkpt lat="44.79719585278064" lon="9.327913426157284"><ele>1134.0</ele><time>2026-04-11T14:38:58.999Z</time></trkpt><trkpt lat="44.79713205756279" lon="9.327764854457335"><ele>1132.0</ele><time>2026-04-11T14:38:59.999Z</time></trkpt><trkpt lat="44.79705225793973" lon="9.327608400666957"><ele>1132.0</ele><time>2026-04-11T14:39:00.999Z</time></trkpt><trkpt lat="44.796947326038925" lon="9.327464363393435"><ele>1132.0</ele><time>2026-04-11T14:39:01.999Z</time></trkpt><trkpt lat="44.79687027359147" lon="9.327303412266055"><ele>1132.0</ele><time>2026-04-11T14:39:02.999Z</time></trkpt><trkpt lat="44.79679938501454" lon="9.32714019870476"><ele>1132.0</ele><time>2026-04-11T14:39:03.999Z</time></trkpt><trkpt lat="44.79676915174409" lon="9.32700248764396"><ele>1129.8</ele><time>2026-04-11T14:39:04.999Z</time></trkpt><trkpt lat="44.7967975345138" lon="9.32689316780286"><ele>1127.6</ele><time>2026-04-11T14:39:05.999Z</time></trkpt><trkpt lat="44.7968346986155" lon="9.326778966146783"><ele>1125.3999999999999</ele><time>2026-04-11T14:39:06.999Z</time></trkpt><trkpt lat="44.79688167951547" lon="9.326666443700487"><ele>1123.2</ele><time>2026-04-11T14:39:07.999Z</time></trkpt><trkpt lat="44.79687112532312" lon="9.326528538180455"><ele>1121.0</ele><time>2026-04-11T14:39:08.999Z</time></trkpt><trkpt lat="44.796842414506315" lon="9.326391458569145"><ele>1128.0</ele><time>2026-04-11T14:39:09.999Z</time></trkpt><trkpt lat="44.79677243337748" lon="9.326263116252878"><ele>1135.0</ele><time>2026-04-11T14:39:10.999Z</time></trkpt><trkpt lat="44.79672099206571" lon="9.326144154578213"><ele>1142.0</ele><time>2026-04-11T14:39:11.999Z</time></trkpt><trkpt lat="44.796700884720664" lon="9.326024289926071"><ele>1149.0</ele><time>2026-04-11T14:39:12.999Z</time></trkpt><trkpt lat="44.7967269246227" lon="9.325899328647102"><ele>1156.0</ele><time>2026-04-11T14:39:13.999Z</time></trkpt><trkpt lat="44.796791176071835" lon="9.325817724425583"><ele>1147.75</ele><time>2026-04-11T14:39:14.999Z</time></trkpt><trkpt lat="44.79686277200798" lon="9.325757108512574"><ele>1139.5</ele><time>2026-04-11T14:39:15.998Z</time></trkpt><trkpt lat="44.796957649411695" lon="9.325581628130042"><ele>1131.25</ele><time>2026-04-11T14:39:16.998Z</time></trkpt><trkpt lat="44.797037972546974" lon="9.325452283338523"><ele>1123.0</ele><time>2026-04-11T14:39:17.998Z</time></trkpt><trkpt lat="44.79709383454867" lon="9.325287984362758"><ele>1123.0</ele><time>2026-04-11T14:39:18.998Z</time></trkpt><trkpt lat="44.79709528482925" lon="9.32509860144053"><ele>1123.0</ele><time>2026-04-11T14:39:19.998Z</time></trkpt><trkpt lat="44.79705513602306" lon="9.324924403520622"><ele>1123.0</ele><time>2026-04-11T14:39:20.998Z</time></trkpt><trkpt lat="44.796995728928174" lon="9.324766104331186"><ele>1123.0</ele><time>2026-04-11T14:39:21.998Z</time></trkpt><trkpt lat="44.796954615420496" lon="9.324629481593655"><ele>1124.0</ele><time>2026-04-11T14:39:22.998Z</time></trkpt><trkpt lat="44.79702505120778" lon="9.324493135374256"><ele>1125.0</ele><time>2026-04-11T14:39:23.998Z</time></trkpt><trkpt lat="44.797088753478256" lon="9.324330716805022"><ele>1126.0</ele><time>2026-04-11T14:39:24.998Z</time></trkpt><trkpt lat="44.797147664359535" lon="9.324144760002504"><ele>1127.0</ele><time>2026-04-11T14:39:25.998Z</time></trkpt><trkpt lat="44.797218851622276" lon="9.323960307088356"><ele>1129.0</ele><time>2026-04-11T14:39:26.998Z</time></trkpt><trkpt lat="44.79727170849736" lon="9.323764077335774"><ele>1131.0</ele><time>2026-04-11T14:39:27.998Z</time></trkpt><trkpt lat="44.79729813511142" lon="9.323551816331687"><ele>1133.0</ele><time>2026-04-11T14:39:28.998Z</time></trkpt><trkpt lat="44.797311828870825" lon="9.323333890937478"><ele>1133.0</ele><time>2026-04-11T14:39:29.998Z</time></trkpt><trkpt lat="44.79732372783833" lon="9.32311437658991"><ele>1133.0</ele><time>2026-04-11T14:39:30.998Z</time></trkpt><trkpt lat="44.79733486451154" lon="9.322906256818515"><ele>1133.0</ele><time>2026-04-11T14:39:31.998Z</time></trkpt><trkpt lat="44.797337737373056" lon="9.322744436405662"><ele>1133.0</ele><time>2026-04-11T14:39:32.998Z</time></trkpt><trkpt lat="44.79733584212519" lon="9.32261459026979"><ele>1131.2</ele><time>2026-04-11T14:39:33.998Z</time></trkpt><trkpt lat="44.797352181631695" lon="9.322502525752391"><ele>1129.4</ele><time>2026-04-11T14:39:34.998Z</time></trkpt><trkpt lat="44.797440481315604" lon="9.322383040895291"><ele>1127.6000000000001</ele><time>2026-04-11T14:39:36.998Z</time></trkpt><trkpt lat="44.79751306489162" lon="9.322348392747784"><ele>1125.8</ele><time>2026-04-11T14:39:37.998Z</time></trkpt><trkpt lat="44.79761423600732" lon="9.322394730574654"><ele>1124.0</ele><time>2026-04-11T14:39:38.998Z</time></trkpt><trkpt lat="44.797716609798904" lon="9.32237526717069"><ele>1124.0</ele><time>2026-04-11T14:39:39.998Z</time></trkpt><trkpt lat="44.797832532599344" lon="9.322321201846785"><ele>1124.0</ele><time>2026-04-11T14:39:40.998Z</time></trkpt><trkpt lat="44.79795002026729" lon="9.322244335533078"><ele>1124.0</ele><time>2026-04-11T14:39:41.998Z</time></trkpt><trkpt lat="44.798060987549434" lon="9.322159264313262"><ele>1124.0</ele><time>2026-04-11T14:39:42.998Z</time></trkpt><trkpt lat="44.79816188501066" lon="9.322063290875489"><ele>1122.5</ele><time>2026-04-11T14:39:43.998Z</time></trkpt><trkpt lat="44.79826408529753" lon="9.321954038570125"><ele>1121.0</ele><time>2026-04-11T14:39:44.998Z</time></trkpt><trkpt lat="44.79835847283308" lon="9.321816526495551"><ele>1119.5</ele><time>2026-04-11T14:39:45.998Z</time></trkpt><trkpt lat="44.798448070579994" lon="9.321666653993569"><ele>1118.0</ele><time>2026-04-11T14:39:46.998Z</time></trkpt><trkpt lat="44.79855673853374" lon="9.321542902279743"><ele>1119.75</ele><time>2026-04-11T14:39:47.998Z</time></trkpt><trkpt lat="44.79865373887147" lon="9.321386200674796"><ele>1121.5</ele><time>2026-04-11T14:39:48.998Z</time></trkpt><trkpt lat="44.798767909601985" lon="9.321269422802116"><ele>1123.25</ele><time>2026-04-11T14:39:49.998Z</time></trkpt><trkpt lat="44.798884498700644" lon="9.321195879384412"><ele>1125.0</ele><time>2026-04-11T14:39:50.998Z</time></trkpt><trkpt lat="44.79898942992419" lon="9.321162465315231"><ele>1125.0</ele><time>2026-04-11T14:39:51.998Z</time></trkpt><trkpt lat="44.79907360364754" lon="9.321140106495818"><ele>1125.0</ele><time>2026-04-11T14:39:52.998Z</time></trkpt><trkpt lat="44.79912200515685" lon="9.321074486318398"><ele>1125.0</ele><time>2026-04-11T14:39:53.998Z</time></trkpt><trkpt lat="44.79913797416307" lon="9.320984386084525"><ele>1125.0</ele><time>2026-04-11T14:39:54.998Z</time></trkpt><trkpt lat="44.79909619643379" lon="9.320862769933692"><ele>1125.0</ele><time>2026-04-11T14:39:55.998Z</time></trkpt><trkpt lat="44.79909288589026" lon="9.320701751953804"><ele>1125.0</ele><time>2026-04-11T14:39:56.998Z</time></trkpt><trkpt lat="44.79907374102397" lon="9.320531786837881"><ele>1124.75</ele><time>2026-04-11T14:39:57.998Z</time></trkpt><trkpt lat="44.79904130165171" lon="9.320380533114571"><ele>1124.5</ele><time>2026-04-11T14:39:58.998Z</time></trkpt><trkpt lat="44.798976023192026" lon="9.320273030270851"><ele>1124.25</ele><time>2026-04-11T14:39:59.998Z</time></trkpt><trkpt lat="44.798849374731134" lon="9.320211678705673"><ele>1124.0</ele><time>2026-04-11T14:40:00.998Z</time></trkpt><trkpt lat="44.798719698988485" lon="9.320144486536478"><ele>1124.0</ele><time>2026-04-11T14:40:01.998Z</time></trkpt><trkpt lat="44.798582377087314" lon="9.320064426348349"><ele>1124.0</ele><time>2026-04-11T14:40:02.998Z</time></trkpt><trkpt lat="44.798473390558314" lon="9.319987218507489"><ele>1124.0</ele><time>2026-04-11T14:40:03.998Z</time></trkpt><trkpt lat="44.798370291648396" lon="9.319915150286871"><ele>1124.0</ele><time>2026-04-11T14:40:04.998Z</time></trkpt><trkpt lat="44.798321766098546" lon="9.319849364393347"><ele>1124.6000000000001</ele><time>2026-04-11T14:40:05.998Z</time></trkpt><trkpt lat="44.798318192704485" lon="9.319759447817452"><ele>1125.2</ele><time>2026-04-11T14:40:06.998Z</time></trkpt><trkpt lat="44.798365600433534" lon="9.319660962262837"><ele>1125.8000000000002</ele><time>2026-04-11T14:40:07.998Z</time></trkpt><trkpt lat="44.79843592418012" lon="9.319577805087636"><ele>1126.4</ele><time>2026-04-11T14:40:08.998Z</time></trkpt><trkpt lat="44.79853007088897" lon="9.319517143413405"><ele>1127.0</ele><time>2026-04-11T14:40:09.999Z</time></trkpt><trkpt lat="44.79866544380907" lon="9.319481316323621"><ele>1127.0</ele><time>2026-04-11T14:40:10.999Z</time></trkpt><trkpt lat="44.79879997827848" lon="9.319450043553703"><ele>1127.0</ele><time>2026-04-11T14:40:11.999Z</time></trkpt><trkpt lat="44.79890888348997" lon="9.319391912208335"><ele>1127.0</ele><time>2026-04-11T14:40:12.999Z</time></trkpt><trkpt lat="44.799019462652694" lon="9.319295834177769"><ele>1127.0</ele><time>2026-04-11T14:40:13.999Z</time></trkpt><trkpt lat="44.79913432145643" lon="9.319144450634052"><ele>1127.0</ele><time>2026-04-11T14:40:14.999Z</time></trkpt><trkpt lat="44.79924091541022" lon="9.318956995020503"><ele>1127.0</ele><time>2026-04-11T14:40:15.999Z</time></trkpt><trkpt lat="44.79937464636654" lon="9.318816404373306"><ele>1127.0</ele><time>2026-04-11T14:40:16.999Z</time></trkpt><trkpt lat="44.79949975900555" lon="9.318675908516004"><ele>1123.0</ele><time>2026-04-11T14:40:17.999Z</time></trkpt><trkpt lat="44.799612088640046" lon="9.318562054897004"><ele>1119.0</ele><time>2026-04-11T14:40:18.999Z</time></trkpt><trkpt lat="44.79968527604455" lon="9.31845112591016"><ele>1115.0</ele><time>2026-04-11T14:40:19.999Z</time></trkpt><trkpt lat="44.79972231085931" lon="9.318301600858295"><ele>1111.0</ele><time>2026-04-11T14:40:20.999Z</time></trkpt><trkpt lat="44.799733821529415" lon="9.31810421881165"><ele>1111.3333333333333</ele><time>2026-04-11T14:40:21.999Z</time></trkpt><trkpt lat="44.79973442144503" lon="9.31788029600719"><ele>1111.6666666666667</ele><time>2026-04-11T14:40:22.999Z</time></trkpt><trkpt lat="44.79975170550621" lon="9.317645452829211"><ele>1112.0</ele><time>2026-04-11T14:40:23.999Z</time></trkpt><trkpt lat="44.79973312255357" lon="9.31743153121892"><ele>1112.0</ele><time>2026-04-11T14:40:24.999Z</time></trkpt><trkpt lat="44.79969711238088" lon="9.317246091161634"><ele>1112.0</ele><time>2026-04-11T14:40:25.999Z</time></trkpt><trkpt lat="44.7996375343635" lon="9.317076510061419"><ele>1112.0</ele><time>2026-04-11T14:40:26.999Z</time></trkpt><trkpt lat="44.79958667918271" lon="9.316913335028532"><ele>1112.0</ele><time>2026-04-11T14:40:27.999Z</time></trkpt><trkpt lat="44.79960274457806" lon="9.316745203257705"><ele>1111.75</ele><time>2026-04-11T14:40:28.999Z</time></trkpt><trkpt lat="44.79965291111374" lon="9.316579559550792"><ele>1111.5</ele><time>2026-04-11T14:40:29.999Z</time></trkpt><trkpt lat="44.79971371917631" lon="9.316387702036348"><ele>1111.25</ele><time>2026-04-11T14:40:30.999Z</time></trkpt><trkpt lat="44.799777985741535" lon="9.316170158852449"><ele>1111.0</ele><time>2026-04-11T14:40:31.999Z</time></trkpt><trkpt lat="44.799841329092374" lon="9.315950091647586"><ele>1112.6666666666665</ele><time>2026-04-11T14:40:32.999Z</time></trkpt><trkpt lat="44.79987537879315" lon="9.315711421416566"><ele>1114.3333333333333</ele><time>2026-04-11T14:40:33.999Z</time></trkpt><trkpt lat="44.79989117209414" lon="9.315462984756937"><ele>1116.0</ele><time>2026-04-11T14:40:34.999Z</time></trkpt><trkpt lat="44.79990256578252" lon="9.315225258196286"><ele>1118.25</ele><time>2026-04-11T14:40:35.999Z</time></trkpt><trkpt lat="44.79994851276311" lon="9.315027179772326"><ele>1120.5</ele><time>2026-04-11T14:40:36.999Z</time></trkpt><trkpt lat="44.80006116390645" lon="9.314926446327187"><ele>1122.75</ele><time>2026-04-11T14:40:37.999Z</time></trkpt><trkpt lat="44.800155947709285" lon="9.314813774779182"><ele>1125.0</ele><time>2026-04-11T14:40:38.999Z</time></trkpt><trkpt lat="44.80023312480678" lon="9.31469553423141"><ele>1120.0</ele><time>2026-04-11T14:40:39.999Z</time></trkpt><trkpt lat="44.80025931266956" lon="9.314538166377785"><ele>1115.0</ele><time>2026-04-11T14:40:40.999Z</time></trkpt><trkpt lat="44.800250535995055" lon="9.314350704528273"><ele>1110.0</ele><time>2026-04-11T14:40:41.999Z</time></trkpt><trkpt lat="44.80025644392968" lon="9.314184539470727"><ele>1105.0</ele><time>2026-04-11T14:40:42.999Z</time></trkpt><trkpt lat="44.800283148450355" lon="9.314070971037891"><ele>1105.0</ele><time>2026-04-11T14:40:43.999Z</time></trkpt><trkpt lat="44.800321510903366" lon="9.313978239889957"><ele>1105.0</ele><time>2026-04-11T14:40:44.999Z</time></trkpt><trkpt lat="44.8003697601925" lon="9.313887022534136"><ele>1105.0</ele><time>2026-04-11T14:40:45.999Z</time></trkpt><trkpt lat="44.80043778423965" lon="9.313797009226926"><ele>1105.0</ele><time>2026-04-11T14:40:46.999Z</time></trkpt><trkpt lat="44.800514700229414" lon="9.313721888548509"><ele>1105.0</ele><time>2026-04-11T14:40:47.999Z</time></trkpt><trkpt lat="44.80058922486725" lon="9.313653560739235"><ele>1105.0</ele><time>2026-04-11T14:40:48.999Z</time></trkpt><trkpt lat="44.800663433861494" lon="9.31359771612028"><ele>1105.4</ele><time>2026-04-11T14:40:49.999Z</time></trkpt><trkpt lat="44.80073756304484" lon="9.313553998776301"><ele>1105.8</ele><time>2026-04-11T14:40:50.999Z</time></trkpt><trkpt lat="44.80082818927681" lon="9.31353040172378"><ele>1106.2</ele><time>2026-04-11T14:40:51.999Z</time></trkpt><trkpt lat="44.80093714287015" lon="9.313525037918618"><ele>1106.6</ele><time>2026-04-11T14:40:52.999Z</time></trkpt><trkpt lat="44.801059847869254" lon="9.313562405990247"><ele>1107.0</ele><time>2026-04-11T14:40:53.999Z</time></trkpt><trkpt lat="44.801174313911375" lon="9.313665376350778"><ele>1105.8</ele><time>2026-04-11T14:40:54.999Z</time></trkpt><trkpt lat="44.80129392002882" lon="9.313730562495426"><ele>1104.6</ele><time>2026-04-11T14:40:55.999Z</time></trkpt><trkpt lat="44.801393164994444" lon="9.313781531915778"><ele>1103.3999999999999</ele><time>2026-04-11T14:40:56.999Z</time></trkpt><trkpt lat="44.801475237896376" lon="9.313765021677849"><ele>1102.2</ele><time>2026-04-11T14:40:57.999Z</time></trkpt><trkpt lat="44.801560043435515" lon="9.313688534113464"><ele>1101.0</ele><time>2026-04-11T14:40:58.999Z</time></trkpt><trkpt lat="44.80175677776941" lon="9.313526970036976"><ele>1099.6</ele><time>2026-04-11T14:41:00.999Z</time></trkpt><trkpt lat="44.80184447759952" lon="9.313436764543663"><ele>1098.1999999999998</ele><time>2026-04-11T14:41:01.999Z</time></trkpt><trkpt lat="44.801935776667726" lon="9.313371771903125"><ele>1096.8000000000002</ele><time>2026-04-11T14:41:02.999Z</time></trkpt><trkpt lat="44.80202978171109" lon="9.313344094312686"><ele>1095.4</ele><time>2026-04-11T14:41:03.999Z</time></trkpt><trkpt lat="44.80212621677368" lon="9.31334707634016"><ele>1094.0</ele><time>2026-04-11T14:41:04.999Z</time></trkpt><trkpt lat="44.80222875455945" lon="9.313361423959275"><ele>1094.0</ele><time>2026-04-11T14:41:05.999Z</time></trkpt><trkpt lat="44.802345025882616" lon="9.313361100087498"><ele>1094.0</ele><time>2026-04-11T14:41:06.999Z</time></trkpt><trkpt lat="44.80246031052486" lon="9.313325547631187"><ele>1094.0</ele><time>2026-04-11T14:41:07.999Z</time></trkpt><trkpt lat="44.802574875311656" lon="9.313250839807917"><ele>1094.0</ele><time>2026-04-11T14:41:08.999Z</time></trkpt><trkpt lat="44.80269217795486" lon="9.313163527493563"><ele>1096.5</ele><time>2026-04-11T14:41:09.999Z</time></trkpt><trkpt lat="44.80281193779792" lon="9.313071462418726"><ele>1099.0</ele><time>2026-04-11T14:41:10.999Z</time></trkpt><trkpt lat="44.80292792696182" lon="9.312987905497499"><ele>1101.5</ele><time>2026-04-11T14:41:11.999Z</time></trkpt><trkpt lat="44.80304135692275" lon="9.312915318748193"><ele>1104.0</ele><time>2026-04-11T14:41:12.999Z</time></trkpt><trkpt lat="44.8031432611119" lon="9.312865217053664"><ele>1104.0</ele><time>2026-04-11T14:41:13.999Z</time></trkpt><trkpt lat="44.80323243092261" lon="9.312857944458043"><ele>1104.0</ele><time>2026-04-11T14:41:14.999Z</time></trkpt><trkpt lat="44.803307663137566" lon="9.312895352087832"><ele>1104.0</ele><time>2026-04-11T14:41:15.999Z</time></trkpt><trkpt lat="44.80337212635577" lon="9.312972406899632"><ele>1104.0</ele><time>2026-04-11T14:41:16.999Z</time></trkpt><trkpt lat="44.80340115994969" lon="9.313088430284747"><ele>1104.0</ele><time>2026-04-11T14:41:17.999Z</time></trkpt><trkpt lat="44.8033859881449" lon="9.31322162543627"><ele>1104.0</ele><time>2026-04-11T14:41:18.999Z</time></trkpt><trkpt lat="44.80333456126932" lon="9.313356379046121"><ele>1101.0</ele><time>2026-04-11T14:41:19.999Z</time></trkpt><trkpt lat="44.80324693274333" lon="9.313468585035821"><ele>1098.0</ele><time>2026-04-11T14:41:20.999Z</time></trkpt><trkpt lat="44.8031742026457" lon="9.313612045535761"><ele>1095.0</ele><time>2026-04-11T14:41:21.999Z</time></trkpt><trkpt lat="44.80307801604215" lon="9.313755008440737"><ele>1092.0</ele><time>2026-04-11T14:41:22.999Z</time></trkpt><trkpt lat="44.80297710995498" lon="9.313907276974687"><ele>1091.25</ele><time>2026-04-11T14:41:23.998Z</time></trkpt><trkpt lat="44.80287875017794" lon="9.314047796055943"><ele>1090.5</ele><time>2026-04-11T14:41:24.998Z</time></trkpt><trkpt lat="44.80277869565576" lon="9.314177774827838"><ele>1089.75</ele><time>2026-04-11T14:41:25.998Z</time></trkpt><trkpt lat="44.802663611605425" lon="9.314326929288542"><ele>1089.0</ele><time>2026-04-11T14:41:26.998Z</time></trkpt><trkpt lat="44.802551274921036" lon="9.314488987236118"><ele>1089.0</ele><time>2026-04-11T14:41:27.998Z</time></trkpt><trkpt lat="44.80245045452704" lon="9.314638491439018"><ele>1089.0</ele><time>2026-04-11T14:41:28.998Z</time></trkpt><trkpt lat="44.80237853694153" lon="9.314759983763416"><ele>1089.0</ele><time>2026-04-11T14:41:29.998Z</time></trkpt><trkpt lat="44.80235004691806" lon="9.314857307882889"><ele>1089.0</ele><time>2026-04-11T14:41:30.998Z</time></trkpt><trkpt lat="44.80236559951976" lon="9.314949010777614"><ele>1089.0</ele><time>2026-04-11T14:41:31.998Z</time></trkpt><trkpt lat="44.802416230169925" lon="9.315027254237508"><ele>1087.0</ele><time>2026-04-11T14:41:32.998Z</time></trkpt><trkpt lat="44.802474317560275" lon="9.3150899958947"><ele>1085.0</ele><time>2026-04-11T14:41:33.998Z</time></trkpt><trkpt lat="44.80257194327787" lon="9.315082326016258"><ele>1083.0</ele><time>2026-04-11T14:41:34.998Z</time></trkpt><trkpt lat="44.80266709530142" lon="9.314991893820247"><ele>1081.0</ele><time>2026-04-11T14:41:35.998Z</time></trkpt><trkpt lat="44.802781321843696" lon="9.314926163407662"><ele>1079.0</ele><time>2026-04-11T14:41:36.998Z</time></trkpt><trkpt lat="44.80291312570131" lon="9.31487291034257"><ele>1076.0</ele><time>2026-04-11T14:41:37.998Z</time></trkpt><trkpt lat="44.803060399069466" lon="9.314860378293735"><ele>1073.0</ele><time>2026-04-11T14:41:38.998Z</time></trkpt><trkpt lat="44.80322468364222" lon="9.314888305840107"><ele>1070.0</ele><time>2026-04-11T14:41:39.998Z</time></trkpt><trkpt lat="44.80339930764898" lon="9.314861484426144"><ele>1069.0</ele><time>2026-04-11T14:41:40.998Z</time></trkpt><trkpt lat="44.80357324978181" lon="9.314867470454148"><ele>1068.0</ele><time>2026-04-11T14:41:41.998Z</time></trkpt><trkpt lat="44.80373790599512" lon="9.31486719337597"><ele>1067.0</ele><time>2026-04-11T14:41:42.998Z</time></trkpt><trkpt lat="44.80390551630719" lon="9.314880442427887"><ele>1067.0</ele><time>2026-04-11T14:41:43.998Z</time></trkpt><trkpt lat="44.80407613388805" lon="9.314907956054743"><ele>1067.0</ele><time>2026-04-11T14:41:44.998Z</time></trkpt><trkpt lat="44.80422247060439" lon="9.314952506048744"><ele>1067.0</ele><time>2026-04-11T14:41:45.998Z</time></trkpt><trkpt lat="44.80433566941513" lon="9.31502545398856"><ele>1067.0</ele><time>2026-04-11T14:41:46.998Z</time></trkpt><trkpt lat="44.804411071483976" lon="9.31515412869981"><ele>1065.75</ele><time>2026-04-11T14:41:47.998Z</time></trkpt><trkpt lat="44.80447419653915" lon="9.315291078937252"><ele>1064.5</ele><time>2026-04-11T14:41:48.998Z</time></trkpt><trkpt lat="44.80453398790393" lon="9.315419347052545"><ele>1063.25</ele><time>2026-04-11T14:41:49.998Z</time></trkpt><trkpt lat="44.804591947207825" lon="9.315556939430067"><ele>1062.0</ele><time>2026-04-11T14:41:50.998Z</time></trkpt><trkpt lat="44.80465961625253" lon="9.315700309248735"><ele>1062.0</ele><time>2026-04-11T14:41:51.998Z</time></trkpt><trkpt lat="44.80472093631052" lon="9.31579516283527"><ele>1062.0</ele><time>2026-04-11T14:41:52.998Z</time></trkpt><trkpt lat="44.80479088891669" lon="9.315860832467237"><ele>1062.0</ele><time>2026-04-11T14:41:56.998Z</time></trkpt><trkpt lat="44.804887046548195" lon="9.315942089724366"><ele>1062.0</ele><time>2026-04-11T14:41:58.998Z</time></trkpt><trkpt lat="44.80495505203947" lon="9.31599099853783"><ele>1062.0</ele><time>2026-04-11T14:41:59.998Z</time></trkpt><trkpt lat="44.80512961746177" lon="9.315665228200507"><ele>1063.4</ele><time>2026-04-11T14:42:01.998Z</time></trkpt><trkpt lat="44.805241206489335" lon="9.315639706285245"><ele>1064.8000000000002</ele><time>2026-04-11T14:42:02.998Z</time></trkpt><trkpt lat="44.80530847368435" lon="9.31556123142234"><ele>1066.2</ele><time>2026-04-11T14:42:03.998Z</time></trkpt><trkpt lat="44.805342963007824" lon="9.315473267368818"><ele>1067.6000000000001</ele><time>2026-04-11T14:42:04.998Z</time></trkpt><trkpt lat="44.805389309327595" lon="9.315320606350095"><ele>1069.0</ele><time>2026-04-11T14:42:05.998Z</time></trkpt><trkpt lat="44.805440286218634" lon="9.315153178577104"><ele>1071.0</ele><time>2026-04-11T14:42:06.998Z</time></trkpt><trkpt lat="44.80551101291644" lon="9.315016981822835"><ele>1073.0</ele><time>2026-04-11T14:42:07.998Z</time></trkpt><trkpt lat="44.805594663468455" lon="9.314906564174454"><ele>1075.0</ele><time>2026-04-11T14:42:08.998Z</time></trkpt><trkpt lat="44.80566466207047" lon="9.314817312817128"><ele>1077.0</ele><time>2026-04-11T14:42:09.998Z</time></trkpt><trkpt lat="44.8057533324297" lon="9.314752166007118"><ele>1079.0</ele><time>2026-04-11T14:42:10.998Z</time></trkpt><trkpt lat="44.80585487412826" lon="9.314747498386769"><ele>1079.0</ele><time>2026-04-11T14:42:11.998Z</time></trkpt><trkpt lat="44.80597096981027" lon="9.314763013003986"><ele>1079.0</ele><time>2026-04-11T14:42:12.998Z</time></trkpt><trkpt lat="44.80605791161963" lon="9.314788577287628"><ele>1079.0</ele><time>2026-04-11T14:42:13.998Z</time></trkpt><trkpt lat="44.80612412198211" lon="9.314835040092499"><ele>1079.0</ele><time>2026-04-11T14:42:14.998Z</time></trkpt><trkpt lat="44.8061822508099" lon="9.314938505836349"><ele>1079.0</ele><time>2026-04-11T14:42:16Z</time></trkpt><trkpt lat="44.80622206959123" lon="9.315076023875282"><ele>1080.2</ele><time>2026-04-11T14:42:17Z</time></trkpt><trkpt lat="44.806290209390376" lon="9.315154937219356"><ele>1081.4</ele><time>2026-04-11T14:42:19Z</time></trkpt><trkpt lat="44.80638090863273" lon="9.315187460949469"><ele>1082.6</ele><time>2026-04-11T14:42:20Z</time></trkpt><trkpt lat="44.80648517638819" lon="9.315210308716566"><ele>1083.8</ele><time>2026-04-11T14:42:20.999Z</time></trkpt><trkpt lat="44.806585824158475" lon="9.315233369548201"><ele>1085.0</ele><time>2026-04-11T14:42:22Z</time></trkpt><trkpt lat="44.80668812775779" lon="9.315275407851374"><ele>1085.0</ele><time>2026-04-11T14:42:23Z</time></trkpt><trkpt lat="44.80679217295308" lon="9.315335058645918"><ele>1085.0</ele><time>2026-04-11T14:42:23.999Z</time></trkpt><trkpt lat="44.80690549734361" lon="9.31539975697909"><ele>1085.0</ele><time>2026-04-11T14:42:25Z</time></trkpt><trkpt lat="44.8069852053138" lon="9.315434530820752"><ele>1085.0</ele><time>2026-04-11T14:42:26Z</time></trkpt><trkpt lat="44.807054030268596" lon="9.315463060940429"><ele>1085.0</ele><time>2026-04-11T14:42:27Z</time></trkpt><trkpt lat="44.807185843649556" lon="9.315530447366529"><ele>1085.4</ele><time>2026-04-11T14:42:28Z</time></trkpt><trkpt lat="44.80731243811796" lon="9.31560436579627"><ele>1085.8</ele><time>2026-04-11T14:42:29Z</time></trkpt><trkpt lat="44.80739520727423" lon="9.315647730466287"><ele>1086.2</ele><time>2026-04-11T14:42:30Z</time></trkpt><trkpt lat="44.80748482096189" lon="9.315684903339859"><ele>1086.6</ele><time>2026-04-11T14:42:31Z</time></trkpt><trkpt lat="44.80755849409007" lon="9.315713651592908"><ele>1087.0</ele><time>2026-04-11T14:42:31.999Z</time></trkpt><trkpt lat="44.80761560488926" lon="9.315788906160162"><ele>1087.0</ele><time>2026-04-11T14:42:32.999Z</time></trkpt><trkpt lat="44.80764646253964" lon="9.315909530273638"><ele>1087.0</ele><time>2026-04-11T14:42:33.999Z</time></trkpt><trkpt lat="44.80767237011953" lon="9.316009201463896"><ele>1087.0</ele><time>2026-04-11T14:42:34.999Z</time></trkpt><trkpt lat="44.80774491502891" lon="9.316071947215127"><ele>1087.0</ele><time>2026-04-11T14:42:35.999Z</time></trkpt><trkpt lat="44.80780808839805" lon="9.316070944240828"><ele>1087.0</ele><time>2026-04-11T14:42:36.999Z</time></trkpt><trkpt lat="44.80788116460548" lon="9.31605301096607"><ele>1087.0</ele><time>2026-04-11T14:42:37.999Z</time></trkpt><trkpt lat="44.808032541517036" lon="9.315983148249568"><ele>1089.6</ele><time>2026-04-11T14:42:39.999Z</time></trkpt><trkpt lat="44.808148764165914" lon="9.315983743749813"><ele>1092.2</ele><time>2026-04-11T14:42:40.999Z</time></trkpt><trkpt lat="44.808267794679814" lon="9.315981828853793"><ele>1094.8</ele><time>2026-04-11T14:42:41.999Z</time></trkpt><trkpt lat="44.80834857505034" lon="9.316012521313882"><ele>1097.4</ele><time>2026-04-11T14:42:42.999Z</time></trkpt><trkpt lat="44.80844369815898" lon="9.316032554244028"><ele>1100.0</ele><time>2026-04-11T14:42:43.999Z</time></trkpt><trkpt lat="44.8085400818193" lon="9.316057763741368"><ele>1098.25</ele><time>2026-04-11T14:42:44.999Z</time></trkpt><trkpt lat="44.80862425595268" lon="9.316124112504141"><ele>1096.5</ele><time>2026-04-11T14:42:45.999Z</time></trkpt><trkpt lat="44.8087142084732" lon="9.316214577585258"><ele>1094.75</ele><time>2026-04-11T14:42:46.999Z</time></trkpt><trkpt lat="44.808819500599824" lon="9.316331355546424"><ele>1093.0</ele><time>2026-04-11T14:42:47.999Z</time></trkpt><trkpt lat="44.80896126519123" lon="9.316454570348407"><ele>1093.0</ele><time>2026-04-11T14:42:48.999Z</time></trkpt><trkpt lat="44.809112423373335" lon="9.316568802231112"><ele>1093.0</ele><time>2026-04-11T14:42:49.999Z</time></trkpt><trkpt lat="44.809218969328214" lon="9.316640935641141"><ele>1093.0</ele><time>2026-04-11T14:42:50.999Z</time></trkpt><trkpt lat="44.80928246424738" lon="9.316662076091069"><ele>1093.0</ele><time>2026-04-11T14:42:51.999Z</time></trkpt><trkpt lat="44.80934043342558" lon="9.316617406690074"><ele>1093.0</ele><time>2026-04-11T14:42:52.999Z</time></trkpt><trkpt lat="44.809429941422835" lon="9.316555796875765"><ele>1093.0</ele><time>2026-04-11T14:42:53.999Z</time></trkpt><trkpt lat="44.80957316357672" lon="9.3164900682552"><ele>1093.0</ele><time>2026-04-11T14:42:54.999Z</time></trkpt><trkpt lat="44.80969928298605" lon="9.316469649839252"><ele>1093.0</ele><time>2026-04-11T14:42:55.999Z</time></trkpt><trkpt lat="44.80979049030861" lon="9.316565486435184"><ele>1093.0</ele><time>2026-04-11T14:42:56.999Z</time></trkpt><trkpt lat="44.80987506269701" lon="9.316569410406123"><ele>1093.0</ele><time>2026-04-11T14:42:57.999Z</time></trkpt><trkpt lat="44.809984833143076" lon="9.316448284757842"><ele>1093.0</ele><time>2026-04-11T14:42:59.999Z</time></trkpt><trkpt lat="44.810049024441696" lon="9.316341611878125"><ele>1093.0</ele><time>2026-04-11T14:43:00.999Z</time></trkpt><trkpt lat="44.81008125583501" lon="9.316250945053891"><ele>1093.0</ele><time>2026-04-11T14:43:01.999Z</time></trkpt><trkpt lat="44.81012929021678" lon="9.316174398392407"><ele>1093.0</ele><time>2026-04-11T14:43:02.999Z</time></trkpt><trkpt lat="44.81022016846513" lon="9.316100034237254"><ele>1099.5</ele><time>2026-04-11T14:43:03.999Z</time></trkpt><trkpt lat="44.810293049386694" lon="9.316089366035923"><ele>1106.0</ele><time>2026-04-11T14:43:04.999Z</time></trkpt><trkpt lat="44.81042830923072" lon="9.316167512350814"><ele>1112.5</ele><time>2026-04-11T14:43:06.999Z</time></trkpt><trkpt lat="44.81050846286668" lon="9.316270812914034"><ele>1119.0</ele><time>2026-04-11T14:43:07.999Z</time></trkpt><trkpt lat="44.81063635552514" lon="9.316390616999437"><ele>1116.25</ele><time>2026-04-11T14:43:08.999Z</time></trkpt><trkpt lat="44.81073011684659" lon="9.316504249448675"><ele>1113.5</ele><time>2026-04-11T14:43:09.999Z</time></trkpt><trkpt lat="44.810854559800795" lon="9.316640601840822"><ele>1110.75</ele><time>2026-04-11T14:43:11.999Z</time></trkpt><trkpt lat="44.81094714844081" lon="9.31671708174158"><ele>1108.0</ele><time>2026-04-11T14:43:12.999Z</time></trkpt><trkpt lat="44.81106594792977" lon="9.316758131143999"><ele>1108.0</ele><time>2026-04-11T14:43:13.999Z</time></trkpt><trkpt lat="44.81114366644002" lon="9.316751525635457"><ele>1108.0</ele><time>2026-04-11T14:43:14.999Z</time></trkpt><trkpt lat="44.81122435153535" lon="9.316724832348037"><ele>1108.0</ele><time>2026-04-11T14:43:15.999Z</time></trkpt><trkpt lat="44.811305751360706" lon="9.316696047552847"><ele>1108.0</ele><time>2026-04-11T14:43:16.999Z</time></trkpt><trkpt lat="44.8114124612758" lon="9.316641497563712"><ele>1108.0</ele><time>2026-04-11T14:43:17.999Z</time></trkpt><trkpt lat="44.81151275150043" lon="9.316638178979245"><ele>1108.0</ele><time>2026-04-11T14:43:18.999Z</time></trkpt><trkpt lat="44.81171726612733" lon="9.316692795959442"><ele>1108.0</ele><time>2026-04-11T14:43:19.999Z</time></trkpt><trkpt lat="44.81183278169868" lon="9.316771713539607"><ele>1108.0</ele><time>2026-04-11T14:43:20.999Z</time></trkpt><trkpt lat="44.8119313065106" lon="9.316805416679824"><ele>1108.0</ele><time>2026-04-11T14:43:21.999Z</time></trkpt><trkpt lat="44.81200638502943" lon="9.316861687747174"><ele>1108.3333333333333</ele><time>2026-04-11T14:43:22.999Z</time></trkpt><trkpt lat="44.812113767783124" lon="9.316990579018901"><ele>1108.6666666666665</ele><time>2026-04-11T14:43:24.999Z</time></trkpt><trkpt lat="44.81217571218996" lon="9.317074568970328"><ele>1109.0</ele><time>2026-04-11T14:43:25.999Z</time></trkpt><trkpt lat="44.81223084509854" lon="9.31712158566916"><ele>1109.3333333333333</ele><time>2026-04-11T14:43:26.999Z</time></trkpt><trkpt lat="44.812289119798685" lon="9.317170260718395"><ele>1109.6666666666667</ele><time>2026-04-11T14:43:27.999Z</time></trkpt><trkpt lat="44.812350263743575" lon="9.317262026980488"><ele>1110.0</ele><time>2026-04-11T14:43:29.999Z</time></trkpt><trkpt lat="44.81240453770013" lon="9.317312369424823"><ele>1110.0</ele><time>2026-04-11T14:43:30.999Z</time></trkpt><trkpt lat="44.81248981027665" lon="9.317404587492595"><ele>1110.0</ele><time>2026-04-11T14:43:32.999Z</time></trkpt><trkpt lat="44.81255277174966" lon="9.31744893466936"><ele>1110.0</ele><time>2026-04-11T14:43:33.999Z</time></trkpt><trkpt lat="44.8126177299008" lon="9.317496390401057"><ele>1110.0</ele><time>2026-04-11T14:43:34.999Z</time></trkpt><trkpt lat="44.812682346840006" lon="9.317530372286162"><ele>1110.0</ele><time>2026-04-11T14:43:35.999Z</time></trkpt><trkpt lat="44.81275138296045" lon="9.317567238330383"><ele>1110.0</ele><time>2026-04-11T14:43:36.999Z</time></trkpt><trkpt lat="44.81282080266279" lon="9.317639936755413"><ele>1111.0</ele><time>2026-04-11T14:43:37.999Z</time></trkpt><trkpt lat="44.81287233682071" lon="9.31774210447921"><ele>1112.0</ele><time>2026-04-11T14:43:38.999Z</time></trkpt><trkpt lat="44.812908965768386" lon="9.317827580544794"><ele>1113.0</ele><time>2026-04-11T14:43:39.999Z</time></trkpt><trkpt lat="44.81296043106366" lon="9.317932381918066"><ele>1114.0</ele><time>2026-04-11T14:43:40.998Z</time></trkpt><trkpt lat="44.81299218240161" lon="9.318016066567088"><ele>1115.0</ele><time>2026-04-11T14:43:41.998Z</time></trkpt><trkpt lat="44.81309288442919" lon="9.318094967803459"><ele>1116.0</ele><time>2026-04-11T14:43:43.998Z</time></trkpt><trkpt lat="44.81315897356544" lon="9.318193151666865"><ele>1116.0</ele><time>2026-04-11T14:43:44.998Z</time></trkpt><trkpt lat="44.81322320368273" lon="9.31831666379482"><ele>1116.0</ele><time>2026-04-11T14:43:45.998Z</time></trkpt><trkpt lat="44.813284031704995" lon="9.318396509112418"><ele>1116.0</ele><time>2026-04-11T14:43:46.998Z</time></trkpt><trkpt lat="44.81340235642126" lon="9.318452797693462"><ele>1116.0</ele><time>2026-04-11T14:43:48.998Z</time></trkpt><trkpt lat="44.813543091795076" lon="9.318540552935252"><ele>1117.25</ele><time>2026-04-11T14:43:49.998Z</time></trkpt><trkpt lat="44.81366792095817" lon="9.318646113265903"><ele>1118.5</ele><time>2026-04-11T14:43:50.998Z</time></trkpt><trkpt lat="44.813785099172854" lon="9.318699078814968"><ele>1119.75</ele><time>2026-04-11T14:43:51.998Z</time></trkpt><trkpt lat="44.813861843761735" lon="9.318725194888772"><ele>1121.0</ele><time>2026-04-11T14:43:52.998Z</time></trkpt><trkpt lat="44.81400890545342" lon="9.318784504766588"><ele>1121.0</ele><time>2026-04-11T14:43:54.998Z</time></trkpt><trkpt lat="44.8141062354804" lon="9.31889167019776"><ele>1121.0</ele><time>2026-04-11T14:43:55.998Z</time></trkpt><trkpt lat="44.81423776142355" lon="9.318880687443691"><ele>1121.0</ele><time>2026-04-11T14:43:57.998Z</time></trkpt><trkpt lat="44.814332681664524" lon="9.31887780910198"><ele>1121.0</ele><time>2026-04-11T14:43:58.998Z</time></trkpt><trkpt lat="44.81441323104539" lon="9.31886656088073"><ele>1121.0</ele><time>2026-04-11T14:43:59.998Z</time></trkpt><trkpt lat="44.814461522849356" lon="9.318804750944413"><ele>1119.5</ele><time>2026-04-11T14:44:02.998Z</time></trkpt><trkpt lat="44.81449109798741" lon="9.31870065729276"><ele>1118.0</ele><time>2026-04-11T14:44:04.998Z</time></trkpt><trkpt lat="44.81457168688847" lon="9.318736845449239"><ele>1116.5</ele><time>2026-04-11T14:44:08.998Z</time></trkpt><trkpt lat="44.814642759689036" lon="9.318735215462453"><ele>1115.0</ele><time>2026-04-11T14:44:14.998Z</time></trkpt><trkpt lat="44.81469035209704" lon="9.318585244217836"><ele>1113.5</ele><time>2026-04-11T14:44:25Z</time></trkpt><trkpt lat="44.814740357250365" lon="9.318518785291072"><ele>1112.0</ele><time>2026-04-11T14:44:27Z</time></trkpt><trkpt lat="44.81478826464838" lon="9.31845462636315"><ele>1112.0</ele><time>2026-04-11T14:44:29Z</time></trkpt><trkpt lat="44.81484652544736" lon="9.318313083405918"><ele>1112.0</ele><time>2026-04-11T14:44:31Z</time></trkpt><trkpt lat="44.8148609706674" lon="9.318189363082766"><ele>1112.0</ele><time>2026-04-11T14:44:32Z</time></trkpt><trkpt lat="44.814881455503226" lon="9.318066340170658"><ele>1112.0</ele><time>2026-04-11T14:44:33Z</time></trkpt><trkpt lat="44.81490554523228" lon="9.317959145619898"><ele>1112.0</ele><time>2026-04-11T14:44:34Z</time></trkpt><trkpt lat="44.81492236640488" lon="9.317820383820782"><ele>1111.1666666666667</ele><time>2026-04-11T14:44:36Z</time></trkpt><trkpt lat="44.814917249484246" lon="9.317713185941765"><ele>1110.3333333333335</ele><time>2026-04-11T14:44:37Z</time></trkpt><trkpt lat="44.81490416583882" lon="9.317623958174883"><ele>1109.5</ele><time>2026-04-11T14:44:38Z</time></trkpt><trkpt lat="44.81487179375317" lon="9.317515350201717"><ele>1108.6666666666667</ele><time>2026-04-11T14:44:39Z</time></trkpt><trkpt lat="44.814835519445424" lon="9.31739295318349"><ele>1107.8333333333333</ele><time>2026-04-11T14:44:40Z</time></trkpt><trkpt lat="44.8147810315728" lon="9.317291326935484"><ele>1107.0</ele><time>2026-04-11T14:44:41Z</time></trkpt><trkpt lat="44.814748710891635" lon="9.317204440022813"><ele>1106.0</ele><time>2026-04-11T14:44:43Z</time></trkpt><trkpt lat="44.814763761089566" lon="9.317102963015524"><ele>1105.0</ele><time>2026-04-11T14:44:45Z</time></trkpt><trkpt lat="44.814724764623364" lon="9.31695537912776"><ele>1104.0</ele><time>2026-04-11T14:44:46.999Z</time></trkpt><trkpt lat="44.81469912887361" lon="9.316859132245737"><ele>1103.0</ele><time>2026-04-11T14:44:52.999Z</time></trkpt><trkpt lat="44.814699985647714" lon="9.316770031242621"><ele>1102.0</ele><time>2026-04-11T14:44:55.999Z</time></trkpt><trkpt lat="44.81469642498143" lon="9.316620152017105"><ele>1101.0</ele><time>2026-04-11T14:44:58.999Z</time></trkpt><trkpt lat="44.81470164086885" lon="9.316518641708763"><ele>1101.0</ele><time>2026-04-11T14:44:59.999Z</time></trkpt><trkpt lat="44.814714701576655" lon="9.316405799186285"><ele>1101.0</ele><time>2026-04-11T14:45:00.999Z</time></trkpt><trkpt lat="44.81471244567966" lon="9.31631316108056"><ele>1101.0</ele><time>2026-04-11T14:45:01.999Z</time></trkpt><trkpt lat="44.81469031198927" lon="9.316115013784975"><ele>1101.0</ele><time>2026-04-11T14:45:03.999Z</time></trkpt><trkpt lat="44.81468208490866" lon="9.315973333915082"><ele>1101.0</ele><time>2026-04-11T14:45:05.999Z</time></trkpt><trkpt lat="44.81467896721082" lon="9.31580163743442"><ele>1100.8</ele><time>2026-04-11T14:45:07.999Z</time></trkpt><trkpt lat="44.814707282564434" lon="9.315627459716266"><ele>1100.6</ele><time>2026-04-11T14:45:08.999Z</time></trkpt><trkpt lat="44.814704627090876" lon="9.315512971281128"><ele>1100.4</ele><time>2026-04-11T14:45:09.999Z</time></trkpt><trkpt lat="44.81468898234965" lon="9.31539286900062"><ele>1100.2</ele><time>2026-04-11T14:45:10.999Z</time></trkpt><trkpt lat="44.81466561228792" lon="9.315255799018441"><ele>1100.0</ele><time>2026-04-11T14:45:11.999Z</time></trkpt><trkpt lat="44.81461989753719" lon="9.315153152203031"><ele>1099.0</ele><time>2026-04-11T14:45:12.999Z</time></trkpt><trkpt lat="44.81457296198117" lon="9.315060839416358"><ele>1098.0</ele><time>2026-04-11T14:45:13.999Z</time></trkpt><trkpt lat="44.814523266154545" lon="9.31499385133626"><ele>1097.0</ele><time>2026-04-11T14:45:14.999Z</time></trkpt><trkpt lat="44.81450114778567" lon="9.314889793230675"><ele>1096.0</ele><time>2026-04-11T14:45:15.999Z</time></trkpt><trkpt lat="44.814502116287095" lon="9.314770949617612"><ele>1095.0</ele><time>2026-04-11T14:45:16.999Z</time></trkpt><trkpt lat="44.81447741300268" lon="9.314630667215017"><ele>1094.0</ele><time>2026-04-11T14:45:18.999Z</time></trkpt><trkpt lat="44.81444703822327" lon="9.314534966099377"><ele>1092.1666666666667</ele><time>2026-04-11T14:45:20.999Z</time></trkpt><trkpt lat="44.81443241482504" lon="9.31443064915587"><ele>1090.3333333333335</ele><time>2026-04-11T14:45:23.999Z</time></trkpt><trkpt lat="44.814418542833835" lon="9.314303742404752"><ele>1088.5</ele><time>2026-04-11T14:45:28.999Z</time></trkpt><trkpt lat="44.814421746900244" lon="9.314148613717277"><ele>1086.6666666666667</ele><time>2026-04-11T14:45:30.999Z</time></trkpt><trkpt lat="44.814409985893676" lon="9.314038472096755"><ele>1084.8333333333333</ele><time>2026-04-11T14:45:31.999Z</time></trkpt><trkpt lat="44.814383431525265" lon="9.313941048420158"><ele>1083.0</ele><time>2026-04-11T14:45:32.999Z</time></trkpt><trkpt lat="44.81434932955542" lon="9.313858910655284"><ele>1089.3333333333333</ele><time>2026-04-11T14:45:33.999Z</time></trkpt><trkpt lat="44.81428816971216" lon="9.31380540428859"><ele>1095.6666666666667</ele><time>2026-04-11T14:45:35.999Z</time></trkpt><trkpt lat="44.81424620634445" lon="9.31371422825612"><ele>1102.0</ele><time>2026-04-11T14:45:37.999Z</time></trkpt><trkpt lat="44.81422879000302" lon="9.313580483372169"><ele>1108.3333333333335</ele><time>2026-04-11T14:45:39.999Z</time></trkpt><trkpt lat="44.81426231240797" lon="9.31343292513757"><ele>1114.6666666666667</ele><time>2026-04-11T14:45:41.999Z</time></trkpt><trkpt lat="44.814280777698215" lon="9.313340421520726"><ele>1121.0</ele><time>2026-04-11T14:45:42.999Z</time></trkpt><trkpt lat="44.814299063497806" lon="9.313222979029868"><ele>1114.8</ele><time>2026-04-11T14:45:43.999Z</time></trkpt><trkpt lat="44.8143568298038" lon="9.313093799294636"><ele>1108.6</ele><time>2026-04-11T14:45:44.999Z</time></trkpt><trkpt lat="44.814419982049884" lon="9.312987168607021"><ele>1102.4</ele><time>2026-04-11T14:45:45.999Z</time></trkpt><trkpt lat="44.81445428371024" lon="9.312843399059352"><ele>1096.2</ele><time>2026-04-11T14:45:47.998Z</time></trkpt><trkpt lat="44.814457132629904" lon="9.312695898820452"><ele>1090.0</ele><time>2026-04-11T14:45:48.998Z</time></trkpt><trkpt lat="44.81446601458401" lon="9.312526948044143"><ele>1090.0</ele><time>2026-04-11T14:45:49.998Z</time></trkpt><trkpt lat="44.81448020194151" lon="9.31240116419689"><ele>1090.0</ele><time>2026-04-11T14:45:50.998Z</time></trkpt><trkpt lat="44.81450862273681" lon="9.312287135957781"><ele>1090.0</ele><time>2026-04-11T14:45:51.998Z</time></trkpt><trkpt lat="44.81452024875759" lon="9.312177268544572"><ele>1090.0</ele><time>2026-04-11T14:45:52.998Z</time></trkpt><trkpt lat="44.814508180372655" lon="9.312073821242155"><ele>1090.0</ele><time>2026-04-11T14:45:53.998Z</time></trkpt><trkpt lat="44.81446045697151" lon="9.311947496190934"><ele>1090.0</ele><time>2026-04-11T14:45:55.998Z</time></trkpt><trkpt lat="44.81443168830358" lon="9.311778111491487"><ele>1090.6</ele><time>2026-04-11T14:45:57.998Z</time></trkpt><trkpt lat="44.8143809715447" lon="9.311621561179077"><ele>1091.2</ele><time>2026-04-11T14:45:59.998Z</time></trkpt><trkpt lat="44.814324261685115" lon="9.311529946813387"><ele>1091.8</ele><time>2026-04-11T14:46:00.998Z</time></trkpt><trkpt lat="44.814259691015344" lon="9.31143178477207"><ele>1092.4</ele><time>2026-04-11T14:46:01.998Z</time></trkpt><trkpt lat="44.814203657767294" lon="9.31132218717817"><ele>1093.0</ele><time>2026-04-11T14:46:02.998Z</time></trkpt><trkpt lat="44.81415775891589" lon="9.311232068665193"><ele>1100.2</ele><time>2026-04-11T14:46:03.998Z</time></trkpt><trkpt lat="44.814059201998" lon="9.311158566598866"><ele>1107.4</ele><time>2026-04-11T14:46:05.998Z</time></trkpt><trkpt lat="44.81400620655395" lon="9.311095693776137"><ele>1114.6000000000001</ele><time>2026-04-11T14:46:06.998Z</time></trkpt><trkpt lat="44.814048922477724" lon="9.310970378538402"><ele>1121.8</ele><time>2026-04-11T14:46:09.998Z</time></trkpt><trkpt lat="44.81409640426845" lon="9.310874535313681"><ele>1129.0</ele><time>2026-04-11T14:46:11.998Z</time></trkpt><trkpt lat="44.81409191365325" lon="9.310684564630137"><ele>1129.0</ele><time>2026-04-11T14:46:13.998Z</time></trkpt><trkpt lat="44.81413929272032" lon="9.310618604264311"><ele>1129.0</ele><time>2026-04-11T14:46:16.998Z</time></trkpt><trkpt lat="44.814203947365336" lon="9.310588637703436"><ele>1129.0</ele><time>2026-04-11T14:46:17.998Z</time></trkpt><trkpt lat="44.81425095099452" lon="9.310454409588779"><ele>1129.0</ele><time>2026-04-11T14:46:19.998Z</time></trkpt><trkpt lat="44.81428430070492" lon="9.310345461037278"><ele>1129.0</ele><time>2026-04-11T14:46:21.998Z</time></trkpt><trkpt lat="44.81436986300203" lon="9.310355763422779"><ele>1129.0</ele><time>2026-04-11T14:46:23.998Z</time></trkpt><trkpt lat="44.81447552896852" lon="9.310266546902367"><ele>1127.6000000000001</ele><time>2026-04-11T14:46:25.998Z</time></trkpt><trkpt lat="44.81453562955566" lon="9.310178597314243"><ele>1126.2</ele><time>2026-04-11T14:46:27Z</time></trkpt><trkpt lat="44.81460017715734" lon="9.310123924637198"><ele>1124.8000000000002</ele><time>2026-04-11T14:46:28Z</time></trkpt><trkpt lat="44.81472511486599" lon="9.310021614621691"><ele>1123.4</ele><time>2026-04-11T14:46:30Z</time></trkpt><trkpt lat="44.81480148245862" lon="9.309892921079124"><ele>1122.0</ele><time>2026-04-11T14:46:31Z</time></trkpt><trkpt lat="44.81487252132421" lon="9.309748637760292"><ele>1125.0</ele><time>2026-04-11T14:46:32Z</time></trkpt><trkpt lat="44.81492759791994" lon="9.309610642612713"><ele>1128.0</ele><time>2026-04-11T14:46:33Z</time></trkpt><trkpt lat="44.81494357240278" lon="9.309497311374505"><ele>1131.0</ele><time>2026-04-11T14:46:34Z</time></trkpt><trkpt lat="44.814955575235984" lon="9.309358420391897"><ele>1134.0</ele><time>2026-04-11T14:46:35Z</time></trkpt><trkpt lat="44.814988295370775" lon="9.30919158170422"><ele>1137.0</ele><time>2026-04-11T14:46:36Z</time></trkpt><trkpt lat="44.815033037461745" lon="9.309090970157106"><ele>1137.0</ele><time>2026-04-11T14:46:37Z</time></trkpt><trkpt lat="44.815090220292625" lon="9.309017529556606"><ele>1137.0</ele><time>2026-04-11T14:46:38Z</time></trkpt><trkpt lat="44.8151450399039" lon="9.308939226452232"><ele>1137.0</ele><time>2026-04-11T14:46:39Z</time></trkpt><trkpt lat="44.81523051804712" lon="9.308922986199478"><ele>1137.0</ele><time>2026-04-11T14:46:40Z</time></trkpt><trkpt lat="44.815342826520606" lon="9.308873997371714"><ele>1137.0</ele><time>2026-04-11T14:46:42Z</time></trkpt><trkpt lat="44.81540713349722" lon="9.308828587219761"><ele>1137.0</ele><time>2026-04-11T14:46:43Z</time></trkpt><trkpt lat="44.815483498241655" lon="9.30874220526418"><ele>1135.6</ele><time>2026-04-11T14:46:44Z</time></trkpt><trkpt lat="44.815559634543646" lon="9.308656064494414"><ele>1134.2</ele><time>2026-04-11T14:46:45Z</time></trkpt><trkpt lat="44.81564188729432" lon="9.308570538262865"><ele>1132.8</ele><time>2026-04-11T14:46:46Z</time></trkpt><trkpt lat="44.81573331986015" lon="9.308446363753164"><ele>1131.4</ele><time>2026-04-11T14:46:47Z</time></trkpt><trkpt lat="44.815773508719325" lon="9.3083158687782"><ele>1130.0</ele><time>2026-04-11T14:46:48Z</time></trkpt><trkpt lat="44.81579007500444" lon="9.308223568200253"><ele>1130.0</ele><time>2026-04-11T14:46:50Z</time></trkpt><trkpt lat="44.81580860957573" lon="9.30810279582775"><ele>1130.0</ele><time>2026-04-11T14:46:51.999Z</time></trkpt><trkpt lat="44.81582378494255" lon="9.30792374299191"><ele>1130.0</ele><time>2026-04-11T14:46:53.999Z</time></trkpt><trkpt lat="44.81579911161903" lon="9.30778259296748"><ele>1130.0</ele><time>2026-04-11T14:46:54.999Z</time></trkpt><trkpt lat="44.815749579490955" lon="9.307657016941942"><ele>1130.0</ele><time>2026-04-11T14:46:55.999Z</time></trkpt><trkpt lat="44.815677678035286" lon="9.307505592538623"><ele>1129.8</ele><time>2026-04-11T14:46:56.999Z</time></trkpt><trkpt lat="44.815619695644514" lon="9.307385725269492"><ele>1129.6</ele><time>2026-04-11T14:46:57.999Z</time></trkpt><trkpt lat="44.815560428753244" lon="9.30728076958264"><ele>1129.4</ele><time>2026-04-11T14:46:58.999Z</time></trkpt><trkpt lat="44.81549375118393" lon="9.307157663298463"><ele>1129.2</ele><time>2026-04-11T14:46:59.999Z</time></trkpt><trkpt lat="44.815432763016005" lon="9.307019796098357"><ele>1129.0</ele><time>2026-04-11T14:47:00.999Z</time></trkpt><trkpt lat="44.815368295683896" lon="9.306853419516825"><ele>1129.0</ele><time>2026-04-11T14:47:01.999Z</time></trkpt><trkpt lat="44.81530619343677" lon="9.30668558958741"><ele>1129.0</ele><time>2026-04-11T14:47:02.999Z</time></trkpt><trkpt lat="44.81525278048849" lon="9.306562086221305"><ele>1129.0</ele><time>2026-04-11T14:47:03.999Z</time></trkpt><trkpt lat="44.81518893940123" lon="9.306426353041907"><ele>1129.0</ele><time>2026-04-11T14:47:04.999Z</time></trkpt><trkpt lat="44.815132136134146" lon="9.30632318314705"><ele>1129.0</ele><time>2026-04-11T14:47:05.999Z</time></trkpt><trkpt lat="44.81508675185987" lon="9.30626084947181"><ele>1134.0</ele><time>2026-04-11T14:47:06.999Z</time></trkpt><trkpt lat="44.81503787333425" lon="9.306168717868783"><ele>1139.0</ele><time>2026-04-11T14:47:07.999Z</time></trkpt><trkpt lat="44.81495135734784" lon="9.306134076526192"><ele>1144.0</ele><time>2026-04-11T14:47:09.999Z</time></trkpt><trkpt lat="44.81487737486329" lon="9.306131885672723"><ele>1149.0</ele><time>2026-04-11T14:47:12.999Z</time></trkpt><trkpt lat="44.81477918505669" lon="9.306058608068799"><ele>1154.0</ele><time>2026-04-11T14:47:14.999Z</time></trkpt><trkpt lat="44.81467517917208" lon="9.30600901035131"><ele>1154.0</ele><time>2026-04-11T14:47:15.999Z</time></trkpt><trkpt lat="44.814593352874155" lon="9.305973790919527"><ele>1154.0</ele><time>2026-04-11T14:47:16.999Z</time></trkpt><trkpt lat="44.81451571420853" lon="9.30591292044845"><ele>1154.0</ele><time>2026-04-11T14:47:17.999Z</time></trkpt><trkpt lat="44.814458736064694" lon="9.305832988733359"><ele>1154.0</ele><time>2026-04-11T14:47:18.999Z</time></trkpt><trkpt lat="44.814420344296224" lon="9.305727321922564"><ele>1154.0</ele><time>2026-04-11T14:47:19.999Z</time></trkpt><trkpt lat="44.814411277807366" lon="9.3056069523079"><ele>1154.0</ele><time>2026-04-11T14:47:20.999Z</time></trkpt><trkpt lat="44.81443855372037" lon="9.30546018475703"><ele>1153.5</ele><time>2026-04-11T14:47:21.999Z</time></trkpt><trkpt lat="44.81445127326222" lon="9.305341155099219"><ele>1153.0</ele><time>2026-04-11T14:47:22.999Z</time></trkpt><trkpt lat="44.814449861627274" lon="9.30524393427665"><ele>1152.5</ele><time>2026-04-11T14:47:23.999Z</time></trkpt><trkpt lat="44.81445730638366" lon="9.30511847586981"><ele>1152.0</ele><time>2026-04-11T14:47:24.999Z</time></trkpt><trkpt lat="44.81448101799491" lon="9.30498422790931"><ele>1151.5</ele><time>2026-04-11T14:47:25.999Z</time></trkpt><trkpt lat="44.81453109174255" lon="9.304856985419137"><ele>1151.0</ele><time>2026-04-11T14:47:26.999Z</time></trkpt><trkpt lat="44.81454987246692" lon="9.304750559508934"><ele>1150.6666666666667</ele><time>2026-04-11T14:47:27.999Z</time></trkpt><trkpt lat="44.81457591284424" lon="9.3046256430331"><ele>1150.3333333333335</ele><time>2026-04-11T14:47:29.999Z</time></trkpt><trkpt lat="44.81462427557602" lon="9.304532718315851"><ele>1150.0</ele><time>2026-04-11T14:47:31.999Z</time></trkpt><trkpt lat="44.81466416934795" lon="9.30445022364458"><ele>1149.6666666666667</ele><time>2026-04-11T14:47:34.999Z</time></trkpt><trkpt lat="44.81470032771793" lon="9.304354801481296"><ele>1149.3333333333333</ele><time>2026-04-11T14:47:57.998Z</time></trkpt><trkpt lat="44.81472890317167" lon="9.304261972033053"><ele>1149.0</ele><time>2026-04-11T14:48:01.998Z</time></trkpt><trkpt lat="44.81475644577436" lon="9.304171464927832"><ele>1149.0</ele><time>2026-04-11T14:48:03.998Z</time></trkpt><trkpt lat="44.814780651361716" lon="9.304060668055957"><ele>1149.0</ele><time>2026-04-11T14:48:05.998Z</time></trkpt><trkpt lat="44.814817756129024" lon="9.303957454548998"><ele>1149.0</ele><time>2026-04-11T14:48:06.998Z</time></trkpt><trkpt lat="44.81483140421204" lon="9.30386201455224"><ele>1149.0</ele><time>2026-04-11T14:48:07.998Z</time></trkpt><trkpt lat="44.814834319710585" lon="9.30373114107949"><ele>1149.0</ele><time>2026-04-11T14:48:09.998Z</time></trkpt><trkpt lat="44.814837570919245" lon="9.30363787915768"><ele>1149.0</ele><time>2026-04-11T14:48:11.998Z</time></trkpt><trkpt lat="44.81488453090784" lon="9.303519463260075"><ele>1148.6666666666667</ele><time>2026-04-11T14:48:20.998Z</time></trkpt><trkpt lat="44.81492236105308" lon="9.303432868808354"><ele>1148.3333333333333</ele><time>2026-04-11T14:48:23.998Z</time></trkpt><trkpt lat="44.81488016603311" lon="9.303366585967643"><ele>1148.0</ele><time>2026-04-11T14:48:33Z</time></trkpt><trkpt lat="44.814803854489945" lon="9.303301192395686"><ele>1147.6666666666665</ele><time>2026-04-11T14:48:44Z</time></trkpt><trkpt lat="44.81474462978313" lon="9.303169880126774"><ele>1147.3333333333333</ele><time>2026-04-11T14:48:46Z</time></trkpt><trkpt lat="44.814720755392806" lon="9.303079104085295"><ele>1147.0</ele><time>2026-04-11T14:48:48Z</time></trkpt><trkpt lat="44.81470294332243" lon="9.30289571057487"><ele>1147.0</ele><time>2026-04-11T14:48:50Z</time></trkpt><trkpt lat="44.81470088532784" lon="9.302763563219864"><ele>1147.0</ele><time>2026-04-11T14:48:51Z</time></trkpt><trkpt lat="44.814737402984655" lon="9.302604360114668"><ele>1147.0</ele><time>2026-04-11T14:48:53Z</time></trkpt><trkpt lat="44.814811384379816" lon="9.302471071517727"><ele>1147.0</ele><time>2026-04-11T14:48:54.999Z</time></trkpt><trkpt lat="44.81488542949484" lon="9.302439917684614"><ele>1147.0</ele><time>2026-04-11T14:48:55.999Z</time></trkpt><trkpt lat="44.81497795282712" lon="9.302397124616153"><ele>1147.0</ele><time>2026-04-11T14:48:56.999Z</time></trkpt><trkpt lat="44.81503041464754" lon="9.302339975819285"><ele>1147.0</ele><time>2026-04-11T14:48:57.999Z</time></trkpt><trkpt lat="44.815059103466425" lon="9.302247753798433"><ele>1147.0</ele><time>2026-04-11T14:48:58.999Z</time></trkpt><trkpt lat="44.815110557582344" lon="9.302141504990349"><ele>1147.0</ele><time>2026-04-11T14:49:00.999Z</time></trkpt><trkpt lat="44.81520417325888" lon="9.302025036527114"><ele>1147.0</ele><time>2026-04-11T14:49:03.999Z</time></trkpt><trkpt lat="44.81526143325309" lon="9.301945515355975"><ele>1147.0</ele><time>2026-04-11T14:49:04.999Z</time></trkpt><trkpt lat="44.815308780314574" lon="9.301867220822501"><ele>1145.1666666666665</ele><time>2026-04-11T14:49:05.999Z</time></trkpt><trkpt lat="44.81532511058291" lon="9.301710061405268"><ele>1143.3333333333333</ele><time>2026-04-11T14:49:07.999Z</time></trkpt><trkpt lat="44.81535690741856" lon="9.30159413213787"><ele>1141.5</ele><time>2026-04-11T14:49:08.999Z</time></trkpt><trkpt lat="44.8153795852247" lon="9.301496309425126"><ele>1139.6666666666667</ele><time>2026-04-11T14:49:09.999Z</time></trkpt><trkpt lat="44.81537661210066" lon="9.301366299820081"><ele>1137.8333333333335</ele><time>2026-04-11T14:49:11.999Z</time></trkpt><trkpt lat="44.81537373461472" lon="9.30124954904862"><ele>1136.0</ele><time>2026-04-11T14:49:13.999Z</time></trkpt><trkpt lat="44.81537280173351" lon="9.301150441369492"><ele>1136.0</ele><time>2026-04-11T14:49:15Z</time></trkpt><trkpt lat="44.8153786851922" lon="9.3009484024688"><ele>1136.0</ele><time>2026-04-11T14:49:17Z</time></trkpt><trkpt lat="44.81536952174258" lon="9.3008423998816"><ele>1136.0</ele><time>2026-04-11T14:49:18Z</time></trkpt><trkpt lat="44.81535159416739" lon="9.300746839454174"><ele>1136.0</ele><time>2026-04-11T14:49:19Z</time></trkpt><trkpt lat="44.81533355021192" lon="9.300658959088773"><ele>1136.0</ele><time>2026-04-11T14:49:20Z</time></trkpt><trkpt lat="44.81532501245608" lon="9.300516129828535"><ele>1136.2</ele><time>2026-04-11T14:49:21Z</time></trkpt><trkpt lat="44.81534065153193" lon="9.300361447870786"><ele>1136.3999999999999</ele><time>2026-04-11T14:49:22Z</time></trkpt><trkpt lat="44.81535255976683" lon="9.300236133836425"><ele>1136.6</ele><time>2026-04-11T14:49:23Z</time></trkpt><trkpt lat="44.815356028651884" lon="9.30012323711821"><ele>1136.8</ele><time>2026-04-11T14:49:24Z</time></trkpt><trkpt lat="44.815333824543174" lon="9.29998489449126"><ele>1137.0</ele><time>2026-04-11T14:49:25Z</time></trkpt><trkpt lat="44.815303810399676" lon="9.29985414805405"><ele>1138.0</ele><time>2026-04-11T14:49:26Z</time></trkpt><trkpt lat="44.81528650413097" lon="9.299693270511233"><ele>1139.0</ele><time>2026-04-11T14:49:27Z</time></trkpt><trkpt lat="44.81526153141574" lon="9.299528854676883"><ele>1140.0</ele><time>2026-04-11T14:49:28Z</time></trkpt><trkpt lat="44.81524100904199" lon="9.299376156423325"><ele>1141.0</ele><time>2026-04-11T14:49:29Z</time></trkpt><trkpt lat="44.81524803575973" lon="9.299277494600489"><ele>1142.0</ele><time>2026-04-11T14:49:30Z</time></trkpt><trkpt lat="44.81532156685745" lon="9.299117102027399"><ele>1142.0</ele><time>2026-04-11T14:49:32Z</time></trkpt><trkpt lat="44.81536633493587" lon="9.29902416659143"><ele>1142.0</ele><time>2026-04-11T14:49:33Z</time></trkpt><trkpt lat="44.81536299191183" lon="9.298917303517474"><ele>1142.0</ele><time>2026-04-11T14:49:35Z</time></trkpt><trkpt lat="44.815436646191934" lon="9.298837620367541"><ele>1142.0</ele><time>2026-04-11T14:49:37Z</time></trkpt><trkpt lat="44.815495239541136" lon="9.298678653143938"><ele>1142.0</ele><time>2026-04-11T14:49:39Z</time></trkpt><trkpt lat="44.815555195421744" lon="9.298546832707256"><ele>1143.0</ele><time>2026-04-11T14:49:41Z</time></trkpt><trkpt lat="44.815581910138334" lon="9.298442335233887"><ele>1144.0</ele><time>2026-04-11T14:49:42Z</time></trkpt><trkpt lat="44.81560673984151" lon="9.298354293972908"><ele>1145.0</ele><time>2026-04-11T14:49:43Z</time></trkpt><trkpt lat="44.81564200392584" lon="9.298254658775582"><ele>1146.0</ele><time>2026-04-11T14:49:46Z</time></trkpt><trkpt lat="44.81565700071885" lon="9.298167759490028"><ele>1147.0</ele><time>2026-04-11T14:49:47Z</time></trkpt><trkpt lat="44.815676639183145" lon="9.298061213409405"><ele>1148.0</ele><time>2026-04-11T14:49:49Z</time></trkpt><trkpt lat="44.815726529291666" lon="9.297937683436222"><ele>1148.8333333333335</ele><time>2026-04-11T14:49:51Z</time></trkpt><trkpt lat="44.815753882376825" lon="9.297820100616187"><ele>1149.6666666666667</ele><time>2026-04-11T14:49:52Z</time></trkpt><trkpt lat="44.81577982347674" lon="9.297699086098637"><ele>1150.5</ele><time>2026-04-11T14:49:52.999Z</time></trkpt><trkpt lat="44.815800767440294" lon="9.297569834886655"><ele>1151.3333333333333</ele><time>2026-04-11T14:49:53.999Z</time></trkpt><trkpt lat="44.81581161580933" lon="9.297451195620951"><ele>1152.1666666666665</ele><time>2026-04-11T14:49:54.999Z</time></trkpt><trkpt lat="44.81585021836757" lon="9.297367462374671"><ele>1153.0</ele><time>2026-04-11T14:49:57.999Z</time></trkpt><trkpt lat="44.815865146604246" lon="9.297259367078803"><ele>1153.1666666666665</ele><time>2026-04-11T14:50:00.999Z</time></trkpt><trkpt lat="44.81589610043169" lon="9.297121836411117"><ele>1153.3333333333333</ele><time>2026-04-11T14:50:02.999Z</time></trkpt><trkpt lat="44.815932660553464" lon="9.297044844108502"><ele>1153.5</ele><time>2026-04-11T14:50:03.999Z</time></trkpt><trkpt lat="44.81599083544311" lon="9.29696443282975"><ele>1153.6666666666667</ele><time>2026-04-11T14:50:04.999Z</time></trkpt><trkpt lat="44.81605600295737" lon="9.296877948458125"><ele>1153.8333333333335</ele><time>2026-04-11T14:50:05.999Z</time></trkpt><trkpt lat="44.816135147607945" lon="9.296782407553563"><ele>1154.0</ele><time>2026-04-11T14:50:06.999Z</time></trkpt><trkpt lat="44.816219129248005" lon="9.296688903314386"><ele>1152.0</ele><time>2026-04-11T14:50:07.999Z</time></trkpt><trkpt lat="44.81630955234359" lon="9.296588597130395"><ele>1150.0</ele><time>2026-04-11T14:50:08.999Z</time></trkpt><trkpt lat="44.81639721882703" lon="9.29649376679395"><ele>1148.0</ele><time>2026-04-11T14:50:09.999Z</time></trkpt><trkpt lat="44.816490264343535" lon="9.296389271638432"><ele>1146.0</ele><time>2026-04-11T14:50:10.999Z</time></trkpt><trkpt lat="44.81658648239712" lon="9.296296715477112"><ele>1146.0</ele><time>2026-04-11T14:50:11.999Z</time></trkpt><trkpt lat="44.81668226472412" lon="9.296206637628043"><ele>1146.0</ele><time>2026-04-11T14:50:12.999Z</time></trkpt><trkpt lat="44.816772516463885" lon="9.296104349758805"><ele>1146.0</ele><time>2026-04-11T14:50:13.999Z</time></trkpt><trkpt lat="44.816849932149985" lon="9.296016513858666"><ele>1146.0</ele><time>2026-04-11T14:50:14.999Z</time></trkpt><trkpt lat="44.816925789648174" lon="9.295943708100475"><ele>1146.0</ele><time>2026-04-11T14:50:15.999Z</time></trkpt><trkpt lat="44.81700245616498" lon="9.29586426541626"><ele>1145.75</ele><time>2026-04-11T14:50:16.999Z</time></trkpt><trkpt lat="44.8170906705244" lon="9.295756634724702"><ele>1145.5</ele><time>2026-04-11T14:50:17.999Z</time></trkpt><trkpt lat="44.81718573333869" lon="9.29562679090439"><ele>1145.25</ele><time>2026-04-11T14:50:18.999Z</time></trkpt><trkpt lat="44.81728493728477" lon="9.295472829254411"><ele>1145.0</ele><time>2026-04-11T14:50:19.999Z</time></trkpt><trkpt lat="44.81738461091792" lon="9.295332743345838"><ele>1144.6666666666667</ele><time>2026-04-11T14:50:20.999Z</time></trkpt><trkpt lat="44.81750458670859" lon="9.295178340776253"><ele>1144.3333333333333</ele><time>2026-04-11T14:50:21.999Z</time></trkpt><trkpt lat="44.81763105905664" lon="9.29503336721941"><ele>1144.0</ele><time>2026-04-11T14:50:22.999Z</time></trkpt><trkpt lat="44.817762286824" lon="9.29487547932501"><ele>1143.6666666666665</ele><time>2026-04-11T14:50:23.999Z</time></trkpt><trkpt lat="44.81787843951162" lon="9.294708402634315"><ele>1143.3333333333333</ele><time>2026-04-11T14:50:24.999Z</time></trkpt><trkpt lat="44.81799397154604" lon="9.294550477953802"><ele>1143.0</ele><time>2026-04-11T14:50:25.999Z</time></trkpt><trkpt lat="44.81809982969983" lon="9.294415051277133"><ele>1143.0</ele><time>2026-04-11T14:50:26.999Z</time></trkpt><trkpt lat="44.81819755843542" lon="9.294300626919373"><ele>1143.0</ele><time>2026-04-11T14:50:27.999Z</time></trkpt><trkpt lat="44.818297067392976" lon="9.294210420416997"><ele>1143.0</ele><time>2026-04-11T14:50:28.999Z</time></trkpt><trkpt lat="44.81839283929379" lon="9.294112510025299"><ele>1143.0</ele><time>2026-04-11T14:50:29.999Z</time></trkpt><trkpt lat="44.81847394397827" lon="9.293982565124912"><ele>1142.75</ele><time>2026-04-11T14:50:30.999Z</time></trkpt><trkpt lat="44.81856699115328" lon="9.293821910911314"><ele>1142.5</ele><time>2026-04-11T14:50:31.999Z</time></trkpt><trkpt lat="44.818640241312735" lon="9.293672715154791"><ele>1142.25</ele><time>2026-04-11T14:50:32.999Z</time></trkpt><trkpt lat="44.81869627197104" lon="9.293532950608558"><ele>1142.0</ele><time>2026-04-11T14:50:33.999Z</time></trkpt><trkpt lat="44.81876015747536" lon="9.293386991773847"><ele>1142.0</ele><time>2026-04-11T14:50:34.999Z</time></trkpt><trkpt lat="44.81882666772521" lon="9.293237423293425"><ele>1142.0</ele><time>2026-04-11T14:50:35.999Z</time></trkpt><trkpt lat="44.818908199631665" lon="9.293091088677853"><ele>1142.0</ele><time>2026-04-11T14:50:37.001Z</time></trkpt><trkpt lat="44.81899385915198" lon="9.292944350279202"><ele>1142.0</ele><time>2026-04-11T14:50:38.001Z</time></trkpt><trkpt lat="44.81909163219627" lon="9.292803327219348"><ele>1140.25</ele><time>2026-04-11T14:50:39.001Z</time></trkpt><trkpt lat="44.81920432985324" lon="9.29265278480535"><ele>1138.5</ele><time>2026-04-11T14:50:40.001Z</time></trkpt><trkpt lat="44.81932836627823" lon="9.292517661574058"><ele>1136.75</ele><time>2026-04-11T14:50:41.001Z</time></trkpt><trkpt lat="44.819422417786555" lon="9.292423157119543"><ele>1135.0</ele><time>2026-04-11T14:50:42.001Z</time></trkpt><trkpt lat="44.819496469479354" lon="9.292335917531158"><ele>1133.5</ele><time>2026-04-11T14:50:43.001Z</time></trkpt><trkpt lat="44.819593341073215" lon="9.292206196854405"><ele>1132.0</ele><time>2026-04-11T14:50:44.001Z</time></trkpt><trkpt lat="44.819703144168294" lon="9.292095684174143"><ele>1130.5</ele><time>2026-04-11T14:50:45.001Z</time></trkpt><trkpt lat="44.8198106296626" lon="9.292037537704347"><ele>1129.0</ele><time>2026-04-11T14:50:46.001Z</time></trkpt><trkpt lat="44.81991111540706" lon="9.291983797267806"><ele>1129.0</ele><time>2026-04-11T14:50:47.001Z</time></trkpt><trkpt lat="44.8199958948763" lon="9.291894618426458"><ele>1129.0</ele><time>2026-04-11T14:50:48.001Z</time></trkpt><trkpt lat="44.82008066363508" lon="9.291780603680111"><ele>1129.0</ele><time>2026-04-11T14:50:49.001Z</time></trkpt><trkpt lat="44.820192678262906" lon="9.291612929337806"><ele>1129.0</ele><time>2026-04-11T14:50:50.001Z</time></trkpt><trkpt lat="44.820301809142485" lon="9.29151661727288"><ele>1129.25</ele><time>2026-04-11T14:50:51.001Z</time></trkpt><trkpt lat="44.82041543510242" lon="9.29147536945826"><ele>1129.5</ele><time>2026-04-11T14:50:52.001Z</time></trkpt><trkpt lat="44.820562210656036" lon="9.291415350240243"><ele>1129.75</ele><time>2026-04-11T14:50:53.001Z</time></trkpt><trkpt lat="44.8206853520596" lon="9.29133319566641"><ele>1130.0</ele><time>2026-04-11T14:50:54.001Z</time></trkpt><trkpt lat="44.820786282368644" lon="9.291244431621262"><ele>1130.25</ele><time>2026-04-11T14:50:55.001Z</time></trkpt><trkpt lat="44.82090076663165" lon="9.291136052368271"><ele>1130.5</ele><time>2026-04-11T14:50:56.001Z</time></trkpt><trkpt lat="44.82100571169796" lon="9.291030551494185"><ele>1130.75</ele><time>2026-04-11T14:50:57.001Z</time></trkpt><trkpt lat="44.82110024469427" lon="9.290924029103792"><ele>1131.0</ele><time>2026-04-11T14:50:58.001Z</time></trkpt><trkpt lat="44.82121021375944" lon="9.290804547851568"><ele>1131.0</ele><time>2026-04-11T14:50:59Z</time></trkpt><trkpt lat="44.821324238313196" lon="9.290688221719606"><ele>1131.0</ele><time>2026-04-11T14:51:00Z</time></trkpt><trkpt lat="44.82143071775786" lon="9.290605352727582"><ele>1131.0</ele><time>2026-04-11T14:51:01Z</time></trkpt><trkpt lat="44.821528991223026" lon="9.290540395390323"><ele>1131.0</ele><time>2026-04-11T14:51:02Z</time></trkpt><trkpt lat="44.8216402240645" lon="9.290484585107745"><ele>1131.0</ele><time>2026-04-11T14:51:03Z</time></trkpt><trkpt lat="44.821743882886565" lon="9.290450525527035"><ele>1131.0</ele><time>2026-04-11T14:51:04Z</time></trkpt><trkpt lat="44.82186074193551" lon="9.290430540147911"><ele>1131.0</ele><time>2026-04-11T14:51:05Z</time></trkpt><trkpt lat="44.82198007708778" lon="9.29038726928233"><ele>1131.0</ele><time>2026-04-11T14:51:06Z</time></trkpt><trkpt lat="44.8220966582181" lon="9.290325363781246"><ele>1133.6666666666667</ele><time>2026-04-11T14:51:07Z</time></trkpt><trkpt lat="44.82219393797856" lon="9.290265207357477"><ele>1136.3333333333333</ele><time>2026-04-11T14:51:08Z</time></trkpt><trkpt lat="44.82225583428558" lon="9.290223300086925"><ele>1139.0</ele><time>2026-04-11T14:51:09Z</time></trkpt><trkpt lat="44.82232433955915" lon="9.290213879837601"><ele>1141.6666666666665</ele><time>2026-04-11T14:51:10Z</time></trkpt><trkpt lat="44.8223975324094" lon="9.290228673948102"><ele>1144.3333333333333</ele><time>2026-04-11T14:51:11Z</time></trkpt><trkpt lat="44.82247932592023" lon="9.290267331769963"><ele>1147.0</ele><time>2026-04-11T14:51:12Z</time></trkpt><trkpt lat="44.82253463305294" lon="9.290321079186246"><ele>1147.0</ele><time>2026-04-11T14:51:13Z</time></trkpt><trkpt lat="44.82262347332747" lon="9.290401732105943"><ele>1147.0</ele><time>2026-04-11T14:51:14Z</time></trkpt><trkpt lat="44.822726565687375" lon="9.290503901174663"><ele>1147.0</ele><time>2026-04-11T14:51:15Z</time></trkpt><trkpt lat="44.8228454854727" lon="9.290641853649669"><ele>1147.0</ele><time>2026-04-11T14:51:16Z</time></trkpt><trkpt lat="44.82295138367272" lon="9.29077796367349"><ele>1147.8</ele><time>2026-04-11T14:51:17Z</time></trkpt><trkpt lat="44.82303969149751" lon="9.29090727678677"><ele>1148.6</ele><time>2026-04-11T14:51:18Z</time></trkpt><trkpt lat="44.823107286657844" lon="9.290995933408078"><ele>1149.3999999999999</ele><time>2026-04-11T14:51:19Z</time></trkpt><trkpt lat="44.82316322647228" lon="9.291122895959658"><ele>1150.2</ele><time>2026-04-11T14:51:20Z</time></trkpt><trkpt lat="44.823214740348234" lon="9.29125568331797"><ele>1151.0</ele><time>2026-04-11T14:51:21Z</time></trkpt><trkpt lat="44.82326898665281" lon="9.291397740553164"><ele>1148.8333333333335</ele><time>2026-04-11T14:51:22Z</time></trkpt><trkpt lat="44.82332797704555" lon="9.29152460630957"><ele>1146.6666666666667</ele><time>2026-04-11T14:51:23Z</time></trkpt><trkpt lat="44.823388601503986" lon="9.291632349007676"><ele>1144.5</ele><time>2026-04-11T14:51:24Z</time></trkpt><trkpt lat="44.823434209924145" lon="9.291713498351095"><ele>1142.3333333333333</ele><time>2026-04-11T14:51:25Z</time></trkpt><trkpt lat="44.82349291999904" lon="9.291767066541523"><ele>1140.1666666666665</ele><time>2026-04-11T14:51:26Z</time></trkpt><trkpt lat="44.823576513254395" lon="9.291770118371694"><ele>1138.0</ele><time>2026-04-11T14:51:27Z</time></trkpt><trkpt lat="44.82365009399712" lon="9.291736462591965"><ele>1138.0</ele><time>2026-04-11T14:51:28Z</time></trkpt><trkpt lat="44.823732084161406" lon="9.29169461998551"><ele>1138.0</ele><time>2026-04-11T14:51:29Z</time></trkpt><trkpt lat="44.82380267822629" lon="9.291622071132055"><ele>1138.0</ele><time>2026-04-11T14:51:30Z</time></trkpt><trkpt lat="44.823851339298116" lon="9.291468482862303"><ele>1138.0</ele><time>2026-04-11T14:51:32Z</time></trkpt><trkpt lat="44.82389362054804" lon="9.291351222320047"><ele>1138.0</ele><time>2026-04-11T14:51:33Z</time></trkpt><trkpt lat="44.82394490854256" lon="9.291220070361112"><ele>1139.8</ele><time>2026-04-11T14:51:34Z</time></trkpt><trkpt lat="44.82398959017469" lon="9.291077073755988"><ele>1141.6</ele><time>2026-04-11T14:51:35Z</time></trkpt><trkpt lat="44.82402972132408" lon="9.290936953834636"><ele>1143.4</ele><time>2026-04-11T14:51:36Z</time></trkpt><trkpt lat="44.82406512854422" lon="9.290783765166033"><ele>1145.2</ele><time>2026-04-11T14:51:37Z</time></trkpt><trkpt lat="44.82410320106568" lon="9.290674337699686"><ele>1147.0</ele><time>2026-04-11T14:51:38Z</time></trkpt><trkpt lat="44.8241612432061" lon="9.290577662516048"><ele>1149.0</ele><time>2026-04-11T14:51:39Z</time></trkpt><trkpt lat="44.82423550131939" lon="9.290432326124103"><ele>1151.0</ele><time>2026-04-11T14:51:40Z</time></trkpt><trkpt lat="44.82429249807397" lon="9.290325921677097"><ele>1153.0</ele><time>2026-04-11T14:51:41Z</time></trkpt><trkpt lat="44.82432949589174" lon="9.290208742964955"><ele>1155.0</ele><time>2026-04-11T14:51:42Z</time></trkpt><trkpt lat="44.824350312145846" lon="9.290048592578243"><ele>1157.0</ele><time>2026-04-11T14:51:43Z</time></trkpt><trkpt lat="44.82439332149118" lon="9.289875681848175"><ele>1155.0</ele><time>2026-04-11T14:51:44Z</time></trkpt><trkpt lat="44.82445253722926" lon="9.2896956996319"><ele>1153.0</ele><time>2026-04-11T14:51:45Z</time></trkpt><trkpt lat="44.824495387403985" lon="9.289550899191775"><ele>1151.0</ele><time>2026-04-11T14:51:46Z</time></trkpt><trkpt lat="44.82451985649931" lon="9.28941932013714"><ele>1149.0</ele><time>2026-04-11T14:51:47Z</time></trkpt><trkpt lat="44.82453256176906" lon="9.289308250942042"><ele>1147.0</ele><time>2026-04-11T14:51:48Z</time></trkpt><trkpt lat="44.82455974535363" lon="9.28915914906645"><ele>1147.0</ele><time>2026-04-11T14:51:49Z</time></trkpt><trkpt lat="44.82460088523805" lon="9.288986103732714"><ele>1147.0</ele><time>2026-04-11T14:51:50Z</time></trkpt><trkpt lat="44.82466267486993" lon="9.28886673185844"><ele>1147.0</ele><time>2026-04-11T14:51:51Z</time></trkpt><trkpt lat="44.82473932191614" lon="9.288739678319411"><ele>1147.0</ele><time>2026-04-11T14:51:52Z</time></trkpt><trkpt lat="44.82480662096812" lon="9.288606812381563"><ele>1145.2</ele><time>2026-04-11T14:51:53Z</time></trkpt><trkpt lat="44.82486992396707" lon="9.288505074469965"><ele>1143.4</ele><time>2026-04-11T14:51:54Z</time></trkpt><trkpt lat="44.82495131237942" lon="9.288453422941156"><ele>1141.6</ele><time>2026-04-11T14:51:55Z</time></trkpt><trkpt lat="44.82506491974944" lon="9.288420277796808"><ele>1139.8</ele><time>2026-04-11T14:51:56Z</time></trkpt><trkpt lat="44.82516665921918" lon="9.28837106820467"><ele>1138.0</ele><time>2026-04-11T14:51:57Z</time></trkpt><trkpt lat="44.82522323526274" lon="9.288280205383487"><ele>1138.0</ele><time>2026-04-11T14:51:57.999Z</time></trkpt><trkpt lat="44.825266121603775" lon="9.288195236907297"><ele>1138.0</ele><time>2026-04-11T14:51:58.999Z</time></trkpt><trkpt lat="44.82529422046775" lon="9.288110865283054"><ele>1138.0</ele><time>2026-04-11T14:51:59.999Z</time></trkpt><trkpt lat="44.82535310211163" lon="9.287969812437831"><ele>1138.0</ele><time>2026-04-11T14:52:01.999Z</time></trkpt><trkpt lat="44.82544471159802" lon="9.287732544272563"><ele>1138.0</ele><time>2026-04-11T14:52:02.999Z</time></trkpt><trkpt lat="44.82553624323512" lon="9.287576925560833"><ele>1142.75</ele><time>2026-04-11T14:52:03.999Z</time></trkpt><trkpt lat="44.825638152628954" lon="9.287396091301488"><ele>1147.5</ele><time>2026-04-11T14:52:04.999Z</time></trkpt><trkpt lat="44.82572691818956" lon="9.287222561783482"><ele>1152.25</ele><time>2026-04-11T14:52:05.999Z</time></trkpt><trkpt lat="44.82579967565255" lon="9.287093912264725"><ele>1157.0</ele><time>2026-04-11T14:52:06.999Z</time></trkpt><trkpt lat="44.825861093229385" lon="9.286973749332633"><ele>1158.6</ele><time>2026-04-11T14:52:07.999Z</time></trkpt><trkpt lat="44.82592668980756" lon="9.286864402140317"><ele>1160.2</ele><time>2026-04-11T14:52:08.999Z</time></trkpt><trkpt lat="44.82600457120508" lon="9.28674950783563"><ele>1161.8</ele><time>2026-04-11T14:52:09.999Z</time></trkpt><trkpt lat="44.82610044841845" lon="9.286647086855154"><ele>1163.4</ele><time>2026-04-11T14:52:10.999Z</time></trkpt><trkpt lat="44.82618849605861" lon="9.286600475669184"><ele>1165.0</ele><time>2026-04-11T14:52:11.999Z</time></trkpt><trkpt lat="44.82630147760472" lon="9.286586102263062"><ele>1165.0</ele><time>2026-04-11T14:52:12.999Z</time></trkpt><trkpt lat="44.826425155062296" lon="9.28661100684332"><ele>1165.0</ele><time>2026-04-11T14:52:13.999Z</time></trkpt><trkpt lat="44.826578841079105" lon="9.286642104718018"><ele>1165.0</ele><time>2026-04-11T14:52:14.999Z</time></trkpt><trkpt lat="44.82666971233497" lon="9.286632278301054"><ele>1165.0</ele><time>2026-04-11T14:52:15.999Z</time></trkpt><trkpt lat="44.82679420799105" lon="9.286551095554334"><ele>1165.8</ele><time>2026-04-11T14:52:18.999Z</time></trkpt><trkpt lat="44.826881863256375" lon="9.286466062434636"><ele>1166.6</ele><time>2026-04-11T14:52:19.999Z</time></trkpt><trkpt lat="44.82695165150864" lon="9.2864006556428"><ele>1167.4</ele><time>2026-04-11T14:52:20.999Z</time></trkpt><trkpt lat="44.827022644539184" lon="9.28635259902225"><ele>1168.2</ele><time>2026-04-11T14:52:21.999Z</time></trkpt><trkpt lat="44.82712689975382" lon="9.286293650999756"><ele>1169.0</ele><time>2026-04-11T14:52:22.999Z</time></trkpt><trkpt lat="44.82724720665083" lon="9.286199857841627"><ele>1169.0</ele><time>2026-04-11T14:52:23.999Z</time></trkpt><trkpt lat="44.827367433490515" lon="9.286143789812977"><ele>1169.0</ele><time>2026-04-11T14:52:24.999Z</time></trkpt><trkpt lat="44.827475249455816" lon="9.286107882027132"><ele>1169.0</ele><time>2026-04-11T14:52:25.999Z</time></trkpt><trkpt lat="44.82757543609804" lon="9.286083510753947"><ele>1169.0</ele><time>2026-04-11T14:52:26.999Z</time></trkpt><trkpt lat="44.82768237837129" lon="9.28607917648301"><ele>1169.0</ele><time>2026-04-11T14:52:27.999Z</time></trkpt><trkpt lat="44.82781007311974" lon="9.286118066747104"><ele>1169.0</ele><time>2026-04-11T14:52:28.999Z</time></trkpt><trkpt lat="44.82795085784622" lon="9.28615112254755"><ele>1169.0</ele><time>2026-04-11T14:52:29.999Z</time></trkpt><trkpt lat="44.82807391358274" lon="9.286153322359342"><ele>1169.0</ele><time>2026-04-11T14:52:30.999Z</time></trkpt><trkpt lat="44.82816931731003" lon="9.286108728510193"><ele>1169.0</ele><time>2026-04-11T14:52:31.999Z</time></trkpt><trkpt lat="44.82829930906251" lon="9.286045176929637"><ele>1169.0</ele><time>2026-04-11T14:52:32.999Z</time></trkpt><trkpt lat="44.82843799579948" lon="9.285987031541934"><ele>1169.0</ele><time>2026-04-11T14:52:33.999Z</time></trkpt><trkpt lat="44.828544784955135" lon="9.285895393603242"><ele>1169.0</ele><time>2026-04-11T14:52:34.999Z</time></trkpt><trkpt lat="44.82869600921634" lon="9.285758972908415"><ele>1169.0</ele><time>2026-04-11T14:52:35.999Z</time></trkpt><trkpt lat="44.82883367439493" lon="9.285649433156342"><ele>1166.8</ele><time>2026-04-11T14:52:36.999Z</time></trkpt><trkpt lat="44.82893617325734" lon="9.285574525488386"><ele>1164.6000000000001</ele><time>2026-04-11T14:52:37.999Z</time></trkpt><trkpt lat="44.82899936043361" lon="9.285499224139071"><ele>1162.4</ele><time>2026-04-11T14:52:38.999Z</time></trkpt><trkpt lat="44.82907409178732" lon="9.285431947075464"><ele>1160.2</ele><time>2026-04-11T14:52:39.999Z</time></trkpt><trkpt lat="44.82916183303701" lon="9.28537213059078"><ele>1158.0</ele><time>2026-04-11T14:52:40.999Z</time></trkpt><trkpt lat="44.82924825919376" lon="9.28528511398015"><ele>1157.25</ele><time>2026-04-11T14:52:42.001Z</time></trkpt><trkpt lat="44.829356989552984" lon="9.285202602509221"><ele>1156.5</ele><time>2026-04-11T14:52:43.001Z</time></trkpt><trkpt lat="44.82948341204218" lon="9.285153647449661"><ele>1155.75</ele><time>2026-04-11T14:52:44.001Z</time></trkpt><trkpt lat="44.829654503572016" lon="9.28509762700748"><ele>1155.0</ele><time>2026-04-11T14:52:45.001Z</time></trkpt><trkpt lat="44.82981183315135" lon="9.285067330546031"><ele>1155.0</ele><time>2026-04-11T14:52:46.001Z</time></trkpt><trkpt lat="44.82992900431254" lon="9.285044894718764"><ele>1155.0</ele><time>2026-04-11T14:52:47.001Z</time></trkpt><trkpt lat="44.830045729032236" lon="9.28498446344667"><ele>1155.0</ele><time>2026-04-11T14:52:48.001Z</time></trkpt><trkpt lat="44.83015642699445" lon="9.284930761773504"><ele>1155.0</ele><time>2026-04-11T14:52:49.001Z</time></trkpt><trkpt lat="44.83028827820153" lon="9.284900192011326"><ele>1153.75</ele><time>2026-04-11T14:52:50.001Z</time></trkpt><trkpt lat="44.83041638863737" lon="9.284892910585688"><ele>1152.5</ele><time>2026-04-11T14:52:51.001Z</time></trkpt><trkpt lat="44.830527344457934" lon="9.284895049993093"><ele>1151.25</ele><time>2026-04-11T14:52:52.001Z</time></trkpt><trkpt lat="44.830639121166506" lon="9.284895734774658"><ele>1150.0</ele><time>2026-04-11T14:52:53.001Z</time></trkpt><trkpt lat="44.830763873468555" lon="9.284929605610136"><ele>1150.0</ele><time>2026-04-11T14:52:54.001Z</time></trkpt><trkpt lat="44.830912943267684" lon="9.284990168340714"><ele>1150.0</ele><time>2026-04-11T14:52:55.001Z</time></trkpt><trkpt lat="44.83104310375824" lon="9.285041164859079"><ele>1150.0</ele><time>2026-04-11T14:52:56.001Z</time></trkpt><trkpt lat="44.83111972870505" lon="9.285072551696091"><ele>1150.0</ele><time>2026-04-11T14:52:58.001Z</time></trkpt><trkpt lat="44.83125955940666" lon="9.285087302771926"><ele>1149.25</ele><time>2026-04-11T14:53:00.001Z</time></trkpt><trkpt lat="44.83141673720005" lon="9.285065823173309"><ele>1148.5</ele><time>2026-04-11T14:53:02Z</time></trkpt><trkpt lat="44.83154118781941" lon="9.285045501668757"><ele>1147.75</ele><time>2026-04-11T14:53:03Z</time></trkpt><trkpt lat="44.83164678909906" lon="9.285040159980095"><ele>1147.0</ele><time>2026-04-11T14:53:04Z</time></trkpt><trkpt lat="44.83171189486038" lon="9.2850340725306"><ele>1147.0</ele><time>2026-04-11T14:53:05Z</time></trkpt><trkpt lat="44.83178351467176" lon="9.285037326883973"><ele>1147.0</ele><time>2026-04-11T14:53:06Z</time></trkpt><trkpt lat="44.83187579009905" lon="9.285049600885626"><ele>1147.0</ele><time>2026-04-11T14:53:07Z</time></trkpt><trkpt lat="44.83199344313484" lon="9.285068058543768"><ele>1147.0</ele><time>2026-04-11T14:53:08Z</time></trkpt><trkpt lat="44.83209852841638" lon="9.285071102362668"><ele>1147.0</ele><time>2026-04-11T14:53:09Z</time></trkpt><trkpt lat="44.83220281833946" lon="9.285091048198405"><ele>1145.0</ele><time>2026-04-11T14:53:10Z</time></trkpt><trkpt lat="44.8323356029119" lon="9.285097119856578"><ele>1143.0</ele><time>2026-04-11T14:53:11Z</time></trkpt><trkpt lat="44.8324944957348" lon="9.285095513111202"><ele>1141.0</ele><time>2026-04-11T14:53:12Z</time></trkpt><trkpt lat="44.83262703528425" lon="9.28510978720113"><ele>1139.0</ele><time>2026-04-11T14:53:13Z</time></trkpt><trkpt lat="44.832729670355796" lon="9.285128297749406"><ele>1137.8</ele><time>2026-04-11T14:53:14Z</time></trkpt><trkpt lat="44.8328108272734" lon="9.285159558047638"><ele>1136.6000000000001</ele><time>2026-04-11T14:53:15Z</time></trkpt><trkpt lat="44.83292983693961" lon="9.285199210617304"><ele>1135.4</ele><time>2026-04-11T14:53:16Z</time></trkpt><trkpt lat="44.83304839178049" lon="9.285205975354673"><ele>1134.2</ele><time>2026-04-11T14:53:17Z</time></trkpt><trkpt lat="44.83317258705996" lon="9.285199054247713"><ele>1133.0</ele><time>2026-04-11T14:53:18Z</time></trkpt><trkpt lat="44.83326569530857" lon="9.285200944875834"><ele>1133.0</ele><time>2026-04-11T14:53:19Z</time></trkpt><trkpt lat="44.83334097654485" lon="9.285227575096737"><ele>1133.0</ele><time>2026-04-11T14:53:20Z</time></trkpt><trkpt lat="44.83345325364705" lon="9.285301183095417"><ele>1133.0</ele><time>2026-04-11T14:53:21Z</time></trkpt><trkpt lat="44.8335595851718" lon="9.285397396525301"><ele>1133.0</ele><time>2026-04-11T14:53:22Z</time></trkpt><trkpt lat="44.83362556687489" lon="9.28546767702973"><ele>1133.0</ele><time>2026-04-11T14:53:23Z</time></trkpt><trkpt lat="44.83368483244085" lon="9.285514881650396"><ele>1133.4</ele><time>2026-04-11T14:53:24Z</time></trkpt><trkpt lat="44.833780244968" lon="9.285593200776384"><ele>1133.8</ele><time>2026-04-11T14:53:25Z</time></trkpt><trkpt lat="44.83386975964301" lon="9.28567328517321"><ele>1134.2</ele><time>2026-04-11T14:53:26Z</time></trkpt><trkpt lat="44.83393503565825" lon="9.285723878034792"><ele>1134.6</ele><time>2026-04-11T14:53:27Z</time></trkpt><trkpt lat="44.83399587584046" lon="9.285789756318174"><ele>1135.0</ele><time>2026-04-11T14:53:28Z</time></trkpt><trkpt lat="44.83407399554715" lon="9.285893282561224"><ele>1135.5</ele><time>2026-04-11T14:53:29Z</time></trkpt><trkpt lat="44.834173107037316" lon="9.286002117510973"><ele>1136.0</ele><time>2026-04-11T14:53:30Z</time></trkpt><trkpt lat="44.83427993622922" lon="9.286089102675373"><ele>1136.5</ele><time>2026-04-11T14:53:31Z</time></trkpt><trkpt lat="44.83437090533392" lon="9.286162360108653"><ele>1137.0</ele><time>2026-04-11T14:53:32Z</time></trkpt><trkpt lat="44.83447165962256" lon="9.286272575735042"><ele>1138.0</ele><time>2026-04-11T14:53:33Z</time></trkpt><trkpt lat="44.83457401009715" lon="9.286409989402529"><ele>1139.0</ele><time>2026-04-11T14:53:34Z</time></trkpt><trkpt lat="44.83468965733798" lon="9.286537024742923"><ele>1140.0</ele><time>2026-04-11T14:53:35Z</time></trkpt><trkpt lat="44.83478704268375" lon="9.286612859041398"><ele>1141.0</ele><time>2026-04-11T14:53:36Z</time></trkpt><trkpt lat="44.83490863261141" lon="9.286704809017461"><ele>1141.0</ele><time>2026-04-11T14:53:37Z</time></trkpt><trkpt lat="44.83504002928062" lon="9.286817201868669"><ele>1141.0</ele><time>2026-04-11T14:53:38Z</time></trkpt><trkpt lat="44.83516629061588" lon="9.286946239901354"><ele>1141.0</ele><time>2026-04-11T14:53:39Z</time></trkpt><trkpt lat="44.83526526885735" lon="9.287085242877998"><ele>1141.0</ele><time>2026-04-11T14:53:40Z</time></trkpt><trkpt lat="44.83536696132372" lon="9.287245501446561"><ele>1140.0</ele><time>2026-04-11T14:53:41Z</time></trkpt><trkpt lat="44.83546533749896" lon="9.287370564977643"><ele>1139.0</ele><time>2026-04-11T14:53:42Z</time></trkpt><trkpt lat="44.835561693379226" lon="9.28748672828108"><ele>1138.0</ele><time>2026-04-11T14:53:43Z</time></trkpt><trkpt lat="44.83564719628868" lon="9.287589581599986"><ele>1137.0</ele><time>2026-04-11T14:53:44Z</time></trkpt><trkpt lat="44.83573693774341" lon="9.287706022537368"><ele>1137.0</ele><time>2026-04-11T14:53:45Z</time></trkpt><trkpt lat="44.83582830960683" lon="9.28780900730677"><ele>1137.0</ele><time>2026-04-11T14:53:46Z</time></trkpt><trkpt lat="44.83594147586533" lon="9.28788179612962"><ele>1137.0</ele><time>2026-04-11T14:53:47Z</time></trkpt><trkpt lat="44.83606428723986" lon="9.287954204625985"><ele>1137.0</ele><time>2026-04-11T14:53:48Z</time></trkpt><trkpt lat="44.836178915909485" lon="9.288028840155734"><ele>1136.0</ele><time>2026-04-11T14:53:49Z</time></trkpt><trkpt lat="44.836269131447075" lon="9.28809748823297"><ele>1135.0</ele><time>2026-04-11T14:53:50Z</time></trkpt><trkpt lat="44.836342003887175" lon="9.288156794876695"><ele>1134.0</ele><time>2026-04-11T14:53:51Z</time></trkpt><trkpt lat="44.83642056324503" lon="9.288159586718779"><ele>1133.0</ele><time>2026-04-11T14:53:52Z</time></trkpt><trkpt lat="44.83651295878765" lon="9.288143954255807"><ele>1132.0</ele><time>2026-04-11T14:53:53Z</time></trkpt><trkpt lat="44.83659237310843" lon="9.2880857742564"><ele>1131.0</ele><time>2026-04-11T14:53:54Z</time></trkpt><trkpt lat="44.836685437469576" lon="9.288025344331324"><ele>1131.0</ele><time>2026-04-11T14:53:55Z</time></trkpt><trkpt lat="44.83677817913535" lon="9.287967157644665"><ele>1131.0</ele><time>2026-04-11T14:53:56Z</time></trkpt><trkpt lat="44.836858615871925" lon="9.287966015309621"><ele>1131.0</ele><time>2026-04-11T14:53:57Z</time></trkpt><trkpt lat="44.836944154447494" lon="9.288026311092434"><ele>1131.0</ele><time>2026-04-11T14:53:58Z</time></trkpt><trkpt lat="44.83703490612726" lon="9.288127899335528"><ele>1131.0</ele><time>2026-04-11T14:53:58.999Z</time></trkpt><trkpt lat="44.8371377348752" lon="9.288219799216822"><ele>1127.3999999999999</ele><time>2026-04-11T14:53:59.999Z</time></trkpt><trkpt lat="44.83721815778496" lon="9.288261522468693"><ele>1123.8</ele><time>2026-04-11T14:54:00.999Z</time></trkpt><trkpt lat="44.83730105947581" lon="9.28822582084156"><ele>1120.1999999999998</ele><time>2026-04-11T14:54:01.999Z</time></trkpt><trkpt lat="44.83738457614136" lon="9.28816974376672"><ele>1116.6</ele><time>2026-04-11T14:54:02.999Z</time></trkpt><trkpt lat="44.83753790407273" lon="9.288153236641204"><ele>1113.0</ele><time>2026-04-11T14:54:03.999Z</time></trkpt><trkpt lat="44.8376530759341" lon="9.288055851438187"><ele>1111.5</ele><time>2026-04-11T14:54:04.999Z</time></trkpt><trkpt lat="44.83775751930993" lon="9.287964988964742"><ele>1110.0</ele><time>2026-04-11T14:54:05.999Z</time></trkpt><trkpt lat="44.837847522065445" lon="9.287914628435042"><ele>1108.5</ele><time>2026-04-11T14:54:06.999Z</time></trkpt><trkpt lat="44.83794632454002" lon="9.287894057911995"><ele>1107.0</ele><time>2026-04-11T14:54:07.999Z</time></trkpt><trkpt lat="44.838078225847816" lon="9.287876577482605"><ele>1107.0</ele><time>2026-04-11T14:54:08.999Z</time></trkpt><trkpt lat="44.83820499566424" lon="9.28785189567492"><ele>1107.0</ele><time>2026-04-11T14:54:09.999Z</time></trkpt><trkpt lat="44.83833743374262" lon="9.287810963187853"><ele>1107.0</ele><time>2026-04-11T14:54:10.999Z</time></trkpt><trkpt lat="44.83846259175314" lon="9.28777537607757"><ele>1107.0</ele><time>2026-04-11T14:54:11.999Z</time></trkpt><trkpt lat="44.8385762302831" lon="9.287767331390302"><ele>1105.75</ele><time>2026-04-11T14:54:12.999Z</time></trkpt><trkpt lat="44.83868795588734" lon="9.287782626000281"><ele>1104.5</ele><time>2026-04-11T14:54:13.999Z</time></trkpt><trkpt lat="44.83878559040302" lon="9.287835964016791"><ele>1103.25</ele><time>2026-04-11T14:54:14.999Z</time></trkpt><trkpt lat="44.83889563399853" lon="9.287927564905594"><ele>1102.0</ele><time>2026-04-11T14:54:15.999Z</time></trkpt><trkpt lat="44.83897800444608" lon="9.288065848182347"><ele>1101.3333333333333</ele><time>2026-04-11T14:54:16.999Z</time></trkpt><trkpt lat="44.83906010630944" lon="9.288127702579922"><ele>1100.6666666666665</ele><time>2026-04-11T14:54:17.999Z</time></trkpt><trkpt lat="44.839126076033125" lon="9.288225321591407"><ele>1100.0</ele><time>2026-04-11T14:54:18.999Z</time></trkpt><trkpt lat="44.83917425395668" lon="9.288329528418563"><ele>1099.3333333333333</ele><time>2026-04-11T14:54:19.999Z</time></trkpt><trkpt lat="44.83920109430164" lon="9.288426862793322"><ele>1098.6666666666667</ele><time>2026-04-11T14:54:20.999Z</time></trkpt><trkpt lat="44.83920811769503" lon="9.288532962801785"><ele>1098.0</ele><time>2026-04-11T14:54:21.999Z</time></trkpt><trkpt lat="44.83918653087514" lon="9.288659518589535"><ele>1098.0</ele><time>2026-04-11T14:54:22.999Z</time></trkpt><trkpt lat="44.83910726579373" lon="9.288748531768842"><ele>1098.0</ele><time>2026-04-11T14:54:23.999Z</time></trkpt><trkpt lat="44.83903310663086" lon="9.28890735296426"><ele>1098.0</ele><time>2026-04-11T14:54:24.999Z</time></trkpt><trkpt lat="44.83899903600957" lon="9.289080622397261"><ele>1098.0</ele><time>2026-04-11T14:54:25.999Z</time></trkpt><trkpt lat="44.838978031458645" lon="9.289245305033099"><ele>1096.25</ele><time>2026-04-11T14:54:26.999Z</time></trkpt><trkpt lat="44.83898511456239" lon="9.28942126421941"><ele>1094.5</ele><time>2026-04-11T14:54:27.999Z</time></trkpt><trkpt lat="44.839000516364194" lon="9.289642343093021"><ele>1092.75</ele><time>2026-04-11T14:54:28.999Z</time></trkpt><trkpt lat="44.839006471912704" lon="9.289856117433926"><ele>1091.0</ele><time>2026-04-11T14:54:29.999Z</time></trkpt><trkpt lat="44.83901178391693" lon="9.290064871567694"><ele>1089.25</ele><time>2026-04-11T14:54:30.999Z</time></trkpt><trkpt lat="44.83901818902143" lon="9.290272508816077"><ele>1087.5</ele><time>2026-04-11T14:54:31.999Z</time></trkpt><trkpt lat="44.83903453214861" lon="9.290492595174054"><ele>1085.75</ele><time>2026-04-11T14:54:32.999Z</time></trkpt><trkpt lat="44.83903865350603" lon="9.290673056101188"><ele>1084.0</ele><time>2026-04-11T14:54:33.999Z</time></trkpt><trkpt lat="44.83903382988374" lon="9.290860989600885"><ele>1083.0</ele><time>2026-04-11T14:54:34.999Z</time></trkpt><trkpt lat="44.839041192275815" lon="9.291034821135268"><ele>1082.0</ele><time>2026-04-11T14:54:35.999Z</time></trkpt><trkpt lat="44.83905447981775" lon="9.291189588230653"><ele>1081.0</ele><time>2026-04-11T14:54:36.999Z</time></trkpt><trkpt lat="44.8390765380578" lon="9.291325411035174"><ele>1080.0</ele><time>2026-04-11T14:54:37.999Z</time></trkpt><trkpt lat="44.83910832108674" lon="9.291468000018394"><ele>1079.0</ele><time>2026-04-11T14:54:38.999Z</time></trkpt><trkpt lat="44.839167690014975" lon="9.291607539955347"><ele>1079.25</ele><time>2026-04-11T14:54:39.999Z</time></trkpt><trkpt lat="44.83924725998963" lon="9.291782901802618"><ele>1079.5</ele><time>2026-04-11T14:54:40.999Z</time></trkpt><trkpt lat="44.83931559194526" lon="9.291952330459882"><ele>1079.75</ele><time>2026-04-11T14:54:41.999Z</time></trkpt><trkpt lat="44.839342270648494" lon="9.292112978624871"><ele>1080.0</ele><time>2026-04-11T14:54:42.999Z</time></trkpt><trkpt lat="44.83934039235098" lon="9.292291177548284"><ele>1078.75</ele><time>2026-04-11T14:54:43.999Z</time></trkpt><trkpt lat="44.83936869043063" lon="9.292472253639508"><ele>1077.5</ele><time>2026-04-11T14:54:44.999Z</time></trkpt><trkpt lat="44.83939622186196" lon="9.29262505914464"><ele>1076.25</ele><time>2026-04-11T14:54:45.999Z</time></trkpt><trkpt lat="44.839428275155655" lon="9.292794367107089"><ele>1075.0</ele><time>2026-04-11T14:54:46.999Z</time></trkpt><trkpt lat="44.8394667926774" lon="9.292973470987288"><ele>1073.6</ele><time>2026-04-11T14:54:48.001Z</time></trkpt><trkpt lat="44.839511521988854" lon="9.293131517130993"><ele>1072.2</ele><time>2026-04-11T14:54:49.001Z</time></trkpt><trkpt lat="44.83956156939158" lon="9.293245244844503"><ele>1070.8</ele><time>2026-04-11T14:54:50.001Z</time></trkpt><trkpt lat="44.839639719398896" lon="9.293343927215677"><ele>1069.4</ele><time>2026-04-11T14:54:51.001Z</time></trkpt><trkpt lat="44.83973654407164" lon="9.293459699301225"><ele>1068.0</ele><time>2026-04-11T14:54:52.001Z</time></trkpt><trkpt lat="44.83982956773355" lon="9.293567060925886"><ele>1068.0</ele><time>2026-04-11T14:54:53.001Z</time></trkpt><trkpt lat="44.83991235652947" lon="9.293674935636588"><ele>1068.0</ele><time>2026-04-11T14:54:54.001Z</time></trkpt><trkpt lat="44.83993657381604" lon="9.293834336903956"><ele>1068.0</ele><time>2026-04-11T14:54:55.001Z</time></trkpt><trkpt lat="44.84000394332899" lon="9.294013771082936"><ele>1068.0</ele><time>2026-04-11T14:54:56.001Z</time></trkpt><trkpt lat="44.84006611654935" lon="9.294218152852604"><ele>1069.0</ele><time>2026-04-11T14:54:57.001Z</time></trkpt><trkpt lat="44.840143915677324" lon="9.294435770290677"><ele>1070.0</ele><time>2026-04-11T14:54:58.001Z</time></trkpt><trkpt lat="44.840213069068604" lon="9.294620792070907"><ele>1071.0</ele><time>2026-04-11T14:54:59.001Z</time></trkpt><trkpt lat="44.84028093354624" lon="9.294799581093917"><ele>1071.0</ele><time>2026-04-11T14:55:00.001Z</time></trkpt><trkpt lat="44.84033875334853" lon="9.294975250887557"><ele>1071.0</ele><time>2026-04-11T14:55:01.001Z</time></trkpt><trkpt lat="44.84036136613754" lon="9.295097964676074"><ele>1071.0</ele><time>2026-04-11T14:55:02.001Z</time></trkpt><trkpt lat="44.8403472074" lon="9.29520141699625"><ele>1071.0</ele><time>2026-04-11T14:55:03.001Z</time></trkpt><trkpt lat="44.840319205759386" lon="9.295294201709915"><ele>1071.0</ele><time>2026-04-11T14:55:04.001Z</time></trkpt><trkpt lat="44.84025069585075" lon="9.295421742065018"><ele>1070.3333333333333</ele><time>2026-04-11T14:55:05Z</time></trkpt><trkpt lat="44.84013466756525" lon="9.295611238227913"><ele>1069.6666666666665</ele><time>2026-04-11T14:55:06Z</time></trkpt><trkpt lat="44.839993879842034" lon="9.295831398506033"><ele>1069.0</ele><time>2026-04-11T14:55:07Z</time></trkpt><trkpt lat="44.839907030601644" lon="9.296014346555882"><ele>1066.5</ele><time>2026-04-11T14:55:08Z</time></trkpt><trkpt lat="44.839841455318826" lon="9.296132127328123"><ele>1064.0</ele><time>2026-04-11T14:55:09Z</time></trkpt><trkpt lat="44.83980586076417" lon="9.296303342716225"><ele>1061.5</ele><time>2026-04-11T14:55:10Z</time></trkpt><trkpt lat="44.83976357061934" lon="9.296484150314575"><ele>1059.0</ele><time>2026-04-11T14:55:11Z</time></trkpt><trkpt lat="44.83974414236375" lon="9.296671800355309"><ele>1059.0</ele><time>2026-04-11T14:55:12Z</time></trkpt><trkpt lat="44.83973257549425" lon="9.296911180466243"><ele>1059.0</ele><time>2026-04-11T14:55:13Z</time></trkpt><trkpt lat="44.839719177106325" lon="9.297180923215029"><ele>1059.0</ele><time>2026-04-11T14:55:14Z</time></trkpt><trkpt lat="44.839702394816314" lon="9.297383146194656"><ele>1058.0</ele><time>2026-04-11T14:55:15Z</time></trkpt><trkpt lat="44.83970046041501" lon="9.297513721112253"><ele>1057.0</ele><time>2026-04-11T14:55:16Z</time></trkpt><trkpt lat="44.83972101161524" lon="9.297649038044815"><ele>1056.0</ele><time>2026-04-11T14:55:17Z</time></trkpt><trkpt lat="44.839760516520265" lon="9.297754479764007"><ele>1055.0</ele><time>2026-04-11T14:55:18Z</time></trkpt><trkpt lat="44.83981702482931" lon="9.297819060835772"><ele>1054.0</ele><time>2026-04-11T14:55:19Z</time></trkpt><trkpt lat="44.83992108043489" lon="9.297924351610764"><ele>1054.0</ele><time>2026-04-11T14:55:20Z</time></trkpt><trkpt lat="44.840038248726366" lon="9.298000747434173"><ele>1054.0</ele><time>2026-04-11T14:55:21Z</time></trkpt><trkpt lat="44.840161762529554" lon="9.298067979627488"><ele>1054.0</ele><time>2026-04-11T14:55:22Z</time></trkpt><trkpt lat="44.84028030174582" lon="9.29814322070266"><ele>1054.0</ele><time>2026-04-11T14:55:23Z</time></trkpt><trkpt lat="44.84037555021246" lon="9.2982349568667"><ele>1051.6000000000001</ele><time>2026-04-11T14:55:24Z</time></trkpt><trkpt lat="44.840453845530384" lon="9.298334491427042"><ele>1049.2</ele><time>2026-04-11T14:55:25Z</time></trkpt><trkpt lat="44.840513002507144" lon="9.298429480926867"><ele>1046.8000000000002</ele><time>2026-04-11T14:55:26Z</time></trkpt><trkpt lat="44.840571627061166" lon="9.298521031182064"><ele>1044.4</ele><time>2026-04-11T14:55:27Z</time></trkpt><trkpt lat="44.840608589982196" lon="9.298627616348398"><ele>1042.0</ele><time>2026-04-11T14:55:28Z</time></trkpt><trkpt lat="44.84062529725412" lon="9.298749930186384"><ele>1042.0</ele><time>2026-04-11T14:55:29Z</time></trkpt><trkpt lat="44.84064407151108" lon="9.298899515104106"><ele>1042.0</ele><time>2026-04-11T14:55:30Z</time></trkpt><trkpt lat="44.84061082155319" lon="9.299040266569861"><ele>1042.0</ele><time>2026-04-11T14:55:31Z</time></trkpt><trkpt lat="44.84057555483574" lon="9.299211176254744"><ele>1042.0</ele><time>2026-04-11T14:55:32Z</time></trkpt><trkpt lat="44.84050507586442" lon="9.29937896737041"><ele>1039.25</ele><time>2026-04-11T14:55:33Z</time></trkpt><trkpt lat="44.84042622532027" lon="9.299518448028465"><ele>1036.5</ele><time>2026-04-11T14:55:34Z</time></trkpt><trkpt lat="44.840315704157454" lon="9.299688140433517"><ele>1033.75</ele><time>2026-04-11T14:55:35Z</time></trkpt><trkpt lat="44.84021388373508" lon="9.29984458142935"><ele>1031.0</ele><time>2026-04-11T14:55:36Z</time></trkpt><trkpt lat="44.84016153201837" lon="9.299977261704973"><ele>1030.3999999999999</ele><time>2026-04-11T14:55:37Z</time></trkpt><trkpt lat="44.840128699589606" lon="9.30009436581348"><ele>1029.8</ele><time>2026-04-11T14:55:38Z</time></trkpt><trkpt lat="44.84010982916455" lon="9.300238285736686"><ele>1029.1999999999998</ele><time>2026-04-11T14:55:39Z</time></trkpt><trkpt lat="44.84008652802853" lon="9.300358467735043"><ele>1028.6</ele><time>2026-04-11T14:55:40Z</time></trkpt><trkpt lat="44.8400375028488" lon="9.300416309524138"><ele>1028.0</ele><time>2026-04-11T14:55:41Z</time></trkpt><trkpt lat="44.83993105170911" lon="9.300371517803113"><ele>1028.0</ele><time>2026-04-11T14:55:43Z</time></trkpt><trkpt lat="44.839913685952105" lon="9.300202578080865"><ele>1028.0</ele><time>2026-04-11T14:55:45Z</time></trkpt><trkpt lat="44.8399735505388" lon="9.3001116770569"><ele>1028.0</ele><time>2026-04-11T14:55:46Z</time></trkpt><trkpt lat="44.840051275335966" lon="9.29996443375701"><ele>1028.0</ele><time>2026-04-11T14:55:47Z</time></trkpt><trkpt lat="44.840122296175025" lon="9.29978924620589"><ele>1028.6</ele><time>2026-04-11T14:55:48Z</time></trkpt><trkpt lat="44.84018598062915" lon="9.299641777132203"><ele>1029.1999999999998</ele><time>2026-04-11T14:55:49Z</time></trkpt><trkpt lat="44.84024195763349" lon="9.299525686723765"><ele>1029.8</ele><time>2026-04-11T14:55:50Z</time></trkpt><trkpt lat="44.84027638911942" lon="9.299404270434279"><ele>1030.3999999999999</ele><time>2026-04-11T14:55:51Z</time></trkpt><trkpt lat="44.84026117114887" lon="9.299272458991512"><ele>1031.0</ele><time>2026-04-11T14:55:52Z</time></trkpt><trkpt lat="44.840228111955916" lon="9.299162978712172"><ele>1031.0</ele><time>2026-04-11T14:55:53Z</time></trkpt><trkpt lat="44.840139025661145" lon="9.299097913461365"><ele>1031.0</ele><time>2026-04-11T14:55:54Z</time></trkpt><trkpt lat="44.84006119670752" lon="9.29910224292239"><ele>1031.0</ele><time>2026-04-11T14:55:55Z</time></trkpt><trkpt lat="44.839986586545564" lon="9.299165737158111"><ele>1031.0</ele><time>2026-04-11T14:55:56Z</time></trkpt><trkpt lat="44.83993003601729" lon="9.299250919711374"><ele>1031.0</ele><time>2026-04-11T14:55:57Z</time></trkpt><trkpt lat="44.83984990424423" lon="9.299377105784332"><ele>1030.25</ele><time>2026-04-11T14:55:58Z</time></trkpt><trkpt lat="44.83973723055107" lon="9.299523337789104"><ele>1029.5</ele><time>2026-04-11T14:55:59Z</time></trkpt><trkpt lat="44.839618153745796" lon="9.2996727806519"><ele>1028.75</ele><time>2026-04-11T14:55:59.999Z</time></trkpt><trkpt lat="44.839511909130195" lon="9.299785474971547"><ele>1028.0</ele><time>2026-04-11T14:56:00.999Z</time></trkpt><trkpt lat="44.839426577597635" lon="9.299905993262287"><ele>1028.0</ele><time>2026-04-11T14:56:01.999Z</time></trkpt><trkpt lat="44.83933373100004" lon="9.299994904561402"><ele>1028.0</ele><time>2026-04-11T14:56:02.999Z</time></trkpt><trkpt lat="44.83923296019247" lon="9.300097336284963"><ele>1028.0</ele><time>2026-04-11T14:56:03.999Z</time></trkpt><trkpt lat="44.839138131452906" lon="9.300234540866464"><ele>1028.0</ele><time>2026-04-11T14:56:04.999Z</time></trkpt><trkpt lat="44.83904752922104" lon="9.300344684343647"><ele>1025.4</ele><time>2026-04-11T14:56:05.999Z</time></trkpt><trkpt lat="44.83896832624884" lon="9.300450532472665"><ele>1022.8</ele><time>2026-04-11T14:56:06.999Z</time></trkpt><trkpt lat="44.83889614257517" lon="9.300564504254893"><ele>1020.2</ele><time>2026-04-11T14:56:07.999Z</time></trkpt><trkpt lat="44.838832928725836" lon="9.30067293069218"><ele>1017.6</ele><time>2026-04-11T14:56:08.999Z</time></trkpt><trkpt lat="44.838805725610825" lon="9.300758098648243"><ele>1015.0</ele><time>2026-04-11T14:56:09.999Z</time></trkpt><trkpt lat="44.83878465526174" lon="9.300925205948491"><ele>1014.6</ele><time>2026-04-11T14:56:11.999Z</time></trkpt><trkpt lat="44.83882330520193" lon="9.30103451328088"><ele>1014.2</ele><time>2026-04-11T14:56:12.999Z</time></trkpt><trkpt lat="44.83888636490589" lon="9.30113238134218"><ele>1013.8</ele><time>2026-04-11T14:56:13.999Z</time></trkpt><trkpt lat="44.83895364046112" lon="9.301235178456297"><ele>1013.4</ele><time>2026-04-11T14:56:14.999Z</time></trkpt><trkpt lat="44.83904686756833" lon="9.301350914908479"><ele>1013.0</ele><time>2026-04-11T14:56:15.999Z</time></trkpt><trkpt lat="44.839139267151886" lon="9.301481755630693"><ele>1010.0</ele><time>2026-04-11T14:56:16.999Z</time></trkpt><trkpt lat="44.83920902658171" lon="9.301628732852722"><ele>1007.0</ele><time>2026-04-11T14:56:17.999Z</time></trkpt><trkpt lat="44.8392409507197" lon="9.301777283203114"><ele>1004.0</ele><time>2026-04-11T14:56:18.999Z</time></trkpt><trkpt lat="44.83922980143663" lon="9.301911181300293"><ele>1001.0</ele><time>2026-04-11T14:56:19.999Z</time></trkpt><trkpt lat="44.839224815956314" lon="9.302038744057455"><ele>998.0</ele><time>2026-04-11T14:56:20.999Z</time></trkpt><trkpt lat="44.83922416668121" lon="9.302144145495875"><ele>996.0000000000001</ele><time>2026-04-11T14:56:21.999Z</time></trkpt><trkpt lat="44.839242873725794" lon="9.30225672969227"><ele>994.0</ele><time>2026-04-11T14:56:22.999Z</time></trkpt><trkpt lat="44.839271230544995" lon="9.302342970856895"><ele>992.0</ele><time>2026-04-11T14:56:23.999Z</time></trkpt><trkpt lat="44.83932405186561" lon="9.302412702853006"><ele>990.0</ele><time>2026-04-11T14:56:24.999Z</time></trkpt><trkpt lat="44.83940163836018" lon="9.30247703704593"><ele>988.0000000000001</ele><time>2026-04-11T14:56:25.999Z</time></trkpt><trkpt lat="44.83949156210338" lon="9.302580453972656"><ele>986.0</ele><time>2026-04-11T14:56:26.999Z</time></trkpt><trkpt lat="44.839589505439534" lon="9.302669409481343"><ele>986.0000000000001</ele><time>2026-04-11T14:56:27.999Z</time></trkpt><trkpt lat="44.8396814259478" lon="9.30276059700501"><ele>986.0</ele><time>2026-04-11T14:56:28.999Z</time></trkpt><trkpt lat="44.839748625565484" lon="9.302852581576847"><ele>986.0</ele><time>2026-04-11T14:56:29.999Z</time></trkpt><trkpt lat="44.83981925361066" lon="9.302891791043905"><ele>986.0</ele><time>2026-04-11T14:56:30.999Z</time></trkpt><trkpt lat="44.83989316104962" lon="9.302893952934346"><ele>986.0000000000001</ele><time>2026-04-11T14:56:31.999Z</time></trkpt><trkpt lat="44.83995648318317" lon="9.302839846476827"><ele>986.0</ele><time>2026-04-11T14:56:32.999Z</time></trkpt><trkpt lat="44.840017240670925" lon="9.302740621509194"><ele>986.0</ele><time>2026-04-11T14:56:33.999Z</time></trkpt><trkpt lat="44.840090456728824" lon="9.302632885349094"><ele>986.0</ele><time>2026-04-11T14:56:34.999Z</time></trkpt><trkpt lat="44.84019184530713" lon="9.302473642097388"><ele>986.0</ele><time>2026-04-11T14:56:35.999Z</time></trkpt><trkpt lat="44.84029379523743" lon="9.302329267064852"><ele>986.0</ele><time>2026-04-11T14:56:36.999Z</time></trkpt><trkpt lat="44.840386801603884" lon="9.30222704162968"><ele>984.4</ele><time>2026-04-11T14:56:37.999Z</time></trkpt><trkpt lat="44.840490346441214" lon="9.302147088750548"><ele>982.8</ele><time>2026-04-11T14:56:38.999Z</time></trkpt><trkpt lat="44.8406010876707" lon="9.302066682817088"><ele>981.1999999999999</ele><time>2026-04-11T14:56:39.999Z</time></trkpt><trkpt lat="44.840679776876286" lon="9.302010991152498"><ele>979.5999999999999</ele><time>2026-04-11T14:56:40.999Z</time></trkpt><trkpt lat="44.840747375612445" lon="9.301950858365206"><ele>978.0</ele><time>2026-04-11T14:56:41.999Z</time></trkpt><trkpt lat="44.84081116404027" lon="9.301906356881705"><ele>978.0</ele><time>2026-04-11T14:56:42.999Z</time></trkpt><trkpt lat="44.8408718947605" lon="9.301839195919818"><ele>978.0</ele><time>2026-04-11T14:56:43.999Z</time></trkpt><trkpt lat="44.84091435781987" lon="9.301731152812943"><ele>978.0</ele><time>2026-04-11T14:56:44.999Z</time></trkpt><trkpt lat="44.84095852089104" lon="9.301619410702616"><ele>978.0</ele><time>2026-04-11T14:56:45.999Z</time></trkpt><trkpt lat="44.84100754286292" lon="9.301497641659624"><ele>978.0</ele><time>2026-04-11T14:56:46.999Z</time></trkpt><trkpt lat="44.84105594448952" lon="9.30140460714202"><ele>978.0</ele><time>2026-04-11T14:56:47.999Z</time></trkpt><trkpt lat="44.841106875915614" lon="9.301349006696537"><ele>972.8</ele><time>2026-04-11T14:56:48.999Z</time></trkpt><trkpt lat="44.84115902751958" lon="9.30142990823753"><ele>967.5999999999999</ele><time>2026-04-11T14:56:50.999Z</time></trkpt><trkpt lat="44.84108829213104" lon="9.30158544141158"><ele>962.4000000000001</ele><time>2026-04-11T14:56:52.999Z</time></trkpt><trkpt lat="44.84104727064142" lon="9.301691884080187"><ele>957.2</ele><time>2026-04-11T14:56:54Z</time></trkpt><trkpt lat="44.841006884128944" lon="9.301872210726748"><ele>952.0</ele><time>2026-04-11T14:56:55.001Z</time></trkpt><trkpt lat="44.841010606181676" lon="9.302068069637565"><ele>949.75</ele><time>2026-04-11T14:56:56Z</time></trkpt><trkpt lat="44.84102102340956" lon="9.302267649050512"><ele>947.5</ele><time>2026-04-11T14:56:57.001Z</time></trkpt><trkpt lat="44.841046682171935" lon="9.30249144112851"><ele>945.25</ele><time>2026-04-11T14:56:58.001Z</time></trkpt><trkpt lat="44.84104062407977" lon="9.302674866483855"><ele>943.0</ele><time>2026-04-11T14:56:59Z</time></trkpt><trkpt lat="44.84100724614993" lon="9.302847014780097"><ele>943.0</ele><time>2026-04-11T14:57:00.001Z</time></trkpt><trkpt lat="44.84097784031964" lon="9.303011183476551"><ele>943.0</ele><time>2026-04-11T14:57:01.001Z</time></trkpt><trkpt lat="44.84095619475804" lon="9.303190336133447"><ele>943.0</ele><time>2026-04-11T14:57:02Z</time></trkpt><trkpt lat="44.84091844213353" lon="9.303351783656721"><ele>943.0</ele><time>2026-04-11T14:57:03.001Z</time></trkpt><trkpt lat="44.8408812130696" lon="9.303514305567097"><ele>942.25</ele><time>2026-04-11T14:57:04.001Z</time></trkpt><trkpt lat="44.84084250158098" lon="9.303670547084597"><ele>941.5</ele><time>2026-04-11T14:57:05Z</time></trkpt><trkpt lat="44.84080489601577" lon="9.303835284796538"><ele>940.75</ele><time>2026-04-11T14:57:06Z</time></trkpt><trkpt lat="44.840748937927394" lon="9.304029656308925"><ele>940.0</ele><time>2026-04-11T14:57:07Z</time></trkpt><trkpt lat="44.84069893691916" lon="9.30419425913462"><ele>940.0</ele><time>2026-04-11T14:57:08Z</time></trkpt><trkpt lat="44.84065135611577" lon="9.304346554158709"><ele>940.0</ele><time>2026-04-11T14:57:09Z</time></trkpt><trkpt lat="44.84061751804842" lon="9.304467166945848"><ele>940.0</ele><time>2026-04-11T14:57:10Z</time></trkpt><trkpt lat="44.840556144070014" lon="9.304591596171745"><ele>940.0</ele><time>2026-04-11T14:57:11Z</time></trkpt><trkpt lat="44.84050002398731" lon="9.304715278997604"><ele>940.0</ele><time>2026-04-11T14:57:12Z</time></trkpt><trkpt lat="44.84044685036929" lon="9.304812388103548"><ele>940.5</ele><time>2026-04-11T14:57:13Z</time></trkpt><trkpt lat="44.84038457884612" lon="9.304883351984435"><ele>941.0</ele><time>2026-04-11T14:57:14Z</time></trkpt><trkpt lat="44.8403308037785" lon="9.304949893803562"><ele>941.5</ele><time>2026-04-11T14:57:16Z</time></trkpt><trkpt lat="44.840161485627036" lon="9.304772249845847"><ele>942.0</ele><time>2026-04-11T14:57:18Z</time></trkpt><trkpt lat="44.840103944962806" lon="9.304636474154076"><ele>942.0</ele><time>2026-04-11T14:57:19Z</time></trkpt><trkpt lat="44.84004642650253" lon="9.3045230379359"><ele>942.0</ele><time>2026-04-11T14:57:20Z</time></trkpt><trkpt lat="44.83998552787698" lon="9.304482946983672"><ele>942.0</ele><time>2026-04-11T14:57:21Z</time></trkpt><trkpt lat="44.83991080749782" lon="9.30450810924971"><ele>942.0</ele><time>2026-04-11T14:57:22Z</time></trkpt><trkpt lat="44.83982345565258" lon="9.304568277310793"><ele>942.0</ele><time>2026-04-11T14:57:23Z</time></trkpt><trkpt lat="44.8397285332195" lon="9.304693302468621"><ele>942.0</ele><time>2026-04-11T14:57:24Z</time></trkpt><trkpt lat="44.83963131503914" lon="9.304802747876574"><ele>942.0</ele><time>2026-04-11T14:57:25Z</time></trkpt><trkpt lat="44.83955650150382" lon="9.304817725024062"><ele>942.0</ele><time>2026-04-11T14:57:26Z</time></trkpt><trkpt lat="44.839502452899765" lon="9.304748333148117"><ele>942.0</ele><time>2026-04-11T14:57:27Z</time></trkpt><trkpt lat="44.83945630505595" lon="9.304659776246488"><ele>942.0</ele><time>2026-04-11T14:57:28Z</time></trkpt><trkpt lat="44.839412230914945" lon="9.304518708969098"><ele>942.0</ele><time>2026-04-11T14:57:29Z</time></trkpt><trkpt lat="44.83937393594557" lon="9.304313613229363"><ele>942.0</ele><time>2026-04-11T14:57:30Z</time></trkpt><trkpt lat="44.83933775306671" lon="9.304114162235159"><ele>942.0</ele><time>2026-04-11T14:57:31Z</time></trkpt><trkpt lat="44.83931370106733" lon="9.304001945356877"><ele>942.0</ele><time>2026-04-11T14:57:32Z</time></trkpt><trkpt lat="44.83921765756268" lon="9.303849168547666"><ele>943.5</ele><time>2026-04-11T14:57:34Z</time></trkpt><trkpt lat="44.83913844489517" lon="9.303856633465125"><ele>945.0</ele><time>2026-04-11T14:57:35Z</time></trkpt><trkpt lat="44.83906169334619" lon="9.30389116722511"><ele>946.5</ele><time>2026-04-11T14:57:36Z</time></trkpt><trkpt lat="44.83899374629204" lon="9.30395338383547"><ele>948.0</ele><time>2026-04-11T14:57:37Z</time></trkpt><trkpt lat="44.83898710906498" lon="9.304070410460493"><ele>949.5</ele><time>2026-04-11T14:57:38Z</time></trkpt><trkpt lat="44.83901265259438" lon="9.304193284505914"><ele>951.0</ele><time>2026-04-11T14:57:39Z</time></trkpt><trkpt lat="44.83902402911092" lon="9.304370386321576"><ele>945.8</ele><time>2026-04-11T14:57:40Z</time></trkpt><trkpt lat="44.838995492463596" lon="9.304491898952222"><ele>940.5999999999999</ele><time>2026-04-11T14:57:41Z</time></trkpt><trkpt lat="44.83892455662923" lon="9.304497421700507"><ele>935.4</ele><time>2026-04-11T14:57:42Z</time></trkpt><trkpt lat="44.83884526410851" lon="9.304521862155221"><ele>930.2</ele><time>2026-04-11T14:57:43Z</time></trkpt><trkpt lat="44.83872265886468" lon="9.304586947608868"><ele>925.0</ele><time>2026-04-11T14:57:44Z</time></trkpt><trkpt lat="44.83862417753998" lon="9.304660518436075"><ele>925.0</ele><time>2026-04-11T14:57:45Z</time></trkpt><trkpt lat="44.838523799446776" lon="9.304726659895001"><ele>925.0</ele><time>2026-04-11T14:57:46Z</time></trkpt><trkpt lat="44.8384469283125" lon="9.304849271134035"><ele>925.0</ele><time>2026-04-11T14:57:48Z</time></trkpt><trkpt lat="44.83842072183245" lon="9.304986942351416"><ele>925.0</ele><time>2026-04-11T14:57:50Z</time></trkpt><trkpt lat="44.838680056241884" lon="9.305135361496676"><ele>923.5</ele><time>2026-04-11T14:57:53Z</time></trkpt><trkpt lat="44.83880148633065" lon="9.30516094898216"><ele>922.0</ele><time>2026-04-11T14:57:54Z</time></trkpt><trkpt lat="44.838920339193805" lon="9.305190172617914"><ele>920.5</ele><time>2026-04-11T14:57:55Z</time></trkpt><trkpt lat="44.83904161457486" lon="9.305241929385538"><ele>919.0</ele><time>2026-04-11T14:57:56Z</time></trkpt><trkpt lat="44.83915099549629" lon="9.30535570673146"><ele>919.0</ele><time>2026-04-11T14:57:57Z</time></trkpt><trkpt lat="44.8392587560856" lon="9.305511573847614"><ele>919.0</ele><time>2026-04-11T14:57:58Z</time></trkpt><trkpt lat="44.839361410936355" lon="9.305680527760833"><ele>919.0</ele><time>2026-04-11T14:57:59Z</time></trkpt><trkpt lat="44.83944569217953" lon="9.305843113251052"><ele>919.5</ele><time>2026-04-11T14:58:00Z</time></trkpt><trkpt lat="44.83950479095019" lon="9.306010328387302"><ele>920.0</ele><time>2026-04-11T14:58:01Z</time></trkpt><trkpt lat="44.839541999196165" lon="9.306173226639896"><ele>920.5</ele><time>2026-04-11T14:58:02Z</time></trkpt><trkpt lat="44.83953545617944" lon="9.30634195714367"><ele>921.0</ele><time>2026-04-11T14:58:03Z</time></trkpt><trkpt lat="44.83952260703201" lon="9.30649826571315"><ele>918.0</ele><time>2026-04-11T14:58:03.999Z</time></trkpt><trkpt lat="44.839542677890144" lon="9.30664210233634"><ele>915.0</ele><time>2026-04-11T14:58:04.999Z</time></trkpt><trkpt lat="44.83960927811337" lon="9.306780231384275"><ele>912.0</ele><time>2026-04-11T14:58:05.999Z</time></trkpt><trkpt lat="44.83970986081918" lon="9.30691554439093"><ele>909.0</ele><time>2026-04-11T14:58:06.999Z</time></trkpt><trkpt lat="44.839830998498435" lon="9.307044496053328"><ele>909.0</ele><time>2026-04-11T14:58:07.999Z</time></trkpt><trkpt lat="44.83996073347222" lon="9.307162166261799"><ele>909.0</ele><time>2026-04-11T14:58:08.999Z</time></trkpt><trkpt lat="44.84009948671733" lon="9.307274933897721"><ele>909.0</ele><time>2026-04-11T14:58:09.999Z</time></trkpt><trkpt lat="44.84022911869503" lon="9.307408464224592"><ele>908.0</ele><time>2026-04-11T14:58:10.999Z</time></trkpt><trkpt lat="44.84033083973594" lon="9.307548997666252"><ele>907.0</ele><time>2026-04-11T14:58:11.999Z</time></trkpt><trkpt lat="44.840395663124994" lon="9.307710904202533"><ele>906.0</ele><time>2026-04-11T14:58:12.999Z</time></trkpt><trkpt lat="44.84041373254308" lon="9.307889329874282"><ele>905.0</ele><time>2026-04-11T14:58:13.999Z</time></trkpt><trkpt lat="44.840429275068445" lon="9.308051035833026"><ele>903.2</ele><time>2026-04-11T14:58:14.999Z</time></trkpt><trkpt lat="44.84046014734427" lon="9.308195683695953"><ele>901.4</ele><time>2026-04-11T14:58:15.999Z</time></trkpt><trkpt lat="44.840498188407075" lon="9.308332730619316"><ele>899.5999999999999</ele><time>2026-04-11T14:58:16.999Z</time></trkpt><trkpt lat="44.84054688028781" lon="9.308451431135104"><ele>897.8</ele><time>2026-04-11T14:58:17.999Z</time></trkpt><trkpt lat="44.84061053050646" lon="9.308528561586918"><ele>896.0</ele><time>2026-04-11T14:58:18.999Z</time></trkpt><trkpt lat="44.84070108625292" lon="9.308563119514066"><ele>896.0</ele><time>2026-04-11T14:58:19.999Z</time></trkpt><trkpt lat="44.840805960678594" lon="9.308568558634471"><ele>896.0</ele><time>2026-04-11T14:58:20.999Z</time></trkpt><trkpt lat="44.84090786745797" lon="9.308521548856154"><ele>896.0</ele><time>2026-04-11T14:58:21.999Z</time></trkpt><trkpt lat="44.84100583445272" lon="9.308440953461327"><ele>896.0</ele><time>2026-04-11T14:58:22.999Z</time></trkpt><trkpt lat="44.841117950728176" lon="9.308363558386889"><ele>893.75</ele><time>2026-04-11T14:58:23.999Z</time></trkpt><trkpt lat="44.841243686464445" lon="9.308303986264892"><ele>891.5</ele><time>2026-04-11T14:58:24.999Z</time></trkpt><trkpt lat="44.841383349997294" lon="9.30826898960167"><ele>889.25</ele><time>2026-04-11T14:58:25.999Z</time></trkpt><trkpt lat="44.841518725856325" lon="9.308279273557519"><ele>887.0</ele><time>2026-04-11T14:58:26.999Z</time></trkpt><trkpt lat="44.84164091589995" lon="9.308332113538214"><ele>887.0</ele><time>2026-04-11T14:58:27.999Z</time></trkpt><trkpt lat="44.84174237904455" lon="9.3084281194498"><ele>887.0</ele><time>2026-04-11T14:58:28.999Z</time></trkpt><trkpt lat="44.841825320971836" lon="9.308557043209177"><ele>887.0</ele><time>2026-04-11T14:58:29.999Z</time></trkpt><trkpt lat="44.84188362206357" lon="9.308664476896222"><ele>887.0</ele><time>2026-04-11T14:58:30.999Z</time></trkpt><trkpt lat="44.84195623431946" lon="9.308761259748913"><ele>887.0</ele><time>2026-04-11T14:58:32.999Z</time></trkpt><trkpt lat="44.842060422062936" lon="9.308861879274819"><ele>884.8</ele><time>2026-04-11T14:58:34.999Z</time></trkpt><trkpt lat="44.84218791401124" lon="9.308918887268353"><ele>882.6</ele><time>2026-04-11T14:58:36.999Z</time></trkpt><trkpt lat="44.8422672983334" lon="9.308921028567584"><ele>880.3999999999999</ele><time>2026-04-11T14:58:37.999Z</time></trkpt><trkpt lat="44.84240267483249" lon="9.30896154764665"><ele>878.1999999999999</ele><time>2026-04-11T14:58:39.999Z</time></trkpt><trkpt lat="44.84248301199447" lon="9.309003933060998"><ele>876.0</ele><time>2026-04-11T14:58:40.999Z</time></trkpt><trkpt lat="44.84255756710696" lon="9.309045070331726"><ele>873.8333333333334</ele><time>2026-04-11T14:58:41.999Z</time></trkpt><trkpt lat="44.84263196438112" lon="9.30908571783237"><ele>871.6666666666667</ele><time>2026-04-11T14:58:42.999Z</time></trkpt><trkpt lat="44.84270751540288" lon="9.309125505322218"><ele>869.5</ele><time>2026-04-11T14:58:43.999Z</time></trkpt><trkpt lat="44.84277334183104" lon="9.30916165837745"><ele>867.3333333333334</ele><time>2026-04-11T14:58:44.999Z</time></trkpt><trkpt lat="44.84284239289273" lon="9.309088713733768"><ele>865.1666666666667</ele><time>2026-04-11T14:58:47.999Z</time></trkpt><trkpt lat="44.84282691991876" lon="9.308912064377889"><ele>863.0</ele><time>2026-04-11T14:58:49.999Z</time></trkpt><trkpt lat="44.84280383367212" lon="9.308782020391703"><ele>862.25</ele><time>2026-04-11T14:58:50.999Z</time></trkpt><trkpt lat="44.84277300299633" lon="9.308646368736495"><ele>861.5</ele><time>2026-04-11T14:58:51.999Z</time></trkpt><trkpt lat="44.84274482539147" lon="9.308483340678679"><ele>860.75</ele><time>2026-04-11T14:58:52.999Z</time></trkpt><trkpt lat="44.84272754015009" lon="9.308307500691537"><ele>860.0</ele><time>2026-04-11T14:58:53.999Z</time></trkpt><trkpt lat="44.84273516605995" lon="9.308108973834123"><ele>859.5</ele><time>2026-04-11T14:58:54.999Z</time></trkpt><trkpt lat="44.84275646772337" lon="9.307907530654724"><ele>859.0</ele><time>2026-04-11T14:58:55.999Z</time></trkpt><trkpt lat="44.842780396934224" lon="9.307732542838538"><ele>858.5</ele><time>2026-04-11T14:58:56.999Z</time></trkpt><trkpt lat="44.842799307315744" lon="9.307564956978617"><ele>858.0</ele><time>2026-04-11T14:58:57.999Z</time></trkpt><trkpt lat="44.8428110237658" lon="9.30740624976482"><ele>858.0</ele><time>2026-04-11T14:58:58.999Z</time></trkpt><trkpt lat="44.84283430805341" lon="9.307251382242416"><ele>858.0</ele><time>2026-04-11T14:59:00Z</time></trkpt><trkpt lat="44.84287976211452" lon="9.307100349650591"><ele>858.0</ele><time>2026-04-11T14:59:01Z</time></trkpt><trkpt lat="44.84295115455051" lon="9.30695833281985"><ele>858.0</ele><time>2026-04-11T14:59:02Z</time></trkpt><trkpt lat="44.84303241475183" lon="9.306816494321385"><ele>859.0</ele><time>2026-04-11T14:59:03Z</time></trkpt><trkpt lat="44.84311003877911" lon="9.306668465104256"><ele>860.0</ele><time>2026-04-11T14:59:04Z</time></trkpt><trkpt lat="44.84318930209869" lon="9.306557702329249"><ele>861.0</ele><time>2026-04-11T14:59:05Z</time></trkpt><trkpt lat="44.843266240173925" lon="9.306457199452963"><ele>862.0</ele><time>2026-04-11T14:59:06Z</time></trkpt><trkpt lat="44.84334537567606" lon="9.306348168171127"><ele>860.6</ele><time>2026-04-11T14:59:07Z</time></trkpt><trkpt lat="44.84341718915718" lon="9.306212800796995"><ele>859.2</ele><time>2026-04-11T14:59:08Z</time></trkpt><trkpt lat="44.84346920144603" lon="9.306086194836077"><ele>857.8</ele><time>2026-04-11T14:59:09Z</time></trkpt><trkpt lat="44.8435530637458" lon="9.305996947763456"><ele>856.4</ele><time>2026-04-11T14:59:10Z</time></trkpt><trkpt lat="44.843647022272414" lon="9.305933163919617"><ele>855.0</ele><time>2026-04-11T14:59:11Z</time></trkpt><trkpt lat="44.843741185065994" lon="9.305887354605298"><ele>855.0</ele><time>2026-04-11T14:59:12Z</time></trkpt><trkpt lat="44.84384232599125" lon="9.30580483718144"><ele>855.0</ele><time>2026-04-11T14:59:13Z</time></trkpt><trkpt lat="44.843947009333164" lon="9.305700196520498"><ele>855.0</ele><time>2026-04-11T14:59:14Z</time></trkpt><trkpt lat="44.84404912260318" lon="9.305596711502943"><ele>855.0</ele><time>2026-04-11T14:59:15Z</time></trkpt><trkpt lat="44.8441549783793" lon="9.305489464096802"><ele>854.75</ele><time>2026-04-11T14:59:16Z</time></trkpt><trkpt lat="44.84426345917994" lon="9.305399513527098"><ele>854.5</ele><time>2026-04-11T14:59:17Z</time></trkpt><trkpt lat="44.844361918507744" lon="9.305328297950467"><ele>854.25</ele><time>2026-04-11T14:59:18Z</time></trkpt><trkpt lat="44.844473077143135" lon="9.305273871661889"><ele>854.0</ele><time>2026-04-11T14:59:19Z</time></trkpt><trkpt lat="44.844578871755886" lon="9.30519642090389"><ele>854.0</ele><time>2026-04-11T14:59:20Z</time></trkpt><trkpt lat="44.84467459482497" lon="9.305108573578968"><ele>854.0000000000001</ele><time>2026-04-11T14:59:21Z</time></trkpt><trkpt lat="44.84475462954342" lon="9.305000830524026"><ele>854.0000000000001</ele><time>2026-04-11T14:59:22Z</time></trkpt><trkpt lat="44.84480413952629" lon="9.304922672246198"><ele>854.0</ele><time>2026-04-11T14:59:23Z</time></trkpt><trkpt lat="44.84481108196797" lon="9.304759403846274"><ele>854.0</ele><time>2026-04-11T14:59:25Z</time></trkpt><trkpt lat="44.84481604729664" lon="9.304646849172059"><ele>854.3333333333334</ele><time>2026-04-11T14:59:26Z</time></trkpt><trkpt lat="44.84484685866825" lon="9.304548275822471"><ele>854.6666666666667</ele><time>2026-04-11T14:59:27Z</time></trkpt><trkpt lat="44.84488793874132" lon="9.304464767924909"><ele>855.0</ele><time>2026-04-11T14:59:28Z</time></trkpt><trkpt lat="44.844946990915076" lon="9.304373697719896"><ele>855.3333333333333</ele><time>2026-04-11T14:59:29Z</time></trkpt><trkpt lat="44.84500320123826" lon="9.30428802586791"><ele>855.6666666666666</ele><time>2026-04-11T14:59:30Z</time></trkpt><trkpt lat="44.84507947307483" lon="9.304175935449551"><ele>856.0</ele><time>2026-04-11T14:59:31Z</time></trkpt><trkpt lat="44.845166615607724" lon="9.30407784038694"><ele>855.9999999999999</ele><time>2026-04-11T14:59:32Z</time></trkpt><trkpt lat="44.84524660208419" lon="9.303994587893024"><ele>856.0</ele><time>2026-04-11T14:59:33Z</time></trkpt><trkpt lat="44.845320244669594" lon="9.303909073589098"><ele>856.0</ele><time>2026-04-11T14:59:34Z</time></trkpt><trkpt lat="44.84535313202118" lon="9.303812387526767"><ele>856.0</ele><time>2026-04-11T14:59:35Z</time></trkpt><trkpt lat="44.84536878678417" lon="9.303692825988144"><ele>855.9999999999999</ele><time>2026-04-11T14:59:36Z</time></trkpt><trkpt lat="44.84536256616437" lon="9.303582072471224"><ele>856.0</ele><time>2026-04-11T14:59:37Z</time></trkpt><trkpt lat="44.84529286034502" lon="9.303379392364025"><ele>857.1666666666666</ele><time>2026-04-11T14:59:39Z</time></trkpt><trkpt lat="44.845238212096504" lon="9.303279351148916"><ele>858.3333333333333</ele><time>2026-04-11T14:59:40Z</time></trkpt><trkpt lat="44.84522588128913" lon="9.303158204209197"><ele>859.5</ele><time>2026-04-11T14:59:41Z</time></trkpt><trkpt lat="44.845252315013234" lon="9.303038130701914"><ele>860.6666666666667</ele><time>2026-04-11T14:59:42Z</time></trkpt><trkpt lat="44.84528806226819" lon="9.302942764950997"><ele>861.8333333333334</ele><time>2026-04-11T14:59:43Z</time></trkpt><trkpt lat="44.84536289603347" lon="9.302883779458837"><ele>863.0</ele><time>2026-04-11T14:59:44Z</time></trkpt><trkpt lat="44.84544940555562" lon="9.30281252634467"><ele>864.4</ele><time>2026-04-11T14:59:45Z</time></trkpt><trkpt lat="44.84554078179843" lon="9.302701399894755"><ele>865.8</ele><time>2026-04-11T14:59:46Z</time></trkpt><trkpt lat="44.84561527838188" lon="9.302598806371199"><ele>867.2</ele><time>2026-04-11T14:59:47Z</time></trkpt><trkpt lat="44.84567923011256" lon="9.302571311821335"><ele>868.6</ele><time>2026-04-11T14:59:48Z</time></trkpt><trkpt lat="44.845768851624534" lon="9.302577287043736"><ele>870.0</ele><time>2026-04-11T14:59:49Z</time></trkpt><trkpt lat="44.845874229468706" lon="9.302545126077437"><ele>870.0</ele><time>2026-04-11T14:59:50Z</time></trkpt><trkpt lat="44.845960907365054" lon="9.302480130956972"><ele>870.0</ele><time>2026-04-11T14:59:51Z</time></trkpt><trkpt lat="44.84604025641675" lon="9.302369631612866"><ele>870.0</ele><time>2026-04-11T14:59:52Z</time></trkpt><trkpt lat="44.846107820979164" lon="9.302257889932399"><ele>870.0</ele><time>2026-04-11T14:59:53Z</time></trkpt><trkpt lat="44.84615635600239" lon="9.30215804576724"><ele>870.0</ele><time>2026-04-11T14:59:54Z</time></trkpt><trkpt lat="44.84617728349023" lon="9.302029790717665"><ele>871.6</ele><time>2026-04-11T14:59:55Z</time></trkpt><trkpt lat="44.84620314553742" lon="9.30187500708672"><ele>873.2</ele><time>2026-04-11T14:59:56Z</time></trkpt><trkpt lat="44.84625384694734" lon="9.301778522075178"><ele>874.8</ele><time>2026-04-11T14:59:57Z</time></trkpt><trkpt lat="44.846330591832384" lon="9.301746941256123"><ele>876.4</ele><time>2026-04-11T14:59:58Z</time></trkpt><trkpt lat="44.84642822915438" lon="9.30173489634312"><ele>878.0</ele><time>2026-04-11T14:59:59Z</time></trkpt><trkpt lat="44.84653435099" lon="9.30176096142343"><ele>878.0</ele><time>2026-04-11T15:00:00Z</time></trkpt><trkpt lat="44.84661601507666" lon="9.301770963431167"><ele>878.0</ele><time>2026-04-11T15:00:01Z</time></trkpt><trkpt lat="44.84673147573925" lon="9.301684112353376"><ele>878.0</ele><time>2026-04-11T15:00:03Z</time></trkpt><trkpt lat="44.84679969414285" lon="9.301594428498227"><ele>878.0</ele><time>2026-04-11T15:00:04Z</time></trkpt><trkpt lat="44.84686482823085" lon="9.301497795520495"><ele>878.0</ele><time>2026-04-11T15:00:05Z</time></trkpt><trkpt lat="44.84691596671531" lon="9.301397975838013"><ele>880.3333333333334</ele><time>2026-04-11T15:00:06Z</time></trkpt><trkpt lat="44.846948232132476" lon="9.301286692384341"><ele>882.6666666666667</ele><time>2026-04-11T15:00:07Z</time></trkpt><trkpt lat="44.84698650521355" lon="9.301207047880741"><ele>885.0</ele><time>2026-04-11T15:00:08Z</time></trkpt><trkpt lat="44.84704408422639" lon="9.301128112267932"><ele>887.3333333333333</ele><time>2026-04-11T15:00:09Z</time></trkpt><trkpt lat="44.84711706609739" lon="9.301034912256945"><ele>889.6666666666666</ele><time>2026-04-11T15:00:10Z</time></trkpt><trkpt lat="44.847183252671684" lon="9.300932839033925"><ele>892.0</ele><time>2026-04-11T15:00:11Z</time></trkpt><trkpt lat="44.847255429990035" lon="9.300821998917248"><ele>892.0</ele><time>2026-04-11T15:00:12Z</time></trkpt><trkpt lat="44.847323887738476" lon="9.300689307115826"><ele>892.0</ele><time>2026-04-11T15:00:13Z</time></trkpt><trkpt lat="44.84739083282578" lon="9.30057567070997"><ele>892.0</ele><time>2026-04-11T15:00:14Z</time></trkpt><trkpt lat="44.84745145371411" lon="9.300512324619616"><ele>892.0</ele><time>2026-04-11T15:00:15Z</time></trkpt><trkpt lat="44.84753076424053" lon="9.300451686403836"><ele>892.0</ele><time>2026-04-11T15:00:17Z</time></trkpt><trkpt lat="44.84749423765775" lon="9.300328115169393"><ele>892.0</ele><time>2026-04-11T15:00:18.999Z</time></trkpt><trkpt lat="44.84741813653706" lon="9.300366429748841"><ele>892.0</ele><time>2026-04-11T15:00:20.999Z</time></trkpt><trkpt lat="44.847422904369544" lon="9.300482039911767"><ele>892.0</ele><time>2026-04-11T15:00:23.999Z</time></trkpt><trkpt lat="44.84750040655983" lon="9.300577540458422"><ele>892.0</ele><time>2026-04-11T15:00:25.999Z</time></trkpt><trkpt lat="44.847579789469115" lon="9.300652337876622"><ele>892.0</ele><time>2026-04-11T15:00:27.999Z</time></trkpt><trkpt lat="44.84767441032571" lon="9.300825778150898"><ele>890.25</ele><time>2026-04-11T15:00:29.999Z</time></trkpt><trkpt lat="44.8477505406446" lon="9.300943457697558"><ele>888.5</ele><time>2026-04-11T15:00:30.999Z</time></trkpt><trkpt lat="44.84782859356291" lon="9.301069516917869"><ele>886.75</ele><time>2026-04-11T15:00:31.999Z</time></trkpt><trkpt lat="44.847909278290985" lon="9.301204904674316"><ele>885.0</ele><time>2026-04-11T15:00:32.999Z</time></trkpt><trkpt lat="44.8479875599145" lon="9.301347402602978"><ele>886.5</ele><time>2026-04-11T15:00:33.999Z</time></trkpt><trkpt lat="44.848065600030324" lon="9.301494854830707"><ele>888.0</ele><time>2026-04-11T15:00:34.999Z</time></trkpt><trkpt lat="44.84815195085838" lon="9.3016495987004"><ele>889.5</ele><time>2026-04-11T15:00:35.999Z</time></trkpt><trkpt lat="44.84823647505349" lon="9.301800250357351"><ele>891.0</ele><time>2026-04-11T15:00:36.999Z</time></trkpt><trkpt lat="44.84831110766544" lon="9.301930199026186"><ele>891.0</ele><time>2026-04-11T15:00:37.999Z</time></trkpt><trkpt lat="44.848376232158046" lon="9.302027963312819"><ele>890.9999999999999</ele><time>2026-04-11T15:00:38.999Z</time></trkpt><trkpt lat="44.84845015933729" lon="9.302102506157775"><ele>890.9999999999999</ele><time>2026-04-11T15:00:39.999Z</time></trkpt><trkpt lat="44.84855189859627" lon="9.302160831504445"><ele>891.0</ele><time>2026-04-11T15:00:40.999Z</time></trkpt><trkpt lat="44.84865007015219" lon="9.302215389964184"><ele>891.0</ele><time>2026-04-11T15:00:41.999Z</time></trkpt><trkpt lat="44.84872306373694" lon="9.302212641252096"><ele>888.5999999999999</ele><time>2026-04-11T15:00:42.999Z</time></trkpt><trkpt lat="44.84880460547108" lon="9.302203226366439"><ele>886.1999999999999</ele><time>2026-04-11T15:00:43.999Z</time></trkpt><trkpt lat="44.848885720702505" lon="9.302156745037141"><ele>883.8000000000001</ele><time>2026-04-11T15:00:44.999Z</time></trkpt><trkpt lat="44.84896034991334" lon="9.302127971776088"><ele>881.4000000000001</ele><time>2026-04-11T15:00:45.999Z</time></trkpt><trkpt lat="44.84898683210314" lon="9.302014461200631"><ele>879.0</ele><time>2026-04-11T15:00:47.999Z</time></trkpt><trkpt lat="44.84887970428871" lon="9.301928172051545"><ele>879.0</ele><time>2026-04-11T15:00:49.999Z</time></trkpt><trkpt lat="44.84879034208484" lon="9.301912363540255"><ele>879.0000000000001</ele><time>2026-04-11T15:00:50.999Z</time></trkpt><trkpt lat="44.84869452737016" lon="9.301854247097847"><ele>879.0000000000001</ele><time>2026-04-11T15:00:51.999Z</time></trkpt><trkpt lat="44.848636246674225" lon="9.301746700981447"><ele>879.0</ele><time>2026-04-11T15:00:52.999Z</time></trkpt><trkpt lat="44.84858521660492" lon="9.301595550361554"><ele>879.0</ele><time>2026-04-11T15:00:53.999Z</time></trkpt><trkpt lat="44.84853957945737" lon="9.301425432086571"><ele>880.2</ele><time>2026-04-11T15:00:54.999Z</time></trkpt><trkpt lat="44.848484522724036" lon="9.30125297757433"><ele>881.4000000000001</ele><time>2026-04-11T15:00:55.999Z</time></trkpt><trkpt lat="44.84844126445846" lon="9.301106307342444"><ele>882.6</ele><time>2026-04-11T15:00:56.999Z</time></trkpt><trkpt lat="44.84841800110381" lon="9.300992846514292"><ele>883.8</ele><time>2026-04-11T15:00:57.999Z</time></trkpt><trkpt lat="44.848422727182005" lon="9.300903653016272"><ele>885.0</ele><time>2026-04-11T15:00:58.999Z</time></trkpt><trkpt lat="44.84844454708675" lon="9.300791387749818"><ele>882.0</ele><time>2026-04-11T15:00:59.999Z</time></trkpt><trkpt lat="44.84848430516486" lon="9.30063946781664"><ele>879.0</ele><time>2026-04-11T15:01:00.999Z</time></trkpt><trkpt lat="44.84851508668143" lon="9.300454099856688"><ele>876.0</ele><time>2026-04-11T15:01:01.999Z</time></trkpt><trkpt lat="44.848539478381845" lon="9.300315428996678"><ele>873.0</ele><time>2026-04-11T15:01:02.999Z</time></trkpt><trkpt lat="44.848592570133945" lon="9.30020363373611"><ele>870.0</ele><time>2026-04-11T15:01:03.999Z</time></trkpt><trkpt lat="44.84868289936614" lon="9.300075365218632"><ele>868.4</ele><time>2026-04-11T15:01:04.999Z</time></trkpt><trkpt lat="44.84876191202604" lon="9.29993977374887"><ele>866.8</ele><time>2026-04-11T15:01:06.001Z</time></trkpt><trkpt lat="44.84881789466614" lon="9.299830945950935"><ele>865.2</ele><time>2026-04-11T15:01:07.001Z</time></trkpt><trkpt lat="44.84884371141466" lon="9.299732140628143"><ele>863.6</ele><time>2026-04-11T15:01:08.001Z</time></trkpt><trkpt lat="44.84884439956804" lon="9.29959947090734"><ele>862.0</ele><time>2026-04-11T15:01:09.001Z</time></trkpt><trkpt lat="44.84884780298552" lon="9.299450614081529"><ele>858.8</ele><time>2026-04-11T15:01:10.001Z</time></trkpt><trkpt lat="44.84884062726468" lon="9.299295264060456"><ele>855.6</ele><time>2026-04-11T15:01:11.001Z</time></trkpt><trkpt lat="44.848817527722986" lon="9.299158163596243"><ele>852.4</ele><time>2026-04-11T15:01:12.001Z</time></trkpt><trkpt lat="44.84878623100841" lon="9.299029422021345"><ele>849.1999999999999</ele><time>2026-04-11T15:01:13.001Z</time></trkpt><trkpt lat="44.848756868324045" lon="9.298886160993602"><ele>846.0</ele><time>2026-04-11T15:01:14.001Z</time></trkpt><trkpt lat="44.84871609726168" lon="9.298757080168754"><ele>843.1999999999999</ele><time>2026-04-11T15:01:15.001Z</time></trkpt><trkpt lat="44.84868191170947" lon="9.2986116193989"><ele>840.4</ele><time>2026-04-11T15:01:16.001Z</time></trkpt><trkpt lat="44.848639076448165" lon="9.298456739518494"><ele>837.6</ele><time>2026-04-11T15:01:17.001Z</time></trkpt><trkpt lat="44.848604075349826" lon="9.298323915037919"><ele>834.8</ele><time>2026-04-11T15:01:18.001Z</time></trkpt><trkpt lat="44.848558369776875" lon="9.298202584006605"><ele>832.0</ele><time>2026-04-11T15:01:19.001Z</time></trkpt><trkpt lat="44.8484969656341" lon="9.298079311395494"><ele>830.1666666666666</ele><time>2026-04-11T15:01:20.001Z</time></trkpt><trkpt lat="44.84845008306895" lon="9.297965417079986"><ele>828.3333333333333</ele><time>2026-04-11T15:01:21.001Z</time></trkpt><trkpt lat="44.848437560634785" lon="9.297872112450131"><ele>826.5</ele><time>2026-04-11T15:01:22.001Z</time></trkpt><trkpt lat="44.84850920476398" lon="9.297695110572592"><ele>824.6666666666667</ele><time>2026-04-11T15:01:24.001Z</time></trkpt><trkpt lat="44.848531696146004" lon="9.297591375830791"><ele>822.8333333333334</ele><time>2026-04-11T15:01:25Z</time></trkpt><trkpt lat="44.848506807396575" lon="9.297509683770828"><ele>821.0</ele><time>2026-04-11T15:01:26Z</time></trkpt><trkpt lat="44.84847586313609" lon="9.297397507588245"><ele>821.4</ele><time>2026-04-11T15:01:27Z</time></trkpt><trkpt lat="44.848450843425" lon="9.297242946533586"><ele>821.8</ele><time>2026-04-11T15:01:28Z</time></trkpt><trkpt lat="44.848420477739346" lon="9.297097516216802"><ele>822.1999999999999</ele><time>2026-04-11T15:01:29Z</time></trkpt><trkpt lat="44.848404805951404" lon="9.296944980623607"><ele>822.5999999999999</ele><time>2026-04-11T15:01:30Z</time></trkpt><trkpt lat="44.848424700835395" lon="9.296830856547288"><ele>823.0</ele><time>2026-04-11T15:01:31Z</time></trkpt><trkpt lat="44.848526557372296" lon="9.296747696209195"><ele>823.0</ele><time>2026-04-11T15:01:33Z</time></trkpt><trkpt lat="44.84862264693674" lon="9.296658893747331"><ele>823.0</ele><time>2026-04-11T15:01:34Z</time></trkpt><trkpt lat="44.848716380958315" lon="9.296586621913852"><ele>823.0</ele><time>2026-04-11T15:01:35Z</time></trkpt><trkpt lat="44.84880523348681" lon="9.296543246534954"><ele>823.0</ele><time>2026-04-11T15:01:36Z</time></trkpt><trkpt lat="44.84887535478619" lon="9.296487326387581"><ele>823.0</ele><time>2026-04-11T15:01:37Z</time></trkpt><trkpt lat="44.848929953147625" lon="9.296392392045473"><ele>827.0</ele><time>2026-04-11T15:01:38Z</time></trkpt><trkpt lat="44.848991609971996" lon="9.29626181028824"><ele>831.0</ele><time>2026-04-11T15:01:39Z</time></trkpt><trkpt lat="44.84905426862611" lon="9.296105488406582"><ele>835.0</ele><time>2026-04-11T15:01:40Z</time></trkpt><trkpt lat="44.84913402699651" lon="9.295950741051556"><ele>839.0</ele><time>2026-04-11T15:01:41Z</time></trkpt><trkpt lat="44.84921888540322" lon="9.295840379313725"><ele>832.0</ele><time>2026-04-11T15:01:42Z</time></trkpt><trkpt lat="44.84930850048403" lon="9.295750868520843"><ele>825.0</ele><time>2026-04-11T15:01:43Z</time></trkpt><trkpt lat="44.84937580994208" lon="9.295695661841725"><ele>818.0</ele><time>2026-04-11T15:01:44Z</time></trkpt><trkpt lat="44.849452651560625" lon="9.29567753939945"><ele>811.0</ele><time>2026-04-11T15:01:46Z</time></trkpt><trkpt lat="44.84948500572915" lon="9.295792729611554"><ele>804.0</ele><time>2026-04-11T15:01:48Z</time></trkpt><trkpt lat="44.84942100969741" lon="9.295945944369683"><ele>804.0</ele><time>2026-04-11T15:01:50Z</time></trkpt><trkpt lat="44.849359084357005" lon="9.29602034155286"><ele>804.0</ele><time>2026-04-11T15:01:51Z</time></trkpt><trkpt lat="44.84930621571937" lon="9.296086992392494"><ele>804.0</ele><time>2026-04-11T15:01:52Z</time></trkpt><trkpt lat="44.84928090893522" lon="9.29620481379581"><ele>804.0</ele><time>2026-04-11T15:01:53Z</time></trkpt><trkpt lat="44.849274600824096" lon="9.296379876266466"><ele>804.0</ele><time>2026-04-11T15:01:54Z</time></trkpt><trkpt lat="44.84926979105544" lon="9.296539467902472"><ele>803.2</ele><time>2026-04-11T15:01:55Z</time></trkpt><trkpt lat="44.84924817762814" lon="9.296694663030246"><ele>802.4000000000001</ele><time>2026-04-11T15:01:56Z</time></trkpt><trkpt lat="44.84924216045726" lon="9.296841126226774"><ele>801.6</ele><time>2026-04-11T15:01:57Z</time></trkpt><trkpt lat="44.84925111581714" lon="9.296998656384362"><ele>800.8</ele><time>2026-04-11T15:01:58Z</time></trkpt><trkpt lat="44.8492805000625" lon="9.29715431016484"><ele>800.0</ele><time>2026-04-11T15:01:59Z</time></trkpt><trkpt lat="44.849309496149154" lon="9.297303385825769"><ele>800.0000000000001</ele><time>2026-04-11T15:02:00Z</time></trkpt><trkpt lat="44.8493345465866" lon="9.297430752374506"><ele>800.0</ele><time>2026-04-11T15:02:01Z</time></trkpt><trkpt lat="44.849370707818565" lon="9.297529508772962"><ele>800.0</ele><time>2026-04-11T15:02:02Z</time></trkpt><trkpt lat="44.84944008471209" lon="9.297585801483123"><ele>800.0</ele><time>2026-04-11T15:02:03Z</time></trkpt><trkpt lat="44.849502851172076" lon="9.297628451803313"><ele>800.0000000000001</ele><time>2026-04-11T15:02:04Z</time></trkpt><trkpt lat="44.849577781518434" lon="9.297544601455511"><ele>800.0</ele><time>2026-04-11T15:02:06Z</time></trkpt><trkpt lat="44.849614542691064" lon="9.297435685416385"><ele>800.0</ele><time>2026-04-11T15:02:07Z</time></trkpt><trkpt lat="44.84965010811495" lon="9.29728606097829"><ele>800.0</ele><time>2026-04-11T15:02:08Z</time></trkpt><trkpt lat="44.84968283426221" lon="9.297115891146477"><ele>800.0</ele><time>2026-04-11T15:02:09Z</time></trkpt><trkpt lat="44.849742119336895" lon="9.296950889116918"><ele>800.0</ele><time>2026-04-11T15:02:10Z</time></trkpt><trkpt lat="44.849769086538096" lon="9.296831200905642"><ele>800.1666666666667</ele><time>2026-04-11T15:02:11Z</time></trkpt><trkpt lat="44.8498215392417" lon="9.296714538025942"><ele>800.3333333333334</ele><time>2026-04-11T15:02:12Z</time></trkpt><trkpt lat="44.849881545697066" lon="9.296672654896016"><ele>800.5</ele><time>2026-04-11T15:02:13Z</time></trkpt><trkpt lat="44.84997048055764" lon="9.296695576582312"><ele>800.6666666666667</ele><time>2026-04-11T15:02:15Z</time></trkpt><trkpt lat="44.85005937879391" lon="9.296700541566315"><ele>800.8333333333334</ele><time>2026-04-11T15:02:16Z</time></trkpt><trkpt lat="44.85012474207218" lon="9.296791548026938"><ele>801.0</ele><time>2026-04-11T15:02:17Z</time></trkpt><trkpt lat="44.850207611178504" lon="9.29691883292308"><ele>797.4</ele><time>2026-04-11T15:02:18Z</time></trkpt><trkpt lat="44.850270693043456" lon="9.297016452909062"><ele>793.8</ele><time>2026-04-11T15:02:19Z</time></trkpt><trkpt lat="44.85032634035857" lon="9.297058167108185"><ele>790.1999999999999</ele><time>2026-04-11T15:02:20Z</time></trkpt><trkpt lat="44.85045619893067" lon="9.296986081440894"><ele>786.5999999999999</ele><time>2026-04-11T15:02:21.999Z</time></trkpt><trkpt lat="44.85057281051835" lon="9.296888936396273"><ele>783.0</ele><time>2026-04-11T15:02:22.999Z</time></trkpt><trkpt lat="44.8506795321172" lon="9.296815350612595"><ele>783.0</ele><time>2026-04-11T15:02:23.999Z</time></trkpt><trkpt lat="44.85072707658648" lon="9.296751946396952"><ele>783.0</ele><time>2026-04-11T15:02:24.999Z</time></trkpt><trkpt lat="44.85078216690268" lon="9.296583977011542"><ele>783.0</ele><time>2026-04-11T15:02:26.999Z</time></trkpt><trkpt lat="44.85079616676246" lon="9.296387282533788"><ele>783.0</ele><time>2026-04-11T15:02:27.999Z</time></trkpt><trkpt lat="44.85078802036696" lon="9.29615896338927"><ele>781.25</ele><time>2026-04-11T15:02:28.999Z</time></trkpt><trkpt lat="44.85078463998689" lon="9.295947540252842"><ele>779.5</ele><time>2026-04-11T15:02:29.999Z</time></trkpt><trkpt lat="44.85078953757376" lon="9.295749385170515"><ele>777.75</ele><time>2026-04-11T15:02:30.999Z</time></trkpt><trkpt lat="44.85078807361424" lon="9.295577649099396"><ele>776.0</ele><time>2026-04-11T15:02:31.999Z</time></trkpt><trkpt lat="44.85078028034192" lon="9.295442366489974"><ele>775.25</ele><time>2026-04-11T15:02:32.999Z</time></trkpt><trkpt lat="44.85079050371917" lon="9.295303173567948"><ele>774.5</ele><time>2026-04-11T15:02:33.999Z</time></trkpt><trkpt lat="44.85081702956777" lon="9.295141690019127"><ele>773.75</ele><time>2026-04-11T15:02:34.999Z</time></trkpt><trkpt lat="44.85085806558318" lon="9.2949605563968"><ele>773.0</ele><time>2026-04-11T15:02:35.999Z</time></trkpt><trkpt lat="44.85090236677513" lon="9.294804653231392"><ele>772.0</ele><time>2026-04-11T15:02:36.999Z</time></trkpt><trkpt lat="44.85092591642453" lon="9.294637373054789"><ele>771.0</ele><time>2026-04-11T15:02:37.999Z</time></trkpt><trkpt lat="44.85092186358191" lon="9.294492921141494"><ele>770.0</ele><time>2026-04-11T15:02:38.999Z</time></trkpt><trkpt lat="44.85089248445172" lon="9.294356680154896"><ele>769.0</ele><time>2026-04-11T15:02:39.999Z</time></trkpt><trkpt lat="44.85083708199145" lon="9.294206008540494"><ele>768.0</ele><time>2026-04-11T15:02:40.999Z</time></trkpt><trkpt lat="44.85077947324713" lon="9.294029228353054"><ele>767.8</ele><time>2026-04-11T15:02:41.999Z</time></trkpt><trkpt lat="44.85073024538229" lon="9.29385179605689"><ele>767.5999999999999</ele><time>2026-04-11T15:02:42.999Z</time></trkpt><trkpt lat="44.85070951906607" lon="9.293719228975704"><ele>767.4000000000001</ele><time>2026-04-11T15:02:43.999Z</time></trkpt><trkpt lat="44.85072949390431" lon="9.293598517267043"><ele>767.2</ele><time>2026-04-11T15:02:44.999Z</time></trkpt><trkpt lat="44.85076729541989" lon="9.293470501328505"><ele>767.0</ele><time>2026-04-11T15:02:45.999Z</time></trkpt><trkpt lat="44.85081523766174" lon="9.293354790805214"><ele>767.0</ele><time>2026-04-11T15:02:46.999Z</time></trkpt><trkpt lat="44.850859074086486" lon="9.293265355876919"><ele>767.0</ele><time>2026-04-11T15:02:47.999Z</time></trkpt><trkpt lat="44.85095145142894" lon="9.29317460635141"><ele>767.0</ele><time>2026-04-11T15:02:49.999Z</time></trkpt><trkpt lat="44.851004176204626" lon="9.29311482823301"><ele>767.0</ele><time>2026-04-11T15:02:50.999Z</time></trkpt><trkpt lat="44.85110699354465" lon="9.29309828102544"><ele>767.0</ele><time>2026-04-11T15:02:51.999Z</time></trkpt><trkpt lat="44.85118534667246" lon="9.292973154283933"><ele>764.0</ele><time>2026-04-11T15:02:53.999Z</time></trkpt><trkpt lat="44.85121088363808" lon="9.292863004495482"><ele>761.0</ele><time>2026-04-11T15:02:54.999Z</time></trkpt><trkpt lat="44.85120956743249" lon="9.292741768801417"><ele>758.0</ele><time>2026-04-11T15:02:55.999Z</time></trkpt><trkpt lat="44.851184980673146" lon="9.29262349760447"><ele>755.0</ele><time>2026-04-11T15:02:56.999Z</time></trkpt><trkpt lat="44.851155713934915" lon="9.29250837094736"><ele>752.0</ele><time>2026-04-11T15:02:57.999Z</time></trkpt><trkpt lat="44.85114449093333" lon="9.292412709378397"><ele>749.0</ele><time>2026-04-11T15:02:58.999Z</time></trkpt><trkpt lat="44.85111667360199" lon="9.292283113349189"><ele>747.5</ele><time>2026-04-11T15:03:00.999Z</time></trkpt><trkpt lat="44.85109200024461" lon="9.292195451927967"><ele>746.0</ele><time>2026-04-11T15:03:02.999Z</time></trkpt><trkpt lat="44.85108259726266" lon="9.29209569395556"><ele>744.5</ele><time>2026-04-11T15:03:03.999Z</time></trkpt><trkpt lat="44.85109408910281" lon="9.29196941084571"><ele>743.0</ele><time>2026-04-11T15:03:04.999Z</time></trkpt><trkpt lat="44.85109507447163" lon="9.291835531798432"><ele>741.5</ele><time>2026-04-11T15:03:05.999Z</time></trkpt><trkpt lat="44.85110335560318" lon="9.291674366367682"><ele>740.0</ele><time>2026-04-11T15:03:06.999Z</time></trkpt><trkpt lat="44.85112330561486" lon="9.291502460746747"><ele>739.0</ele><time>2026-04-11T15:03:07.999Z</time></trkpt><trkpt lat="44.851154877236866" lon="9.291364364335875"><ele>738.0</ele><time>2026-04-11T15:03:08.999Z</time></trkpt><trkpt lat="44.85119490552571" lon="9.291241849052204"><ele>737.0</ele><time>2026-04-11T15:03:09.999Z</time></trkpt><trkpt lat="44.85124883737449" lon="9.291133603517283"><ele>736.0</ele><time>2026-04-11T15:03:10.999Z</time></trkpt><trkpt lat="44.85131472503065" lon="9.291051253320871"><ele>735.0</ele><time>2026-04-11T15:03:12.001Z</time></trkpt><trkpt lat="44.851500390634676" lon="9.290960666122698"><ele>735.0</ele><time>2026-04-11T15:03:14.001Z</time></trkpt><trkpt lat="44.851597670645035" lon="9.290959000031506"><ele>735.0</ele><time>2026-04-11T15:03:15.001Z</time></trkpt><trkpt lat="44.85167642863092" lon="9.290978520672184"><ele>735.0</ele><time>2026-04-11T15:03:16.001Z</time></trkpt><trkpt lat="44.851798669309495" lon="9.291077342643318"><ele>735.0</ele><time>2026-04-11T15:03:18.001Z</time></trkpt><trkpt lat="44.85188290460464" lon="9.291152260668635"><ele>735.0</ele><time>2026-04-11T15:03:19.001Z</time></trkpt><trkpt lat="44.85195735934562" lon="9.291213903370783"><ele>731.5</ele><time>2026-04-11T15:03:20.001Z</time></trkpt><trkpt lat="44.852034779595066" lon="9.291258068076461"><ele>728.0</ele><time>2026-04-11T15:03:21.001Z</time></trkpt><trkpt lat="44.852106852575744" lon="9.291242244189572"><ele>724.5</ele><time>2026-04-11T15:03:22.001Z</time></trkpt><trkpt lat="44.85217227056033" lon="9.291210343592207"><ele>721.0</ele><time>2026-04-11T15:03:23.001Z</time></trkpt><trkpt lat="44.85220508216334" lon="9.291106147618699"><ele>717.5</ele><time>2026-04-11T15:03:24.001Z</time></trkpt><trkpt lat="44.852195328910724" lon="9.29098661833966"><ele>714.0</ele><time>2026-04-11T15:03:25.001Z</time></trkpt><trkpt lat="44.85215224824204" lon="9.290871682151094"><ele>714.0</ele><time>2026-04-11T15:03:26.001Z</time></trkpt><trkpt lat="44.8521094488703" lon="9.290747631185072"><ele>714.0</ele><time>2026-04-11T15:03:27Z</time></trkpt><trkpt lat="44.85206649533903" lon="9.29061031537787"><ele>714.0</ele><time>2026-04-11T15:03:28Z</time></trkpt><trkpt lat="44.852035407825504" lon="9.290484633264363"><ele>714.0</ele><time>2026-04-11T15:03:29Z</time></trkpt><trkpt lat="44.85202381217826" lon="9.290381690874376"><ele>714.0</ele><time>2026-04-11T15:03:30Z</time></trkpt><trkpt lat="44.85207594288357" lon="9.29024321073236"><ele>712.25</ele><time>2026-04-11T15:03:32Z</time></trkpt><trkpt lat="44.85214203810247" lon="9.290257015118526"><ele>710.5</ele><time>2026-04-11T15:03:33Z</time></trkpt><trkpt lat="44.85230672713657" lon="9.290291303862809"><ele>708.75</ele><time>2026-04-11T15:03:35Z</time></trkpt><trkpt lat="44.85241975047547" lon="9.290347776547044"><ele>707.0</ele><time>2026-04-11T15:03:36Z</time></trkpt><trkpt lat="44.8525389306733" lon="9.290407583220555"><ele>704.2</ele><time>2026-04-11T15:03:37Z</time></trkpt><trkpt lat="44.85264331560612" lon="9.29046537715014"><ele>701.4000000000001</ele><time>2026-04-11T15:03:38Z</time></trkpt><trkpt lat="44.85273427417265" lon="9.29053803847418"><ele>698.5999999999999</ele><time>2026-04-11T15:03:39Z</time></trkpt><trkpt lat="44.85280137324287" lon="9.290650382949357"><ele>695.8</ele><time>2026-04-11T15:03:40Z</time></trkpt><trkpt lat="44.85284939774768" lon="9.290782558833758"><ele>693.0</ele><time>2026-04-11T15:03:41Z</time></trkpt><trkpt lat="44.852897910526046" lon="9.290931959923064"><ele>693.0</ele><time>2026-04-11T15:03:42Z</time></trkpt><trkpt lat="44.85294713946164" lon="9.291096294708787"><ele>693.0</ele><time>2026-04-11T15:03:43Z</time></trkpt><trkpt lat="44.85299663789885" lon="9.291237166207896"><ele>693.0</ele><time>2026-04-11T15:03:44Z</time></trkpt><trkpt lat="44.85304756081181" lon="9.291330086541587"><ele>693.0</ele><time>2026-04-11T15:03:45Z</time></trkpt><trkpt lat="44.85314201742096" lon="9.29135433028122"><ele>693.0</ele><time>2026-04-11T15:03:47Z</time></trkpt><trkpt lat="44.85321113524893" lon="9.291298659758983"><ele>693.0</ele><time>2026-04-11T15:03:48Z</time></trkpt><trkpt lat="44.85326122898492" lon="9.291189634190298"><ele>693.0</ele><time>2026-04-11T15:03:49Z</time></trkpt><trkpt lat="44.85328190455697" lon="9.291032938642955"><ele>693.0</ele><time>2026-04-11T15:03:50Z</time></trkpt><trkpt lat="44.85331095824033" lon="9.2908641115178"><ele>693.0</ele><time>2026-04-11T15:03:51Z</time></trkpt><trkpt lat="44.85333211581297" lon="9.290678914659246"><ele>692.5</ele><time>2026-04-11T15:03:52Z</time></trkpt><trkpt lat="44.85335026831842" lon="9.29048657625725"><ele>692.0</ele><time>2026-04-11T15:03:53Z</time></trkpt><trkpt lat="44.85336360863221" lon="9.290279024659203"><ele>691.5</ele><time>2026-04-11T15:03:54Z</time></trkpt><trkpt lat="44.853389984371944" lon="9.290080932279338"><ele>691.0</ele><time>2026-04-11T15:03:55Z</time></trkpt><trkpt lat="44.85342094558226" lon="9.289899843158938"><ele>688.8</ele><time>2026-04-11T15:03:56Z</time></trkpt><trkpt lat="44.85340208963187" lon="9.28973597238655"><ele>686.5999999999999</ele><time>2026-04-11T15:03:57Z</time></trkpt><trkpt lat="44.853367871851574" lon="9.289580888694669"><ele>684.4</ele><time>2026-04-11T15:03:58Z</time></trkpt><trkpt lat="44.8533118692396" lon="9.289434105330779"><ele>682.2</ele><time>2026-04-11T15:03:59Z</time></trkpt><trkpt lat="44.853265875325356" lon="9.289315148545514"><ele>680.0</ele><time>2026-04-11T15:04:00Z</time></trkpt><trkpt lat="44.85318280368107" lon="9.289271682154961"><ele>680.0</ele><time>2026-04-11T15:04:01Z</time></trkpt><trkpt lat="44.8530916114485" lon="9.289213632925073"><ele>680.0</ele><time>2026-04-11T15:04:02Z</time></trkpt><trkpt lat="44.852980374075244" lon="9.289134359653215"><ele>680.0</ele><time>2026-04-11T15:04:03Z</time></trkpt><trkpt lat="44.85288033557793" lon="9.289029299971498"><ele>680.0</ele><time>2026-04-11T15:04:04Z</time></trkpt><trkpt lat="44.85279154361234" lon="9.288949840175258"><ele>680.0</ele><time>2026-04-11T15:04:05Z</time></trkpt><trkpt lat="44.85273233383441" lon="9.288877045033907"><ele>680.0</ele><time>2026-04-11T15:04:06Z</time></trkpt><trkpt lat="44.85278255870381" lon="9.288960178696572"><ele>680.0</ele><time>2026-04-11T15:04:13Z</time></trkpt><trkpt lat="44.852848282302546" lon="9.289040034432732"><ele>680.0</ele><time>2026-04-11T15:04:16Z</time></trkpt><trkpt lat="44.85293151149432" lon="9.289095294697344"><ele>680.0</ele><time>2026-04-11T15:04:19Z</time></trkpt><trkpt lat="44.85299239603038" lon="9.289123282634757"><ele>680.0</ele><time>2026-04-11T15:04:21.999Z</time></trkpt><trkpt lat="44.85311882443179" lon="9.289156765669647"><ele>680.0</ele><time>2026-04-11T15:04:34.999Z</time></trkpt><trkpt lat="44.85320325937249" lon="9.289175910349266"><ele>680.0</ele><time>2026-04-11T15:04:35.999Z</time></trkpt><trkpt lat="44.85327271830022" lon="9.289193125027724"><ele>680.0</ele><time>2026-04-11T15:04:36.999Z</time></trkpt><trkpt lat="44.85333593653356" lon="9.28920812180352"><ele>680.0</ele><time>2026-04-11T15:04:37.999Z</time></trkpt><trkpt lat="44.85340536302423" lon="9.289231208607813"><ele>680.0</ele><time>2026-04-11T15:04:38.999Z</time></trkpt><trkpt lat="44.85348326724679" lon="9.289254503225246"><ele>680.0</ele><time>2026-04-11T15:04:39.999Z</time></trkpt><trkpt lat="44.85356167319402" lon="9.289270343202602"><ele>678.8333333333333</ele><time>2026-04-11T15:04:40.999Z</time></trkpt><trkpt lat="44.85363354613949" lon="9.289286261740322"><ele>677.6666666666666</ele><time>2026-04-11T15:04:41.999Z</time></trkpt><trkpt lat="44.85372293195699" lon="9.289302279476036"><ele>676.5</ele><time>2026-04-11T15:04:43.999Z</time></trkpt><trkpt lat="44.85380943080115" lon="9.289324321906498"><ele>675.3333333333334</ele><time>2026-04-11T15:04:45.999Z</time></trkpt><trkpt lat="44.85389791696242" lon="9.28937470604244"><ele>674.1666666666667</ele><time>2026-04-11T15:04:47.999Z</time></trkpt><trkpt lat="44.85398578441097" lon="9.289413619298573"><ele>673.0</ele><time>2026-04-11T15:04:49.999Z</time></trkpt><trkpt lat="44.85409802452666" lon="9.289455248458319"><ele>673.0</ele><time>2026-04-11T15:04:51.999Z</time></trkpt><trkpt lat="44.85416859903252" lon="9.289471516521449"><ele>673.0</ele><time>2026-04-11T15:04:52.999Z</time></trkpt><trkpt lat="44.85424497011231" lon="9.289459984601018"><ele>673.0</ele><time>2026-04-11T15:04:53.999Z</time></trkpt><trkpt lat="44.85431521781973" lon="9.289480312614396"><ele>673.0</ele><time>2026-04-11T15:04:54.999Z</time></trkpt><trkpt lat="44.85437845329048" lon="9.289478079268125"><ele>673.0</ele><time>2026-04-11T15:04:55.999Z</time></trkpt><trkpt lat="44.85444431151818" lon="9.289482269969316"><ele>673.0</ele><time>2026-04-11T15:04:56.999Z</time></trkpt><trkpt lat="44.854509280677" lon="9.289489592103264"><ele>673.0</ele><time>2026-04-11T15:04:57.999Z</time></trkpt><trkpt lat="44.85457448481432" lon="9.289514033070187"><ele>672.0</ele><time>2026-04-11T15:04:58.999Z</time></trkpt><trkpt lat="44.854650292883264" lon="9.289531810022535"><ele>671.0</ele><time>2026-04-11T15:04:59.999Z</time></trkpt><trkpt lat="44.85471942922452" lon="9.289552854428736"><ele>670.0</ele><time>2026-04-11T15:05:00.999Z</time></trkpt><trkpt lat="44.85478458817798" lon="9.28957399905238"><ele>669.0</ele><time>2026-04-11T15:05:01.999Z</time></trkpt><trkpt lat="44.85490192012129" lon="9.28960608785582"><ele>668.0</ele><time>2026-04-11T15:05:03.999Z</time></trkpt><trkpt lat="44.85500576460862" lon="9.28964088945013"><ele>667.0</ele><time>2026-04-11T15:05:05.999Z</time></trkpt><trkpt lat="44.855079118866804" lon="9.28969475968285"><ele>666.2</ele><time>2026-04-11T15:05:07.999Z</time></trkpt><trkpt lat="44.85506590988047" lon="9.289831081452949"><ele>665.4000000000001</ele><time>2026-04-11T15:05:09.999Z</time></trkpt><trkpt lat="44.855043020245176" lon="9.289953836311938"><ele>664.5999999999999</ele><time>2026-04-11T15:05:11.999Z</time></trkpt><trkpt lat="44.85514725234983" lon="9.290025468647126"><ele>663.8</ele><time>2026-04-11T15:05:13.999Z</time></trkpt><trkpt lat="44.85522083494072" lon="9.290099019239287"><ele>663.0</ele><time>2026-04-11T15:05:14.999Z</time></trkpt><trkpt lat="44.855291091051335" lon="9.290167596948809"><ele>663.0</ele><time>2026-04-11T15:05:15.999Z</time></trkpt><trkpt lat="44.85541872428427" lon="9.290113229706748"><ele>663.0</ele><time>2026-04-11T15:05:18.001Z</time></trkpt><trkpt lat="44.85548893421685" lon="9.290081579929737"><ele>663.0</ele><time>2026-04-11T15:05:19.001Z</time></trkpt><trkpt lat="44.85558792452014" lon="9.290092615060656"><ele>663.0</ele><time>2026-04-11T15:05:21Z</time></trkpt><trkpt lat="44.85566113286555" lon="9.290121128615436"><ele>663.0</ele><time>2026-04-11T15:05:22Z</time></trkpt><trkpt lat="44.85574345710811" lon="9.29018648298878"><ele>663.0</ele><time>2026-04-11T15:05:23Z</time></trkpt><trkpt lat="44.85582724340013" lon="9.29026520994864"><ele>663.0</ele><time>2026-04-11T15:05:24Z</time></trkpt><trkpt lat="44.855907244068625" lon="9.29033846383752"><ele>663.0</ele><time>2026-04-11T15:05:25Z</time></trkpt><trkpt lat="44.855975644951016" lon="9.290379699412066"><ele>663.0</ele><time>2026-04-11T15:05:26Z</time></trkpt><trkpt lat="44.85605273936071" lon="9.290403941045977"><ele>663.0</ele><time>2026-04-11T15:05:27Z</time></trkpt><trkpt lat="44.85611077129193" lon="9.290460897920086"><ele>663.0</ele><time>2026-04-11T15:05:28Z</time></trkpt><trkpt lat="44.856163904401306" lon="9.290538000429622"><ele>662.2</ele><time>2026-04-11T15:05:29Z</time></trkpt><trkpt lat="44.85623109420009" lon="9.290617968263133"><ele>661.4</ele><time>2026-04-11T15:05:30Z</time></trkpt><trkpt lat="44.85631993850186" lon="9.290666847116395"><ele>660.6</ele><time>2026-04-11T15:05:31Z</time></trkpt><trkpt lat="44.85639751920209" lon="9.290712229527621"><ele>659.8000000000001</ele><time>2026-04-11T15:05:32Z</time></trkpt><trkpt lat="44.856482210843325" lon="9.290641682621587"><ele>659.0</ele><time>2026-04-11T15:05:34Z</time></trkpt><trkpt lat="44.85653609236421" lon="9.290543414808559"><ele>657.4000000000001</ele><time>2026-04-11T15:05:35Z</time></trkpt><trkpt lat="44.85654773817985" lon="9.290415641807106"><ele>655.8</ele><time>2026-04-11T15:05:36Z</time></trkpt><trkpt lat="44.856563368895245" lon="9.29027690996277"><ele>654.2</ele><time>2026-04-11T15:05:37Z</time></trkpt><trkpt lat="44.8565881395845" lon="9.290151033672355"><ele>652.5999999999999</ele><time>2026-04-11T15:05:38Z</time></trkpt><trkpt lat="44.85662892790295" lon="9.290025182822871"><ele>651.0</ele><time>2026-04-11T15:05:39Z</time></trkpt><trkpt lat="44.85666568904678" lon="9.289927140944785"><ele>651.0</ele><time>2026-04-11T15:05:40Z</time></trkpt><trkpt lat="44.856704239589135" lon="9.2898111114269"><ele>651.0</ele><time>2026-04-11T15:05:41Z</time></trkpt><trkpt lat="44.856792892919835" lon="9.289727320568407"><ele>651.0</ele><time>2026-04-11T15:05:43Z</time></trkpt><trkpt lat="44.856856901497714" lon="9.289762738277918"><ele>651.0</ele><time>2026-04-11T15:05:44Z</time></trkpt><trkpt lat="44.85692723888166" lon="9.289822801564103"><ele>651.0</ele><time>2026-04-11T15:05:45Z</time></trkpt><trkpt lat="44.857025229912274" lon="9.289911688903281"><ele>649.0</ele><time>2026-04-11T15:05:46Z</time></trkpt><trkpt lat="44.8571113257456" lon="9.29001098150922"><ele>647.0</ele><time>2026-04-11T15:05:47Z</time></trkpt><trkpt lat="44.85719786910101" lon="9.290096002942928"><ele>645.0</ele><time>2026-04-11T15:05:48Z</time></trkpt><trkpt lat="44.85727593593026" lon="9.290155983655168"><ele>643.0</ele><time>2026-04-11T15:05:49Z</time></trkpt><trkpt lat="44.85734072790111" lon="9.290177746404702"><ele>641.0</ele><time>2026-04-11T15:05:50Z</time></trkpt><trkpt lat="44.85740947966724" lon="9.290165841412467"><ele>639.0</ele><time>2026-04-11T15:05:51Z</time></trkpt><trkpt lat="44.85747569947335" lon="9.290144591942138"><ele>639.0</ele><time>2026-04-11T15:05:52Z</time></trkpt><trkpt lat="44.85753314852431" lon="9.29010055011283"><ele>639.0</ele><time>2026-04-11T15:05:53Z</time></trkpt><trkpt lat="44.857616456254334" lon="9.290066675458544"><ele>639.0</ele><time>2026-04-11T15:05:54Z</time></trkpt><trkpt lat="44.8576945547797" lon="9.2900841578574"><ele>639.0</ele><time>2026-04-11T15:05:55Z</time></trkpt><trkpt lat="44.8577583839192" lon="9.290115434375469"><ele>639.0</ele><time>2026-04-11T15:05:56Z</time></trkpt><trkpt lat="44.85781841812552" lon="9.290227744362886"><ele>639.0</ele><time>2026-04-11T15:05:58Z</time></trkpt><trkpt lat="44.85785549957213" lon="9.290316038374975"><ele>636.0</ele><time>2026-04-11T15:05:59Z</time></trkpt><trkpt lat="44.857897637102496" lon="9.290486102885197"><ele>633.0</ele><time>2026-04-11T15:06:01Z</time></trkpt><trkpt lat="44.85791149228539" lon="9.29058894943503"><ele>630.0</ele><time>2026-04-11T15:06:02Z</time></trkpt><trkpt lat="44.85796234329249" lon="9.29068745139365"><ele>627.0</ele><time>2026-04-11T15:06:04Z</time></trkpt><trkpt lat="44.85805193165049" lon="9.290713715545138"><ele>624.0</ele><time>2026-04-11T15:06:06Z</time></trkpt><trkpt lat="44.858115378505744" lon="9.290728058720592"><ele>621.0</ele><time>2026-04-11T15:06:07Z</time></trkpt><trkpt lat="44.8581703434437" lon="9.290805348273814"><ele>621.0</ele><time>2026-04-11T15:06:09Z</time></trkpt><trkpt lat="44.85822557420807" lon="9.290945843292599"><ele>621.0</ele><time>2026-04-11T15:06:11Z</time></trkpt><trkpt lat="44.858248105536745" lon="9.291058770916578"><ele>621.0</ele><time>2026-04-11T15:06:12Z</time></trkpt><trkpt lat="44.85829677203341" lon="9.291138281419846"><ele>621.0</ele><time>2026-04-11T15:06:13Z</time></trkpt><trkpt lat="44.85835787008279" lon="9.291202772385668"><ele>621.0</ele><time>2026-04-11T15:06:14Z</time></trkpt><trkpt lat="44.85841690220543" lon="9.291269932092696"><ele>621.0</ele><time>2026-04-11T15:06:15Z</time></trkpt><trkpt lat="44.85850749124909" lon="9.291320863493878"><ele>616.0</ele><time>2026-04-11T15:06:17Z</time></trkpt><trkpt lat="44.858557907610766" lon="9.291214289602566"><ele>611.0</ele><time>2026-04-11T15:06:19Z</time></trkpt><trkpt lat="44.85855651257233" lon="9.291109581588458"><ele>606.0</ele><time>2026-04-11T15:06:20Z</time></trkpt><trkpt lat="44.85854791743791" lon="9.290977348376575"><ele>601.0</ele><time>2026-04-11T15:06:21Z</time></trkpt><trkpt lat="44.85854349481303" lon="9.290827146613767"><ele>596.0</ele><time>2026-04-11T15:06:22Z</time></trkpt><trkpt lat="44.85853502695963" lon="9.290700330826233"><ele>596.0</ele><time>2026-04-11T15:06:23Z</time></trkpt><trkpt lat="44.858609352248536" lon="9.290593709000376"><ele>596.0</ele><time>2026-04-11T15:06:23.999Z</time></trkpt><trkpt lat="44.858615013271645" lon="9.290484799304755"><ele>596.0</ele><time>2026-04-11T15:06:24.999Z</time></trkpt><trkpt lat="44.85862764967214" lon="9.290379550297779"><ele>596.0</ele><time>2026-04-11T15:06:25.999Z</time></trkpt><trkpt lat="44.85861864901049" lon="9.290279923640265"><ele>596.0</ele><time>2026-04-11T15:06:30.999Z</time></trkpt><trkpt lat="44.85863299099557" lon="9.290151005622594"><ele>596.0</ele><time>2026-04-11T15:06:34.999Z</time></trkpt><trkpt lat="44.85863363936683" lon="9.290054782701748"><ele>595.4</ele><time>2026-04-11T15:06:35.999Z</time></trkpt><trkpt lat="44.85861274694701" lon="9.289903362642958"><ele>594.8</ele><time>2026-04-11T15:06:37.999Z</time></trkpt><trkpt lat="44.85856105218687" lon="9.289767400743727"><ele>594.1999999999999</ele><time>2026-04-11T15:06:39.999Z</time></trkpt><trkpt lat="44.85850986425112" lon="9.28967754536359"><ele>593.6</ele><time>2026-04-11T15:06:40.999Z</time></trkpt><trkpt lat="44.85845598834625" lon="9.28959671546352"><ele>593.0</ele><time>2026-04-11T15:06:41.999Z</time></trkpt><trkpt lat="44.85839023196654" lon="9.289520387728928"><ele>595.1999999999999</ele><time>2026-04-11T15:06:42.999Z</time></trkpt><trkpt lat="44.858317079132235" lon="9.289434819410884"><ele>597.4</ele><time>2026-04-11T15:06:43.999Z</time></trkpt><trkpt lat="44.858241183838004" lon="9.289328190224609"><ele>599.5999999999999</ele><time>2026-04-11T15:06:44.999Z</time></trkpt><trkpt lat="44.85818139140855" lon="9.28921755575999"><ele>601.8</ele><time>2026-04-11T15:06:45.999Z</time></trkpt><trkpt lat="44.85810430317833" lon="9.289110157803277"><ele>604.0</ele><time>2026-04-11T15:06:46.999Z</time></trkpt><trkpt lat="44.85803425498749" lon="9.289004131868944"><ele>601.6</ele><time>2026-04-11T15:06:47.999Z</time></trkpt><trkpt lat="44.857971415785826" lon="9.28891276198717"><ele>599.2</ele><time>2026-04-11T15:06:48.999Z</time></trkpt><trkpt lat="44.857930208107675" lon="9.28881500399952"><ele>596.8000000000001</ele><time>2026-04-11T15:06:49.999Z</time></trkpt><trkpt lat="44.857874155565966" lon="9.288690049154857"><ele>594.4</ele><time>2026-04-11T15:06:50.999Z</time></trkpt><trkpt lat="44.857832110605926" lon="9.288553529277952"><ele>592.0</ele><time>2026-04-11T15:06:51.999Z</time></trkpt><trkpt lat="44.85784836477273" lon="9.288419244782597"><ele>592.0</ele><time>2026-04-11T15:06:53.999Z</time></trkpt><trkpt lat="44.857921673032685" lon="9.288277906742602"><ele>592.0</ele><time>2026-04-11T15:06:55.999Z</time></trkpt><trkpt lat="44.85798166192356" lon="9.288205501457215"><ele>592.0</ele><time>2026-04-11T15:06:56.999Z</time></trkpt><trkpt lat="44.85809009958844" lon="9.288251497540031"><ele>592.0</ele><time>2026-04-11T15:06:58.999Z</time></trkpt><trkpt lat="44.85815523163796" lon="9.288335629245996"><ele>592.0</ele><time>2026-04-11T15:06:59.999Z</time></trkpt><trkpt lat="44.85823123948114" lon="9.288445335955757"><ele>592.0</ele><time>2026-04-11T15:07:00.999Z</time></trkpt><trkpt lat="44.85828865049161" lon="9.28854310933199"><ele>592.0</ele><time>2026-04-11T15:07:01.999Z</time></trkpt><trkpt lat="44.858347885681354" lon="9.28860843735427"><ele>592.0</ele><time>2026-04-11T15:07:02.999Z</time></trkpt><trkpt lat="44.8584076178224" lon="9.288710306935213"><ele>592.0</ele><time>2026-04-11T15:07:03.999Z</time></trkpt><trkpt lat="44.85846721893553" lon="9.288769328701099"><ele>592.0</ele><time>2026-04-11T15:07:04.999Z</time></trkpt><trkpt lat="44.85859741562634" lon="9.288893979914977"><ele>588.2</ele><time>2026-04-11T15:07:06.999Z</time></trkpt><trkpt lat="44.85870737931559" lon="9.28892309287124"><ele>584.4000000000001</ele><time>2026-04-11T15:07:07.999Z</time></trkpt><trkpt lat="44.85877579764804" lon="9.28892180590632"><ele>580.5999999999999</ele><time>2026-04-11T15:07:08.999Z</time></trkpt><trkpt lat="44.858886384088024" lon="9.28886827525199"><ele>576.8</ele><time>2026-04-11T15:07:10.999Z</time></trkpt><trkpt lat="44.85895343114158" lon="9.288770943545954"><ele>573.0</ele><time>2026-04-11T15:07:11.999Z</time></trkpt><trkpt lat="44.85897682337699" lon="9.288678746727047"><ele>573.0</ele><time>2026-04-11T15:07:12.999Z</time></trkpt><trkpt lat="44.85899511613993" lon="9.28853683366403"><ele>573.0</ele><time>2026-04-11T15:07:14.999Z</time></trkpt><trkpt lat="44.85900262831848" lon="9.288433049670136"><ele>573.0</ele><time>2026-04-11T15:07:15.999Z</time></trkpt><trkpt lat="44.85901441104976" lon="9.288296583183206"><ele>573.0</ele><time>2026-04-11T15:07:17.999Z</time></trkpt><trkpt lat="44.8590458785821" lon="9.288216230385816"><ele>573.0</ele><time>2026-04-11T15:07:18.999Z</time></trkpt><trkpt lat="44.85906111343523" lon="9.288058601425613"><ele>572.0</ele><time>2026-04-11T15:07:20.998Z</time></trkpt><trkpt lat="44.85906561375001" lon="9.287921500921179"><ele>571.0</ele><time>2026-04-11T15:07:22.998Z</time></trkpt><trkpt lat="44.85907534931845" lon="9.287790052054456"><ele>570.0</ele><time>2026-04-11T15:07:25Z</time></trkpt><trkpt lat="44.85905859559617" lon="9.28762022908038"><ele>569.0</ele><time>2026-04-11T15:07:27Z</time></trkpt><trkpt lat="44.85905690444468" lon="9.287525180030642"><ele>568.0</ele><time>2026-04-11T15:07:28Z</time></trkpt><trkpt lat="44.8590480756257" lon="9.28742676006285"><ele>568.0</ele><time>2026-04-11T15:07:29Z</time></trkpt><trkpt lat="44.85906204584364" lon="9.287325862296367"><ele>568.0</ele><time>2026-04-11T15:07:30Z</time></trkpt><trkpt lat="44.85906557154454" lon="9.287150372546689"><ele>568.0</ele><time>2026-04-11T15:07:32Z</time></trkpt><trkpt lat="44.85907383600648" lon="9.28706187527917"><ele>568.0</ele><time>2026-04-11T15:07:33Z</time></trkpt><trkpt lat="44.85914349768003" lon="9.287002482460528"><ele>568.0</ele><time>2026-04-11T15:07:36Z</time></trkpt><trkpt lat="44.859218233986816" lon="9.287017788025562"><ele>568.0</ele><time>2026-04-11T15:07:37Z</time></trkpt><trkpt lat="44.859317063532906" lon="9.286981821970365"><ele>564.0</ele><time>2026-04-11T15:07:39Z</time></trkpt><trkpt lat="44.85939314955268" lon="9.286896522539505"><ele>560.0</ele><time>2026-04-11T15:07:41Z</time></trkpt><trkpt lat="44.85950691435245" lon="9.28684535963976"><ele>556.0</ele><time>2026-04-11T15:07:43Z</time></trkpt><trkpt lat="44.859596530493704" lon="9.286834200228625"><ele>552.0</ele><time>2026-04-11T15:07:45Z</time></trkpt><trkpt lat="44.85969077235647" lon="9.286830082331246"><ele>548.0</ele><time>2026-04-11T15:07:47Z</time></trkpt><trkpt lat="44.85977907580719" lon="9.286792619752738"><ele>548.0</ele><time>2026-04-11T15:07:49Z</time></trkpt><trkpt lat="44.85987696737217" lon="9.286698390003092"><ele>548.0</ele><time>2026-04-11T15:07:51Z</time></trkpt><trkpt lat="44.8599369884916" lon="9.286639194164165"><ele>548.0</ele><time>2026-04-11T15:07:53Z</time></trkpt><trkpt lat="44.86000717920028" lon="9.286601240898909"><ele>548.0</ele><time>2026-04-11T15:07:55Z</time></trkpt><trkpt lat="44.86007420043608" lon="9.28661584778712"><ele>548.0</ele><time>2026-04-11T15:07:56Z</time></trkpt><trkpt lat="44.860138547640396" lon="9.28663897814267"><ele>548.0</ele><time>2026-04-11T15:07:57Z</time></trkpt><trkpt lat="44.86019695953292" lon="9.286710220526022"><ele>547.1666666666666</ele><time>2026-04-11T15:08:00Z</time></trkpt><trkpt lat="44.86026502292686" lon="9.286680508933744"><ele>546.3333333333333</ele><time>2026-04-11T15:08:07Z</time></trkpt><trkpt lat="44.86036904442695" lon="9.28661234851181"><ele>545.5</ele><time>2026-04-11T15:08:08Z</time></trkpt><trkpt lat="44.86037422609412" lon="9.286489736120078"><ele>544.6666666666666</ele><time>2026-04-11T15:08:09Z</time></trkpt><trkpt lat="44.86044173662117" lon="9.28643536705466"><ele>543.8333333333334</ele><time>2026-04-11T15:08:11Z</time></trkpt><trkpt lat="44.86052530648468" lon="9.28637822756837"><ele>543.0</ele><time>2026-04-11T15:08:13Z</time></trkpt><trkpt lat="44.86055349036872" lon="9.286181012845239"><ele>544.8333333333334</ele><time>2026-04-11T15:08:19Z</time></trkpt><trkpt lat="44.860506903558694" lon="9.286113009031643"><ele>546.6666666666666</ele><time>2026-04-11T15:08:20Z</time></trkpt><trkpt lat="44.86046502913453" lon="9.286045620293377"><ele>548.5</ele><time>2026-04-11T15:08:21Z</time></trkpt><trkpt lat="44.86041832002656" lon="9.28593928753605"><ele>550.3333333333333</ele><time>2026-04-11T15:08:23Z</time></trkpt><trkpt lat="44.86048379062184" lon="9.285805557457444"><ele>552.1666666666666</ele><time>2026-04-11T15:08:26Z</time></trkpt><trkpt lat="44.860537142486905" lon="9.285715024249921"><ele>554.0</ele><time>2026-04-11T15:08:27Z</time></trkpt><trkpt lat="44.8605928166215" lon="9.28560038858326"><ele>556.0</ele><time>2026-04-11T15:08:29Z</time></trkpt><trkpt lat="44.86064135832129" lon="9.285537728432676"><ele>558.0</ele><time>2026-04-11T15:08:30Z</time></trkpt><trkpt lat="44.860729964839734" lon="9.285435810144428"><ele>560.0</ele><time>2026-04-11T15:08:31.999Z</time></trkpt><trkpt lat="44.86079901930518" lon="9.285290531119033"><ele>562.0</ele><time>2026-04-11T15:08:33.999Z</time></trkpt><trkpt lat="44.860851582952606" lon="9.285177846000188"><ele>564.0</ele><time>2026-04-11T15:08:35.999Z</time></trkpt><trkpt lat="44.86086783328054" lon="9.285087525380073"><ele>564.0</ele><time>2026-04-11T15:08:36.999Z</time></trkpt><trkpt lat="44.86089053157144" lon="9.284997760565677"><ele>564.0</ele><time>2026-04-11T15:08:37.999Z</time></trkpt><trkpt lat="44.86092829198017" lon="9.284912980630843"><ele>564.0</ele><time>2026-04-11T15:08:38.999Z</time></trkpt><trkpt lat="44.86097381760064" lon="9.284831165215762"><ele>564.0</ele><time>2026-04-11T15:08:39.999Z</time></trkpt><trkpt lat="44.861034652925454" lon="9.284745873372172"><ele>564.0</ele><time>2026-04-11T15:08:40.999Z</time></trkpt><trkpt lat="44.86108573891152" lon="9.284651935106293"><ele>564.0</ele><time>2026-04-11T15:08:43.999Z</time></trkpt><trkpt lat="44.86113239051868" lon="9.284586898514894"><ele>564.0</ele><time>2026-04-11T15:08:44.999Z</time></trkpt><trkpt lat="44.861181657275075" lon="9.284504765193065"><ele>569.75</ele><time>2026-04-11T15:08:45.999Z</time></trkpt><trkpt lat="44.86128821093962" lon="9.28438752665751"><ele>575.5</ele><time>2026-04-11T15:08:47.999Z</time></trkpt><trkpt lat="44.861355789704795" lon="9.284269293903415"><ele>581.25</ele><time>2026-04-11T15:08:49.999Z</time></trkpt><trkpt lat="44.8614491615795" lon="9.284137313053101"><ele>587.0</ele><time>2026-04-11T15:08:51.999Z</time></trkpt><trkpt lat="44.86153581593678" lon="9.284020945440481"><ele>587.0</ele><time>2026-04-11T15:08:54.999Z</time></trkpt><trkpt lat="44.86160102250713" lon="9.283968326325132"><ele>587.0</ele><time>2026-04-11T15:08:55.999Z</time></trkpt><trkpt lat="44.86168981872733" lon="9.283885110040835"><ele>587.0</ele><time>2026-04-11T15:08:57.999Z</time></trkpt><trkpt lat="44.86173518171855" lon="9.283818597371756"><ele>587.0</ele><time>2026-04-11T15:08:58.999Z</time></trkpt><trkpt lat="44.86181649936729" lon="9.283741960765672"><ele>587.0</ele><time>2026-04-11T15:09:00.999Z</time></trkpt><trkpt lat="44.86188574399051" lon="9.283710050488864"><ele>587.0</ele><time>2026-04-11T15:09:01.999Z</time></trkpt><trkpt lat="44.86195769018467" lon="9.283648144631517"><ele>590.5</ele><time>2026-04-11T15:09:02.999Z</time></trkpt><trkpt lat="44.86202281248799" lon="9.28359579695582"><ele>594.0</ele><time>2026-04-11T15:09:03.999Z</time></trkpt><trkpt lat="44.862128949843445" lon="9.283510043895882"><ele>597.5</ele><time>2026-04-11T15:09:05.999Z</time></trkpt><trkpt lat="44.86218787938153" lon="9.283462422563934"><ele>601.0</ele><time>2026-04-11T15:09:06.999Z</time></trkpt><trkpt lat="44.86226678412506" lon="9.283398554001007"><ele>604.5</ele><time>2026-04-11T15:09:07.999Z</time></trkpt><trkpt lat="44.86233919307127" lon="9.28333994336755"><ele>608.0</ele><time>2026-04-11T15:09:08.999Z</time></trkpt><trkpt lat="44.86241023892522" lon="9.283285677602601"><ele>608.0</ele><time>2026-04-11T15:09:09.999Z</time></trkpt><trkpt lat="44.86245879480579" lon="9.283224963369085"><ele>608.0</ele><time>2026-04-11T15:09:10.999Z</time></trkpt><trkpt lat="44.86253593760635" lon="9.283184935990182"><ele>608.0</ele><time>2026-04-11T15:09:11.999Z</time></trkpt><trkpt lat="44.86257895678439" lon="9.283115473293135"><ele>608.0</ele><time>2026-04-11T15:09:12.999Z</time></trkpt><trkpt lat="44.86264648777591" lon="9.283108586250302"><ele>608.0</ele><time>2026-04-11T15:09:15.999Z</time></trkpt><trkpt lat="44.86265720800543" lon="9.283205387389023"><ele>608.0</ele><time>2026-04-11T15:09:16.999Z</time></trkpt><trkpt lat="44.86270423872996" lon="9.283282420588758"><ele>608.0</ele><time>2026-04-11T15:09:17.999Z</time></trkpt><trkpt lat="44.86277450837118" lon="9.283387858275884"><ele>609.0</ele><time>2026-04-11T15:09:19.999Z</time></trkpt><trkpt lat="44.862847231450736" lon="9.283441945638936"><ele>610.0</ele><time>2026-04-11T15:09:20.999Z</time></trkpt><trkpt lat="44.8629350354585" lon="9.28345972062729"><ele>611.0</ele><time>2026-04-11T15:09:21.999Z</time></trkpt><trkpt lat="44.86305316110192" lon="9.283498339217331"><ele>612.0</ele><time>2026-04-11T15:09:23.999Z</time></trkpt><trkpt lat="44.86312295659049" lon="9.283509201742616"><ele>613.0</ele><time>2026-04-11T15:09:24.999Z</time></trkpt><trkpt lat="44.86320700795529" lon="9.283561255198482"><ele>613.0</ele><time>2026-04-11T15:09:25.999Z</time></trkpt><trkpt lat="44.86327841724587" lon="9.283533340235373"><ele>613.0</ele><time>2026-04-11T15:09:26.999Z</time></trkpt><trkpt lat="44.86338038166128" lon="9.283560005478044"><ele>613.0</ele><time>2026-04-11T15:09:28.999Z</time></trkpt><trkpt lat="44.86351173716058" lon="9.283645067021935"><ele>613.0</ele><time>2026-04-11T15:09:31Z</time></trkpt><trkpt lat="44.8635854890049" lon="9.283693095898789"><ele>613.0</ele><time>2026-04-11T15:09:32Z</time></trkpt><trkpt lat="44.86365809107522" lon="9.283750809343653"><ele>611.5714285714286</ele><time>2026-04-11T15:09:33Z</time></trkpt><trkpt lat="44.863719129584574" lon="9.283797317030109"><ele>610.1428571428571</ele><time>2026-04-11T15:09:34Z</time></trkpt><trkpt lat="44.8637750683819" lon="9.283881614641178"><ele>608.7142857142858</ele><time>2026-04-11T15:09:35Z</time></trkpt><trkpt lat="44.86381436235895" lon="9.283957222905153"><ele>607.2857142857142</ele><time>2026-04-11T15:09:36Z</time></trkpt><trkpt lat="44.86385522459967" lon="9.284036755360601"><ele>605.8571428571428</ele><time>2026-04-11T15:09:37Z</time></trkpt><trkpt lat="44.86388881048009" lon="9.284132063028558"><ele>604.4285714285714</ele><time>2026-04-11T15:09:38Z</time></trkpt><trkpt lat="44.86393093864376" lon="9.28420887743165"><ele>603.0</ele><time>2026-04-11T15:09:39Z</time></trkpt><trkpt lat="44.86400397716319" lon="9.284303515627721"><ele>602.1999999999999</ele><time>2026-04-11T15:09:41Z</time></trkpt><trkpt lat="44.86405942988512" lon="9.28440949694655"><ele>601.4</ele><time>2026-04-11T15:09:43Z</time></trkpt><trkpt lat="44.864151237351315" lon="9.284507100564722"><ele>600.5999999999999</ele><time>2026-04-11T15:09:45Z</time></trkpt><trkpt lat="44.864210570572965" lon="9.28459064705799"><ele>599.8</ele><time>2026-04-11T15:09:46Z</time></trkpt><trkpt lat="44.86427551287703" lon="9.28465455438214"><ele>599.0</ele><time>2026-04-11T15:09:47Z</time></trkpt><trkpt lat="44.86434768776796" lon="9.284699875326588"><ele>595.5714285714286</ele><time>2026-04-11T15:09:48Z</time></trkpt><trkpt lat="44.86441399477945" lon="9.284711052925282"><ele>592.1428571428571</ele><time>2026-04-11T15:09:49Z</time></trkpt><trkpt lat="44.86448777405749" lon="9.284709529437757"><ele>588.7142857142857</ele><time>2026-04-11T15:09:50Z</time></trkpt><trkpt lat="44.864563865493906" lon="9.284748628284124"><ele>585.2857142857142</ele><time>2026-04-11T15:09:51Z</time></trkpt><trkpt lat="44.864636051623435" lon="9.284770912132505"><ele>581.8571428571428</ele><time>2026-04-11T15:09:52Z</time></trkpt><trkpt lat="44.86470285342494" lon="9.284801203282985"><ele>578.4285714285714</ele><time>2026-04-11T15:09:53Z</time></trkpt><trkpt lat="44.86477032651222" lon="9.284845358603102"><ele>575.0</ele><time>2026-04-11T15:09:54Z</time></trkpt><trkpt lat="44.86481380004319" lon="9.284915416891131"><ele>573.8</ele><time>2026-04-11T15:09:56Z</time></trkpt><trkpt lat="44.86483919343568" lon="9.285022093363915"><ele>572.6</ele><time>2026-04-11T15:09:58Z</time></trkpt><trkpt lat="44.86484487422534" lon="9.285178673221624"><ele>571.4</ele><time>2026-04-11T15:10:00Z</time></trkpt><trkpt lat="44.864847952296" lon="9.285334993036685"><ele>570.2</ele><time>2026-04-11T15:10:02Z</time></trkpt><trkpt lat="44.864848673961916" lon="9.28543424175294"><ele>569.0</ele><time>2026-04-11T15:10:03Z</time></trkpt><trkpt lat="44.864833380897" lon="9.28554790192125"><ele>567.1666666666666</ele><time>2026-04-11T15:10:04Z</time></trkpt><trkpt lat="44.86484659039686" lon="9.285676058379059"><ele>565.3333333333333</ele><time>2026-04-11T15:10:05Z</time></trkpt><trkpt lat="44.864846196354215" lon="9.285776922941755"><ele>563.5</ele><time>2026-04-11T15:10:06Z</time></trkpt><trkpt lat="44.86484200961508" lon="9.285886285994522"><ele>561.6666666666666</ele><time>2026-04-11T15:10:07Z</time></trkpt><trkpt lat="44.86482597155135" lon="9.285976053178125"><ele>559.8333333333334</ele><time>2026-04-11T15:10:08Z</time></trkpt><trkpt lat="44.8648017711343" lon="9.28614162827105"><ele>558.0</ele><time>2026-04-11T15:10:10Z</time></trkpt><trkpt lat="44.86481607413403" lon="9.286228174973333"><ele>558.0</ele><time>2026-04-11T15:10:11Z</time></trkpt><trkpt lat="44.864818050930104" lon="9.286366636047731"><ele>558.0</ele><time>2026-04-11T15:10:13Z</time></trkpt><trkpt lat="44.864844316317125" lon="9.286516623890288"><ele>558.0</ele><time>2026-04-11T15:10:15Z</time></trkpt><trkpt lat="44.86486194469152" lon="9.286612494765315"><ele>558.0</ele><time>2026-04-11T15:10:16Z</time></trkpt><trkpt lat="44.864881584594166" lon="9.28671050587194"><ele>558.0</ele><time>2026-04-11T15:10:17Z</time></trkpt><trkpt lat="44.864936849636216" lon="9.286793950587283"><ele>558.0</ele><time>2026-04-11T15:10:18Z</time></trkpt><trkpt lat="44.8649738691746" lon="9.286879071043872"><ele>555.5714285714286</ele><time>2026-04-11T15:10:19Z</time></trkpt><trkpt lat="44.8649899326846" lon="9.28698876477627"><ele>553.1428571428571</ele><time>2026-04-11T15:10:20Z</time></trkpt><trkpt lat="44.86500925788515" lon="9.287082164497468"><ele>550.7142857142858</ele><time>2026-04-11T15:10:21Z</time></trkpt><trkpt lat="44.86503177808693" lon="9.287192917388293"><ele>548.2857142857142</ele><time>2026-04-11T15:10:22Z</time></trkpt><trkpt lat="44.86505792279854" lon="9.287281336545437"><ele>545.8571428571429</ele><time>2026-04-11T15:10:23Z</time></trkpt><trkpt lat="44.86509894025417" lon="9.287363562692015"><ele>543.4285714285714</ele><time>2026-04-11T15:10:24Z</time></trkpt><trkpt lat="44.86514681593015" lon="9.287425539227513"><ele>541.0</ele><time>2026-04-11T15:10:25Z</time></trkpt><trkpt lat="44.86519125567357" lon="9.287489273183818"><ele>537.0</ele><time>2026-04-11T15:10:26Z</time></trkpt><trkpt lat="44.865241541296875" lon="9.287549956129608"><ele>533.0</ele><time>2026-04-11T15:10:27Z</time></trkpt><trkpt lat="44.86529615239044" lon="9.287626813369902"><ele>529.0</ele><time>2026-04-11T15:10:28Z</time></trkpt><trkpt lat="44.865342309399" lon="9.287742233906453"><ele>525.0</ele><time>2026-04-11T15:10:30Z</time></trkpt><trkpt lat="44.86533416428197" lon="9.287832423681325"><ele>521.0</ele><time>2026-04-11T15:10:35Z</time></trkpt><trkpt lat="44.86529329326677" lon="9.28796312225097"><ele>517.0</ele><time>2026-04-11T15:10:36.999Z</time></trkpt><trkpt lat="44.86523080858645" lon="9.288099259730759"><ele>517.6666666666667</ele><time>2026-04-11T15:10:38.999Z</time></trkpt><trkpt lat="44.86514974241342" lon="9.288187797893997"><ele>518.3333333333334</ele><time>2026-04-11T15:10:40.999Z</time></trkpt><trkpt lat="44.86511880500928" lon="9.28828782451688"><ele>519.0</ele><time>2026-04-11T15:10:42.999Z</time></trkpt><trkpt lat="44.86512231820615" lon="9.288414369434127"><ele>519.6666666666666</ele><time>2026-04-11T15:10:44.999Z</time></trkpt><trkpt lat="44.86509594320814" lon="9.288541032732914"><ele>520.3333333333333</ele><time>2026-04-11T15:10:47.999Z</time></trkpt><trkpt lat="44.8650519699532" lon="9.288609904622191"><ele>521.0</ele><time>2026-04-11T15:10:48.999Z</time></trkpt><trkpt lat="44.86502086792498" lon="9.28868778863962"><ele>521.0</ele><time>2026-04-11T15:10:49.999Z</time></trkpt><trkpt lat="44.86498324403429" lon="9.288774741428938"><ele>521.0</ele><time>2026-04-11T15:10:50.999Z</time></trkpt><trkpt lat="44.8649422720286" lon="9.288870269689898"><ele>521.0</ele><time>2026-04-11T15:10:51.999Z</time></trkpt><trkpt lat="44.864913066305355" lon="9.288978329988511"><ele>521.0</ele><time>2026-04-11T15:10:52.999Z</time></trkpt><trkpt lat="44.86487258610679" lon="9.289084267352074"><ele>521.0</ele><time>2026-04-11T15:10:53.999Z</time></trkpt><trkpt lat="44.864829802753405" lon="9.289191974885936"><ele>521.0</ele><time>2026-04-11T15:10:54.999Z</time></trkpt><trkpt lat="44.86478527329413" lon="9.289305986043276"><ele>518.4</ele><time>2026-04-11T15:10:55.999Z</time></trkpt><trkpt lat="44.86473941291023" lon="9.289417272775447"><ele>515.8</ele><time>2026-04-11T15:10:56.999Z</time></trkpt><trkpt lat="44.8646820910892" lon="9.289527024235978"><ele>513.1999999999999</ele><time>2026-04-11T15:10:57.999Z</time></trkpt><trkpt lat="44.86464822779311" lon="9.289662831888757"><ele>510.59999999999997</ele><time>2026-04-11T15:10:58.999Z</time></trkpt><trkpt lat="44.86459408277385" lon="9.289788764322454"><ele>508.0</ele><time>2026-04-11T15:10:59.999Z</time></trkpt><trkpt lat="44.864541900298875" lon="9.2899235553601"><ele>505.83333333333337</ele><time>2026-04-11T15:11:00.999Z</time></trkpt><trkpt lat="44.86449197953361" lon="9.290055397949708"><ele>503.6666666666667</ele><time>2026-04-11T15:11:01.999Z</time></trkpt><trkpt lat="44.86445491859586" lon="9.290173568753712"><ele>501.5</ele><time>2026-04-11T15:11:02.999Z</time></trkpt><trkpt lat="44.86442965036203" lon="9.29026204392609"><ele>499.33333333333337</ele><time>2026-04-11T15:11:03.999Z</time></trkpt><trkpt lat="44.86444507387725" lon="9.290355411200963"><ele>497.1666666666667</ele><time>2026-04-11T15:11:04.999Z</time></trkpt><trkpt lat="44.86451005344576" lon="9.290419624720316"><ele>495.0</ele><time>2026-04-11T15:11:05.999Z</time></trkpt><trkpt lat="44.86457267957054" lon="9.290466346713183"><ele>495.0</ele><time>2026-04-11T15:11:06.999Z</time></trkpt><trkpt lat="44.86464728080002" lon="9.290525249544137"><ele>495.0</ele><time>2026-04-11T15:11:07.999Z</time></trkpt><trkpt lat="44.864725142655466" lon="9.290592800268852"><ele>495.0</ele><time>2026-04-11T15:11:08.999Z</time></trkpt><trkpt lat="44.864793365747616" lon="9.290657197301607"><ele>495.0</ele><time>2026-04-11T15:11:09.999Z</time></trkpt><trkpt lat="44.86487246815059" lon="9.29066391746755"><ele>495.0</ele><time>2026-04-11T15:11:10.999Z</time></trkpt><trkpt lat="44.86495696301043" lon="9.290598546801158"><ele>495.0</ele><time>2026-04-11T15:11:11.999Z</time></trkpt><trkpt lat="44.865036307319755" lon="9.290555125134663"><ele>495.0</ele><time>2026-04-11T15:11:12.999Z</time></trkpt><trkpt lat="44.86511815945231" lon="9.29053043575424"><ele>489.0</ele><time>2026-04-11T15:11:13.999Z</time></trkpt><trkpt lat="44.86519398641695" lon="9.290531733439746"><ele>489.0</ele><time>2026-04-11T15:11:14.999Z</time></trkpt><trkpt lat="44.865297880465995" lon="9.290555440604"><ele>489.0</ele><time>2026-04-11T15:11:16.999Z</time></trkpt></trkseg></trk></gpx>